<?xml version="1.0" encoding="UTF-8"?>
<gpx xmlns="http://www.topografix.com/GPX/1/1" version="1.1" creator="Nokia Sports Tracker" xmlns:xsi="http://www.w3.org/2001/XMLSchema-instance" xsi:schemaLocation="http://www.topografix.com/GPX/1/1 http://www.topografix.com/GPX/1/1/gpx.xsd">
<metadata>
<name>29.09.2011 09.49</name>
<desc>Ciclismo</desc>
<author><name>Oscar</name></author>
<time>2011-09-29T09:52:38.07</time>
</metadata>
<trk>
<name>29.09.2011 09.49</name>
<trkseg>
<trkpt lat="41.635052" lon="-0.745425">
<ele>263.5</ele>
<speed>17.9</speed>
<course>129.5</course>
<desc>Speed 17.9 km/h Distance 0.00 km</desc>
<time>2011-09-29T09:54:34.83</time>
<name>1</name>
</trkpt>
<trkpt lat="41.634998" lon="-0.745338">
<ele>262.0</ele>
<speed>16.8</speed>
<course>129.0</course>
<desc>Speed 16.8 km/h Distance 0.01 km</desc>
<time>2011-09-29T09:54:36.83</time>
<name>2</name>
</trkpt>
<trkpt lat="41.634950" lon="-0.745258">
<ele>261.5</ele>
<speed>15.7</speed>
<course>135.6</course>
<desc>Speed 15.7 km/h Distance 0.02 km</desc>
<time>2011-09-29T09:54:38.80</time>
<name>3</name>
</trkpt>
<trkpt lat="41.634897" lon="-0.745188">
<ele>261.0</ele>
<speed>14.9</speed>
<course>128.0</course>
<desc>Speed 14.9 km/h Distance 0.03 km</desc>
<time>2011-09-29T09:54:40.80</time>
<name>4</name>
</trkpt>
<trkpt lat="41.634873" lon="-0.745148">
<ele>261.0</ele>
<speed>15.5</speed>
<course>127.7</course>
<desc>Speed 15.5 km/h Distance 0.03 km</desc>
<time>2011-09-29T09:54:41.80</time>
<name>5</name>
</trkpt>
<trkpt lat="41.634848" lon="-0.745105">
<ele>261.0</ele>
<speed>16.4</speed>
<course>124.6</course>
<desc>Speed 16.4 km/h Distance 0.03 km</desc>
<time>2011-09-29T09:54:42.80</time>
<name>6</name>
</trkpt>
<trkpt lat="41.634822" lon="-0.745053">
<ele>261.0</ele>
<speed>18.6</speed>
<course>119.6</course>
<desc>Speed 18.6 km/h Distance 0.04 km</desc>
<time>2011-09-29T09:54:43.80</time>
<name>7</name>
</trkpt>
<trkpt lat="41.634798" lon="-0.744998">
<ele>261.0</ele>
<speed>19.3</speed>
<course>118.5</course>
<desc>Speed 19.3 km/h Distance 0.05 km</desc>
<time>2011-09-29T09:54:44.80</time>
<name>8</name>
</trkpt>
<trkpt lat="41.634777" lon="-0.744945">
<ele>260.5</ele>
<speed>18.3</speed>
<course>125.6</course>
<desc>Speed 18.3 km/h Distance 0.05 km</desc>
<time>2011-09-29T09:54:45.81</time>
<name>9</name>
</trkpt>
<trkpt lat="41.634752" lon="-0.744898">
<ele>260.0</ele>
<speed>17.5</speed>
<course>131.2</course>
<desc>Speed 17.5 km/h Distance 0.06 km</desc>
<time>2011-09-29T09:54:46.80</time>
<name>10</name>
</trkpt>
<trkpt lat="41.634723" lon="-0.744855">
<ele>260.0</ele>
<speed>17.0</speed>
<course>127.9</course>
<desc>Speed 17.0 km/h Distance 0.06 km</desc>
<time>2011-09-29T09:54:47.90</time>
<name>11</name>
</trkpt>
<trkpt lat="41.634670" lon="-0.744763">
<ele>260.0</ele>
<speed>17.7</speed>
<course>123.8</course>
<desc>Speed 17.7 km/h Distance 0.07 km</desc>
<time>2011-09-29T09:54:49.80</time>
<name>12</name>
</trkpt>
<trkpt lat="41.634645" lon="-0.744713">
<ele>260.0</ele>
<speed>18.2</speed>
<course>124.6</course>
<desc>Speed 18.2 km/h Distance 0.07 km</desc>
<time>2011-09-29T09:54:50.80</time>
<name>13</name>
</trkpt>
<trkpt lat="41.634618" lon="-0.744662">
<ele>260.5</ele>
<speed>18.3</speed>
<course>126.3</course>
<desc>Speed 18.3 km/h Distance 0.08 km</desc>
<time>2011-09-29T09:54:51.80</time>
<name>14</name>
</trkpt>
<trkpt lat="41.634590" lon="-0.744610">
<ele>260.5</ele>
<speed>18.7</speed>
<course>125.4</course>
<desc>Speed 18.7 km/h Distance 0.09 km</desc>
<time>2011-09-29T09:54:52.79</time>
<name>15</name>
</trkpt>
<trkpt lat="41.634562" lon="-0.744557">
<ele>261.0</ele>
<speed>19.4</speed>
<course>123.0</course>
<desc>Speed 19.4 km/h Distance 0.09 km</desc>
<time>2011-09-29T09:54:53.79</time>
<name>16</name>
</trkpt>
<trkpt lat="41.634535" lon="-0.744502">
<ele>261.5</ele>
<speed>19.6</speed>
<course>119.6</course>
<desc>Speed 19.6 km/h Distance 0.10 km</desc>
<time>2011-09-29T09:54:54.79</time>
<name>17</name>
</trkpt>
<trkpt lat="41.634512" lon="-0.744447">
<ele>261.5</ele>
<speed>19.4</speed>
<course>125.4</course>
<desc>Speed 19.4 km/h Distance 0.10 km</desc>
<time>2011-09-29T09:54:55.82</time>
<name>18</name>
</trkpt>
<trkpt lat="41.634483" lon="-0.744393">
<ele>261.5</ele>
<speed>19.5</speed>
<course>124.2</course>
<desc>Speed 19.5 km/h Distance 0.11 km</desc>
<time>2011-09-29T09:54:56.94</time>
<name>19</name>
</trkpt>
<trkpt lat="41.634428" lon="-0.744285">
<ele>262.0</ele>
<speed>19.3</speed>
<course>127.8</course>
<desc>Speed 19.3 km/h Distance 0.12 km</desc>
<time>2011-09-29T09:54:58.79</time>
<name>20</name>
</trkpt>
<trkpt lat="41.634398" lon="-0.744233">
<ele>262.0</ele>
<speed>19.0</speed>
<course>132.7</course>
<desc>Speed 19.0 km/h Distance 0.12 km</desc>
<time>2011-09-29T09:54:59.79</time>
<name>21</name>
</trkpt>
<trkpt lat="41.634365" lon="-0.744185">
<ele>262.5</ele>
<speed>19.0</speed>
<course>125.5</course>
<desc>Speed 19.0 km/h Distance 0.13 km</desc>
<time>2011-09-29T09:55:00.78</time>
<name>22</name>
</trkpt>
<trkpt lat="41.634338" lon="-0.744135">
<ele>262.5</ele>
<speed>18.6</speed>
<course>124.6</course>
<desc>Speed 18.6 km/h Distance 0.13 km</desc>
<time>2011-09-29T09:55:01.79</time>
<name>23</name>
</trkpt>
<trkpt lat="41.634312" lon="-0.744083">
<ele>262.5</ele>
<speed>18.8</speed>
<course>123.8</course>
<desc>Speed 18.8 km/h Distance 0.14 km</desc>
<time>2011-09-29T09:55:02.78</time>
<name>24</name>
</trkpt>
<trkpt lat="41.634285" lon="-0.744030">
<ele>262.5</ele>
<speed>19.1</speed>
<course>127.2</course>
<desc>Speed 19.1 km/h Distance 0.14 km</desc>
<time>2011-09-29T09:55:03.78</time>
<name>25</name>
</trkpt>
<trkpt lat="41.634257" lon="-0.743980">
<ele>262.5</ele>
<speed>19.0</speed>
<course>127.2</course>
<desc>Speed 19.0 km/h Distance 0.15 km</desc>
<time>2011-09-29T09:55:04.86</time>
<name>26</name>
</trkpt>
<trkpt lat="41.634228" lon="-0.743930">
<ele>262.5</ele>
<speed>19.1</speed>
<course>125.4</course>
<desc>Speed 19.1 km/h Distance 0.15 km</desc>
<time>2011-09-29T09:55:05.78</time>
<name>27</name>
</trkpt>
<trkpt lat="41.634200" lon="-0.743877">
<ele>262.5</ele>
<speed>19.3</speed>
<course>126.3</course>
<desc>Speed 19.3 km/h Distance 0.16 km</desc>
<time>2011-09-29T09:55:06.78</time>
<name>28</name>
</trkpt>
<trkpt lat="41.634172" lon="-0.743825">
<ele>262.5</ele>
<speed>19.4</speed>
<course>123.8</course>
<desc>Speed 19.4 km/h Distance 0.17 km</desc>
<time>2011-09-29T09:55:07.78</time>
<name>29</name>
</trkpt>
<trkpt lat="41.634145" lon="-0.743772">
<ele>262.0</ele>
<speed>19.4</speed>
<course>123.8</course>
<desc>Speed 19.4 km/h Distance 0.17 km</desc>
<time>2011-09-29T09:55:08.77</time>
<name>30</name>
</trkpt>
<trkpt lat="41.634118" lon="-0.743718">
<ele>262.0</ele>
<speed>19.7</speed>
<course>125.4</course>
<desc>Speed 19.7 km/h Distance 0.18 km</desc>
<time>2011-09-29T09:55:09.77</time>
<name>31</name>
</trkpt>
<trkpt lat="41.634090" lon="-0.743665">
<ele>262.0</ele>
<speed>19.6</speed>
<course>124.6</course>
<desc>Speed 19.6 km/h Distance 0.18 km</desc>
<time>2011-09-29T09:55:10.77</time>
<name>32</name>
</trkpt>
<trkpt lat="41.634062" lon="-0.743610">
<ele>262.0</ele>
<speed>19.8</speed>
<course>125.0</course>
<desc>Speed 19.8 km/h Distance 0.19 km</desc>
<time>2011-09-29T09:55:12.08</time>
<name>33</name>
</trkpt>
<trkpt lat="41.634005" lon="-0.743502">
<ele>262.0</ele>
<speed>20.0</speed>
<course>122.2</course>
<desc>Speed 20.0 km/h Distance 0.20 km</desc>
<time>2011-09-29T09:55:13.77</time>
<name>34</name>
</trkpt>
<trkpt lat="41.633978" lon="-0.743445">
<ele>262.0</ele>
<speed>20.2</speed>
<course>124.6</course>
<desc>Speed 20.2 km/h Distance 0.20 km</desc>
<time>2011-09-29T09:55:14.77</time>
<name>35</name>
</trkpt>
<trkpt lat="41.633950" lon="-0.743390">
<ele>262.0</ele>
<speed>20.3</speed>
<course>124.6</course>
<desc>Speed 20.3 km/h Distance 0.21 km</desc>
<time>2011-09-29T09:55:15.77</time>
<name>36</name>
</trkpt>
<trkpt lat="41.633922" lon="-0.743335">
<ele>262.0</ele>
<speed>20.2</speed>
<course>125.3</course>
<desc>Speed 20.2 km/h Distance 0.21 km</desc>
<time>2011-09-29T09:55:16.77</time>
<name>37</name>
</trkpt>
<trkpt lat="41.633892" lon="-0.743278">
<ele>261.5</ele>
<speed>20.8</speed>
<course>123.0</course>
<desc>Speed 20.8 km/h Distance 0.22 km</desc>
<time>2011-09-29T09:55:17.77</time>
<name>38</name>
</trkpt>
<trkpt lat="41.633863" lon="-0.743220">
<ele>261.5</ele>
<speed>20.9</speed>
<course>123.8</course>
<desc>Speed 20.9 km/h Distance 0.23 km</desc>
<time>2011-09-29T09:55:18.94</time>
<name>39</name>
</trkpt>
<trkpt lat="41.633835" lon="-0.743163">
<ele>261.5</ele>
<speed>21.0</speed>
<course>125.3</course>
<desc>Speed 21.0 km/h Distance 0.23 km</desc>
<time>2011-09-29T09:55:19.77</time>
<name>40</name>
</trkpt>
<trkpt lat="41.633805" lon="-0.743107">
<ele>261.5</ele>
<speed>21.1</speed>
<course>123.0</course>
<desc>Speed 21.1 km/h Distance 0.24 km</desc>
<time>2011-09-29T09:55:20.77</time>
<name>41</name>
</trkpt>
<trkpt lat="41.633777" lon="-0.743048">
<ele>261.5</ele>
<speed>21.0</speed>
<course>123.8</course>
<desc>Speed 21.0 km/h Distance 0.24 km</desc>
<time>2011-09-29T09:55:21.78</time>
<name>42</name>
</trkpt>
<trkpt lat="41.633748" lon="-0.742992">
<ele>261.5</ele>
<speed>20.7</speed>
<course>126.1</course>
<desc>Speed 20.7 km/h Distance 0.25 km</desc>
<time>2011-09-29T09:55:22.77</time>
<name>43</name>
</trkpt>
<trkpt lat="41.633718" lon="-0.742937">
<ele>261.5</ele>
<speed>20.6</speed>
<course>127.6</course>
<desc>Speed 20.6 km/h Distance 0.26 km</desc>
<time>2011-09-29T09:55:23.77</time>
<name>44</name>
</trkpt>
<trkpt lat="41.633687" lon="-0.742882">
<ele>261.5</ele>
<speed>20.9</speed>
<course>124.5</course>
<desc>Speed 20.9 km/h Distance 0.26 km</desc>
<time>2011-09-29T09:55:24.76</time>
<name>45</name>
</trkpt>
<trkpt lat="41.633657" lon="-0.742823">
<ele>261.5</ele>
<speed>21.0</speed>
<course>120.7</course>
<desc>Speed 21.0 km/h Distance 0.27 km</desc>
<time>2011-09-29T09:55:25.76</time>
<name>46</name>
</trkpt>
<trkpt lat="41.633630" lon="-0.742763">
<ele>261.5</ele>
<speed>21.1</speed>
<course>124.5</course>
<desc>Speed 21.1 km/h Distance 0.27 km</desc>
<time>2011-09-29T09:55:26.77</time>
<name>47</name>
</trkpt>
<trkpt lat="41.633600" lon="-0.742705">
<ele>261.5</ele>
<speed>21.1</speed>
<course>123.0</course>
<desc>Speed 21.1 km/h Distance 0.28 km</desc>
<time>2011-09-29T09:55:27.76</time>
<name>48</name>
</trkpt>
<trkpt lat="41.633572" lon="-0.742647">
<ele>261.5</ele>
<speed>20.8</speed>
<course>124.5</course>
<desc>Speed 20.8 km/h Distance 0.28 km</desc>
<time>2011-09-29T09:55:28.76</time>
<name>49</name>
</trkpt>
<trkpt lat="41.633542" lon="-0.742588">
<ele>261.5</ele>
<speed>21.4</speed>
<course>125.2</course>
<desc>Speed 21.4 km/h Distance 0.29 km</desc>
<time>2011-09-29T09:55:29.76</time>
<name>50</name>
</trkpt>
<trkpt lat="41.633510" lon="-0.742528">
<ele>261.5</ele>
<speed>22.0</speed>
<course>124.7</course>
<desc>Speed 22.0 km/h Distance 0.30 km</desc>
<time>2011-09-29T09:55:31.46</time>
<name>51</name>
</trkpt>
<trkpt lat="41.633412" lon="-0.742338">
<ele>261.5</ele>
<speed>23.8</speed>
<course>125.8</course>
<desc>Speed 23.8 km/h Distance 0.32 km</desc>
<time>2011-09-29T09:55:33.76</time>
<name>52</name>
</trkpt>
<trkpt lat="41.633377" lon="-0.742273">
<ele>261.5</ele>
<speed>23.8</speed>
<course>127.8</course>
<desc>Speed 23.8 km/h Distance 0.32 km</desc>
<time>2011-09-29T09:55:34.76</time>
<name>53</name>
</trkpt>
<trkpt lat="41.633340" lon="-0.742210">
<ele>261.5</ele>
<speed>24.2</speed>
<course>123.8</course>
<desc>Speed 24.2 km/h Distance 0.33 km</desc>
<time>2011-09-29T09:55:35.76</time>
<name>54</name>
</trkpt>
<trkpt lat="41.633307" lon="-0.742143">
<ele>261.5</ele>
<speed>24.0</speed>
<course>120.4</course>
<desc>Speed 24.0 km/h Distance 0.34 km</desc>
<time>2011-09-29T09:55:36.76</time>
<name>55</name>
</trkpt>
<trkpt lat="41.633277" lon="-0.742075">
<ele>261.5</ele>
<speed>23.9</speed>
<course>124.5</course>
<desc>Speed 23.9 km/h Distance 0.34 km</desc>
<time>2011-09-29T09:55:37.75</time>
<name>56</name>
</trkpt>
<trkpt lat="41.633243" lon="-0.742010">
<ele>261.5</ele>
<speed>23.8</speed>
<course>121.7</course>
<desc>Speed 23.8 km/h Distance 0.35 km</desc>
<time>2011-09-29T09:55:38.76</time>
<name>57</name>
</trkpt>
<trkpt lat="41.633213" lon="-0.741945">
<ele>261.5</ele>
<speed>23.2</speed>
<course>119.6</course>
<desc>Speed 23.2 km/h Distance 0.36 km</desc>
<time>2011-09-29T09:55:39.75</time>
<name>58</name>
</trkpt>
<trkpt lat="41.633185" lon="-0.741878">
<ele>261.5</ele>
<speed>23.1</speed>
<course>121.6</course>
<desc>Speed 23.1 km/h Distance 0.36 km</desc>
<time>2011-09-29T09:55:41.21</time>
<name>59</name>
</trkpt>
<trkpt lat="41.633127" lon="-0.741752">
<ele>261.5</ele>
<speed>23.0</speed>
<course>120.2</course>
<desc>Speed 23.0 km/h Distance 0.37 km</desc>
<time>2011-09-29T09:55:42.75</time>
<name>60</name>
</trkpt>
<trkpt lat="41.633098" lon="-0.741687">
<ele>261.0</ele>
<speed>23.2</speed>
<course>121.1</course>
<desc>Speed 23.2 km/h Distance 0.38 km</desc>
<time>2011-09-29T09:55:43.75</time>
<name>61</name>
</trkpt>
<trkpt lat="41.633068" lon="-0.741620">
<ele>261.0</ele>
<speed>23.3</speed>
<course>124.5</course>
<desc>Speed 23.3 km/h Distance 0.39 km</desc>
<time>2011-09-29T09:55:44.75</time>
<name>62</name>
</trkpt>
<trkpt lat="41.633035" lon="-0.741555">
<ele>261.5</ele>
<speed>23.8</speed>
<course>120.4</course>
<desc>Speed 23.8 km/h Distance 0.39 km</desc>
<time>2011-09-29T09:55:45.75</time>
<name>63</name>
</trkpt>
<trkpt lat="41.633005" lon="-0.741487">
<ele>261.5</ele>
<speed>23.8</speed>
<course>121.8</course>
<desc>Speed 23.8 km/h Distance 0.40 km</desc>
<time>2011-09-29T09:55:46.75</time>
<name>64</name>
</trkpt>
<trkpt lat="41.632973" lon="-0.741418">
<ele>261.5</ele>
<speed>24.0</speed>
<course>122.2</course>
<desc>Speed 24.0 km/h Distance 0.41 km</desc>
<time>2011-09-29T09:55:48.13</time>
<name>65</name>
</trkpt>
<trkpt lat="41.632908" lon="-0.741280">
<ele>261.5</ele>
<speed>24.3</speed>
<course>123.8</course>
<desc>Speed 24.3 km/h Distance 0.42 km</desc>
<time>2011-09-29T09:55:49.75</time>
<name>66</name>
</trkpt>
<trkpt lat="41.632873" lon="-0.741210">
<ele>261.5</ele>
<speed>24.9</speed>
<course>120.0</course>
<desc>Speed 24.9 km/h Distance 0.43 km</desc>
<time>2011-09-29T09:55:50.94</time>
<name>67</name>
</trkpt>
<trkpt lat="41.632810" lon="-0.741063">
<ele>261.5</ele>
<speed>25.1</speed>
<course>121.9</course>
<desc>Speed 25.1 km/h Distance 0.44 km</desc>
<time>2011-09-29T09:55:52.75</time>
<name>68</name>
</trkpt>
<trkpt lat="41.632777" lon="-0.740992">
<ele>261.5</ele>
<speed>25.2</speed>
<course>119.3</course>
<desc>Speed 25.2 km/h Distance 0.45 km</desc>
<time>2011-09-29T09:55:53.74</time>
<name>69</name>
</trkpt>
<trkpt lat="41.632747" lon="-0.740920">
<ele>261.5</ele>
<speed>24.7</speed>
<course>118.7</course>
<desc>Speed 24.7 km/h Distance 0.45 km</desc>
<time>2011-09-29T09:55:54.75</time>
<name>70</name>
</trkpt>
<trkpt lat="41.632717" lon="-0.740847">
<ele>261.5</ele>
<speed>25.1</speed>
<course>120.6</course>
<desc>Speed 25.1 km/h Distance 0.46 km</desc>
<time>2011-09-29T09:55:55.75</time>
<name>71</name>
</trkpt>
<trkpt lat="41.632685" lon="-0.740775">
<ele>261.5</ele>
<speed>25.0</speed>
<course>120.0</course>
<desc>Speed 25.0 km/h Distance 0.47 km</desc>
<time>2011-09-29T09:55:56.75</time>
<name>72</name>
</trkpt>
<trkpt lat="41.632653" lon="-0.740702">
<ele>261.5</ele>
<speed>25.3</speed>
<course>118.2</course>
<desc>Speed 25.3 km/h Distance 0.48 km</desc>
<time>2011-09-29T09:55:57.87</time>
<name>73</name>
</trkpt>
<trkpt lat="41.632623" lon="-0.740627">
<ele>261.5</ele>
<speed>25.3</speed>
<course>114.5</course>
<desc>Speed 25.3 km/h Distance 0.48 km</desc>
<time>2011-09-29T09:55:58.75</time>
<name>74</name>
</trkpt>
<trkpt lat="41.632598" lon="-0.740553">
<ele>261.5</ele>
<speed>24.1</speed>
<course>117.3</course>
<desc>Speed 24.1 km/h Distance 0.49 km</desc>
<time>2011-09-29T09:55:59.75</time>
<name>75</name>
</trkpt>
<trkpt lat="41.632570" lon="-0.740480">
<ele>261.5</ele>
<speed>24.4</speed>
<course>117.3</course>
<desc>Speed 24.4 km/h Distance 0.50 km</desc>
<time>2011-09-29T09:56:00.74</time>
<name>76</name>
</trkpt>
<trkpt lat="41.632542" lon="-0.740407">
<ele>261.5</ele>
<speed>25.3</speed>
<course>116.8</course>
<desc>Speed 25.3 km/h Distance 0.50 km</desc>
<time>2011-09-29T09:56:01.74</time>
<name>77</name>
</trkpt>
<trkpt lat="41.632513" lon="-0.740332">
<ele>261.5</ele>
<speed>24.9</speed>
<course>115.9</course>
<desc>Speed 24.9 km/h Distance 0.51 km</desc>
<time>2011-09-29T09:56:02.74</time>
<name>78</name>
</trkpt>
<trkpt lat="41.632487" lon="-0.740258">
<ele>261.5</ele>
<speed>24.8</speed>
<course>115.4</course>
<desc>Speed 24.8 km/h Distance 0.52 km</desc>
<time>2011-09-29T09:56:03.75</time>
<name>79</name>
</trkpt>
<trkpt lat="41.632460" lon="-0.740183">
<ele>261.5</ele>
<speed>24.7</speed>
<course>117.9</course>
<desc>Speed 24.7 km/h Distance 0.52 km</desc>
<time>2011-09-29T09:56:04.75</time>
<name>80</name>
</trkpt>
<trkpt lat="41.632432" lon="-0.740112">
<ele>261.5</ele>
<speed>24.8</speed>
<course>114.0</course>
<desc>Speed 24.8 km/h Distance 0.53 km</desc>
<time>2011-09-29T09:56:05.74</time>
<name>81</name>
</trkpt>
<trkpt lat="41.632407" lon="-0.740037">
<ele>261.0</ele>
<speed>24.4</speed>
<course>113.1</course>
<desc>Speed 24.4 km/h Distance 0.54 km</desc>
<time>2011-09-29T09:56:06.74</time>
<name>82</name>
</trkpt>
<trkpt lat="41.632383" lon="-0.739963">
<ele>261.0</ele>
<speed>24.3</speed>
<course>114.5</course>
<desc>Speed 24.3 km/h Distance 0.54 km</desc>
<time>2011-09-29T09:56:07.74</time>
<name>83</name>
</trkpt>
<trkpt lat="41.632358" lon="-0.739890">
<ele>261.0</ele>
<speed>24.3</speed>
<course>112.2</course>
<desc>Speed 24.3 km/h Distance 0.55 km</desc>
<time>2011-09-29T09:56:08.74</time>
<name>84</name>
</trkpt>
<trkpt lat="41.632335" lon="-0.739813">
<ele>260.5</ele>
<speed>24.9</speed>
<course>115.0</course>
<desc>Speed 24.9 km/h Distance 0.56 km</desc>
<time>2011-09-29T09:56:10.43</time>
<name>85</name>
</trkpt>
<trkpt lat="41.632255" lon="-0.739583">
<ele>260.5</ele>
<speed>25.5</speed>
<course>111.7</course>
<desc>Speed 25.5 km/h Distance 0.58 km</desc>
<time>2011-09-29T09:56:12.73</time>
<name>86</name>
</trkpt>
<trkpt lat="41.632232" lon="-0.739505">
<ele>260.5</ele>
<speed>25.5</speed>
<course>111.7</course>
<desc>Speed 25.5 km/h Distance 0.59 km</desc>
<time>2011-09-29T09:56:13.74</time>
<name>87</name>
</trkpt>
<trkpt lat="41.632208" lon="-0.739427">
<ele>260.0</ele>
<speed>25.3</speed>
<course>114.0</course>
<desc>Speed 25.3 km/h Distance 0.59 km</desc>
<time>2011-09-29T09:56:14.73</time>
<name>88</name>
</trkpt>
<trkpt lat="41.632182" lon="-0.739347">
<ele>260.0</ele>
<speed>25.8</speed>
<course>114.0</course>
<desc>Speed 25.8 km/h Distance 0.60 km</desc>
<time>2011-09-29T09:56:15.74</time>
<name>89</name>
</trkpt>
<trkpt lat="41.632155" lon="-0.739267">
<ele>260.0</ele>
<speed>26.1</speed>
<course>111.3</course>
<desc>Speed 26.1 km/h Distance 0.61 km</desc>
<time>2011-09-29T09:56:16.73</time>
<name>90</name>
</trkpt>
<trkpt lat="41.632132" lon="-0.739187">
<ele>259.5</ele>
<speed>25.9</speed>
<course>113.1</course>
<desc>Speed 25.9 km/h Distance 0.61 km</desc>
<time>2011-09-29T09:56:17.73</time>
<name>91</name>
</trkpt>
<trkpt lat="41.632107" lon="-0.739108">
<ele>259.5</ele>
<speed>25.6</speed>
<course>113.1</course>
<desc>Speed 25.6 km/h Distance 0.62 km</desc>
<time>2011-09-29T09:56:18.73</time>
<name>92</name>
</trkpt>
<trkpt lat="41.632082" lon="-0.739030">
<ele>259.5</ele>
<speed>25.7</speed>
<course>113.8</course>
<desc>Speed 25.7 km/h Distance 0.63 km</desc>
<time>2011-09-29T09:56:20.16</time>
<name>93</name>
</trkpt>
<trkpt lat="41.632030" lon="-0.738873">
<ele>259.0</ele>
<speed>25.5</speed>
<course>113.1</course>
<desc>Speed 25.5 km/h Distance 0.64 km</desc>
<time>2011-09-29T09:56:21.73</time>
<name>94</name>
</trkpt>
<trkpt lat="41.632005" lon="-0.738795">
<ele>259.0</ele>
<speed>25.6</speed>
<course>111.3</course>
<desc>Speed 25.6 km/h Distance 0.65 km</desc>
<time>2011-09-29T09:56:22.73</time>
<name>95</name>
</trkpt>
<trkpt lat="41.631982" lon="-0.738715">
<ele>259.0</ele>
<speed>25.4</speed>
<course>111.7</course>
<desc>Speed 25.4 km/h Distance 0.66 km</desc>
<time>2011-09-29T09:56:23.73</time>
<name>96</name>
</trkpt>
<trkpt lat="41.631958" lon="-0.738637">
<ele>259.0</ele>
<speed>25.3</speed>
<course>109.9</course>
<desc>Speed 25.3 km/h Distance 0.66 km</desc>
<time>2011-09-29T09:56:24.73</time>
<name>97</name>
</trkpt>
<trkpt lat="41.631937" lon="-0.738557">
<ele>258.5</ele>
<speed>25.5</speed>
<course>111.7</course>
<desc>Speed 25.5 km/h Distance 0.67 km</desc>
<time>2011-09-29T09:56:25.73</time>
<name>98</name>
</trkpt>
<trkpt lat="41.631913" lon="-0.738478">
<ele>258.5</ele>
<speed>25.3</speed>
<course>109.4</course>
<desc>Speed 25.3 km/h Distance 0.68 km</desc>
<time>2011-09-29T09:56:27.10</time>
<name>99</name>
</trkpt>
<trkpt lat="41.631872" lon="-0.738320">
<ele>258.0</ele>
<speed>24.9</speed>
<course>108.9</course>
<desc>Speed 24.9 km/h Distance 0.69 km</desc>
<time>2011-09-29T09:56:28.72</time>
<name>100</name>
</trkpt>
<trkpt lat="41.631852" lon="-0.738242">
<ele>258.0</ele>
<speed>24.8</speed>
<course>112.2</course>
<desc>Speed 24.8 km/h Distance 0.70 km</desc>
<time>2011-09-29T09:56:29.92</time>
<name>101</name>
</trkpt>
<trkpt lat="41.631828" lon="-0.738165">
<ele>257.5</ele>
<speed>24.9</speed>
<course>112.2</course>
<desc>Speed 24.9 km/h Distance 0.71 km</desc>
<time>2011-09-29T09:56:30.73</time>
<name>102</name>
</trkpt>
<trkpt lat="41.631805" lon="-0.738088">
<ele>257.5</ele>
<speed>24.9</speed>
<course>110.3</course>
<desc>Speed 24.9 km/h Distance 0.71 km</desc>
<time>2011-09-29T09:56:31.72</time>
<name>103</name>
</trkpt>
<trkpt lat="41.631783" lon="-0.738010">
<ele>257.5</ele>
<speed>25.1</speed>
<course>104.1</course>
<desc>Speed 25.1 km/h Distance 0.72 km</desc>
<time>2011-09-29T09:56:32.72</time>
<name>104</name>
</trkpt>
<trkpt lat="41.631768" lon="-0.737930">
<ele>257.0</ele>
<speed>25.3</speed>
<course>108.5</course>
<desc>Speed 25.3 km/h Distance 0.73 km</desc>
<time>2011-09-29T09:56:33.72</time>
<name>105</name>
</trkpt>
<trkpt lat="41.631748" lon="-0.737850">
<ele>256.0</ele>
<speed>25.3</speed>
<course>108.5</course>
<desc>Speed 25.3 km/h Distance 0.73 km</desc>
<time>2011-09-29T09:56:34.72</time>
<name>106</name>
</trkpt>
<trkpt lat="41.631728" lon="-0.737770">
<ele>256.0</ele>
<speed>25.2</speed>
<course>104.1</course>
<desc>Speed 25.2 km/h Distance 0.74 km</desc>
<time>2011-09-29T09:56:35.72</time>
<name>107</name>
</trkpt>
<trkpt lat="41.631713" lon="-0.737690">
<ele>255.5</ele>
<speed>25.1</speed>
<course>113.6</course>
<desc>Speed 25.1 km/h Distance 0.75 km</desc>
<time>2011-09-29T09:56:36.84</time>
<name>108</name>
</trkpt>
<trkpt lat="41.631688" lon="-0.737613">
<ele>255.5</ele>
<speed>24.8</speed>
<course>115.4</course>
<desc>Speed 24.8 km/h Distance 0.75 km</desc>
<time>2011-09-29T09:56:37.72</time>
<name>109</name>
</trkpt>
<trkpt lat="41.631662" lon="-0.737538">
<ele>255.5</ele>
<speed>24.3</speed>
<course>115.4</course>
<desc>Speed 24.3 km/h Distance 0.76 km</desc>
<time>2011-09-29T09:56:38.72</time>
<name>110</name>
</trkpt>
<trkpt lat="41.631635" lon="-0.737463">
<ele>255.5</ele>
<speed>24.8</speed>
<course>112.2</course>
<desc>Speed 24.8 km/h Distance 0.77 km</desc>
<time>2011-09-29T09:56:39.72</time>
<name>111</name>
</trkpt>
<trkpt lat="41.631612" lon="-0.737387">
<ele>255.5</ele>
<speed>24.9</speed>
<course>112.2</course>
<desc>Speed 24.9 km/h Distance 0.78 km</desc>
<time>2011-09-29T09:56:40.73</time>
<name>112</name>
</trkpt>
<trkpt lat="41.631588" lon="-0.737310">
<ele>255.0</ele>
<speed>24.9</speed>
<course>112.2</course>
<desc>Speed 24.9 km/h Distance 0.78 km</desc>
<time>2011-09-29T09:56:41.72</time>
<name>113</name>
</trkpt>
<trkpt lat="41.631565" lon="-0.737233">
<ele>255.0</ele>
<speed>25.1</speed>
<course>114.0</course>
<desc>Speed 25.1 km/h Distance 0.79 km</desc>
<time>2011-09-29T09:56:42.72</time>
<name>114</name>
</trkpt>
<trkpt lat="41.631540" lon="-0.737158">
<ele>255.0</ele>
<speed>24.8</speed>
<course>112.2</course>
<desc>Speed 24.8 km/h Distance 0.80 km</desc>
<time>2011-09-29T09:56:43.72</time>
<name>115</name>
</trkpt>
<trkpt lat="41.631517" lon="-0.737082">
<ele>254.5</ele>
<speed>24.9</speed>
<course>115.4</course>
<desc>Speed 24.9 km/h Distance 0.80 km</desc>
<time>2011-09-29T09:56:44.72</time>
<name>116</name>
</trkpt>
<trkpt lat="41.631490" lon="-0.737007">
<ele>254.5</ele>
<speed>24.8</speed>
<course>115.4</course>
<desc>Speed 24.8 km/h Distance 0.81 km</desc>
<time>2011-09-29T09:56:45.73</time>
<name>117</name>
</trkpt>
<trkpt lat="41.631463" lon="-0.736932">
<ele>254.5</ele>
<speed>24.6</speed>
<course>115.4</course>
<desc>Speed 24.6 km/h Distance 0.82 km</desc>
<time>2011-09-29T09:56:46.73</time>
<name>118</name>
</trkpt>
<trkpt lat="41.631437" lon="-0.736857">
<ele>254.5</ele>
<speed>24.7</speed>
<course>113.6</course>
<desc>Speed 24.7 km/h Distance 0.82 km</desc>
<time>2011-09-29T09:56:47.72</time>
<name>119</name>
</trkpt>
<trkpt lat="41.631412" lon="-0.736780">
<ele>254.5</ele>
<speed>24.7</speed>
<course>117.3</course>
<desc>Speed 24.7 km/h Distance 0.83 km</desc>
<time>2011-09-29T09:56:49.36</time>
<name>120</name>
</trkpt>
<trkpt lat="41.631327" lon="-0.736560">
<ele>254.0</ele>
<speed>24.7</speed>
<course>119.3</course>
<desc>Speed 24.7 km/h Distance 0.85 km</desc>
<time>2011-09-29T09:56:51.71</time>
<name>121</name>
</trkpt>
<trkpt lat="41.631297" lon="-0.736488">
<ele>254.0</ele>
<speed>24.7</speed>
<course>115.4</course>
<desc>Speed 24.7 km/h Distance 0.86 km</desc>
<time>2011-09-29T09:56:52.71</time>
<name>122</name>
</trkpt>
<trkpt lat="41.631270" lon="-0.736413">
<ele>253.5</ele>
<speed>24.7</speed>
<course>117.3</course>
<desc>Speed 24.7 km/h Distance 0.87 km</desc>
<time>2011-09-29T09:56:53.71</time>
<name>123</name>
</trkpt>
<trkpt lat="41.631242" lon="-0.736340">
<ele>253.5</ele>
<speed>24.6</speed>
<course>117.3</course>
<desc>Speed 24.6 km/h Distance 0.87 km</desc>
<time>2011-09-29T09:56:54.71</time>
<name>124</name>
</trkpt>
<trkpt lat="41.631213" lon="-0.736267">
<ele>253.5</ele>
<speed>24.9</speed>
<course>118.7</course>
<desc>Speed 24.9 km/h Distance 0.88 km</desc>
<time>2011-09-29T09:56:55.72</time>
<name>125</name>
</trkpt>
<trkpt lat="41.631183" lon="-0.736193">
<ele>253.5</ele>
<speed>25.1</speed>
<course>118.7</course>
<desc>Speed 25.1 km/h Distance 0.89 km</desc>
<time>2011-09-29T09:56:56.71</time>
<name>126</name>
</trkpt>
<trkpt lat="41.631153" lon="-0.736120">
<ele>253.0</ele>
<speed>25.1</speed>
<course>116.8</course>
<desc>Speed 25.1 km/h Distance 0.89 km</desc>
<time>2011-09-29T09:56:57.71</time>
<name>127</name>
</trkpt>
<trkpt lat="41.631125" lon="-0.736045">
<ele>253.0</ele>
<speed>25.2</speed>
<course>117.8</course>
<desc>Speed 25.2 km/h Distance 0.90 km</desc>
<time>2011-09-29T09:56:59.19</time>
<name>128</name>
</trkpt>
<trkpt lat="41.631067" lon="-0.735897">
<ele>252.5</ele>
<speed>25.3</speed>
<course>118.7</course>
<desc>Speed 25.3 km/h Distance 0.91 km</desc>
<time>2011-09-29T09:57:00.71</time>
<name>129</name>
</trkpt>
<trkpt lat="41.631037" lon="-0.735823">
<ele>252.5</ele>
<speed>25.4</speed>
<course>120.0</course>
<desc>Speed 25.4 km/h Distance 0.92 km</desc>
<time>2011-09-29T09:57:01.71</time>
<name>130</name>
</trkpt>
<trkpt lat="41.631005" lon="-0.735750">
<ele>252.5</ele>
<speed>25.2</speed>
<course>119.3</course>
<desc>Speed 25.2 km/h Distance 0.93 km</desc>
<time>2011-09-29T09:57:02.71</time>
<name>131</name>
</trkpt>
<trkpt lat="41.630975" lon="-0.735678">
<ele>252.5</ele>
<speed>25.2</speed>
<course>118.7</course>
<desc>Speed 25.2 km/h Distance 0.93 km</desc>
<time>2011-09-29T09:57:03.71</time>
<name>132</name>
</trkpt>
<trkpt lat="41.630945" lon="-0.735605">
<ele>252.5</ele>
<speed>25.4</speed>
<course>120.0</course>
<desc>Speed 25.4 km/h Distance 0.94 km</desc>
<time>2011-09-29T09:57:04.71</time>
<name>133</name>
</trkpt>
<trkpt lat="41.630913" lon="-0.735532">
<ele>252.0</ele>
<speed>25.5</speed>
<course>120.7</course>
<desc>Speed 25.5 km/h Distance 0.95 km</desc>
<time>2011-09-29T09:57:05.71</time>
<name>134</name>
</trkpt>
<trkpt lat="41.630880" lon="-0.735457">
<ele>252.0</ele>
<speed>25.7</speed>
<course>120.0</course>
<desc>Speed 25.7 km/h Distance 0.96 km</desc>
<time>2011-09-29T09:57:06.71</time>
<name>135</name>
</trkpt>
<trkpt lat="41.630848" lon="-0.735383">
<ele>252.0</ele>
<speed>25.6</speed>
<course>122.6</course>
<desc>Speed 25.6 km/h Distance 0.96 km</desc>
<time>2011-09-29T09:57:07.72</time>
<name>136</name>
</trkpt>
<trkpt lat="41.630813" lon="-0.735310">
<ele>252.0</ele>
<speed>25.9</speed>
<course>122.6</course>
<desc>Speed 25.9 km/h Distance 0.97 km</desc>
<time>2011-09-29T09:57:08.96</time>
<name>137</name>
</trkpt>
<trkpt lat="41.630743" lon="-0.735163">
<ele>252.0</ele>
<speed>26.3</speed>
<course>122.0</course>
<desc>Speed 26.3 km/h Distance 0.98 km</desc>
<time>2011-09-29T09:57:10.71</time>
<name>138</name>
</trkpt>
<trkpt lat="41.630708" lon="-0.735088">
<ele>252.0</ele>
<speed>26.3</speed>
<course>120.7</course>
<desc>Speed 26.3 km/h Distance 0.99 km</desc>
<time>2011-09-29T09:57:11.70</time>
<name>139</name>
</trkpt>
<trkpt lat="41.630675" lon="-0.735013">
<ele>251.5</ele>
<speed>26.2</speed>
<course>123.2</course>
<desc>Speed 26.2 km/h Distance 1.00 km</desc>
<time>2011-09-29T09:57:12.70</time>
<name>140</name>
</trkpt>
<trkpt lat="41.630640" lon="-0.734942">
<ele>251.5</ele>
<speed>26.2</speed>
<course>125.6</course>
<desc>Speed 26.2 km/h Distance 1.01 km</desc>
<time>2011-09-29T09:57:13.70</time>
<name>141</name>
</trkpt>
<trkpt lat="41.630602" lon="-0.734870">
<ele>251.5</ele>
<speed>26.2</speed>
<course>124.4</course>
<desc>Speed 26.2 km/h Distance 1.01 km</desc>
<time>2011-09-29T09:57:14.70</time>
<name>142</name>
</trkpt>
<trkpt lat="41.630565" lon="-0.734798">
<ele>251.5</ele>
<speed>26.1</speed>
<course>125.0</course>
<desc>Speed 26.1 km/h Distance 1.02 km</desc>
<time>2011-09-29T09:57:15.99</time>
<name>143</name>
</trkpt>
<trkpt lat="41.630490" lon="-0.734655">
<ele>251.5</ele>
<speed>26.2</speed>
<course>122.6</course>
<desc>Speed 26.2 km/h Distance 1.04 km</desc>
<time>2011-09-29T09:57:17.70</time>
<name>144</name>
</trkpt>
<trkpt lat="41.630455" lon="-0.734582">
<ele>251.5</ele>
<speed>26.3</speed>
<course>122.6</course>
<desc>Speed 26.3 km/h Distance 1.04 km</desc>
<time>2011-09-29T09:57:18.79</time>
<name>145</name>
</trkpt>
<trkpt lat="41.630420" lon="-0.734508">
<ele>251.5</ele>
<speed>26.1</speed>
<course>124.4</course>
<desc>Speed 26.1 km/h Distance 1.05 km</desc>
<time>2011-09-29T09:57:19.70</time>
<name>146</name>
</trkpt>
<trkpt lat="41.630383" lon="-0.734437">
<ele>251.5</ele>
<speed>26.1</speed>
<course>124.4</course>
<desc>Speed 26.1 km/h Distance 1.06 km</desc>
<time>2011-09-29T09:57:20.70</time>
<name>147</name>
</trkpt>
<trkpt lat="41.630347" lon="-0.734365">
<ele>251.5</ele>
<speed>25.9</speed>
<course>125.0</course>
<desc>Speed 25.9 km/h Distance 1.06 km</desc>
<time>2011-09-29T09:57:21.70</time>
<name>148</name>
</trkpt>
<trkpt lat="41.630310" lon="-0.734295">
<ele>251.5</ele>
<speed>26.0</speed>
<course>123.8</course>
<desc>Speed 26.0 km/h Distance 1.07 km</desc>
<time>2011-09-29T09:57:22.70</time>
<name>149</name>
</trkpt>
<trkpt lat="41.630273" lon="-0.734222">
<ele>251.5</ele>
<speed>26.2</speed>
<course>122.6</course>
<desc>Speed 26.2 km/h Distance 1.08 km</desc>
<time>2011-09-29T09:57:23.70</time>
<name>150</name>
</trkpt>
<trkpt lat="41.630238" lon="-0.734148">
<ele>251.5</ele>
<speed>26.2</speed>
<course>125.6</course>
<desc>Speed 26.2 km/h Distance 1.09 km</desc>
<time>2011-09-29T09:57:24.70</time>
<name>151</name>
</trkpt>
<trkpt lat="41.630200" lon="-0.734077">
<ele>251.5</ele>
<speed>26.4</speed>
<course>123.8</course>
<desc>Speed 26.4 km/h Distance 1.09 km</desc>
<time>2011-09-29T09:57:25.74</time>
<name>152</name>
</trkpt>
<trkpt lat="41.630163" lon="-0.734003">
<ele>251.5</ele>
<speed>26.5</speed>
<course>121.4</course>
<desc>Speed 26.5 km/h Distance 1.10 km</desc>
<time>2011-09-29T09:57:26.71</time>
<name>153</name>
</trkpt>
<trkpt lat="41.630128" lon="-0.733927">
<ele>251.5</ele>
<speed>26.8</speed>
<course>129.2</course>
<desc>Speed 26.8 km/h Distance 1.11 km</desc>
<time>2011-09-29T09:57:27.69</time>
<name>154</name>
</trkpt>
<trkpt lat="41.630087" lon="-0.733858">
<ele>251.5</ele>
<speed>26.4</speed>
<course>131.4</course>
<desc>Speed 26.4 km/h Distance 1.12 km</desc>
<time>2011-09-29T09:57:28.69</time>
<name>155</name>
</trkpt>
<trkpt lat="41.630045" lon="-0.733795">
<ele>251.0</ele>
<speed>26.1</speed>
<course>132.5</course>
<desc>Speed 26.1 km/h Distance 1.12 km</desc>
<time>2011-09-29T09:57:29.69</time>
<name>156</name>
</trkpt>
<trkpt lat="41.630002" lon="-0.733732">
<ele>251.0</ele>
<speed>25.7</speed>
<course>135.1</course>
<desc>Speed 25.7 km/h Distance 1.13 km</desc>
<time>2011-09-29T09:57:30.69</time>
<name>157</name>
</trkpt>
<trkpt lat="41.629957" lon="-0.733672">
<ele>251.0</ele>
<speed>25.6</speed>
<course>138.8</course>
<desc>Speed 25.6 km/h Distance 1.14 km</desc>
<time>2011-09-29T09:57:31.69</time>
<name>158</name>
</trkpt>
<trkpt lat="41.629908" lon="-0.733615">
<ele>251.0</ele>
<speed>25.6</speed>
<course>141.4</course>
<desc>Speed 25.6 km/h Distance 1.14 km</desc>
<time>2011-09-29T09:57:32.69</time>
<name>159</name>
</trkpt>
<trkpt lat="41.629858" lon="-0.733562">
<ele>251.0</ele>
<speed>25.7</speed>
<course>145.9</course>
<desc>Speed 25.7 km/h Distance 1.15 km</desc>
<time>2011-09-29T09:57:33.69</time>
<name>160</name>
</trkpt>
<trkpt lat="41.629805" lon="-0.733513">
<ele>251.0</ele>
<speed>25.5</speed>
<course>145.9</course>
<desc>Speed 25.5 km/h Distance 1.16 km</desc>
<time>2011-09-29T09:57:34.69</time>
<name>161</name>
</trkpt>
<trkpt lat="41.629752" lon="-0.733465">
<ele>250.5</ele>
<speed>26.0</speed>
<course>143.2</course>
<desc>Speed 26.0 km/h Distance 1.17 km</desc>
<time>2011-09-29T09:57:35.69</time>
<name>162</name>
</trkpt>
<trkpt lat="41.629698" lon="-0.733412">
<ele>250.5</ele>
<speed>26.3</speed>
<course>146.7</course>
<desc>Speed 26.3 km/h Distance 1.17 km</desc>
<time>2011-09-29T09:57:36.69</time>
<name>163</name>
</trkpt>
<trkpt lat="41.629643" lon="-0.733363">
<ele>250.5</ele>
<speed>26.3</speed>
<course>151.8</course>
<desc>Speed 26.3 km/h Distance 1.18 km</desc>
<time>2011-09-29T09:57:38.32</time>
<name>164</name>
</trkpt>
<trkpt lat="41.629478" lon="-0.733245">
<ele>250.0</ele>
<speed>24.1</speed>
<course>156.5</course>
<desc>Speed 24.1 km/h Distance 1.20 km</desc>
<time>2011-09-29T09:57:40.69</time>
<name>165</name>
</trkpt>
<trkpt lat="41.629427" lon="-0.733215">
<ele>250.0</ele>
<speed>23.4</speed>
<course>159.5</course>
<desc>Speed 23.4 km/h Distance 1.21 km</desc>
<time>2011-09-29T09:57:41.68</time>
<name>166</name>
</trkpt>
<trkpt lat="41.629373" lon="-0.733188">
<ele>250.0</ele>
<speed>22.6</speed>
<course>163.1</course>
<desc>Speed 22.6 km/h Distance 1.21 km</desc>
<time>2011-09-29T09:57:42.68</time>
<name>167</name>
</trkpt>
<trkpt lat="41.629320" lon="-0.733167">
<ele>250.0</ele>
<speed>22.1</speed>
<course>166.4</course>
<desc>Speed 22.1 km/h Distance 1.22 km</desc>
<time>2011-09-29T09:57:43.68</time>
<name>168</name>
</trkpt>
<trkpt lat="41.629268" lon="-0.733150">
<ele>250.0</ele>
<speed>21.4</speed>
<course>160.2</course>
<desc>Speed 21.4 km/h Distance 1.23 km</desc>
<time>2011-09-29T09:57:44.68</time>
<name>169</name>
</trkpt>
<trkpt lat="41.629220" lon="-0.733127">
<ele>250.0</ele>
<speed>20.9</speed>
<course>167.4</course>
<desc>Speed 20.9 km/h Distance 1.23 km</desc>
<time>2011-09-29T09:57:45.68</time>
<name>170</name>
</trkpt>
<trkpt lat="41.629170" lon="-0.733112">
<ele>250.0</ele>
<speed>20.3</speed>
<course>175.5</course>
<desc>Speed 20.3 km/h Distance 1.24 km</desc>
<time>2011-09-29T09:57:46.68</time>
<name>171</name>
</trkpt>
<trkpt lat="41.629123" lon="-0.733107">
<ele>250.0</ele>
<speed>19.4</speed>
<course>176.8</course>
<desc>Speed 19.4 km/h Distance 1.24 km</desc>
<time>2011-09-29T09:57:48.04</time>
<name>172</name>
</trkpt>
<trkpt lat="41.629035" lon="-0.733100">
<ele>249.5</ele>
<speed>16.8</speed>
<course>171.4</course>
<desc>Speed 16.8 km/h Distance 1.25 km</desc>
<time>2011-09-29T09:57:49.68</time>
<name>173</name>
</trkpt>
<trkpt lat="41.629010" lon="-0.733095">
<ele>249.5</ele>
<speed>10.4</speed>
<course>174.7</course>
<desc>Speed 10.4 km/h Distance 1.25 km</desc>
<time>2011-09-29T09:57:50.68</time>
<name>174</name>
</trkpt>
<trkpt lat="41.628997" lon="-0.733093">
<ele>249.5</ele>
<speed>3.6</speed>
<course>152.9</course>
<desc>Speed 3.6 km/h Distance 1.26 km</desc>
<time>2011-09-29T09:57:52.68</time>
<name>175</name>
</trkpt>
<trkpt lat="41.628965" lon="-0.733072">
<ele>250.0</ele>
<speed>7.9</speed>
<course>147.7</course>
<desc>Speed 7.9 km/h Distance 1.26 km</desc>
<time>2011-09-29T09:57:54.58</time>
<name>176</name>
</trkpt>
<trkpt lat="41.628943" lon="-0.733053">
<ele>249.5</ele>
<speed>10.1</speed>
<course>147.0</course>
<desc>Speed 10.1 km/h Distance 1.26 km</desc>
<time>2011-09-29T09:57:55.57</time>
<name>177</name>
</trkpt>
<trkpt lat="41.628918" lon="-0.733032">
<ele>249.5</ele>
<speed>12.0</speed>
<course>137.8</course>
<desc>Speed 12.0 km/h Distance 1.27 km</desc>
<time>2011-09-29T09:57:56.57</time>
<name>178</name>
</trkpt>
<trkpt lat="41.628895" lon="-0.733003">
<ele>249.5</ele>
<speed>12.7</speed>
<course>137.8</course>
<desc>Speed 12.7 km/h Distance 1.27 km</desc>
<time>2011-09-29T09:57:57.57</time>
<name>179</name>
</trkpt>
<trkpt lat="41.628872" lon="-0.732975">
<ele>250.0</ele>
<speed>12.3</speed>
<course>128.8</course>
<desc>Speed 12.3 km/h Distance 1.27 km</desc>
<time>2011-09-29T09:57:58.57</time>
<name>180</name>
</trkpt>
<trkpt lat="41.628852" lon="-0.732942">
<ele>249.5</ele>
<speed>13.1</speed>
<course>130.4</course>
<desc>Speed 13.1 km/h Distance 1.28 km</desc>
<time>2011-09-29T09:57:59.60</time>
<name>181</name>
</trkpt>
<trkpt lat="41.628828" lon="-0.732905">
<ele>249.5</ele>
<speed>14.4</speed>
<course>126.8</course>
<desc>Speed 14.4 km/h Distance 1.28 km</desc>
<time>2011-09-29T09:58:00.57</time>
<name>182</name>
</trkpt>
<trkpt lat="41.628805" lon="-0.732863">
<ele>249.5</ele>
<speed>15.8</speed>
<course>128.8</course>
<desc>Speed 15.8 km/h Distance 1.29 km</desc>
<time>2011-09-29T09:58:01.57</time>
<name>183</name>
</trkpt>
<trkpt lat="41.628780" lon="-0.732822">
<ele>249.5</ele>
<speed>16.3</speed>
<course>128.4</course>
<desc>Speed 16.3 km/h Distance 1.29 km</desc>
<time>2011-09-29T09:58:02.57</time>
<name>184</name>
</trkpt>
<trkpt lat="41.628753" lon="-0.732777">
<ele>249.5</ele>
<speed>16.8</speed>
<course>127.4</course>
<desc>Speed 16.8 km/h Distance 1.29 km</desc>
<time>2011-09-29T09:58:03.57</time>
<name>185</name>
</trkpt>
<trkpt lat="41.628727" lon="-0.732730">
<ele>249.5</ele>
<speed>17.4</speed>
<course>127.4</course>
<desc>Speed 17.4 km/h Distance 1.30 km</desc>
<time>2011-09-29T09:58:04.57</time>
<name>186</name>
</trkpt>
<trkpt lat="41.628700" lon="-0.732683">
<ele>249.5</ele>
<speed>17.5</speed>
<course>122.9</course>
<desc>Speed 17.5 km/h Distance 1.30 km</desc>
<time>2011-09-29T09:58:05.57</time>
<name>187</name>
</trkpt>
<trkpt lat="41.628677" lon="-0.732635">
<ele>249.5</ele>
<speed>17.3</speed>
<course>120.1</course>
<desc>Speed 17.3 km/h Distance 1.31 km</desc>
<time>2011-09-29T09:58:06.57</time>
<name>188</name>
</trkpt>
<trkpt lat="41.628655" lon="-0.732585">
<ele>249.5</ele>
<speed>17.5</speed>
<course>122.9</course>
<desc>Speed 17.5 km/h Distance 1.31 km</desc>
<time>2011-09-29T09:58:07.57</time>
<name>189</name>
</trkpt>
<trkpt lat="41.628632" lon="-0.732537">
<ele>250.0</ele>
<speed>16.8</speed>
<course>117.7</course>
<desc>Speed 16.8 km/h Distance 1.32 km</desc>
<time>2011-09-29T09:58:08.57</time>
<name>190</name>
</trkpt>
<trkpt lat="41.628613" lon="-0.732490">
<ele>250.0</ele>
<speed>15.9</speed>
<course>114.8</course>
<desc>Speed 15.9 km/h Distance 1.32 km</desc>
<time>2011-09-29T09:58:09.57</time>
<name>191</name>
</trkpt>
<trkpt lat="41.628597" lon="-0.732442">
<ele>250.0</ele>
<speed>15.9</speed>
<course>107.9</course>
<desc>Speed 15.9 km/h Distance 1.33 km</desc>
<time>2011-09-29T09:58:10.57</time>
<name>192</name>
</trkpt>
<trkpt lat="41.628585" lon="-0.732393">
<ele>250.5</ele>
<speed>15.5</speed>
<course>107.3</course>
<desc>Speed 15.5 km/h Distance 1.33 km</desc>
<time>2011-09-29T09:58:12.13</time>
<name>193</name>
</trkpt>
<trkpt lat="41.628563" lon="-0.732300">
<ele>250.5</ele>
<speed>14.4</speed>
<course>104.1</course>
<desc>Speed 14.4 km/h Distance 1.34 km</desc>
<time>2011-09-29T09:58:13.57</time>
<name>194</name>
</trkpt>
<trkpt lat="41.628553" lon="-0.732247">
<ele>250.5</ele>
<speed>16.0</speed>
<course>101.5</course>
<desc>Speed 16.0 km/h Distance 1.34 km</desc>
<time>2011-09-29T09:58:14.57</time>
<name>195</name>
</trkpt>
<trkpt lat="41.628545" lon="-0.732192">
<ele>250.5</ele>
<speed>17.0</speed>
<course>103.7</course>
<desc>Speed 17.0 km/h Distance 1.35 km</desc>
<time>2011-09-29T09:58:15.56</time>
<name>196</name>
</trkpt>
<trkpt lat="41.628535" lon="-0.732137">
<ele>250.5</ele>
<speed>17.1</speed>
<course>105.8</course>
<desc>Speed 17.1 km/h Distance 1.35 km</desc>
<time>2011-09-29T09:58:16.56</time>
<name>197</name>
</trkpt>
<trkpt lat="41.628523" lon="-0.732082">
<ele>251.0</ele>
<speed>17.2</speed>
<course>105.8</course>
<desc>Speed 17.2 km/h Distance 1.36 km</desc>
<time>2011-09-29T09:58:17.56</time>
<name>198</name>
</trkpt>
<trkpt lat="41.628512" lon="-0.732027">
<ele>251.0</ele>
<speed>16.8</speed>
<course>105.8</course>
<desc>Speed 16.8 km/h Distance 1.36 km</desc>
<time>2011-09-29T09:58:18.56</time>
<name>199</name>
</trkpt>
<trkpt lat="41.628500" lon="-0.731972">
<ele>251.0</ele>
<speed>17.3</speed>
<course>102.9</course>
<desc>Speed 17.3 km/h Distance 1.37 km</desc>
<time>2011-09-29T09:58:19.56</time>
<name>200</name>
</trkpt>
<trkpt lat="41.628490" lon="-0.731913">
<ele>251.0</ele>
<speed>17.8</speed>
<course>100.5</course>
<desc>Speed 17.8 km/h Distance 1.37 km</desc>
<time>2011-09-29T09:58:20.56</time>
<name>201</name>
</trkpt>
<trkpt lat="41.628482" lon="-0.731853">
<ele>251.0</ele>
<speed>18.1</speed>
<course>104.0</course>
<desc>Speed 18.1 km/h Distance 1.38 km</desc>
<time>2011-09-29T09:58:21.85</time>
<name>202</name>
</trkpt>
<trkpt lat="41.628460" lon="-0.731737">
<ele>250.5</ele>
<speed>17.9</speed>
<course>107.5</course>
<desc>Speed 17.9 km/h Distance 1.39 km</desc>
<time>2011-09-29T09:58:23.56</time>
<name>203</name>
</trkpt>
<trkpt lat="41.628447" lon="-0.731680">
<ele>250.5</ele>
<speed>17.8</speed>
<course>105.4</course>
<desc>Speed 17.8 km/h Distance 1.39 km</desc>
<time>2011-09-29T09:58:24.57</time>
<name>204</name>
</trkpt>
<trkpt lat="41.628435" lon="-0.731623">
<ele>251.0</ele>
<speed>17.7</speed>
<course>108.0</course>
<desc>Speed 17.7 km/h Distance 1.40 km</desc>
<time>2011-09-29T09:58:25.56</time>
<name>205</name>
</trkpt>
<trkpt lat="41.628422" lon="-0.731568">
<ele>251.0</ele>
<speed>17.3</speed>
<course>103.3</course>
<desc>Speed 17.3 km/h Distance 1.40 km</desc>
<time>2011-09-29T09:58:26.56</time>
<name>206</name>
</trkpt>
<trkpt lat="41.628412" lon="-0.731512">
<ele>251.0</ele>
<speed>17.2</speed>
<course>101.5</course>
<desc>Speed 17.2 km/h Distance 1.41 km</desc>
<time>2011-09-29T09:58:27.56</time>
<name>207</name>
</trkpt>
<trkpt lat="41.628403" lon="-0.731457">
<ele>251.0</ele>
<speed>17.1</speed>
<course>98.9</course>
<desc>Speed 17.1 km/h Distance 1.41 km</desc>
<time>2011-09-29T09:58:28.78</time>
<name>208</name>
</trkpt>
<trkpt lat="41.628397" lon="-0.731400">
<ele>251.0</ele>
<speed>16.8</speed>
<course>99.2</course>
<desc>Speed 16.8 km/h Distance 1.42 km</desc>
<time>2011-09-29T09:58:29.56</time>
<name>209</name>
</trkpt>
<trkpt lat="41.628390" lon="-0.731345">
<ele>251.5</ele>
<speed>16.8</speed>
<course>96.9</course>
<desc>Speed 16.8 km/h Distance 1.42 km</desc>
<time>2011-09-29T09:58:30.56</time>
<name>210</name>
</trkpt>
<trkpt lat="41.628385" lon="-0.731290">
<ele>251.5</ele>
<speed>16.9</speed>
<course>92.3</course>
<desc>Speed 16.9 km/h Distance 1.43 km</desc>
<time>2011-09-29T09:58:31.58</time>
<name>211</name>
</trkpt>
<trkpt lat="41.628383" lon="-0.731233">
<ele>252.0</ele>
<speed>16.6</speed>
<course>97.1</course>
<desc>Speed 16.6 km/h Distance 1.43 km</desc>
<time>2011-09-29T09:58:32.56</time>
<name>212</name>
</trkpt>
<trkpt lat="41.628378" lon="-0.731180">
<ele>252.0</ele>
<speed>16.2</speed>
<course>97.1</course>
<desc>Speed 16.2 km/h Distance 1.44 km</desc>
<time>2011-09-29T09:58:33.55</time>
<name>213</name>
</trkpt>
<trkpt lat="41.628373" lon="-0.731127">
<ele>252.5</ele>
<speed>16.2</speed>
<course>97.1</course>
<desc>Speed 16.2 km/h Distance 1.44 km</desc>
<time>2011-09-29T09:58:34.55</time>
<name>214</name>
</trkpt>
<trkpt lat="41.628368" lon="-0.731073">
<ele>252.5</ele>
<speed>16.1</speed>
<course>96.9</course>
<desc>Speed 16.1 km/h Distance 1.44 km</desc>
<time>2011-09-29T09:58:35.55</time>
<name>215</name>
</trkpt>
<trkpt lat="41.628363" lon="-0.731018">
<ele>252.5</ele>
<speed>16.3</speed>
<course>99.8</course>
<desc>Speed 16.3 km/h Distance 1.45 km</desc>
<time>2011-09-29T09:58:36.55</time>
<name>216</name>
</trkpt>
<trkpt lat="41.628357" lon="-0.730967">
<ele>253.0</ele>
<speed>16.1</speed>
<course>104.1</course>
<desc>Speed 16.1 km/h Distance 1.45 km</desc>
<time>2011-09-29T09:58:37.56</time>
<name>217</name>
</trkpt>
<trkpt lat="41.628347" lon="-0.730913">
<ele>253.0</ele>
<speed>16.2</speed>
<course>109.6</course>
<desc>Speed 16.2 km/h Distance 1.46 km</desc>
<time>2011-09-29T09:58:38.55</time>
<name>218</name>
</trkpt>
<trkpt lat="41.628333" lon="-0.730863">
<ele>253.0</ele>
<speed>16.0</speed>
<course>112.5</course>
<desc>Speed 16.0 km/h Distance 1.46 km</desc>
<time>2011-09-29T09:58:39.55</time>
<name>219</name>
</trkpt>
<trkpt lat="41.628318" lon="-0.730815">
<ele>253.0</ele>
<speed>15.7</speed>
<course>117.7</course>
<desc>Speed 15.7 km/h Distance 1.47 km</desc>
<time>2011-09-29T09:58:41.30</time>
<name>220</name>
</trkpt>
<trkpt lat="41.628263" lon="-0.730675">
<ele>253.5</ele>
<speed>15.6</speed>
<course>121.7</course>
<desc>Speed 15.6 km/h Distance 1.48 km</desc>
<time>2011-09-29T09:58:43.55</time>
<name>221</name>
</trkpt>
<trkpt lat="41.628243" lon="-0.730632">
<ele>253.5</ele>
<speed>15.2</speed>
<course>122.7</course>
<desc>Speed 15.2 km/h Distance 1.48 km</desc>
<time>2011-09-29T09:58:44.55</time>
<name>222</name>
</trkpt>
<trkpt lat="41.628223" lon="-0.730590">
<ele>254.0</ele>
<speed>15.2</speed>
<course>129.9</course>
<desc>Speed 15.2 km/h Distance 1.49 km</desc>
<time>2011-09-29T09:58:45.55</time>
<name>223</name>
</trkpt>
<trkpt lat="41.628198" lon="-0.730550">
<ele>254.0</ele>
<speed>15.6</speed>
<course>128.0</course>
<desc>Speed 15.6 km/h Distance 1.49 km</desc>
<time>2011-09-29T09:58:46.55</time>
<name>224</name>
</trkpt>
<trkpt lat="41.628175" lon="-0.730510">
<ele>254.5</ele>
<speed>15.4</speed>
<course>129.9</course>
<desc>Speed 15.4 km/h Distance 1.50 km</desc>
<time>2011-09-29T09:58:47.55</time>
<name>225</name>
</trkpt>
<trkpt lat="41.628150" lon="-0.730470">
<ele>254.5</ele>
<speed>15.4</speed>
<course>129.2</course>
<desc>Speed 15.4 km/h Distance 1.50 km</desc>
<time>2011-09-29T09:58:48.54</time>
<name>226</name>
</trkpt>
<trkpt lat="41.628127" lon="-0.730432">
<ele>255.0</ele>
<speed>14.8</speed>
<course>129.2</course>
<desc>Speed 14.8 km/h Distance 1.51 km</desc>
<time>2011-09-29T09:58:49.55</time>
<name>227</name>
</trkpt>
<trkpt lat="41.628103" lon="-0.730393">
<ele>255.0</ele>
<speed>15.1</speed>
<course>135.1</course>
<desc>Speed 15.1 km/h Distance 1.51 km</desc>
<time>2011-09-29T09:58:51.10</time>
<name>228</name>
</trkpt>
<trkpt lat="41.628053" lon="-0.730327">
<ele>256.0</ele>
<speed>13.7</speed>
<course>133.1</course>
<desc>Speed 13.7 km/h Distance 1.52 km</desc>
<time>2011-09-29T09:58:52.54</time>
<name>229</name>
</trkpt>
<trkpt lat="41.628030" lon="-0.730293">
<ele>256.0</ele>
<speed>14.2</speed>
<course>123.8</course>
<desc>Speed 14.2 km/h Distance 1.52 km</desc>
<time>2011-09-29T09:58:53.54</time>
<name>230</name>
</trkpt>
<trkpt lat="41.628012" lon="-0.730257">
<ele>255.5</ele>
<speed>13.1</speed>
<course>133.1</course>
<desc>Speed 13.1 km/h Distance 1.52 km</desc>
<time>2011-09-29T09:58:54.54</time>
<name>231</name>
</trkpt>
<trkpt lat="41.627988" lon="-0.730223">
<ele>256.0</ele>
<speed>13.3</speed>
<course>134.0</course>
<desc>Speed 13.3 km/h Distance 1.53 km</desc>
<time>2011-09-29T09:58:55.54</time>
<name>232</name>
</trkpt>
<trkpt lat="41.627967" lon="-0.730193">
<ele>256.0</ele>
<speed>12.6</speed>
<course>131.7</course>
<desc>Speed 12.6 km/h Distance 1.53 km</desc>
<time>2011-09-29T09:58:56.54</time>
<name>233</name>
</trkpt>
<trkpt lat="41.627947" lon="-0.730163">
<ele>256.5</ele>
<speed>12.1</speed>
<course>131.7</course>
<desc>Speed 12.1 km/h Distance 1.54 km</desc>
<time>2011-09-29T09:58:57.54</time>
<name>234</name>
</trkpt>
<trkpt lat="41.627927" lon="-0.730133">
<ele>256.5</ele>
<speed>11.8</speed>
<course>129.9</course>
<desc>Speed 11.8 km/h Distance 1.54 km</desc>
<time>2011-09-29T09:58:58.54</time>
<name>235</name>
</trkpt>
<trkpt lat="41.627910" lon="-0.730107">
<ele>256.5</ele>
<speed>10.8</speed>
<course>130.9</course>
<desc>Speed 10.8 km/h Distance 1.54 km</desc>
<time>2011-09-29T09:58:59.54</time>
<name>236</name>
</trkpt>
<trkpt lat="41.627892" lon="-0.730078">
<ele>257.0</ele>
<speed>10.9</speed>
<course>134.5</course>
<desc>Speed 10.9 km/h Distance 1.54 km</desc>
<time>2011-09-29T09:59:00.86</time>
<name>237</name>
</trkpt>
<trkpt lat="41.627873" lon="-0.730053">
<ele>257.0</ele>
<speed>10.7</speed>
<course>129.2</course>
<desc>Speed 10.7 km/h Distance 1.55 km</desc>
<time>2011-09-29T09:59:01.54</time>
<name>238</name>
</trkpt>
<trkpt lat="41.627855" lon="-0.730023">
<ele>257.0</ele>
<speed>11.8</speed>
<course>117.0</course>
<desc>Speed 11.8 km/h Distance 1.55 km</desc>
<time>2011-09-29T09:59:02.54</time>
<name>239</name>
</trkpt>
<trkpt lat="41.627842" lon="-0.729988">
<ele>257.0</ele>
<speed>11.5</speed>
<course>123.8</course>
<desc>Speed 11.5 km/h Distance 1.55 km</desc>
<time>2011-09-29T09:59:03.54</time>
<name>240</name>
</trkpt>
<trkpt lat="41.627825" lon="-0.729955">
<ele>257.0</ele>
<speed>12.3</speed>
<course>112.9</course>
<desc>Speed 12.3 km/h Distance 1.56 km</desc>
<time>2011-09-29T09:59:04.53</time>
<name>241</name>
</trkpt>
<trkpt lat="41.627815" lon="-0.729923">
<ele>256.0</ele>
<speed>10.3</speed>
<course>135.7</course>
<desc>Speed 10.3 km/h Distance 1.56 km</desc>
<time>2011-09-29T09:59:05.54</time>
<name>242</name>
</trkpt>
<trkpt lat="41.627793" lon="-0.729895">
<ele>256.5</ele>
<speed>12.6</speed>
<course>137.3</course>
<desc>Speed 12.6 km/h Distance 1.56 km</desc>
<time>2011-09-29T09:59:06.53</time>
<name>243</name>
</trkpt>
<trkpt lat="41.627765" lon="-0.729860">
<ele>256.5</ele>
<speed>15.6</speed>
<course>138.9</course>
<desc>Speed 15.6 km/h Distance 1.57 km</desc>
<time>2011-09-29T09:59:07.80</time>
<name>244</name>
</trkpt>
<trkpt lat="41.627705" lon="-0.729790">
<ele>256.0</ele>
<speed>16.0</speed>
<course>137.6</course>
<desc>Speed 16.0 km/h Distance 1.58 km</desc>
<time>2011-09-29T09:59:09.53</time>
<name>245</name>
</trkpt>
<trkpt lat="41.627675" lon="-0.729753">
<ele>255.5</ele>
<speed>16.2</speed>
<course>136.0</course>
<desc>Speed 16.2 km/h Distance 1.58 km</desc>
<time>2011-09-29T09:59:10.60</time>
<name>246</name>
</trkpt>
<trkpt lat="41.627647" lon="-0.729717">
<ele>255.0</ele>
<speed>16.1</speed>
<course>140.7</course>
<desc>Speed 16.1 km/h Distance 1.59 km</desc>
<time>2011-09-29T09:59:11.53</time>
<name>247</name>
</trkpt>
<trkpt lat="41.627612" lon="-0.729678">
<ele>254.0</ele>
<speed>17.9</speed>
<course>141.0</course>
<desc>Speed 17.9 km/h Distance 1.59 km</desc>
<time>2011-09-29T09:59:12.53</time>
<name>248</name>
</trkpt>
<trkpt lat="41.627572" lon="-0.729635">
<ele>253.0</ele>
<speed>20.9</speed>
<course>141.4</course>
<desc>Speed 20.9 km/h Distance 1.60 km</desc>
<time>2011-09-29T09:59:13.54</time>
<name>249</name>
</trkpt>
<trkpt lat="41.627523" lon="-0.729583">
<ele>252.0</ele>
<speed>24.4</speed>
<course>143.2</course>
<desc>Speed 24.4 km/h Distance 1.60 km</desc>
<time>2011-09-29T09:59:14.53</time>
<name>250</name>
</trkpt>
<trkpt lat="41.627467" lon="-0.729527">
<ele>251.5</ele>
<speed>28.2</speed>
<course>142.4</course>
<desc>Speed 28.2 km/h Distance 1.61 km</desc>
<time>2011-09-29T09:59:15.53</time>
<name>251</name>
</trkpt>
<trkpt lat="41.627408" lon="-0.729467">
<ele>251.0</ele>
<speed>29.4</speed>
<course>142.4</course>
<desc>Speed 29.4 km/h Distance 1.62 km</desc>
<time>2011-09-29T09:59:16.53</time>
<name>252</name>
</trkpt>
<trkpt lat="41.627350" lon="-0.729407">
<ele>251.0</ele>
<speed>29.3</speed>
<course>136.2</course>
<desc>Speed 29.3 km/h Distance 1.63 km</desc>
<time>2011-09-29T09:59:17.57</time>
<name>253</name>
</trkpt>
<trkpt lat="41.627297" lon="-0.729338">
<ele>250.0</ele>
<speed>29.4</speed>
<course>135.1</course>
<desc>Speed 29.4 km/h Distance 1.64 km</desc>
<time>2011-09-29T09:59:18.54</time>
<name>254</name>
</trkpt>
<trkpt lat="41.627242" lon="-0.729265">
<ele>249.5</ele>
<speed>31.2</speed>
<course>138.5</course>
<desc>Speed 31.2 km/h Distance 1.64 km</desc>
<time>2011-09-29T09:59:19.52</time>
<name>255</name>
</trkpt>
<trkpt lat="41.627178" lon="-0.729190">
<ele>249.0</ele>
<speed>33.0</speed>
<course>139.1</course>
<desc>Speed 33.0 km/h Distance 1.65 km</desc>
<time>2011-09-29T09:59:20.54</time>
<name>256</name>
</trkpt>
<trkpt lat="41.627115" lon="-0.729117">
<ele>249.0</ele>
<speed>33.7</speed>
<course>135.1</course>
<desc>Speed 33.7 km/h Distance 1.66 km</desc>
<time>2011-09-29T09:59:21.52</time>
<name>257</name>
</trkpt>
<trkpt lat="41.627055" lon="-0.729037">
<ele>249.5</ele>
<speed>33.1</speed>
<course>123.2</course>
<desc>Speed 33.1 km/h Distance 1.67 km</desc>
<time>2011-09-29T09:59:22.52</time>
<name>258</name>
</trkpt>
<trkpt lat="41.627015" lon="-0.728955">
<ele>250.0</ele>
<speed>29.5</speed>
<course>113.1</course>
<desc>Speed 29.5 km/h Distance 1.68 km</desc>
<time>2011-09-29T09:59:23.52</time>
<name>259</name>
</trkpt>
<trkpt lat="41.626990" lon="-0.728877">
<ele>250.5</ele>
<speed>25.2</speed>
<course>107.6</course>
<desc>Speed 25.2 km/h Distance 1.69 km</desc>
<time>2011-09-29T09:59:24.52</time>
<name>260</name>
</trkpt>
<trkpt lat="41.626975" lon="-0.728813">
<ele>251.5</ele>
<speed>19.8</speed>
<course>110.0</course>
<desc>Speed 19.8 km/h Distance 1.69 km</desc>
<time>2011-09-29T09:59:25.52</time>
<name>261</name>
</trkpt>
<trkpt lat="41.626960" lon="-0.728758">
<ele>252.0</ele>
<speed>17.1</speed>
<course>110.9</course>
<desc>Speed 17.1 km/h Distance 1.70 km</desc>
<time>2011-09-29T09:59:26.52</time>
<name>262</name>
</trkpt>
<trkpt lat="41.626947" lon="-0.728712">
<ele>252.5</ele>
<speed>15.1</speed>
<course>109.8</course>
<desc>Speed 15.1 km/h Distance 1.70 km</desc>
<time>2011-09-29T09:59:27.52</time>
<name>263</name>
</trkpt>
<trkpt lat="41.626935" lon="-0.728668">
<ele>252.5</ele>
<speed>13.5</speed>
<course>114.0</course>
<desc>Speed 13.5 km/h Distance 1.71 km</desc>
<time>2011-09-29T09:59:28.52</time>
<name>264</name>
</trkpt>
<trkpt lat="41.626922" lon="-0.728628">
<ele>253.0</ele>
<speed>13.3</speed>
<course>128.1</course>
<desc>Speed 13.3 km/h Distance 1.71 km</desc>
<time>2011-09-29T09:59:30.11</time>
<name>265</name>
</trkpt>
<trkpt lat="41.626882" lon="-0.728560">
<ele>253.5</ele>
<speed>13.0</speed>
<course>125.0</course>
<desc>Speed 13.0 km/h Distance 1.72 km</desc>
<time>2011-09-29T09:59:31.52</time>
<name>266</name>
</trkpt>
<trkpt lat="41.626863" lon="-0.728525">
<ele>254.0</ele>
<speed>12.6</speed>
<course>126.3</course>
<desc>Speed 12.6 km/h Distance 1.72 km</desc>
<time>2011-09-29T09:59:32.52</time>
<name>267</name>
</trkpt>
<trkpt lat="41.626845" lon="-0.728492">
<ele>254.0</ele>
<speed>12.5</speed>
<course>116.6</course>
<desc>Speed 12.5 km/h Distance 1.72 km</desc>
<time>2011-09-29T09:59:33.51</time>
<name>268</name>
</trkpt>
<trkpt lat="41.626830" lon="-0.728452">
<ele>254.0</ele>
<speed>13.2</speed>
<course>120.2</course>
<desc>Speed 13.2 km/h Distance 1.73 km</desc>
<time>2011-09-29T09:59:34.51</time>
<name>269</name>
</trkpt>
<trkpt lat="41.626813" lon="-0.728413">
<ele>254.5</ele>
<speed>13.2</speed>
<course>126.1</course>
<desc>Speed 13.2 km/h Distance 1.73 km</desc>
<time>2011-09-29T09:59:35.52</time>
<name>270</name>
</trkpt>
<trkpt lat="41.626793" lon="-0.728377">
<ele>254.5</ele>
<speed>13.3</speed>
<course>126.1</course>
<desc>Speed 13.3 km/h Distance 1.74 km</desc>
<time>2011-09-29T09:59:36.51</time>
<name>271</name>
</trkpt>
<trkpt lat="41.626773" lon="-0.728340">
<ele>254.5</ele>
<speed>13.4</speed>
<course>131.0</course>
<desc>Speed 13.4 km/h Distance 1.74 km</desc>
<time>2011-09-29T09:59:37.51</time>
<name>272</name>
</trkpt>
<trkpt lat="41.626752" lon="-0.728307">
<ele>255.0</ele>
<speed>13.2</speed>
<course>126.1</course>
<desc>Speed 13.2 km/h Distance 1.74 km</desc>
<time>2011-09-29T09:59:38.51</time>
<name>273</name>
</trkpt>
<trkpt lat="41.626732" lon="-0.728270">
<ele>255.5</ele>
<speed>13.3</speed>
<course>120.0</course>
<desc>Speed 13.3 km/h Distance 1.75 km</desc>
<time>2011-09-29T09:59:39.83</time>
<name>274</name>
</trkpt>
<trkpt lat="41.626700" lon="-0.728197">
<ele>256.5</ele>
<speed>12.3</speed>
<course>125.0</course>
<desc>Speed 12.3 km/h Distance 1.75 km</desc>
<time>2011-09-29T09:59:41.51</time>
<name>275</name>
</trkpt>
<trkpt lat="41.626682" lon="-0.728162">
<ele>256.5</ele>
<speed>12.3</speed>
<course>123.8</course>
<desc>Speed 12.3 km/h Distance 1.76 km</desc>
<time>2011-09-29T09:59:42.51</time>
<name>276</name>
</trkpt>
<trkpt lat="41.626665" lon="-0.728128">
<ele>256.5</ele>
<speed>12.2</speed>
<course>117.0</course>
<desc>Speed 12.2 km/h Distance 1.76 km</desc>
<time>2011-09-29T09:59:43.52</time>
<name>277</name>
</trkpt>
<trkpt lat="41.626652" lon="-0.728093">
<ele>256.5</ele>
<speed>12.0</speed>
<course>114.0</course>
<desc>Speed 12.0 km/h Distance 1.76 km</desc>
<time>2011-09-29T09:59:44.51</time>
<name>278</name>
</trkpt>
<trkpt lat="41.626638" lon="-0.728053">
<ele>256.5</ele>
<speed>13.1</speed>
<course>122.6</course>
<desc>Speed 13.1 km/h Distance 1.77 km</desc>
<time>2011-09-29T09:59:45.51</time>
<name>279</name>
</trkpt>
<trkpt lat="41.626620" lon="-0.728015">
<ele>256.5</ele>
<speed>13.9</speed>
<course>127.1</course>
<desc>Speed 13.9 km/h Distance 1.77 km</desc>
<time>2011-09-29T09:59:46.76</time>
<name>280</name>
</trkpt>
<trkpt lat="41.626598" lon="-0.727977">
<ele>256.5</ele>
<speed>14.0</speed>
<course>123.8</course>
<desc>Speed 14.0 km/h Distance 1.78 km</desc>
<time>2011-09-29T09:59:47.51</time>
<name>281</name>
</trkpt>
<trkpt lat="41.626578" lon="-0.727937">
<ele>256.5</ele>
<speed>14.4</speed>
<course>121.7</course>
<desc>Speed 14.4 km/h Distance 1.78 km</desc>
<time>2011-09-29T09:59:48.51</time>
<name>282</name>
</trkpt>
<trkpt lat="41.626558" lon="-0.727893">
<ele>256.5</ele>
<speed>15.3</speed>
<course>123.8</course>
<desc>Speed 15.3 km/h Distance 1.78 km</desc>
<time>2011-09-29T09:59:49.57</time>
<name>283</name>
</trkpt>
<trkpt lat="41.626537" lon="-0.727850">
<ele>256.5</ele>
<speed>15.7</speed>
<course>125.8</course>
<desc>Speed 15.7 km/h Distance 1.79 km</desc>
<time>2011-09-29T09:59:50.51</time>
<name>284</name>
</trkpt>
<trkpt lat="41.626513" lon="-0.727807">
<ele>257.0</ele>
<speed>15.6</speed>
<course>123.8</course>
<desc>Speed 15.6 km/h Distance 1.79 km</desc>
<time>2011-09-29T09:59:51.50</time>
<name>285</name>
</trkpt>
<trkpt lat="41.626492" lon="-0.727763">
<ele>257.0</ele>
<speed>15.8</speed>
<course>122.8</course>
<desc>Speed 15.8 km/h Distance 1.80 km</desc>
<time>2011-09-29T09:59:52.50</time>
<name>286</name>
</trkpt>
<trkpt lat="41.626470" lon="-0.727718">
<ele>257.0</ele>
<speed>16.1</speed>
<course>125.8</course>
<desc>Speed 16.1 km/h Distance 1.80 km</desc>
<time>2011-09-29T09:59:53.50</time>
<name>287</name>
</trkpt>
<trkpt lat="41.626447" lon="-0.727675">
<ele>257.5</ele>
<speed>15.9</speed>
<course>120.7</course>
<desc>Speed 15.9 km/h Distance 1.81 km</desc>
<time>2011-09-29T09:59:54.50</time>
<name>288</name>
</trkpt>
<trkpt lat="41.626427" lon="-0.727630">
<ele>257.5</ele>
<speed>15.7</speed>
<course>121.7</course>
<desc>Speed 15.7 km/h Distance 1.81 km</desc>
<time>2011-09-29T09:59:55.50</time>
<name>289</name>
</trkpt>
<trkpt lat="41.626407" lon="-0.727587">
<ele>258.0</ele>
<speed>15.7</speed>
<course>120.7</course>
<desc>Speed 15.7 km/h Distance 1.81 km</desc>
<time>2011-09-29T09:59:56.53</time>
<name>290</name>
</trkpt>
<trkpt lat="41.626387" lon="-0.727542">
<ele>258.0</ele>
<speed>15.4</speed>
<course>124.8</course>
<desc>Speed 15.4 km/h Distance 1.82 km</desc>
<time>2011-09-29T09:59:57.50</time>
<name>291</name>
</trkpt>
<trkpt lat="41.626363" lon="-0.727497">
<ele>258.5</ele>
<speed>16.1</speed>
<course>121.8</course>
<desc>Speed 16.1 km/h Distance 1.82 km</desc>
<time>2011-09-29T09:59:58.50</time>
<name>292</name>
</trkpt>
<trkpt lat="41.626342" lon="-0.727450">
<ele>258.5</ele>
<speed>16.6</speed>
<course>121.8</course>
<desc>Speed 16.6 km/h Distance 1.83 km</desc>
<time>2011-09-29T09:59:59.50</time>
<name>293</name>
</trkpt>
<trkpt lat="41.626320" lon="-0.727403">
<ele>259.0</ele>
<speed>16.6</speed>
<course>125.6</course>
<desc>Speed 16.6 km/h Distance 1.83 km</desc>
<time>2011-09-29T10:00:00.50</time>
<name>294</name>
</trkpt>
<trkpt lat="41.626295" lon="-0.727357">
<ele>259.0</ele>
<speed>16.7</speed>
<course>123.8</course>
<desc>Speed 16.7 km/h Distance 1.84 km</desc>
<time>2011-09-29T10:00:01.50</time>
<name>295</name>
</trkpt>
<trkpt lat="41.626272" lon="-0.727310">
<ele>259.5</ele>
<speed>17.0</speed>
<course>122.9</course>
<desc>Speed 17.0 km/h Distance 1.84 km</desc>
<time>2011-09-29T10:00:02.50</time>
<name>296</name>
</trkpt>
<trkpt lat="41.626248" lon="-0.727262">
<ele>259.5</ele>
<speed>17.1</speed>
<course>123.8</course>
<desc>Speed 17.1 km/h Distance 1.85 km</desc>
<time>2011-09-29T10:00:03.50</time>
<name>297</name>
</trkpt>
<trkpt lat="41.626223" lon="-0.727212">
<ele>259.5</ele>
<speed>17.8</speed>
<course>118.5</course>
<desc>Speed 17.8 km/h Distance 1.85 km</desc>
<time>2011-09-29T10:00:04.49</time>
<name>298</name>
</trkpt>
<trkpt lat="41.626202" lon="-0.727158">
<ele>259.5</ele>
<speed>18.1</speed>
<course>117.8</course>
<desc>Speed 18.1 km/h Distance 1.86 km</desc>
<time>2011-09-29T10:00:05.49</time>
<name>299</name>
</trkpt>
<trkpt lat="41.626180" lon="-0.727103">
<ele>259.0</ele>
<speed>18.5</speed>
<course>117.5</course>
<desc>Speed 18.5 km/h Distance 1.86 km</desc>
<time>2011-09-29T10:00:06.49</time>
<name>300</name>
</trkpt>
<trkpt lat="41.626157" lon="-0.727043">
<ele>259.0</ele>
<speed>20.2</speed>
<course>114.6</course>
<desc>Speed 20.2 km/h Distance 1.87 km</desc>
<time>2011-09-29T10:00:07.49</time>
<name>301</name>
</trkpt>
<trkpt lat="41.626133" lon="-0.726975">
<ele>258.0</ele>
<speed>22.5</speed>
<course>115.2</course>
<desc>Speed 22.5 km/h Distance 1.87 km</desc>
<time>2011-09-29T10:00:09.11</time>
<name>302</name>
</trkpt>
<trkpt lat="41.626045" lon="-0.726723">
<ele>256.0</ele>
<speed>30.0</speed>
<course>114.8</course>
<desc>Speed 30.0 km/h Distance 1.90 km</desc>
<time>2011-09-29T10:00:11.49</time>
<name>303</name>
</trkpt>
<trkpt lat="41.626013" lon="-0.726632">
<ele>256.0</ele>
<speed>30.5</speed>
<course>117.5</course>
<desc>Speed 30.5 km/h Distance 1.91 km</desc>
<time>2011-09-29T10:00:12.49</time>
<name>304</name>
</trkpt>
<trkpt lat="41.625978" lon="-0.726542">
<ele>255.5</ele>
<speed>30.2</speed>
<course>114.8</course>
<desc>Speed 30.2 km/h Distance 1.91 km</desc>
<time>2011-09-29T10:00:13.49</time>
<name>305</name>
</trkpt>
<trkpt lat="41.625947" lon="-0.726450">
<ele>255.5</ele>
<speed>30.0</speed>
<course>113.6</course>
<desc>Speed 30.0 km/h Distance 1.92 km</desc>
<time>2011-09-29T10:00:14.49</time>
<name>306</name>
</trkpt>
<trkpt lat="41.625917" lon="-0.726358">
<ele>255.5</ele>
<speed>29.6</speed>
<course>117.7</course>
<desc>Speed 29.6 km/h Distance 1.93 km</desc>
<time>2011-09-29T10:00:15.49</time>
<name>307</name>
</trkpt>
<trkpt lat="41.625883" lon="-0.726273">
<ele>255.5</ele>
<speed>28.9</speed>
<course>124.9</course>
<desc>Speed 28.9 km/h Distance 1.94 km</desc>
<time>2011-09-29T10:00:16.49</time>
<name>308</name>
</trkpt>
<trkpt lat="41.625843" lon="-0.726197">
<ele>255.5</ele>
<speed>27.6</speed>
<course>126.7</course>
<desc>Speed 27.6 km/h Distance 1.95 km</desc>
<time>2011-09-29T10:00:17.49</time>
<name>309</name>
</trkpt>
<trkpt lat="41.625803" lon="-0.726125">
<ele>256.0</ele>
<speed>25.9</speed>
<course>130.3</course>
<desc>Speed 25.9 km/h Distance 1.95 km</desc>
<time>2011-09-29T10:00:18.85</time>
<name>310</name>
</trkpt>
<trkpt lat="41.625728" lon="-0.726007">
<ele>256.0</ele>
<speed>22.6</speed>
<course>130.1</course>
<desc>Speed 22.6 km/h Distance 1.97 km</desc>
<time>2011-09-29T10:00:20.48</time>
<name>311</name>
</trkpt>
<trkpt lat="41.625692" lon="-0.725948">
<ele>256.0</ele>
<speed>22.5</speed>
<course>130.5</course>
<desc>Speed 22.5 km/h Distance 1.97 km</desc>
<time>2011-09-29T10:00:21.48</time>
<name>312</name>
</trkpt>
<trkpt lat="41.625653" lon="-0.725888">
<ele>255.5</ele>
<speed>23.1</speed>
<course>128.3</course>
<desc>Speed 23.1 km/h Distance 1.98 km</desc>
<time>2011-09-29T10:00:22.48</time>
<name>313</name>
</trkpt>
<trkpt lat="41.625615" lon="-0.725823">
<ele>255.0</ele>
<speed>24.7</speed>
<course>126.7</course>
<desc>Speed 24.7 km/h Distance 1.99 km</desc>
<time>2011-09-29T10:00:23.48</time>
<name>314</name>
</trkpt>
<trkpt lat="41.625575" lon="-0.725752">
<ele>254.0</ele>
<speed>26.8</speed>
<course>124.9</course>
<desc>Speed 26.8 km/h Distance 1.99 km</desc>
<time>2011-09-29T10:00:24.48</time>
<name>315</name>
</trkpt>
<trkpt lat="41.625533" lon="-0.725672">
<ele>253.5</ele>
<speed>29.2</speed>
<course>120.5</course>
<desc>Speed 29.2 km/h Distance 2.00 km</desc>
<time>2011-09-29T10:00:25.78</time>
<name>316</name>
</trkpt>
<trkpt lat="41.625448" lon="-0.725478">
<ele>250.5</ele>
<speed>34.8</speed>
<course>116.5</course>
<desc>Speed 34.8 km/h Distance 2.02 km</desc>
<time>2011-09-29T10:00:27.48</time>
<name>317</name>
</trkpt>
<trkpt lat="41.625407" lon="-0.725367">
<ele>250.0</ele>
<speed>37.2</speed>
<course>116.6</course>
<desc>Speed 37.2 km/h Distance 2.03 km</desc>
<time>2011-09-29T10:00:28.58</time>
<name>318</name>
</trkpt>
<trkpt lat="41.625367" lon="-0.725260">
<ele>250.5</ele>
<speed>35.7</speed>
<course>115.8</course>
<desc>Speed 35.7 km/h Distance 2.04 km</desc>
<time>2011-09-29T10:00:29.48</time>
<name>319</name>
</trkpt>
<trkpt lat="41.625332" lon="-0.725163">
<ele>251.0</ele>
<speed>32.3</speed>
<course>116.5</course>
<desc>Speed 32.3 km/h Distance 2.05 km</desc>
<time>2011-09-29T10:00:30.48</time>
<name>320</name>
</trkpt>
<trkpt lat="41.625300" lon="-0.725078">
<ele>251.5</ele>
<speed>28.2</speed>
<course>116.5</course>
<desc>Speed 28.2 km/h Distance 2.06 km</desc>
<time>2011-09-29T10:00:31.49</time>
<name>321</name>
</trkpt>
<trkpt lat="41.625273" lon="-0.725007">
<ele>252.0</ele>
<speed>24.1</speed>
<course>117.8</course>
<desc>Speed 24.1 km/h Distance 2.06 km</desc>
<time>2011-09-29T10:00:32.47</time>
<name>322</name>
</trkpt>
<trkpt lat="41.625248" lon="-0.724943">
<ele>252.5</ele>
<speed>21.0</speed>
<course>115.9</course>
<desc>Speed 21.0 km/h Distance 2.07 km</desc>
<time>2011-09-29T10:00:33.47</time>
<name>323</name>
</trkpt>
<trkpt lat="41.625228" lon="-0.724888">
<ele>253.0</ele>
<speed>18.4</speed>
<course>112.1</course>
<desc>Speed 18.4 km/h Distance 2.08 km</desc>
<time>2011-09-29T10:00:34.47</time>
<name>324</name>
</trkpt>
<trkpt lat="41.625212" lon="-0.724833">
<ele>253.0</ele>
<speed>17.7</speed>
<course>108.0</course>
<desc>Speed 17.7 km/h Distance 2.08 km</desc>
<time>2011-09-29T10:00:35.51</time>
<name>325</name>
</trkpt>
<trkpt lat="41.625198" lon="-0.724778">
<ele>253.0</ele>
<speed>17.0</speed>
<course>105.4</course>
<desc>Speed 17.0 km/h Distance 2.09 km</desc>
<time>2011-09-29T10:00:36.47</time>
<name>326</name>
</trkpt>
<trkpt lat="41.625187" lon="-0.724722">
<ele>253.0</ele>
<speed>17.8</speed>
<course>106.1</course>
<desc>Speed 17.8 km/h Distance 2.09 km</desc>
<time>2011-09-29T10:00:37.47</time>
<name>327</name>
</trkpt>
<trkpt lat="41.625173" lon="-0.724660">
<ele>252.5</ele>
<speed>19.4</speed>
<course>102.6</course>
<desc>Speed 19.4 km/h Distance 2.10 km</desc>
<time>2011-09-29T10:00:38.47</time>
<name>328</name>
</trkpt>
<trkpt lat="41.625162" lon="-0.724590">
<ele>252.0</ele>
<speed>21.1</speed>
<course>101.8</course>
<desc>Speed 21.1 km/h Distance 2.10 km</desc>
<time>2011-09-29T10:00:39.47</time>
<name>329</name>
</trkpt>
<trkpt lat="41.625150" lon="-0.724515">
<ele>251.5</ele>
<speed>22.8</speed>
<course>102.8</course>
<desc>Speed 22.8 km/h Distance 2.11 km</desc>
<time>2011-09-29T10:00:40.47</time>
<name>330</name>
</trkpt>
<trkpt lat="41.625137" lon="-0.724437">
<ele>251.0</ele>
<speed>24.2</speed>
<course>104.4</course>
<desc>Speed 24.2 km/h Distance 2.11 km</desc>
<time>2011-09-29T10:00:41.47</time>
<name>331</name>
</trkpt>
<trkpt lat="41.625122" lon="-0.724358">
<ele>250.5</ele>
<speed>24.3</speed>
<course>104.4</course>
<desc>Speed 24.3 km/h Distance 2.12 km</desc>
<time>2011-09-29T10:00:42.47</time>
<name>332</name>
</trkpt>
<trkpt lat="41.625107" lon="-0.724280">
<ele>250.5</ele>
<speed>23.9</speed>
<course>106.9</course>
<desc>Speed 23.9 km/h Distance 2.13 km</desc>
<time>2011-09-29T10:00:43.47</time>
<name>333</name>
</trkpt>
<trkpt lat="41.625090" lon="-0.724207">
<ele>251.0</ele>
<speed>22.6</speed>
<course>107.2</course>
<desc>Speed 22.6 km/h Distance 2.13 km</desc>
<time>2011-09-29T10:00:44.46</time>
<name>334</name>
</trkpt>
<trkpt lat="41.625075" lon="-0.724142">
<ele>251.5</ele>
<speed>20.8</speed>
<course>103.8</course>
<desc>Speed 20.8 km/h Distance 2.14 km</desc>
<time>2011-09-29T10:00:45.46</time>
<name>335</name>
</trkpt>
<trkpt lat="41.625063" lon="-0.724078">
<ele>251.5</ele>
<speed>19.1</speed>
<course>106.3</course>
<desc>Speed 19.1 km/h Distance 2.15 km</desc>
<time>2011-09-29T10:00:46.46</time>
<name>336</name>
</trkpt>
<trkpt lat="41.625052" lon="-0.724025">
<ele>252.0</ele>
<speed>16.6</speed>
<course>107.3</course>
<desc>Speed 16.6 km/h Distance 2.15 km</desc>
<time>2011-09-29T10:00:48.05</time>
<name>337</name>
</trkpt>
<trkpt lat="41.625028" lon="-0.723925">
<ele>253.0</ele>
<speed>15.0</speed>
<course>109.1</course>
<desc>Speed 15.0 km/h Distance 2.16 km</desc>
<time>2011-09-29T10:00:49.46</time>
<name>338</name>
</trkpt>
<trkpt lat="41.625017" lon="-0.723880">
<ele>253.5</ele>
<speed>14.3</speed>
<course>109.8</course>
<desc>Speed 14.3 km/h Distance 2.16 km</desc>
<time>2011-09-29T10:00:50.47</time>
<name>339</name>
</trkpt>
<trkpt lat="41.625005" lon="-0.723837">
<ele>254.0</ele>
<speed>13.9</speed>
<course>114.9</course>
<desc>Speed 13.9 km/h Distance 2.17 km</desc>
<time>2011-09-29T10:00:51.46</time>
<name>340</name>
</trkpt>
<trkpt lat="41.624990" lon="-0.723793">
<ele>254.0</ele>
<speed>14.1</speed>
<course>110.9</course>
<desc>Speed 14.1 km/h Distance 2.17 km</desc>
<time>2011-09-29T10:00:52.46</time>
<name>341</name>
</trkpt>
<trkpt lat="41.624977" lon="-0.723747">
<ele>254.0</ele>
<speed>15.2</speed>
<course>114.0</course>
<desc>Speed 15.2 km/h Distance 2.17 km</desc>
<time>2011-09-29T10:00:53.46</time>
<name>342</name>
</trkpt>
<trkpt lat="41.624960" lon="-0.723697">
<ele>254.0</ele>
<speed>16.0</speed>
<course>112.7</course>
<desc>Speed 16.0 km/h Distance 2.18 km</desc>
<time>2011-09-29T10:00:54.46</time>
<name>343</name>
</trkpt>
<trkpt lat="41.624943" lon="-0.723643">
<ele>254.0</ele>
<speed>17.0</speed>
<course>110.0</course>
<desc>Speed 17.0 km/h Distance 2.18 km</desc>
<time>2011-09-29T10:00:55.46</time>
<name>344</name>
</trkpt>
<trkpt lat="41.624928" lon="-0.723588">
<ele>254.0</ele>
<speed>17.5</speed>
<course>111.9</course>
<desc>Speed 17.5 km/h Distance 2.19 km</desc>
<time>2011-09-29T10:00:56.46</time>
<name>345</name>
</trkpt>
<trkpt lat="41.624913" lon="-0.723538">
<ele>254.0</ele>
<speed>16.1</speed>
<course>113.2</course>
<desc>Speed 16.1 km/h Distance 2.19 km</desc>
<time>2011-09-29T10:00:57.78</time>
<name>346</name>
</trkpt>
<trkpt lat="41.624887" lon="-0.723455">
<ele>254.5</ele>
<speed>12.5</speed>
<course>111.9</course>
<desc>Speed 12.5 km/h Distance 2.20 km</desc>
<time>2011-09-29T10:00:59.46</time>
<name>347</name>
</trkpt>
<trkpt lat="41.624877" lon="-0.723422">
<ele>255.0</ele>
<speed>10.8</speed>
<course>113.1</course>
<desc>Speed 10.8 km/h Distance 2.20 km</desc>
<time>2011-09-29T10:01:00.46</time>
<name>348</name>
</trkpt>
<trkpt lat="41.624865" lon="-0.723385">
<ele>255.0</ele>
<speed>11.8</speed>
<course>109.8</course>
<desc>Speed 11.8 km/h Distance 2.21 km</desc>
<time>2011-09-29T10:01:01.45</time>
<name>349</name>
</trkpt>
<trkpt lat="41.624853" lon="-0.723342">
<ele>255.0</ele>
<speed>13.9</speed>
<course>109.8</course>
<desc>Speed 13.9 km/h Distance 2.21 km</desc>
<time>2011-09-29T10:01:02.45</time>
<name>350</name>
</trkpt>
<trkpt lat="41.624842" lon="-0.723298">
<ele>255.0</ele>
<speed>13.5</speed>
<course>111.3</course>
<desc>Speed 13.5 km/h Distance 2.21 km</desc>
<time>2011-09-29T10:01:03.45</time>
<name>351</name>
</trkpt>
<trkpt lat="41.624830" lon="-0.723258">
<ele>255.0</ele>
<speed>13.5</speed>
<course>105.2</course>
<desc>Speed 13.5 km/h Distance 2.22 km</desc>
<time>2011-09-29T10:01:04.72</time>
<name>352</name>
</trkpt>
<trkpt lat="41.624812" lon="-0.723168">
<ele>255.0</ele>
<speed>14.3</speed>
<course>105.0</course>
<desc>Speed 14.3 km/h Distance 2.23 km</desc>
<time>2011-09-29T10:01:06.45</time>
<name>353</name>
</trkpt>
<trkpt lat="41.624802" lon="-0.723118">
<ele>254.5</ele>
<speed>15.6</speed>
<course>102.6</course>
<desc>Speed 15.6 km/h Distance 2.23 km</desc>
<time>2011-09-29T10:01:07.52</time>
<name>354</name>
</trkpt>
<trkpt lat="41.624792" lon="-0.723058">
<ele>254.0</ele>
<speed>18.1</speed>
<course>101.1</course>
<desc>Speed 18.1 km/h Distance 2.24 km</desc>
<time>2011-09-29T10:01:08.45</time>
<name>355</name>
</trkpt>
<trkpt lat="41.624782" lon="-0.722990">
<ele>253.5</ele>
<speed>21.0</speed>
<course>105.0</course>
<desc>Speed 21.0 km/h Distance 2.24 km</desc>
<time>2011-09-29T10:01:09.45</time>
<name>356</name>
</trkpt>
<trkpt lat="41.624767" lon="-0.722915">
<ele>253.0</ele>
<speed>23.4</speed>
<course>103.8</course>
<desc>Speed 23.4 km/h Distance 2.25 km</desc>
<time>2011-09-29T10:01:10.45</time>
<name>357</name>
</trkpt>
<trkpt lat="41.624752" lon="-0.722833">
<ele>252.5</ele>
<speed>25.2</speed>
<course>105.8</course>
<desc>Speed 25.2 km/h Distance 2.25 km</desc>
<time>2011-09-29T10:01:11.45</time>
<name>358</name>
</trkpt>
<trkpt lat="41.624733" lon="-0.722747">
<ele>252.0</ele>
<speed>26.8</speed>
<course>103.9</course>
<desc>Speed 26.8 km/h Distance 2.26 km</desc>
<time>2011-09-29T10:01:12.44</time>
<name>359</name>
</trkpt>
<trkpt lat="41.624717" lon="-0.722657">
<ele>252.0</ele>
<speed>27.5</speed>
<course>105.2</course>
<desc>Speed 27.5 km/h Distance 2.27 km</desc>
<time>2011-09-29T10:01:13.45</time>
<name>360</name>
</trkpt>
<trkpt lat="41.624698" lon="-0.722567">
<ele>251.5</ele>
<speed>27.7</speed>
<course>107.9</course>
<desc>Speed 27.7 km/h Distance 2.28 km</desc>
<time>2011-09-29T10:01:14.46</time>
<name>361</name>
</trkpt>
<trkpt lat="41.624677" lon="-0.722477">
<ele>251.0</ele>
<speed>28.2</speed>
<course>108.2</course>
<desc>Speed 28.2 km/h Distance 2.29 km</desc>
<time>2011-09-29T10:01:15.44</time>
<name>362</name>
</trkpt>
<trkpt lat="41.624655" lon="-0.722388">
<ele>251.0</ele>
<speed>27.9</speed>
<course>109.8</course>
<desc>Speed 27.9 km/h Distance 2.29 km</desc>
<time>2011-09-29T10:01:16.45</time>
<name>363</name>
</trkpt>
<trkpt lat="41.624632" lon="-0.722302">
<ele>250.5</ele>
<speed>27.4</speed>
<course>113.2</course>
<desc>Speed 27.4 km/h Distance 2.30 km</desc>
<time>2011-09-29T10:01:17.44</time>
<name>364</name>
</trkpt>
<trkpt lat="41.624605" lon="-0.722218">
<ele>250.5</ele>
<speed>26.8</speed>
<course>112.7</course>
<desc>Speed 26.8 km/h Distance 2.31 km</desc>
<time>2011-09-29T10:01:18.44</time>
<name>365</name>
</trkpt>
<trkpt lat="41.624580" lon="-0.722138">
<ele>250.5</ele>
<speed>26.1</speed>
<course>109.5</course>
<desc>Speed 26.1 km/h Distance 2.32 km</desc>
<time>2011-09-29T10:01:19.44</time>
<name>366</name>
</trkpt>
<trkpt lat="41.624558" lon="-0.722057">
<ele>250.5</ele>
<speed>25.6</speed>
<course>110.3</course>
<desc>Speed 25.6 km/h Distance 2.32 km</desc>
<time>2011-09-29T10:01:20.44</time>
<name>367</name>
</trkpt>
<trkpt lat="41.624537" lon="-0.721978">
<ele>250.5</ele>
<speed>25.4</speed>
<course>111.3</course>
<desc>Speed 25.4 km/h Distance 2.33 km</desc>
<time>2011-09-29T10:01:21.44</time>
<name>368</name>
</trkpt>
<trkpt lat="41.624513" lon="-0.721898">
<ele>250.5</ele>
<speed>25.4</speed>
<course>109.9</course>
<desc>Speed 25.4 km/h Distance 2.34 km</desc>
<time>2011-09-29T10:01:22.44</time>
<name>369</name>
</trkpt>
<trkpt lat="41.624492" lon="-0.721818">
<ele>250.0</ele>
<speed>25.3</speed>
<course>110.3</course>
<desc>Speed 25.3 km/h Distance 2.34 km</desc>
<time>2011-09-29T10:01:23.44</time>
<name>370</name>
</trkpt>
<trkpt lat="41.624470" lon="-0.721740">
<ele>250.0</ele>
<speed>25.2</speed>
<course>111.7</course>
<desc>Speed 25.2 km/h Distance 2.35 km</desc>
<time>2011-09-29T10:01:24.44</time>
<name>371</name>
</trkpt>
<trkpt lat="41.624447" lon="-0.721662">
<ele>250.0</ele>
<speed>25.2</speed>
<course>109.9</course>
<desc>Speed 25.2 km/h Distance 2.36 km</desc>
<time>2011-09-29T10:01:25.44</time>
<name>372</name>
</trkpt>
<trkpt lat="41.624425" lon="-0.721582">
<ele>249.5</ele>
<speed>25.3</speed>
<course>110.1</course>
<desc>Speed 25.3 km/h Distance 2.37 km</desc>
<time>2011-09-29T10:01:26.99</time>
<name>373</name>
</trkpt>
<trkpt lat="41.624382" lon="-0.721423">
<ele>249.5</ele>
<speed>25.1</speed>
<course>107.4</course>
<desc>Speed 25.1 km/h Distance 2.38 km</desc>
<time>2011-09-29T10:01:28.43</time>
<name>374</name>
</trkpt>
<trkpt lat="41.624363" lon="-0.721345">
<ele>249.5</ele>
<speed>24.7</speed>
<course>110.3</course>
<desc>Speed 24.7 km/h Distance 2.39 km</desc>
<time>2011-09-29T10:01:29.43</time>
<name>375</name>
</trkpt>
<trkpt lat="41.624342" lon="-0.721267">
<ele>249.5</ele>
<speed>24.5</speed>
<course>111.1</course>
<desc>Speed 24.5 km/h Distance 2.39 km</desc>
<time>2011-09-29T10:01:30.43</time>
<name>376</name>
</trkpt>
<trkpt lat="41.624320" lon="-0.721192">
<ele>249.5</ele>
<speed>24.2</speed>
<course>109.2</course>
<desc>Speed 24.2 km/h Distance 2.40 km</desc>
<time>2011-09-29T10:01:31.43</time>
<name>377</name>
</trkpt>
<trkpt lat="41.624300" lon="-0.721115">
<ele>249.5</ele>
<speed>24.4</speed>
<course>107.7</course>
<desc>Speed 24.4 km/h Distance 2.41 km</desc>
<time>2011-09-29T10:01:32.43</time>
<name>378</name>
</trkpt>
<trkpt lat="41.624282" lon="-0.721038">
<ele>249.5</ele>
<speed>24.1</speed>
<course>108.1</course>
<desc>Speed 24.1 km/h Distance 2.41 km</desc>
<time>2011-09-29T10:01:33.43</time>
<name>379</name>
</trkpt>
<trkpt lat="41.624263" lon="-0.720963">
<ele>249.0</ele>
<speed>23.8</speed>
<course>108.1</course>
<desc>Speed 23.8 km/h Distance 2.42 km</desc>
<time>2011-09-29T10:01:34.43</time>
<name>380</name>
</trkpt>
<trkpt lat="41.624245" lon="-0.720888">
<ele>249.5</ele>
<speed>23.5</speed>
<course>109.6</course>
<desc>Speed 23.5 km/h Distance 2.43 km</desc>
<time>2011-09-29T10:01:35.43</time>
<name>381</name>
</trkpt>
<trkpt lat="41.624225" lon="-0.720813">
<ele>249.0</ele>
<speed>23.6</speed>
<course>108.5</course>
<desc>Speed 23.6 km/h Distance 2.43 km</desc>
<time>2011-09-29T10:01:36.72</time>
<name>382</name>
</trkpt>
<trkpt lat="41.624185" lon="-0.720653">
<ele>248.5</ele>
<speed>26.1</speed>
<course>112.3</course>
<desc>Speed 26.1 km/h Distance 2.45 km</desc>
<time>2011-09-29T10:01:38.43</time>
<name>383</name>
</trkpt>
<trkpt lat="41.624160" lon="-0.720572">
<ele>248.5</ele>
<speed>26.5</speed>
<course>114.5</course>
<desc>Speed 26.5 km/h Distance 2.45 km</desc>
<time>2011-09-29T10:01:39.43</time>
<name>384</name>
</trkpt>
<trkpt lat="41.624133" lon="-0.720493">
<ele>248.5</ele>
<speed>26.1</speed>
<course>111.3</course>
<desc>Speed 26.1 km/h Distance 2.46 km</desc>
<time>2011-09-29T10:01:40.43</time>
<name>385</name>
</trkpt>
<trkpt lat="41.624110" lon="-0.720413">
<ele>248.0</ele>
<speed>25.5</speed>
<course>111.7</course>
<desc>Speed 25.5 km/h Distance 2.47 km</desc>
<time>2011-09-29T10:01:41.43</time>
<name>386</name>
</trkpt>
<trkpt lat="41.624087" lon="-0.720335">
<ele>248.0</ele>
<speed>25.3</speed>
<course>110.9</course>
<desc>Speed 25.3 km/h Distance 2.48 km</desc>
<time>2011-09-29T10:01:42.42</time>
<name>387</name>
</trkpt>
<trkpt lat="41.624063" lon="-0.720253">
<ele>247.5</ele>
<speed>26.1</speed>
<course>110.6</course>
<desc>Speed 26.1 km/h Distance 2.48 km</desc>
<time>2011-09-29T10:01:43.66</time>
<name>388</name>
</trkpt>
<trkpt lat="41.624018" lon="-0.720093">
<ele>247.5</ele>
<speed>24.9</speed>
<course>107.7</course>
<desc>Speed 24.9 km/h Distance 2.50 km</desc>
<time>2011-09-29T10:01:45.42</time>
<name>389</name>
</trkpt>
<trkpt lat="41.624000" lon="-0.720017">
<ele>247.5</ele>
<speed>24.3</speed>
<course>110.7</course>
<desc>Speed 24.3 km/h Distance 2.50 km</desc>
<time>2011-09-29T10:01:46.46</time>
<name>390</name>
</trkpt>
<trkpt lat="41.623978" lon="-0.719940">
<ele>247.5</ele>
<speed>24.2</speed>
<course>109.2</course>
<desc>Speed 24.2 km/h Distance 2.51 km</desc>
<time>2011-09-29T10:01:47.42</time>
<name>391</name>
</trkpt>
<trkpt lat="41.623958" lon="-0.719863">
<ele>247.5</ele>
<speed>24.3</speed>
<course>111.1</course>
<desc>Speed 24.3 km/h Distance 2.52 km</desc>
<time>2011-09-29T10:01:48.42</time>
<name>392</name>
</trkpt>
<trkpt lat="41.623937" lon="-0.719788">
<ele>247.5</ele>
<speed>24.4</speed>
<course>114.0</course>
<desc>Speed 24.4 km/h Distance 2.52 km</desc>
<time>2011-09-29T10:01:49.42</time>
<name>393</name>
</trkpt>
<trkpt lat="41.623912" lon="-0.719713">
<ele>247.5</ele>
<speed>24.7</speed>
<course>110.7</course>
<desc>Speed 24.7 km/h Distance 2.53 km</desc>
<time>2011-09-29T10:01:50.42</time>
<name>394</name>
</trkpt>
<trkpt lat="41.623890" lon="-0.719637">
<ele>247.5</ele>
<speed>24.6</speed>
<course>111.1</course>
<desc>Speed 24.6 km/h Distance 2.54 km</desc>
<time>2011-09-29T10:01:51.42</time>
<name>395</name>
</trkpt>
<trkpt lat="41.623868" lon="-0.719562">
<ele>247.5</ele>
<speed>24.3</speed>
<course>112.6</course>
<desc>Speed 24.3 km/h Distance 2.54 km</desc>
<time>2011-09-29T10:01:52.42</time>
<name>396</name>
</trkpt>
<trkpt lat="41.623845" lon="-0.719487">
<ele>247.5</ele>
<speed>24.0</speed>
<course>113.1</course>
<desc>Speed 24.0 km/h Distance 2.55 km</desc>
<time>2011-09-29T10:01:53.42</time>
<name>397</name>
</trkpt>
<trkpt lat="41.623822" lon="-0.719413">
<ele>247.5</ele>
<speed>24.1</speed>
<course>116.5</course>
<desc>Speed 24.1 km/h Distance 2.56 km</desc>
<time>2011-09-29T10:01:54.42</time>
<name>398</name>
</trkpt>
<trkpt lat="41.623795" lon="-0.719342">
<ele>247.5</ele>
<speed>24.0</speed>
<course>114.8</course>
<desc>Speed 24.0 km/h Distance 2.56 km</desc>
<time>2011-09-29T10:01:56.19</time>
<name>399</name>
</trkpt>
<trkpt lat="41.623720" lon="-0.719125">
<ele>247.5</ele>
<speed>23.8</speed>
<course>113.5</course>
<desc>Speed 23.8 km/h Distance 2.58 km</desc>
<time>2011-09-29T10:01:58.41</time>
<name>400</name>
</trkpt>
<trkpt lat="41.623697" lon="-0.719053">
<ele>247.5</ele>
<speed>23.5</speed>
<course>115.5</course>
<desc>Speed 23.5 km/h Distance 2.59 km</desc>
<time>2011-09-29T10:01:59.42</time>
<name>401</name>
</trkpt>
<trkpt lat="41.623672" lon="-0.718983">
<ele>247.5</ele>
<speed>23.3</speed>
<course>115.0</course>
<desc>Speed 23.3 km/h Distance 2.60 km</desc>
<time>2011-09-29T10:02:00.41</time>
<name>402</name>
</trkpt>
<trkpt lat="41.623647" lon="-0.718912">
<ele>248.0</ele>
<speed>23.5</speed>
<course>116.5</course>
<desc>Speed 23.5 km/h Distance 2.60 km</desc>
<time>2011-09-29T10:02:01.41</time>
<name>403</name>
</trkpt>
<trkpt lat="41.623620" lon="-0.718840">
<ele>248.0</ele>
<speed>23.8</speed>
<course>117.0</course>
<desc>Speed 23.8 km/h Distance 2.61 km</desc>
<time>2011-09-29T10:02:02.41</time>
<name>404</name>
</trkpt>
<trkpt lat="41.623593" lon="-0.718770">
<ele>248.0</ele>
<speed>23.5</speed>
<course>115.0</course>
<desc>Speed 23.5 km/h Distance 2.62 km</desc>
<time>2011-09-29T10:02:03.41</time>
<name>405</name>
</trkpt>
<trkpt lat="41.623568" lon="-0.718698">
<ele>248.5</ele>
<speed>23.3</speed>
<course>115.5</course>
<desc>Speed 23.3 km/h Distance 2.62 km</desc>
<time>2011-09-29T10:02:04.41</time>
<name>406</name>
</trkpt>
<trkpt lat="41.623543" lon="-0.718628">
<ele>248.5</ele>
<speed>23.2</speed>
<course>116.7</course>
<desc>Speed 23.2 km/h Distance 2.63 km</desc>
<time>2011-09-29T10:02:05.93</time>
<name>407</name>
</trkpt>
<trkpt lat="41.623495" lon="-0.718500">
<ele>249.5</ele>
<speed>21.3</speed>
<course>115.7</course>
<desc>Speed 21.3 km/h Distance 2.64 km</desc>
<time>2011-09-29T10:02:07.41</time>
<name>408</name>
</trkpt>
<trkpt lat="41.623472" lon="-0.718435">
<ele>249.5</ele>
<speed>21.7</speed>
<course>116.6</course>
<desc>Speed 21.7 km/h Distance 2.65 km</desc>
<time>2011-09-29T10:02:08.41</time>
<name>409</name>
</trkpt>
<trkpt lat="41.623447" lon="-0.718368">
<ele>249.5</ele>
<speed>22.2</speed>
<course>116.1</course>
<desc>Speed 22.2 km/h Distance 2.65 km</desc>
<time>2011-09-29T10:02:09.41</time>
<name>410</name>
</trkpt>
<trkpt lat="41.623422" lon="-0.718300">
<ele>250.0</ele>
<speed>22.6</speed>
<course>115.1</course>
<desc>Speed 22.6 km/h Distance 2.66 km</desc>
<time>2011-09-29T10:02:10.41</time>
<name>411</name>
</trkpt>
<trkpt lat="41.623398" lon="-0.718233">
<ele>250.0</ele>
<speed>22.5</speed>
<course>119.6</course>
<desc>Speed 22.5 km/h Distance 2.67 km</desc>
<time>2011-09-29T10:02:11.41</time>
<name>412</name>
</trkpt>
<trkpt lat="41.623370" lon="-0.718167">
<ele>250.0</ele>
<speed>22.3</speed>
<course>117.2</course>
<desc>Speed 22.3 km/h Distance 2.67 km</desc>
<time>2011-09-29T10:02:12.40</time>
<name>413</name>
</trkpt>
<trkpt lat="41.623345" lon="-0.718102">
<ele>250.0</ele>
<speed>22.4</speed>
<course>118.2</course>
<desc>Speed 22.4 km/h Distance 2.68 km</desc>
<time>2011-09-29T10:02:13.40</time>
<name>414</name>
</trkpt>
<trkpt lat="41.623318" lon="-0.718035">
<ele>250.0</ele>
<speed>22.4</speed>
<course>118.8</course>
<desc>Speed 22.4 km/h Distance 2.69 km</desc>
<time>2011-09-29T10:02:14.40</time>
<name>415</name>
</trkpt>
<trkpt lat="41.623292" lon="-0.717970">
<ele>250.0</ele>
<speed>22.5</speed>
<course>119.8</course>
<desc>Speed 22.5 km/h Distance 2.69 km</desc>
<time>2011-09-29T10:02:15.65</time>
<name>416</name>
</trkpt>
<trkpt lat="41.623237" lon="-0.717842">
<ele>250.0</ele>
<speed>22.0</speed>
<course>117.2</course>
<desc>Speed 22.0 km/h Distance 2.70 km</desc>
<time>2011-09-29T10:02:17.40</time>
<name>417</name>
</trkpt>
<trkpt lat="41.623212" lon="-0.717777">
<ele>250.0</ele>
<speed>22.0</speed>
<course>119.4</course>
<desc>Speed 22.0 km/h Distance 2.71 km</desc>
<time>2011-09-29T10:02:18.40</time>
<name>418</name>
</trkpt>
<trkpt lat="41.623185" lon="-0.717713">
<ele>250.0</ele>
<speed>22.0</speed>
<course>118.8</course>
<desc>Speed 22.0 km/h Distance 2.72 km</desc>
<time>2011-09-29T10:02:19.40</time>
<name>419</name>
</trkpt>
<trkpt lat="41.623158" lon="-0.717648">
<ele>250.0</ele>
<speed>22.2</speed>
<course>116.6</course>
<desc>Speed 22.2 km/h Distance 2.72 km</desc>
<time>2011-09-29T10:02:20.40</time>
<name>420</name>
</trkpt>
<trkpt lat="41.623133" lon="-0.717582">
<ele>250.0</ele>
<speed>22.4</speed>
<course>119.6</course>
<desc>Speed 22.4 km/h Distance 2.73 km</desc>
<time>2011-09-29T10:02:21.40</time>
<name>421</name>
</trkpt>
<trkpt lat="41.623105" lon="-0.717515">
<ele>250.0</ele>
<speed>22.9</speed>
<course>119.2</course>
<desc>Speed 22.9 km/h Distance 2.73 km</desc>
<time>2011-09-29T10:02:22.61</time>
<name>422</name>
</trkpt>
<trkpt lat="41.623050" lon="-0.717383">
<ele>250.0</ele>
<speed>22.5</speed>
<course>119.4</course>
<desc>Speed 22.5 km/h Distance 2.75 km</desc>
<time>2011-09-29T10:02:24.39</time>
<name>423</name>
</trkpt>
<trkpt lat="41.623023" lon="-0.717320">
<ele>250.0</ele>
<speed>21.9</speed>
<course>120.9</course>
<desc>Speed 21.9 km/h Distance 2.75 km</desc>
<time>2011-09-29T10:02:25.41</time>
<name>424</name>
</trkpt>
<trkpt lat="41.622995" lon="-0.717257">
<ele>249.5</ele>
<speed>22.0</speed>
<course>123.8</course>
<desc>Speed 22.0 km/h Distance 2.76 km</desc>
<time>2011-09-29T10:02:26.39</time>
<name>425</name>
</trkpt>
<trkpt lat="41.622963" lon="-0.717193">
<ele>249.5</ele>
<speed>22.6</speed>
<course>125.9</course>
<desc>Speed 22.6 km/h Distance 2.77 km</desc>
<time>2011-09-29T10:02:27.40</time>
<name>426</name>
</trkpt>
<trkpt lat="41.622930" lon="-0.717132">
<ele>249.5</ele>
<speed>22.7</speed>
<course>125.1</course>
<desc>Speed 22.7 km/h Distance 2.77 km</desc>
<time>2011-09-29T10:02:28.39</time>
<name>427</name>
</trkpt>
<trkpt lat="41.622897" lon="-0.717068">
<ele>249.5</ele>
<speed>23.0</speed>
<course>125.1</course>
<desc>Speed 23.0 km/h Distance 2.78 km</desc>
<time>2011-09-29T10:02:29.39</time>
<name>428</name>
</trkpt>
<trkpt lat="41.622863" lon="-0.717005">
<ele>249.5</ele>
<speed>23.4</speed>
<course>124.4</course>
<desc>Speed 23.4 km/h Distance 2.79 km</desc>
<time>2011-09-29T10:02:30.39</time>
<name>429</name>
</trkpt>
<trkpt lat="41.622828" lon="-0.716937">
<ele>249.0</ele>
<speed>24.6</speed>
<course>125.0</course>
<desc>Speed 24.6 km/h Distance 2.79 km</desc>
<time>2011-09-29T10:02:31.39</time>
<name>430</name>
</trkpt>
<trkpt lat="41.622792" lon="-0.716867">
<ele>249.0</ele>
<speed>25.0</speed>
<course>123.1</course>
<desc>Speed 25.0 km/h Distance 2.80 km</desc>
<time>2011-09-29T10:02:32.42</time>
<name>431</name>
</trkpt>
<trkpt lat="41.622758" lon="-0.716798">
<ele>249.0</ele>
<speed>24.6</speed>
<course>119.2</course>
<desc>Speed 24.6 km/h Distance 2.81 km</desc>
<time>2011-09-29T10:02:33.39</time>
<name>432</name>
</trkpt>
<trkpt lat="41.622728" lon="-0.716727">
<ele>248.5</ele>
<speed>24.3</speed>
<course>119.2</course>
<desc>Speed 24.3 km/h Distance 2.81 km</desc>
<time>2011-09-29T10:02:34.39</time>
<name>433</name>
</trkpt>
<trkpt lat="41.622698" lon="-0.716655">
<ele>248.5</ele>
<speed>24.6</speed>
<course>115.9</course>
<desc>Speed 24.6 km/h Distance 2.82 km</desc>
<time>2011-09-29T10:02:35.39</time>
<name>434</name>
</trkpt>
<trkpt lat="41.622672" lon="-0.716582">
<ele>248.5</ele>
<speed>24.3</speed>
<course>115.0</course>
<desc>Speed 24.3 km/h Distance 2.83 km</desc>
<time>2011-09-29T10:02:36.39</time>
<name>435</name>
</trkpt>
<trkpt lat="41.622647" lon="-0.716510">
<ele>249.0</ele>
<speed>23.8</speed>
<course>121.2</course>
<desc>Speed 23.8 km/h Distance 2.83 km</desc>
<time>2011-09-29T10:02:37.38</time>
<name>436</name>
</trkpt>
<trkpt lat="41.622615" lon="-0.716440">
<ele>249.0</ele>
<speed>23.9</speed>
<course>123.1</course>
<desc>Speed 23.9 km/h Distance 2.84 km</desc>
<time>2011-09-29T10:02:38.38</time>
<name>437</name>
</trkpt>
<trkpt lat="41.622583" lon="-0.716375">
<ele>249.0</ele>
<speed>23.9</speed>
<course>129.0</course>
<desc>Speed 23.9 km/h Distance 2.85 km</desc>
<time>2011-09-29T10:02:39.39</time>
<name>438</name>
</trkpt>
<trkpt lat="41.622545" lon="-0.716312">
<ele>249.0</ele>
<speed>23.9</speed>
<course>129.7</course>
<desc>Speed 23.9 km/h Distance 2.85 km</desc>
<time>2011-09-29T10:02:40.38</time>
<name>439</name>
</trkpt>
<trkpt lat="41.622507" lon="-0.716250">
<ele>249.0</ele>
<speed>24.0</speed>
<course>130.5</course>
<desc>Speed 24.0 km/h Distance 2.86 km</desc>
<time>2011-09-29T10:02:41.38</time>
<name>440</name>
</trkpt>
<trkpt lat="41.622468" lon="-0.716190">
<ele>249.0</ele>
<speed>23.7</speed>
<course>127.8</course>
<desc>Speed 23.7 km/h Distance 2.87 km</desc>
<time>2011-09-29T10:02:42.38</time>
<name>441</name>
</trkpt>
<trkpt lat="41.622432" lon="-0.716127">
<ele>249.0</ele>
<speed>23.7</speed>
<course>128.5</course>
<desc>Speed 23.7 km/h Distance 2.87 km</desc>
<time>2011-09-29T10:02:43.38</time>
<name>442</name>
</trkpt>
<trkpt lat="41.622395" lon="-0.716065">
<ele>249.0</ele>
<speed>23.8</speed>
<course>130.5</course>
<desc>Speed 23.8 km/h Distance 2.88 km</desc>
<time>2011-09-29T10:02:44.96</time>
<name>443</name>
</trkpt>
<trkpt lat="41.622318" lon="-0.715945">
<ele>249.0</ele>
<speed>23.4</speed>
<course>122.4</course>
<desc>Speed 23.4 km/h Distance 2.89 km</desc>
<time>2011-09-29T10:02:46.38</time>
<name>444</name>
</trkpt>
<trkpt lat="41.622287" lon="-0.715878">
<ele>249.0</ele>
<speed>23.6</speed>
<course>125.9</course>
<desc>Speed 23.6 km/h Distance 2.90 km</desc>
<time>2011-09-29T10:02:47.38</time>
<name>445</name>
</trkpt>
<trkpt lat="41.622253" lon="-0.715817">
<ele>249.0</ele>
<speed>23.0</speed>
<course>126.6</course>
<desc>Speed 23.0 km/h Distance 2.91 km</desc>
<time>2011-09-29T10:02:48.38</time>
<name>446</name>
</trkpt>
<trkpt lat="41.622220" lon="-0.715757">
<ele>248.5</ele>
<speed>23.0</speed>
<course>123.8</course>
<desc>Speed 23.0 km/h Distance 2.91 km</desc>
<time>2011-09-29T10:02:49.38</time>
<name>447</name>
</trkpt>
<trkpt lat="41.622188" lon="-0.715693">
<ele>248.5</ele>
<speed>23.0</speed>
<course>123.8</course>
<desc>Speed 23.0 km/h Distance 2.92 km</desc>
<time>2011-09-29T10:02:50.38</time>
<name>448</name>
</trkpt>
<trkpt lat="41.622157" lon="-0.715630">
<ele>248.5</ele>
<speed>22.8</speed>
<course>123.8</course>
<desc>Speed 22.8 km/h Distance 2.92 km</desc>
<time>2011-09-29T10:02:51.38</time>
<name>449</name>
</trkpt>
<trkpt lat="41.622125" lon="-0.715567">
<ele>248.5</ele>
<speed>23.0</speed>
<course>123.8</course>
<desc>Speed 23.0 km/h Distance 2.93 km</desc>
<time>2011-09-29T10:02:52.38</time>
<name>450</name>
</trkpt>
<trkpt lat="41.622093" lon="-0.715503">
<ele>248.5</ele>
<speed>23.0</speed>
<course>122.4</course>
<desc>Speed 23.0 km/h Distance 2.94 km</desc>
<time>2011-09-29T10:02:53.37</time>
<name>451</name>
</trkpt>
<trkpt lat="41.622063" lon="-0.715440">
<ele>248.5</ele>
<speed>22.7</speed>
<course>120.2</course>
<desc>Speed 22.7 km/h Distance 2.94 km</desc>
<time>2011-09-29T10:02:54.71</time>
<name>452</name>
</trkpt>
<trkpt lat="41.622007" lon="-0.715310">
<ele>248.5</ele>
<speed>22.5</speed>
<course>122.4</course>
<desc>Speed 22.5 km/h Distance 2.96 km</desc>
<time>2011-09-29T10:02:56.37</time>
<name>453</name>
</trkpt>
<trkpt lat="41.621977" lon="-0.715247">
<ele>249.0</ele>
<speed>22.6</speed>
<course>118.1</course>
<desc>Speed 22.6 km/h Distance 2.96 km</desc>
<time>2011-09-29T10:02:57.37</time>
<name>454</name>
</trkpt>
<trkpt lat="41.621950" lon="-0.715180">
<ele>249.0</ele>
<speed>22.6</speed>
<course>114.5</course>
<desc>Speed 22.6 km/h Distance 2.97 km</desc>
<time>2011-09-29T10:02:58.37</time>
<name>455</name>
</trkpt>
<trkpt lat="41.621927" lon="-0.715112">
<ele>249.0</ele>
<speed>22.5</speed>
<course>110.9</course>
<desc>Speed 22.5 km/h Distance 2.97 km</desc>
<time>2011-09-29T10:02:59.37</time>
<name>456</name>
</trkpt>
<trkpt lat="41.621907" lon="-0.715042">
<ele>249.5</ele>
<speed>22.4</speed>
<course>113.0</course>
<desc>Speed 22.4 km/h Distance 2.98 km</desc>
<time>2011-09-29T10:03:00.37</time>
<name>457</name>
</trkpt>
<trkpt lat="41.621885" lon="-0.714973">
<ele>249.5</ele>
<speed>22.4</speed>
<course>115.4</course>
<desc>Speed 22.4 km/h Distance 2.99 km</desc>
<time>2011-09-29T10:03:01.64</time>
<name>458</name>
</trkpt>
<trkpt lat="41.621838" lon="-0.714842">
<ele>249.5</ele>
<speed>21.7</speed>
<course>120.0</course>
<desc>Speed 21.7 km/h Distance 3.00 km</desc>
<time>2011-09-29T10:03:03.37</time>
<name>459</name>
</trkpt>
<trkpt lat="41.621812" lon="-0.714780">
<ele>249.5</ele>
<speed>21.7</speed>
<course>127.4</course>
<desc>Speed 21.7 km/h Distance 3.01 km</desc>
<time>2011-09-29T10:03:04.44</time>
<name>460</name>
</trkpt>
<trkpt lat="41.621778" lon="-0.714722">
<ele>249.5</ele>
<speed>22.1</speed>
<course>136.3</course>
<desc>Speed 22.1 km/h Distance 3.01 km</desc>
<time>2011-09-29T10:03:05.37</time>
<name>461</name>
</trkpt>
<trkpt lat="41.621737" lon="-0.714668">
<ele>249.5</ele>
<speed>22.8</speed>
<course>149.3</course>
<desc>Speed 22.8 km/h Distance 3.02 km</desc>
<time>2011-09-29T10:03:06.37</time>
<name>462</name>
</trkpt>
<trkpt lat="41.621688" lon="-0.714630">
<ele>249.5</ele>
<speed>22.9</speed>
<course>158.3</course>
<desc>Speed 22.9 km/h Distance 3.02 km</desc>
<time>2011-09-29T10:03:07.37</time>
<name>463</name>
</trkpt>
<trkpt lat="41.621635" lon="-0.714602">
<ele>249.0</ele>
<speed>22.6</speed>
<course>157.7</course>
<desc>Speed 22.6 km/h Distance 3.03 km</desc>
<time>2011-09-29T10:03:08.36</time>
<name>464</name>
</trkpt>
<trkpt lat="41.621583" lon="-0.714573">
<ele>248.5</ele>
<speed>22.7</speed>
<course>155.5</course>
<desc>Speed 22.7 km/h Distance 3.04 km</desc>
<time>2011-09-29T10:03:09.37</time>
<name>465</name>
</trkpt>
<trkpt lat="41.621523" lon="-0.714537">
<ele>248.0</ele>
<speed>26.1</speed>
<course>150.5</course>
<desc>Speed 26.1 km/h Distance 3.04 km</desc>
<time>2011-09-29T10:03:10.36</time>
<name>466</name>
</trkpt>
<trkpt lat="41.621468" lon="-0.714495">
<ele>248.0</ele>
<speed>25.6</speed>
<course>141.3</course>
<desc>Speed 25.6 km/h Distance 3.05 km</desc>
<time>2011-09-29T10:03:11.39</time>
<name>467</name>
</trkpt>
<trkpt lat="41.621422" lon="-0.714445">
<ele>248.0</ele>
<speed>23.9</speed>
<course>136.3</course>
<desc>Speed 23.9 km/h Distance 3.06 km</desc>
<time>2011-09-29T10:03:12.36</time>
<name>468</name>
</trkpt>
<trkpt lat="41.621380" lon="-0.714392">
<ele>248.0</ele>
<speed>23.2</speed>
<course>128.7</course>
<desc>Speed 23.2 km/h Distance 3.06 km</desc>
<time>2011-09-29T10:03:13.36</time>
<name>469</name>
</trkpt>
<trkpt lat="41.621345" lon="-0.714333">
<ele>248.0</ele>
<speed>22.5</speed>
<course>126.6</course>
<desc>Speed 22.5 km/h Distance 3.07 km</desc>
<time>2011-09-29T10:03:14.36</time>
<name>470</name>
</trkpt>
<trkpt lat="41.621312" lon="-0.714273">
<ele>248.0</ele>
<speed>22.3</speed>
<course>127.4</course>
<desc>Speed 22.3 km/h Distance 3.08 km</desc>
<time>2011-09-29T10:03:15.36</time>
<name>471</name>
</trkpt>
<trkpt lat="41.621278" lon="-0.714215">
<ele>247.5</ele>
<speed>22.1</speed>
<course>123.1</course>
<desc>Speed 22.1 km/h Distance 3.08 km</desc>
<time>2011-09-29T10:03:16.36</time>
<name>472</name>
</trkpt>
<trkpt lat="41.621248" lon="-0.714153">
<ele>247.5</ele>
<speed>22.0</speed>
<course>125.9</course>
<desc>Speed 22.0 km/h Distance 3.09 km</desc>
<time>2011-09-29T10:03:17.36</time>
<name>473</name>
</trkpt>
<trkpt lat="41.621215" lon="-0.714092">
<ele>247.5</ele>
<speed>22.8</speed>
<course>133.4</course>
<desc>Speed 22.8 km/h Distance 3.10 km</desc>
<time>2011-09-29T10:03:18.36</time>
<name>474</name>
</trkpt>
<trkpt lat="41.621175" lon="-0.714035">
<ele>247.0</ele>
<speed>23.3</speed>
<course>146.1</course>
<desc>Speed 23.3 km/h Distance 3.10 km</desc>
<time>2011-09-29T10:03:19.36</time>
<name>475</name>
</trkpt>
<trkpt lat="41.621125" lon="-0.713990">
<ele>247.0</ele>
<speed>24.1</speed>
<course>163.6</course>
<desc>Speed 24.1 km/h Distance 3.11 km</desc>
<time>2011-09-29T10:03:20.36</time>
<name>476</name>
</trkpt>
<trkpt lat="41.621070" lon="-0.713968">
<ele>246.5</ele>
<speed>23.3</speed>
<course>181.1</course>
<desc>Speed 23.3 km/h Distance 3.11 km</desc>
<time>2011-09-29T10:03:21.36</time>
<name>477</name>
</trkpt>
<trkpt lat="41.621008" lon="-0.713970">
<ele>247.0</ele>
<speed>24.7</speed>
<course>193.6</course>
<desc>Speed 24.7 km/h Distance 3.12 km</desc>
<time>2011-09-29T10:03:22.35</time>
<name>478</name>
</trkpt>
<trkpt lat="41.620947" lon="-0.713990">
<ele>247.0</ele>
<speed>24.8</speed>
<course>174.4</course>
<desc>Speed 24.8 km/h Distance 3.13 km</desc>
<time>2011-09-29T10:03:23.96</time>
<name>479</name>
</trkpt>
<trkpt lat="41.620743" lon="-0.713963">
<ele>248.5</ele>
<speed>31.8</speed>
<course>144.1</course>
<desc>Speed 31.8 km/h Distance 3.15 km</desc>
<time>2011-09-29T10:03:26.35</time>
<name>480</name>
</trkpt>
<trkpt lat="41.620693" lon="-0.713915">
<ele>249.0</ele>
<speed>24.8</speed>
<course>127.4</course>
<desc>Speed 24.8 km/h Distance 3.16 km</desc>
<time>2011-09-29T10:03:27.35</time>
<name>481</name>
</trkpt>
<trkpt lat="41.620660" lon="-0.713857">
<ele>249.0</ele>
<speed>22.7</speed>
<course>115.6</course>
<desc>Speed 22.7 km/h Distance 3.16 km</desc>
<time>2011-09-29T10:03:28.35</time>
<name>482</name>
</trkpt>
<trkpt lat="41.620637" lon="-0.713792">
<ele>248.5</ele>
<speed>22.0</speed>
<course>124.5</course>
<desc>Speed 22.0 km/h Distance 3.17 km</desc>
<time>2011-09-29T10:03:29.35</time>
<name>483</name>
</trkpt>
<trkpt lat="41.620607" lon="-0.713733">
<ele>248.5</ele>
<speed>21.8</speed>
<course>126.0</course>
<desc>Speed 21.8 km/h Distance 3.18 km</desc>
<time>2011-09-29T10:03:30.35</time>
<name>484</name>
</trkpt>
<trkpt lat="41.620575" lon="-0.713675">
<ele>248.5</ele>
<speed>21.7</speed>
<course>127.6</course>
<desc>Speed 21.7 km/h Distance 3.18 km</desc>
<time>2011-09-29T10:03:31.35</time>
<name>485</name>
</trkpt>
<trkpt lat="41.620543" lon="-0.713620">
<ele>248.5</ele>
<speed>21.3</speed>
<course>129.0</course>
<desc>Speed 21.3 km/h Distance 3.19 km</desc>
<time>2011-09-29T10:03:32.35</time>
<name>486</name>
</trkpt>
<trkpt lat="41.620510" lon="-0.713565">
<ele>248.5</ele>
<speed>21.3</speed>
<course>127.4</course>
<desc>Speed 21.3 km/h Distance 3.19 km</desc>
<time>2011-09-29T10:03:33.69</time>
<name>487</name>
</trkpt>
<trkpt lat="41.620443" lon="-0.713448">
<ele>248.0</ele>
<speed>22.7</speed>
<course>125.9</course>
<desc>Speed 22.7 km/h Distance 3.21 km</desc>
<time>2011-09-29T10:03:35.35</time>
<name>488</name>
</trkpt>
<trkpt lat="41.620410" lon="-0.713387">
<ele>247.5</ele>
<speed>23.3</speed>
<course>126.5</course>
<desc>Speed 23.3 km/h Distance 3.21 km</desc>
<time>2011-09-29T10:03:36.35</time>
<name>489</name>
</trkpt>
<trkpt lat="41.620375" lon="-0.713323">
<ele>247.5</ele>
<speed>23.9</speed>
<course>127.0</course>
<desc>Speed 23.9 km/h Distance 3.22 km</desc>
<time>2011-09-29T10:03:37.35</time>
<name>490</name>
</trkpt>
<trkpt lat="41.620338" lon="-0.713258">
<ele>247.0</ele>
<speed>24.6</speed>
<course>126.3</course>
<desc>Speed 24.6 km/h Distance 3.23 km</desc>
<time>2011-09-29T10:03:38.35</time>
<name>491</name>
</trkpt>
<trkpt lat="41.620302" lon="-0.713192">
<ele>247.0</ele>
<speed>25.4</speed>
<course>126.9</course>
<desc>Speed 25.4 km/h Distance 3.23 km</desc>
<time>2011-09-29T10:03:39.35</time>
<name>492</name>
</trkpt>
<trkpt lat="41.620263" lon="-0.713123">
<ele>246.5</ele>
<speed>26.1</speed>
<course>125.6</course>
<desc>Speed 26.1 km/h Distance 3.24 km</desc>
<time>2011-09-29T10:03:40.68</time>
<name>493</name>
</trkpt>
<trkpt lat="41.620187" lon="-0.712980">
<ele>246.0</ele>
<speed>26.4</speed>
<course>126.5</course>
<desc>Speed 26.4 km/h Distance 3.25 km</desc>
<time>2011-09-29T10:03:42.34</time>
<name>494</name>
</trkpt>
<trkpt lat="41.620108" lon="-0.712838">
<ele>245.5</ele>
<speed>26.9</speed>
<course>124.4</course>
<desc>Speed 26.9 km/h Distance 3.27 km</desc>
<time>2011-09-29T10:03:44.34</time>
<name>495</name>
</trkpt>
<trkpt lat="41.620070" lon="-0.712763">
<ele>245.0</ele>
<speed>27.6</speed>
<course>126.6</course>
<desc>Speed 27.6 km/h Distance 3.28 km</desc>
<time>2011-09-29T10:03:45.34</time>
<name>496</name>
</trkpt>
<trkpt lat="41.620028" lon="-0.712688">
<ele>244.5</ele>
<speed>28.1</speed>
<course>126.6</course>
<desc>Speed 28.1 km/h Distance 3.28 km</desc>
<time>2011-09-29T10:03:46.34</time>
<name>497</name>
</trkpt>
<trkpt lat="41.619987" lon="-0.712613">
<ele>244.5</ele>
<speed>28.0</speed>
<course>126.1</course>
<desc>Speed 28.0 km/h Distance 3.29 km</desc>
<time>2011-09-29T10:03:47.34</time>
<name>498</name>
</trkpt>
<trkpt lat="41.619947" lon="-0.712540">
<ele>244.5</ele>
<speed>27.4</speed>
<course>126.7</course>
<desc>Speed 27.4 km/h Distance 3.30 km</desc>
<time>2011-09-29T10:03:48.34</time>
<name>499</name>
</trkpt>
<trkpt lat="41.619907" lon="-0.712468">
<ele>244.5</ele>
<speed>26.9</speed>
<course>125.6</course>
<desc>Speed 26.9 km/h Distance 3.31 km</desc>
<time>2011-09-29T10:03:49.34</time>
<name>500</name>
</trkpt>
<trkpt lat="41.619868" lon="-0.712397">
<ele>244.5</ele>
<speed>26.9</speed>
<course>126.7</course>
<desc>Speed 26.9 km/h Distance 3.31 km</desc>
<time>2011-09-29T10:03:50.57</time>
<name>501</name>
</trkpt>
<trkpt lat="41.619787" lon="-0.712250">
<ele>244.0</ele>
<speed>27.7</speed>
<course>127.9</course>
<desc>Speed 27.7 km/h Distance 3.33 km</desc>
<time>2011-09-29T10:03:52.34</time>
<name>502</name>
</trkpt>
<trkpt lat="41.619745" lon="-0.712178">
<ele>243.5</ele>
<speed>27.5</speed>
<course>127.3</course>
<desc>Speed 27.5 km/h Distance 3.34 km</desc>
<time>2011-09-29T10:03:53.36</time>
<name>503</name>
</trkpt>
<trkpt lat="41.619663" lon="-0.712035">
<ele>243.5</ele>
<speed>27.0</speed>
<course>125.0</course>
<desc>Speed 27.0 km/h Distance 3.35 km</desc>
<time>2011-09-29T10:03:55.33</time>
<name>504</name>
</trkpt>
<trkpt lat="41.619625" lon="-0.711962">
<ele>243.0</ele>
<speed>27.2</speed>
<course>126.7</course>
<desc>Speed 27.2 km/h Distance 3.36 km</desc>
<time>2011-09-29T10:03:56.34</time>
<name>505</name>
</trkpt>
<trkpt lat="41.619585" lon="-0.711890">
<ele>243.0</ele>
<speed>27.1</speed>
<course>126.1</course>
<desc>Speed 27.1 km/h Distance 3.37 km</desc>
<time>2011-09-29T10:03:57.33</time>
<name>506</name>
</trkpt>
<trkpt lat="41.619545" lon="-0.711817">
<ele>242.5</ele>
<speed>26.9</speed>
<course>126.7</course>
<desc>Speed 26.9 km/h Distance 3.37 km</desc>
<time>2011-09-29T10:03:58.33</time>
<name>507</name>
</trkpt>
<trkpt lat="41.619505" lon="-0.711745">
<ele>242.5</ele>
<speed>27.2</speed>
<course>127.2</course>
<desc>Speed 27.2 km/h Distance 3.38 km</desc>
<time>2011-09-29T10:03:59.33</time>
<name>508</name>
</trkpt>
<trkpt lat="41.619463" lon="-0.711672">
<ele>242.0</ele>
<speed>27.9</speed>
<course>124.3</course>
<desc>Speed 27.9 km/h Distance 3.39 km</desc>
<time>2011-09-29T10:04:00.34</time>
<name>509</name>
</trkpt>
<trkpt lat="41.619423" lon="-0.711593">
<ele>242.0</ele>
<speed>28.3</speed>
<course>126.1</course>
<desc>Speed 28.3 km/h Distance 3.40 km</desc>
<time>2011-09-29T10:04:01.33</time>
<name>510</name>
</trkpt>
<trkpt lat="41.619383" lon="-0.711520">
<ele>241.5</ele>
<speed>27.8</speed>
<course>124.4</course>
<desc>Speed 27.8 km/h Distance 3.41 km</desc>
<time>2011-09-29T10:04:02.33</time>
<name>511</name>
</trkpt>
<trkpt lat="41.619345" lon="-0.711445">
<ele>241.5</ele>
<speed>27.1</speed>
<course>126.7</course>
<desc>Speed 27.1 km/h Distance 3.41 km</desc>
<time>2011-09-29T10:04:03.34</time>
<name>512</name>
</trkpt>
<trkpt lat="41.619305" lon="-0.711373">
<ele>241.5</ele>
<speed>26.8</speed>
<course>125.6</course>
<desc>Speed 26.8 km/h Distance 3.42 km</desc>
<time>2011-09-29T10:04:04.33</time>
<name>513</name>
</trkpt>
<trkpt lat="41.619267" lon="-0.711302">
<ele>241.5</ele>
<speed>26.6</speed>
<course>126.9</course>
<desc>Speed 26.6 km/h Distance 3.43 km</desc>
<time>2011-09-29T10:04:05.33</time>
<name>514</name>
</trkpt>
<trkpt lat="41.619228" lon="-0.711233">
<ele>241.5</ele>
<speed>25.8</speed>
<course>130.6</course>
<desc>Speed 25.8 km/h Distance 3.43 km</desc>
<time>2011-09-29T10:04:06.33</time>
<name>515</name>
</trkpt>
<trkpt lat="41.619187" lon="-0.711168">
<ele>241.5</ele>
<speed>25.5</speed>
<course>128.3</course>
<desc>Speed 25.5 km/h Distance 3.44 km</desc>
<time>2011-09-29T10:04:07.33</time>
<name>516</name>
</trkpt>
<trkpt lat="41.619148" lon="-0.711103">
<ele>241.5</ele>
<speed>25.0</speed>
<course>130.9</course>
<desc>Speed 25.0 km/h Distance 3.45 km</desc>
<time>2011-09-29T10:04:08.33</time>
<name>517</name>
</trkpt>
<trkpt lat="41.619108" lon="-0.711042">
<ele>241.5</ele>
<speed>24.4</speed>
<course>126.5</course>
<desc>Speed 24.4 km/h Distance 3.46 km</desc>
<time>2011-09-29T10:04:09.33</time>
<name>518</name>
</trkpt>
<trkpt lat="41.619073" lon="-0.710978">
<ele>241.5</ele>
<speed>23.7</speed>
<course>128.0</course>
<desc>Speed 23.7 km/h Distance 3.46 km</desc>
<time>2011-09-29T10:04:10.33</time>
<name>519</name>
</trkpt>
<trkpt lat="41.619038" lon="-0.710918">
<ele>241.5</ele>
<speed>22.8</speed>
<course>126.6</course>
<desc>Speed 22.8 km/h Distance 3.47 km</desc>
<time>2011-09-29T10:04:11.33</time>
<name>520</name>
</trkpt>
<trkpt lat="41.619005" lon="-0.710858">
<ele>241.5</ele>
<speed>22.8</speed>
<course>124.7</course>
<desc>Speed 22.8 km/h Distance 3.47 km</desc>
<time>2011-09-29T10:04:12.95</time>
<name>521</name>
</trkpt>
<trkpt lat="41.618905" lon="-0.710665">
<ele>241.5</ele>
<speed>23.5</speed>
<course>125.9</course>
<desc>Speed 23.5 km/h Distance 3.49 km</desc>
<time>2011-09-29T10:04:15.32</time>
<name>522</name>
</trkpt>
<trkpt lat="41.618872" lon="-0.710603">
<ele>241.5</ele>
<speed>22.9</speed>
<course>128.7</course>
<desc>Speed 22.9 km/h Distance 3.50 km</desc>
<time>2011-09-29T10:04:16.32</time>
<name>523</name>
</trkpt>
<trkpt lat="41.618837" lon="-0.710545">
<ele>241.5</ele>
<speed>22.7</speed>
<course>128.8</course>
<desc>Speed 22.7 km/h Distance 3.51 km</desc>
<time>2011-09-29T10:04:17.32</time>
<name>524</name>
</trkpt>
<trkpt lat="41.618802" lon="-0.710487">
<ele>241.5</ele>
<speed>22.5</speed>
<course>126.6</course>
<desc>Speed 22.5 km/h Distance 3.51 km</desc>
<time>2011-09-29T10:04:18.32</time>
<name>525</name>
</trkpt>
<trkpt lat="41.618768" lon="-0.710427">
<ele>241.5</ele>
<speed>22.2</speed>
<course>126.0</course>
<desc>Speed 22.2 km/h Distance 3.52 km</desc>
<time>2011-09-29T10:04:19.32</time>
<name>526</name>
</trkpt>
<trkpt lat="41.618737" lon="-0.710368">
<ele>241.5</ele>
<speed>22.0</speed>
<course>126.6</course>
<desc>Speed 22.0 km/h Distance 3.53 km</desc>
<time>2011-09-29T10:04:20.32</time>
<name>527</name>
</trkpt>
<trkpt lat="41.618703" lon="-0.710308">
<ele>241.5</ele>
<speed>21.9</speed>
<course>123.8</course>
<desc>Speed 21.9 km/h Distance 3.53 km</desc>
<time>2011-09-29T10:04:21.32</time>
<name>528</name>
</trkpt>
<trkpt lat="41.618673" lon="-0.710248">
<ele>241.5</ele>
<speed>22.0</speed>
<course>124.9</course>
<desc>Speed 22.0 km/h Distance 3.54 km</desc>
<time>2011-09-29T10:04:22.72</time>
<name>529</name>
</trkpt>
<trkpt lat="41.618612" lon="-0.710130">
<ele>241.5</ele>
<speed>21.7</speed>
<course>123.8</course>
<desc>Speed 21.7 km/h Distance 3.55 km</desc>
<time>2011-09-29T10:04:24.32</time>
<name>530</name>
</trkpt>
<trkpt lat="41.618582" lon="-0.710070">
<ele>241.5</ele>
<speed>21.5</speed>
<course>124.5</course>
<desc>Speed 21.5 km/h Distance 3.56 km</desc>
<time>2011-09-29T10:04:25.32</time>
<name>531</name>
</trkpt>
<trkpt lat="41.618552" lon="-0.710012">
<ele>241.5</ele>
<speed>21.3</speed>
<course>126.8</course>
<desc>Speed 21.3 km/h Distance 3.56 km</desc>
<time>2011-09-29T10:04:26.31</time>
<name>532</name>
</trkpt>
<trkpt lat="41.618520" lon="-0.709955">
<ele>242.0</ele>
<speed>21.2</speed>
<course>122.2</course>
<desc>Speed 21.2 km/h Distance 3.57 km</desc>
<time>2011-09-29T10:04:27.31</time>
<name>533</name>
</trkpt>
<trkpt lat="41.618493" lon="-0.709898">
<ele>242.0</ele>
<speed>20.4</speed>
<course>118.8</course>
<desc>Speed 20.4 km/h Distance 3.57 km</desc>
<time>2011-09-29T10:04:28.31</time>
<name>534</name>
</trkpt>
<trkpt lat="41.618470" lon="-0.709842">
<ele>242.0</ele>
<speed>19.8</speed>
<course>115.3</course>
<desc>Speed 19.8 km/h Distance 3.58 km</desc>
<time>2011-09-29T10:04:29.31</time>
<name>535</name>
</trkpt>
<trkpt lat="41.618450" lon="-0.709785">
<ele>242.0</ele>
<speed>18.8</speed>
<course>114.7</course>
<desc>Speed 18.8 km/h Distance 3.58 km</desc>
<time>2011-09-29T10:04:30.32</time>
<name>536</name>
</trkpt>
<trkpt lat="41.618432" lon="-0.709732">
<ele>241.5</ele>
<speed>17.9</speed>
<course>112.5</course>
<desc>Speed 17.9 km/h Distance 3.59 km</desc>
<time>2011-09-29T10:04:31.31</time>
<name>537</name>
</trkpt>
<trkpt lat="41.618417" lon="-0.709683">
<ele>241.5</ele>
<speed>15.6</speed>
<course>140.6</course>
<desc>Speed 15.6 km/h Distance 3.59 km</desc>
<time>2011-09-29T10:04:32.50</time>
<name>538</name>
</trkpt>
<trkpt lat="41.618367" lon="-0.709628">
<ele>241.5</ele>
<speed>12.5</speed>
<course>131.7</course>
<desc>Speed 12.5 km/h Distance 3.60 km</desc>
<time>2011-09-29T10:04:34.31</time>
<name>539</name>
</trkpt>
<trkpt lat="41.618347" lon="-0.709598">
<ele>242.0</ele>
<speed>12.1</speed>
<course>129.6</course>
<desc>Speed 12.1 km/h Distance 3.60 km</desc>
<time>2011-09-29T10:04:35.31</time>
<name>540</name>
</trkpt>
<trkpt lat="41.618325" lon="-0.709563">
<ele>242.0</ele>
<speed>13.5</speed>
<course>120.3</course>
<desc>Speed 13.5 km/h Distance 3.61 km</desc>
<time>2011-09-29T10:04:36.31</time>
<name>541</name>
</trkpt>
<trkpt lat="41.618313" lon="-0.709537">
<ele>242.0</ele>
<speed>9.5</speed>
<course>116.6</course>
<desc>Speed 9.5 km/h Distance 3.61 km</desc>
<time>2011-09-29T10:04:37.31</time>
<name>542</name>
</trkpt>
<trkpt lat="41.618303" lon="-0.709510">
<ele>241.0</ele>
<speed>8.8</speed>
<course>116.6</course>
<desc>Speed 8.8 km/h Distance 3.61 km</desc>
<time>2011-09-29T10:04:38.31</time>
<name>543</name>
</trkpt>
<trkpt lat="41.618288" lon="-0.709470">
<ele>241.0</ele>
<speed>13.6</speed>
<course>110.6</course>
<desc>Speed 13.6 km/h Distance 3.62 km</desc>
<time>2011-09-29T10:04:39.46</time>
<name>544</name>
</trkpt>
<trkpt lat="41.618262" lon="-0.709375">
<ele>241.0</ele>
<speed>16.4</speed>
<course>101.5</course>
<desc>Speed 16.4 km/h Distance 3.62 km</desc>
<time>2011-09-29T10:04:41.31</time>
<name>545</name>
</trkpt>
<trkpt lat="41.618253" lon="-0.709320">
<ele>241.0</ele>
<speed>17.0</speed>
<course>106.6</course>
<desc>Speed 17.0 km/h Distance 3.63 km</desc>
<time>2011-09-29T10:04:42.30</time>
<name>546</name>
</trkpt>
<trkpt lat="41.618240" lon="-0.709260">
<ele>241.0</ele>
<speed>18.8</speed>
<course>108.0</course>
<desc>Speed 18.8 km/h Distance 3.63 km</desc>
<time>2011-09-29T10:04:43.31</time>
<name>547</name>
</trkpt>
<trkpt lat="41.618225" lon="-0.709198">
<ele>241.0</ele>
<speed>19.4</speed>
<course>116.4</course>
<desc>Speed 19.4 km/h Distance 3.64 km</desc>
<time>2011-09-29T10:04:44.31</time>
<name>548</name>
</trkpt>
<trkpt lat="41.618203" lon="-0.709140">
<ele>241.0</ele>
<speed>19.5</speed>
<course>117.8</course>
<desc>Speed 19.5 km/h Distance 3.64 km</desc>
<time>2011-09-29T10:04:45.31</time>
<name>549</name>
</trkpt>
<trkpt lat="41.618182" lon="-0.709085">
<ele>241.0</ele>
<speed>18.9</speed>
<course>115.0</course>
<desc>Speed 18.9 km/h Distance 3.65 km</desc>
<time>2011-09-29T10:04:47.17</time>
<name>550</name>
</trkpt>
<trkpt lat="41.618143" lon="-0.708975">
<ele>241.0</ele>
<speed>17.9</speed>
<course>116.0</course>
<desc>Speed 17.9 km/h Distance 3.66 km</desc>
<time>2011-09-29T10:04:49.75</time>
<name>551</name>
</trkpt>
<trkpt lat="41.618072" lon="-0.708778">
<ele>241.0</ele>
<speed>16.2</speed>
<course>117.5</course>
<desc>Speed 16.2 km/h Distance 3.68 km</desc>
<time>2011-09-29T10:04:52.54</time>
<name>552</name>
</trkpt>
<trkpt lat="41.618033" lon="-0.708680">
<ele>241.0</ele>
<speed>16.6</speed>
<course>114.8</course>
<desc>Speed 16.6 km/h Distance 3.69 km</desc>
<time>2011-09-29T10:04:54.30</time>
<name>553</name>
</trkpt>
<trkpt lat="41.618017" lon="-0.708632">
<ele>241.0</ele>
<speed>16.0</speed>
<course>114.8</course>
<desc>Speed 16.0 km/h Distance 3.69 km</desc>
<time>2011-09-29T10:04:55.30</time>
<name>554</name>
</trkpt>
<trkpt lat="41.618000" lon="-0.708583">
<ele>240.5</ele>
<speed>16.5</speed>
<course>114.7</course>
<desc>Speed 16.5 km/h Distance 3.70 km</desc>
<time>2011-09-29T10:04:56.30</time>
<name>555</name>
</trkpt>
<trkpt lat="41.617982" lon="-0.708530">
<ele>240.5</ele>
<speed>17.6</speed>
<course>112.7</course>
<desc>Speed 17.6 km/h Distance 3.70 km</desc>
<time>2011-09-29T10:04:57.29</time>
<name>556</name>
</trkpt>
<trkpt lat="41.617965" lon="-0.708477">
<ele>240.5</ele>
<speed>17.5</speed>
<course>114.7</course>
<desc>Speed 17.5 km/h Distance 3.71 km</desc>
<time>2011-09-29T10:04:58.31</time>
<name>557</name>
</trkpt>
<trkpt lat="41.617947" lon="-0.708423">
<ele>240.5</ele>
<speed>17.9</speed>
<course>114.7</course>
<desc>Speed 17.9 km/h Distance 3.71 km</desc>
<time>2011-09-29T10:04:59.64</time>
<name>558</name>
</trkpt>
<trkpt lat="41.617910" lon="-0.708317">
<ele>240.5</ele>
<speed>17.7</speed>
<course>113.3</course>
<desc>Speed 17.7 km/h Distance 3.72 km</desc>
<time>2011-09-29T10:05:01.30</time>
<name>559</name>
</trkpt>
<trkpt lat="41.617893" lon="-0.708265">
<ele>240.5</ele>
<speed>17.5</speed>
<course>115.7</course>
<desc>Speed 17.5 km/h Distance 3.73 km</desc>
<time>2011-09-29T10:05:02.44</time>
<name>560</name>
</trkpt>
<trkpt lat="41.617855" lon="-0.708158">
<ele>240.5</ele>
<speed>17.7</speed>
<course>115.4</course>
<desc>Speed 17.7 km/h Distance 3.74 km</desc>
<time>2011-09-29T10:05:04.30</time>
<name>561</name>
</trkpt>
<trkpt lat="41.617837" lon="-0.708107">
<ele>240.5</ele>
<speed>17.8</speed>
<course>114.0</course>
<desc>Speed 17.8 km/h Distance 3.74 km</desc>
<time>2011-09-29T10:05:05.29</time>
<name>562</name>
</trkpt>
<trkpt lat="41.617818" lon="-0.708052">
<ele>240.5</ele>
<speed>17.8</speed>
<course>116.6</course>
<desc>Speed 17.8 km/h Distance 3.75 km</desc>
<time>2011-09-29T10:05:06.29</time>
<name>563</name>
</trkpt>
<trkpt lat="41.617798" lon="-0.707998">
<ele>240.0</ele>
<speed>17.8</speed>
<course>110.6</course>
<desc>Speed 17.8 km/h Distance 3.75 km</desc>
<time>2011-09-29T10:05:07.29</time>
<name>564</name>
</trkpt>
<trkpt lat="41.617783" lon="-0.707945">
<ele>240.0</ele>
<speed>17.6</speed>
<course>110.0</course>
<desc>Speed 17.6 km/h Distance 3.75 km</desc>
<time>2011-09-29T10:05:08.29</time>
<name>565</name>
</trkpt>
<trkpt lat="41.617768" lon="-0.707890">
<ele>240.0</ele>
<speed>17.5</speed>
<course>117.8</course>
<desc>Speed 17.5 km/h Distance 3.76 km</desc>
<time>2011-09-29T10:05:09.68</time>
<name>566</name>
</trkpt>
<trkpt lat="41.617728" lon="-0.707788">
<ele>240.0</ele>
<speed>17.0</speed>
<course>116.1</course>
<desc>Speed 17.0 km/h Distance 3.77 km</desc>
<time>2011-09-29T10:05:11.29</time>
<name>567</name>
</trkpt>
<trkpt lat="41.617710" lon="-0.707738">
<ele>240.0</ele>
<speed>16.4</speed>
<course>116.4</course>
<desc>Speed 16.4 km/h Distance 3.77 km</desc>
<time>2011-09-29T10:05:12.50</time>
<name>568</name>
</trkpt>
<trkpt lat="41.617677" lon="-0.707648">
<ele>240.0</ele>
<speed>14.9</speed>
<course>119.1</course>
<desc>Speed 14.9 km/h Distance 3.78 km</desc>
<time>2011-09-29T10:05:14.29</time>
<name>569</name>
</trkpt>
<trkpt lat="41.617660" lon="-0.707608">
<ele>240.0</ele>
<speed>14.1</speed>
<course>117.6</course>
<desc>Speed 14.1 km/h Distance 3.79 km</desc>
<time>2011-09-29T10:05:15.29</time>
<name>570</name>
</trkpt>
<trkpt lat="41.617645" lon="-0.707570">
<ele>240.0</ele>
<speed>13.5</speed>
<course>117.6</course>
<desc>Speed 13.5 km/h Distance 3.79 km</desc>
<time>2011-09-29T10:05:16.29</time>
<name>571</name>
</trkpt>
<trkpt lat="41.617630" lon="-0.707532">
<ele>240.0</ele>
<speed>12.8</speed>
<course>117.0</course>
<desc>Speed 12.8 km/h Distance 3.79 km</desc>
<time>2011-09-29T10:05:17.28</time>
<name>572</name>
</trkpt>
<trkpt lat="41.617617" lon="-0.707497">
<ele>240.0</ele>
<speed>12.0</speed>
<course>110.9</course>
<desc>Speed 12.0 km/h Distance 3.80 km</desc>
<time>2011-09-29T10:05:18.29</time>
<name>573</name>
</trkpt>
<trkpt lat="41.617607" lon="-0.707462">
<ele>240.0</ele>
<speed>11.4</speed>
<course>111.5</course>
<desc>Speed 11.4 km/h Distance 3.80 km</desc>
<time>2011-09-29T10:05:19.55</time>
<name>574</name>
</trkpt>
<trkpt lat="41.617582" lon="-0.707377">
<ele>240.0</ele>
<speed>14.6</speed>
<course>116.4</course>
<desc>Speed 14.6 km/h Distance 3.81 km</desc>
<time>2011-09-29T10:05:21.28</time>
<name>575</name>
</trkpt>
<trkpt lat="41.617565" lon="-0.707332">
<ele>240.0</ele>
<speed>14.9</speed>
<course>116.4</course>
<desc>Speed 14.9 km/h Distance 3.81 km</desc>
<time>2011-09-29T10:05:22.35</time>
<name>576</name>
</trkpt>
<trkpt lat="41.617548" lon="-0.707287">
<ele>240.0</ele>
<speed>15.2</speed>
<course>115.5</course>
<desc>Speed 15.2 km/h Distance 3.82 km</desc>
<time>2011-09-29T10:05:23.28</time>
<name>577</name>
</trkpt>
<trkpt lat="41.617532" lon="-0.707240">
<ele>240.0</ele>
<speed>15.4</speed>
<course>111.6</course>
<desc>Speed 15.4 km/h Distance 3.82 km</desc>
<time>2011-09-29T10:05:24.29</time>
<name>578</name>
</trkpt>
<trkpt lat="41.617518" lon="-0.707195">
<ele>240.0</ele>
<speed>14.7</speed>
<course>109.1</course>
<desc>Speed 14.7 km/h Distance 3.82 km</desc>
<time>2011-09-29T10:05:25.28</time>
<name>579</name>
</trkpt>
<trkpt lat="41.617507" lon="-0.707150">
<ele>240.0</ele>
<speed>14.2</speed>
<course>114.8</course>
<desc>Speed 14.2 km/h Distance 3.83 km</desc>
<time>2011-09-29T10:05:26.28</time>
<name>580</name>
</trkpt>
<trkpt lat="41.617492" lon="-0.707107">
<ele>240.0</ele>
<speed>14.3</speed>
<course>118.6</course>
<desc>Speed 14.3 km/h Distance 3.83 km</desc>
<time>2011-09-29T10:05:27.28</time>
<name>581</name>
</trkpt>
<trkpt lat="41.617473" lon="-0.707062">
<ele>240.0</ele>
<speed>14.9</speed>
<course>118.6</course>
<desc>Speed 14.9 km/h Distance 3.84 km</desc>
<time>2011-09-29T10:05:28.28</time>
<name>582</name>
</trkpt>
<trkpt lat="41.617455" lon="-0.707017">
<ele>240.0</ele>
<speed>15.2</speed>
<course>118.6</course>
<desc>Speed 15.2 km/h Distance 3.84 km</desc>
<time>2011-09-29T10:05:29.31</time>
<name>583</name>
</trkpt>
<trkpt lat="41.617437" lon="-0.706972">
<ele>240.5</ele>
<speed>15.2</speed>
<course>117.7</course>
<desc>Speed 15.2 km/h Distance 3.84 km</desc>
<time>2011-09-29T10:05:30.28</time>
<name>584</name>
</trkpt>
<trkpt lat="41.617418" lon="-0.706925">
<ele>240.5</ele>
<speed>15.5</speed>
<course>117.7</course>
<desc>Speed 15.5 km/h Distance 3.85 km</desc>
<time>2011-09-29T10:05:31.28</time>
<name>585</name>
</trkpt>
<trkpt lat="41.617400" lon="-0.706878">
<ele>240.5</ele>
<speed>15.8</speed>
<course>119.8</course>
<desc>Speed 15.8 km/h Distance 3.85 km</desc>
<time>2011-09-29T10:05:32.28</time>
<name>586</name>
</trkpt>
<trkpt lat="41.617380" lon="-0.706832">
<ele>240.5</ele>
<speed>15.7</speed>
<course>114.8</course>
<desc>Speed 15.7 km/h Distance 3.86 km</desc>
<time>2011-09-29T10:05:33.28</time>
<name>587</name>
</trkpt>
<trkpt lat="41.617363" lon="-0.706783">
<ele>241.0</ele>
<speed>16.0</speed>
<course>119.8</course>
<desc>Speed 16.0 km/h Distance 3.86 km</desc>
<time>2011-09-29T10:05:34.28</time>
<name>588</name>
</trkpt>
<trkpt lat="41.617343" lon="-0.706737">
<ele>241.0</ele>
<speed>15.7</speed>
<course>116.9</course>
<desc>Speed 15.7 km/h Distance 3.87 km</desc>
<time>2011-09-29T10:05:35.28</time>
<name>589</name>
</trkpt>
<trkpt lat="41.617325" lon="-0.706688">
<ele>241.0</ele>
<speed>16.2</speed>
<course>118.1</course>
<desc>Speed 16.2 km/h Distance 3.87 km</desc>
<time>2011-09-29T10:05:36.27</time>
<name>590</name>
</trkpt>
<trkpt lat="41.617305" lon="-0.706638">
<ele>241.5</ele>
<speed>16.6</speed>
<course>118.2</course>
<desc>Speed 16.6 km/h Distance 3.88 km</desc>
<time>2011-09-29T10:05:37.27</time>
<name>591</name>
</trkpt>
<trkpt lat="41.617285" lon="-0.706588">
<ele>241.5</ele>
<speed>16.7</speed>
<course>112.7</course>
<desc>Speed 16.7 km/h Distance 3.88 km</desc>
<time>2011-09-29T10:05:38.27</time>
<name>592</name>
</trkpt>
<trkpt lat="41.617268" lon="-0.706535">
<ele>242.0</ele>
<speed>16.6</speed>
<course>118.1</course>
<desc>Speed 16.6 km/h Distance 3.89 km</desc>
<time>2011-09-29T10:05:39.28</time>
<name>593</name>
</trkpt>
<trkpt lat="41.617248" lon="-0.706485">
<ele>242.0</ele>
<speed>16.6</speed>
<course>114.7</course>
<desc>Speed 16.6 km/h Distance 3.89 km</desc>
<time>2011-09-29T10:05:40.27</time>
<name>594</name>
</trkpt>
<trkpt lat="41.617230" lon="-0.706432">
<ele>242.0</ele>
<speed>17.3</speed>
<course>113.7</course>
<desc>Speed 17.3 km/h Distance 3.90 km</desc>
<time>2011-09-29T10:05:41.89</time>
<name>595</name>
</trkpt>
<trkpt lat="41.617195" lon="-0.706325">
<ele>242.0</ele>
<speed>17.9</speed>
<course>112.1</course>
<desc>Speed 17.9 km/h Distance 3.90 km</desc>
<time>2011-09-29T10:05:43.27</time>
<name>596</name>
</trkpt>
<trkpt lat="41.617178" lon="-0.706270">
<ele>242.0</ele>
<speed>17.6</speed>
<course>113.4</course>
<desc>Speed 17.6 km/h Distance 3.91 km</desc>
<time>2011-09-29T10:05:44.27</time>
<name>597</name>
</trkpt>
<trkpt lat="41.617160" lon="-0.706213">
<ele>242.0</ele>
<speed>18.4</speed>
<course>110.9</course>
<desc>Speed 18.4 km/h Distance 3.91 km</desc>
<time>2011-09-29T10:05:45.27</time>
<name>598</name>
</trkpt>
<trkpt lat="41.617143" lon="-0.706155">
<ele>242.0</ele>
<speed>18.8</speed>
<course>104.6</course>
<desc>Speed 18.8 km/h Distance 3.92 km</desc>
<time>2011-09-29T10:05:46.26</time>
<name>599</name>
</trkpt>
<trkpt lat="41.617132" lon="-0.706095">
<ele>242.0</ele>
<speed>18.8</speed>
<course>102.6</course>
<desc>Speed 18.8 km/h Distance 3.93 km</desc>
<time>2011-09-29T10:05:47.26</time>
<name>600</name>
</trkpt>
<trkpt lat="41.617122" lon="-0.706035">
<ele>242.0</ele>
<speed>18.6</speed>
<course>104.6</course>
<desc>Speed 18.6 km/h Distance 3.93 km</desc>
<time>2011-09-29T10:05:48.26</time>
<name>601</name>
</trkpt>
<trkpt lat="41.617110" lon="-0.705975">
<ele>242.0</ele>
<speed>18.8</speed>
<course>104.6</course>
<desc>Speed 18.8 km/h Distance 3.94 km</desc>
<time>2011-09-29T10:05:49.26</time>
<name>602</name>
</trkpt>
<trkpt lat="41.617098" lon="-0.705915">
<ele>242.0</ele>
<speed>18.7</speed>
<course>104.6</course>
<desc>Speed 18.7 km/h Distance 3.94 km</desc>
<time>2011-09-29T10:05:50.27</time>
<name>603</name>
</trkpt>
<trkpt lat="41.617087" lon="-0.705855">
<ele>242.0</ele>
<speed>18.6</speed>
<course>102.4</course>
<desc>Speed 18.6 km/h Distance 3.95 km</desc>
<time>2011-09-29T10:05:51.71</time>
<name>604</name>
</trkpt>
<trkpt lat="41.617067" lon="-0.705733">
<ele>242.5</ele>
<speed>18.8</speed>
<course>100.5</course>
<desc>Speed 18.8 km/h Distance 3.96 km</desc>
<time>2011-09-29T10:05:53.27</time>
<name>605</name>
</trkpt>
<trkpt lat="41.617058" lon="-0.705673">
<ele>242.0</ele>
<speed>18.6</speed>
<course>104.6</course>
<desc>Speed 18.6 km/h Distance 3.96 km</desc>
<time>2011-09-29T10:05:54.26</time>
<name>606</name>
</trkpt>
<trkpt lat="41.617047" lon="-0.705613">
<ele>242.5</ele>
<speed>18.8</speed>
<course>100.5</course>
<desc>Speed 18.8 km/h Distance 3.97 km</desc>
<time>2011-09-29T10:05:55.26</time>
<name>607</name>
</trkpt>
<trkpt lat="41.617038" lon="-0.705553">
<ele>242.0</ele>
<speed>18.5</speed>
<course>102.6</course>
<desc>Speed 18.5 km/h Distance 3.97 km</desc>
<time>2011-09-29T10:05:56.26</time>
<name>608</name>
</trkpt>
<trkpt lat="41.617028" lon="-0.705493">
<ele>242.0</ele>
<speed>18.3</speed>
<course>102.6</course>
<desc>Speed 18.3 km/h Distance 3.98 km</desc>
<time>2011-09-29T10:05:57.27</time>
<name>609</name>
</trkpt>
<trkpt lat="41.617018" lon="-0.705433">
<ele>242.0</ele>
<speed>18.5</speed>
<course>102.6</course>
<desc>Speed 18.5 km/h Distance 3.98 km</desc>
<time>2011-09-29T10:05:58.27</time>
<name>610</name>
</trkpt>
<trkpt lat="41.617008" lon="-0.705373">
<ele>242.0</ele>
<speed>18.8</speed>
<course>104.2</course>
<desc>Speed 18.8 km/h Distance 3.99 km</desc>
<time>2011-09-29T10:05:59.26</time>
<name>611</name>
</trkpt>
<trkpt lat="41.616997" lon="-0.705312">
<ele>242.0</ele>
<speed>18.9</speed>
<course>104.2</course>
<desc>Speed 18.9 km/h Distance 3.99 km</desc>
<time>2011-09-29T10:06:00.26</time>
<name>612</name>
</trkpt>
<trkpt lat="41.616985" lon="-0.705250">
<ele>242.5</ele>
<speed>19.0</speed>
<course>103.2</course>
<desc>Speed 19.0 km/h Distance 4.00 km</desc>
<time>2011-09-29T10:06:01.47</time>
<name>613</name>
</trkpt>
<trkpt lat="41.616963" lon="-0.705127">
<ele>242.5</ele>
<speed>19.2</speed>
<course>101.9</course>
<desc>Speed 19.2 km/h Distance 4.01 km</desc>
<time>2011-09-29T10:06:03.26</time>
<name>614</name>
</trkpt>
<trkpt lat="41.616953" lon="-0.705063">
<ele>242.5</ele>
<speed>19.3</speed>
<course>101.9</course>
<desc>Speed 19.3 km/h Distance 4.01 km</desc>
<time>2011-09-29T10:06:04.25</time>
<name>615</name>
</trkpt>
<trkpt lat="41.616943" lon="-0.705000">
<ele>243.0</ele>
<speed>19.4</speed>
<course>100.0</course>
<desc>Speed 19.4 km/h Distance 4.02 km</desc>
<time>2011-09-29T10:06:05.25</time>
<name>616</name>
</trkpt>
<trkpt lat="41.616935" lon="-0.704937">
<ele>243.0</ele>
<speed>19.4</speed>
<course>99.7</course>
<desc>Speed 19.4 km/h Distance 4.02 km</desc>
<time>2011-09-29T10:06:06.25</time>
<name>617</name>
</trkpt>
<trkpt lat="41.616927" lon="-0.704872">
<ele>243.0</ele>
<speed>19.9</speed>
<course>107.6</course>
<desc>Speed 19.9 km/h Distance 4.03 km</desc>
<time>2011-09-29T10:06:07.25</time>
<name>618</name>
</trkpt>
<trkpt lat="41.616912" lon="-0.704808">
<ele>243.0</ele>
<speed>19.8</speed>
<course>104.6</course>
<desc>Speed 19.8 km/h Distance 4.04 km</desc>
<time>2011-09-29T10:06:08.43</time>
<name>619</name>
</trkpt>
<trkpt lat="41.616887" lon="-0.704680">
<ele>243.5</ele>
<speed>20.1</speed>
<course>108.0</course>
<desc>Speed 20.1 km/h Distance 4.05 km</desc>
<time>2011-09-29T10:06:10.25</time>
<name>620</name>
</trkpt>
<trkpt lat="41.616872" lon="-0.704618">
<ele>243.0</ele>
<speed>19.5</speed>
<course>109.9</course>
<desc>Speed 19.5 km/h Distance 4.05 km</desc>
<time>2011-09-29T10:06:11.28</time>
<name>621</name>
</trkpt>
<trkpt lat="41.616855" lon="-0.704557">
<ele>243.5</ele>
<speed>19.9</speed>
<course>111.7</course>
<desc>Speed 19.9 km/h Distance 4.06 km</desc>
<time>2011-09-29T10:06:12.25</time>
<name>622</name>
</trkpt>
<trkpt lat="41.616837" lon="-0.704495">
<ele>243.5</ele>
<speed>19.8</speed>
<course>108.0</course>
<desc>Speed 19.8 km/h Distance 4.06 km</desc>
<time>2011-09-29T10:06:13.25</time>
<name>623</name>
</trkpt>
<trkpt lat="41.616822" lon="-0.704433">
<ele>243.5</ele>
<speed>19.3</speed>
<course>110.4</course>
<desc>Speed 19.3 km/h Distance 4.07 km</desc>
<time>2011-09-29T10:06:14.25</time>
<name>624</name>
</trkpt>
<trkpt lat="41.616805" lon="-0.704373">
<ele>243.5</ele>
<speed>19.4</speed>
<course>112.2</course>
<desc>Speed 19.4 km/h Distance 4.07 km</desc>
<time>2011-09-29T10:06:15.24</time>
<name>625</name>
</trkpt>
<trkpt lat="41.616787" lon="-0.704313">
<ele>243.5</ele>
<speed>19.4</speed>
<course>112.2</course>
<desc>Speed 19.4 km/h Distance 4.08 km</desc>
<time>2011-09-29T10:06:16.24</time>
<name>626</name>
</trkpt>
<trkpt lat="41.616768" lon="-0.704253">
<ele>244.0</ele>
<speed>19.4</speed>
<course>101.9</course>
<desc>Speed 19.4 km/h Distance 4.08 km</desc>
<time>2011-09-29T10:06:17.24</time>
<name>627</name>
</trkpt>
<trkpt lat="41.616758" lon="-0.704190">
<ele>244.0</ele>
<speed>19.5</speed>
<course>119.1</course>
<desc>Speed 19.5 km/h Distance 4.09 km</desc>
<time>2011-09-29T10:06:18.28</time>
<name>628</name>
</trkpt>
<trkpt lat="41.616733" lon="-0.704130">
<ele>244.0</ele>
<speed>20.5</speed>
<course>108.0</course>
<desc>Speed 20.5 km/h Distance 4.10 km</desc>
<time>2011-09-29T10:06:19.25</time>
<name>629</name>
</trkpt>
<trkpt lat="41.616718" lon="-0.704068">
<ele>244.5</ele>
<speed>19.6</speed>
<course>105.7</course>
<desc>Speed 19.6 km/h Distance 4.10 km</desc>
<time>2011-09-29T10:06:20.24</time>
<name>630</name>
</trkpt>
<trkpt lat="41.616705" lon="-0.704005">
<ele>244.5</ele>
<speed>19.5</speed>
<course>112.2</course>
<desc>Speed 19.5 km/h Distance 4.11 km</desc>
<time>2011-09-29T10:06:21.25</time>
<name>631</name>
</trkpt>
<trkpt lat="41.616687" lon="-0.703945">
<ele>244.5</ele>
<speed>19.3</speed>
<course>112.2</course>
<desc>Speed 19.3 km/h Distance 4.11 km</desc>
<time>2011-09-29T10:06:22.24</time>
<name>632</name>
</trkpt>
<trkpt lat="41.616668" lon="-0.703885">
<ele>245.0</ele>
<speed>19.2</speed>
<course>115.3</course>
<desc>Speed 19.2 km/h Distance 4.12 km</desc>
<time>2011-09-29T10:06:23.24</time>
<name>633</name>
</trkpt>
<trkpt lat="41.616648" lon="-0.703828">
<ele>245.0</ele>
<speed>19.0</speed>
<course>118.8</course>
<desc>Speed 19.0 km/h Distance 4.12 km</desc>
<time>2011-09-29T10:06:24.24</time>
<name>634</name>
</trkpt>
<trkpt lat="41.616625" lon="-0.703772">
<ele>245.0</ele>
<speed>19.4</speed>
<course>116.4</course>
<desc>Speed 19.4 km/h Distance 4.13 km</desc>
<time>2011-09-29T10:06:25.24</time>
<name>635</name>
</trkpt>
<trkpt lat="41.616603" lon="-0.703713">
<ele>245.0</ele>
<speed>19.6</speed>
<course>114.6</course>
<desc>Speed 19.6 km/h Distance 4.13 km</desc>
<time>2011-09-29T10:06:26.24</time>
<name>636</name>
</trkpt>
<trkpt lat="41.616583" lon="-0.703655">
<ele>245.0</ele>
<speed>19.3</speed>
<course>111.7</course>
<desc>Speed 19.3 km/h Distance 4.14 km</desc>
<time>2011-09-29T10:06:27.23</time>
<name>637</name>
</trkpt>
<trkpt lat="41.616565" lon="-0.703593">
<ele>245.0</ele>
<speed>19.9</speed>
<course>107.6</course>
<desc>Speed 19.9 km/h Distance 4.14 km</desc>
<time>2011-09-29T10:06:28.24</time>
<name>638</name>
</trkpt>
<trkpt lat="41.616550" lon="-0.703530">
<ele>245.5</ele>
<speed>20.0</speed>
<course>111.7</course>
<desc>Speed 20.0 km/h Distance 4.15 km</desc>
<time>2011-09-29T10:06:29.23</time>
<name>639</name>
</trkpt>
<trkpt lat="41.616532" lon="-0.703468">
<ele>245.0</ele>
<speed>19.9</speed>
<course>111.7</course>
<desc>Speed 19.9 km/h Distance 4.15 km</desc>
<time>2011-09-29T10:06:30.92</time>
<name>640</name>
</trkpt>
<trkpt lat="41.616477" lon="-0.703283">
<ele>246.0</ele>
<speed>19.6</speed>
<course>109.9</course>
<desc>Speed 19.6 km/h Distance 4.17 km</desc>
<time>2011-09-29T10:06:33.23</time>
<name>641</name>
</trkpt>
<trkpt lat="41.616460" lon="-0.703222">
<ele>246.0</ele>
<speed>19.8</speed>
<course>111.7</course>
<desc>Speed 19.8 km/h Distance 4.18 km</desc>
<time>2011-09-29T10:06:34.24</time>
<name>642</name>
</trkpt>
<trkpt lat="41.616442" lon="-0.703160">
<ele>246.0</ele>
<speed>20.1</speed>
<course>109.4</course>
<desc>Speed 20.1 km/h Distance 4.18 km</desc>
<time>2011-09-29T10:06:35.23</time>
<name>643</name>
</trkpt>
<trkpt lat="41.616425" lon="-0.703097">
<ele>246.0</ele>
<speed>20.1</speed>
<course>119.6</course>
<desc>Speed 20.1 km/h Distance 4.19 km</desc>
<time>2011-09-29T10:06:36.24</time>
<name>644</name>
</trkpt>
<trkpt lat="41.616402" lon="-0.703042">
<ele>245.0</ele>
<speed>19.0</speed>
<course>111.7</course>
<desc>Speed 19.0 km/h Distance 4.19 km</desc>
<time>2011-09-29T10:06:37.24</time>
<name>645</name>
</trkpt>
<trkpt lat="41.616383" lon="-0.702980">
<ele>245.0</ele>
<speed>19.7</speed>
<course>112.2</course>
<desc>Speed 19.7 km/h Distance 4.20 km</desc>
<time>2011-09-29T10:06:38.24</time>
<name>646</name>
</trkpt>
<trkpt lat="41.616365" lon="-0.702920">
<ele>245.0</ele>
<speed>19.6</speed>
<course>112.2</course>
<desc>Speed 19.6 km/h Distance 4.20 km</desc>
<time>2011-09-29T10:06:39.24</time>
<name>647</name>
</trkpt>
<trkpt lat="41.616347" lon="-0.702860">
<ele>245.0</ele>
<speed>19.7</speed>
<course>108.7</course>
<desc>Speed 19.7 km/h Distance 4.21 km</desc>
<time>2011-09-29T10:06:40.67</time>
<name>648</name>
</trkpt>
<trkpt lat="41.616315" lon="-0.702735">
<ele>245.5</ele>
<speed>19.9</speed>
<course>111.2</course>
<desc>Speed 19.9 km/h Distance 4.22 km</desc>
<time>2011-09-29T10:06:42.24</time>
<name>649</name>
</trkpt>
<trkpt lat="41.616297" lon="-0.702672">
<ele>245.5</ele>
<speed>20.3</speed>
<course>108.9</course>
<desc>Speed 20.3 km/h Distance 4.23 km</desc>
<time>2011-09-29T10:06:43.24</time>
<name>650</name>
</trkpt>
<trkpt lat="41.616280" lon="-0.702607">
<ele>245.5</ele>
<speed>20.1</speed>
<course>111.2</course>
<desc>Speed 20.1 km/h Distance 4.23 km</desc>
<time>2011-09-29T10:06:44.24</time>
<name>651</name>
</trkpt>
<trkpt lat="41.616262" lon="-0.702543">
<ele>246.0</ele>
<speed>20.1</speed>
<course>107.6</course>
<desc>Speed 20.1 km/h Distance 4.24 km</desc>
<time>2011-09-29T10:06:45.24</time>
<name>652</name>
</trkpt>
<trkpt lat="41.616247" lon="-0.702480">
<ele>246.0</ele>
<speed>20.0</speed>
<course>112.4</course>
<desc>Speed 20.0 km/h Distance 4.24 km</desc>
<time>2011-09-29T10:06:46.24</time>
<name>653</name>
</trkpt>
<trkpt lat="41.616227" lon="-0.702415">
<ele>246.5</ele>
<speed>21.3</speed>
<course>107.6</course>
<desc>Speed 21.3 km/h Distance 4.25 km</desc>
<time>2011-09-29T10:06:47.24</time>
<name>654</name>
</trkpt>
<trkpt lat="41.616212" lon="-0.702352">
<ele>247.0</ele>
<speed>20.1</speed>
<course>105.7</course>
<desc>Speed 20.1 km/h Distance 4.25 km</desc>
<time>2011-09-29T10:06:48.23</time>
<name>655</name>
</trkpt>
<trkpt lat="41.616198" lon="-0.702288">
<ele>247.0</ele>
<speed>19.8</speed>
<course>101.9</course>
<desc>Speed 19.8 km/h Distance 4.26 km</desc>
<time>2011-09-29T10:06:49.24</time>
<name>656</name>
</trkpt>
<trkpt lat="41.616188" lon="-0.702225">
<ele>246.5</ele>
<speed>19.4</speed>
<course>100.7</course>
<desc>Speed 19.4 km/h Distance 4.27 km</desc>
<time>2011-09-29T10:06:50.48</time>
<name>657</name>
</trkpt>
<trkpt lat="41.616170" lon="-0.702095">
<ele>246.5</ele>
<speed>20.1</speed>
<course>99.3</course>
<desc>Speed 20.1 km/h Distance 4.28 km</desc>
<time>2011-09-29T10:06:52.23</time>
<name>658</name>
</trkpt>
<trkpt lat="41.616162" lon="-0.702027">
<ele>246.5</ele>
<speed>20.4</speed>
<course>103.2</course>
<desc>Speed 20.4 km/h Distance 4.28 km</desc>
<time>2011-09-29T10:06:53.23</time>
<name>659</name>
</trkpt>
<trkpt lat="41.616150" lon="-0.701960">
<ele>246.0</ele>
<speed>21.0</speed>
<course>102.9</course>
<desc>Speed 21.0 km/h Distance 4.29 km</desc>
<time>2011-09-29T10:06:54.23</time>
<name>660</name>
</trkpt>
<trkpt lat="41.616138" lon="-0.701892">
<ele>246.0</ele>
<speed>21.1</speed>
<course>99.0</course>
<desc>Speed 21.1 km/h Distance 4.29 km</desc>
<time>2011-09-29T10:06:55.24</time>
<name>661</name>
</trkpt>
<trkpt lat="41.616130" lon="-0.701822">
<ele>246.0</ele>
<speed>21.4</speed>
<course>97.4</course>
<desc>Speed 21.4 km/h Distance 4.30 km</desc>
<time>2011-09-29T10:06:56.23</time>
<name>662</name>
</trkpt>
<trkpt lat="41.616123" lon="-0.701753">
<ele>245.5</ele>
<speed>20.8</speed>
<course>93.9</course>
<desc>Speed 20.8 km/h Distance 4.31 km</desc>
<time>2011-09-29T10:06:57.50</time>
<name>663</name>
</trkpt>
<trkpt lat="41.616117" lon="-0.701623">
<ele>245.0</ele>
<speed>19.3</speed>
<course>83.8</course>
<desc>Speed 19.3 km/h Distance 4.32 km</desc>
<time>2011-09-29T10:06:59.22</time>
<name>664</name>
</trkpt>
<trkpt lat="41.616122" lon="-0.701562">
<ele>244.5</ele>
<speed>18.9</speed>
<course>82.0</course>
<desc>Speed 18.9 km/h Distance 4.32 km</desc>
<time>2011-09-29T10:07:00.31</time>
<name>665</name>
</trkpt>
<trkpt lat="41.616128" lon="-0.701498">
<ele>244.5</ele>
<speed>19.3</speed>
<course>80.0</course>
<desc>Speed 19.3 km/h Distance 4.33 km</desc>
<time>2011-09-29T10:07:01.23</time>
<name>666</name>
</trkpt>
<trkpt lat="41.616137" lon="-0.701435">
<ele>244.5</ele>
<speed>19.2</speed>
<course>72.0</course>
<desc>Speed 19.2 km/h Distance 4.33 km</desc>
<time>2011-09-29T10:07:02.22</time>
<name>667</name>
</trkpt>
<trkpt lat="41.616152" lon="-0.701373">
<ele>244.5</ele>
<speed>19.3</speed>
<course>69.6</course>
<desc>Speed 19.3 km/h Distance 4.34 km</desc>
<time>2011-09-29T10:07:03.22</time>
<name>668</name>
</trkpt>
<trkpt lat="41.616168" lon="-0.701313">
<ele>244.5</ele>
<speed>19.7</speed>
<course>66.0</course>
<desc>Speed 19.7 km/h Distance 4.34 km</desc>
<time>2011-09-29T10:07:04.22</time>
<name>669</name>
</trkpt>
<trkpt lat="41.616188" lon="-0.701253">
<ele>245.0</ele>
<speed>18.9</speed>
<course>58.0</course>
<desc>Speed 18.9 km/h Distance 4.35 km</desc>
<time>2011-09-29T10:07:05.22</time>
<name>670</name>
</trkpt>
<trkpt lat="41.616212" lon="-0.701203">
<ele>245.5</ele>
<speed>17.5</speed>
<course>66.5</course>
<desc>Speed 17.5 km/h Distance 4.35 km</desc>
<time>2011-09-29T10:07:06.22</time>
<name>671</name>
</trkpt>
<trkpt lat="41.616233" lon="-0.701137">
<ele>245.0</ele>
<speed>21.0</speed>
<course>100.5</course>
<desc>Speed 21.0 km/h Distance 4.36 km</desc>
<time>2011-09-29T10:07:07.25</time>
<name>672</name>
</trkpt>
<trkpt lat="41.616225" lon="-0.701077">
<ele>246.5</ele>
<speed>18.2</speed>
<course>86.2</course>
<desc>Speed 18.2 km/h Distance 4.36 km</desc>
<time>2011-09-29T10:07:08.22</time>
<name>673</name>
</trkpt>
<trkpt lat="41.616228" lon="-0.701010">
<ele>246.5</ele>
<speed>19.2</speed>
<course>90.0</course>
<desc>Speed 19.2 km/h Distance 4.37 km</desc>
<time>2011-09-29T10:07:09.22</time>
<name>674</name>
</trkpt>
<trkpt lat="41.616228" lon="-0.700947">
<ele>246.5</ele>
<speed>19.0</speed>
<course>113.3</course>
<desc>Speed 19.0 km/h Distance 4.38 km</desc>
<time>2011-09-29T10:07:10.22</time>
<name>675</name>
</trkpt>
<trkpt lat="41.616213" lon="-0.700900">
<ele>246.5</ele>
<speed>15.1</speed>
<course>63.4</course>
<desc>Speed 15.1 km/h Distance 4.38 km</desc>
<time>2011-09-29T10:07:11.21</time>
<name>676</name>
</trkpt>
<trkpt lat="41.616223" lon="-0.700873">
<ele>246.5</ele>
<speed>9.2</speed>
<course>44.3</course>
<desc>Speed 9.2 km/h Distance 4.38 km</desc>
<time>2011-09-29T10:07:12.22</time>
<name>677</name>
</trkpt>
<trkpt lat="41.616283" lon="-0.700795">
<ele>249.0</ele>
<speed>17.7</speed>
<course>52.8</course>
<desc>Speed 17.7 km/h Distance 4.39 km</desc>
<time>2011-09-29T10:07:14.22</time>
<name>678</name>
</trkpt>
<trkpt lat="41.616312" lon="-0.700745">
<ele>249.0</ele>
<speed>17.7</speed>
<course>61.2</course>
<desc>Speed 17.7 km/h Distance 4.40 km</desc>
<time>2011-09-29T10:07:15.22</time>
<name>679</name>
</trkpt>
<trkpt lat="41.616335" lon="-0.700688">
<ele>250.0</ele>
<speed>17.7</speed>
<course>52.4</course>
<desc>Speed 17.7 km/h Distance 4.40 km</desc>
<time>2011-09-29T10:07:16.22</time>
<name>680</name>
</trkpt>
<trkpt lat="41.616367" lon="-0.700633">
<ele>250.5</ele>
<speed>17.0</speed>
<course>57.1</course>
<desc>Speed 17.0 km/h Distance 4.41 km</desc>
<time>2011-09-29T10:07:17.22</time>
<name>681</name>
</trkpt>
<trkpt lat="41.616392" lon="-0.700582">
<ele>250.5</ele>
<speed>16.5</speed>
<course>55.3</course>
<desc>Speed 16.5 km/h Distance 4.41 km</desc>
<time>2011-09-29T10:07:18.21</time>
<name>682</name>
</trkpt>
<trkpt lat="41.616417" lon="-0.700533">
<ele>251.0</ele>
<speed>16.0</speed>
<course>53.8</course>
<desc>Speed 16.0 km/h Distance 4.42 km</desc>
<time>2011-09-29T10:07:19.78</time>
<name>683</name>
</trkpt>
<trkpt lat="41.616465" lon="-0.700445">
<ele>251.0</ele>
<speed>14.5</speed>
<course>45.3</course>
<desc>Speed 14.5 km/h Distance 4.43 km</desc>
<time>2011-09-29T10:07:21.20</time>
<name>684</name>
</trkpt>
<trkpt lat="41.616493" lon="-0.700407">
<ele>251.0</ele>
<speed>14.8</speed>
<course>48.3</course>
<desc>Speed 14.8 km/h Distance 4.43 km</desc>
<time>2011-09-29T10:07:22.20</time>
<name>685</name>
</trkpt>
<trkpt lat="41.616520" lon="-0.700367">
<ele>251.0</ele>
<speed>15.6</speed>
<course>46.5</course>
<desc>Speed 15.6 km/h Distance 4.44 km</desc>
<time>2011-09-29T10:07:23.20</time>
<name>686</name>
</trkpt>
<trkpt lat="41.616548" lon="-0.700327">
<ele>251.5</ele>
<speed>16.2</speed>
<course>41.9</course>
<desc>Speed 16.2 km/h Distance 4.44 km</desc>
<time>2011-09-29T10:07:24.20</time>
<name>687</name>
</trkpt>
<trkpt lat="41.616582" lon="-0.700287">
<ele>251.5</ele>
<speed>17.2</speed>
<course>40.4</course>
<desc>Speed 17.2 km/h Distance 4.45 km</desc>
<time>2011-09-29T10:07:25.20</time>
<name>688</name>
</trkpt>
<trkpt lat="41.616618" lon="-0.700245">
<ele>251.0</ele>
<speed>18.5</speed>
<course>41.3</course>
<desc>Speed 18.5 km/h Distance 4.45 km</desc>
<time>2011-09-29T10:07:26.20</time>
<name>689</name>
</trkpt>
<trkpt lat="41.616657" lon="-0.700200">
<ele>251.0</ele>
<speed>20.3</speed>
<course>41.9</course>
<desc>Speed 20.3 km/h Distance 4.46 km</desc>
<time>2011-09-29T10:07:27.20</time>
<name>690</name>
</trkpt>
<trkpt lat="41.616698" lon="-0.700150">
<ele>250.5</ele>
<speed>21.9</speed>
<course>41.7</course>
<desc>Speed 21.9 km/h Distance 4.46 km</desc>
<time>2011-09-29T10:07:28.20</time>
<name>691</name>
</trkpt>
<trkpt lat="41.616742" lon="-0.700098">
<ele>250.5</ele>
<speed>22.7</speed>
<course>35.3</course>
<desc>Speed 22.7 km/h Distance 4.47 km</desc>
<time>2011-09-29T10:07:29.53</time>
<name>692</name>
</trkpt>
<trkpt lat="41.616835" lon="-0.700010">
<ele>251.0</ele>
<speed>22.8</speed>
<course>31.6</course>
<desc>Speed 22.8 km/h Distance 4.48 km</desc>
<time>2011-09-29T10:07:31.19</time>
<name>693</name>
</trkpt>
<trkpt lat="41.616882" lon="-0.699972">
<ele>251.0</ele>
<speed>21.7</speed>
<course>30.2</course>
<desc>Speed 21.7 km/h Distance 4.49 km</desc>
<time>2011-09-29T10:07:32.19</time>
<name>694</name>
</trkpt>
<trkpt lat="41.616927" lon="-0.699937">
<ele>251.0</ele>
<speed>21.0</speed>
<course>29.0</course>
<desc>Speed 21.0 km/h Distance 4.49 km</desc>
<time>2011-09-29T10:07:33.19</time>
<name>695</name>
</trkpt>
<trkpt lat="41.616972" lon="-0.699903">
<ele>251.0</ele>
<speed>20.1</speed>
<course>27.4</course>
<desc>Speed 20.1 km/h Distance 4.50 km</desc>
<time>2011-09-29T10:07:34.21</time>
<name>696</name>
</trkpt>
<trkpt lat="41.617015" lon="-0.699873">
<ele>251.0</ele>
<speed>19.9</speed>
<course>24.4</course>
<desc>Speed 19.9 km/h Distance 4.50 km</desc>
<time>2011-09-29T10:07:35.20</time>
<name>697</name>
</trkpt>
<trkpt lat="41.617062" lon="-0.699845">
<ele>251.5</ele>
<speed>20.1</speed>
<course>27.3</course>
<desc>Speed 20.1 km/h Distance 4.51 km</desc>
<time>2011-09-29T10:07:36.46</time>
<name>698</name>
</trkpt>
<trkpt lat="41.617153" lon="-0.699782">
<ele>251.5</ele>
<speed>20.4</speed>
<course>21.7</course>
<desc>Speed 20.4 km/h Distance 4.52 km</desc>
<time>2011-09-29T10:07:38.19</time>
<name>699</name>
</trkpt>
<trkpt lat="41.617203" lon="-0.699755">
<ele>252.0</ele>
<speed>20.7</speed>
<course>18.6</course>
<desc>Speed 20.7 km/h Distance 4.53 km</desc>
<time>2011-09-29T10:07:39.36</time>
<name>700</name>
</trkpt>
<trkpt lat="41.617252" lon="-0.699733">
<ele>252.0</ele>
<speed>20.6</speed>
<course>16.7</course>
<desc>Speed 20.6 km/h Distance 4.53 km</desc>
<time>2011-09-29T10:07:40.19</time>
<name>701</name>
</trkpt>
<trkpt lat="41.617302" lon="-0.699713">
<ele>252.0</ele>
<speed>20.7</speed>
<course>20.5</course>
<desc>Speed 20.7 km/h Distance 4.54 km</desc>
<time>2011-09-29T10:07:41.19</time>
<name>702</name>
</trkpt>
<trkpt lat="41.617352" lon="-0.699688">
<ele>252.0</ele>
<speed>20.7</speed>
<course>16.6</course>
<desc>Speed 20.7 km/h Distance 4.55 km</desc>
<time>2011-09-29T10:07:42.19</time>
<name>703</name>
</trkpt>
<trkpt lat="41.617402" lon="-0.699668">
<ele>252.5</ele>
<speed>19.9</speed>
<course>14.0</course>
<desc>Speed 19.9 km/h Distance 4.55 km</desc>
<time>2011-09-29T10:07:43.19</time>
<name>704</name>
</trkpt>
<trkpt lat="41.617452" lon="-0.699652">
<ele>252.5</ele>
<speed>20.1</speed>
<course>19.1</course>
<desc>Speed 20.1 km/h Distance 4.56 km</desc>
<time>2011-09-29T10:07:44.19</time>
<name>705</name>
</trkpt>
<trkpt lat="41.617498" lon="-0.699630">
<ele>252.5</ele>
<speed>19.8</speed>
<course>19.8</course>
<desc>Speed 19.8 km/h Distance 4.56 km</desc>
<time>2011-09-29T10:07:45.18</time>
<name>706</name>
</trkpt>
<trkpt lat="41.617547" lon="-0.699607">
<ele>252.5</ele>
<speed>20.3</speed>
<course>18.5</course>
<desc>Speed 20.3 km/h Distance 4.57 km</desc>
<time>2011-09-29T10:07:46.32</time>
<name>707</name>
</trkpt>
<trkpt lat="41.617595" lon="-0.699585">
<ele>252.5</ele>
<speed>20.3</speed>
<course>18.6</course>
<desc>Speed 20.3 km/h Distance 4.57 km</desc>
<time>2011-09-29T10:07:47.18</time>
<name>708</name>
</trkpt>
<trkpt lat="41.617643" lon="-0.699563">
<ele>252.5</ele>
<speed>20.2</speed>
<course>15.8</course>
<desc>Speed 20.2 km/h Distance 4.58 km</desc>
<time>2011-09-29T10:07:48.18</time>
<name>709</name>
</trkpt>
<trkpt lat="41.617692" lon="-0.699545">
<ele>253.0</ele>
<speed>20.3</speed>
<course>16.6</course>
<desc>Speed 20.3 km/h Distance 4.58 km</desc>
<time>2011-09-29T10:07:49.25</time>
<name>710</name>
</trkpt>
<trkpt lat="41.617742" lon="-0.699525">
<ele>253.0</ele>
<speed>20.2</speed>
<course>19.2</course>
<desc>Speed 20.2 km/h Distance 4.59 km</desc>
<time>2011-09-29T10:07:50.20</time>
<name>711</name>
</trkpt>
<trkpt lat="41.617792" lon="-0.699502">
<ele>253.0</ele>
<speed>20.5</speed>
<course>14.5</course>
<desc>Speed 20.5 km/h Distance 4.60 km</desc>
<time>2011-09-29T10:07:51.18</time>
<name>712</name>
</trkpt>
<trkpt lat="41.617840" lon="-0.699485">
<ele>253.0</ele>
<speed>19.7</speed>
<course>14.5</course>
<desc>Speed 19.7 km/h Distance 4.60 km</desc>
<time>2011-09-29T10:07:52.17</time>
<name>713</name>
</trkpt>
<trkpt lat="41.617888" lon="-0.699468">
<ele>253.0</ele>
<speed>19.7</speed>
<course>9.9</course>
<desc>Speed 19.7 km/h Distance 4.61 km</desc>
<time>2011-09-29T10:07:53.18</time>
<name>714</name>
</trkpt>
<trkpt lat="41.617938" lon="-0.699457">
<ele>253.0</ele>
<speed>19.9</speed>
<course>10.0</course>
<desc>Speed 19.9 km/h Distance 4.61 km</desc>
<time>2011-09-29T10:07:54.18</time>
<name>715</name>
</trkpt>
<trkpt lat="41.617988" lon="-0.699445">
<ele>252.5</ele>
<speed>20.2</speed>
<course>8.2</course>
<desc>Speed 20.2 km/h Distance 4.62 km</desc>
<time>2011-09-29T10:07:55.18</time>
<name>716</name>
</trkpt>
<trkpt lat="41.618040" lon="-0.699435">
<ele>252.5</ele>
<speed>20.1</speed>
<course>8.7</course>
<desc>Speed 20.1 km/h Distance 4.62 km</desc>
<time>2011-09-29T10:07:56.17</time>
<name>717</name>
</trkpt>
<trkpt lat="41.618088" lon="-0.699425">
<ele>252.5</ele>
<speed>19.6</speed>
<course>4.2</course>
<desc>Speed 19.6 km/h Distance 4.63 km</desc>
<time>2011-09-29T10:07:57.18</time>
<name>718</name>
</trkpt>
<trkpt lat="41.618138" lon="-0.699420">
<ele>252.5</ele>
<speed>19.9</speed>
<course>5.6</course>
<desc>Speed 19.9 km/h Distance 4.64 km</desc>
<time>2011-09-29T10:07:58.98</time>
<name>719</name>
</trkpt>
<trkpt lat="41.618290" lon="-0.699400">
<ele>252.0</ele>
<speed>19.8</speed>
<course>2.8</course>
<desc>Speed 19.8 km/h Distance 4.65 km</desc>
<time>2011-09-29T10:08:01.18</time>
<name>720</name>
</trkpt>
<trkpt lat="41.618340" lon="-0.699397">
<ele>252.0</ele>
<speed>19.9</speed>
<course>0.5</course>
<desc>Speed 19.9 km/h Distance 4.66 km</desc>
<time>2011-09-29T10:08:02.17</time>
<name>721</name>
</trkpt>
<trkpt lat="41.618390" lon="-0.699397">
<ele>251.5</ele>
<speed>20.1</speed>
<course>5.5</course>
<desc>Speed 20.1 km/h Distance 4.66 km</desc>
<time>2011-09-29T10:08:03.17</time>
<name>722</name>
</trkpt>
<trkpt lat="41.618442" lon="-0.699390">
<ele>251.5</ele>
<speed>20.1</speed>
<course>2.6</course>
<desc>Speed 20.1 km/h Distance 4.67 km</desc>
<time>2011-09-29T10:08:04.17</time>
<name>723</name>
</trkpt>
<trkpt lat="41.618492" lon="-0.699387">
<ele>251.5</ele>
<speed>19.9</speed>
<course>2.6</course>
<desc>Speed 19.9 km/h Distance 4.68 km</desc>
<time>2011-09-29T10:08:05.16</time>
<name>724</name>
</trkpt>
<trkpt lat="41.618542" lon="-0.699383">
<ele>251.5</ele>
<speed>19.8</speed>
<course>358.9</course>
<desc>Speed 19.8 km/h Distance 4.68 km</desc>
<time>2011-09-29T10:08:06.16</time>
<name>725</name>
</trkpt>
<trkpt lat="41.618592" lon="-0.699385">
<ele>251.5</ele>
<speed>19.9</speed>
<course>2.6</course>
<desc>Speed 19.9 km/h Distance 4.69 km</desc>
<time>2011-09-29T10:08:07.16</time>
<name>726</name>
</trkpt>
<trkpt lat="41.618642" lon="-0.699382">
<ele>251.0</ele>
<speed>20.1</speed>
<course>2.0</course>
<desc>Speed 20.1 km/h Distance 4.69 km</desc>
<time>2011-09-29T10:08:08.73</time>
<name>727</name>
</trkpt>
<trkpt lat="41.618745" lon="-0.699377">
<ele>251.0</ele>
<speed>20.5</speed>
<course>0.0</course>
<desc>Speed 20.5 km/h Distance 4.70 km</desc>
<time>2011-09-29T10:08:10.19</time>
<name>728</name>
</trkpt>
<trkpt lat="41.618798" lon="-0.699377">
<ele>251.0</ele>
<speed>20.6</speed>
<course>358.7</course>
<desc>Speed 20.6 km/h Distance 4.71 km</desc>
<time>2011-09-29T10:08:11.16</time>
<name>729</name>
</trkpt>
<trkpt lat="41.618850" lon="-0.699378">
<ele>251.0</ele>
<speed>20.6</speed>
<course>1.5</course>
<desc>Speed 20.6 km/h Distance 4.72 km</desc>
<time>2011-09-29T10:08:12.16</time>
<name>730</name>
</trkpt>
<trkpt lat="41.618903" lon="-0.699377">
<ele>251.0</ele>
<speed>20.4</speed>
<course>4.2</course>
<desc>Speed 20.4 km/h Distance 4.72 km</desc>
<time>2011-09-29T10:08:13.16</time>
<name>731</name>
</trkpt>
<trkpt lat="41.618955" lon="-0.699372">
<ele>251.0</ele>
<speed>20.3</speed>
<course>6.9</course>
<desc>Speed 20.3 km/h Distance 4.73 km</desc>
<time>2011-09-29T10:08:14.16</time>
<name>732</name>
</trkpt>
<trkpt lat="41.619007" lon="-0.699363">
<ele>251.0</ele>
<speed>20.3</speed>
<course>15.3</course>
<desc>Speed 20.3 km/h Distance 4.73 km</desc>
<time>2011-09-29T10:08:15.16</time>
<name>733</name>
</trkpt>
<trkpt lat="41.619057" lon="-0.699345">
<ele>251.0</ele>
<speed>20.5</speed>
<course>21.1</course>
<desc>Speed 20.5 km/h Distance 4.74 km</desc>
<time>2011-09-29T10:08:16.16</time>
<name>734</name>
</trkpt>
<trkpt lat="41.619105" lon="-0.699320">
<ele>251.0</ele>
<speed>20.6</speed>
<course>29.0</course>
<desc>Speed 20.6 km/h Distance 4.74 km</desc>
<time>2011-09-29T10:08:17.15</time>
<name>735</name>
</trkpt>
<trkpt lat="41.619150" lon="-0.699287">
<ele>251.0</ele>
<speed>20.5</speed>
<course>38.5</course>
<desc>Speed 20.5 km/h Distance 4.75 km</desc>
<time>2011-09-29T10:08:18.46</time>
<name>736</name>
</trkpt>
<trkpt lat="41.619228" lon="-0.699203">
<ele>250.5</ele>
<speed>20.2</speed>
<course>43.6</course>
<desc>Speed 20.2 km/h Distance 4.76 km</desc>
<time>2011-09-29T10:08:20.16</time>
<name>737</name>
</trkpt>
<trkpt lat="41.619265" lon="-0.699157">
<ele>250.5</ele>
<speed>20.3</speed>
<course>44.9</course>
<desc>Speed 20.3 km/h Distance 4.77 km</desc>
<time>2011-09-29T10:08:21.15</time>
<name>738</name>
</trkpt>
<trkpt lat="41.619300" lon="-0.699110">
<ele>250.5</ele>
<speed>19.9</speed>
<course>41.7</course>
<desc>Speed 19.9 km/h Distance 4.77 km</desc>
<time>2011-09-29T10:08:22.15</time>
<name>739</name>
</trkpt>
<trkpt lat="41.619335" lon="-0.699068">
<ele>250.5</ele>
<speed>18.9</speed>
<course>34.2</course>
<desc>Speed 18.9 km/h Distance 4.78 km</desc>
<time>2011-09-29T10:08:23.15</time>
<name>740</name>
</trkpt>
<trkpt lat="41.619372" lon="-0.699035">
<ele>250.5</ele>
<speed>17.3</speed>
<course>36.8</course>
<desc>Speed 17.3 km/h Distance 4.78 km</desc>
<time>2011-09-29T10:08:24.15</time>
<name>741</name>
</trkpt>
<trkpt lat="41.619407" lon="-0.699000">
<ele>250.5</ele>
<speed>18.1</speed>
<course>35.5</course>
<desc>Speed 18.1 km/h Distance 4.79 km</desc>
<time>2011-09-29T10:08:25.39</time>
<name>742</name>
</trkpt>
<trkpt lat="41.619443" lon="-0.698965">
<ele>250.5</ele>
<speed>17.4</speed>
<course>31.7</course>
<desc>Speed 17.4 km/h Distance 4.79 km</desc>
<time>2011-09-29T10:08:26.16</time>
<name>743</name>
</trkpt>
<trkpt lat="41.619482" lon="-0.698933">
<ele>250.5</ele>
<speed>17.9</speed>
<course>33.0</course>
<desc>Speed 17.9 km/h Distance 4.80 km</desc>
<time>2011-09-29T10:08:27.16</time>
<name>744</name>
</trkpt>
<trkpt lat="41.619520" lon="-0.698900">
<ele>250.5</ele>
<speed>18.8</speed>
<course>33.2</course>
<desc>Speed 18.8 km/h Distance 4.80 km</desc>
<time>2011-09-29T10:08:28.19</time>
<name>745</name>
</trkpt>
<trkpt lat="41.619560" lon="-0.698865">
<ele>250.5</ele>
<speed>18.4</speed>
<course>28.9</course>
<desc>Speed 18.4 km/h Distance 4.81 km</desc>
<time>2011-09-29T10:08:29.15</time>
<name>746</name>
</trkpt>
<trkpt lat="41.619598" lon="-0.698837">
<ele>251.0</ele>
<speed>17.9</speed>
<course>19.8</course>
<desc>Speed 17.9 km/h Distance 4.81 km</desc>
<time>2011-09-29T10:08:30.15</time>
<name>747</name>
</trkpt>
<trkpt lat="41.619640" lon="-0.698817">
<ele>251.5</ele>
<speed>17.2</speed>
<course>14.0</course>
<desc>Speed 17.2 km/h Distance 4.82 km</desc>
<time>2011-09-29T10:08:31.15</time>
<name>748</name>
</trkpt>
<trkpt lat="41.619685" lon="-0.698802">
<ele>251.5</ele>
<speed>17.7</speed>
<course>7.6</course>
<desc>Speed 17.7 km/h Distance 4.82 km</desc>
<time>2011-09-29T10:08:32.16</time>
<name>749</name>
</trkpt>
<trkpt lat="41.619732" lon="-0.698793">
<ele>252.0</ele>
<speed>18.8</speed>
<course>0.0</course>
<desc>Speed 18.8 km/h Distance 4.83 km</desc>
<time>2011-09-29T10:08:33.15</time>
<name>750</name>
</trkpt>
<trkpt lat="41.619777" lon="-0.698793">
<ele>252.5</ele>
<speed>18.5</speed>
<course>0.6</course>
<desc>Speed 18.5 km/h Distance 4.83 km</desc>
<time>2011-09-29T10:08:34.15</time>
<name>751</name>
</trkpt>
<trkpt lat="41.619823" lon="-0.698793">
<ele>252.5</ele>
<speed>18.1</speed>
<course>358.5</course>
<desc>Speed 18.1 km/h Distance 4.84 km</desc>
<time>2011-09-29T10:08:35.15</time>
<name>752</name>
</trkpt>
<trkpt lat="41.619868" lon="-0.698795">
<ele>252.5</ele>
<speed>18.5</speed>
<course>355.6</course>
<desc>Speed 18.5 km/h Distance 4.84 km</desc>
<time>2011-09-29T10:08:36.14</time>
<name>753</name>
</trkpt>
<trkpt lat="41.619917" lon="-0.698800">
<ele>252.5</ele>
<speed>19.0</speed>
<course>350.1</course>
<desc>Speed 19.0 km/h Distance 4.85 km</desc>
<time>2011-09-29T10:08:37.92</time>
<name>754</name>
</trkpt>
<trkpt lat="41.620060" lon="-0.698833">
<ele>253.0</ele>
<speed>19.6</speed>
<course>351.5</course>
<desc>Speed 19.6 km/h Distance 4.86 km</desc>
<time>2011-09-29T10:08:40.14</time>
<name>755</name>
</trkpt>
<trkpt lat="41.620110" lon="-0.698843">
<ele>253.0</ele>
<speed>19.7</speed>
<course>349.7</course>
<desc>Speed 19.7 km/h Distance 4.87 km</desc>
<time>2011-09-29T10:08:41.14</time>
<name>756</name>
</trkpt>
<trkpt lat="41.620158" lon="-0.698855">
<ele>253.0</ele>
<speed>19.3</speed>
<course>349.4</course>
<desc>Speed 19.3 km/h Distance 4.88 km</desc>
<time>2011-09-29T10:08:42.14</time>
<name>757</name>
</trkpt>
<trkpt lat="41.620205" lon="-0.698867">
<ele>253.0</ele>
<speed>19.2</speed>
<course>348.3</course>
<desc>Speed 19.2 km/h Distance 4.88 km</desc>
<time>2011-09-29T10:08:43.14</time>
<name>758</name>
</trkpt>
<trkpt lat="41.620253" lon="-0.698880">
<ele>253.0</ele>
<speed>19.5</speed>
<course>351.2</course>
<desc>Speed 19.5 km/h Distance 4.89 km</desc>
<time>2011-09-29T10:08:44.14</time>
<name>759</name>
</trkpt>
<trkpt lat="41.620302" lon="-0.698890">
<ele>253.0</ele>
<speed>19.7</speed>
<course>351.2</course>
<desc>Speed 19.7 km/h Distance 4.89 km</desc>
<time>2011-09-29T10:08:45.14</time>
<name>760</name>
</trkpt>
<trkpt lat="41.620350" lon="-0.698900">
<ele>253.0</ele>
<speed>19.2</speed>
<course>349.3</course>
<desc>Speed 19.2 km/h Distance 4.90 km</desc>
<time>2011-09-29T10:08:46.14</time>
<name>761</name>
</trkpt>
<trkpt lat="41.620397" lon="-0.698912">
<ele>253.0</ele>
<speed>19.0</speed>
<course>349.0</course>
<desc>Speed 19.0 km/h Distance 4.90 km</desc>
<time>2011-09-29T10:08:47.64</time>
<name>762</name>
</trkpt>
<trkpt lat="41.620487" lon="-0.698935">
<ele>253.0</ele>
<speed>17.9</speed>
<course>348.9</course>
<desc>Speed 17.9 km/h Distance 4.91 km</desc>
<time>2011-09-29T10:08:49.13</time>
<name>763</name>
</trkpt>
<trkpt lat="41.620532" lon="-0.698947">
<ele>253.0</ele>
<speed>18.2</speed>
<course>352.1</course>
<desc>Speed 18.2 km/h Distance 4.92 km</desc>
<time>2011-09-29T10:08:50.14</time>
<name>764</name>
</trkpt>
<trkpt lat="41.620577" lon="-0.698955">
<ele>253.0</ele>
<speed>18.1</speed>
<course>355.4</course>
<desc>Speed 18.1 km/h Distance 4.92 km</desc>
<time>2011-09-29T10:08:51.13</time>
<name>765</name>
</trkpt>
<trkpt lat="41.620622" lon="-0.698960">
<ele>253.0</ele>
<speed>18.5</speed>
<course>1.6</course>
<desc>Speed 18.5 km/h Distance 4.93 km</desc>
<time>2011-09-29T10:08:52.13</time>
<name>766</name>
</trkpt>
<trkpt lat="41.620668" lon="-0.698958">
<ele>253.0</ele>
<speed>18.4</speed>
<course>4.7</course>
<desc>Speed 18.4 km/h Distance 4.93 km</desc>
<time>2011-09-29T10:08:53.14</time>
<name>767</name>
</trkpt>
<trkpt lat="41.620713" lon="-0.698953">
<ele>253.0</ele>
<speed>17.9</speed>
<course>4.1</course>
<desc>Speed 17.9 km/h Distance 4.94 km</desc>
<time>2011-09-29T10:08:54.13</time>
<name>768</name>
</trkpt>
<trkpt lat="41.620748" lon="-0.698950">
<ele>253.0</ele>
<speed>14.7</speed>
<course>14.0</course>
<desc>Speed 14.7 km/h Distance 4.94 km</desc>
<time>2011-09-29T10:08:55.13</time>
<name>769</name>
</trkpt>
<trkpt lat="41.620788" lon="-0.698937">
<ele>253.0</ele>
<speed>15.9</speed>
<course>18.0</course>
<desc>Speed 15.9 km/h Distance 4.95 km</desc>
<time>2011-09-29T10:08:56.14</time>
<name>770</name>
</trkpt>
<trkpt lat="41.620827" lon="-0.698920">
<ele>253.5</ele>
<speed>16.3</speed>
<course>18.8</course>
<desc>Speed 16.3 km/h Distance 4.95 km</desc>
<time>2011-09-29T10:08:57.38</time>
<name>771</name>
</trkpt>
<trkpt lat="41.620900" lon="-0.698887">
<ele>253.5</ele>
<speed>15.5</speed>
<course>23.2</course>
<desc>Speed 15.5 km/h Distance 4.96 km</desc>
<time>2011-09-29T10:08:59.14</time>
<name>772</name>
</trkpt>
<trkpt lat="41.620935" lon="-0.698867">
<ele>254.0</ele>
<speed>14.8</speed>
<course>34.7</course>
<desc>Speed 14.8 km/h Distance 4.96 km</desc>
<time>2011-09-29T10:09:00.13</time>
<name>773</name>
</trkpt>
<trkpt lat="41.620957" lon="-0.698847">
<ele>254.0</ele>
<speed>10.6</speed>
<course>38.6</course>
<desc>Speed 10.6 km/h Distance 4.97 km</desc>
<time>2011-09-29T10:09:01.13</time>
<name>774</name>
</trkpt>
<trkpt lat="41.620982" lon="-0.698820">
<ele>254.5</ele>
<speed>12.2</speed>
<course>38.7</course>
<desc>Speed 12.2 km/h Distance 4.97 km</desc>
<time>2011-09-29T10:09:02.13</time>
<name>775</name>
</trkpt>
<trkpt lat="41.621005" lon="-0.698795">
<ele>255.0</ele>
<speed>12.1</speed>
<course>38.7</course>
<desc>Speed 12.1 km/h Distance 4.97 km</desc>
<time>2011-09-29T10:09:03.13</time>
<name>776</name>
</trkpt>
<trkpt lat="41.621028" lon="-0.698770">
<ele>255.5</ele>
<speed>11.8</speed>
<course>40.5</course>
<desc>Speed 11.8 km/h Distance 4.98 km</desc>
<time>2011-09-29T10:09:04.31</time>
<name>777</name>
</trkpt>
<trkpt lat="41.621052" lon="-0.698743">
<ele>256.0</ele>
<speed>11.9</speed>
<course>44.3</course>
<desc>Speed 11.9 km/h Distance 4.98 km</desc>
<time>2011-09-29T10:09:05.14</time>
<name>778</name>
</trkpt>
<trkpt lat="41.621073" lon="-0.698715">
<ele>256.0</ele>
<speed>11.7</speed>
<course>40.5</course>
<desc>Speed 11.7 km/h Distance 4.98 km</desc>
<time>2011-09-29T10:09:06.13</time>
<name>779</name>
</trkpt>
<trkpt lat="41.621097" lon="-0.698688">
<ele>256.5</ele>
<speed>11.6</speed>
<course>42.2</course>
<desc>Speed 11.6 km/h Distance 4.99 km</desc>
<time>2011-09-29T10:09:07.15</time>
<name>780</name>
</trkpt>
<trkpt lat="41.621120" lon="-0.698660">
<ele>256.5</ele>
<speed>11.9</speed>
<course>52.2</course>
<desc>Speed 11.9 km/h Distance 4.99 km</desc>
<time>2011-09-29T10:09:08.13</time>
<name>781</name>
</trkpt>
<trkpt lat="41.621138" lon="-0.698628">
<ele>256.5</ele>
<speed>11.8</speed>
<course>61.3</course>
<desc>Speed 11.8 km/h Distance 4.99 km</desc>
<time>2011-09-29T10:09:09.13</time>
<name>782</name>
</trkpt>
<trkpt lat="41.621153" lon="-0.698592">
<ele>256.5</ele>
<speed>12.3</speed>
<course>63.4</course>
<desc>Speed 12.3 km/h Distance 5.00 km</desc>
<time>2011-09-29T10:09:10.13</time>
<name>783</name>
</trkpt>
<trkpt lat="41.621168" lon="-0.698552">
<ele>256.5</ele>
<speed>12.9</speed>
<course>59.8</course>
<desc>Speed 12.9 km/h Distance 5.00 km</desc>
<time>2011-09-29T10:09:11.13</time>
<name>784</name>
</trkpt>
<trkpt lat="41.621185" lon="-0.698513">
<ele>256.5</ele>
<speed>13.2</speed>
<course>62.4</course>
<desc>Speed 13.2 km/h Distance 5.01 km</desc>
<time>2011-09-29T10:09:12.13</time>
<name>785</name>
</trkpt>
<trkpt lat="41.621200" lon="-0.698475">
<ele>257.0</ele>
<speed>12.7</speed>
<course>73.8</course>
<desc>Speed 12.7 km/h Distance 5.01 km</desc>
<time>2011-09-29T10:09:13.13</time>
<name>786</name>
</trkpt>
<trkpt lat="41.621208" lon="-0.698437">
<ele>257.0</ele>
<speed>12.1</speed>
<course>73.8</course>
<desc>Speed 12.1 km/h Distance 5.01 km</desc>
<time>2011-09-29T10:09:14.12</time>
<name>787</name>
</trkpt>
<trkpt lat="41.621217" lon="-0.698398">
<ele>257.5</ele>
<speed>12.0</speed>
<course>70.0</course>
<desc>Speed 12.0 km/h Distance 5.02 km</desc>
<time>2011-09-29T10:09:15.13</time>
<name>788</name>
</trkpt>
<trkpt lat="41.621227" lon="-0.698362">
<ele>257.5</ele>
<speed>12.0</speed>
<course>72.6</course>
<desc>Speed 12.0 km/h Distance 5.02 km</desc>
<time>2011-09-29T10:09:16.85</time>
<name>789</name>
</trkpt>
<trkpt lat="41.621245" lon="-0.698283">
<ele>258.0</ele>
<speed>12.3</speed>
<course>74.4</course>
<desc>Speed 12.3 km/h Distance 5.03 km</desc>
<time>2011-09-29T10:09:18.12</time>
<name>790</name>
</trkpt>
<trkpt lat="41.621253" lon="-0.698243">
<ele>258.0</ele>
<speed>12.3</speed>
<course>74.4</course>
<desc>Speed 12.3 km/h Distance 5.03 km</desc>
<time>2011-09-29T10:09:19.12</time>
<name>791</name>
</trkpt>
<trkpt lat="41.621262" lon="-0.698203">
<ele>258.5</ele>
<speed>12.6</speed>
<course>71.5</course>
<desc>Speed 12.6 km/h Distance 5.03 km</desc>
<time>2011-09-29T10:09:20.12</time>
<name>792</name>
</trkpt>
<trkpt lat="41.621272" lon="-0.698163">
<ele>259.0</ele>
<speed>12.5</speed>
<course>77.4</course>
<desc>Speed 12.5 km/h Distance 5.04 km</desc>
<time>2011-09-29T10:09:21.12</time>
<name>793</name>
</trkpt>
<trkpt lat="41.621278" lon="-0.698123">
<ele>259.0</ele>
<speed>12.2</speed>
<course>76.3</course>
<desc>Speed 12.2 km/h Distance 5.04 km</desc>
<time>2011-09-29T10:09:22.12</time>
<name>794</name>
</trkpt>
<trkpt lat="41.621285" lon="-0.698087">
<ele>259.5</ele>
<speed>11.4</speed>
<course>75.7</course>
<desc>Speed 11.4 km/h Distance 5.04 km</desc>
<time>2011-09-29T10:09:23.12</time>
<name>795</name>
</trkpt>
<trkpt lat="41.621292" lon="-0.698052">
<ele>260.0</ele>
<speed>10.8</speed>
<course>67.1</course>
<desc>Speed 10.8 km/h Distance 5.05 km</desc>
<time>2011-09-29T10:09:24.12</time>
<name>796</name>
</trkpt>
<trkpt lat="41.621302" lon="-0.698020">
<ele>260.0</ele>
<speed>10.2</speed>
<course>70.6</course>
<desc>Speed 10.2 km/h Distance 5.05 km</desc>
<time>2011-09-29T10:09:25.12</time>
<name>797</name>
</trkpt>
<trkpt lat="41.621310" lon="-0.697988">
<ele>260.5</ele>
<speed>10.0</speed>
<course>80.5</course>
<desc>Speed 10.0 km/h Distance 5.05 km</desc>
<time>2011-09-29T10:09:26.60</time>
<name>798</name>
</trkpt>
<trkpt lat="41.621318" lon="-0.697922">
<ele>261.5</ele>
<speed>10.4</speed>
<course>60.6</course>
<desc>Speed 10.4 km/h Distance 5.06 km</desc>
<time>2011-09-29T10:09:28.11</time>
<name>799</name>
</trkpt>
<trkpt lat="41.621332" lon="-0.697890">
<ele>262.0</ele>
<speed>10.7</speed>
<course>56.2</course>
<desc>Speed 10.7 km/h Distance 5.06 km</desc>
<time>2011-09-29T10:09:29.12</time>
<name>800</name>
</trkpt>
<trkpt lat="41.621347" lon="-0.697860">
<ele>262.5</ele>
<speed>10.4</speed>
<course>57.6</course>
<desc>Speed 10.4 km/h Distance 5.06 km</desc>
<time>2011-09-29T10:09:30.12</time>
<name>801</name>
</trkpt>
<trkpt lat="41.621362" lon="-0.697828">
<ele>262.5</ele>
<speed>11.0</speed>
<course>61.1</course>
<desc>Speed 11.0 km/h Distance 5.07 km</desc>
<time>2011-09-29T10:09:31.12</time>
<name>802</name>
</trkpt>
<trkpt lat="41.621373" lon="-0.697800">
<ele>263.0</ele>
<speed>10.0</speed>
<course>63.8</course>
<desc>Speed 10.0 km/h Distance 5.07 km</desc>
<time>2011-09-29T10:09:32.12</time>
<name>803</name>
</trkpt>
<trkpt lat="41.621385" lon="-0.697768">
<ele>263.5</ele>
<speed>10.3</speed>
<course>53.4</course>
<desc>Speed 10.3 km/h Distance 5.07 km</desc>
<time>2011-09-29T10:09:33.12</time>
<name>804</name>
</trkpt>
<trkpt lat="41.621402" lon="-0.697738">
<ele>263.5</ele>
<speed>11.1</speed>
<course>36.8</course>
<desc>Speed 11.1 km/h Distance 5.07 km</desc>
<time>2011-09-29T10:09:34.12</time>
<name>805</name>
</trkpt>
<trkpt lat="41.621425" lon="-0.697715">
<ele>263.5</ele>
<speed>11.5</speed>
<course>20.5</course>
<desc>Speed 11.5 km/h Distance 5.08 km</desc>
<time>2011-09-29T10:09:35.12</time>
<name>806</name>
</trkpt>
<trkpt lat="41.621452" lon="-0.697702">
<ele>263.5</ele>
<speed>11.3</speed>
<course>22.9</course>
<desc>Speed 11.3 km/h Distance 5.08 km</desc>
<time>2011-09-29T10:09:36.32</time>
<name>807</name>
</trkpt>
<trkpt lat="41.621478" lon="-0.697687">
<ele>263.5</ele>
<speed>11.1</speed>
<course>25.1</course>
<desc>Speed 11.1 km/h Distance 5.08 km</desc>
<time>2011-09-29T10:09:37.14</time>
<name>808</name>
</trkpt>
<trkpt lat="41.621505" lon="-0.697670">
<ele>263.5</ele>
<speed>11.8</speed>
<course>9.8</course>
<desc>Speed 11.8 km/h Distance 5.09 km</desc>
<time>2011-09-29T10:09:38.12</time>
<name>809</name>
</trkpt>
<trkpt lat="41.621533" lon="-0.697663">
<ele>264.0</ele>
<speed>11.7</speed>
<course>13.9</course>
<desc>Speed 11.7 km/h Distance 5.09 km</desc>
<time>2011-09-29T10:09:39.11</time>
<name>810</name>
</trkpt>
<trkpt lat="41.621563" lon="-0.697653">
<ele>263.5</ele>
<speed>12.1</speed>
<course>7.1</course>
<desc>Speed 12.1 km/h Distance 5.09 km</desc>
<time>2011-09-29T10:09:40.11</time>
<name>811</name>
</trkpt>
<trkpt lat="41.621593" lon="-0.697648">
<ele>263.5</ele>
<speed>11.8</speed>
<course>4.8</course>
<desc>Speed 11.8 km/h Distance 5.10 km</desc>
<time>2011-09-29T10:09:41.11</time>
<name>812</name>
</trkpt>
<trkpt lat="41.621622" lon="-0.697645">
<ele>263.5</ele>
<speed>11.5</speed>
<course>1.9</course>
<desc>Speed 11.5 km/h Distance 5.10 km</desc>
<time>2011-09-29T10:09:42.10</time>
<name>813</name>
</trkpt>
<trkpt lat="41.621652" lon="-0.697643">
<ele>263.5</ele>
<speed>11.9</speed>
<course>358.2</course>
<desc>Speed 11.9 km/h Distance 5.10 km</desc>
<time>2011-09-29T10:09:43.25</time>
<name>814</name>
</trkpt>
<trkpt lat="41.621683" lon="-0.697645">
<ele>263.5</ele>
<speed>12.0</speed>
<course>345.2</course>
<desc>Speed 12.0 km/h Distance 5.11 km</desc>
<time>2011-09-29T10:09:44.10</time>
<name>815</name>
</trkpt>
<trkpt lat="41.621712" lon="-0.697655">
<ele>263.5</ele>
<speed>11.8</speed>
<course>341.6</course>
<desc>Speed 11.8 km/h Distance 5.11 km</desc>
<time>2011-09-29T10:09:45.10</time>
<name>816</name>
</trkpt>
<trkpt lat="41.621742" lon="-0.697668">
<ele>263.5</ele>
<speed>12.3</speed>
<course>336.6</course>
<desc>Speed 12.3 km/h Distance 5.11 km</desc>
<time>2011-09-29T10:09:46.10</time>
<name>817</name>
</trkpt>
<trkpt lat="41.621773" lon="-0.697687">
<ele>263.5</ele>
<speed>13.1</speed>
<course>330.7</course>
<desc>Speed 13.1 km/h Distance 5.12 km</desc>
<time>2011-09-29T10:09:47.10</time>
<name>818</name>
</trkpt>
<trkpt lat="41.621807" lon="-0.697712">
<ele>263.0</ele>
<speed>14.6</speed>
<course>323.2</course>
<desc>Speed 14.6 km/h Distance 5.12 km</desc>
<time>2011-09-29T10:09:48.10</time>
<name>819</name>
</trkpt>
<trkpt lat="41.621838" lon="-0.697743">
<ele>263.0</ele>
<speed>15.5</speed>
<course>318.9</course>
<desc>Speed 15.5 km/h Distance 5.13 km</desc>
<time>2011-09-29T10:09:49.10</time>
<name>820</name>
</trkpt>
<trkpt lat="41.621868" lon="-0.697778">
<ele>263.0</ele>
<speed>16.1</speed>
<course>323.2</course>
<desc>Speed 16.1 km/h Distance 5.13 km</desc>
<time>2011-09-29T10:09:50.10</time>
<name>821</name>
</trkpt>
<trkpt lat="41.621903" lon="-0.697813">
<ele>263.0</ele>
<speed>16.7</speed>
<course>321.9</course>
<desc>Speed 16.7 km/h Distance 5.14 km</desc>
<time>2011-09-29T10:09:51.10</time>
<name>822</name>
</trkpt>
<trkpt lat="41.621937" lon="-0.697848">
<ele>263.0</ele>
<speed>17.2</speed>
<course>335.8</course>
<desc>Speed 17.2 km/h Distance 5.14 km</desc>
<time>2011-09-29T10:09:52.10</time>
<name>823</name>
</trkpt>
<trkpt lat="41.621978" lon="-0.697873">
<ele>263.0</ele>
<speed>18.0</speed>
<course>349.1</course>
<desc>Speed 18.0 km/h Distance 5.15 km</desc>
<time>2011-09-29T10:09:53.10</time>
<name>824</name>
</trkpt>
<trkpt lat="41.622023" lon="-0.697885">
<ele>263.0</ele>
<speed>18.4</speed>
<course>357.0</course>
<desc>Speed 18.4 km/h Distance 5.15 km</desc>
<time>2011-09-29T10:09:54.11</time>
<name>825</name>
</trkpt>
<trkpt lat="41.622070" lon="-0.697888">
<ele>263.0</ele>
<speed>18.4</speed>
<course>5.7</course>
<desc>Speed 18.4 km/h Distance 5.16 km</desc>
<time>2011-09-29T10:09:55.78</time>
<name>826</name>
</trkpt>
<trkpt lat="41.622208" lon="-0.697870">
<ele>263.5</ele>
<speed>17.6</speed>
<course>8.2</course>
<desc>Speed 17.6 km/h Distance 5.17 km</desc>
<time>2011-09-29T10:09:58.10</time>
<name>827</name>
</trkpt>
<trkpt lat="41.622252" lon="-0.697862">
<ele>263.5</ele>
<speed>17.0</speed>
<course>5.0</course>
<desc>Speed 17.0 km/h Distance 5.18 km</desc>
<time>2011-09-29T10:09:59.10</time>
<name>828</name>
</trkpt>
<trkpt lat="41.622295" lon="-0.697857">
<ele>263.5</ele>
<speed>17.4</speed>
<course>3.2</course>
<desc>Speed 17.4 km/h Distance 5.18 km</desc>
<time>2011-09-29T10:10:00.10</time>
<name>829</name>
</trkpt>
<trkpt lat="41.622338" lon="-0.697853">
<ele>264.0</ele>
<speed>16.9</speed>
<course>1.6</course>
<desc>Speed 16.9 km/h Distance 5.19 km</desc>
<time>2011-09-29T10:10:01.10</time>
<name>830</name>
</trkpt>
<trkpt lat="41.622382" lon="-0.697852">
<ele>264.0</ele>
<speed>16.7</speed>
<course>1.8</course>
<desc>Speed 16.7 km/h Distance 5.19 km</desc>
<time>2011-09-29T10:10:02.10</time>
<name>831</name>
</trkpt>
<trkpt lat="41.622423" lon="-0.697850">
<ele>264.5</ele>
<speed>16.3</speed>
<course>3.5</course>
<desc>Speed 16.3 km/h Distance 5.20 km</desc>
<time>2011-09-29T10:10:03.10</time>
<name>832</name>
</trkpt>
<trkpt lat="41.622463" lon="-0.697847">
<ele>264.5</ele>
<speed>16.4</speed>
<course>5.0</course>
<desc>Speed 16.4 km/h Distance 5.20 km</desc>
<time>2011-09-29T10:10:04.09</time>
<name>833</name>
</trkpt>
<trkpt lat="41.622505" lon="-0.697842">
<ele>265.0</ele>
<speed>16.9</speed>
<course>3.3</course>
<desc>Speed 16.9 km/h Distance 5.21 km</desc>
<time>2011-09-29T10:10:05.52</time>
<name>834</name>
</trkpt>
<trkpt lat="41.622590" lon="-0.697835">
<ele>265.5</ele>
<speed>16.7</speed>
<course>3.2</course>
<desc>Speed 16.7 km/h Distance 5.21 km</desc>
<time>2011-09-29T10:10:07.09</time>
<name>835</name>
</trkpt>
<trkpt lat="41.622632" lon="-0.697832">
<ele>266.0</ele>
<speed>16.5</speed>
<course>356.5</course>
<desc>Speed 16.5 km/h Distance 5.22 km</desc>
<time>2011-09-29T10:10:08.09</time>
<name>836</name>
</trkpt>
<trkpt lat="41.622672" lon="-0.697835">
<ele>266.0</ele>
<speed>15.5</speed>
<course>1.9</course>
<desc>Speed 15.5 km/h Distance 5.22 km</desc>
<time>2011-09-29T10:10:09.09</time>
<name>837</name>
</trkpt>
<trkpt lat="41.622710" lon="-0.697833">
<ele>266.5</ele>
<speed>15.1</speed>
<course>358.1</course>
<desc>Speed 15.1 km/h Distance 5.23 km</desc>
<time>2011-09-29T10:10:10.09</time>
<name>838</name>
</trkpt>
<trkpt lat="41.622748" lon="-0.697835">
<ele>266.5</ele>
<speed>14.9</speed>
<course>354.4</course>
<desc>Speed 14.9 km/h Distance 5.23 km</desc>
<time>2011-09-29T10:10:11.09</time>
<name>839</name>
</trkpt>
<trkpt lat="41.622787" lon="-0.697840">
<ele>267.0</ele>
<speed>15.2</speed>
<course>354.5</course>
<desc>Speed 15.2 km/h Distance 5.24 km</desc>
<time>2011-09-29T10:10:12.45</time>
<name>840</name>
</trkpt>
<trkpt lat="41.622865" lon="-0.697850">
<ele>267.5</ele>
<speed>15.8</speed>
<course>0.0</course>
<desc>Speed 15.8 km/h Distance 5.25 km</desc>
<time>2011-09-29T10:10:14.09</time>
<name>841</name>
</trkpt>
<trkpt lat="41.622905" lon="-0.697850">
<ele>268.0</ele>
<speed>15.7</speed>
<course>1.7</course>
<desc>Speed 15.7 km/h Distance 5.25 km</desc>
<time>2011-09-29T10:10:15.25</time>
<name>842</name>
</trkpt>
<trkpt lat="41.622945" lon="-0.697848">
<ele>268.0</ele>
<speed>15.7</speed>
<course>0.0</course>
<desc>Speed 15.7 km/h Distance 5.25 km</desc>
<time>2011-09-29T10:10:16.10</time>
<name>843</name>
</trkpt>
<trkpt lat="41.622985" lon="-0.697848">
<ele>268.0</ele>
<speed>15.9</speed>
<course>0.4</course>
<desc>Speed 15.9 km/h Distance 5.26 km</desc>
<time>2011-09-29T10:10:17.09</time>
<name>844</name>
</trkpt>
<trkpt lat="41.623023" lon="-0.697848">
<ele>268.5</ele>
<speed>15.7</speed>
<course>0.0</course>
<desc>Speed 15.7 km/h Distance 5.26 km</desc>
<time>2011-09-29T10:10:18.09</time>
<name>845</name>
</trkpt>
<trkpt lat="41.623063" lon="-0.697848">
<ele>268.5</ele>
<speed>15.3</speed>
<course>358.1</course>
<desc>Speed 15.3 km/h Distance 5.27 km</desc>
<time>2011-09-29T10:10:19.09</time>
<name>846</name>
</trkpt>
<trkpt lat="41.623102" lon="-0.697850">
<ele>269.0</ele>
<speed>15.0</speed>
<course>0.4</course>
<desc>Speed 15.0 km/h Distance 5.27 km</desc>
<time>2011-09-29T10:10:20.08</time>
<name>847</name>
</trkpt>
<trkpt lat="41.623140" lon="-0.697850">
<ele>269.0</ele>
<speed>15.2</speed>
<course>356.4</course>
<desc>Speed 15.2 km/h Distance 5.28 km</desc>
<time>2011-09-29T10:10:21.08</time>
<name>848</name>
</trkpt>
<trkpt lat="41.623178" lon="-0.697853">
<ele>269.0</ele>
<speed>15.4</speed>
<course>0.0</course>
<desc>Speed 15.4 km/h Distance 5.28 km</desc>
<time>2011-09-29T10:10:22.18</time>
<name>849</name>
</trkpt>
<trkpt lat="41.623218" lon="-0.697853">
<ele>269.5</ele>
<speed>15.7</speed>
<course>5.6</course>
<desc>Speed 15.7 km/h Distance 5.28 km</desc>
<time>2011-09-29T10:10:23.08</time>
<name>850</name>
</trkpt>
<trkpt lat="41.623257" lon="-0.697848">
<ele>269.5</ele>
<speed>15.7</speed>
<course>1.2</course>
<desc>Speed 15.7 km/h Distance 5.29 km</desc>
<time>2011-09-29T10:10:24.08</time>
<name>851</name>
</trkpt>
<trkpt lat="41.623297" lon="-0.697847">
<ele>269.5</ele>
<speed>15.4</speed>
<course>358.1</course>
<desc>Speed 15.4 km/h Distance 5.29 km</desc>
<time>2011-09-29T10:10:25.08</time>
<name>852</name>
</trkpt>
<trkpt lat="41.623335" lon="-0.697848">
<ele>269.5</ele>
<speed>15.4</speed>
<course>0.4</course>
<desc>Speed 15.4 km/h Distance 5.30 km</desc>
<time>2011-09-29T10:10:26.09</time>
<name>853</name>
</trkpt>
<trkpt lat="41.623373" lon="-0.697848">
<ele>269.5</ele>
<speed>15.4</speed>
<course>356.3</course>
<desc>Speed 15.4 km/h Distance 5.30 km</desc>
<time>2011-09-29T10:10:27.09</time>
<name>854</name>
</trkpt>
<trkpt lat="41.623413" lon="-0.697852">
<ele>270.0</ele>
<speed>15.9</speed>
<course>356.6</course>
<desc>Speed 15.9 km/h Distance 5.31 km</desc>
<time>2011-09-29T10:10:28.08</time>
<name>855</name>
</trkpt>
<trkpt lat="41.623457" lon="-0.697855">
<ele>269.0</ele>
<speed>16.1</speed>
<course>356.6</course>
<desc>Speed 16.1 km/h Distance 5.31 km</desc>
<time>2011-09-29T10:10:29.08</time>
<name>856</name>
</trkpt>
<trkpt lat="41.623498" lon="-0.697858">
<ele>269.0</ele>
<speed>16.5</speed>
<course>355.0</course>
<desc>Speed 16.5 km/h Distance 5.32 km</desc>
<time>2011-09-29T10:10:30.08</time>
<name>857</name>
</trkpt>
<trkpt lat="41.623542" lon="-0.697863">
<ele>269.0</ele>
<speed>16.7</speed>
<course>353.5</course>
<desc>Speed 16.7 km/h Distance 5.32 km</desc>
<time>2011-09-29T10:10:31.09</time>
<name>858</name>
</trkpt>
<trkpt lat="41.623585" lon="-0.697870">
<ele>269.0</ele>
<speed>17.3</speed>
<course>351.6</course>
<desc>Speed 17.3 km/h Distance 5.33 km</desc>
<time>2011-09-29T10:10:32.08</time>
<name>859</name>
</trkpt>
<trkpt lat="41.623627" lon="-0.697878">
<ele>269.0</ele>
<speed>16.9</speed>
<course>349.9</course>
<desc>Speed 16.9 km/h Distance 5.33 km</desc>
<time>2011-09-29T10:10:33.08</time>
<name>860</name>
</trkpt>
<trkpt lat="41.623668" lon="-0.697888">
<ele>269.0</ele>
<speed>16.5</speed>
<course>348.8</course>
<desc>Speed 16.5 km/h Distance 5.33 km</desc>
<time>2011-09-29T10:10:34.72</time>
<name>861</name>
</trkpt>
<trkpt lat="41.623750" lon="-0.697910">
<ele>269.5</ele>
<speed>16.7</speed>
<course>347.8</course>
<desc>Speed 16.7 km/h Distance 5.34 km</desc>
<time>2011-09-29T10:10:36.08</time>
<name>862</name>
</trkpt>
<trkpt lat="41.623790" lon="-0.697922">
<ele>269.5</ele>
<speed>16.7</speed>
<course>346.5</course>
<desc>Speed 16.7 km/h Distance 5.35 km</desc>
<time>2011-09-29T10:10:37.08</time>
<name>863</name>
</trkpt>
<trkpt lat="41.623832" lon="-0.697935">
<ele>270.0</ele>
<speed>16.7</speed>
<course>342.7</course>
<desc>Speed 16.7 km/h Distance 5.35 km</desc>
<time>2011-09-29T10:10:38.08</time>
<name>864</name>
</trkpt>
<trkpt lat="41.623872" lon="-0.697952">
<ele>270.5</ele>
<speed>16.7</speed>
<course>343.6</course>
<desc>Speed 16.7 km/h Distance 5.36 km</desc>
<time>2011-09-29T10:10:39.08</time>
<name>865</name>
</trkpt>
<trkpt lat="41.623910" lon="-0.697967">
<ele>270.5</ele>
<speed>16.4</speed>
<course>339.4</course>
<desc>Speed 16.4 km/h Distance 5.36 km</desc>
<time>2011-09-29T10:10:40.07</time>
<name>866</name>
</trkpt>
<trkpt lat="41.623947" lon="-0.697985">
<ele>271.0</ele>
<speed>16.1</speed>
<course>341.9</course>
<desc>Speed 16.1 km/h Distance 5.37 km</desc>
<time>2011-09-29T10:10:41.07</time>
<name>867</name>
</trkpt>
<trkpt lat="41.623985" lon="-0.698002">
<ele>271.5</ele>
<speed>15.9</speed>
<course>341.2</course>
<desc>Speed 15.9 km/h Distance 5.37 km</desc>
<time>2011-09-29T10:10:42.07</time>
<name>868</name>
</trkpt>
<trkpt lat="41.624022" lon="-0.698018">
<ele>272.0</ele>
<speed>15.8</speed>
<course>345.4</course>
<desc>Speed 15.8 km/h Distance 5.38 km</desc>
<time>2011-09-29T10:10:43.08</time>
<name>869</name>
</trkpt>
<trkpt lat="41.624060" lon="-0.698032">
<ele>272.0</ele>
<speed>15.7</speed>
<course>345.4</course>
<desc>Speed 15.7 km/h Distance 5.38 km</desc>
<time>2011-09-29T10:10:44.46</time>
<name>870</name>
</trkpt>
<trkpt lat="41.624137" lon="-0.698058">
<ele>272.5</ele>
<speed>15.5</speed>
<course>341.2</course>
<desc>Speed 15.5 km/h Distance 5.39 km</desc>
<time>2011-09-29T10:10:46.07</time>
<name>871</name>
</trkpt>
<trkpt lat="41.624173" lon="-0.698075">
<ele>273.0</ele>
<speed>15.4</speed>
<course>340.4</course>
<desc>Speed 15.4 km/h Distance 5.39 km</desc>
<time>2011-09-29T10:10:47.08</time>
<name>872</name>
</trkpt>
<trkpt lat="41.624208" lon="-0.698092">
<ele>273.0</ele>
<speed>15.2</speed>
<course>344.7</course>
<desc>Speed 15.2 km/h Distance 5.40 km</desc>
<time>2011-09-29T10:10:48.07</time>
<name>873</name>
</trkpt>
<trkpt lat="41.624245" lon="-0.698105">
<ele>273.0</ele>
<speed>15.0</speed>
<course>338.6</course>
<desc>Speed 15.0 km/h Distance 5.40 km</desc>
<time>2011-09-29T10:10:49.07</time>
<name>874</name>
</trkpt>
<trkpt lat="41.624280" lon="-0.698123">
<ele>273.5</ele>
<speed>14.6</speed>
<course>347.9</course>
<desc>Speed 14.6 km/h Distance 5.41 km</desc>
<time>2011-09-29T10:10:50.07</time>
<name>875</name>
</trkpt>
<trkpt lat="41.624315" lon="-0.698133">
<ele>274.0</ele>
<speed>14.6</speed>
<course>345.4</course>
<desc>Speed 14.6 km/h Distance 5.41 km</desc>
<time>2011-09-29T10:10:51.39</time>
<name>876</name>
</trkpt>
<trkpt lat="41.624387" lon="-0.698158">
<ele>274.5</ele>
<speed>14.6</speed>
<course>348.4</course>
<desc>Speed 14.6 km/h Distance 5.42 km</desc>
<time>2011-09-29T10:10:53.07</time>
<name>877</name>
</trkpt>
<trkpt lat="41.624423" lon="-0.698168">
<ele>274.5</ele>
<speed>14.6</speed>
<course>350.3</course>
<desc>Speed 14.6 km/h Distance 5.42 km</desc>
<time>2011-09-29T10:10:54.19</time>
<name>878</name>
</trkpt>
<trkpt lat="41.624460" lon="-0.698177">
<ele>275.0</ele>
<speed>15.1</speed>
<course>349.0</course>
<desc>Speed 15.1 km/h Distance 5.43 km</desc>
<time>2011-09-29T10:10:55.06</time>
<name>879</name>
</trkpt>
<trkpt lat="41.624498" lon="-0.698187">
<ele>274.5</ele>
<speed>15.4</speed>
<course>351.2</course>
<desc>Speed 15.4 km/h Distance 5.43 km</desc>
<time>2011-09-29T10:10:56.06</time>
<name>880</name>
</trkpt>
<trkpt lat="41.624538" lon="-0.698195">
<ele>274.5</ele>
<speed>15.9</speed>
<course>354.7</course>
<desc>Speed 15.9 km/h Distance 5.44 km</desc>
<time>2011-09-29T10:10:57.06</time>
<name>881</name>
</trkpt>
<trkpt lat="41.624578" lon="-0.698200">
<ele>275.0</ele>
<speed>15.8</speed>
<course>354.7</course>
<desc>Speed 15.8 km/h Distance 5.44 km</desc>
<time>2011-09-29T10:10:58.06</time>
<name>882</name>
</trkpt>
<trkpt lat="41.624618" lon="-0.698205">
<ele>275.0</ele>
<speed>15.7</speed>
<course>356.4</course>
<desc>Speed 15.7 km/h Distance 5.44 km</desc>
<time>2011-09-29T10:10:59.06</time>
<name>883</name>
</trkpt>
<trkpt lat="41.624657" lon="-0.698208">
<ele>275.0</ele>
<speed>15.4</speed>
<course>354.6</course>
<desc>Speed 15.4 km/h Distance 5.45 km</desc>
<time>2011-09-29T10:11:00.06</time>
<name>884</name>
</trkpt>
<trkpt lat="41.624695" lon="-0.698213">
<ele>275.0</ele>
<speed>15.2</speed>
<course>356.4</course>
<desc>Speed 15.2 km/h Distance 5.45 km</desc>
<time>2011-09-29T10:11:01.13</time>
<name>885</name>
</trkpt>
<trkpt lat="41.624733" lon="-0.698217">
<ele>275.0</ele>
<speed>15.1</speed>
<course>354.4</course>
<desc>Speed 15.1 km/h Distance 5.46 km</desc>
<time>2011-09-29T10:11:02.06</time>
<name>886</name>
</trkpt>
<trkpt lat="41.624772" lon="-0.698222">
<ele>275.5</ele>
<speed>15.3</speed>
<course>352.6</course>
<desc>Speed 15.3 km/h Distance 5.46 km</desc>
<time>2011-09-29T10:11:03.07</time>
<name>887</name>
</trkpt>
<trkpt lat="41.624810" lon="-0.698228">
<ele>275.5</ele>
<speed>15.0</speed>
<course>354.7</course>
<desc>Speed 15.0 km/h Distance 5.47 km</desc>
<time>2011-09-29T10:11:04.06</time>
<name>888</name>
</trkpt>
<trkpt lat="41.624850" lon="-0.698233">
<ele>275.5</ele>
<speed>15.9</speed>
<course>354.6</course>
<desc>Speed 15.9 km/h Distance 5.47 km</desc>
<time>2011-09-29T10:11:05.06</time>
<name>889</name>
</trkpt>
<trkpt lat="41.624888" lon="-0.698238">
<ele>275.5</ele>
<speed>15.6</speed>
<course>350.8</course>
<desc>Speed 15.6 km/h Distance 5.47 km</desc>
<time>2011-09-29T10:11:06.06</time>
<name>890</name>
</trkpt>
<trkpt lat="41.624927" lon="-0.698247">
<ele>275.5</ele>
<speed>15.2</speed>
<course>356.5</course>
<desc>Speed 15.2 km/h Distance 5.48 km</desc>
<time>2011-09-29T10:11:07.06</time>
<name>891</name>
</trkpt>
<trkpt lat="41.624967" lon="-0.698250">
<ele>275.5</ele>
<speed>15.5</speed>
<course>354.7</course>
<desc>Speed 15.5 km/h Distance 5.48 km</desc>
<time>2011-09-29T10:11:08.06</time>
<name>892</name>
</trkpt>
<trkpt lat="41.625007" lon="-0.698255">
<ele>275.5</ele>
<speed>15.7</speed>
<course>358.3</course>
<desc>Speed 15.7 km/h Distance 5.49 km</desc>
<time>2011-09-29T10:11:09.07</time>
<name>893</name>
</trkpt>
<trkpt lat="41.625047" lon="-0.698257">
<ele>276.0</ele>
<speed>15.8</speed>
<course>356.5</course>
<desc>Speed 15.8 km/h Distance 5.49 km</desc>
<time>2011-09-29T10:11:10.07</time>
<name>894</name>
</trkpt>
<trkpt lat="41.625087" lon="-0.698260">
<ele>275.5</ele>
<speed>16.0</speed>
<course>353.0</course>
<desc>Speed 16.0 km/h Distance 5.50 km</desc>
<time>2011-09-29T10:11:11.07</time>
<name>895</name>
</trkpt>
<trkpt lat="41.625127" lon="-0.698267">
<ele>276.0</ele>
<speed>15.8</speed>
<course>353.2</course>
<desc>Speed 15.8 km/h Distance 5.50 km</desc>
<time>2011-09-29T10:11:12.06</time>
<name>896</name>
</trkpt>
<trkpt lat="41.625168" lon="-0.698273">
<ele>276.0</ele>
<speed>15.9</speed>
<course>352.9</course>
<desc>Speed 15.9 km/h Distance 5.51 km</desc>
<time>2011-09-29T10:11:13.66</time>
<name>897</name>
</trkpt>
<trkpt lat="41.625248" lon="-0.698287">
<ele>276.0</ele>
<speed>15.4</speed>
<course>347.7</course>
<desc>Speed 15.4 km/h Distance 5.51 km</desc>
<time>2011-09-29T10:11:15.06</time>
<name>898</name>
</trkpt>
<trkpt lat="41.625288" lon="-0.698298">
<ele>275.5</ele>
<speed>15.7</speed>
<course>347.7</course>
<desc>Speed 15.7 km/h Distance 5.52 km</desc>
<time>2011-09-29T10:11:16.06</time>
<name>899</name>
</trkpt>
<trkpt lat="41.625328" lon="-0.698310">
<ele>275.5</ele>
<speed>15.4</speed>
<course>349.0</course>
<desc>Speed 15.4 km/h Distance 5.52 km</desc>
<time>2011-09-29T10:11:17.05</time>
<name>900</name>
</trkpt>
<trkpt lat="41.625367" lon="-0.698320">
<ele>275.5</ele>
<speed>15.4</speed>
<course>345.4</course>
<desc>Speed 15.4 km/h Distance 5.53 km</desc>
<time>2011-09-29T10:11:18.06</time>
<name>901</name>
</trkpt>
<trkpt lat="41.625405" lon="-0.698333">
<ele>275.5</ele>
<speed>15.6</speed>
<course>347.2</course>
<desc>Speed 15.6 km/h Distance 5.53 km</desc>
<time>2011-09-29T10:11:19.05</time>
<name>902</name>
</trkpt>
<trkpt lat="41.625443" lon="-0.698345">
<ele>275.5</ele>
<speed>15.5</speed>
<course>345.4</course>
<desc>Speed 15.5 km/h Distance 5.54 km</desc>
<time>2011-09-29T10:11:20.06</time>
<name>903</name>
</trkpt>
<trkpt lat="41.625482" lon="-0.698358">
<ele>275.5</ele>
<speed>15.5</speed>
<course>348.9</course>
<desc>Speed 15.5 km/h Distance 5.54 km</desc>
<time>2011-09-29T10:11:21.05</time>
<name>904</name>
</trkpt>
<trkpt lat="41.625520" lon="-0.698368">
<ele>275.5</ele>
<speed>15.4</speed>
<course>347.1</course>
<desc>Speed 15.4 km/h Distance 5.55 km</desc>
<time>2011-09-29T10:11:22.05</time>
<name>905</name>
</trkpt>
<trkpt lat="41.625558" lon="-0.698380">
<ele>275.5</ele>
<speed>15.6</speed>
<course>346.0</course>
<desc>Speed 15.6 km/h Distance 5.55 km</desc>
<time>2011-09-29T10:11:23.40</time>
<name>906</name>
</trkpt>
<trkpt lat="41.625598" lon="-0.698393">
<ele>275.5</ele>
<speed>16.1</speed>
<course>346.0</course>
<desc>Speed 16.1 km/h Distance 5.55 km</desc>
<time>2011-09-29T10:11:24.28</time>
<name>907</name>
</trkpt>
<trkpt lat="41.625638" lon="-0.698407">
<ele>275.5</ele>
<speed>16.6</speed>
<course>346.0</course>
<desc>Speed 16.6 km/h Distance 5.56 km</desc>
<time>2011-09-29T10:11:25.05</time>
<name>908</name>
</trkpt>
<trkpt lat="41.625678" lon="-0.698420">
<ele>275.5</ele>
<speed>16.2</speed>
<course>349.5</course>
<desc>Speed 16.2 km/h Distance 5.56 km</desc>
<time>2011-09-29T10:11:26.05</time>
<name>909</name>
</trkpt>
<trkpt lat="41.625718" lon="-0.698430">
<ele>276.0</ele>
<speed>16.3</speed>
<course>352.6</course>
<desc>Speed 16.3 km/h Distance 5.57 km</desc>
<time>2011-09-29T10:11:27.05</time>
<name>910</name>
</trkpt>
<trkpt lat="41.625757" lon="-0.698437">
<ele>276.0</ele>
<speed>15.6</speed>
<course>342.2</course>
<desc>Speed 15.6 km/h Distance 5.57 km</desc>
<time>2011-09-29T10:11:28.05</time>
<name>911</name>
</trkpt>
<trkpt lat="41.625792" lon="-0.698452">
<ele>276.0</ele>
<speed>14.3</speed>
<course>346.0</course>
<desc>Speed 14.3 km/h Distance 5.58 km</desc>
<time>2011-09-29T10:11:29.04</time>
<name>912</name>
</trkpt>
<trkpt lat="41.625827" lon="-0.698463">
<ele>276.5</ele>
<speed>14.4</speed>
<course>348.4</course>
<desc>Speed 14.4 km/h Distance 5.58 km</desc>
<time>2011-09-29T10:11:30.33</time>
<name>913</name>
</trkpt>
<trkpt lat="41.625900" lon="-0.698483">
<ele>276.5</ele>
<speed>15.2</speed>
<course>344.2</course>
<desc>Speed 15.2 km/h Distance 5.59 km</desc>
<time>2011-09-29T10:11:32.04</time>
<name>914</name>
</trkpt>
<trkpt lat="41.625935" lon="-0.698497">
<ele>277.0</ele>
<speed>14.8</speed>
<course>341.2</course>
<desc>Speed 14.8 km/h Distance 5.59 km</desc>
<time>2011-09-29T10:11:33.13</time>
<name>915</name>
</trkpt>
<trkpt lat="41.625972" lon="-0.698513">
<ele>277.0</ele>
<speed>14.9</speed>
<course>341.4</course>
<desc>Speed 14.9 km/h Distance 5.60 km</desc>
<time>2011-09-29T10:11:34.04</time>
<name>916</name>
</trkpt>
<trkpt lat="41.626005" lon="-0.698528">
<ele>277.5</ele>
<speed>14.1</speed>
<course>351.9</course>
<desc>Speed 14.1 km/h Distance 5.60 km</desc>
<time>2011-09-29T10:11:35.08</time>
<name>917</name>
</trkpt>
<trkpt lat="41.626040" lon="-0.698535">
<ele>277.5</ele>
<speed>14.4</speed>
<course>352.1</course>
<desc>Speed 14.4 km/h Distance 5.61 km</desc>
<time>2011-09-29T10:11:36.04</time>
<name>918</name>
</trkpt>
<trkpt lat="41.626077" lon="-0.698542">
<ele>277.5</ele>
<speed>14.7</speed>
<course>346.7</course>
<desc>Speed 14.7 km/h Distance 5.61 km</desc>
<time>2011-09-29T10:11:37.04</time>
<name>919</name>
</trkpt>
<trkpt lat="41.626113" lon="-0.698553">
<ele>278.0</ele>
<speed>14.6</speed>
<course>348.5</course>
<desc>Speed 14.6 km/h Distance 5.61 km</desc>
<time>2011-09-29T10:11:38.03</time>
<name>920</name>
</trkpt>
<trkpt lat="41.626150" lon="-0.698563">
<ele>278.0</ele>
<speed>15.0</speed>
<course>350.3</course>
<desc>Speed 15.0 km/h Distance 5.62 km</desc>
<time>2011-09-29T10:11:39.04</time>
<name>921</name>
</trkpt>
<trkpt lat="41.626187" lon="-0.698572">
<ele>278.0</ele>
<speed>15.4</speed>
<course>349.4</course>
<desc>Speed 15.4 km/h Distance 5.62 km</desc>
<time>2011-09-29T10:11:40.04</time>
<name>922</name>
</trkpt>
<trkpt lat="41.626227" lon="-0.698582">
<ele>278.0</ele>
<speed>16.2</speed>
<course>351.6</course>
<desc>Speed 16.2 km/h Distance 5.63 km</desc>
<time>2011-09-29T10:11:41.04</time>
<name>923</name>
</trkpt>
<trkpt lat="41.626268" lon="-0.698590">
<ele>278.0</ele>
<speed>16.3</speed>
<course>357.7</course>
<desc>Speed 16.3 km/h Distance 5.63 km</desc>
<time>2011-09-29T10:11:42.79</time>
<name>924</name>
</trkpt>
<trkpt lat="41.626390" lon="-0.698597">
<ele>278.5</ele>
<speed>16.3</speed>
<course>0.0</course>
<desc>Speed 16.3 km/h Distance 5.64 km</desc>
<time>2011-09-29T10:11:45.04</time>
<name>925</name>
</trkpt>
<trkpt lat="41.626432" lon="-0.698597">
<ele>278.5</ele>
<speed>16.5</speed>
<course>359.4</course>
<desc>Speed 16.5 km/h Distance 5.65 km</desc>
<time>2011-09-29T10:11:46.03</time>
<name>926</name>
</trkpt>
<trkpt lat="41.626473" lon="-0.698598">
<ele>279.0</ele>
<speed>16.3</speed>
<course>358.8</course>
<desc>Speed 16.3 km/h Distance 5.65 km</desc>
<time>2011-09-29T10:11:47.03</time>
<name>927</name>
</trkpt>
<trkpt lat="41.626513" lon="-0.698600">
<ele>279.5</ele>
<speed>16.1</speed>
<course>3.4</course>
<desc>Speed 16.1 km/h Distance 5.66 km</desc>
<time>2011-09-29T10:11:48.04</time>
<name>928</name>
</trkpt>
<trkpt lat="41.626555" lon="-0.698597">
<ele>279.0</ele>
<speed>16.3</speed>
<course>3.5</course>
<desc>Speed 16.3 km/h Distance 5.66 km</desc>
<time>2011-09-29T10:11:49.04</time>
<name>929</name>
</trkpt>
<trkpt lat="41.626595" lon="-0.698593">
<ele>279.5</ele>
<speed>15.7</speed>
<course>1.7</course>
<desc>Speed 15.7 km/h Distance 5.67 km</desc>
<time>2011-09-29T10:11:50.04</time>
<name>930</name>
</trkpt>
<trkpt lat="41.626632" lon="-0.698592">
<ele>280.0</ele>
<speed>14.9</speed>
<course>5.9</course>
<desc>Speed 14.9 km/h Distance 5.67 km</desc>
<time>2011-09-29T10:11:51.03</time>
<name>931</name>
</trkpt>
<trkpt lat="41.626668" lon="-0.698587">
<ele>280.0</ele>
<speed>14.5</speed>
<course>11.1</course>
<desc>Speed 14.5 km/h Distance 5.68 km</desc>
<time>2011-09-29T10:11:52.49</time>
<name>932</name>
</trkpt>
<trkpt lat="41.626738" lon="-0.698568">
<ele>280.0</ele>
<speed>13.7</speed>
<course>19.5</course>
<desc>Speed 13.7 km/h Distance 5.68 km</desc>
<time>2011-09-29T10:11:54.03</time>
<name>933</name>
</trkpt>
<trkpt lat="41.626770" lon="-0.698553">
<ele>280.0</ele>
<speed>13.1</speed>
<course>21.4</course>
<desc>Speed 13.1 km/h Distance 5.69 km</desc>
<time>2011-09-29T10:11:55.02</time>
<name>934</name>
</trkpt>
<trkpt lat="41.626802" lon="-0.698537">
<ele>280.5</ele>
<speed>13.1</speed>
<course>17.4</course>
<desc>Speed 13.1 km/h Distance 5.69 km</desc>
<time>2011-09-29T10:11:56.02</time>
<name>935</name>
</trkpt>
<trkpt lat="41.626833" lon="-0.698523">
<ele>280.5</ele>
<speed>13.0</speed>
<course>13.3</course>
<desc>Speed 13.0 km/h Distance 5.69 km</desc>
<time>2011-09-29T10:11:57.02</time>
<name>936</name>
</trkpt>
<trkpt lat="41.626865" lon="-0.698513">
<ele>280.5</ele>
<speed>12.3</speed>
<course>22.8</course>
<desc>Speed 12.3 km/h Distance 5.70 km</desc>
<time>2011-09-29T10:11:58.02</time>
<name>937</name>
</trkpt>
<trkpt lat="41.626892" lon="-0.698498">
<ele>281.0</ele>
<speed>10.9</speed>
<course>20.5</course>
<desc>Speed 10.9 km/h Distance 5.70 km</desc>
<time>2011-09-29T10:11:59.02</time>
<name>938</name>
</trkpt>
<trkpt lat="41.626918" lon="-0.698485">
<ele>280.5</ele>
<speed>10.6</speed>
<course>26.5</course>
<desc>Speed 10.6 km/h Distance 5.70 km</desc>
<time>2011-09-29T10:12:00.02</time>
<name>939</name>
</trkpt>
<trkpt lat="41.626943" lon="-0.698468">
<ele>280.5</ele>
<speed>10.4</speed>
<course>30.5</course>
<desc>Speed 10.4 km/h Distance 5.71 km</desc>
<time>2011-09-29T10:12:01.02</time>
<name>940</name>
</trkpt>
<trkpt lat="41.626967" lon="-0.698450">
<ele>281.5</ele>
<speed>10.2</speed>
<course>25.1</course>
<desc>Speed 10.2 km/h Distance 5.71 km</desc>
<time>2011-09-29T10:12:02.23</time>
<name>941</name>
</trkpt>
<trkpt lat="41.626993" lon="-0.698433">
<ele>281.5</ele>
<speed>11.0</speed>
<course>25.0</course>
<desc>Speed 11.0 km/h Distance 5.71 km</desc>
<time>2011-09-29T10:12:03.03</time>
<name>942</name>
</trkpt>
<trkpt lat="41.627020" lon="-0.698417">
<ele>281.5</ele>
<speed>10.9</speed>
<course>26.1</course>
<desc>Speed 10.9 km/h Distance 5.72 km</desc>
<time>2011-09-29T10:12:04.65</time>
<name>943</name>
</trkpt>
<trkpt lat="41.627073" lon="-0.698382">
<ele>281.5</ele>
<speed>11.4</speed>
<course>28.7</course>
<desc>Speed 11.4 km/h Distance 5.72 km</desc>
<time>2011-09-29T10:12:06.02</time>
<name>944</name>
</trkpt>
<trkpt lat="41.627098" lon="-0.698363">
<ele>281.0</ele>
<speed>11.3</speed>
<course>26.5</course>
<desc>Speed 11.3 km/h Distance 5.73 km</desc>
<time>2011-09-29T10:12:07.02</time>
<name>945</name>
</trkpt>
<trkpt lat="41.627123" lon="-0.698347">
<ele>281.5</ele>
<speed>10.7</speed>
<course>36.8</course>
<desc>Speed 10.7 km/h Distance 5.73 km</desc>
<time>2011-09-29T10:12:08.02</time>
<name>946</name>
</trkpt>
<trkpt lat="41.627145" lon="-0.698325">
<ele>281.5</ele>
<speed>11.2</speed>
<course>38.6</course>
<desc>Speed 11.2 km/h Distance 5.73 km</desc>
<time>2011-09-29T10:12:09.22</time>
<name>947</name>
</trkpt>
<trkpt lat="41.627170" lon="-0.698298">
<ele>282.0</ele>
<speed>12.3</speed>
<course>32.9</course>
<desc>Speed 12.3 km/h Distance 5.74 km</desc>
<time>2011-09-29T10:12:10.26</time>
<name>948</name>
</trkpt>
<trkpt lat="41.627195" lon="-0.698277">
<ele>282.0</ele>
<speed>12.1</speed>
<course>36.8</course>
<desc>Speed 12.1 km/h Distance 5.74 km</desc>
<time>2011-09-29T10:12:11.01</time>
<name>949</name>
</trkpt>
<trkpt lat="41.627218" lon="-0.698253">
<ele>282.0</ele>
<speed>11.5</speed>
<course>40.5</course>
<desc>Speed 11.5 km/h Distance 5.74 km</desc>
<time>2011-09-29T10:12:12.03</time>
<name>950</name>
</trkpt>
<trkpt lat="41.627242" lon="-0.698227">
<ele>282.0</ele>
<speed>12.3</speed>
<course>46.9</course>
<desc>Speed 12.3 km/h Distance 5.75 km</desc>
<time>2011-09-29T10:12:13.02</time>
<name>951</name>
</trkpt>
<trkpt lat="41.627265" lon="-0.698193">
<ele>281.5</ele>
<speed>13.4</speed>
<course>41.6</course>
<desc>Speed 13.4 km/h Distance 5.75 km</desc>
<time>2011-09-29T10:12:14.01</time>
<name>952</name>
</trkpt>
<trkpt lat="41.627292" lon="-0.698162">
<ele>281.5</ele>
<speed>14.1</speed>
<course>41.3</course>
<desc>Speed 14.1 km/h Distance 5.75 km</desc>
<time>2011-09-29T10:12:15.01</time>
<name>953</name>
</trkpt>
<trkpt lat="41.627320" lon="-0.698128">
<ele>281.0</ele>
<speed>14.8</speed>
<course>39.9</course>
<desc>Speed 14.8 km/h Distance 5.76 km</desc>
<time>2011-09-29T10:12:16.01</time>
<name>954</name>
</trkpt>
<trkpt lat="41.627348" lon="-0.698097">
<ele>281.0</ele>
<speed>14.9</speed>
<course>38.4</course>
<desc>Speed 14.9 km/h Distance 5.76 km</desc>
<time>2011-09-29T10:12:17.01</time>
<name>955</name>
</trkpt>
<trkpt lat="41.627377" lon="-0.698067">
<ele>281.0</ele>
<speed>14.3</speed>
<course>44.9</course>
<desc>Speed 14.3 km/h Distance 5.77 km</desc>
<time>2011-09-29T10:12:18.01</time>
<name>956</name>
</trkpt>
<trkpt lat="41.627402" lon="-0.698033">
<ele>281.0</ele>
<speed>14.1</speed>
<course>36.8</course>
<desc>Speed 14.1 km/h Distance 5.77 km</desc>
<time>2011-09-29T10:12:19.01</time>
<name>957</name>
</trkpt>
<trkpt lat="41.627430" lon="-0.698005">
<ele>281.0</ele>
<speed>13.8</speed>
<course>41.9</course>
<desc>Speed 13.8 km/h Distance 5.77 km</desc>
<time>2011-09-29T10:12:20.01</time>
<name>958</name>
</trkpt>
<trkpt lat="41.627455" lon="-0.697975">
<ele>281.5</ele>
<speed>13.8</speed>
<course>40.2</course>
<desc>Speed 13.8 km/h Distance 5.78 km</desc>
<time>2011-09-29T10:12:21.75</time>
<name>959</name>
</trkpt>
<trkpt lat="41.627507" lon="-0.697917">
<ele>281.5</ele>
<speed>13.5</speed>
<course>43.4</course>
<desc>Speed 13.5 km/h Distance 5.79 km</desc>
<time>2011-09-29T10:12:23.01</time>
<name>960</name>
</trkpt>
<trkpt lat="41.627532" lon="-0.697885">
<ele>282.0</ele>
<speed>13.5</speed>
<course>44.9</course>
<desc>Speed 13.5 km/h Distance 5.79 km</desc>
<time>2011-09-29T10:12:24.01</time>
<name>961</name>
</trkpt>
<trkpt lat="41.627557" lon="-0.697852">
<ele>282.0</ele>
<speed>14.1</speed>
<course>46.9</course>
<desc>Speed 14.1 km/h Distance 5.79 km</desc>
<time>2011-09-29T10:12:25.01</time>
<name>962</name>
</trkpt>
<trkpt lat="41.627580" lon="-0.697818">
<ele>282.0</ele>
<speed>14.0</speed>
<course>50.8</course>
<desc>Speed 14.0 km/h Distance 5.80 km</desc>
<time>2011-09-29T10:12:26.00</time>
<name>963</name>
</trkpt>
<trkpt lat="41.627603" lon="-0.697780">
<ele>282.0</ele>
<speed>14.4</speed>
<course>54.1</course>
<desc>Speed 14.4 km/h Distance 5.80 km</desc>
<time>2011-09-29T10:12:27.00</time>
<name>964</name>
</trkpt>
<trkpt lat="41.627625" lon="-0.697740">
<ele>282.0</ele>
<speed>14.7</speed>
<course>60.5</course>
<desc>Speed 14.7 km/h Distance 5.81 km</desc>
<time>2011-09-29T10:12:28.00</time>
<name>965</name>
</trkpt>
<trkpt lat="41.627643" lon="-0.697697">
<ele>282.5</ele>
<speed>15.2</speed>
<course>56.2</course>
<desc>Speed 15.2 km/h Distance 5.81 km</desc>
<time>2011-09-29T10:12:29.00</time>
<name>966</name>
</trkpt>
<trkpt lat="41.627665" lon="-0.697653">
<ele>282.5</ele>
<speed>15.2</speed>
<course>67.4</course>
<desc>Speed 15.2 km/h Distance 5.81 km</desc>
<time>2011-09-29T10:12:30.00</time>
<name>967</name>
</trkpt>
<trkpt lat="41.627680" lon="-0.697605">
<ele>282.5</ele>
<speed>15.5</speed>
<course>74.3</course>
<desc>Speed 15.5 km/h Distance 5.82 km</desc>
<time>2011-09-29T10:12:31.50</time>
<name>968</name>
</trkpt>
<trkpt lat="41.627702" lon="-0.697502">
<ele>282.5</ele>
<speed>16.3</speed>
<course>78.2</course>
<desc>Speed 16.3 km/h Distance 5.83 km</desc>
<time>2011-09-29T10:12:33.00</time>
<name>969</name>
</trkpt>
<trkpt lat="41.627710" lon="-0.697448">
<ele>282.5</ele>
<speed>16.4</speed>
<course>83.1</course>
<desc>Speed 16.4 km/h Distance 5.83 km</desc>
<time>2011-09-29T10:12:34.00</time>
<name>970</name>
</trkpt>
<trkpt lat="41.627715" lon="-0.697393">
<ele>283.0</ele>
<speed>16.4</speed>
<course>85.2</course>
<desc>Speed 16.4 km/h Distance 5.84 km</desc>
<time>2011-09-29T10:12:35.17</time>
<name>971</name>
</trkpt>
<trkpt lat="41.627718" lon="-0.697340">
<ele>283.0</ele>
<speed>16.1</speed>
<course>83.1</course>
<desc>Speed 16.1 km/h Distance 5.84 km</desc>
<time>2011-09-29T10:12:35.99</time>
<name>972</name>
</trkpt>
<trkpt lat="41.627723" lon="-0.697285">
<ele>283.0</ele>
<speed>16.2</speed>
<course>85.2</course>
<desc>Speed 16.2 km/h Distance 5.85 km</desc>
<time>2011-09-29T10:12:36.99</time>
<name>973</name>
</trkpt>
<trkpt lat="41.627727" lon="-0.697232">
<ele>283.0</ele>
<speed>16.2</speed>
<course>82.6</course>
<desc>Speed 16.2 km/h Distance 5.85 km</desc>
<time>2011-09-29T10:12:38.00</time>
<name>974</name>
</trkpt>
<trkpt lat="41.627732" lon="-0.697180">
<ele>283.0</ele>
<speed>16.0</speed>
<course>78.2</course>
<desc>Speed 16.0 km/h Distance 5.85 km</desc>
<time>2011-09-29T10:12:39.00</time>
<name>975</name>
</trkpt>
<trkpt lat="41.627740" lon="-0.697127">
<ele>283.0</ele>
<speed>15.8</speed>
<course>70.9</course>
<desc>Speed 15.8 km/h Distance 5.86 km</desc>
<time>2011-09-29T10:12:39.99</time>
<name>976</name>
</trkpt>
<trkpt lat="41.627752" lon="-0.697082">
<ele>283.5</ele>
<speed>14.7</speed>
<course>56.2</course>
<desc>Speed 14.7 km/h Distance 5.86 km</desc>
<time>2011-09-29T10:12:41.24</time>
<name>977</name>
</trkpt>
<trkpt lat="41.627770" lon="-0.697045">
<ele>284.0</ele>
<speed>13.0</speed>
<course>47.5</course>
<desc>Speed 13.0 km/h Distance 5.87 km</desc>
<time>2011-09-29T10:12:41.99</time>
<name>978</name>
</trkpt>
<trkpt lat="41.627792" lon="-0.697013">
<ele>284.0</ele>
<speed>13.3</speed>
<course>44.9</course>
<desc>Speed 13.3 km/h Distance 5.87 km</desc>
<time>2011-09-29T10:12:42.99</time>
<name>979</name>
</trkpt>
<trkpt lat="41.627817" lon="-0.696980">
<ele>284.5</ele>
<speed>13.9</speed>
<course>46.3</course>
<desc>Speed 13.9 km/h Distance 5.87 km</desc>
<time>2011-09-29T10:12:43.99</time>
<name>980</name>
</trkpt>
<trkpt lat="41.627842" lon="-0.696945">
<ele>284.5</ele>
<speed>14.4</speed>
<course>38.4</course>
<desc>Speed 14.4 km/h Distance 5.88 km</desc>
<time>2011-09-29T10:12:44.99</time>
<name>981</name>
</trkpt>
<trkpt lat="41.627870" lon="-0.696915">
<ele>284.5</ele>
<speed>14.5</speed>
<course>40.1</course>
<desc>Speed 14.5 km/h Distance 5.88 km</desc>
<time>2011-09-29T10:12:46.04</time>
<name>982</name>
</trkpt>
<trkpt lat="41.627897" lon="-0.696885">
<ele>284.5</ele>
<speed>13.8</speed>
<course>36.8</course>
<desc>Speed 13.8 km/h Distance 5.89 km</desc>
<time>2011-09-29T10:12:46.99</time>
<name>983</name>
</trkpt>
<trkpt lat="41.627925" lon="-0.696857">
<ele>285.0</ele>
<speed>14.0</speed>
<course>31.6</course>
<desc>Speed 14.0 km/h Distance 5.89 km</desc>
<time>2011-09-29T10:12:48.14</time>
<name>984</name>
</trkpt>
<trkpt lat="41.627953" lon="-0.696833">
<ele>285.0</ele>
<speed>13.3</speed>
<course>27.1</course>
<desc>Speed 13.3 km/h Distance 5.89 km</desc>
<time>2011-09-29T10:12:48.98</time>
<name>985</name>
</trkpt>
<trkpt lat="41.627985" lon="-0.696812">
<ele>285.0</ele>
<speed>13.9</speed>
<course>25.9</course>
<desc>Speed 13.9 km/h Distance 5.90 km</desc>
<time>2011-09-29T10:12:49.99</time>
<name>986</name>
</trkpt>
<trkpt lat="41.628018" lon="-0.696790">
<ele>284.5</ele>
<speed>14.5</speed>
<course>23.2</course>
<desc>Speed 14.5 km/h Distance 5.90 km</desc>
<time>2011-09-29T10:12:50.98</time>
<name>987</name>
</trkpt>
<trkpt lat="41.628053" lon="-0.696770">
<ele>285.0</ele>
<speed>14.8</speed>
<course>22.2</course>
<desc>Speed 14.8 km/h Distance 5.91 km</desc>
<time>2011-09-29T10:12:52.10</time>
<name>988</name>
</trkpt>
<trkpt lat="41.628090" lon="-0.696750">
<ele>285.0</ele>
<speed>15.2</speed>
<course>23.8</course>
<desc>Speed 15.2 km/h Distance 5.91 km</desc>
<time>2011-09-29T10:12:52.99</time>
<name>989</name>
</trkpt>
<trkpt lat="41.628127" lon="-0.696728">
<ele>285.0</ele>
<speed>15.8</speed>
<course>31.2</course>
<desc>Speed 15.8 km/h Distance 5.92 km</desc>
<time>2011-09-29T10:12:53.98</time>
<name>990</name>
</trkpt>
<trkpt lat="41.628162" lon="-0.696700">
<ele>285.0</ele>
<speed>16.1</speed>
<course>39.4</course>
<desc>Speed 16.1 km/h Distance 5.92 km</desc>
<time>2011-09-29T10:12:54.98</time>
<name>991</name>
</trkpt>
<trkpt lat="41.628195" lon="-0.696663">
<ele>284.5</ele>
<speed>17.2</speed>
<course>49.9</course>
<desc>Speed 17.2 km/h Distance 5.92 km</desc>
<time>2011-09-29T10:12:55.98</time>
<name>992</name>
</trkpt>
<trkpt lat="41.628223" lon="-0.696618">
<ele>284.0</ele>
<speed>17.6</speed>
<course>49.3</course>
<desc>Speed 17.6 km/h Distance 5.93 km</desc>
<time>2011-09-29T10:12:56.98</time>
<name>993</name>
</trkpt>
<trkpt lat="41.628253" lon="-0.696572">
<ele>284.0</ele>
<speed>17.8</speed>
<course>44.9</course>
<desc>Speed 17.8 km/h Distance 5.93 km</desc>
<time>2011-09-29T10:12:57.98</time>
<name>994</name>
</trkpt>
<trkpt lat="41.628283" lon="-0.696532">
<ele>284.0</ele>
<speed>16.8</speed>
<course>32.6</course>
<desc>Speed 16.8 km/h Distance 5.94 km</desc>
<time>2011-09-29T10:12:58.97</time>
<name>995</name>
</trkpt>
<trkpt lat="41.628318" lon="-0.696502">
<ele>284.0</ele>
<speed>16.4</speed>
<course>20.5</course>
<desc>Speed 16.4 km/h Distance 5.94 km</desc>
<time>2011-09-29T10:13:00.67</time>
<name>996</name>
</trkpt>
<trkpt lat="41.628395" lon="-0.696463">
<ele>284.0</ele>
<speed>16.1</speed>
<course>30.0</course>
<desc>Speed 16.1 km/h Distance 5.95 km</desc>
<time>2011-09-29T10:13:01.97</time>
<name>997</name>
</trkpt>
<trkpt lat="41.628432" lon="-0.696435">
<ele>284.0</ele>
<speed>16.7</speed>
<course>42.4</course>
<desc>Speed 16.7 km/h Distance 5.96 km</desc>
<time>2011-09-29T10:13:02.98</time>
<name>998</name>
</trkpt>
<trkpt lat="41.628462" lon="-0.696398">
<ele>284.0</ele>
<speed>16.7</speed>
<course>47.7</course>
<desc>Speed 16.7 km/h Distance 5.96 km</desc>
<time>2011-09-29T10:13:03.98</time>
<name>999</name>
</trkpt>
<trkpt lat="41.628490" lon="-0.696357">
<ele>284.0</ele>
<speed>16.6</speed>
<course>51.5</course>
<desc>Speed 16.6 km/h Distance 5.97 km</desc>
<time>2011-09-29T10:13:05.65</time>
<name>1000</name>
</trkpt>
<trkpt lat="41.628573" lon="-0.696217">
<ele>284.0</ele>
<speed>18.5</speed>
<course>52.8</course>
<desc>Speed 18.5 km/h Distance 5.98 km</desc>
<time>2011-09-29T10:13:07.98</time>
<name>1001</name>
</trkpt>
<trkpt lat="41.628602" lon="-0.696167">
<ele>284.0</ele>
<speed>18.8</speed>
<course>48.8</course>
<desc>Speed 18.8 km/h Distance 5.99 km</desc>
<time>2011-09-29T10:13:08.97</time>
<name>1002</name>
</trkpt>
<trkpt lat="41.628633" lon="-0.696118">
<ele>284.0</ele>
<speed>19.2</speed>
<course>42.7</course>
<desc>Speed 19.2 km/h Distance 5.99 km</desc>
<time>2011-09-29T10:13:10.46</time>
<name>1003</name>
</trkpt>
<trkpt lat="41.628705" lon="-0.696030">
<ele>284.0</ele>
<speed>19.8</speed>
<course>32.1</course>
<desc>Speed 19.8 km/h Distance 6.00 km</desc>
<time>2011-09-29T10:13:11.97</time>
<name>1004</name>
</trkpt>
<trkpt lat="41.628747" lon="-0.695995">
<ele>284.0</ele>
<speed>19.7</speed>
<course>23.9</course>
<desc>Speed 19.7 km/h Distance 6.01 km</desc>
<time>2011-09-29T10:13:12.97</time>
<name>1005</name>
</trkpt>
<trkpt lat="41.628792" lon="-0.695968">
<ele>284.0</ele>
<speed>19.4</speed>
<course>17.6</course>
<desc>Speed 19.4 km/h Distance 6.01 km</desc>
<time>2011-09-29T10:13:13.97</time>
<name>1006</name>
</trkpt>
<trkpt lat="41.628835" lon="-0.695950">
<ele>284.0</ele>
<speed>18.5</speed>
<course>16.6</course>
<desc>Speed 18.5 km/h Distance 6.02 km</desc>
<time>2011-09-29T10:13:14.97</time>
<name>1007</name>
</trkpt>
<trkpt lat="41.628877" lon="-0.695933">
<ele>284.0</ele>
<speed>17.0</speed>
<course>22.0</course>
<desc>Speed 17.0 km/h Distance 6.02 km</desc>
<time>2011-09-29T10:13:15.96</time>
<name>1008</name>
</trkpt>
<trkpt lat="41.628917" lon="-0.695912">
<ele>284.0</ele>
<speed>17.6</speed>
<course>26.0</course>
<desc>Speed 17.6 km/h Distance 6.03 km</desc>
<time>2011-09-29T10:13:16.97</time>
<name>1009</name>
</trkpt>
<trkpt lat="41.628955" lon="-0.695887">
<ele>284.0</ele>
<speed>17.0</speed>
<course>21.3</course>
<desc>Speed 17.0 km/h Distance 6.03 km</desc>
<time>2011-09-29T10:13:17.97</time>
<name>1010</name>
</trkpt>
<trkpt lat="41.628993" lon="-0.695867">
<ele>284.5</ele>
<speed>16.4</speed>
<course>19.6</course>
<desc>Speed 16.4 km/h Distance 6.04 km</desc>
<time>2011-09-29T10:13:18.96</time>
<name>1011</name>
</trkpt>
<trkpt lat="41.629028" lon="-0.695850">
<ele>284.5</ele>
<speed>15.4</speed>
<course>23.2</course>
<desc>Speed 15.4 km/h Distance 6.04 km</desc>
<time>2011-09-29T10:13:20.17</time>
<name>1012</name>
</trkpt>
<trkpt lat="41.629063" lon="-0.695830">
<ele>285.0</ele>
<speed>15.4</speed>
<course>25.4</course>
<desc>Speed 15.4 km/h Distance 6.05 km</desc>
<time>2011-09-29T10:13:20.97</time>
<name>1013</name>
</trkpt>
<trkpt lat="41.629100" lon="-0.695807">
<ele>285.0</ele>
<speed>16.0</speed>
<course>28.1</course>
<desc>Speed 16.0 km/h Distance 6.05 km</desc>
<time>2011-09-29T10:13:21.96</time>
<name>1014</name>
</trkpt>
<trkpt lat="41.629135" lon="-0.695782">
<ele>285.0</ele>
<speed>16.1</speed>
<course>26.5</course>
<desc>Speed 16.1 km/h Distance 6.06 km</desc>
<time>2011-09-29T10:13:22.96</time>
<name>1015</name>
</trkpt>
<trkpt lat="41.629170" lon="-0.695758">
<ele>285.5</ele>
<speed>15.4</speed>
<course>33.8</course>
<desc>Speed 15.4 km/h Distance 6.06 km</desc>
<time>2011-09-29T10:13:23.96</time>
<name>1016</name>
</trkpt>
<trkpt lat="41.629202" lon="-0.695730">
<ele>285.5</ele>
<speed>15.3</speed>
<course>39.9</course>
<desc>Speed 15.3 km/h Distance 6.06 km</desc>
<time>2011-09-29T10:13:24.96</time>
<name>1017</name>
</trkpt>
<trkpt lat="41.629230" lon="-0.695698">
<ele>285.5</ele>
<speed>15.0</speed>
<course>44.4</course>
<desc>Speed 15.0 km/h Distance 6.07 km</desc>
<time>2011-09-29T10:13:25.96</time>
<name>1018</name>
</trkpt>
<trkpt lat="41.629257" lon="-0.695663">
<ele>286.0</ele>
<speed>14.7</speed>
<course>44.9</course>
<desc>Speed 14.7 km/h Distance 6.07 km</desc>
<time>2011-09-29T10:13:27.12</time>
<name>1019</name>
</trkpt>
<trkpt lat="41.629282" lon="-0.695630">
<ele>286.0</ele>
<speed>14.1</speed>
<course>52.9</course>
<desc>Speed 14.1 km/h Distance 6.08 km</desc>
<time>2011-09-29T10:13:27.96</time>
<name>1020</name>
</trkpt>
<trkpt lat="41.629303" lon="-0.695592">
<ele>286.5</ele>
<speed>14.1</speed>
<course>57.4</course>
<desc>Speed 14.1 km/h Distance 6.08 km</desc>
<time>2011-09-29T10:13:28.96</time>
<name>1021</name>
</trkpt>
<trkpt lat="41.629322" lon="-0.695553">
<ele>287.0</ele>
<speed>13.9</speed>
<course>52.9</course>
<desc>Speed 13.9 km/h Distance 6.08 km</desc>
<time>2011-09-29T10:13:29.98</time>
<name>1022</name>
</trkpt>
<trkpt lat="41.629343" lon="-0.695515">
<ele>287.0</ele>
<speed>13.9</speed>
<course>56.2</course>
<desc>Speed 13.9 km/h Distance 6.09 km</desc>
<time>2011-09-29T10:13:30.96</time>
<name>1023</name>
</trkpt>
<trkpt lat="41.629362" lon="-0.695478">
<ele>287.0</ele>
<speed>13.2</speed>
<course>50.7</course>
<desc>Speed 13.2 km/h Distance 6.09 km</desc>
<time>2011-09-29T10:13:31.96</time>
<name>1024</name>
</trkpt>
<trkpt lat="41.629380" lon="-0.695448">
<ele>287.5</ele>
<speed>11.8</speed>
<course>51.8</course>
<desc>Speed 11.8 km/h Distance 6.10 km</desc>
<time>2011-09-29T10:13:33.04</time>
<name>1025</name>
</trkpt>
<trkpt lat="41.629397" lon="-0.695420">
<ele>288.0</ele>
<speed>10.5</speed>
<course>64.7</course>
<desc>Speed 10.5 km/h Distance 6.10 km</desc>
<time>2011-09-29T10:13:33.95</time>
<name>1026</name>
</trkpt>
<trkpt lat="41.629407" lon="-0.695392">
<ele>288.0</ele>
<speed>9.8</speed>
<course>63.7</course>
<desc>Speed 9.8 km/h Distance 6.10 km</desc>
<time>2011-09-29T10:13:34.95</time>
<name>1027</name>
</trkpt>
<trkpt lat="41.629418" lon="-0.695360">
<ele>288.5</ele>
<speed>10.6</speed>
<course>54.7</course>
<desc>Speed 10.6 km/h Distance 6.10 km</desc>
<time>2011-09-29T10:13:35.95</time>
<name>1028</name>
</trkpt>
<trkpt lat="41.629433" lon="-0.695332">
<ele>288.5</ele>
<speed>10.7</speed>
<course>40.7</course>
<desc>Speed 10.7 km/h Distance 6.11 km</desc>
<time>2011-09-29T10:13:36.95</time>
<name>1029</name>
</trkpt>
<trkpt lat="41.629455" lon="-0.695307">
<ele>289.0</ele>
<speed>11.3</speed>
<course>36.8</course>
<desc>Speed 11.3 km/h Distance 6.11 km</desc>
<time>2011-09-29T10:13:37.95</time>
<name>1030</name>
</trkpt>
<trkpt lat="41.629478" lon="-0.695283">
<ele>289.0</ele>
<speed>11.8</speed>
<course>27.1</course>
<desc>Speed 11.8 km/h Distance 6.11 km</desc>
<time>2011-09-29T10:13:39.64</time>
<name>1031</name>
</trkpt>
<trkpt lat="41.629537" lon="-0.695243">
<ele>289.5</ele>
<speed>13.1</speed>
<course>23.7</course>
<desc>Speed 13.1 km/h Distance 6.12 km</desc>
<time>2011-09-29T10:13:40.95</time>
<name>1032</name>
</trkpt>
<trkpt lat="41.629565" lon="-0.695227">
<ele>290.0</ele>
<speed>12.7</speed>
<course>22.5</course>
<desc>Speed 12.7 km/h Distance 6.12 km</desc>
<time>2011-09-29T10:13:41.95</time>
<name>1033</name>
</trkpt>
<trkpt lat="41.629595" lon="-0.695210">
<ele>290.0</ele>
<speed>12.6</speed>
<course>25.8</course>
<desc>Speed 12.6 km/h Distance 6.13 km</desc>
<time>2011-09-29T10:13:42.95</time>
<name>1034</name>
</trkpt>
<trkpt lat="41.629623" lon="-0.695192">
<ele>290.5</ele>
<speed>12.6</speed>
<course>23.8</course>
<desc>Speed 12.6 km/h Distance 6.13 km</desc>
<time>2011-09-29T10:13:43.95</time>
<name>1035</name>
</trkpt>
<trkpt lat="41.629652" lon="-0.695175">
<ele>291.0</ele>
<speed>12.1</speed>
<course>31.3</course>
<desc>Speed 12.1 km/h Distance 6.13 km</desc>
<time>2011-09-29T10:13:44.95</time>
<name>1036</name>
</trkpt>
<trkpt lat="41.629678" lon="-0.695153">
<ele>291.5</ele>
<speed>12.5</speed>
<course>25.8</course>
<desc>Speed 12.5 km/h Distance 6.14 km</desc>
<time>2011-09-29T10:13:45.95</time>
<name>1037</name>
</trkpt>
<trkpt lat="41.629707" lon="-0.695135">
<ele>292.0</ele>
<speed>12.0</speed>
<course>27.8</course>
<desc>Speed 12.0 km/h Distance 6.14 km</desc>
<time>2011-09-29T10:13:46.95</time>
<name>1038</name>
</trkpt>
<trkpt lat="41.629735" lon="-0.695115">
<ele>292.5</ele>
<speed>12.1</speed>
<course>27.2</course>
<desc>Speed 12.1 km/h Distance 6.14 km</desc>
<time>2011-09-29T10:13:47.95</time>
<name>1039</name>
</trkpt>
<trkpt lat="41.629762" lon="-0.695097">
<ele>293.0</ele>
<speed>11.7</speed>
<course>30.9</course>
<desc>Speed 11.7 km/h Distance 6.15 km</desc>
<time>2011-09-29T10:13:49.38</time>
<name>1040</name>
</trkpt>
<trkpt lat="41.629787" lon="-0.695077">
<ele>293.5</ele>
<speed>11.9</speed>
<course>27.9</course>
<desc>Speed 11.9 km/h Distance 6.15 km</desc>
<time>2011-09-29T10:13:50.12</time>
<name>1041</name>
</trkpt>
<trkpt lat="41.629815" lon="-0.695057">
<ele>293.5</ele>
<speed>12.1</speed>
<course>36.8</course>
<desc>Speed 12.1 km/h Distance 6.15 km</desc>
<time>2011-09-29T10:13:50.94</time>
<name>1042</name>
</trkpt>
<trkpt lat="41.629838" lon="-0.695033">
<ele>294.0</ele>
<speed>11.7</speed>
<course>29.3</course>
<desc>Speed 11.7 km/h Distance 6.16 km</desc>
<time>2011-09-29T10:13:51.94</time>
<name>1043</name>
</trkpt>
<trkpt lat="41.629865" lon="-0.695013">
<ele>294.0</ele>
<speed>12.2</speed>
<course>29.3</course>
<desc>Speed 12.2 km/h Distance 6.16 km</desc>
<time>2011-09-29T10:13:52.94</time>
<name>1044</name>
</trkpt>
<trkpt lat="41.629892" lon="-0.694993">
<ele>294.5</ele>
<speed>12.1</speed>
<course>31.6</course>
<desc>Speed 12.1 km/h Distance 6.16 km</desc>
<time>2011-09-29T10:13:53.94</time>
<name>1045</name>
</trkpt>
<trkpt lat="41.629920" lon="-0.694970">
<ele>294.5</ele>
<speed>13.2</speed>
<course>38.6</course>
<desc>Speed 13.2 km/h Distance 6.17 km</desc>
<time>2011-09-29T10:13:54.94</time>
<name>1046</name>
</trkpt>
<trkpt lat="41.629945" lon="-0.694943">
<ele>294.5</ele>
<speed>13.1</speed>
<course>41.1</course>
<desc>Speed 13.1 km/h Distance 6.17 km</desc>
<time>2011-09-29T10:13:56.31</time>
<name>1047</name>
</trkpt>
<trkpt lat="41.629995" lon="-0.694885">
<ele>294.5</ele>
<speed>13.2</speed>
<course>46.9</course>
<desc>Speed 13.2 km/h Distance 6.18 km</desc>
<time>2011-09-29T10:13:57.94</time>
<name>1048</name>
</trkpt>
<trkpt lat="41.630018" lon="-0.694852">
<ele>295.0</ele>
<speed>13.5</speed>
<course>46.9</course>
<desc>Speed 13.5 km/h Distance 6.18 km</desc>
<time>2011-09-29T10:13:59.11</time>
<name>1049</name>
</trkpt>
<trkpt lat="41.630042" lon="-0.694818">
<ele>295.0</ele>
<speed>14.0</speed>
<course>55.6</course>
<desc>Speed 14.0 km/h Distance 6.19 km</desc>
<time>2011-09-29T10:14:00.51</time>
<name>1050</name>
</trkpt>
<trkpt lat="41.630080" lon="-0.694743">
<ele>295.5</ele>
<speed>13.2</speed>
<course>57.5</course>
<desc>Speed 13.2 km/h Distance 6.19 km</desc>
<time>2011-09-29T10:14:01.94</time>
<name>1051</name>
</trkpt>
<trkpt lat="41.630097" lon="-0.694708">
<ele>296.0</ele>
<speed>13.0</speed>
<course>59.8</course>
<desc>Speed 13.0 km/h Distance 6.20 km</desc>
<time>2011-09-29T10:14:02.93</time>
<name>1052</name>
</trkpt>
<trkpt lat="41.630113" lon="-0.694670">
<ele>296.0</ele>
<speed>13.1</speed>
<course>64.3</course>
<desc>Speed 13.1 km/h Distance 6.20 km</desc>
<time>2011-09-29T10:14:03.93</time>
<name>1053</name>
</trkpt>
<trkpt lat="41.630128" lon="-0.694628">
<ele>296.0</ele>
<speed>13.6</speed>
<course>63.3</course>
<desc>Speed 13.6 km/h Distance 6.21 km</desc>
<time>2011-09-29T10:14:04.93</time>
<name>1054</name>
</trkpt>
<trkpt lat="41.630143" lon="-0.694588">
<ele>296.5</ele>
<speed>13.6</speed>
<course>64.3</course>
<desc>Speed 13.6 km/h Distance 6.21 km</desc>
<time>2011-09-29T10:14:06.01</time>
<name>1055</name>
</trkpt>
<trkpt lat="41.630158" lon="-0.694547">
<ele>296.5</ele>
<speed>13.5</speed>
<course>65.0</course>
<desc>Speed 13.5 km/h Distance 6.21 km</desc>
<time>2011-09-29T10:14:06.93</time>
<name>1056</name>
</trkpt>
<trkpt lat="41.630172" lon="-0.694508">
<ele>297.0</ele>
<speed>12.7</speed>
<course>66.0</course>
<desc>Speed 12.7 km/h Distance 6.22 km</desc>
<time>2011-09-29T10:14:07.93</time>
<name>1057</name>
</trkpt>
<trkpt lat="41.630185" lon="-0.694468">
<ele>297.5</ele>
<speed>12.7</speed>
<course>66.0</course>
<desc>Speed 12.7 km/h Distance 6.22 km</desc>
<time>2011-09-29T10:14:08.93</time>
<name>1058</name>
</trkpt>
<trkpt lat="41.630198" lon="-0.694428">
<ele>297.5</ele>
<speed>13.0</speed>
<course>69.5</course>
<desc>Speed 13.0 km/h Distance 6.22 km</desc>
<time>2011-09-29T10:14:09.93</time>
<name>1059</name>
</trkpt>
<trkpt lat="41.630210" lon="-0.694387">
<ele>298.0</ele>
<speed>13.1</speed>
<course>63.3</course>
<desc>Speed 13.1 km/h Distance 6.23 km</desc>
<time>2011-09-29T10:14:10.92</time>
<name>1060</name>
</trkpt>
<trkpt lat="41.630225" lon="-0.694347">
<ele>298.5</ele>
<speed>13.0</speed>
<course>65.0</course>
<desc>Speed 13.0 km/h Distance 6.23 km</desc>
<time>2011-09-29T10:14:11.92</time>
<name>1061</name>
</trkpt>
<trkpt lat="41.630238" lon="-0.694308">
<ele>299.0</ele>
<speed>12.6</speed>
<course>66.0</course>
<desc>Speed 12.6 km/h Distance 6.24 km</desc>
<time>2011-09-29T10:14:12.92</time>
<name>1062</name>
</trkpt>
<trkpt lat="41.630252" lon="-0.694268">
<ele>299.5</ele>
<speed>12.3</speed>
<course>67.8</course>
<desc>Speed 12.3 km/h Distance 6.24 km</desc>
<time>2011-09-29T10:14:13.92</time>
<name>1063</name>
</trkpt>
<trkpt lat="41.630263" lon="-0.694230">
<ele>300.0</ele>
<speed>12.3</speed>
<course>67.8</course>
<desc>Speed 12.3 km/h Distance 6.24 km</desc>
<time>2011-09-29T10:14:14.92</time>
<name>1064</name>
</trkpt>
<trkpt lat="41.630275" lon="-0.694192">
<ele>300.5</ele>
<speed>12.3</speed>
<course>67.8</course>
<desc>Speed 12.3 km/h Distance 6.25 km</desc>
<time>2011-09-29T10:14:18.06</time>
<name>1065</name>
</trkpt>
<trkpt lat="41.630312" lon="-0.694072">
<ele>301.0</ele>
<speed>13.5</speed>
<course>63.3</course>
<desc>Speed 13.5 km/h Distance 6.26 km</desc>
<time>2011-09-29T10:14:19.92</time>
<name>1066</name>
</trkpt>
<trkpt lat="41.630327" lon="-0.694032">
<ele>301.0</ele>
<speed>13.1</speed>
<course>58.1</course>
<desc>Speed 13.1 km/h Distance 6.26 km</desc>
<time>2011-09-29T10:14:21.30</time>
<name>1067</name>
</trkpt>
<trkpt lat="41.630360" lon="-0.693960">
<ele>301.0</ele>
<speed>12.6</speed>
<course>62.4</course>
<desc>Speed 12.6 km/h Distance 6.27 km</desc>
<time>2011-09-29T10:14:22.92</time>
<name>1068</name>
</trkpt>
<trkpt lat="41.630375" lon="-0.693922">
<ele>301.0</ele>
<speed>12.7</speed>
<course>59.8</course>
<desc>Speed 12.7 km/h Distance 6.27 km</desc>
<time>2011-09-29T10:14:23.92</time>
<name>1069</name>
</trkpt>
<trkpt lat="41.630392" lon="-0.693883">
<ele>300.5</ele>
<speed>13.2</speed>
<course>57.3</course>
<desc>Speed 13.2 km/h Distance 6.27 km</desc>
<time>2011-09-29T10:14:24.92</time>
<name>1070</name>
</trkpt>
<trkpt lat="41.630412" lon="-0.693842">
<ele>300.5</ele>
<speed>14.7</speed>
<course>56.2</course>
<desc>Speed 14.7 km/h Distance 6.28 km</desc>
<time>2011-09-29T10:14:25.92</time>
<name>1071</name>
</trkpt>
<trkpt lat="41.630435" lon="-0.693795">
<ele>300.0</ele>
<speed>16.2</speed>
<course>59.0</course>
<desc>Speed 16.2 km/h Distance 6.28 km</desc>
<time>2011-09-29T10:14:26.92</time>
<name>1072</name>
</trkpt>
<trkpt lat="41.630457" lon="-0.693747">
<ele>300.0</ele>
<speed>17.0</speed>
<course>54.4</course>
<desc>Speed 17.0 km/h Distance 6.29 km</desc>
<time>2011-09-29T10:14:27.91</time>
<name>1073</name>
</trkpt>
<trkpt lat="41.630482" lon="-0.693700">
<ele>300.0</ele>
<speed>17.2</speed>
<course>56.2</course>
<desc>Speed 17.2 km/h Distance 6.29 km</desc>
<time>2011-09-29T10:14:28.92</time>
<name>1074</name>
</trkpt>
<trkpt lat="41.630505" lon="-0.693653">
<ele>300.0</ele>
<speed>16.8</speed>
<course>59.3</course>
<desc>Speed 16.8 km/h Distance 6.30 km</desc>
<time>2011-09-29T10:14:30.55</time>
<name>1075</name>
</trkpt>
<trkpt lat="41.630545" lon="-0.693563">
<ele>300.0</ele>
<speed>14.9</speed>
<course>61.4</course>
<desc>Speed 14.9 km/h Distance 6.31 km</desc>
<time>2011-09-29T10:14:31.91</time>
<name>1076</name>
</trkpt>
<trkpt lat="41.630563" lon="-0.693518">
<ele>300.0</ele>
<speed>14.9</speed>
<course>54.1</course>
<desc>Speed 14.9 km/h Distance 6.31 km</desc>
<time>2011-09-29T10:14:32.91</time>
<name>1077</name>
</trkpt>
<trkpt lat="41.630585" lon="-0.693478">
<ele>300.0</ele>
<speed>14.6</speed>
<course>56.2</course>
<desc>Speed 14.6 km/h Distance 6.31 km</desc>
<time>2011-09-29T10:14:33.91</time>
<name>1078</name>
</trkpt>
<trkpt lat="41.630605" lon="-0.693438">
<ele>300.5</ele>
<speed>14.2</speed>
<course>57.4</course>
<desc>Speed 14.2 km/h Distance 6.32 km</desc>
<time>2011-09-29T10:14:34.91</time>
<name>1079</name>
</trkpt>
<trkpt lat="41.630623" lon="-0.693400">
<ele>300.5</ele>
<speed>13.6</speed>
<course>60.9</course>
<desc>Speed 13.6 km/h Distance 6.32 km</desc>
<time>2011-09-29T10:14:35.90</time>
<name>1080</name>
</trkpt>
<trkpt lat="41.630640" lon="-0.693360">
<ele>300.5</ele>
<speed>13.9</speed>
<course>57.3</course>
<desc>Speed 13.9 km/h Distance 6.33 km</desc>
<time>2011-09-29T10:14:36.91</time>
<name>1081</name>
</trkpt>
<trkpt lat="41.630660" lon="-0.693318">
<ele>301.0</ele>
<speed>14.6</speed>
<course>59.5</course>
<desc>Speed 14.6 km/h Distance 6.33 km</desc>
<time>2011-09-29T10:14:37.90</time>
<name>1082</name>
</trkpt>
<trkpt lat="41.630678" lon="-0.693277">
<ele>300.5</ele>
<speed>14.8</speed>
<course>57.3</course>
<desc>Speed 14.8 km/h Distance 6.33 km</desc>
<time>2011-09-29T10:14:38.90</time>
<name>1083</name>
</trkpt>
<trkpt lat="41.630698" lon="-0.693235">
<ele>301.0</ele>
<speed>15.0</speed>
<course>57.3</course>
<desc>Speed 15.0 km/h Distance 6.34 km</desc>
<time>2011-09-29T10:14:40.32</time>
<name>1084</name>
</trkpt>
<trkpt lat="41.630738" lon="-0.693152">
<ele>301.0</ele>
<speed>14.7</speed>
<course>55.2</course>
<desc>Speed 14.7 km/h Distance 6.35 km</desc>
<time>2011-09-29T10:14:41.90</time>
<name>1085</name>
</trkpt>
<trkpt lat="41.630760" lon="-0.693110">
<ele>301.0</ele>
<speed>15.0</speed>
<course>53.0</course>
<desc>Speed 15.0 km/h Distance 6.35 km</desc>
<time>2011-09-29T10:14:43.64</time>
<name>1086</name>
</trkpt>
<trkpt lat="41.630805" lon="-0.693030">
<ele>301.5</ele>
<speed>14.4</speed>
<course>50.4</course>
<desc>Speed 14.4 km/h Distance 6.36 km</desc>
<time>2011-09-29T10:14:44.90</time>
<name>1087</name>
</trkpt>
<trkpt lat="41.630827" lon="-0.692995">
<ele>301.5</ele>
<speed>13.8</speed>
<course>49.0</course>
<desc>Speed 13.8 km/h Distance 6.36 km</desc>
<time>2011-09-29T10:14:45.90</time>
<name>1088</name>
</trkpt>
<trkpt lat="41.630848" lon="-0.692962">
<ele>301.5</ele>
<speed>13.3</speed>
<course>49.0</course>
<desc>Speed 13.3 km/h Distance 6.37 km</desc>
<time>2011-09-29T10:14:47.03</time>
<name>1089</name>
</trkpt>
<trkpt lat="41.630870" lon="-0.692928">
<ele>302.0</ele>
<speed>12.7</speed>
<course>44.9</course>
<desc>Speed 12.7 km/h Distance 6.37 km</desc>
<time>2011-09-29T10:14:47.90</time>
<name>1090</name>
</trkpt>
<trkpt lat="41.630890" lon="-0.692902">
<ele>302.0</ele>
<speed>11.3</speed>
<course>42.6</course>
<desc>Speed 11.3 km/h Distance 6.37 km</desc>
<time>2011-09-29T10:14:48.90</time>
<name>1091</name>
</trkpt>
<trkpt lat="41.630912" lon="-0.692875">
<ele>302.5</ele>
<speed>11.6</speed>
<course>46.6</course>
<desc>Speed 11.6 km/h Distance 6.38 km</desc>
<time>2011-09-29T10:14:49.89</time>
<name>1092</name>
</trkpt>
<trkpt lat="41.630932" lon="-0.692847">
<ele>302.5</ele>
<speed>11.8</speed>
<course>42.2</course>
<desc>Speed 11.8 km/h Distance 6.38 km</desc>
<time>2011-09-29T10:14:50.90</time>
<name>1093</name>
</trkpt>
<trkpt lat="41.630955" lon="-0.692818">
<ele>303.0</ele>
<speed>12.2</speed>
<course>41.9</course>
<desc>Speed 12.2 km/h Distance 6.38 km</desc>
<time>2011-09-29T10:14:51.89</time>
<name>1094</name>
</trkpt>
<trkpt lat="41.630980" lon="-0.692788">
<ele>303.0</ele>
<speed>13.5</speed>
<course>41.6</course>
<desc>Speed 13.5 km/h Distance 6.39 km</desc>
<time>2011-09-29T10:14:52.89</time>
<name>1095</name>
</trkpt>
<trkpt lat="41.631007" lon="-0.692757">
<ele>303.0</ele>
<speed>13.6</speed>
<course>41.9</course>
<desc>Speed 13.6 km/h Distance 6.39 km</desc>
<time>2011-09-29T10:14:53.89</time>
<name>1096</name>
</trkpt>
<trkpt lat="41.631032" lon="-0.692727">
<ele>303.0</ele>
<speed>13.4</speed>
<course>38.6</course>
<desc>Speed 13.4 km/h Distance 6.39 km</desc>
<time>2011-09-29T10:14:54.89</time>
<name>1097</name>
</trkpt>
<trkpt lat="41.631057" lon="-0.692700">
<ele>303.5</ele>
<speed>12.9</speed>
<course>41.9</course>
<desc>Speed 12.9 km/h Distance 6.40 km</desc>
<time>2011-09-29T10:14:55.89</time>
<name>1098</name>
</trkpt>
<trkpt lat="41.631082" lon="-0.692670">
<ele>303.0</ele>
<speed>12.6</speed>
<course>43.9</course>
<desc>Speed 12.6 km/h Distance 6.40 km</desc>
<time>2011-09-29T10:14:56.89</time>
<name>1099</name>
</trkpt>
<trkpt lat="41.631105" lon="-0.692640">
<ele>303.5</ele>
<speed>13.3</speed>
<course>42.3</course>
<desc>Speed 13.3 km/h Distance 6.41 km</desc>
<time>2011-09-29T10:14:57.89</time>
<name>1100</name>
</trkpt>
<trkpt lat="41.631128" lon="-0.692612">
<ele>303.5</ele>
<speed>12.7</speed>
<course>44.1</course>
<desc>Speed 12.7 km/h Distance 6.41 km</desc>
<time>2011-09-29T10:14:59.45</time>
<name>1101</name>
</trkpt>
<trkpt lat="41.631173" lon="-0.692553">
<ele>304.0</ele>
<speed>12.8</speed>
<course>36.8</course>
<desc>Speed 12.8 km/h Distance 6.42 km</desc>
<time>2011-09-29T10:15:00.88</time>
<name>1102</name>
</trkpt>
<trkpt lat="41.631200" lon="-0.692527">
<ele>304.5</ele>
<speed>13.2</speed>
<course>48.3</course>
<desc>Speed 13.2 km/h Distance 6.42 km</desc>
<time>2011-09-29T10:15:01.88</time>
<name>1103</name>
</trkpt>
<trkpt lat="41.631220" lon="-0.692497">
<ele>304.5</ele>
<speed>12.4</speed>
<course>63.7</course>
<desc>Speed 12.4 km/h Distance 6.42 km</desc>
<time>2011-09-29T10:15:03.20</time>
<name>1104</name>
</trkpt>
<trkpt lat="41.631248" lon="-0.692420">
<ele>305.0</ele>
<speed>12.8</speed>
<course>60.2</course>
<desc>Speed 12.8 km/h Distance 6.43 km</desc>
<time>2011-09-29T10:15:04.88</time>
<name>1105</name>
</trkpt>
<trkpt lat="41.631263" lon="-0.692385">
<ele>305.0</ele>
<speed>12.4</speed>
<course>61.3</course>
<desc>Speed 12.4 km/h Distance 6.43 km</desc>
<time>2011-09-29T10:15:05.88</time>
<name>1106</name>
</trkpt>
<trkpt lat="41.631278" lon="-0.692348">
<ele>305.5</ele>
<speed>12.1</speed>
<course>58.9</course>
<desc>Speed 12.1 km/h Distance 6.44 km</desc>
<time>2011-09-29T10:15:06.88</time>
<name>1107</name>
</trkpt>
<trkpt lat="41.631293" lon="-0.692315">
<ele>305.5</ele>
<speed>12.1</speed>
<course>51.2</course>
<desc>Speed 12.1 km/h Distance 6.44 km</desc>
<time>2011-09-29T10:15:07.88</time>
<name>1108</name>
</trkpt>
<trkpt lat="41.631313" lon="-0.692282">
<ele>305.5</ele>
<speed>12.5</speed>
<course>49.8</course>
<desc>Speed 12.5 km/h Distance 6.44 km</desc>
<time>2011-09-29T10:15:09.15</time>
<name>1109</name>
</trkpt>
<trkpt lat="41.631333" lon="-0.692250">
<ele>305.5</ele>
<speed>12.3</speed>
<course>56.2</course>
<desc>Speed 12.3 km/h Distance 6.45 km</desc>
<time>2011-09-29T10:15:09.88</time>
<name>1110</name>
</trkpt>
<trkpt lat="41.631350" lon="-0.692217">
<ele>306.0</ele>
<speed>12.1</speed>
<course>52.2</course>
<desc>Speed 12.1 km/h Distance 6.45 km</desc>
<time>2011-09-29T10:15:10.87</time>
<name>1111</name>
</trkpt>
<trkpt lat="41.631368" lon="-0.692185">
<ele>306.0</ele>
<speed>11.8</speed>
<course>63.0</course>
<desc>Speed 11.8 km/h Distance 6.45 km</desc>
<time>2011-09-29T10:15:11.88</time>
<name>1112</name>
</trkpt>
<trkpt lat="41.631382" lon="-0.692150">
<ele>306.0</ele>
<speed>11.5</speed>
<course>51.8</course>
<desc>Speed 11.5 km/h Distance 6.46 km</desc>
<time>2011-09-29T10:15:12.87</time>
<name>1113</name>
</trkpt>
<trkpt lat="41.631398" lon="-0.692122">
<ele>306.5</ele>
<speed>10.8</speed>
<course>53.4</course>
<desc>Speed 10.8 km/h Distance 6.46 km</desc>
<time>2011-09-29T10:15:13.88</time>
<name>1114</name>
</trkpt>
<trkpt lat="41.631415" lon="-0.692092">
<ele>306.5</ele>
<speed>11.2</speed>
<course>52.2</course>
<desc>Speed 11.2 km/h Distance 6.46 km</desc>
<time>2011-09-29T10:15:14.88</time>
<name>1115</name>
</trkpt>
<trkpt lat="41.631433" lon="-0.692060">
<ele>306.5</ele>
<speed>11.5</speed>
<course>64.0</course>
<desc>Speed 11.5 km/h Distance 6.47 km</desc>
<time>2011-09-29T10:15:16.08</time>
<name>1116</name>
</trkpt>
<trkpt lat="41.631447" lon="-0.692023">
<ele>306.5</ele>
<speed>12.0</speed>
<course>52.2</course>
<desc>Speed 12.0 km/h Distance 6.47 km</desc>
<time>2011-09-29T10:15:16.87</time>
<name>1117</name>
</trkpt>
<trkpt lat="41.631465" lon="-0.691992">
<ele>306.5</ele>
<speed>11.8</speed>
<course>53.4</course>
<desc>Speed 11.8 km/h Distance 6.47 km</desc>
<time>2011-09-29T10:15:17.87</time>
<name>1118</name>
</trkpt>
<trkpt lat="41.631482" lon="-0.691962">
<ele>307.0</ele>
<speed>11.3</speed>
<course>50.8</course>
<desc>Speed 11.3 km/h Distance 6.48 km</desc>
<time>2011-09-29T10:15:18.87</time>
<name>1119</name>
</trkpt>
<trkpt lat="41.631500" lon="-0.691932">
<ele>307.0</ele>
<speed>11.5</speed>
<course>60.2</course>
<desc>Speed 11.5 km/h Distance 6.48 km</desc>
<time>2011-09-29T10:15:19.87</time>
<name>1120</name>
</trkpt>
<trkpt lat="41.631515" lon="-0.691897">
<ele>307.0</ele>
<speed>12.0</speed>
<course>55.0</course>
<desc>Speed 12.0 km/h Distance 6.48 km</desc>
<time>2011-09-29T10:15:21.12</time>
<name>1121</name>
</trkpt>
<trkpt lat="41.631552" lon="-0.691827">
<ele>307.0</ele>
<speed>13.2</speed>
<course>51.7</course>
<desc>Speed 13.2 km/h Distance 6.49 km</desc>
<time>2011-09-29T10:15:22.87</time>
<name>1122</name>
</trkpt>
<trkpt lat="41.631573" lon="-0.691790">
<ele>307.5</ele>
<speed>13.5</speed>
<course>56.2</course>
<desc>Speed 13.5 km/h Distance 6.49 km</desc>
<time>2011-09-29T10:15:23.87</time>
<name>1123</name>
</trkpt>
<trkpt lat="41.631592" lon="-0.691753">
<ele>307.5</ele>
<speed>13.1</speed>
<course>59.8</course>
<desc>Speed 13.1 km/h Distance 6.50 km</desc>
<time>2011-09-29T10:15:24.86</time>
<name>1124</name>
</trkpt>
<trkpt lat="41.631608" lon="-0.691715">
<ele>307.5</ele>
<speed>13.3</speed>
<course>53.9</course>
<desc>Speed 13.3 km/h Distance 6.50 km</desc>
<time>2011-09-29T10:15:25.86</time>
<name>1125</name>
</trkpt>
<trkpt lat="41.631628" lon="-0.691678">
<ele>307.5</ele>
<speed>13.2</speed>
<course>51.2</course>
<desc>Speed 13.2 km/h Distance 6.51 km</desc>
<time>2011-09-29T10:15:26.86</time>
<name>1126</name>
</trkpt>
<trkpt lat="41.631648" lon="-0.691645">
<ele>307.5</ele>
<speed>12.6</speed>
<course>52.4</course>
<desc>Speed 12.6 km/h Distance 6.51 km</desc>
<time>2011-09-29T10:15:28.65</time>
<name>1127</name>
</trkpt>
<trkpt lat="41.631687" lon="-0.691578">
<ele>307.5</ele>
<speed>12.6</speed>
<course>52.6</course>
<desc>Speed 12.6 km/h Distance 6.52 km</desc>
<time>2011-09-29T10:15:29.86</time>
<name>1128</name>
</trkpt>
<trkpt lat="41.631707" lon="-0.691543">
<ele>307.5</ele>
<speed>13.1</speed>
<course>56.2</course>
<desc>Speed 13.1 km/h Distance 6.52 km</desc>
<time>2011-09-29T10:15:30.86</time>
<name>1129</name>
</trkpt>
<trkpt lat="41.631725" lon="-0.691507">
<ele>308.0</ele>
<speed>13.1</speed>
<course>55.0</course>
<desc>Speed 13.1 km/h Distance 6.52 km</desc>
<time>2011-09-29T10:15:31.86</time>
<name>1130</name>
</trkpt>
<trkpt lat="41.631743" lon="-0.691472">
<ele>308.0</ele>
<speed>12.9</speed>
<course>56.2</course>
<desc>Speed 12.9 km/h Distance 6.53 km</desc>
<time>2011-09-29T10:15:32.86</time>
<name>1131</name>
</trkpt>
<trkpt lat="41.631762" lon="-0.691435">
<ele>308.5</ele>
<speed>13.1</speed>
<course>59.8</course>
<desc>Speed 13.1 km/h Distance 6.53 km</desc>
<time>2011-09-29T10:15:33.86</time>
<name>1132</name>
</trkpt>
<trkpt lat="41.631778" lon="-0.691397">
<ele>308.5</ele>
<speed>12.9</speed>
<course>52.6</course>
<desc>Speed 12.9 km/h Distance 6.53 km</desc>
<time>2011-09-29T10:15:34.86</time>
<name>1133</name>
</trkpt>
<trkpt lat="41.631798" lon="-0.691362">
<ele>308.5</ele>
<speed>12.7</speed>
<course>58.7</course>
<desc>Speed 12.7 km/h Distance 6.54 km</desc>
<time>2011-09-29T10:15:35.86</time>
<name>1134</name>
</trkpt>
<trkpt lat="41.631815" lon="-0.691325">
<ele>308.5</ele>
<speed>12.6</speed>
<course>58.7</course>
<desc>Speed 12.6 km/h Distance 6.54 km</desc>
<time>2011-09-29T10:15:36.86</time>
<name>1135</name>
</trkpt>
<trkpt lat="41.631832" lon="-0.691288">
<ele>308.5</ele>
<speed>12.7</speed>
<course>55.6</course>
<desc>Speed 12.7 km/h Distance 6.55 km</desc>
<time>2011-09-29T10:15:38.38</time>
<name>1136</name>
</trkpt>
<trkpt lat="41.631868" lon="-0.691217">
<ele>309.0</ele>
<speed>12.5</speed>
<course>51.3</course>
<desc>Speed 12.5 km/h Distance 6.55 km</desc>
<time>2011-09-29T10:15:39.85</time>
<name>1137</name>
</trkpt>
<trkpt lat="41.631888" lon="-0.691183">
<ele>309.5</ele>
<speed>12.7</speed>
<course>52.6</course>
<desc>Speed 12.7 km/h Distance 6.56 km</desc>
<time>2011-09-29T10:15:40.86</time>
<name>1138</name>
</trkpt>
<trkpt lat="41.631908" lon="-0.691148">
<ele>309.5</ele>
<speed>12.8</speed>
<course>51.2</course>
<desc>Speed 12.8 km/h Distance 6.56 km</desc>
<time>2011-09-29T10:15:41.86</time>
<name>1139</name>
</trkpt>
<trkpt lat="41.631928" lon="-0.691115">
<ele>309.5</ele>
<speed>13.0</speed>
<course>52.6</course>
<desc>Speed 13.0 km/h Distance 6.56 km</desc>
<time>2011-09-29T10:15:42.86</time>
<name>1140</name>
</trkpt>
<trkpt lat="41.631948" lon="-0.691080">
<ele>310.0</ele>
<speed>12.9</speed>
<course>56.2</course>
<desc>Speed 12.9 km/h Distance 6.57 km</desc>
<time>2011-09-29T10:15:43.85</time>
<name>1141</name>
</trkpt>
<trkpt lat="41.631967" lon="-0.691043">
<ele>310.0</ele>
<speed>12.9</speed>
<course>58.7</course>
<desc>Speed 12.9 km/h Distance 6.57 km</desc>
<time>2011-09-29T10:15:44.85</time>
<name>1142</name>
</trkpt>
<trkpt lat="41.631983" lon="-0.691007">
<ele>310.0</ele>
<speed>13.1</speed>
<course>57.4</course>
<desc>Speed 13.1 km/h Distance 6.57 km</desc>
<time>2011-09-29T10:15:45.85</time>
<name>1143</name>
</trkpt>
<trkpt lat="41.632002" lon="-0.690968">
<ele>310.5</ele>
<speed>13.4</speed>
<course>59.8</course>
<desc>Speed 13.4 km/h Distance 6.58 km</desc>
<time>2011-09-29T10:15:46.85</time>
<name>1144</name>
</trkpt>
<trkpt lat="41.632018" lon="-0.690930">
<ele>310.5</ele>
<speed>13.5</speed>
<course>66.0</course>
<desc>Speed 13.5 km/h Distance 6.58 km</desc>
<time>2011-09-29T10:15:48.13</time>
<name>1145</name>
</trkpt>
<trkpt lat="41.632047" lon="-0.690845">
<ele>310.5</ele>
<speed>14.0</speed>
<course>67.6</course>
<desc>Speed 14.0 km/h Distance 6.59 km</desc>
<time>2011-09-29T10:15:49.85</time>
<name>1146</name>
</trkpt>
<trkpt lat="41.632060" lon="-0.690802">
<ele>310.5</ele>
<speed>13.9</speed>
<course>66.0</course>
<desc>Speed 13.9 km/h Distance 6.59 km</desc>
<time>2011-09-29T10:15:50.85</time>
<name>1147</name>
</trkpt>
<trkpt lat="41.632073" lon="-0.690762">
<ele>311.0</ele>
<speed>13.4</speed>
<course>66.0</course>
<desc>Speed 13.4 km/h Distance 6.60 km</desc>
<time>2011-09-29T10:15:51.84</time>
<name>1148</name>
</trkpt>
<trkpt lat="41.632087" lon="-0.690722">
<ele>311.0</ele>
<speed>13.1</speed>
<course>66.0</course>
<desc>Speed 13.1 km/h Distance 6.60 km</desc>
<time>2011-09-29T10:15:52.84</time>
<name>1149</name>
</trkpt>
<trkpt lat="41.632100" lon="-0.690682">
<ele>311.0</ele>
<speed>13.0</speed>
<course>69.5</course>
<desc>Speed 13.0 km/h Distance 6.60 km</desc>
<time>2011-09-29T10:15:53.84</time>
<name>1150</name>
</trkpt>
<trkpt lat="41.632112" lon="-0.690640">
<ele>311.0</ele>
<speed>13.0</speed>
<course>68.7</course>
<desc>Speed 13.0 km/h Distance 6.61 km</desc>
<time>2011-09-29T10:15:55.07</time>
<name>1151</name>
</trkpt>
<trkpt lat="41.632123" lon="-0.690600">
<ele>311.5</ele>
<speed>13.0</speed>
<course>66.0</course>
<desc>Speed 13.0 km/h Distance 6.61 km</desc>
<time>2011-09-29T10:15:55.84</time>
<name>1152</name>
</trkpt>
<trkpt lat="41.632137" lon="-0.690560">
<ele>311.5</ele>
<speed>12.9</speed>
<course>71.5</course>
<desc>Speed 12.9 km/h Distance 6.61 km</desc>
<time>2011-09-29T10:15:56.84</time>
<name>1153</name>
</trkpt>
<trkpt lat="41.632147" lon="-0.690520">
<ele>311.5</ele>
<speed>13.0</speed>
<course>69.5</course>
<desc>Speed 13.0 km/h Distance 6.62 km</desc>
<time>2011-09-29T10:15:57.89</time>
<name>1154</name>
</trkpt>
<trkpt lat="41.632158" lon="-0.690478">
<ele>311.5</ele>
<speed>13.0</speed>
<course>71.5</course>
<desc>Speed 13.0 km/h Distance 6.62 km</desc>
<time>2011-09-29T10:15:58.84</time>
<name>1155</name>
</trkpt>
<trkpt lat="41.632168" lon="-0.690438">
<ele>311.5</ele>
<speed>12.8</speed>
<course>72.2</course>
<desc>Speed 12.8 km/h Distance 6.63 km</desc>
<time>2011-09-29T10:15:59.84</time>
<name>1156</name>
</trkpt>
<trkpt lat="41.632178" lon="-0.690397">
<ele>312.0</ele>
<speed>13.0</speed>
<course>66.0</course>
<desc>Speed 13.0 km/h Distance 6.63 km</desc>
<time>2011-09-29T10:16:00.84</time>
<name>1157</name>
</trkpt>
<trkpt lat="41.632192" lon="-0.690357">
<ele>312.0</ele>
<speed>13.1</speed>
<course>72.8</course>
<desc>Speed 13.1 km/h Distance 6.63 km</desc>
<time>2011-09-29T10:16:01.84</time>
<name>1158</name>
</trkpt>
<trkpt lat="41.632202" lon="-0.690313">
<ele>312.0</ele>
<speed>13.3</speed>
<course>72.2</course>
<desc>Speed 13.3 km/h Distance 6.64 km</desc>
<time>2011-09-29T10:16:02.83</time>
<name>1159</name>
</trkpt>
<trkpt lat="41.632212" lon="-0.690272">
<ele>312.5</ele>
<speed>13.5</speed>
<course>77.2</course>
<desc>Speed 13.5 km/h Distance 6.64 km</desc>
<time>2011-09-29T10:16:04.20</time>
<name>1160</name>
</trkpt>
<trkpt lat="41.632227" lon="-0.690183">
<ele>312.5</ele>
<speed>13.4</speed>
<course>81.2</course>
<desc>Speed 13.4 km/h Distance 6.65 km</desc>
<time>2011-09-29T10:16:05.84</time>
<name>1161</name>
</trkpt>
<trkpt lat="41.632232" lon="-0.690140">
<ele>313.0</ele>
<speed>13.2</speed>
<course>75.3</course>
<desc>Speed 13.2 km/h Distance 6.65 km</desc>
<time>2011-09-29T10:16:07.60</time>
<name>1162</name>
</trkpt>
<trkpt lat="41.632248" lon="-0.690055">
<ele>313.0</ele>
<speed>12.9</speed>
<course>77.4</course>
<desc>Speed 12.9 km/h Distance 6.66 km</desc>
<time>2011-09-29T10:16:08.83</time>
<name>1163</name>
</trkpt>
<trkpt lat="41.632255" lon="-0.690015">
<ele>313.5</ele>
<speed>12.6</speed>
<course>72.2</course>
<desc>Speed 12.6 km/h Distance 6.66 km</desc>
<time>2011-09-29T10:16:09.83</time>
<name>1164</name>
</trkpt>
<trkpt lat="41.632265" lon="-0.689973">
<ele>314.0</ele>
<speed>12.9</speed>
<course>72.2</course>
<desc>Speed 12.9 km/h Distance 6.67 km</desc>
<time>2011-09-29T10:16:10.83</time>
<name>1165</name>
</trkpt>
<trkpt lat="41.632275" lon="-0.689932">
<ele>314.0</ele>
<speed>12.8</speed>
<course>70.8</course>
<desc>Speed 12.8 km/h Distance 6.67 km</desc>
<time>2011-09-29T10:16:11.83</time>
<name>1166</name>
</trkpt>
<trkpt lat="41.632285" lon="-0.689893">
<ele>314.5</ele>
<speed>12.2</speed>
<course>73.8</course>
<desc>Speed 12.2 km/h Distance 6.67 km</desc>
<time>2011-09-29T10:16:12.83</time>
<name>1167</name>
</trkpt>
<trkpt lat="41.632293" lon="-0.689855">
<ele>315.0</ele>
<speed>12.2</speed>
<course>80.1</course>
<desc>Speed 12.2 km/h Distance 6.68 km</desc>
<time>2011-09-29T10:16:13.83</time>
<name>1168</name>
</trkpt>
<trkpt lat="41.632298" lon="-0.689817">
<ele>315.5</ele>
<speed>11.6</speed>
<course>76.3</course>
<desc>Speed 11.6 km/h Distance 6.68 km</desc>
<time>2011-09-29T10:16:14.83</time>
<name>1169</name>
</trkpt>
<trkpt lat="41.632305" lon="-0.689780">
<ele>316.0</ele>
<speed>11.5</speed>
<course>73.1</course>
<desc>Speed 11.5 km/h Distance 6.68 km</desc>
<time>2011-09-29T10:16:15.82</time>
<name>1170</name>
</trkpt>
<trkpt lat="41.632313" lon="-0.689743">
<ele>316.5</ele>
<speed>11.7</speed>
<course>77.4</course>
<desc>Speed 11.7 km/h Distance 6.69 km</desc>
<time>2011-09-29T10:16:17.32</time>
<name>1171</name>
</trkpt>
<trkpt lat="41.632325" lon="-0.689673">
<ele>317.0</ele>
<speed>10.8</speed>
<course>79.7</course>
<desc>Speed 10.8 km/h Distance 6.69 km</desc>
<time>2011-09-29T10:16:18.83</time>
<name>1172</name>
</trkpt>
<trkpt lat="41.632330" lon="-0.689637">
<ele>317.5</ele>
<speed>11.3</speed>
<course>80.1</course>
<desc>Speed 11.3 km/h Distance 6.69 km</desc>
<time>2011-09-29T10:16:19.83</time>
<name>1173</name>
</trkpt>
<trkpt lat="41.632335" lon="-0.689598">
<ele>318.0</ele>
<speed>11.7</speed>
<course>74.4</course>
<desc>Speed 11.7 km/h Distance 6.70 km</desc>
<time>2011-09-29T10:16:20.82</time>
<name>1174</name>
</trkpt>
<trkpt lat="41.632343" lon="-0.689558">
<ele>318.0</ele>
<speed>12.3</speed>
<course>74.4</course>
<desc>Speed 12.3 km/h Distance 6.70 km</desc>
<time>2011-09-29T10:16:21.82</time>
<name>1175</name>
</trkpt>
<trkpt lat="41.632352" lon="-0.689518">
<ele>318.5</ele>
<speed>12.4</speed>
<course>76.6</course>
<desc>Speed 12.4 km/h Distance 6.70 km</desc>
<time>2011-09-29T10:16:23.78</time>
<name>1176</name>
</trkpt>
<trkpt lat="41.632373" lon="-0.689397">
<ele>319.0</ele>
<speed>12.9</speed>
<course>77.4</course>
<desc>Speed 12.9 km/h Distance 6.72 km</desc>
<time>2011-09-29T10:16:25.82</time>
<name>1177</name>
</trkpt>
<trkpt lat="41.632380" lon="-0.689357">
<ele>319.0</ele>
<speed>12.6</speed>
<course>72.8</course>
<desc>Speed 12.6 km/h Distance 6.72 km</desc>
<time>2011-09-29T10:16:27.00</time>
<name>1178</name>
</trkpt>
<trkpt lat="41.632390" lon="-0.689313">
<ele>319.5</ele>
<speed>13.4</speed>
<course>72.8</course>
<desc>Speed 13.4 km/h Distance 6.72 km</desc>
<time>2011-09-29T10:16:27.82</time>
<name>1179</name>
</trkpt>
<trkpt lat="41.632400" lon="-0.689270">
<ele>319.5</ele>
<speed>13.1</speed>
<course>65.1</course>
<desc>Speed 13.1 km/h Distance 6.73 km</desc>
<time>2011-09-29T10:16:28.82</time>
<name>1180</name>
</trkpt>
<trkpt lat="41.632413" lon="-0.689232">
<ele>319.5</ele>
<speed>12.6</speed>
<course>62.4</course>
<desc>Speed 12.6 km/h Distance 6.73 km</desc>
<time>2011-09-29T10:16:29.82</time>
<name>1181</name>
</trkpt>
<trkpt lat="41.632428" lon="-0.689193">
<ele>319.5</ele>
<speed>13.0</speed>
<course>60.9</course>
<desc>Speed 13.0 km/h Distance 6.73 km</desc>
<time>2011-09-29T10:16:31.46</time>
<name>1182</name>
</trkpt>
<trkpt lat="41.632462" lon="-0.689113">
<ele>319.5</ele>
<speed>13.6</speed>
<course>66.0</course>
<desc>Speed 13.6 km/h Distance 6.74 km</desc>
<time>2011-09-29T10:16:32.82</time>
<name>1183</name>
</trkpt>
<trkpt lat="41.632475" lon="-0.689073">
<ele>319.5</ele>
<speed>13.3</speed>
<course>57.4</course>
<desc>Speed 13.3 km/h Distance 6.74 km</desc>
<time>2011-09-29T10:16:33.82</time>
<name>1184</name>
</trkpt>
<trkpt lat="41.632493" lon="-0.689035">
<ele>319.5</ele>
<speed>13.2</speed>
<course>66.7</course>
<desc>Speed 13.2 km/h Distance 6.75 km</desc>
<time>2011-09-29T10:16:34.82</time>
<name>1185</name>
</trkpt>
<trkpt lat="41.632508" lon="-0.688988">
<ele>319.5</ele>
<speed>14.9</speed>
<course>63.9</course>
<desc>Speed 14.9 km/h Distance 6.75 km</desc>
<time>2011-09-29T10:16:35.82</time>
<name>1186</name>
</trkpt>
<trkpt lat="41.632527" lon="-0.688938">
<ele>319.0</ele>
<speed>16.9</speed>
<course>58.6</course>
<desc>Speed 16.9 km/h Distance 6.76 km</desc>
<time>2011-09-29T10:16:37.32</time>
<name>1187</name>
</trkpt>
<trkpt lat="41.632578" lon="-0.688825">
<ele>318.0</ele>
<speed>20.7</speed>
<course>62.8</course>
<desc>Speed 20.7 km/h Distance 6.77 km</desc>
<time>2011-09-29T10:16:38.82</time>
<name>1188</name>
</trkpt>
<trkpt lat="41.632603" lon="-0.688760">
<ele>317.5</ele>
<speed>21.7</speed>
<course>61.8</course>
<desc>Speed 21.7 km/h Distance 6.77 km</desc>
<time>2011-09-29T10:16:39.81</time>
<name>1189</name>
</trkpt>
<trkpt lat="41.632630" lon="-0.688693">
<ele>317.0</ele>
<speed>22.5</speed>
<course>63.4</course>
<desc>Speed 22.5 km/h Distance 6.78 km</desc>
<time>2011-09-29T10:16:40.81</time>
<name>1190</name>
</trkpt>
<trkpt lat="41.632655" lon="-0.688627">
<ele>317.5</ele>
<speed>22.6</speed>
<course>63.4</course>
<desc>Speed 22.6 km/h Distance 6.79 km</desc>
<time>2011-09-29T10:16:41.81</time>
<name>1191</name>
</trkpt>
<trkpt lat="41.632680" lon="-0.688560">
<ele>317.5</ele>
<speed>22.0</speed>
<course>63.8</course>
<desc>Speed 22.0 km/h Distance 6.79 km</desc>
<time>2011-09-29T10:16:42.81</time>
<name>1192</name>
</trkpt>
<trkpt lat="41.632703" lon="-0.688497">
<ele>317.5</ele>
<speed>21.3</speed>
<course>66.0</course>
<desc>Speed 21.3 km/h Distance 6.80 km</desc>
<time>2011-09-29T10:16:43.81</time>
<name>1193</name>
</trkpt>
<trkpt lat="41.632725" lon="-0.688432">
<ele>317.5</ele>
<speed>21.0</speed>
<course>66.5</course>
<desc>Speed 21.0 km/h Distance 6.81 km</desc>
<time>2011-09-29T10:16:44.81</time>
<name>1194</name>
</trkpt>
<trkpt lat="41.632745" lon="-0.688370">
<ele>317.5</ele>
<speed>20.4</speed>
<course>68.3</course>
<desc>Speed 20.4 km/h Distance 6.81 km</desc>
<time>2011-09-29T10:16:45.80</time>
<name>1195</name>
</trkpt>
<trkpt lat="41.632763" lon="-0.688308">
<ele>318.0</ele>
<speed>19.5</speed>
<course>68.4</course>
<desc>Speed 19.5 km/h Distance 6.82 km</desc>
<time>2011-09-29T10:16:47.42</time>
<name>1196</name>
</trkpt>
<trkpt lat="41.632798" lon="-0.688190">
<ele>318.0</ele>
<speed>19.0</speed>
<course>73.0</course>
<desc>Speed 19.0 km/h Distance 6.83 km</desc>
<time>2011-09-29T10:16:48.81</time>
<name>1197</name>
</trkpt>
<trkpt lat="41.632812" lon="-0.688132">
<ele>318.5</ele>
<speed>18.5</speed>
<course>75.0</course>
<desc>Speed 18.5 km/h Distance 6.83 km</desc>
<time>2011-09-29T10:16:49.81</time>
<name>1198</name>
</trkpt>
<trkpt lat="41.632823" lon="-0.688073">
<ele>318.5</ele>
<speed>18.1</speed>
<course>79.2</course>
<desc>Speed 18.1 km/h Distance 6.84 km</desc>
<time>2011-09-29T10:16:50.81</time>
<name>1199</name>
</trkpt>
<trkpt lat="41.632832" lon="-0.688015">
<ele>318.5</ele>
<speed>17.9</speed>
<course>79.2</course>
<desc>Speed 17.9 km/h Distance 6.84 km</desc>
<time>2011-09-29T10:16:51.80</time>
<name>1200</name>
</trkpt>
<trkpt lat="41.632840" lon="-0.687957">
<ele>319.0</ele>
<speed>17.6</speed>
<course>76.7</course>
<desc>Speed 17.6 km/h Distance 6.85 km</desc>
<time>2011-09-29T10:16:52.81</time>
<name>1201</name>
</trkpt>
<trkpt lat="41.632850" lon="-0.687900">
<ele>319.0</ele>
<speed>17.7</speed>
<course>74.6</course>
<desc>Speed 17.7 km/h Distance 6.85 km</desc>
<time>2011-09-29T10:16:53.80</time>
<name>1202</name>
</trkpt>
<trkpt lat="41.632862" lon="-0.687843">
<ele>319.0</ele>
<speed>17.8</speed>
<course>75.0</course>
<desc>Speed 17.8 km/h Distance 6.86 km</desc>
<time>2011-09-29T10:16:54.80</time>
<name>1203</name>
</trkpt>
<trkpt lat="41.632873" lon="-0.687785">
<ele>319.0</ele>
<speed>18.0</speed>
<course>70.5</course>
<desc>Speed 18.0 km/h Distance 6.86 km</desc>
<time>2011-09-29T10:16:55.80</time>
<name>1204</name>
</trkpt>
<trkpt lat="41.632888" lon="-0.687728">
<ele>319.0</ele>
<speed>17.7</speed>
<course>63.6</course>
<desc>Speed 17.7 km/h Distance 6.87 km</desc>
<time>2011-09-29T10:16:57.16</time>
<name>1205</name>
</trkpt>
<trkpt lat="41.632927" lon="-0.687625">
<ele>319.0</ele>
<speed>17.6</speed>
<course>63.4</course>
<desc>Speed 17.6 km/h Distance 6.88 km</desc>
<time>2011-09-29T10:16:58.80</time>
<name>1206</name>
</trkpt>
<trkpt lat="41.632947" lon="-0.687572">
<ele>319.5</ele>
<speed>17.8</speed>
<course>64.1</course>
<desc>Speed 17.8 km/h Distance 6.88 km</desc>
<time>2011-09-29T10:16:59.80</time>
<name>1207</name>
</trkpt>
<trkpt lat="41.632967" lon="-0.687517">
<ele>319.5</ele>
<speed>18.3</speed>
<course>58.9</course>
<desc>Speed 18.3 km/h Distance 6.89 km</desc>
<time>2011-09-29T10:17:00.80</time>
<name>1208</name>
</trkpt>
<trkpt lat="41.632990" lon="-0.687465">
<ele>319.5</ele>
<speed>18.1</speed>
<course>61.5</course>
<desc>Speed 18.1 km/h Distance 6.89 km</desc>
<time>2011-09-29T10:17:01.80</time>
<name>1209</name>
</trkpt>
<trkpt lat="41.633012" lon="-0.687412">
<ele>319.5</ele>
<speed>18.3</speed>
<course>64.1</course>
<desc>Speed 18.3 km/h Distance 6.90 km</desc>
<time>2011-09-29T10:17:02.80</time>
<name>1210</name>
</trkpt>
<trkpt lat="41.633032" lon="-0.687357">
<ele>319.5</ele>
<speed>18.3</speed>
<course>67.2</course>
<desc>Speed 18.3 km/h Distance 6.90 km</desc>
<time>2011-09-29T10:17:04.09</time>
<name>1211</name>
</trkpt>
<trkpt lat="41.633067" lon="-0.687245">
<ele>320.0</ele>
<speed>18.3</speed>
<course>70.5</course>
<desc>Speed 18.3 km/h Distance 6.91 km</desc>
<time>2011-09-29T10:17:05.79</time>
<name>1212</name>
</trkpt>
<trkpt lat="41.633082" lon="-0.687188">
<ele>320.0</ele>
<speed>17.9</speed>
<course>76.7</course>
<desc>Speed 17.9 km/h Distance 6.92 km</desc>
<time>2011-09-29T10:17:06.90</time>
<name>1213</name>
</trkpt>
<trkpt lat="41.633092" lon="-0.687132">
<ele>320.0</ele>
<speed>17.8</speed>
<course>74.6</course>
<desc>Speed 17.8 km/h Distance 6.92 km</desc>
<time>2011-09-29T10:17:07.79</time>
<name>1214</name>
</trkpt>
<trkpt lat="41.633103" lon="-0.687075">
<ele>320.5</ele>
<speed>17.7</speed>
<course>72.5</course>
<desc>Speed 17.7 km/h Distance 6.93 km</desc>
<time>2011-09-29T10:17:08.79</time>
<name>1215</name>
</trkpt>
<trkpt lat="41.633117" lon="-0.687018">
<ele>320.5</ele>
<speed>18.0</speed>
<course>77.1</course>
<desc>Speed 18.0 km/h Distance 6.93 km</desc>
<time>2011-09-29T10:17:09.79</time>
<name>1216</name>
</trkpt>
<trkpt lat="41.633127" lon="-0.686960">
<ele>321.0</ele>
<speed>17.8</speed>
<course>78.5</course>
<desc>Speed 17.8 km/h Distance 6.94 km</desc>
<time>2011-09-29T10:17:10.79</time>
<name>1217</name>
</trkpt>
<trkpt lat="41.633135" lon="-0.686905">
<ele>321.5</ele>
<speed>17.2</speed>
<course>80.8</course>
<desc>Speed 17.2 km/h Distance 6.94 km</desc>
<time>2011-09-29T10:17:11.79</time>
<name>1218</name>
</trkpt>
<trkpt lat="41.633142" lon="-0.686850">
<ele>322.0</ele>
<speed>16.6</speed>
<course>80.2</course>
<desc>Speed 16.6 km/h Distance 6.95 km</desc>
<time>2011-09-29T10:17:12.79</time>
<name>1219</name>
</trkpt>
<trkpt lat="41.633148" lon="-0.686798">
<ele>322.5</ele>
<speed>16.1</speed>
<course>75.5</course>
<desc>Speed 16.1 km/h Distance 6.95 km</desc>
<time>2011-09-29T10:17:13.84</time>
<name>1220</name>
</trkpt>
<trkpt lat="41.633158" lon="-0.686747">
<ele>322.5</ele>
<speed>16.0</speed>
<course>82.6</course>
<desc>Speed 16.0 km/h Distance 6.95 km</desc>
<time>2011-09-29T10:17:14.78</time>
<name>1221</name>
</trkpt>
<trkpt lat="41.633163" lon="-0.686695">
<ele>322.5</ele>
<speed>15.9</speed>
<course>82.9</course>
<desc>Speed 15.9 km/h Distance 6.96 km</desc>
<time>2011-09-29T10:17:15.79</time>
<name>1222</name>
</trkpt>
<trkpt lat="41.633168" lon="-0.686642">
<ele>323.0</ele>
<speed>15.9</speed>
<course>85.2</course>
<desc>Speed 15.9 km/h Distance 6.96 km</desc>
<time>2011-09-29T10:17:16.79</time>
<name>1223</name>
</trkpt>
<trkpt lat="41.633172" lon="-0.686588">
<ele>323.0</ele>
<speed>16.2</speed>
<course>83.1</course>
<desc>Speed 16.2 km/h Distance 6.97 km</desc>
<time>2011-09-29T10:17:17.79</time>
<name>1224</name>
</trkpt>
<trkpt lat="41.633177" lon="-0.686533">
<ele>323.0</ele>
<speed>16.9</speed>
<course>81.1</course>
<desc>Speed 16.9 km/h Distance 6.97 km</desc>
<time>2011-09-29T10:17:18.78</time>
<name>1225</name>
</trkpt>
<trkpt lat="41.633183" lon="-0.686477">
<ele>323.0</ele>
<speed>16.9</speed>
<course>85.2</course>
<desc>Speed 16.9 km/h Distance 6.98 km</desc>
<time>2011-09-29T10:17:19.78</time>
<name>1226</name>
</trkpt>
<trkpt lat="41.633187" lon="-0.686423">
<ele>323.0</ele>
<speed>16.6</speed>
<course>83.3</course>
<desc>Speed 16.6 km/h Distance 6.98 km</desc>
<time>2011-09-29T10:17:20.78</time>
<name>1227</name>
</trkpt>
<trkpt lat="41.633192" lon="-0.686367">
<ele>323.0</ele>
<speed>16.8</speed>
<course>85.4</course>
<desc>Speed 16.8 km/h Distance 6.99 km</desc>
<time>2011-09-29T10:17:21.79</time>
<name>1228</name>
</trkpt>
<trkpt lat="41.633195" lon="-0.686312">
<ele>323.0</ele>
<speed>16.7</speed>
<course>90.0</course>
<desc>Speed 16.7 km/h Distance 6.99 km</desc>
<time>2011-09-29T10:17:22.78</time>
<name>1229</name>
</trkpt>
<trkpt lat="41.633195" lon="-0.686257">
<ele>323.5</ele>
<speed>16.5</speed>
<course>82.9</course>
<desc>Speed 16.5 km/h Distance 7.00 km</desc>
<time>2011-09-29T10:17:23.78</time>
<name>1230</name>
</trkpt>
<trkpt lat="41.633200" lon="-0.686203">
<ele>323.5</ele>
<speed>16.4</speed>
<course>82.9</course>
<desc>Speed 16.4 km/h Distance 7.00 km</desc>
<time>2011-09-29T10:17:24.78</time>
<name>1231</name>
</trkpt>
<trkpt lat="41.633205" lon="-0.686150">
<ele>323.5</ele>
<speed>16.2</speed>
<course>72.9</course>
<desc>Speed 16.2 km/h Distance 7.00 km</desc>
<time>2011-09-29T10:17:26.38</time>
<name>1232</name>
</trkpt>
<trkpt lat="41.633228" lon="-0.686048">
<ele>324.0</ele>
<speed>15.8</speed>
<course>70.4</course>
<desc>Speed 15.8 km/h Distance 7.01 km</desc>
<time>2011-09-29T10:17:27.78</time>
<name>1233</name>
</trkpt>
<trkpt lat="41.633242" lon="-0.685998">
<ele>324.0</ele>
<speed>16.1</speed>
<course>71.0</course>
<desc>Speed 16.1 km/h Distance 7.02 km</desc>
<time>2011-09-29T10:17:28.78</time>
<name>1234</name>
</trkpt>
<trkpt lat="41.633255" lon="-0.685947">
<ele>324.0</ele>
<speed>16.1</speed>
<course>62.3</course>
<desc>Speed 16.1 km/h Distance 7.02 km</desc>
<time>2011-09-29T10:17:29.78</time>
<name>1235</name>
</trkpt>
<trkpt lat="41.633273" lon="-0.685900">
<ele>324.0</ele>
<speed>16.0</speed>
<course>67.4</course>
<desc>Speed 16.0 km/h Distance 7.03 km</desc>
<time>2011-09-29T10:17:30.78</time>
<name>1236</name>
</trkpt>
<trkpt lat="41.633288" lon="-0.685852">
<ele>324.0</ele>
<speed>15.8</speed>
<course>68.1</course>
<desc>Speed 15.8 km/h Distance 7.03 km</desc>
<time>2011-09-29T10:17:31.78</time>
<name>1237</name>
</trkpt>
<trkpt lat="41.633303" lon="-0.685802">
<ele>324.5</ele>
<speed>16.0</speed>
<course>69.7</course>
<desc>Speed 16.0 km/h Distance 7.04 km</desc>
<time>2011-09-29T10:17:32.78</time>
<name>1238</name>
</trkpt>
<trkpt lat="41.633317" lon="-0.685753">
<ele>324.5</ele>
<speed>15.9</speed>
<course>78.2</course>
<desc>Speed 15.9 km/h Distance 7.04 km</desc>
<time>2011-09-29T10:17:33.78</time>
<name>1239</name>
</trkpt>
<trkpt lat="41.633325" lon="-0.685700">
<ele>324.5</ele>
<speed>16.1</speed>
<course>86.6</course>
<desc>Speed 16.1 km/h Distance 7.04 km</desc>
<time>2011-09-29T10:17:34.77</time>
<name>1240</name>
</trkpt>
<trkpt lat="41.633330" lon="-0.685587">
<ele>324.5</ele>
<speed>17.5</speed>
<course>90.0</course>
<desc>Speed 17.5 km/h Distance 7.05 km</desc>
<time>2011-09-29T10:17:36.78</time>
<name>1241</name>
</trkpt>
<trkpt lat="41.633330" lon="-0.685528">
<ele>325.0</ele>
<speed>17.5</speed>
<course>90.0</course>
<desc>Speed 17.5 km/h Distance 7.06 km</desc>
<time>2011-09-29T10:17:37.77</time>
<name>1242</name>
</trkpt>
<trkpt lat="41.633330" lon="-0.685473">
<ele>325.0</ele>
<speed>16.8</speed>
<course>97.4</course>
<desc>Speed 16.8 km/h Distance 7.06 km</desc>
<time>2011-09-29T10:17:38.78</time>
<name>1243</name>
</trkpt>
<trkpt lat="41.633325" lon="-0.685422">
<ele>326.0</ele>
<speed>15.7</speed>
<course>92.6</course>
<desc>Speed 15.7 km/h Distance 7.07 km</desc>
<time>2011-09-29T10:17:39.77</time>
<name>1244</name>
</trkpt>
<trkpt lat="41.633323" lon="-0.685372">
<ele>326.5</ele>
<speed>14.9</speed>
<course>92.6</course>
<desc>Speed 14.9 km/h Distance 7.07 km</desc>
<time>2011-09-29T10:17:40.77</time>
<name>1245</name>
</trkpt>
<trkpt lat="41.633322" lon="-0.685323">
<ele>327.0</ele>
<speed>14.5</speed>
<course>90.0</course>
<desc>Speed 14.5 km/h Distance 7.08 km</desc>
<time>2011-09-29T10:17:41.78</time>
<name>1246</name>
</trkpt>
<trkpt lat="41.633322" lon="-0.685277">
<ele>327.5</ele>
<speed>13.9</speed>
<course>75.0</course>
<desc>Speed 13.9 km/h Distance 7.08 km</desc>
<time>2011-09-29T10:17:43.11</time>
<name>1247</name>
</trkpt>
<trkpt lat="41.633338" lon="-0.685193">
<ele>328.0</ele>
<speed>13.2</speed>
<course>70.2</course>
<desc>Speed 13.2 km/h Distance 7.09 km</desc>
<time>2011-09-29T10:17:44.77</time>
<name>1248</name>
</trkpt>
<trkpt lat="41.633350" lon="-0.685150">
<ele>328.0</ele>
<speed>13.5</speed>
<course>64.8</course>
<desc>Speed 13.5 km/h Distance 7.09 km</desc>
<time>2011-09-29T10:17:45.91</time>
<name>1249</name>
</trkpt>
<trkpt lat="41.633382" lon="-0.685060">
<ele>327.5</ele>
<speed>14.5</speed>
<course>59.5</course>
<desc>Speed 14.5 km/h Distance 7.10 km</desc>
<time>2011-09-29T10:17:47.77</time>
<name>1250</name>
</trkpt>
<trkpt lat="41.633400" lon="-0.685018">
<ele>328.0</ele>
<speed>14.4</speed>
<course>72.7</course>
<desc>Speed 14.4 km/h Distance 7.10 km</desc>
<time>2011-09-29T10:17:48.77</time>
<name>1251</name>
</trkpt>
<trkpt lat="41.633412" lon="-0.684968">
<ele>327.5</ele>
<speed>15.2</speed>
<course>69.1</course>
<desc>Speed 15.2 km/h Distance 7.11 km</desc>
<time>2011-09-29T10:17:49.77</time>
<name>1252</name>
</trkpt>
<trkpt lat="41.633425" lon="-0.684922">
<ele>327.5</ele>
<speed>15.2</speed>
<course>66.0</course>
<desc>Speed 15.2 km/h Distance 7.11 km</desc>
<time>2011-09-29T10:17:50.77</time>
<name>1253</name>
</trkpt>
<trkpt lat="41.633440" lon="-0.684877">
<ele>327.5</ele>
<speed>14.8</speed>
<course>69.1</course>
<desc>Speed 14.8 km/h Distance 7.12 km</desc>
<time>2011-09-29T10:17:51.77</time>
<name>1254</name>
</trkpt>
<trkpt lat="41.633453" lon="-0.684830">
<ele>327.5</ele>
<speed>14.8</speed>
<course>64.8</course>
<desc>Speed 14.8 km/h Distance 7.12 km</desc>
<time>2011-09-29T10:17:52.85</time>
<name>1255</name>
</trkpt>
<trkpt lat="41.633485" lon="-0.684740">
<ele>328.0</ele>
<speed>14.6</speed>
<course>59.5</course>
<desc>Speed 14.6 km/h Distance 7.13 km</desc>
<time>2011-09-29T10:17:54.77</time>
<name>1256</name>
</trkpt>
<trkpt lat="41.633503" lon="-0.684698">
<ele>328.0</ele>
<speed>14.5</speed>
<course>46.3</course>
<desc>Speed 14.5 km/h Distance 7.13 km</desc>
<time>2011-09-29T10:17:55.77</time>
<name>1257</name>
</trkpt>
<trkpt lat="41.633528" lon="-0.684663">
<ele>328.0</ele>
<speed>14.4</speed>
<course>43.0</course>
<desc>Speed 14.4 km/h Distance 7.14 km</desc>
<time>2011-09-29T10:17:56.76</time>
<name>1258</name>
</trkpt>
<trkpt lat="41.633555" lon="-0.684630">
<ele>328.0</ele>
<speed>14.7</speed>
<course>39.7</course>
<desc>Speed 14.7 km/h Distance 7.14 km</desc>
<time>2011-09-29T10:17:57.76</time>
<name>1259</name>
</trkpt>
<trkpt lat="41.633585" lon="-0.684597">
<ele>327.5</ele>
<speed>15.0</speed>
<course>32.2</course>
<desc>Speed 15.0 km/h Distance 7.14 km</desc>
<time>2011-09-29T10:17:58.76</time>
<name>1260</name>
</trkpt>
<trkpt lat="41.633617" lon="-0.684570">
<ele>327.5</ele>
<speed>15.2</speed>
<course>33.8</course>
<desc>Speed 15.2 km/h Distance 7.15 km</desc>
<time>2011-09-29T10:17:59.76</time>
<name>1261</name>
</trkpt>
<trkpt lat="41.633648" lon="-0.684542">
<ele>327.5</ele>
<speed>15.0</speed>
<course>30.6</course>
<desc>Speed 15.0 km/h Distance 7.15 km</desc>
<time>2011-09-29T10:18:00.76</time>
<name>1262</name>
</trkpt>
<trkpt lat="41.633680" lon="-0.684517">
<ele>327.5</ele>
<speed>14.9</speed>
<course>29.3</course>
<desc>Speed 14.9 km/h Distance 7.16 km</desc>
<time>2011-09-29T10:18:01.77</time>
<name>1263</name>
</trkpt>
<trkpt lat="41.633713" lon="-0.684492">
<ele>327.5</ele>
<speed>15.4</speed>
<course>28.1</course>
<desc>Speed 15.4 km/h Distance 7.16 km</desc>
<time>2011-09-29T10:18:02.76</time>
<name>1264</name>
</trkpt>
<trkpt lat="41.633748" lon="-0.684467">
<ele>328.0</ele>
<speed>15.8</speed>
<course>29.7</course>
<desc>Speed 15.8 km/h Distance 7.17 km</desc>
<time>2011-09-29T10:18:03.76</time>
<name>1265</name>
</trkpt>
<trkpt lat="41.633783" lon="-0.684440">
<ele>328.5</ele>
<speed>15.7</speed>
<course>31.7</course>
<desc>Speed 15.7 km/h Distance 7.17 km</desc>
<time>2011-09-29T10:18:05.38</time>
<name>1266</name>
</trkpt>
<trkpt lat="41.633850" lon="-0.684385">
<ele>329.0</ele>
<speed>15.4</speed>
<course>36.8</course>
<desc>Speed 15.4 km/h Distance 7.18 km</desc>
<time>2011-09-29T10:18:06.76</time>
<name>1267</name>
</trkpt>
<trkpt lat="41.633882" lon="-0.684353">
<ele>329.0</ele>
<speed>15.2</speed>
<course>44.4</course>
<desc>Speed 15.2 km/h Distance 7.18 km</desc>
<time>2011-09-29T10:18:07.76</time>
<name>1268</name>
</trkpt>
<trkpt lat="41.633908" lon="-0.684318">
<ele>329.5</ele>
<speed>15.0</speed>
<course>44.0</course>
<desc>Speed 15.0 km/h Distance 7.19 km</desc>
<time>2011-09-29T10:18:08.76</time>
<name>1269</name>
</trkpt>
<trkpt lat="41.633937" lon="-0.684282">
<ele>329.5</ele>
<speed>15.3</speed>
<course>47.0</course>
<desc>Speed 15.3 km/h Distance 7.19 km</desc>
<time>2011-09-29T10:18:09.76</time>
<name>1270</name>
</trkpt>
<trkpt lat="41.633963" lon="-0.684243">
<ele>329.5</ele>
<speed>15.2</speed>
<course>55.2</course>
<desc>Speed 15.2 km/h Distance 7.20 km</desc>
<time>2011-09-29T10:18:10.76</time>
<name>1271</name>
</trkpt>
<trkpt lat="41.633985" lon="-0.684202">
<ele>329.5</ele>
<speed>15.2</speed>
<course>54.2</course>
<desc>Speed 15.2 km/h Distance 7.20 km</desc>
<time>2011-09-29T10:18:11.75</time>
<name>1272</name>
</trkpt>
<trkpt lat="41.634008" lon="-0.684158">
<ele>329.5</ele>
<speed>15.9</speed>
<course>61.0</course>
<desc>Speed 15.9 km/h Distance 7.20 km</desc>
<time>2011-09-29T10:18:12.76</time>
<name>1273</name>
</trkpt>
<trkpt lat="41.634028" lon="-0.684110">
<ele>329.0</ele>
<speed>16.6</speed>
<course>63.9</course>
<desc>Speed 16.6 km/h Distance 7.21 km</desc>
<time>2011-09-29T10:18:13.75</time>
<name>1274</name>
</trkpt>
<trkpt lat="41.634047" lon="-0.684060">
<ele>329.0</ele>
<speed>16.8</speed>
<course>67.6</course>
<desc>Speed 16.8 km/h Distance 7.21 km</desc>
<time>2011-09-29T10:18:15.49</time>
<name>1275</name>
</trkpt>
<trkpt lat="41.634095" lon="-0.683903">
<ele>329.5</ele>
<speed>17.0</speed>
<course>74.2</course>
<desc>Speed 17.0 km/h Distance 7.23 km</desc>
<time>2011-09-29T10:18:17.75</time>
<name>1276</name>
</trkpt>
<trkpt lat="41.634107" lon="-0.683848">
<ele>329.5</ele>
<speed>17.5</speed>
<course>77.1</course>
<desc>Speed 17.5 km/h Distance 7.23 km</desc>
<time>2011-09-29T10:18:18.75</time>
<name>1277</name>
</trkpt>
<trkpt lat="41.634117" lon="-0.683790">
<ele>329.5</ele>
<speed>17.9</speed>
<course>77.1</course>
<desc>Speed 17.9 km/h Distance 7.24 km</desc>
<time>2011-09-29T10:18:19.75</time>
<name>1278</name>
</trkpt>
<trkpt lat="41.634127" lon="-0.683732">
<ele>329.5</ele>
<speed>17.9</speed>
<course>79.2</course>
<desc>Speed 17.9 km/h Distance 7.24 km</desc>
<time>2011-09-29T10:18:20.75</time>
<name>1279</name>
</trkpt>
<trkpt lat="41.634135" lon="-0.683673">
<ele>329.5</ele>
<speed>18.0</speed>
<course>83.5</course>
<desc>Speed 18.0 km/h Distance 7.25 km</desc>
<time>2011-09-29T10:18:21.75</time>
<name>1280</name>
</trkpt>
<trkpt lat="41.634140" lon="-0.683615">
<ele>330.0</ele>
<speed>17.9</speed>
<course>88.8</course>
<desc>Speed 17.9 km/h Distance 7.25 km</desc>
<time>2011-09-29T10:18:23.16</time>
<name>1281</name>
</trkpt>
<trkpt lat="41.634142" lon="-0.683505">
<ele>330.5</ele>
<speed>16.0</speed>
<course>84.9</course>
<desc>Speed 16.0 km/h Distance 7.26 km</desc>
<time>2011-09-29T10:18:24.74</time>
<name>1282</name>
</trkpt>
<trkpt lat="41.634145" lon="-0.683455">
<ele>330.5</ele>
<speed>15.2</speed>
<course>76.6</course>
<desc>Speed 15.2 km/h Distance 7.27 km</desc>
<time>2011-09-29T10:18:25.88</time>
<name>1283</name>
</trkpt>
<trkpt lat="41.634163" lon="-0.683352">
<ele>331.0</ele>
<speed>15.6</speed>
<course>66.7</course>
<desc>Speed 15.6 km/h Distance 7.27 km</desc>
<time>2011-09-29T10:18:27.74</time>
<name>1284</name>
</trkpt>
<trkpt lat="41.634178" lon="-0.683305">
<ele>331.0</ele>
<speed>15.2</speed>
<course>64.5</course>
<desc>Speed 15.2 km/h Distance 7.28 km</desc>
<time>2011-09-29T10:18:28.74</time>
<name>1285</name>
</trkpt>
<trkpt lat="41.634195" lon="-0.683258">
<ele>331.5</ele>
<speed>15.6</speed>
<course>60.2</course>
<desc>Speed 15.6 km/h Distance 7.28 km</desc>
<time>2011-09-29T10:18:29.74</time>
<name>1286</name>
</trkpt>
<trkpt lat="41.634215" lon="-0.683212">
<ele>331.5</ele>
<speed>16.2</speed>
<course>57.7</course>
<desc>Speed 16.2 km/h Distance 7.29 km</desc>
<time>2011-09-29T10:18:31.74</time>
<name>1287</name>
</trkpt>
<trkpt lat="41.634298" lon="-0.683035">
<ele>331.5</ele>
<speed>15.0</speed>
<course>56.2</course>
<desc>Speed 15.0 km/h Distance 7.30 km</desc>
<time>2011-09-29T10:18:34.74</time>
<name>1288</name>
</trkpt>
<trkpt lat="41.634318" lon="-0.682995">
<ele>332.0</ele>
<speed>14.4</speed>
<course>58.5</course>
<desc>Speed 14.4 km/h Distance 7.31 km</desc>
<time>2011-09-29T10:18:35.75</time>
<name>1289</name>
</trkpt>
<trkpt lat="41.634337" lon="-0.682955">
<ele>332.0</ele>
<speed>14.3</speed>
<course>65.2</course>
<desc>Speed 14.3 km/h Distance 7.31 km</desc>
<time>2011-09-29T10:18:36.74</time>
<name>1290</name>
</trkpt>
<trkpt lat="41.634352" lon="-0.682912">
<ele>332.0</ele>
<speed>14.1</speed>
<course>64.3</course>
<desc>Speed 14.1 km/h Distance 7.32 km</desc>
<time>2011-09-29T10:18:37.73</time>
<name>1291</name>
</trkpt>
<trkpt lat="41.634367" lon="-0.682870">
<ele>332.5</ele>
<speed>14.0</speed>
<course>46.0</course>
<desc>Speed 14.0 km/h Distance 7.32 km</desc>
<time>2011-09-29T10:18:38.73</time>
<name>1292</name>
</trkpt>
<trkpt lat="41.634388" lon="-0.682840">
<ele>332.0</ele>
<speed>12.6</speed>
<course>47.5</course>
<desc>Speed 12.6 km/h Distance 7.32 km</desc>
<time>2011-09-29T10:18:39.73</time>
<name>1293</name>
</trkpt>
<trkpt lat="41.634410" lon="-0.682808">
<ele>332.5</ele>
<speed>13.1</speed>
<course>42.5</course>
<desc>Speed 13.1 km/h Distance 7.33 km</desc>
<time>2011-09-29T10:18:42.19</time>
<name>1294</name>
</trkpt>
<trkpt lat="41.634505" lon="-0.682692">
<ele>332.5</ele>
<speed>12.7</speed>
<course>43.0</course>
<desc>Speed 12.7 km/h Distance 7.34 km</desc>
<time>2011-09-29T10:18:45.44</time>
<name>1295</name>
</trkpt>
<trkpt lat="41.634552" lon="-0.682633">
<ele>333.0</ele>
<speed>13.0</speed>
<course>38.5</course>
<desc>Speed 13.0 km/h Distance 7.35 km</desc>
<time>2011-09-29T10:18:46.72</time>
<name>1296</name>
</trkpt>
<trkpt lat="41.634578" lon="-0.682605">
<ele>333.0</ele>
<speed>13.0</speed>
<course>38.6</course>
<desc>Speed 13.0 km/h Distance 7.35 km</desc>
<time>2011-09-29T10:18:47.73</time>
<name>1297</name>
</trkpt>
<trkpt lat="41.634603" lon="-0.682578">
<ele>333.0</ele>
<speed>12.5</speed>
<course>42.2</course>
<desc>Speed 12.5 km/h Distance 7.36 km</desc>
<time>2011-09-29T10:18:48.72</time>
<name>1298</name>
</trkpt>
<trkpt lat="41.634627" lon="-0.682550">
<ele>333.0</ele>
<speed>12.1</speed>
<course>42.2</course>
<desc>Speed 12.1 km/h Distance 7.36 km</desc>
<time>2011-09-29T10:18:49.72</time>
<name>1299</name>
</trkpt>
<trkpt lat="41.634650" lon="-0.682522">
<ele>333.0</ele>
<speed>12.0</speed>
<course>46.6</course>
<desc>Speed 12.0 km/h Distance 7.36 km</desc>
<time>2011-09-29T10:18:50.73</time>
<name>1300</name>
</trkpt>
<trkpt lat="41.634670" lon="-0.682493">
<ele>333.5</ele>
<speed>11.6</speed>
<course>40.5</course>
<desc>Speed 11.6 km/h Distance 7.37 km</desc>
<time>2011-09-29T10:18:51.72</time>
<name>1301</name>
</trkpt>
<trkpt lat="41.634693" lon="-0.682467">
<ele>333.5</ele>
<speed>12.1</speed>
<course>46.6</course>
<desc>Speed 12.1 km/h Distance 7.37 km</desc>
<time>2011-09-29T10:18:52.73</time>
<name>1302</name>
</trkpt>
<trkpt lat="41.634713" lon="-0.682438">
<ele>333.5</ele>
<speed>11.6</speed>
<course>46.6</course>
<desc>Speed 11.6 km/h Distance 7.37 km</desc>
<time>2011-09-29T10:18:53.72</time>
<name>1303</name>
</trkpt>
<trkpt lat="41.634733" lon="-0.682410">
<ele>334.0</ele>
<speed>11.2</speed>
<course>45.5</course>
<desc>Speed 11.2 km/h Distance 7.38 km</desc>
<time>2011-09-29T10:18:55.19</time>
<name>1304</name>
</trkpt>
<trkpt lat="41.634775" lon="-0.682353">
<ele>334.5</ele>
<speed>11.7</speed>
<course>40.5</course>
<desc>Speed 11.7 km/h Distance 7.38 km</desc>
<time>2011-09-29T10:18:56.72</time>
<name>1305</name>
</trkpt>
<trkpt lat="41.634798" lon="-0.682327">
<ele>334.5</ele>
<speed>11.8</speed>
<course>40.3</course>
<desc>Speed 11.8 km/h Distance 7.39 km</desc>
<time>2011-09-29T10:18:57.72</time>
<name>1306</name>
</trkpt>
<trkpt lat="41.634823" lon="-0.682298">
<ele>335.0</ele>
<speed>12.8</speed>
<course>38.5</course>
<desc>Speed 12.8 km/h Distance 7.39 km</desc>
<time>2011-09-29T10:18:58.72</time>
<name>1307</name>
</trkpt>
<trkpt lat="41.634850" lon="-0.682270">
<ele>335.0</ele>
<speed>13.5</speed>
<course>36.8</course>
<desc>Speed 13.5 km/h Distance 7.39 km</desc>
<time>2011-09-29T10:18:59.72</time>
<name>1308</name>
</trkpt>
<trkpt lat="41.634878" lon="-0.682242">
<ele>335.0</ele>
<speed>13.9</speed>
<course>39.9</course>
<desc>Speed 13.9 km/h Distance 7.40 km</desc>
<time>2011-09-29T10:19:00.71</time>
<name>1309</name>
</trkpt>
<trkpt lat="41.634907" lon="-0.682210">
<ele>335.0</ele>
<speed>14.2</speed>
<course>39.1</course>
<desc>Speed 14.2 km/h Distance 7.40 km</desc>
<time>2011-09-29T10:19:02.12</time>
<name>1310</name>
</trkpt>
<trkpt lat="41.634965" lon="-0.682147">
<ele>335.0</ele>
<speed>15.0</speed>
<course>36.8</course>
<desc>Speed 15.0 km/h Distance 7.41 km</desc>
<time>2011-09-29T10:19:03.71</time>
<name>1311</name>
</trkpt>
<trkpt lat="41.634997" lon="-0.682115">
<ele>335.5</ele>
<speed>15.7</speed>
<course>37.7</course>
<desc>Speed 15.7 km/h Distance 7.41 km</desc>
<time>2011-09-29T10:19:05.50</time>
<name>1312</name>
</trkpt>
<trkpt lat="41.635093" lon="-0.682015">
<ele>336.0</ele>
<speed>15.7</speed>
<course>41.1</course>
<desc>Speed 15.7 km/h Distance 7.43 km</desc>
<time>2011-09-29T10:19:07.71</time>
<name>1313</name>
</trkpt>
<trkpt lat="41.635123" lon="-0.681980">
<ele>336.0</ele>
<speed>15.7</speed>
<course>38.2</course>
<desc>Speed 15.7 km/h Distance 7.43 km</desc>
<time>2011-09-29T10:19:08.71</time>
<name>1314</name>
</trkpt>
<trkpt lat="41.635155" lon="-0.681947">
<ele>336.5</ele>
<speed>15.9</speed>
<course>38.2</course>
<desc>Speed 15.9 km/h Distance 7.44 km</desc>
<time>2011-09-29T10:19:09.71</time>
<name>1315</name>
</trkpt>
<trkpt lat="41.635187" lon="-0.681913">
<ele>336.5</ele>
<speed>15.5</speed>
<course>44.0</course>
<desc>Speed 15.5 km/h Distance 7.44 km</desc>
<time>2011-09-29T10:19:10.71</time>
<name>1316</name>
</trkpt>
<trkpt lat="41.635215" lon="-0.681877">
<ele>336.5</ele>
<speed>15.7</speed>
<course>42.4</course>
<desc>Speed 15.7 km/h Distance 7.45 km</desc>
<time>2011-09-29T10:19:11.70</time>
<name>1317</name>
</trkpt>
<trkpt lat="41.635245" lon="-0.681840">
<ele>336.5</ele>
<speed>16.1</speed>
<course>42.4</course>
<desc>Speed 16.1 km/h Distance 7.45 km</desc>
<time>2011-09-29T10:19:12.70</time>
<name>1318</name>
</trkpt>
<trkpt lat="41.635275" lon="-0.681803">
<ele>337.0</ele>
<speed>15.7</speed>
<course>43.1</course>
<desc>Speed 15.7 km/h Distance 7.46 km</desc>
<time>2011-09-29T10:19:13.71</time>
<name>1319</name>
</trkpt>
<trkpt lat="41.635302" lon="-0.681770">
<ele>337.0</ele>
<speed>14.8</speed>
<course>43.1</course>
<desc>Speed 14.8 km/h Distance 7.46 km</desc>
<time>2011-09-29T10:19:15.17</time>
<name>1320</name>
</trkpt>
<trkpt lat="41.635355" lon="-0.681703">
<ele>337.5</ele>
<speed>14.5</speed>
<course>36.8</course>
<desc>Speed 14.5 km/h Distance 7.47 km</desc>
<time>2011-09-29T10:19:16.70</time>
<name>1321</name>
</trkpt>
<trkpt lat="41.635383" lon="-0.681675">
<ele>338.0</ele>
<speed>13.8</speed>
<course>35.1</course>
<desc>Speed 13.8 km/h Distance 7.47 km</desc>
<time>2011-09-29T10:19:17.70</time>
<name>1322</name>
</trkpt>
<trkpt lat="41.635412" lon="-0.681648">
<ele>338.5</ele>
<speed>13.3</speed>
<course>46.9</course>
<desc>Speed 13.3 km/h Distance 7.48 km</desc>
<time>2011-09-29T10:19:18.70</time>
<name>1323</name>
</trkpt>
<trkpt lat="41.635435" lon="-0.681615">
<ele>339.0</ele>
<speed>13.7</speed>
<course>50.4</course>
<desc>Speed 13.7 km/h Distance 7.48 km</desc>
<time>2011-09-29T10:19:19.70</time>
<name>1324</name>
</trkpt>
<trkpt lat="41.635457" lon="-0.681580">
<ele>339.0</ele>
<speed>13.3</speed>
<course>50.4</course>
<desc>Speed 13.3 km/h Distance 7.48 km</desc>
<time>2011-09-29T10:19:20.70</time>
<name>1325</name>
</trkpt>
<trkpt lat="41.635478" lon="-0.681545">
<ele>339.5</ele>
<speed>13.4</speed>
<course>50.4</course>
<desc>Speed 13.4 km/h Distance 7.49 km</desc>
<time>2011-09-29T10:19:21.70</time>
<name>1326</name>
</trkpt>
<trkpt lat="41.635500" lon="-0.681510">
<ele>340.0</ele>
<speed>13.4</speed>
<course>45.4</course>
<desc>Speed 13.4 km/h Distance 7.49 km</desc>
<time>2011-09-29T10:19:22.70</time>
<name>1327</name>
</trkpt>
<trkpt lat="41.635523" lon="-0.681478">
<ele>340.0</ele>
<speed>12.9</speed>
<course>43.8</course>
<desc>Speed 12.9 km/h Distance 7.49 km</desc>
<time>2011-09-29T10:19:23.70</time>
<name>1328</name>
</trkpt>
<trkpt lat="41.635547" lon="-0.681448">
<ele>340.5</ele>
<speed>13.1</speed>
<course>43.4</course>
<desc>Speed 13.1 km/h Distance 7.50 km</desc>
<time>2011-09-29T10:19:24.93</time>
<name>1329</name>
</trkpt>
<trkpt lat="41.635597" lon="-0.681385">
<ele>341.0</ele>
<speed>13.6</speed>
<course>44.4</course>
<desc>Speed 13.6 km/h Distance 7.51 km</desc>
<time>2011-09-29T10:19:26.70</time>
<name>1330</name>
</trkpt>
<trkpt lat="41.635623" lon="-0.681350">
<ele>341.0</ele>
<speed>14.6</speed>
<course>39.9</course>
<desc>Speed 14.6 km/h Distance 7.51 km</desc>
<time>2011-09-29T10:19:27.69</time>
<name>1331</name>
</trkpt>
<trkpt lat="41.635652" lon="-0.681318">
<ele>341.0</ele>
<speed>14.9</speed>
<course>36.8</course>
<desc>Speed 14.9 km/h Distance 7.51 km</desc>
<time>2011-09-29T10:19:28.69</time>
<name>1332</name>
</trkpt>
<trkpt lat="41.635683" lon="-0.681287">
<ele>341.0</ele>
<speed>15.1</speed>
<course>41.3</course>
<desc>Speed 15.1 km/h Distance 7.52 km</desc>
<time>2011-09-29T10:19:29.69</time>
<name>1333</name>
</trkpt>
<trkpt lat="41.635712" lon="-0.681253">
<ele>341.0</ele>
<speed>15.1</speed>
<course>42.7</course>
<desc>Speed 15.1 km/h Distance 7.52 km</desc>
<time>2011-09-29T10:19:30.69</time>
<name>1334</name>
</trkpt>
<trkpt lat="41.635740" lon="-0.681218">
<ele>341.0</ele>
<speed>14.9</speed>
<course>46.3</course>
<desc>Speed 14.9 km/h Distance 7.53 km</desc>
<time>2011-09-29T10:19:31.85</time>
<name>1335</name>
</trkpt>
<trkpt lat="41.635765" lon="-0.681183">
<ele>341.0</ele>
<speed>14.9</speed>
<course>48.9</course>
<desc>Speed 14.9 km/h Distance 7.53 km</desc>
<time>2011-09-29T10:19:32.69</time>
<name>1336</name>
</trkpt>
<trkpt lat="41.635790" lon="-0.681145">
<ele>341.5</ele>
<speed>14.9</speed>
<course>52.0</course>
<desc>Speed 14.9 km/h Distance 7.53 km</desc>
<time>2011-09-29T10:19:33.69</time>
<name>1337</name>
</trkpt>
<trkpt lat="41.635813" lon="-0.681105">
<ele>341.5</ele>
<speed>14.9</speed>
<course>57.3</course>
<desc>Speed 14.9 km/h Distance 7.54 km</desc>
<time>2011-09-29T10:19:34.69</time>
<name>1338</name>
</trkpt>
<trkpt lat="41.635833" lon="-0.681063">
<ele>341.5</ele>
<speed>14.3</speed>
<course>56.2</course>
<desc>Speed 14.3 km/h Distance 7.54 km</desc>
<time>2011-09-29T10:19:35.69</time>
<name>1339</name>
</trkpt>
<trkpt lat="41.635853" lon="-0.681023">
<ele>341.5</ele>
<speed>14.1</speed>
<course>64.3</course>
<desc>Speed 14.1 km/h Distance 7.55 km</desc>
<time>2011-09-29T10:19:36.68</time>
<name>1340</name>
</trkpt>
<trkpt lat="41.635868" lon="-0.680982">
<ele>341.5</ele>
<speed>14.0</speed>
<course>70.9</course>
<desc>Speed 14.0 km/h Distance 7.55 km</desc>
<time>2011-09-29T10:19:37.68</time>
<name>1341</name>
</trkpt>
<trkpt lat="41.635880" lon="-0.680937">
<ele>341.5</ele>
<speed>14.2</speed>
<course>70.9</course>
<desc>Speed 14.2 km/h Distance 7.55 km</desc>
<time>2011-09-29T10:19:38.68</time>
<name>1342</name>
</trkpt>
<trkpt lat="41.635892" lon="-0.680892">
<ele>341.5</ele>
<speed>14.2</speed>
<course>74.0</course>
<desc>Speed 14.2 km/h Distance 7.56 km</desc>
<time>2011-09-29T10:19:39.68</time>
<name>1343</name>
</trkpt>
<trkpt lat="41.635902" lon="-0.680845">
<ele>341.5</ele>
<speed>14.4</speed>
<course>70.9</course>
<desc>Speed 14.4 km/h Distance 7.56 km</desc>
<time>2011-09-29T10:19:40.68</time>
<name>1344</name>
</trkpt>
<trkpt lat="41.635913" lon="-0.680800">
<ele>342.0</ele>
<speed>13.9</speed>
<course>67.6</course>
<desc>Speed 13.9 km/h Distance 7.57 km</desc>
<time>2011-09-29T10:19:41.68</time>
<name>1345</name>
</trkpt>
<trkpt lat="41.635927" lon="-0.680757">
<ele>342.0</ele>
<speed>13.9</speed>
<course>70.2</course>
<desc>Speed 13.9 km/h Distance 7.57 km</desc>
<time>2011-09-29T10:19:42.68</time>
<name>1346</name>
</trkpt>
<trkpt lat="41.635938" lon="-0.680713">
<ele>342.0</ele>
<speed>13.8</speed>
<course>67.0</course>
<desc>Speed 13.8 km/h Distance 7.57 km</desc>
<time>2011-09-29T10:19:43.83</time>
<name>1347</name>
</trkpt>
<trkpt lat="41.635992" lon="-0.680545">
<ele>343.0</ele>
<speed>14.1</speed>
<course>75.6</course>
<desc>Speed 14.1 km/h Distance 7.59 km</desc>
<time>2011-09-29T10:19:47.68</time>
<name>1348</name>
</trkpt>
<trkpt lat="41.636000" lon="-0.680502">
<ele>343.5</ele>
<speed>13.8</speed>
<course>76.1</course>
<desc>Speed 13.8 km/h Distance 7.59 km</desc>
<time>2011-09-29T10:19:48.68</time>
<name>1349</name>
</trkpt>
<trkpt lat="41.636008" lon="-0.680457">
<ele>343.5</ele>
<speed>13.5</speed>
<course>75.6</course>
<desc>Speed 13.5 km/h Distance 7.60 km</desc>
<time>2011-09-29T10:19:49.68</time>
<name>1350</name>
</trkpt>
<trkpt lat="41.636017" lon="-0.680413">
<ele>343.5</ele>
<speed>13.4</speed>
<course>69.5</course>
<desc>Speed 13.4 km/h Distance 7.60 km</desc>
<time>2011-09-29T10:19:50.68</time>
<name>1351</name>
</trkpt>
<trkpt lat="41.636028" lon="-0.680372">
<ele>343.5</ele>
<speed>13.6</speed>
<course>73.1</course>
<desc>Speed 13.6 km/h Distance 7.60 km</desc>
<time>2011-09-29T10:19:51.86</time>
<name>1352</name>
</trkpt>
<trkpt lat="41.636048" lon="-0.680283">
<ele>343.5</ele>
<speed>13.8</speed>
<course>73.4</course>
<desc>Speed 13.8 km/h Distance 7.61 km</desc>
<time>2011-09-29T10:19:53.67</time>
<name>1353</name>
</trkpt>
<trkpt lat="41.636058" lon="-0.680238">
<ele>344.0</ele>
<speed>14.1</speed>
<course>70.9</course>
<desc>Speed 14.1 km/h Distance 7.62 km</desc>
<time>2011-09-29T10:19:54.68</time>
<name>1354</name>
</trkpt>
<trkpt lat="41.636070" lon="-0.680193">
<ele>344.0</ele>
<speed>14.2</speed>
<course>73.4</course>
<desc>Speed 14.2 km/h Distance 7.62 km</desc>
<time>2011-09-29T10:19:55.67</time>
<name>1355</name>
</trkpt>
<trkpt lat="41.636080" lon="-0.680148">
<ele>344.0</ele>
<speed>14.3</speed>
<course>71.5</course>
<desc>Speed 14.3 km/h Distance 7.62 km</desc>
<time>2011-09-29T10:19:56.68</time>
<name>1356</name>
</trkpt>
<trkpt lat="41.636092" lon="-0.680102">
<ele>344.0</ele>
<speed>14.4</speed>
<course>76.1</course>
<desc>Speed 14.4 km/h Distance 7.63 km</desc>
<time>2011-09-29T10:19:57.67</time>
<name>1357</name>
</trkpt>
<trkpt lat="41.636100" lon="-0.680057">
<ele>344.0</ele>
<speed>14.3</speed>
<course>74.0</course>
<desc>Speed 14.3 km/h Distance 7.63 km</desc>
<time>2011-09-29T10:19:58.67</time>
<name>1358</name>
</trkpt>
<trkpt lat="41.636110" lon="-0.680010">
<ele>344.0</ele>
<speed>14.3</speed>
<course>73.4</course>
<desc>Speed 14.3 km/h Distance 7.64 km</desc>
<time>2011-09-29T10:19:59.67</time>
<name>1359</name>
</trkpt>
<trkpt lat="41.636120" lon="-0.679965">
<ele>344.0</ele>
<speed>14.2</speed>
<course>70.9</course>
<desc>Speed 14.2 km/h Distance 7.64 km</desc>
<time>2011-09-29T10:20:00.67</time>
<name>1360</name>
</trkpt>
<trkpt lat="41.636132" lon="-0.679920">
<ele>344.0</ele>
<speed>14.1</speed>
<course>73.4</course>
<desc>Speed 14.1 km/h Distance 7.64 km</desc>
<time>2011-09-29T10:20:01.67</time>
<name>1361</name>
</trkpt>
<trkpt lat="41.636142" lon="-0.679875">
<ele>344.0</ele>
<speed>14.1</speed>
<course>72.8</course>
<desc>Speed 14.1 km/h Distance 7.65 km</desc>
<time>2011-09-29T10:20:02.67</time>
<name>1362</name>
</trkpt>
<trkpt lat="41.636152" lon="-0.679832">
<ele>344.0</ele>
<speed>13.8</speed>
<course>70.2</course>
<desc>Speed 13.8 km/h Distance 7.65 km</desc>
<time>2011-09-29T10:20:04.40</time>
<name>1363</name>
</trkpt>
<trkpt lat="41.636175" lon="-0.679745">
<ele>344.5</ele>
<speed>13.6</speed>
<course>68.7</course>
<desc>Speed 13.6 km/h Distance 7.66 km</desc>
<time>2011-09-29T10:20:05.67</time>
<name>1364</name>
</trkpt>
<trkpt lat="41.636187" lon="-0.679705">
<ele>344.5</ele>
<speed>13.3</speed>
<course>67.6</course>
<desc>Speed 13.3 km/h Distance 7.66 km</desc>
<time>2011-09-29T10:20:06.67</time>
<name>1365</name>
</trkpt>
<trkpt lat="41.636200" lon="-0.679662">
<ele>345.0</ele>
<speed>13.8</speed>
<course>63.3</course>
<desc>Speed 13.8 km/h Distance 7.67 km</desc>
<time>2011-09-29T10:20:07.67</time>
<name>1366</name>
</trkpt>
<trkpt lat="41.636215" lon="-0.679622">
<ele>345.0</ele>
<speed>13.4</speed>
<course>60.9</course>
<desc>Speed 13.4 km/h Distance 7.67 km</desc>
<time>2011-09-29T10:20:08.67</time>
<name>1367</name>
</trkpt>
<trkpt lat="41.636232" lon="-0.679582">
<ele>345.0</ele>
<speed>13.7</speed>
<course>55.1</course>
<desc>Speed 13.7 km/h Distance 7.67 km</desc>
<time>2011-09-29T10:20:09.66</time>
<name>1368</name>
</trkpt>
<trkpt lat="41.636252" lon="-0.679543">
<ele>345.0</ele>
<speed>13.9</speed>
<course>53.9</course>
<desc>Speed 13.9 km/h Distance 7.68 km</desc>
<time>2011-09-29T10:20:10.66</time>
<name>1369</name>
</trkpt>
<trkpt lat="41.636272" lon="-0.679507">
<ele>345.5</ele>
<speed>13.5</speed>
<course>57.4</course>
<desc>Speed 13.5 km/h Distance 7.68 km</desc>
<time>2011-09-29T10:20:11.66</time>
<name>1370</name>
</trkpt>
<trkpt lat="41.636290" lon="-0.679468">
<ele>345.5</ele>
<speed>13.4</speed>
<course>57.4</course>
<desc>Speed 13.4 km/h Distance 7.69 km</desc>
<time>2011-09-29T10:20:12.66</time>
<name>1371</name>
</trkpt>
<trkpt lat="41.636308" lon="-0.679430">
<ele>346.0</ele>
<speed>13.6</speed>
<course>60.5</course>
<desc>Speed 13.6 km/h Distance 7.69 km</desc>
<time>2011-09-29T10:20:14.13</time>
<name>1372</name>
</trkpt>
<trkpt lat="41.636340" lon="-0.679355">
<ele>347.0</ele>
<speed>13.0</speed>
<course>66.8</course>
<desc>Speed 13.0 km/h Distance 7.70 km</desc>
<time>2011-09-29T10:20:15.66</time>
<name>1373</name>
</trkpt>
<trkpt lat="41.636353" lon="-0.679313">
<ele>347.5</ele>
<speed>13.0</speed>
<course>62.4</course>
<desc>Speed 13.0 km/h Distance 7.70 km</desc>
<time>2011-09-29T10:20:16.66</time>
<name>1374</name>
</trkpt>
<trkpt lat="41.636368" lon="-0.679275">
<ele>347.5</ele>
<speed>13.2</speed>
<course>72.2</course>
<desc>Speed 13.2 km/h Distance 7.70 km</desc>
<time>2011-09-29T10:20:17.66</time>
<name>1375</name>
</trkpt>
<trkpt lat="41.636378" lon="-0.679233">
<ele>347.5</ele>
<speed>13.0</speed>
<course>78.4</course>
<desc>Speed 13.0 km/h Distance 7.71 km</desc>
<time>2011-09-29T10:20:18.66</time>
<name>1376</name>
</trkpt>
<trkpt lat="41.636385" lon="-0.679190">
<ele>347.5</ele>
<speed>13.3</speed>
<course>75.6</course>
<desc>Speed 13.3 km/h Distance 7.71 km</desc>
<time>2011-09-29T10:20:19.66</time>
<name>1377</name>
</trkpt>
<trkpt lat="41.636393" lon="-0.679147">
<ele>347.5</ele>
<speed>13.5</speed>
<course>76.1</course>
<desc>Speed 13.5 km/h Distance 7.72 km</desc>
<time>2011-09-29T10:20:20.66</time>
<name>1378</name>
</trkpt>
<trkpt lat="41.636410" lon="-0.679057">
<ele>348.0</ele>
<speed>14.1</speed>
<course>82.1</course>
<desc>Speed 14.1 km/h Distance 7.72 km</desc>
<time>2011-09-29T10:20:22.66</time>
<name>1379</name>
</trkpt>
<trkpt lat="41.636415" lon="-0.679008">
<ele>348.0</ele>
<speed>14.5</speed>
<course>87.4</course>
<desc>Speed 14.5 km/h Distance 7.73 km</desc>
<time>2011-09-29T10:20:23.89</time>
<name>1380</name>
</trkpt>
<trkpt lat="41.636417" lon="-0.678960">
<ele>348.0</ele>
<speed>14.9</speed>
<course>82.6</course>
<desc>Speed 14.9 km/h Distance 7.73 km</desc>
<time>2011-09-29T10:20:24.66</time>
<name>1381</name>
</trkpt>
<trkpt lat="41.636422" lon="-0.678908">
<ele>348.0</ele>
<speed>15.3</speed>
<course>84.9</course>
<desc>Speed 15.3 km/h Distance 7.74 km</desc>
<time>2011-09-29T10:20:25.66</time>
<name>1382</name>
</trkpt>
<trkpt lat="41.636425" lon="-0.678858">
<ele>348.0</ele>
<speed>15.3</speed>
<course>87.4</course>
<desc>Speed 15.3 km/h Distance 7.74 km</desc>
<time>2011-09-29T10:20:26.65</time>
<name>1383</name>
</trkpt>
<trkpt lat="41.636427" lon="-0.678810">
<ele>348.5</ele>
<speed>14.5</speed>
<course>90.0</course>
<desc>Speed 14.5 km/h Distance 7.74 km</desc>
<time>2011-09-29T10:20:27.65</time>
<name>1384</name>
</trkpt>
<trkpt lat="41.636427" lon="-0.678765">
<ele>348.5</ele>
<speed>13.7</speed>
<course>87.2</course>
<desc>Speed 13.7 km/h Distance 7.75 km</desc>
<time>2011-09-29T10:20:28.65</time>
<name>1385</name>
</trkpt>
<trkpt lat="41.636428" lon="-0.678720">
<ele>348.5</ele>
<speed>13.5</speed>
<course>90.0</course>
<desc>Speed 13.5 km/h Distance 7.75 km</desc>
<time>2011-09-29T10:20:29.65</time>
<name>1386</name>
</trkpt>
<trkpt lat="41.636428" lon="-0.678673">
<ele>348.5</ele>
<speed>13.9</speed>
<course>87.3</course>
<desc>Speed 13.9 km/h Distance 7.76 km</desc>
<time>2011-09-29T10:20:30.82</time>
<name>1387</name>
</trkpt>
<trkpt lat="41.636430" lon="-0.678627">
<ele>348.5</ele>
<speed>14.3</speed>
<course>90.0</course>
<desc>Speed 14.3 km/h Distance 7.76 km</desc>
<time>2011-09-29T10:20:31.65</time>
<name>1388</name>
</trkpt>
<trkpt lat="41.636430" lon="-0.678580">
<ele>349.0</ele>
<speed>13.9</speed>
<course>84.3</course>
<desc>Speed 13.9 km/h Distance 7.76 km</desc>
<time>2011-09-29T10:20:32.65</time>
<name>1389</name>
</trkpt>
<trkpt lat="41.636433" lon="-0.678535">
<ele>349.5</ele>
<speed>13.9</speed>
<course>81.5</course>
<desc>Speed 13.9 km/h Distance 7.77 km</desc>
<time>2011-09-29T10:20:33.66</time>
<name>1390</name>
</trkpt>
<trkpt lat="41.636438" lon="-0.678490">
<ele>349.5</ele>
<speed>13.7</speed>
<course>84.3</course>
<desc>Speed 13.7 km/h Distance 7.77 km</desc>
<time>2011-09-29T10:20:34.65</time>
<name>1391</name>
</trkpt>
<trkpt lat="41.636442" lon="-0.678445">
<ele>349.5</ele>
<speed>13.5</speed>
<course>81.8</course>
<desc>Speed 13.5 km/h Distance 7.77 km</desc>
<time>2011-09-29T10:20:35.65</time>
<name>1392</name>
</trkpt>
<trkpt lat="41.636447" lon="-0.678398">
<ele>350.0</ele>
<speed>14.0</speed>
<course>75.6</course>
<desc>Speed 14.0 km/h Distance 7.78 km</desc>
<time>2011-09-29T10:20:36.65</time>
<name>1393</name>
</trkpt>
<trkpt lat="41.636455" lon="-0.678355">
<ele>350.5</ele>
<speed>13.7</speed>
<course>72.2</course>
<desc>Speed 13.7 km/h Distance 7.78 km</desc>
<time>2011-09-29T10:20:37.65</time>
<name>1394</name>
</trkpt>
<trkpt lat="41.636465" lon="-0.678313">
<ele>351.0</ele>
<speed>13.1</speed>
<course>66.0</course>
<desc>Speed 13.1 km/h Distance 7.79 km</desc>
<time>2011-09-29T10:20:38.65</time>
<name>1395</name>
</trkpt>
<trkpt lat="41.636478" lon="-0.678273">
<ele>351.0</ele>
<speed>13.2</speed>
<course>66.0</course>
<desc>Speed 13.2 km/h Distance 7.79 km</desc>
<time>2011-09-29T10:20:39.65</time>
<name>1396</name>
</trkpt>
<trkpt lat="41.636492" lon="-0.678233">
<ele>351.5</ele>
<speed>13.2</speed>
<course>69.5</course>
<desc>Speed 13.2 km/h Distance 7.79 km</desc>
<time>2011-09-29T10:20:40.65</time>
<name>1397</name>
</trkpt>
<trkpt lat="41.636503" lon="-0.678192">
<ele>352.0</ele>
<speed>13.2</speed>
<course>66.0</course>
<desc>Speed 13.2 km/h Distance 7.80 km</desc>
<time>2011-09-29T10:20:41.64</time>
<name>1398</name>
</trkpt>
<trkpt lat="41.636517" lon="-0.678152">
<ele>352.5</ele>
<speed>13.2</speed>
<course>69.1</course>
<desc>Speed 13.2 km/h Distance 7.80 km</desc>
<time>2011-09-29T10:20:43.35</time>
<name>1399</name>
</trkpt>
<trkpt lat="41.636540" lon="-0.678070">
<ele>352.5</ele>
<speed>13.0</speed>
<course>66.8</course>
<desc>Speed 13.0 km/h Distance 7.81 km</desc>
<time>2011-09-29T10:20:44.64</time>
<name>1400</name>
</trkpt>
<trkpt lat="41.636553" lon="-0.678028">
<ele>353.0</ele>
<speed>13.5</speed>
<course>67.6</course>
<desc>Speed 13.5 km/h Distance 7.81 km</desc>
<time>2011-09-29T10:20:45.64</time>
<name>1401</name>
</trkpt>
<trkpt lat="41.636567" lon="-0.677985">
<ele>353.0</ele>
<speed>14.1</speed>
<course>66.0</course>
<desc>Speed 14.1 km/h Distance 7.81 km</desc>
<time>2011-09-29T10:20:46.64</time>
<name>1402</name>
</trkpt>
<trkpt lat="41.636582" lon="-0.677940">
<ele>353.0</ele>
<speed>14.3</speed>
<course>73.4</course>
<desc>Speed 14.3 km/h Distance 7.82 km</desc>
<time>2011-09-29T10:20:47.64</time>
<name>1403</name>
</trkpt>
<trkpt lat="41.636592" lon="-0.677895">
<ele>353.0</ele>
<speed>14.1</speed>
<course>72.8</course>
<desc>Speed 14.1 km/h Distance 7.82 km</desc>
<time>2011-09-29T10:20:48.65</time>
<name>1404</name>
</trkpt>
<trkpt lat="41.636602" lon="-0.677852">
<ele>353.0</ele>
<speed>13.6</speed>
<course>70.2</course>
<desc>Speed 13.6 km/h Distance 7.83 km</desc>
<time>2011-09-29T10:20:49.64</time>
<name>1405</name>
</trkpt>
<trkpt lat="41.636613" lon="-0.677808">
<ele>353.5</ele>
<speed>13.6</speed>
<course>72.8</course>
<desc>Speed 13.6 km/h Distance 7.83 km</desc>
<time>2011-09-29T10:20:50.65</time>
<name>1406</name>
</trkpt>
<trkpt lat="41.636623" lon="-0.677765">
<ele>353.5</ele>
<speed>13.4</speed>
<course>69.5</course>
<desc>Speed 13.4 km/h Distance 7.83 km</desc>
<time>2011-09-29T10:20:51.64</time>
<name>1407</name>
</trkpt>
<trkpt lat="41.636635" lon="-0.677723">
<ele>353.5</ele>
<speed>13.4</speed>
<course>71.2</course>
<desc>Speed 13.4 km/h Distance 7.84 km</desc>
<time>2011-09-29T10:20:53.08</time>
<name>1408</name>
</trkpt>
<trkpt lat="41.636657" lon="-0.677638">
<ele>354.0</ele>
<speed>13.3</speed>
<course>72.2</course>
<desc>Speed 13.3 km/h Distance 7.85 km</desc>
<time>2011-09-29T10:20:54.64</time>
<name>1409</name>
</trkpt>
<trkpt lat="41.636667" lon="-0.677597">
<ele>354.0</ele>
<speed>13.1</speed>
<course>72.8</course>
<desc>Speed 13.1 km/h Distance 7.85 km</desc>
<time>2011-09-29T10:20:55.64</time>
<name>1410</name>
</trkpt>
<trkpt lat="41.636677" lon="-0.677553">
<ele>354.0</ele>
<speed>13.4</speed>
<course>75.6</course>
<desc>Speed 13.4 km/h Distance 7.85 km</desc>
<time>2011-09-29T10:20:56.64</time>
<name>1411</name>
</trkpt>
<trkpt lat="41.636685" lon="-0.677510">
<ele>354.0</ele>
<speed>13.5</speed>
<course>75.6</course>
<desc>Speed 13.5 km/h Distance 7.86 km</desc>
<time>2011-09-29T10:20:57.63</time>
<name>1412</name>
</trkpt>
<trkpt lat="41.636693" lon="-0.677467">
<ele>354.0</ele>
<speed>13.5</speed>
<course>72.8</course>
<desc>Speed 13.5 km/h Distance 7.86 km</desc>
<time>2011-09-29T10:20:58.64</time>
<name>1413</name>
</trkpt>
<trkpt lat="41.636703" lon="-0.677423">
<ele>354.0</ele>
<speed>13.3</speed>
<course>74.2</course>
<desc>Speed 13.3 km/h Distance 7.86 km</desc>
<time>2011-09-29T10:21:00.02</time>
<name>1414</name>
</trkpt>
<trkpt lat="41.636722" lon="-0.677337">
<ele>354.5</ele>
<speed>13.8</speed>
<course>76.1</course>
<desc>Speed 13.8 km/h Distance 7.87 km</desc>
<time>2011-09-29T10:21:01.63</time>
<name>1415</name>
</trkpt>
<trkpt lat="41.636730" lon="-0.677292">
<ele>354.5</ele>
<speed>13.7</speed>
<course>78.4</course>
<desc>Speed 13.7 km/h Distance 7.88 km</desc>
<time>2011-09-29T10:21:02.82</time>
<name>1416</name>
</trkpt>
<trkpt lat="41.636737" lon="-0.677248">
<ele>354.5</ele>
<speed>13.4</speed>
<course>78.4</course>
<desc>Speed 13.4 km/h Distance 7.88 km</desc>
<time>2011-09-29T10:21:03.63</time>
<name>1417</name>
</trkpt>
<trkpt lat="41.636743" lon="-0.677205">
<ele>355.0</ele>
<speed>13.4</speed>
<course>75.6</course>
<desc>Speed 13.4 km/h Distance 7.88 km</desc>
<time>2011-09-29T10:21:04.63</time>
<name>1418</name>
</trkpt>
<trkpt lat="41.636752" lon="-0.677162">
<ele>355.0</ele>
<speed>13.2</speed>
<course>78.4</course>
<desc>Speed 13.2 km/h Distance 7.89 km</desc>
<time>2011-09-29T10:21:05.63</time>
<name>1419</name>
</trkpt>
<trkpt lat="41.636758" lon="-0.677118">
<ele>355.0</ele>
<speed>13.7</speed>
<course>76.1</course>
<desc>Speed 13.7 km/h Distance 7.89 km</desc>
<time>2011-09-29T10:21:06.63</time>
<name>1420</name>
</trkpt>
<trkpt lat="41.636767" lon="-0.677073">
<ele>355.0</ele>
<speed>13.6</speed>
<course>84.3</course>
<desc>Speed 13.6 km/h Distance 7.89 km</desc>
<time>2011-09-29T10:21:07.63</time>
<name>1421</name>
</trkpt>
<trkpt lat="41.636770" lon="-0.677028">
<ele>355.0</ele>
<speed>13.8</speed>
<course>84.5</course>
<desc>Speed 13.8 km/h Distance 7.90 km</desc>
<time>2011-09-29T10:21:08.63</time>
<name>1422</name>
</trkpt>
<trkpt lat="41.636773" lon="-0.676982">
<ele>355.5</ele>
<speed>14.0</speed>
<course>81.5</course>
<desc>Speed 14.0 km/h Distance 7.90 km</desc>
<time>2011-09-29T10:21:09.76</time>
<name>1423</name>
</trkpt>
<trkpt lat="41.636778" lon="-0.676937">
<ele>355.5</ele>
<speed>13.8</speed>
<course>81.5</course>
<desc>Speed 13.8 km/h Distance 7.91 km</desc>
<time>2011-09-29T10:21:10.63</time>
<name>1424</name>
</trkpt>
<trkpt lat="41.636783" lon="-0.676892">
<ele>355.5</ele>
<speed>13.6</speed>
<course>87.2</course>
<desc>Speed 13.6 km/h Distance 7.91 km</desc>
<time>2011-09-29T10:21:11.62</time>
<name>1425</name>
</trkpt>
<trkpt lat="41.636785" lon="-0.676847">
<ele>356.0</ele>
<speed>13.6</speed>
<course>81.2</course>
<desc>Speed 13.6 km/h Distance 7.91 km</desc>
<time>2011-09-29T10:21:12.62</time>
<name>1426</name>
</trkpt>
<trkpt lat="41.636790" lon="-0.676803">
<ele>356.0</ele>
<speed>13.4</speed>
<course>81.5</course>
<desc>Speed 13.4 km/h Distance 7.92 km</desc>
<time>2011-09-29T10:21:13.62</time>
<name>1427</name>
</trkpt>
<trkpt lat="41.636795" lon="-0.676758">
<ele>356.5</ele>
<speed>13.7</speed>
<course>78.8</course>
<desc>Speed 13.7 km/h Distance 7.92 km</desc>
<time>2011-09-29T10:21:14.62</time>
<name>1428</name>
</trkpt>
<trkpt lat="41.636802" lon="-0.676713">
<ele>356.5</ele>
<speed>13.8</speed>
<course>78.4</course>
<desc>Speed 13.8 km/h Distance 7.92 km</desc>
<time>2011-09-29T10:21:15.62</time>
<name>1429</name>
</trkpt>
<trkpt lat="41.636808" lon="-0.676670">
<ele>357.0</ele>
<speed>13.7</speed>
<course>81.5</course>
<desc>Speed 13.7 km/h Distance 7.93 km</desc>
<time>2011-09-29T10:21:16.62</time>
<name>1430</name>
</trkpt>
<trkpt lat="41.636813" lon="-0.676625">
<ele>357.0</ele>
<speed>13.7</speed>
<course>87.3</course>
<desc>Speed 13.7 km/h Distance 7.93 km</desc>
<time>2011-09-29T10:21:17.62</time>
<name>1431</name>
</trkpt>
<trkpt lat="41.636815" lon="-0.676578">
<ele>357.5</ele>
<speed>13.7</speed>
<course>81.2</course>
<desc>Speed 13.7 km/h Distance 7.94 km</desc>
<time>2011-09-29T10:21:18.62</time>
<name>1432</name>
</trkpt>
<trkpt lat="41.636820" lon="-0.676535">
<ele>357.5</ele>
<speed>13.4</speed>
<course>78.4</course>
<desc>Speed 13.4 km/h Distance 7.94 km</desc>
<time>2011-09-29T10:21:19.62</time>
<name>1433</name>
</trkpt>
<trkpt lat="41.636827" lon="-0.676492">
<ele>358.0</ele>
<speed>13.1</speed>
<course>81.2</course>
<desc>Speed 13.1 km/h Distance 7.94 km</desc>
<time>2011-09-29T10:21:20.62</time>
<name>1434</name>
</trkpt>
<trkpt lat="41.636832" lon="-0.676448">
<ele>358.0</ele>
<speed>13.4</speed>
<course>73.9</course>
<desc>Speed 13.4 km/h Distance 7.95 km</desc>
<time>2011-09-29T10:21:22.30</time>
<name>1435</name>
</trkpt>
<trkpt lat="41.636850" lon="-0.676363">
<ele>358.5</ele>
<speed>13.2</speed>
<course>72.2</course>
<desc>Speed 13.2 km/h Distance 7.95 km</desc>
<time>2011-09-29T10:21:23.62</time>
<name>1436</name>
</trkpt>
<trkpt lat="41.636860" lon="-0.676322">
<ele>359.0</ele>
<speed>13.0</speed>
<course>71.5</course>
<desc>Speed 13.0 km/h Distance 7.96 km</desc>
<time>2011-09-29T10:21:24.62</time>
<name>1437</name>
</trkpt>
<trkpt lat="41.636870" lon="-0.676282">
<ele>359.0</ele>
<speed>12.7</speed>
<course>70.8</course>
<desc>Speed 12.7 km/h Distance 7.96 km</desc>
<time>2011-09-29T10:21:25.62</time>
<name>1438</name>
</trkpt>
<trkpt lat="41.636880" lon="-0.676243">
<ele>359.0</ele>
<speed>12.2</speed>
<course>70.8</course>
<desc>Speed 12.2 km/h Distance 7.96 km</desc>
<time>2011-09-29T10:21:26.62</time>
<name>1439</name>
</trkpt>
<trkpt lat="41.636890" lon="-0.676205">
<ele>359.0</ele>
<speed>12.2</speed>
<course>78.4</course>
<desc>Speed 12.2 km/h Distance 7.97 km</desc>
<time>2011-09-29T10:21:27.62</time>
<name>1440</name>
</trkpt>
<trkpt lat="41.636897" lon="-0.676162">
<ele>359.0</ele>
<speed>13.0</speed>
<course>79.2</course>
<desc>Speed 13.0 km/h Distance 7.97 km</desc>
<time>2011-09-29T10:21:28.62</time>
<name>1441</name>
</trkpt>
<trkpt lat="41.636903" lon="-0.676115">
<ele>359.0</ele>
<speed>14.4</speed>
<course>82.9</course>
<desc>Speed 14.4 km/h Distance 7.98 km</desc>
<time>2011-09-29T10:21:29.62</time>
<name>1442</name>
</trkpt>
<trkpt lat="41.636908" lon="-0.676062">
<ele>358.5</ele>
<speed>16.4</speed>
<course>83.8</course>
<desc>Speed 16.4 km/h Distance 7.98 km</desc>
<time>2011-09-29T10:21:30.61</time>
<name>1443</name>
</trkpt>
<trkpt lat="41.636913" lon="-0.676000">
<ele>358.0</ele>
<speed>18.2</speed>
<course>84.6</course>
<desc>Speed 18.2 km/h Distance 7.99 km</desc>
<time>2011-09-29T10:21:32.04</time>
<name>1444</name>
</trkpt>
<trkpt lat="41.636923" lon="-0.675858">
<ele>357.0</ele>
<speed>22.6</speed>
<course>85.5</course>
<desc>Speed 22.6 km/h Distance 8.00 km</desc>
<time>2011-09-29T10:21:33.62</time>
<name>1445</name>
</trkpt>
<trkpt lat="41.636928" lon="-0.675773">
<ele>356.5</ele>
<speed>25.4</speed>
<course>83.1</course>
<desc>Speed 25.4 km/h Distance 8.00 km</desc>
<time>2011-09-29T10:21:34.61</time>
<name>1446</name>
</trkpt>
<trkpt lat="41.636937" lon="-0.675682">
<ele>356.0</ele>
<speed>27.5</speed>
<course>83.5</course>
<desc>Speed 27.5 km/h Distance 8.01 km</desc>
<time>2011-09-29T10:21:35.61</time>
<name>1447</name>
</trkpt>
<trkpt lat="41.636945" lon="-0.675583">
<ele>355.0</ele>
<speed>29.7</speed>
<course>80.2</course>
<desc>Speed 29.7 km/h Distance 8.02 km</desc>
<time>2011-09-29T10:21:36.61</time>
<name>1448</name>
</trkpt>
<trkpt lat="41.636958" lon="-0.675480">
<ele>354.5</ele>
<speed>31.4</speed>
<course>77.0</course>
<desc>Speed 31.4 km/h Distance 8.03 km</desc>
<time>2011-09-29T10:21:37.61</time>
<name>1449</name>
</trkpt>
<trkpt lat="41.636977" lon="-0.675373">
<ele>354.0</ele>
<speed>32.6</speed>
<course>75.8</course>
<desc>Speed 32.6 km/h Distance 8.04 km</desc>
<time>2011-09-29T10:21:38.97</time>
<name>1450</name>
</trkpt>
<trkpt lat="41.637020" lon="-0.675145">
<ele>352.0</ele>
<speed>35.7</speed>
<course>75.4</course>
<desc>Speed 35.7 km/h Distance 8.06 km</desc>
<time>2011-09-29T10:21:40.61</time>
<name>1451</name>
</trkpt>
<trkpt lat="41.637043" lon="-0.675025">
<ele>351.5</ele>
<speed>37.0</speed>
<course>74.8</course>
<desc>Speed 37.0 km/h Distance 8.07 km</desc>
<time>2011-09-29T10:21:41.77</time>
<name>1452</name>
</trkpt>
<trkpt lat="41.637092" lon="-0.674787">
<ele>350.0</ele>
<speed>36.1</speed>
<course>78.9</course>
<desc>Speed 36.1 km/h Distance 8.09 km</desc>
<time>2011-09-29T10:21:43.61</time>
<name>1453</name>
</trkpt>
<trkpt lat="41.637108" lon="-0.674673">
<ele>349.0</ele>
<speed>34.6</speed>
<course>83.3</course>
<desc>Speed 34.6 km/h Distance 8.10 km</desc>
<time>2011-09-29T10:21:44.61</time>
<name>1454</name>
</trkpt>
<trkpt lat="41.637118" lon="-0.674560">
<ele>348.0</ele>
<speed>34.3</speed>
<course>79.3</course>
<desc>Speed 34.3 km/h Distance 8.11 km</desc>
<time>2011-09-29T10:21:45.61</time>
<name>1455</name>
</trkpt>
<trkpt lat="41.637133" lon="-0.674453">
<ele>347.0</ele>
<speed>32.6</speed>
<course>68.8</course>
<desc>Speed 32.6 km/h Distance 8.12 km</desc>
<time>2011-09-29T10:21:46.60</time>
<name>1456</name>
</trkpt>
<trkpt lat="41.637163" lon="-0.674350">
<ele>346.5</ele>
<speed>33.3</speed>
<course>43.9</course>
<desc>Speed 33.3 km/h Distance 8.13 km</desc>
<time>2011-09-29T10:21:47.61</time>
<name>1457</name>
</trkpt>
<trkpt lat="41.637233" lon="-0.674260">
<ele>345.5</ele>
<speed>38.4</speed>
<course>43.6</course>
<desc>Speed 38.4 km/h Distance 8.14 km</desc>
<time>2011-09-29T10:21:48.70</time>
<name>1458</name>
</trkpt>
<trkpt lat="41.637300" lon="-0.674175">
<ele>344.5</ele>
<speed>37.5</speed>
<course>38.5</course>
<desc>Speed 37.5 km/h Distance 8.15 km</desc>
<time>2011-09-29T10:21:49.60</time>
<name>1459</name>
</trkpt>
<trkpt lat="41.637378" lon="-0.674092">
<ele>343.5</ele>
<speed>39.6</speed>
<course>37.3</course>
<desc>Speed 39.6 km/h Distance 8.16 km</desc>
<time>2011-09-29T10:21:50.61</time>
<name>1460</name>
</trkpt>
<trkpt lat="41.637460" lon="-0.674008">
<ele>342.5</ele>
<speed>40.8</speed>
<course>42.3</course>
<desc>Speed 40.8 km/h Distance 8.17 km</desc>
<time>2011-09-29T10:21:51.60</time>
<name>1461</name>
</trkpt>
<trkpt lat="41.637537" lon="-0.673915">
<ele>342.0</ele>
<speed>41.5</speed>
<course>41.2</course>
<desc>Speed 41.5 km/h Distance 8.18 km</desc>
<time>2011-09-29T10:21:52.60</time>
<name>1462</name>
</trkpt>
<trkpt lat="41.637615" lon="-0.673823">
<ele>341.5</ele>
<speed>41.7</speed>
<course>39.5</course>
<desc>Speed 41.7 km/h Distance 8.19 km</desc>
<time>2011-09-29T10:21:53.60</time>
<name>1463</name>
</trkpt>
<trkpt lat="41.637695" lon="-0.673735">
<ele>341.0</ele>
<speed>41.8</speed>
<course>39.5</course>
<desc>Speed 41.8 km/h Distance 8.20 km</desc>
<time>2011-09-29T10:21:54.60</time>
<name>1464</name>
</trkpt>
<trkpt lat="41.637775" lon="-0.673647">
<ele>341.0</ele>
<speed>41.5</speed>
<course>40.1</course>
<desc>Speed 41.5 km/h Distance 8.22 km</desc>
<time>2011-09-29T10:21:55.60</time>
<name>1465</name>
</trkpt>
<trkpt lat="41.637853" lon="-0.673558">
<ele>340.5</ele>
<speed>40.7</speed>
<course>40.2</course>
<desc>Speed 40.7 km/h Distance 8.23 km</desc>
<time>2011-09-29T10:21:56.60</time>
<name>1466</name>
</trkpt>
<trkpt lat="41.637930" lon="-0.673472">
<ele>340.5</ele>
<speed>40.1</speed>
<course>43.7</course>
<desc>Speed 40.1 km/h Distance 8.24 km</desc>
<time>2011-09-29T10:21:57.59</time>
<name>1467</name>
</trkpt>
<trkpt lat="41.638002" lon="-0.673380">
<ele>340.5</ele>
<speed>39.6</speed>
<course>43.9</course>
<desc>Speed 39.6 km/h Distance 8.25 km</desc>
<time>2011-09-29T10:21:58.59</time>
<name>1468</name>
</trkpt>
<trkpt lat="41.638072" lon="-0.673290">
<ele>340.0</ele>
<speed>38.8</speed>
<course>44.2</course>
<desc>Speed 38.8 km/h Distance 8.26 km</desc>
<time>2011-09-29T10:21:59.86</time>
<name>1469</name>
</trkpt>
<trkpt lat="41.638267" lon="-0.673037">
<ele>340.0</ele>
<speed>35.3</speed>
<course>42.0</course>
<desc>Speed 35.3 km/h Distance 8.29 km</desc>
<time>2011-09-29T10:22:02.59</time>
<name>1470</name>
</trkpt>
<trkpt lat="41.638332" lon="-0.672958">
<ele>340.0</ele>
<speed>35.0</speed>
<course>42.9</course>
<desc>Speed 35.0 km/h Distance 8.30 km</desc>
<time>2011-09-29T10:22:03.59</time>
<name>1471</name>
</trkpt>
<trkpt lat="41.638393" lon="-0.672882">
<ele>340.0</ele>
<speed>33.7</speed>
<course>44.3</course>
<desc>Speed 33.7 km/h Distance 8.31 km</desc>
<time>2011-09-29T10:22:04.59</time>
<name>1472</name>
</trkpt>
<trkpt lat="41.638453" lon="-0.672803">
<ele>340.0</ele>
<speed>33.0</speed>
<course>48.3</course>
<desc>Speed 33.0 km/h Distance 8.32 km</desc>
<time>2011-09-29T10:22:05.59</time>
<name>1473</name>
</trkpt>
<trkpt lat="41.638507" lon="-0.672723">
<ele>340.0</ele>
<speed>31.8</speed>
<course>59.3</course>
<desc>Speed 31.8 km/h Distance 8.33 km</desc>
<time>2011-09-29T10:22:06.59</time>
<name>1474</name>
</trkpt>
<trkpt lat="41.638547" lon="-0.672633">
<ele>340.0</ele>
<speed>31.2</speed>
<course>74.5</course>
<desc>Speed 31.2 km/h Distance 8.34 km</desc>
<time>2011-09-29T10:22:07.58</time>
<name>1475</name>
</trkpt>
<trkpt lat="41.638567" lon="-0.672537">
<ele>340.0</ele>
<speed>30.0</speed>
<course>93.4</course>
<desc>Speed 30.0 km/h Distance 8.34 km</desc>
<time>2011-09-29T10:22:08.80</time>
<name>1476</name>
</trkpt>
<trkpt lat="41.638558" lon="-0.672350">
<ele>341.0</ele>
<speed>26.9</speed>
<course>97.9</course>
<desc>Speed 26.9 km/h Distance 8.36 km</desc>
<time>2011-09-29T10:22:10.58</time>
<name>1477</name>
</trkpt>
<trkpt lat="41.638550" lon="-0.672270">
<ele>341.0</ele>
<speed>24.4</speed>
<course>96.6</course>
<desc>Speed 24.4 km/h Distance 8.37 km</desc>
<time>2011-09-29T10:22:11.61</time>
<name>1478</name>
</trkpt>
<trkpt lat="41.638543" lon="-0.672193">
<ele>341.0</ele>
<speed>23.2</speed>
<course>99.7</course>
<desc>Speed 23.2 km/h Distance 8.37 km</desc>
<time>2011-09-29T10:22:12.58</time>
<name>1479</name>
</trkpt>
<trkpt lat="41.638533" lon="-0.672115">
<ele>341.0</ele>
<speed>23.3</speed>
<course>97.9</course>
<desc>Speed 23.3 km/h Distance 8.38 km</desc>
<time>2011-09-29T10:22:13.58</time>
<name>1480</name>
</trkpt>
<trkpt lat="41.638525" lon="-0.672035">
<ele>340.5</ele>
<speed>24.2</speed>
<course>95.8</course>
<desc>Speed 24.2 km/h Distance 8.39 km</desc>
<time>2011-09-29T10:22:14.58</time>
<name>1481</name>
</trkpt>
<trkpt lat="41.638518" lon="-0.671947">
<ele>339.5</ele>
<speed>26.8</speed>
<course>91.3</course>
<desc>Speed 26.8 km/h Distance 8.39 km</desc>
<time>2011-09-29T10:22:15.58</time>
<name>1482</name>
</trkpt>
<trkpt lat="41.638517" lon="-0.671847">
<ele>338.5</ele>
<speed>29.6</speed>
<course>87.6</course>
<desc>Speed 29.6 km/h Distance 8.40 km</desc>
<time>2011-09-29T10:22:16.58</time>
<name>1483</name>
</trkpt>
<trkpt lat="41.638520" lon="-0.671740">
<ele>338.0</ele>
<speed>32.4</speed>
<course>85.5</course>
<desc>Speed 32.4 km/h Distance 8.41 km</desc>
<time>2011-09-29T10:22:17.58</time>
<name>1484</name>
</trkpt>
<trkpt lat="41.638527" lon="-0.671627">
<ele>337.0</ele>
<speed>34.3</speed>
<course>82.4</course>
<desc>Speed 34.3 km/h Distance 8.42 km</desc>
<time>2011-09-29T10:22:18.58</time>
<name>1485</name>
</trkpt>
<trkpt lat="41.638538" lon="-0.671510">
<ele>336.5</ele>
<speed>35.4</speed>
<course>81.7</course>
<desc>Speed 35.4 km/h Distance 8.43 km</desc>
<time>2011-09-29T10:22:19.57</time>
<name>1486</name>
</trkpt>
<trkpt lat="41.638577" lon="-0.671160">
<ele>335.0</ele>
<speed>35.6</speed>
<course>84.5</course>
<desc>Speed 35.6 km/h Distance 8.46 km</desc>
<time>2011-09-29T10:22:22.57</time>
<name>1487</name>
</trkpt>
<trkpt lat="41.638585" lon="-0.671045">
<ele>335.0</ele>
<speed>34.7</speed>
<course>82.9</course>
<desc>Speed 34.7 km/h Distance 8.47 km</desc>
<time>2011-09-29T10:22:23.57</time>
<name>1488</name>
</trkpt>
<trkpt lat="41.638595" lon="-0.670938">
<ele>334.5</ele>
<speed>32.2</speed>
<course>87.8</course>
<desc>Speed 32.2 km/h Distance 8.48 km</desc>
<time>2011-09-29T10:22:24.57</time>
<name>1489</name>
</trkpt>
<trkpt lat="41.638602" lon="-0.670710">
<ele>337.0</ele>
<speed>15.4</speed>
<course>66.0</course>
<desc>Speed 15.4 km/h Distance 8.50 km</desc>
<time>2011-09-29T10:22:27.57</time>
<name>1490</name>
</trkpt>
<trkpt lat="41.638613" lon="-0.670675">
<ele>337.0</ele>
<speed>11.8</speed>
<course>57.6</course>
<desc>Speed 11.8 km/h Distance 8.50 km</desc>
<time>2011-09-29T10:22:28.57</time>
<name>1491</name>
</trkpt>
<trkpt lat="41.638628" lon="-0.670643">
<ele>337.0</ele>
<speed>11.2</speed>
<course>53.4</course>
<desc>Speed 11.2 km/h Distance 8.50 km</desc>
<time>2011-09-29T10:22:29.57</time>
<name>1492</name>
</trkpt>
<trkpt lat="41.638645" lon="-0.670613">
<ele>337.0</ele>
<speed>11.2</speed>
<course>22.5</course>
<desc>Speed 11.2 km/h Distance 8.51 km</desc>
<time>2011-09-29T10:22:31.11</time>
<name>1493</name>
</trkpt>
<trkpt lat="41.638690" lon="-0.670588">
<ele>336.5</ele>
<speed>9.2</speed>
<course>356.3</course>
<desc>Speed 9.2 km/h Distance 8.51 km</desc>
<time>2011-09-29T10:22:32.56</time>
<name>1494</name>
</trkpt>
<trkpt lat="41.638708" lon="-0.670590">
<ele>336.5</ele>
<speed>7.4</speed>
<course>356.8</course>
<desc>Speed 7.4 km/h Distance 8.51 km</desc>
<time>2011-09-29T10:22:33.56</time>
<name>1495</name>
</trkpt>
<trkpt lat="41.638730" lon="-0.670592">
<ele>336.5</ele>
<speed>8.1</speed>
<course>353.4</course>
<desc>Speed 8.1 km/h Distance 8.52 km</desc>
<time>2011-09-29T10:22:34.56</time>
<name>1496</name>
</trkpt>
<trkpt lat="41.638750" lon="-0.670595">
<ele>336.5</ele>
<speed>8.5</speed>
<course>354.3</course>
<desc>Speed 8.5 km/h Distance 8.52 km</desc>
<time>2011-09-29T10:22:35.56</time>
<name>1497</name>
</trkpt>
<trkpt lat="41.638775" lon="-0.670598">
<ele>337.0</ele>
<speed>10.0</speed>
<course>354.7</course>
<desc>Speed 10.0 km/h Distance 8.52 km</desc>
<time>2011-09-29T10:22:36.56</time>
<name>1498</name>
</trkpt>
<trkpt lat="41.638802" lon="-0.670602">
<ele>336.5</ele>
<speed>10.6</speed>
<course>354.9</course>
<desc>Speed 10.6 km/h Distance 8.52 km</desc>
<time>2011-09-29T10:22:37.56</time>
<name>1499</name>
</trkpt>
<trkpt lat="41.638830" lon="-0.670605">
<ele>336.5</ele>
<speed>11.3</speed>
<course>347.4</course>
<desc>Speed 11.3 km/h Distance 8.53 km</desc>
<time>2011-09-29T10:22:38.56</time>
<name>1500</name>
</trkpt>
<trkpt lat="41.638858" lon="-0.670613">
<ele>336.5</ele>
<speed>11.2</speed>
<course>340.7</course>
<desc>Speed 11.2 km/h Distance 8.53 km</desc>
<time>2011-09-29T10:22:39.65</time>
<name>1501</name>
</trkpt>
<trkpt lat="41.638883" lon="-0.670625">
<ele>336.5</ele>
<speed>10.9</speed>
<course>337.0</course>
<desc>Speed 10.9 km/h Distance 8.53 km</desc>
<time>2011-09-29T10:22:40.83</time>
<name>1502</name>
</trkpt>
<trkpt lat="41.638907" lon="-0.670638">
<ele>337.0</ele>
<speed>9.9</speed>
<course>325.6</course>
<desc>Speed 9.9 km/h Distance 8.54 km</desc>
<time>2011-09-29T10:22:41.56</time>
<name>1503</name>
</trkpt>
<trkpt lat="41.638927" lon="-0.670657">
<ele>336.5</ele>
<speed>9.8</speed>
<course>352.2</course>
<desc>Speed 9.8 km/h Distance 8.54 km</desc>
<time>2011-09-29T10:22:42.56</time>
<name>1504</name>
</trkpt>
<trkpt lat="41.638953" lon="-0.670662">
<ele>337.0</ele>
<speed>10.9</speed>
<course>348.4</course>
<desc>Speed 10.9 km/h Distance 8.54 km</desc>
<time>2011-09-29T10:22:43.56</time>
<name>1505</name>
</trkpt>
<trkpt lat="41.638983" lon="-0.670670">
<ele>337.5</ele>
<speed>12.1</speed>
<course>344.6</course>
<desc>Speed 12.1 km/h Distance 8.55 km</desc>
<time>2011-09-29T10:22:44.56</time>
<name>1506</name>
</trkpt>
<trkpt lat="41.639015" lon="-0.670682">
<ele>337.5</ele>
<speed>12.9</speed>
<course>342.6</course>
<desc>Speed 12.9 km/h Distance 8.55 km</desc>
<time>2011-09-29T10:22:45.57</time>
<name>1507</name>
</trkpt>
<trkpt lat="41.639047" lon="-0.670695">
<ele>337.5</ele>
<speed>13.0</speed>
<course>344.6</course>
<desc>Speed 13.0 km/h Distance 8.55 km</desc>
<time>2011-09-29T10:22:46.55</time>
<name>1508</name>
</trkpt>
<trkpt lat="41.639078" lon="-0.670707">
<ele>337.5</ele>
<speed>12.9</speed>
<course>345.4</course>
<desc>Speed 12.9 km/h Distance 8.56 km</desc>
<time>2011-09-29T10:22:47.78</time>
<name>1509</name>
</trkpt>
<trkpt lat="41.639112" lon="-0.670718">
<ele>337.5</ele>
<speed>14.0</speed>
<course>344.8</course>
<desc>Speed 14.0 km/h Distance 8.56 km</desc>
<time>2011-09-29T10:22:48.55</time>
<name>1510</name>
</trkpt>
<trkpt lat="41.639148" lon="-0.670732">
<ele>337.5</ele>
<speed>14.8</speed>
<course>336.2</course>
<desc>Speed 14.8 km/h Distance 8.57 km</desc>
<time>2011-09-29T10:22:49.55</time>
<name>1511</name>
</trkpt>
<trkpt lat="41.639185" lon="-0.670753">
<ele>337.5</ele>
<speed>15.7</speed>
<course>339.0</course>
<desc>Speed 15.7 km/h Distance 8.57 km</desc>
<time>2011-09-29T10:22:51.53</time>
<name>1512</name>
</trkpt>
<trkpt lat="41.639298" lon="-0.670812">
<ele>338.0</ele>
<speed>16.0</speed>
<course>340.4</course>
<desc>Speed 16.0 km/h Distance 8.58 km</desc>
<time>2011-09-29T10:22:53.55</time>
<name>1513</name>
</trkpt>
<trkpt lat="41.639337" lon="-0.670830">
<ele>338.0</ele>
<speed>15.6</speed>
<course>335.2</course>
<desc>Speed 15.6 km/h Distance 8.59 km</desc>
<time>2011-09-29T10:22:54.54</time>
<name>1514</name>
</trkpt>
<trkpt lat="41.639372" lon="-0.670852">
<ele>338.0</ele>
<speed>15.6</speed>
<course>340.3</course>
<desc>Speed 15.6 km/h Distance 8.59 km</desc>
<time>2011-09-29T10:22:55.54</time>
<name>1515</name>
</trkpt>
<trkpt lat="41.639410" lon="-0.670870">
<ele>338.0</ele>
<speed>15.7</speed>
<course>337.1</course>
<desc>Speed 15.7 km/h Distance 8.60 km</desc>
<time>2011-09-29T10:22:56.54</time>
<name>1516</name>
</trkpt>
<trkpt lat="41.639448" lon="-0.670892">
<ele>338.0</ele>
<speed>15.9</speed>
<course>341.9</course>
<desc>Speed 15.9 km/h Distance 8.60 km</desc>
<time>2011-09-29T10:22:57.54</time>
<name>1517</name>
</trkpt>
<trkpt lat="41.639487" lon="-0.670908">
<ele>338.0</ele>
<speed>16.4</speed>
<course>343.4</course>
<desc>Speed 16.4 km/h Distance 8.61 km</desc>
<time>2011-09-29T10:22:58.54</time>
<name>1518</name>
</trkpt>
<trkpt lat="41.639528" lon="-0.670925">
<ele>338.0</ele>
<speed>16.9</speed>
<course>348.2</course>
<desc>Speed 16.9 km/h Distance 8.61 km</desc>
<time>2011-09-29T10:22:59.54</time>
<name>1519</name>
</trkpt>
<trkpt lat="41.639570" lon="-0.670937">
<ele>338.0</ele>
<speed>17.1</speed>
<course>354.1</course>
<desc>Speed 17.1 km/h Distance 8.62 km</desc>
<time>2011-09-29T10:23:01.18</time>
<name>1520</name>
</trkpt>
<trkpt lat="41.639655" lon="-0.670948">
<ele>337.5</ele>
<speed>17.0</speed>
<course>3.2</course>
<desc>Speed 17.0 km/h Distance 8.62 km</desc>
<time>2011-09-29T10:23:02.54</time>
<name>1521</name>
</trkpt>
<trkpt lat="41.639698" lon="-0.670945">
<ele>337.5</ele>
<speed>17.0</speed>
<course>11.4</course>
<desc>Speed 17.0 km/h Distance 8.63 km</desc>
<time>2011-09-29T10:23:03.54</time>
<name>1522</name>
</trkpt>
<trkpt lat="41.639742" lon="-0.670933">
<ele>337.5</ele>
<speed>17.4</speed>
<course>16.6</course>
<desc>Speed 17.4 km/h Distance 8.63 km</desc>
<time>2011-09-29T10:23:04.54</time>
<name>1523</name>
</trkpt>
<trkpt lat="41.639783" lon="-0.670917">
<ele>337.5</ele>
<speed>17.0</speed>
<course>25.0</course>
<desc>Speed 17.0 km/h Distance 8.64 km</desc>
<time>2011-09-29T10:23:05.54</time>
<name>1524</name>
</trkpt>
<trkpt lat="41.639823" lon="-0.670892">
<ele>337.0</ele>
<speed>17.5</speed>
<course>34.3</course>
<desc>Speed 17.5 km/h Distance 8.64 km</desc>
<time>2011-09-29T10:23:06.53</time>
<name>1525</name>
</trkpt>
<trkpt lat="41.639862" lon="-0.670857">
<ele>337.0</ele>
<speed>18.8</speed>
<course>37.9</course>
<desc>Speed 18.8 km/h Distance 8.65 km</desc>
<time>2011-09-29T10:23:07.54</time>
<name>1526</name>
</trkpt>
<trkpt lat="41.639902" lon="-0.670815">
<ele>337.0</ele>
<speed>19.3</speed>
<course>42.5</course>
<desc>Speed 19.3 km/h Distance 8.66 km</desc>
<time>2011-09-29T10:23:08.53</time>
<name>1527</name>
</trkpt>
<trkpt lat="41.639938" lon="-0.670770">
<ele>336.5</ele>
<speed>19.5</speed>
<course>42.3</course>
<desc>Speed 19.5 km/h Distance 8.66 km</desc>
<time>2011-09-29T10:23:09.54</time>
<name>1528</name>
</trkpt>
<trkpt lat="41.639977" lon="-0.670723">
<ele>336.5</ele>
<speed>19.9</speed>
<course>46.6</course>
<desc>Speed 19.9 km/h Distance 8.67 km</desc>
<time>2011-09-29T10:23:10.98</time>
<name>1529</name>
</trkpt>
<trkpt lat="41.640045" lon="-0.670627">
<ele>336.0</ele>
<speed>19.2</speed>
<course>50.3</course>
<desc>Speed 19.2 km/h Distance 8.68 km</desc>
<time>2011-09-29T10:23:12.53</time>
<name>1530</name>
</trkpt>
<trkpt lat="41.640075" lon="-0.670578">
<ele>335.5</ele>
<speed>18.6</speed>
<course>48.8</course>
<desc>Speed 18.6 km/h Distance 8.68 km</desc>
<time>2011-09-29T10:23:13.53</time>
<name>1531</name>
</trkpt>
<trkpt lat="41.640107" lon="-0.670530">
<ele>335.5</ele>
<speed>18.3</speed>
<course>46.7</course>
<desc>Speed 18.3 km/h Distance 8.69 km</desc>
<time>2011-09-29T10:23:14.53</time>
<name>1532</name>
</trkpt>
<trkpt lat="41.640138" lon="-0.670485">
<ele>335.5</ele>
<speed>18.6</speed>
<course>56.2</course>
<desc>Speed 18.6 km/h Distance 8.69 km</desc>
<time>2011-09-29T10:23:15.53</time>
<name>1533</name>
</trkpt>
<trkpt lat="41.640165" lon="-0.670432">
<ele>335.5</ele>
<speed>18.8</speed>
<course>57.9</course>
<desc>Speed 18.8 km/h Distance 8.70 km</desc>
<time>2011-09-29T10:23:16.53</time>
<name>1534</name>
</trkpt>
<trkpt lat="41.640190" lon="-0.670378">
<ele>335.5</ele>
<speed>18.8</speed>
<course>62.2</course>
<desc>Speed 18.8 km/h Distance 8.70 km</desc>
<time>2011-09-29T10:23:17.53</time>
<name>1535</name>
</trkpt>
<trkpt lat="41.640212" lon="-0.670323">
<ele>335.5</ele>
<speed>18.2</speed>
<course>58.0</course>
<desc>Speed 18.2 km/h Distance 8.71 km</desc>
<time>2011-09-29T10:23:18.53</time>
<name>1536</name>
</trkpt>
<trkpt lat="41.640235" lon="-0.670273">
<ele>335.5</ele>
<speed>17.5</speed>
<course>61.8</course>
<desc>Speed 17.5 km/h Distance 8.71 km</desc>
<time>2011-09-29T10:23:19.52</time>
<name>1537</name>
</trkpt>
<trkpt lat="41.640255" lon="-0.670223">
<ele>335.5</ele>
<speed>17.0</speed>
<course>57.1</course>
<desc>Speed 17.0 km/h Distance 8.72 km</desc>
<time>2011-09-29T10:23:20.70</time>
<name>1538</name>
</trkpt>
<trkpt lat="41.640278" lon="-0.670175">
<ele>335.5</ele>
<speed>17.2</speed>
<course>62.1</course>
<desc>Speed 17.2 km/h Distance 8.72 km</desc>
<time>2011-09-29T10:23:22.53</time>
<name>1539</name>
</trkpt>
<trkpt lat="41.640342" lon="-0.670015">
<ele>336.5</ele>
<speed>17.9</speed>
<course>69.4</course>
<desc>Speed 17.9 km/h Distance 8.74 km</desc>
<time>2011-09-29T10:23:24.52</time>
<name>1540</name>
</trkpt>
<trkpt lat="41.640357" lon="-0.669962">
<ele>337.0</ele>
<speed>17.2</speed>
<course>78.5</course>
<desc>Speed 17.2 km/h Distance 8.74 km</desc>
<time>2011-09-29T10:23:25.52</time>
<name>1541</name>
</trkpt>
<trkpt lat="41.640365" lon="-0.669907">
<ele>337.5</ele>
<speed>16.8</speed>
<course>82.6</course>
<desc>Speed 16.8 km/h Distance 8.75 km</desc>
<time>2011-09-29T10:23:26.52</time>
<name>1542</name>
</trkpt>
<trkpt lat="41.640370" lon="-0.669855">
<ele>337.5</ele>
<speed>15.6</speed>
<course>81.8</course>
<desc>Speed 15.6 km/h Distance 8.75 km</desc>
<time>2011-09-29T10:23:27.65</time>
<name>1543</name>
</trkpt>
<trkpt lat="41.640375" lon="-0.669808">
<ele>338.0</ele>
<speed>14.4</speed>
<course>84.5</course>
<desc>Speed 14.4 km/h Distance 8.76 km</desc>
<time>2011-09-29T10:23:28.52</time>
<name>1544</name>
</trkpt>
<trkpt lat="41.640378" lon="-0.669762">
<ele>338.5</ele>
<speed>14.0</speed>
<course>95.5</course>
<desc>Speed 14.0 km/h Distance 8.76 km</desc>
<time>2011-09-29T10:23:29.52</time>
<name>1545</name>
</trkpt>
<trkpt lat="41.640375" lon="-0.669715">
<ele>339.0</ele>
<speed>13.8</speed>
<course>98.8</course>
<desc>Speed 13.8 km/h Distance 8.76 km</desc>
<time>2011-09-29T10:23:30.52</time>
<name>1546</name>
</trkpt>
<trkpt lat="41.640370" lon="-0.669672">
<ele>339.0</ele>
<speed>13.2</speed>
<course>93.1</course>
<desc>Speed 13.2 km/h Distance 8.77 km</desc>
<time>2011-09-29T10:23:31.52</time>
<name>1547</name>
</trkpt>
<trkpt lat="41.640368" lon="-0.669630">
<ele>339.5</ele>
<speed>12.9</speed>
<course>90.0</course>
<desc>Speed 12.9 km/h Distance 8.77 km</desc>
<time>2011-09-29T10:23:32.52</time>
<name>1548</name>
</trkpt>
<trkpt lat="41.640368" lon="-0.669588">
<ele>340.0</ele>
<speed>12.4</speed>
<course>90.0</course>
<desc>Speed 12.4 km/h Distance 8.77 km</desc>
<time>2011-09-29T10:23:33.52</time>
<name>1549</name>
</trkpt>
<trkpt lat="41.640368" lon="-0.669547">
<ele>340.0</ele>
<speed>12.8</speed>
<course>95.9</course>
<desc>Speed 12.8 km/h Distance 8.78 km</desc>
<time>2011-09-29T10:23:34.52</time>
<name>1550</name>
</trkpt>
<trkpt lat="41.640365" lon="-0.669503">
<ele>340.5</ele>
<speed>13.1</speed>
<course>93.1</course>
<desc>Speed 13.1 km/h Distance 8.78 km</desc>
<time>2011-09-29T10:23:35.51</time>
<name>1551</name>
</trkpt>
<trkpt lat="41.640363" lon="-0.669462">
<ele>341.0</ele>
<speed>12.6</speed>
<course>95.7</course>
<desc>Speed 12.6 km/h Distance 8.78 km</desc>
<time>2011-09-29T10:23:36.51</time>
<name>1552</name>
</trkpt>
<trkpt lat="41.640360" lon="-0.669417">
<ele>341.0</ele>
<speed>13.5</speed>
<course>92.8</course>
<desc>Speed 13.5 km/h Distance 8.79 km</desc>
<time>2011-09-29T10:23:38.13</time>
<name>1553</name>
</trkpt>
<trkpt lat="41.640357" lon="-0.669325">
<ele>341.5</ele>
<speed>13.7</speed>
<course>90.0</course>
<desc>Speed 13.7 km/h Distance 8.80 km</desc>
<time>2011-09-29T10:23:39.51</time>
<name>1554</name>
</trkpt>
<trkpt lat="41.640357" lon="-0.669280">
<ele>341.5</ele>
<speed>13.1</speed>
<course>87.2</course>
<desc>Speed 13.1 km/h Distance 8.80 km</desc>
<time>2011-09-29T10:23:40.94</time>
<name>1555</name>
</trkpt>
<trkpt lat="41.640360" lon="-0.669190">
<ele>341.5</ele>
<speed>14.0</speed>
<course>70.4</course>
<desc>Speed 14.0 km/h Distance 8.81 km</desc>
<time>2011-09-29T10:23:42.51</time>
<name>1556</name>
</trkpt>
<trkpt lat="41.640373" lon="-0.669140">
<ele>341.0</ele>
<speed>15.7</speed>
<course>64.6</course>
<desc>Speed 15.7 km/h Distance 8.81 km</desc>
<time>2011-09-29T10:23:43.51</time>
<name>1557</name>
</trkpt>
<trkpt lat="41.640392" lon="-0.669088">
<ele>340.5</ele>
<speed>17.0</speed>
<course>55.3</course>
<desc>Speed 17.0 km/h Distance 8.82 km</desc>
<time>2011-09-29T10:23:44.51</time>
<name>1558</name>
</trkpt>
<trkpt lat="41.640417" lon="-0.669040">
<ele>340.5</ele>
<speed>17.9</speed>
<course>54.5</course>
<desc>Speed 17.9 km/h Distance 8.82 km</desc>
<time>2011-09-29T10:23:45.51</time>
<name>1559</name>
</trkpt>
<trkpt lat="41.640443" lon="-0.668990">
<ele>340.5</ele>
<speed>18.0</speed>
<course>50.9</course>
<desc>Speed 18.0 km/h Distance 8.83 km</desc>
<time>2011-09-29T10:23:46.51</time>
<name>1560</name>
</trkpt>
<trkpt lat="41.640472" lon="-0.668943">
<ele>340.0</ele>
<speed>18.0</speed>
<course>51.4</course>
<desc>Speed 18.0 km/h Distance 8.83 km</desc>
<time>2011-09-29T10:23:47.88</time>
<name>1561</name>
</trkpt>
<trkpt lat="41.640528" lon="-0.668848">
<ele>340.5</ele>
<speed>18.3</speed>
<course>51.9</course>
<desc>Speed 18.3 km/h Distance 8.84 km</desc>
<time>2011-09-29T10:23:49.51</time>
<name>1562</name>
</trkpt>
<trkpt lat="41.640557" lon="-0.668800">
<ele>340.5</ele>
<speed>18.4</speed>
<course>54.5</course>
<desc>Speed 18.4 km/h Distance 8.85 km</desc>
<time>2011-09-29T10:23:50.68</time>
<name>1563</name>
</trkpt>
<trkpt lat="41.640583" lon="-0.668750">
<ele>340.5</ele>
<speed>18.1</speed>
<course>54.4</course>
<desc>Speed 18.1 km/h Distance 8.85 km</desc>
<time>2011-09-29T10:23:51.50</time>
<name>1564</name>
</trkpt>
<trkpt lat="41.640608" lon="-0.668703">
<ele>340.5</ele>
<speed>17.4</speed>
<course>53.4</course>
<desc>Speed 17.4 km/h Distance 8.86 km</desc>
<time>2011-09-29T10:23:52.50</time>
<name>1565</name>
</trkpt>
<trkpt lat="41.640633" lon="-0.668658">
<ele>340.5</ele>
<speed>16.9</speed>
<course>52.3</course>
<desc>Speed 16.9 km/h Distance 8.86 km</desc>
<time>2011-09-29T10:23:53.50</time>
<name>1566</name>
</trkpt>
<trkpt lat="41.640658" lon="-0.668615">
<ele>340.5</ele>
<speed>16.5</speed>
<course>54.4</course>
<desc>Speed 16.5 km/h Distance 8.87 km</desc>
<time>2011-09-29T10:23:54.50</time>
<name>1567</name>
</trkpt>
<trkpt lat="41.640683" lon="-0.668568">
<ele>340.5</ele>
<speed>16.8</speed>
<course>51.6</course>
<desc>Speed 16.8 km/h Distance 8.87 km</desc>
<time>2011-09-29T10:23:55.50</time>
<name>1568</name>
</trkpt>
<trkpt lat="41.640710" lon="-0.668523">
<ele>341.0</ele>
<speed>17.2</speed>
<course>49.9</course>
<desc>Speed 17.2 km/h Distance 8.88 km</desc>
<time>2011-09-29T10:23:56.50</time>
<name>1569</name>
</trkpt>
<trkpt lat="41.640738" lon="-0.668478">
<ele>341.0</ele>
<speed>17.6</speed>
<course>50.9</course>
<desc>Speed 17.6 km/h Distance 8.88 km</desc>
<time>2011-09-29T10:23:57.61</time>
<name>1570</name>
</trkpt>
<trkpt lat="41.640767" lon="-0.668432">
<ele>341.0</ele>
<speed>18.0</speed>
<course>51.9</course>
<desc>Speed 18.0 km/h Distance 8.89 km</desc>
<time>2011-09-29T10:23:58.50</time>
<name>1571</name>
</trkpt>
<trkpt lat="41.640795" lon="-0.668383">
<ele>341.0</ele>
<speed>17.9</speed>
<course>48.8</course>
<desc>Speed 17.9 km/h Distance 8.89 km</desc>
<time>2011-09-29T10:23:59.50</time>
<name>1572</name>
</trkpt>
<trkpt lat="41.640823" lon="-0.668340">
<ele>341.5</ele>
<speed>17.5</speed>
<course>49.9</course>
<desc>Speed 17.5 km/h Distance 8.90 km</desc>
<time>2011-09-29T10:24:00.50</time>
<name>1573</name>
</trkpt>
<trkpt lat="41.640852" lon="-0.668295">
<ele>341.5</ele>
<speed>17.6</speed>
<course>49.9</course>
<desc>Speed 17.6 km/h Distance 8.90 km</desc>
<time>2011-09-29T10:24:01.50</time>
<name>1574</name>
</trkpt>
<trkpt lat="41.640880" lon="-0.668250">
<ele>341.5</ele>
<speed>17.4</speed>
<course>52.6</course>
<desc>Speed 17.4 km/h Distance 8.91 km</desc>
<time>2011-09-29T10:24:02.50</time>
<name>1575</name>
</trkpt>
<trkpt lat="41.640907" lon="-0.668203">
<ele>342.0</ele>
<speed>17.4</speed>
<course>49.9</course>
<desc>Speed 17.4 km/h Distance 8.91 km</desc>
<time>2011-09-29T10:24:03.50</time>
<name>1576</name>
</trkpt>
<trkpt lat="41.640935" lon="-0.668158">
<ele>342.0</ele>
<speed>17.4</speed>
<course>48.2</course>
<desc>Speed 17.4 km/h Distance 8.92 km</desc>
<time>2011-09-29T10:24:04.49</time>
<name>1577</name>
</trkpt>
<trkpt lat="41.640965" lon="-0.668113">
<ele>342.0</ele>
<speed>17.9</speed>
<course>51.9</course>
<desc>Speed 17.9 km/h Distance 8.92 km</desc>
<time>2011-09-29T10:24:05.49</time>
<name>1578</name>
</trkpt>
<trkpt lat="41.640993" lon="-0.668065">
<ele>342.0</ele>
<speed>18.1</speed>
<course>51.9</course>
<desc>Speed 18.1 km/h Distance 8.93 km</desc>
<time>2011-09-29T10:24:06.49</time>
<name>1579</name>
</trkpt>
<trkpt lat="41.641022" lon="-0.668017">
<ele>342.0</ele>
<speed>18.3</speed>
<course>51.9</course>
<desc>Speed 18.3 km/h Distance 8.93 km</desc>
<time>2011-09-29T10:24:07.49</time>
<name>1580</name>
</trkpt>
<trkpt lat="41.641050" lon="-0.667968">
<ele>342.0</ele>
<speed>18.3</speed>
<course>52.6</course>
<desc>Speed 18.3 km/h Distance 8.94 km</desc>
<time>2011-09-29T10:24:08.49</time>
<name>1581</name>
</trkpt>
<trkpt lat="41.641077" lon="-0.667922">
<ele>342.0</ele>
<speed>17.8</speed>
<course>52.6</course>
<desc>Speed 17.8 km/h Distance 8.94 km</desc>
<time>2011-09-29T10:24:10.16</time>
<name>1582</name>
</trkpt>
<trkpt lat="41.641130" lon="-0.667828">
<ele>342.0</ele>
<speed>17.5</speed>
<course>54.4</course>
<desc>Speed 17.5 km/h Distance 8.95 km</desc>
<time>2011-09-29T10:24:11.49</time>
<name>1583</name>
</trkpt>
<trkpt lat="41.641155" lon="-0.667782">
<ele>342.5</ele>
<speed>17.4</speed>
<course>56.2</course>
<desc>Speed 17.4 km/h Distance 8.95 km</desc>
<time>2011-09-29T10:24:12.49</time>
<name>1584</name>
</trkpt>
<trkpt lat="41.641180" lon="-0.667732">
<ele>342.5</ele>
<speed>17.9</speed>
<course>59.6</course>
<desc>Speed 17.9 km/h Distance 8.96 km</desc>
<time>2011-09-29T10:24:13.49</time>
<name>1585</name>
</trkpt>
<trkpt lat="41.641203" lon="-0.667678">
<ele>342.5</ele>
<speed>18.5</speed>
<course>64.7</course>
<desc>Speed 18.5 km/h Distance 8.96 km</desc>
<time>2011-09-29T10:24:14.49</time>
<name>1586</name>
</trkpt>
<trkpt lat="41.641223" lon="-0.667622">
<ele>342.5</ele>
<speed>18.9</speed>
<course>71.5</course>
<desc>Speed 18.9 km/h Distance 8.97 km</desc>
<time>2011-09-29T10:24:15.49</time>
<name>1587</name>
</trkpt>
<trkpt lat="41.641238" lon="-0.667562">
<ele>342.5</ele>
<speed>19.2</speed>
<course>80.0</course>
<desc>Speed 19.2 km/h Distance 8.98 km</desc>
<time>2011-09-29T10:24:16.49</time>
<name>1588</name>
</trkpt>
<trkpt lat="41.641247" lon="-0.667498">
<ele>342.5</ele>
<speed>19.1</speed>
<course>81.8</course>
<desc>Speed 19.1 km/h Distance 8.98 km</desc>
<time>2011-09-29T10:24:17.48</time>
<name>1589</name>
</trkpt>
<trkpt lat="41.641253" lon="-0.667437">
<ele>342.5</ele>
<speed>18.6</speed>
<course>87.8</course>
<desc>Speed 18.6 km/h Distance 8.99 km</desc>
<time>2011-09-29T10:24:18.48</time>
<name>1590</name>
</trkpt>
<trkpt lat="41.641255" lon="-0.667378">
<ele>342.5</ele>
<speed>17.9</speed>
<course>95.4</course>
<desc>Speed 17.9 km/h Distance 8.99 km</desc>
<time>2011-09-29T10:24:19.92</time>
<name>1591</name>
</trkpt>
<trkpt lat="41.641247" lon="-0.667260">
<ele>342.5</ele>
<speed>17.7</speed>
<course>92.1</course>
<desc>Speed 17.7 km/h Distance 9.00 km</desc>
<time>2011-09-29T10:24:21.48</time>
<name>1592</name>
</trkpt>
<trkpt lat="41.641245" lon="-0.667200">
<ele>342.5</ele>
<speed>18.1</speed>
<course>94.3</course>
<desc>Speed 18.1 km/h Distance 9.01 km</desc>
<time>2011-09-29T10:24:22.48</time>
<name>1593</name>
</trkpt>
<trkpt lat="41.641242" lon="-0.667140">
<ele>342.5</ele>
<speed>18.3</speed>
<course>94.1</course>
<desc>Speed 18.3 km/h Distance 9.01 km</desc>
<time>2011-09-29T10:24:23.48</time>
<name>1594</name>
</trkpt>
<trkpt lat="41.641238" lon="-0.667078">
<ele>342.5</ele>
<speed>18.7</speed>
<course>94.1</course>
<desc>Speed 18.7 km/h Distance 9.02 km</desc>
<time>2011-09-29T10:24:24.48</time>
<name>1595</name>
</trkpt>
<trkpt lat="41.641235" lon="-0.667017">
<ele>342.5</ele>
<speed>18.8</speed>
<course>83.8</course>
<desc>Speed 18.8 km/h Distance 9.02 km</desc>
<time>2011-09-29T10:24:25.48</time>
<name>1596</name>
</trkpt>
<trkpt lat="41.641240" lon="-0.666955">
<ele>342.5</ele>
<speed>18.6</speed>
<course>79.5</course>
<desc>Speed 18.6 km/h Distance 9.03 km</desc>
<time>2011-09-29T10:24:26.85</time>
<name>1597</name>
</trkpt>
<trkpt lat="41.641257" lon="-0.666835">
<ele>342.5</ele>
<speed>18.4</speed>
<course>73.0</course>
<desc>Speed 18.4 km/h Distance 9.04 km</desc>
<time>2011-09-29T10:24:28.48</time>
<name>1598</name>
</trkpt>
<trkpt lat="41.641270" lon="-0.666777">
<ele>342.5</ele>
<speed>18.0</speed>
<course>69.9</course>
<desc>Speed 18.0 km/h Distance 9.04 km</desc>
<time>2011-09-29T10:24:29.64</time>
<name>1599</name>
</trkpt>
<trkpt lat="41.641285" lon="-0.666722">
<ele>342.5</ele>
<speed>17.9</speed>
<course>69.4</course>
<desc>Speed 17.9 km/h Distance 9.05 km</desc>
<time>2011-09-29T10:24:30.48</time>
<name>1600</name>
</trkpt>
<trkpt lat="41.641300" lon="-0.666668">
<ele>343.0</ele>
<speed>16.8</speed>
<course>70.4</course>
<desc>Speed 16.8 km/h Distance 9.05 km</desc>
<time>2011-09-29T10:24:31.48</time>
<name>1601</name>
</trkpt>
<trkpt lat="41.641313" lon="-0.666618">
<ele>343.0</ele>
<speed>16.2</speed>
<course>72.7</course>
<desc>Speed 16.2 km/h Distance 9.06 km</desc>
<time>2011-09-29T10:24:32.48</time>
<name>1602</name>
</trkpt>
<trkpt lat="41.641325" lon="-0.666568">
<ele>343.5</ele>
<speed>16.0</speed>
<course>64.5</course>
<desc>Speed 16.0 km/h Distance 9.06 km</desc>
<time>2011-09-29T10:24:33.48</time>
<name>1603</name>
</trkpt>
<trkpt lat="41.641342" lon="-0.666522">
<ele>343.5</ele>
<speed>15.6</speed>
<course>65.2</course>
<desc>Speed 15.6 km/h Distance 9.06 km</desc>
<time>2011-09-29T10:24:34.48</time>
<name>1604</name>
</trkpt>
<trkpt lat="41.641358" lon="-0.666473">
<ele>343.5</ele>
<speed>15.6</speed>
<course>67.5</course>
<desc>Speed 15.6 km/h Distance 9.07 km</desc>
<time>2011-09-29T10:24:35.63</time>
<name>1605</name>
</trkpt>
<trkpt lat="41.641373" lon="-0.666425">
<ele>344.0</ele>
<speed>15.6</speed>
<course>63.6</course>
<desc>Speed 15.6 km/h Distance 9.07 km</desc>
<time>2011-09-29T10:24:36.58</time>
<name>1606</name>
</trkpt>
<trkpt lat="41.641390" lon="-0.666380">
<ele>344.0</ele>
<speed>15.3</speed>
<course>62.3</course>
<desc>Speed 15.3 km/h Distance 9.08 km</desc>
<time>2011-09-29T10:24:37.47</time>
<name>1607</name>
</trkpt>
<trkpt lat="41.641408" lon="-0.666333">
<ele>344.0</ele>
<speed>15.2</speed>
<course>68.4</course>
<desc>Speed 15.2 km/h Distance 9.08 km</desc>
<time>2011-09-29T10:24:38.47</time>
<name>1608</name>
</trkpt>
<trkpt lat="41.641422" lon="-0.666288">
<ele>344.5</ele>
<speed>14.9</speed>
<course>68.4</course>
<desc>Speed 14.9 km/h Distance 9.09 km</desc>
<time>2011-09-29T10:24:39.47</time>
<name>1609</name>
</trkpt>
<trkpt lat="41.641435" lon="-0.666243">
<ele>344.5</ele>
<speed>14.6</speed>
<course>66.0</course>
<desc>Speed 14.6 km/h Distance 9.09 km</desc>
<time>2011-09-29T10:24:40.47</time>
<name>1610</name>
</trkpt>
<trkpt lat="41.641450" lon="-0.666198">
<ele>345.0</ele>
<speed>14.6</speed>
<course>70.9</course>
<desc>Speed 14.6 km/h Distance 9.09 km</desc>
<time>2011-09-29T10:24:41.47</time>
<name>1611</name>
</trkpt>
<trkpt lat="41.641462" lon="-0.666153">
<ele>345.0</ele>
<speed>14.6</speed>
<course>71.5</course>
<desc>Speed 14.6 km/h Distance 9.10 km</desc>
<time>2011-09-29T10:24:42.47</time>
<name>1612</name>
</trkpt>
<trkpt lat="41.641473" lon="-0.666107">
<ele>345.5</ele>
<speed>14.5</speed>
<course>73.4</course>
<desc>Speed 14.5 km/h Distance 9.10 km</desc>
<time>2011-09-29T10:24:43.47</time>
<name>1613</name>
</trkpt>
<trkpt lat="41.641483" lon="-0.666062">
<ele>345.5</ele>
<speed>14.3</speed>
<course>70.9</course>
<desc>Speed 14.3 km/h Distance 9.11 km</desc>
<time>2011-09-29T10:24:44.47</time>
<name>1614</name>
</trkpt>
<trkpt lat="41.641495" lon="-0.666017">
<ele>346.0</ele>
<speed>14.3</speed>
<course>69.5</course>
<desc>Speed 14.3 km/h Distance 9.11 km</desc>
<time>2011-09-29T10:24:45.83</time>
<name>1615</name>
</trkpt>
<trkpt lat="41.641518" lon="-0.665933">
<ele>347.0</ele>
<speed>13.5</speed>
<course>59.8</course>
<desc>Speed 13.5 km/h Distance 9.12 km</desc>
<time>2011-09-29T10:24:47.46</time>
<name>1616</name>
</trkpt>
<trkpt lat="41.641535" lon="-0.665895">
<ele>347.5</ele>
<speed>12.9</speed>
<course>47.5</course>
<desc>Speed 12.9 km/h Distance 9.12 km</desc>
<time>2011-09-29T10:24:49.04</time>
<name>1617</name>
</trkpt>
<trkpt lat="41.641578" lon="-0.665832">
<ele>348.0</ele>
<speed>13.0</speed>
<course>49.8</course>
<desc>Speed 13.0 km/h Distance 9.13 km</desc>
<time>2011-09-29T10:24:50.47</time>
<name>1618</name>
</trkpt>
<trkpt lat="41.641598" lon="-0.665800">
<ele>348.5</ele>
<speed>12.7</speed>
<course>40.5</course>
<desc>Speed 12.7 km/h Distance 9.13 km</desc>
<time>2011-09-29T10:24:51.46</time>
<name>1619</name>
</trkpt>
<trkpt lat="41.641622" lon="-0.665773">
<ele>349.0</ele>
<speed>12.2</speed>
<course>33.2</course>
<desc>Speed 12.2 km/h Distance 9.13 km</desc>
<time>2011-09-29T10:24:52.46</time>
<name>1620</name>
</trkpt>
<trkpt lat="41.641648" lon="-0.665750">
<ele>349.5</ele>
<speed>12.6</speed>
<course>27.8</course>
<desc>Speed 12.6 km/h Distance 9.14 km</desc>
<time>2011-09-29T10:24:53.48</time>
<name>1621</name>
</trkpt>
<trkpt lat="41.641677" lon="-0.665730">
<ele>350.0</ele>
<speed>12.5</speed>
<course>31.3</course>
<desc>Speed 12.5 km/h Distance 9.14 km</desc>
<time>2011-09-29T10:24:54.46</time>
<name>1622</name>
</trkpt>
<trkpt lat="41.641703" lon="-0.665708">
<ele>350.5</ele>
<speed>12.6</speed>
<course>29.3</course>
<desc>Speed 12.6 km/h Distance 9.15 km</desc>
<time>2011-09-29T10:24:55.46</time>
<name>1623</name>
</trkpt>
<trkpt lat="41.641730" lon="-0.665688">
<ele>350.5</ele>
<speed>12.4</speed>
<course>23.7</course>
<desc>Speed 12.4 km/h Distance 9.15 km</desc>
<time>2011-09-29T10:24:56.46</time>
<name>1624</name>
</trkpt>
<trkpt lat="41.641758" lon="-0.665672">
<ele>351.0</ele>
<speed>12.2</speed>
<course>29.3</course>
<desc>Speed 12.2 km/h Distance 9.15 km</desc>
<time>2011-09-29T10:24:57.46</time>
<name>1625</name>
</trkpt>
<trkpt lat="41.641785" lon="-0.665652">
<ele>351.5</ele>
<speed>12.5</speed>
<course>25.8</course>
<desc>Speed 12.5 km/h Distance 9.16 km</desc>
<time>2011-09-29T10:24:58.71</time>
<name>1626</name>
</trkpt>
<trkpt lat="41.641813" lon="-0.665633">
<ele>351.5</ele>
<speed>12.9</speed>
<course>27.8</course>
<desc>Speed 12.9 km/h Distance 9.16 km</desc>
<time>2011-09-29T10:24:59.46</time>
<name>1627</name>
</trkpt>
<trkpt lat="41.641842" lon="-0.665613">
<ele>352.0</ele>
<speed>12.7</speed>
<course>35.0</course>
<desc>Speed 12.7 km/h Distance 9.16 km</desc>
<time>2011-09-29T10:25:00.45</time>
<name>1628</name>
</trkpt>
<trkpt lat="41.641868" lon="-0.665588">
<ele>352.0</ele>
<speed>12.5</speed>
<course>40.5</course>
<desc>Speed 12.5 km/h Distance 9.17 km</desc>
<time>2011-09-29T10:25:01.45</time>
<name>1629</name>
</trkpt>
<trkpt lat="41.641892" lon="-0.665562">
<ele>352.5</ele>
<speed>12.6</speed>
<course>40.3</course>
<desc>Speed 12.6 km/h Distance 9.17 km</desc>
<time>2011-09-29T10:25:02.45</time>
<name>1630</name>
</trkpt>
<trkpt lat="41.641917" lon="-0.665533">
<ele>352.5</ele>
<speed>12.8</speed>
<course>38.6</course>
<desc>Speed 12.8 km/h Distance 9.17 km</desc>
<time>2011-09-29T10:25:03.45</time>
<name>1631</name>
</trkpt>
<trkpt lat="41.641942" lon="-0.665507">
<ele>353.0</ele>
<speed>12.6</speed>
<course>31.3</course>
<desc>Speed 12.6 km/h Distance 9.18 km</desc>
<time>2011-09-29T10:25:04.45</time>
<name>1632</name>
</trkpt>
<trkpt lat="41.641968" lon="-0.665485">
<ele>353.5</ele>
<speed>12.3</speed>
<course>38.7</course>
<desc>Speed 12.3 km/h Distance 9.18 km</desc>
<time>2011-09-29T10:25:05.67</time>
<name>1633</name>
</trkpt>
<trkpt lat="41.641992" lon="-0.665460">
<ele>353.5</ele>
<speed>11.8</speed>
<course>44.1</course>
<desc>Speed 11.8 km/h Distance 9.18 km</desc>
<time>2011-09-29T10:25:07.02</time>
<name>1634</name>
</trkpt>
<trkpt lat="41.642037" lon="-0.665402">
<ele>354.5</ele>
<speed>12.3</speed>
<course>46.0</course>
<desc>Speed 12.3 km/h Distance 9.19 km</desc>
<time>2011-09-29T10:25:08.47</time>
<name>1635</name>
</trkpt>
<trkpt lat="41.642058" lon="-0.665372">
<ele>354.5</ele>
<speed>12.5</speed>
<course>43.9</course>
<desc>Speed 12.5 km/h Distance 9.19 km</desc>
<time>2011-09-29T10:25:09.45</time>
<name>1636</name>
</trkpt>
<trkpt lat="41.642082" lon="-0.665342">
<ele>355.0</ele>
<speed>12.6</speed>
<course>46.0</course>
<desc>Speed 12.6 km/h Distance 9.20 km</desc>
<time>2011-09-29T10:25:10.45</time>
<name>1637</name>
</trkpt>
<trkpt lat="41.642103" lon="-0.665312">
<ele>355.0</ele>
<speed>12.4</speed>
<course>46.6</course>
<desc>Speed 12.4 km/h Distance 9.20 km</desc>
<time>2011-09-29T10:25:11.45</time>
<name>1638</name>
</trkpt>
<trkpt lat="41.642123" lon="-0.665283">
<ele>355.5</ele>
<speed>11.7</speed>
<course>47.4</course>
<desc>Speed 11.7 km/h Distance 9.20 km</desc>
<time>2011-09-29T10:25:12.45</time>
<name>1639</name>
</trkpt>
<trkpt lat="41.642142" lon="-0.665257">
<ele>355.5</ele>
<speed>10.8</speed>
<course>51.8</course>
<desc>Speed 10.8 km/h Distance 9.21 km</desc>
<time>2011-09-29T10:25:13.44</time>
<name>1640</name>
</trkpt>
<trkpt lat="41.642158" lon="-0.665228">
<ele>355.0</ele>
<speed>10.9</speed>
<course>36.8</course>
<desc>Speed 10.9 km/h Distance 9.21 km</desc>
<time>2011-09-29T10:25:14.44</time>
<name>1641</name>
</trkpt>
<trkpt lat="41.642182" lon="-0.665205">
<ele>355.0</ele>
<speed>11.6</speed>
<course>47.5</course>
<desc>Speed 11.6 km/h Distance 9.21 km</desc>
<time>2011-09-29T10:25:15.44</time>
<name>1642</name>
</trkpt>
<trkpt lat="41.642203" lon="-0.665173">
<ele>355.0</ele>
<speed>12.8</speed>
<course>49.6</course>
<desc>Speed 12.8 km/h Distance 9.22 km</desc>
<time>2011-09-29T10:25:16.44</time>
<name>1643</name>
</trkpt>
<trkpt lat="41.642227" lon="-0.665137">
<ele>354.5</ele>
<speed>14.4</speed>
<course>44.5</course>
<desc>Speed 14.4 km/h Distance 9.22 km</desc>
<time>2011-09-29T10:25:18.15</time>
<name>1644</name>
</trkpt>
<trkpt lat="41.642322" lon="-0.665012">
<ele>353.5</ele>
<speed>18.8</speed>
<course>39.1</course>
<desc>Speed 18.8 km/h Distance 9.24 km</desc>
<time>2011-09-29T10:25:20.44</time>
<name>1645</name>
</trkpt>
<trkpt lat="41.642360" lon="-0.664970">
<ele>353.5</ele>
<speed>19.9</speed>
<course>37.8</course>
<desc>Speed 19.9 km/h Distance 9.24 km</desc>
<time>2011-09-29T10:25:21.44</time>
<name>1646</name>
</trkpt>
<trkpt lat="41.642403" lon="-0.664925">
<ele>353.0</ele>
<speed>21.3</speed>
<course>37.8</course>
<desc>Speed 21.3 km/h Distance 9.25 km</desc>
<time>2011-09-29T10:25:22.44</time>
<name>1647</name>
</trkpt>
<trkpt lat="41.642447" lon="-0.664880">
<ele>352.5</ele>
<speed>22.1</speed>
<course>32.9</course>
<desc>Speed 22.1 km/h Distance 9.25 km</desc>
<time>2011-09-29T10:25:23.44</time>
<name>1648</name>
</trkpt>
<trkpt lat="41.642497" lon="-0.664837">
<ele>352.5</ele>
<speed>23.1</speed>
<course>29.3</course>
<desc>Speed 23.1 km/h Distance 9.26 km</desc>
<time>2011-09-29T10:25:24.44</time>
<name>1649</name>
</trkpt>
<trkpt lat="41.642550" lon="-0.664797">
<ele>352.0</ele>
<speed>24.5</speed>
<course>25.2</course>
<desc>Speed 24.5 km/h Distance 9.27 km</desc>
<time>2011-09-29T10:25:25.44</time>
<name>1650</name>
</trkpt>
<trkpt lat="41.642608" lon="-0.664760">
<ele>351.5</ele>
<speed>25.8</speed>
<course>22.4</course>
<desc>Speed 25.8 km/h Distance 9.27 km</desc>
<time>2011-09-29T10:25:26.43</time>
<name>1651</name>
</trkpt>
<trkpt lat="41.642672" lon="-0.664725">
<ele>351.5</ele>
<speed>27.1</speed>
<course>22.5</course>
<desc>Speed 27.1 km/h Distance 9.28 km</desc>
<time>2011-09-29T10:25:27.85</time>
<name>1652</name>
</trkpt>
<trkpt lat="41.642807" lon="-0.664650">
<ele>350.5</ele>
<speed>29.8</speed>
<course>20.9</course>
<desc>Speed 29.8 km/h Distance 9.30 km</desc>
<time>2011-09-29T10:25:29.43</time>
<name>1653</name>
</trkpt>
<trkpt lat="41.642878" lon="-0.664613">
<ele>350.0</ele>
<speed>30.9</speed>
<course>20.9</course>
<desc>Speed 30.9 km/h Distance 9.31 km</desc>
<time>2011-09-29T10:25:30.43</time>
<name>1654</name>
</trkpt>
<trkpt lat="41.642953" lon="-0.664575">
<ele>349.5</ele>
<speed>31.9</speed>
<course>22.1</course>
<desc>Speed 31.9 km/h Distance 9.32 km</desc>
<time>2011-09-29T10:25:31.43</time>
<name>1655</name>
</trkpt>
<trkpt lat="41.643030" lon="-0.664533">
<ele>349.0</ele>
<speed>32.7</speed>
<course>20.9</course>
<desc>Speed 32.7 km/h Distance 9.32 km</desc>
<time>2011-09-29T10:25:32.43</time>
<name>1656</name>
</trkpt>
<trkpt lat="41.643108" lon="-0.664493">
<ele>348.5</ele>
<speed>33.8</speed>
<course>20.5</course>
<desc>Speed 33.8 km/h Distance 9.33 km</desc>
<time>2011-09-29T10:25:33.43</time>
<name>1657</name>
</trkpt>
<trkpt lat="41.643188" lon="-0.664453">
<ele>348.5</ele>
<speed>33.9</speed>
<course>20.5</course>
<desc>Speed 33.9 km/h Distance 9.34 km</desc>
<time>2011-09-29T10:25:34.78</time>
<name>1658</name>
</trkpt>
<trkpt lat="41.643345" lon="-0.664375">
<ele>348.5</ele>
<speed>33.0</speed>
<course>20.5</course>
<desc>Speed 33.0 km/h Distance 9.36 km</desc>
<time>2011-09-29T10:25:36.43</time>
<name>1659</name>
</trkpt>
<trkpt lat="41.643422" lon="-0.664337">
<ele>348.5</ele>
<speed>32.3</speed>
<course>20.1</course>
<desc>Speed 32.3 km/h Distance 9.37 km</desc>
<time>2011-09-29T10:25:37.55</time>
<name>1660</name>
</trkpt>
<trkpt lat="41.643500" lon="-0.664298">
<ele>347.5</ele>
<speed>32.9</speed>
<course>22.7</course>
<desc>Speed 32.9 km/h Distance 9.38 km</desc>
<time>2011-09-29T10:25:38.43</time>
<name>1661</name>
</trkpt>
<trkpt lat="41.643583" lon="-0.664252">
<ele>346.5</ele>
<speed>35.9</speed>
<course>27.8</course>
<desc>Speed 35.9 km/h Distance 9.39 km</desc>
<time>2011-09-29T10:25:39.43</time>
<name>1662</name>
</trkpt>
<trkpt lat="41.643668" lon="-0.664192">
<ele>346.0</ele>
<speed>38.0</speed>
<course>32.6</course>
<desc>Speed 38.0 km/h Distance 9.40 km</desc>
<time>2011-09-29T10:25:40.43</time>
<name>1663</name>
</trkpt>
<trkpt lat="41.643750" lon="-0.664122">
<ele>345.5</ele>
<speed>39.0</speed>
<course>38.5</course>
<desc>Speed 39.0 km/h Distance 9.41 km</desc>
<time>2011-09-29T10:25:41.43</time>
<name>1664</name>
</trkpt>
<trkpt lat="41.643827" lon="-0.664040">
<ele>345.5</ele>
<speed>38.7</speed>
<course>39.8</course>
<desc>Speed 38.7 km/h Distance 9.42 km</desc>
<time>2011-09-29T10:25:42.42</time>
<name>1665</name>
</trkpt>
<trkpt lat="41.643900" lon="-0.663958">
<ele>345.5</ele>
<speed>37.9</speed>
<course>38.0</course>
<desc>Speed 37.9 km/h Distance 9.43 km</desc>
<time>2011-09-29T10:25:43.43</time>
<name>1666</name>
</trkpt>
<trkpt lat="41.643972" lon="-0.663883">
<ele>345.5</ele>
<speed>36.4</speed>
<course>35.3</course>
<desc>Speed 36.4 km/h Distance 9.44 km</desc>
<time>2011-09-29T10:25:44.48</time>
<name>1667</name>
</trkpt>
<trkpt lat="41.644035" lon="-0.663823">
<ele>345.5</ele>
<speed>30.7</speed>
<course>34.0</course>
<desc>Speed 30.7 km/h Distance 9.45 km</desc>
<time>2011-09-29T10:25:45.42</time>
<name>1668</name>
</trkpt>
<trkpt lat="41.644087" lon="-0.663777">
<ele>345.5</ele>
<speed>25.0</speed>
<course>37.9</course>
<desc>Speed 25.0 km/h Distance 9.46 km</desc>
<time>2011-09-29T10:25:46.42</time>
<name>1669</name>
</trkpt>
<trkpt lat="41.644127" lon="-0.663735">
<ele>345.5</ele>
<speed>20.5</speed>
<course>36.8</course>
<desc>Speed 20.5 km/h Distance 9.47 km</desc>
<time>2011-09-29T10:25:47.42</time>
<name>1670</name>
</trkpt>
<trkpt lat="41.644167" lon="-0.663695">
<ele>345.5</ele>
<speed>19.3</speed>
<course>33.2</course>
<desc>Speed 19.3 km/h Distance 9.47 km</desc>
<time>2011-09-29T10:25:48.42</time>
<name>1671</name>
</trkpt>
<trkpt lat="41.644207" lon="-0.663660">
<ele>345.5</ele>
<speed>18.8</speed>
<course>30.6</course>
<desc>Speed 18.8 km/h Distance 9.48 km</desc>
<time>2011-09-29T10:25:49.42</time>
<name>1672</name>
</trkpt>
<trkpt lat="41.644247" lon="-0.663628">
<ele>345.5</ele>
<speed>18.4</speed>
<course>36.8</course>
<desc>Speed 18.4 km/h Distance 9.48 km</desc>
<time>2011-09-29T10:25:50.42</time>
<name>1673</name>
</trkpt>
<trkpt lat="41.644283" lon="-0.663592">
<ele>345.5</ele>
<speed>18.3</speed>
<course>34.5</course>
<desc>Speed 18.3 km/h Distance 9.49 km</desc>
<time>2011-09-29T10:25:51.42</time>
<name>1674</name>
</trkpt>
<trkpt lat="41.644325" lon="-0.663553">
<ele>345.0</ele>
<speed>19.4</speed>
<course>35.7</course>
<desc>Speed 19.4 km/h Distance 9.49 km</desc>
<time>2011-09-29T10:25:52.41</time>
<name>1675</name>
</trkpt>
<trkpt lat="41.644368" lon="-0.663512">
<ele>345.0</ele>
<speed>21.1</speed>
<course>35.7</course>
<desc>Speed 21.1 km/h Distance 9.50 km</desc>
<time>2011-09-29T10:25:53.41</time>
<name>1676</name>
</trkpt>
<trkpt lat="41.644413" lon="-0.663468">
<ele>345.0</ele>
<speed>21.9</speed>
<course>33.7</course>
<desc>Speed 21.9 km/h Distance 9.50 km</desc>
<time>2011-09-29T10:25:54.42</time>
<name>1677</name>
</trkpt>
<trkpt lat="41.644460" lon="-0.663427">
<ele>345.0</ele>
<speed>22.3</speed>
<course>24.2</course>
<desc>Speed 22.3 km/h Distance 9.51 km</desc>
<time>2011-09-29T10:25:55.41</time>
<name>1678</name>
</trkpt>
<trkpt lat="41.644510" lon="-0.663397">
<ele>345.0</ele>
<speed>21.9</speed>
<course>355.0</course>
<desc>Speed 21.9 km/h Distance 9.52 km</desc>
<time>2011-09-29T10:25:56.96</time>
<name>1679</name>
</trkpt>
<trkpt lat="41.644610" lon="-0.663408">
<ele>344.5</ele>
<speed>20.0</speed>
<course>343.6</course>
<desc>Speed 20.0 km/h Distance 9.53 km</desc>
<time>2011-09-29T10:25:58.41</time>
<name>1680</name>
</trkpt>
<trkpt lat="41.644665" lon="-0.663430">
<ele>344.0</ele>
<speed>22.2</speed>
<course>341.8</course>
<desc>Speed 22.2 km/h Distance 9.53 km</desc>
<time>2011-09-29T10:25:59.41</time>
<name>1681</name>
</trkpt>
<trkpt lat="41.644722" lon="-0.663455">
<ele>343.5</ele>
<speed>23.5</speed>
<course>341.8</course>
<desc>Speed 23.5 km/h Distance 9.54 km</desc>
<time>2011-09-29T10:26:00.41</time>
<name>1682</name>
</trkpt>
<trkpt lat="41.644778" lon="-0.663480">
<ele>343.5</ele>
<speed>23.5</speed>
<course>339.5</course>
<desc>Speed 23.5 km/h Distance 9.55 km</desc>
<time>2011-09-29T10:26:01.41</time>
<name>1683</name>
</trkpt>
<trkpt lat="41.644832" lon="-0.663507">
<ele>343.5</ele>
<speed>23.1</speed>
<course>341.2</course>
<desc>Speed 23.1 km/h Distance 9.55 km</desc>
<time>2011-09-29T10:26:02.41</time>
<name>1684</name>
</trkpt>
<trkpt lat="41.644887" lon="-0.663532">
<ele>343.0</ele>
<speed>22.6</speed>
<course>343.1</course>
<desc>Speed 22.6 km/h Distance 9.56 km</desc>
<time>2011-09-29T10:26:03.41</time>
<name>1685</name>
</trkpt>
<trkpt lat="41.644940" lon="-0.663553">
<ele>343.0</ele>
<speed>22.4</speed>
<course>344.3</course>
<desc>Speed 22.4 km/h Distance 9.57 km</desc>
<time>2011-09-29T10:26:04.41</time>
<name>1686</name>
</trkpt>
<trkpt lat="41.644993" lon="-0.663573">
<ele>343.0</ele>
<speed>21.9</speed>
<course>341.3</course>
<desc>Speed 21.9 km/h Distance 9.57 km</desc>
<time>2011-09-29T10:26:05.41</time>
<name>1687</name>
</trkpt>
<trkpt lat="41.645045" lon="-0.663597">
<ele>343.0</ele>
<speed>21.9</speed>
<course>340.7</course>
<desc>Speed 21.9 km/h Distance 9.58 km</desc>
<time>2011-09-29T10:26:06.66</time>
<name>1688</name>
</trkpt>
<trkpt lat="41.645148" lon="-0.663645">
<ele>343.0</ele>
<speed>21.9</speed>
<course>338.3</course>
<desc>Speed 21.9 km/h Distance 9.59 km</desc>
<time>2011-09-29T10:26:08.40</time>
<name>1689</name>
</trkpt>
<trkpt lat="41.645198" lon="-0.663672">
<ele>343.0</ele>
<speed>21.7</speed>
<course>333.5</course>
<desc>Speed 21.7 km/h Distance 9.60 km</desc>
<time>2011-09-29T10:26:09.40</time>
<name>1690</name>
</trkpt>
<trkpt lat="41.645248" lon="-0.663705">
<ele>343.0</ele>
<speed>21.8</speed>
<course>329.6</course>
<desc>Speed 21.8 km/h Distance 9.60 km</desc>
<time>2011-09-29T10:26:10.40</time>
<name>1691</name>
</trkpt>
<trkpt lat="41.645295" lon="-0.663742">
<ele>343.0</ele>
<speed>22.0</speed>
<course>326.4</course>
<desc>Speed 22.0 km/h Distance 9.61 km</desc>
<time>2011-09-29T10:26:11.40</time>
<name>1692</name>
</trkpt>
<trkpt lat="41.645340" lon="-0.663782">
<ele>343.0</ele>
<speed>21.5</speed>
<course>327.5</course>
<desc>Speed 21.5 km/h Distance 9.61 km</desc>
<time>2011-09-29T10:26:12.40</time>
<name>1693</name>
</trkpt>
<trkpt lat="41.645385" lon="-0.663820">
<ele>343.0</ele>
<speed>21.1</speed>
<course>334.3</course>
<desc>Speed 21.1 km/h Distance 9.62 km</desc>
<time>2011-09-29T10:26:13.59</time>
<name>1694</name>
</trkpt>
<trkpt lat="41.645432" lon="-0.663850">
<ele>343.5</ele>
<speed>20.3</speed>
<course>332.3</course>
<desc>Speed 20.3 km/h Distance 9.63 km</desc>
<time>2011-09-29T10:26:14.40</time>
<name>1695</name>
</trkpt>
<trkpt lat="41.645477" lon="-0.663882">
<ele>343.5</ele>
<speed>20.6</speed>
<course>339.5</course>
<desc>Speed 20.6 km/h Distance 9.63 km</desc>
<time>2011-09-29T10:26:15.40</time>
<name>1696</name>
</trkpt>
<trkpt lat="41.645523" lon="-0.663905">
<ele>343.5</ele>
<speed>19.9</speed>
<course>350.1</course>
<desc>Speed 19.9 km/h Distance 9.64 km</desc>
<time>2011-09-29T10:26:16.41</time>
<name>1697</name>
</trkpt>
<trkpt lat="41.645573" lon="-0.663917">
<ele>344.0</ele>
<speed>19.7</speed>
<course>355.8</course>
<desc>Speed 19.7 km/h Distance 9.64 km</desc>
<time>2011-09-29T10:26:17.40</time>
<name>1698</name>
</trkpt>
<trkpt lat="41.645623" lon="-0.663922">
<ele>344.0</ele>
<speed>20.1</speed>
<course>4.3</course>
<desc>Speed 20.1 km/h Distance 9.65 km</desc>
<time>2011-09-29T10:26:18.40</time>
<name>1699</name>
</trkpt>
<trkpt lat="41.645673" lon="-0.663917">
<ele>344.0</ele>
<speed>20.2</speed>
<course>14.9</course>
<desc>Speed 20.2 km/h Distance 9.65 km</desc>
<time>2011-09-29T10:26:19.40</time>
<name>1700</name>
</trkpt>
<trkpt lat="41.645725" lon="-0.663898">
<ele>344.0</ele>
<speed>21.0</speed>
<course>22.4</course>
<desc>Speed 21.0 km/h Distance 9.66 km</desc>
<time>2011-09-29T10:26:20.40</time>
<name>1701</name>
</trkpt>
<trkpt lat="41.645773" lon="-0.663872">
<ele>344.5</ele>
<speed>21.1</speed>
<course>24.2</course>
<desc>Speed 21.1 km/h Distance 9.67 km</desc>
<time>2011-09-29T10:26:21.39</time>
<name>1702</name>
</trkpt>
<trkpt lat="41.645823" lon="-0.663842">
<ele>344.5</ele>
<speed>21.5</speed>
<course>31.6</course>
<desc>Speed 21.5 km/h Distance 9.67 km</desc>
<time>2011-09-29T10:26:22.40</time>
<name>1703</name>
</trkpt>
<trkpt lat="41.645870" lon="-0.663803">
<ele>344.5</ele>
<speed>21.3</speed>
<course>35.7</course>
<desc>Speed 21.3 km/h Distance 9.68 km</desc>
<time>2011-09-29T10:26:23.39</time>
<name>1704</name>
</trkpt>
<trkpt lat="41.645913" lon="-0.663762">
<ele>344.5</ele>
<speed>21.0</speed>
<course>36.8</course>
<desc>Speed 21.0 km/h Distance 9.68 km</desc>
<time>2011-09-29T10:26:24.39</time>
<name>1705</name>
</trkpt>
<trkpt lat="41.645955" lon="-0.663720">
<ele>344.5</ele>
<speed>21.0</speed>
<course>38.1</course>
<desc>Speed 21.0 km/h Distance 9.69 km</desc>
<time>2011-09-29T10:26:26.07</time>
<name>1706</name>
</trkpt>
<trkpt lat="41.646087" lon="-0.663582">
<ele>344.0</ele>
<speed>22.5</speed>
<course>38.8</course>
<desc>Speed 22.5 km/h Distance 9.71 km</desc>
<time>2011-09-29T10:26:28.39</time>
<name>1707</name>
</trkpt>
<trkpt lat="41.646132" lon="-0.663533">
<ele>344.0</ele>
<speed>22.7</speed>
<course>39.8</course>
<desc>Speed 22.7 km/h Distance 9.72 km</desc>
<time>2011-09-29T10:26:29.39</time>
<name>1708</name>
</trkpt>
<trkpt lat="41.646175" lon="-0.663485">
<ele>344.0</ele>
<speed>22.6</speed>
<course>37.7</course>
<desc>Speed 22.6 km/h Distance 9.72 km</desc>
<time>2011-09-29T10:26:30.39</time>
<name>1709</name>
</trkpt>
<trkpt lat="41.646222" lon="-0.663437">
<ele>343.5</ele>
<speed>23.2</speed>
<course>38.7</course>
<desc>Speed 23.2 km/h Distance 9.73 km</desc>
<time>2011-09-29T10:26:31.39</time>
<name>1710</name>
</trkpt>
<trkpt lat="41.646268" lon="-0.663387">
<ele>343.5</ele>
<speed>23.7</speed>
<course>37.7</course>
<desc>Speed 23.7 km/h Distance 9.73 km</desc>
<time>2011-09-29T10:26:32.39</time>
<name>1711</name>
</trkpt>
<trkpt lat="41.646317" lon="-0.663337">
<ele>343.5</ele>
<speed>23.9</speed>
<course>40.6</course>
<desc>Speed 23.9 km/h Distance 9.74 km</desc>
<time>2011-09-29T10:26:33.39</time>
<name>1712</name>
</trkpt>
<trkpt lat="41.646362" lon="-0.663285">
<ele>343.5</ele>
<speed>23.6</speed>
<course>40.8</course>
<desc>Speed 23.6 km/h Distance 9.75 km</desc>
<time>2011-09-29T10:26:34.39</time>
<name>1713</name>
</trkpt>
<trkpt lat="41.646405" lon="-0.663235">
<ele>343.5</ele>
<speed>22.9</speed>
<course>41.8</course>
<desc>Speed 22.9 km/h Distance 9.75 km</desc>
<time>2011-09-29T10:26:35.80</time>
<name>1714</name>
</trkpt>
<trkpt lat="41.646490" lon="-0.663133">
<ele>343.5</ele>
<speed>22.7</speed>
<course>40.2</course>
<desc>Speed 22.7 km/h Distance 9.77 km</desc>
<time>2011-09-29T10:26:38.33</time>
<name>1715</name>
</trkpt>
<trkpt lat="41.646618" lon="-0.662988">
<ele>344.0</ele>
<speed>22.1</speed>
<course>46.1</course>
<desc>Speed 22.1 km/h Distance 9.79 km</desc>
<time>2011-09-29T10:26:40.39</time>
<name>1716</name>
</trkpt>
<trkpt lat="41.646657" lon="-0.662935">
<ele>344.0</ele>
<speed>22.4</speed>
<course>49.1</course>
<desc>Speed 22.4 km/h Distance 9.79 km</desc>
<time>2011-09-29T10:26:41.38</time>
<name>1717</name>
</trkpt>
<trkpt lat="41.646693" lon="-0.662878">
<ele>344.0</ele>
<speed>22.2</speed>
<course>60.6</course>
<desc>Speed 22.2 km/h Distance 9.80 km</desc>
<time>2011-09-29T10:26:42.81</time>
<name>1718</name>
</trkpt>
<trkpt lat="41.646747" lon="-0.662752">
<ele>344.0</ele>
<speed>21.7</speed>
<course>68.1</course>
<desc>Speed 21.7 km/h Distance 9.81 km</desc>
<time>2011-09-29T10:26:44.38</time>
<name>1719</name>
</trkpt>
<trkpt lat="41.646767" lon="-0.662685">
<ele>344.0</ele>
<speed>21.4</speed>
<course>77.0</course>
<desc>Speed 21.4 km/h Distance 9.82 km</desc>
<time>2011-09-29T10:26:45.63</time>
<name>1720</name>
</trkpt>
<trkpt lat="41.646790" lon="-0.662550">
<ele>344.5</ele>
<speed>20.5</speed>
<course>80.5</course>
<desc>Speed 20.5 km/h Distance 9.83 km</desc>
<time>2011-09-29T10:26:47.38</time>
<name>1721</name>
</trkpt>
<trkpt lat="41.646798" lon="-0.662483">
<ele>344.5</ele>
<speed>20.3</speed>
<course>77.1</course>
<desc>Speed 20.3 km/h Distance 9.83 km</desc>
<time>2011-09-29T10:26:48.38</time>
<name>1722</name>
</trkpt>
<trkpt lat="41.646810" lon="-0.662415">
<ele>344.0</ele>
<speed>20.7</speed>
<course>77.1</course>
<desc>Speed 20.7 km/h Distance 9.84 km</desc>
<time>2011-09-29T10:26:49.38</time>
<name>1723</name>
</trkpt>
<trkpt lat="41.646822" lon="-0.662347">
<ele>344.5</ele>
<speed>21.1</speed>
<course>75.0</course>
<desc>Speed 21.1 km/h Distance 9.85 km</desc>
<time>2011-09-29T10:26:50.38</time>
<name>1724</name>
</trkpt>
<trkpt lat="41.646835" lon="-0.662280">
<ele>344.5</ele>
<speed>20.9</speed>
<course>69.8</course>
<desc>Speed 20.9 km/h Distance 9.85 km</desc>
<time>2011-09-29T10:26:51.38</time>
<name>1725</name>
</trkpt>
<trkpt lat="41.646853" lon="-0.662213">
<ele>344.5</ele>
<speed>21.0</speed>
<course>66.0</course>
<desc>Speed 21.0 km/h Distance 9.86 km</desc>
<time>2011-09-29T10:26:52.55</time>
<name>1726</name>
</trkpt>
<trkpt lat="41.646875" lon="-0.662148">
<ele>344.5</ele>
<speed>21.3</speed>
<course>63.8</course>
<desc>Speed 21.3 km/h Distance 9.86 km</desc>
<time>2011-09-29T10:26:53.37</time>
<name>1727</name>
</trkpt>
<trkpt lat="41.646898" lon="-0.662085">
<ele>344.0</ele>
<speed>21.5</speed>
<course>63.3</course>
<desc>Speed 21.5 km/h Distance 9.87 km</desc>
<time>2011-09-29T10:26:54.38</time>
<name>1728</name>
</trkpt>
<trkpt lat="41.646923" lon="-0.662018">
<ele>344.5</ele>
<speed>22.0</speed>
<course>57.7</course>
<desc>Speed 22.0 km/h Distance 9.88 km</desc>
<time>2011-09-29T10:26:55.75</time>
<name>1729</name>
</trkpt>
<trkpt lat="41.646982" lon="-0.661895">
<ele>344.5</ele>
<speed>21.8</speed>
<course>58.4</course>
<desc>Speed 21.8 km/h Distance 9.89 km</desc>
<time>2011-09-29T10:26:57.38</time>
<name>1730</name>
</trkpt>
<trkpt lat="41.647010" lon="-0.661833">
<ele>344.5</ele>
<speed>21.4</speed>
<course>59.3</course>
<desc>Speed 21.4 km/h Distance 9.89 km</desc>
<time>2011-09-29T10:26:58.38</time>
<name>1731</name>
</trkpt>
<trkpt lat="41.647037" lon="-0.661773">
<ele>344.5</ele>
<speed>20.8</speed>
<course>57.8</course>
<desc>Speed 20.8 km/h Distance 9.90 km</desc>
<time>2011-09-29T10:26:59.37</time>
<name>1732</name>
</trkpt>
<trkpt lat="41.647063" lon="-0.661717">
<ele>345.0</ele>
<speed>20.3</speed>
<course>58.5</course>
<desc>Speed 20.3 km/h Distance 9.90 km</desc>
<time>2011-09-29T10:27:00.37</time>
<name>1733</name>
</trkpt>
<trkpt lat="41.647090" lon="-0.661658">
<ele>345.0</ele>
<speed>20.1</speed>
<course>67.8</course>
<desc>Speed 20.1 km/h Distance 9.91 km</desc>
<time>2011-09-29T10:27:01.37</time>
<name>1734</name>
</trkpt>
<trkpt lat="41.647108" lon="-0.661598">
<ele>345.0</ele>
<speed>19.3</speed>
<course>70.6</course>
<desc>Speed 19.3 km/h Distance 9.92 km</desc>
<time>2011-09-29T10:27:02.37</time>
<name>1735</name>
</trkpt>
<trkpt lat="41.647125" lon="-0.661535">
<ele>345.0</ele>
<speed>20.1</speed>
<course>70.6</course>
<desc>Speed 20.1 km/h Distance 9.92 km</desc>
<time>2011-09-29T10:27:03.37</time>
<name>1736</name>
</trkpt>
<trkpt lat="41.647142" lon="-0.661472">
<ele>345.5</ele>
<speed>20.1</speed>
<course>65.8</course>
<desc>Speed 20.1 km/h Distance 9.93 km</desc>
<time>2011-09-29T10:27:05.13</time>
<name>1737</name>
</trkpt>
<trkpt lat="41.647205" lon="-0.661283">
<ele>345.5</ele>
<speed>20.9</speed>
<course>67.1</course>
<desc>Speed 20.9 km/h Distance 9.94 km</desc>
<time>2011-09-29T10:27:07.37</time>
<name>1738</name>
</trkpt>
<trkpt lat="41.647225" lon="-0.661220">
<ele>345.5</ele>
<speed>20.8</speed>
<course>69.3</course>
<desc>Speed 20.8 km/h Distance 9.95 km</desc>
<time>2011-09-29T10:27:08.37</time>
<name>1739</name>
</trkpt>
<trkpt lat="41.647243" lon="-0.661155">
<ele>345.5</ele>
<speed>20.3</speed>
<course>66.5</course>
<desc>Speed 20.3 km/h Distance 9.96 km</desc>
<time>2011-09-29T10:27:09.37</time>
<name>1740</name>
</trkpt>
<trkpt lat="41.647263" lon="-0.661093">
<ele>345.5</ele>
<speed>20.7</speed>
<course>67.6</course>
<desc>Speed 20.7 km/h Distance 9.96 km</desc>
<time>2011-09-29T10:27:10.37</time>
<name>1741</name>
</trkpt>
<trkpt lat="41.647283" lon="-0.661028">
<ele>346.0</ele>
<speed>20.7</speed>
<course>63.6</course>
<desc>Speed 20.7 km/h Distance 9.97 km</desc>
<time>2011-09-29T10:27:11.36</time>
<name>1742</name>
</trkpt>
<trkpt lat="41.647305" lon="-0.660970">
<ele>346.0</ele>
<speed>19.8</speed>
<course>66.0</course>
<desc>Speed 19.8 km/h Distance 9.97 km</desc>
<time>2011-09-29T10:27:12.36</time>
<name>1743</name>
</trkpt>
<trkpt lat="41.647325" lon="-0.660910">
<ele>346.0</ele>
<speed>19.8</speed>
<course>66.5</course>
<desc>Speed 19.8 km/h Distance 9.98 km</desc>
<time>2011-09-29T10:27:13.36</time>
<name>1744</name>
</trkpt>
<trkpt lat="41.647345" lon="-0.660848">
<ele>346.0</ele>
<speed>19.9</speed>
<course>72.4</course>
<desc>Speed 19.9 km/h Distance 9.98 km</desc>
<time>2011-09-29T10:27:14.89</time>
<name>1745</name>
</trkpt>
<trkpt lat="41.647375" lon="-0.660722">
<ele>346.0</ele>
<speed>19.9</speed>
<course>74.6</course>
<desc>Speed 19.9 km/h Distance 9.99 km</desc>
<time>2011-09-29T10:27:16.36</time>
<name>1746</name>
</trkpt>
<trkpt lat="41.647388" lon="-0.660657">
<ele>346.0</ele>
<speed>20.2</speed>
<course>76.8</course>
<desc>Speed 20.2 km/h Distance 10.00 km</desc>
<time>2011-09-29T10:27:17.36</time>
<name>1747</name>
</trkpt>
<trkpt lat="41.647400" lon="-0.660590">
<ele>346.0</ele>
<speed>20.5</speed>
<course>77.1</course>
<desc>Speed 20.5 km/h Distance 10.01 km</desc>
<time>2011-09-29T10:27:18.36</time>
<name>1748</name>
</trkpt>
<trkpt lat="41.647412" lon="-0.660522">
<ele>346.0</ele>
<speed>20.9</speed>
<course>73.6</course>
<desc>Speed 20.9 km/h Distance 10.01 km</desc>
<time>2011-09-29T10:27:19.36</time>
<name>1749</name>
</trkpt>
<trkpt lat="41.647427" lon="-0.660453">
<ele>345.5</ele>
<speed>21.4</speed>
<course>70.7</course>
<desc>Speed 21.4 km/h Distance 10.02 km</desc>
<time>2011-09-29T10:27:20.36</time>
<name>1750</name>
</trkpt>
<trkpt lat="41.647445" lon="-0.660383">
<ele>345.5</ele>
<speed>22.4</speed>
<course>69.5</course>
<desc>Speed 22.4 km/h Distance 10.02 km</desc>
<time>2011-09-29T10:27:21.36</time>
<name>1751</name>
</trkpt>
<trkpt lat="41.647465" lon="-0.660312">
<ele>345.5</ele>
<speed>22.8</speed>
<course>72.7</course>
<desc>Speed 22.8 km/h Distance 10.03 km</desc>
<time>2011-09-29T10:27:22.36</time>
<name>1752</name>
</trkpt>
<trkpt lat="41.647482" lon="-0.660240">
<ele>345.5</ele>
<speed>22.8</speed>
<course>72.7</course>
<desc>Speed 22.8 km/h Distance 10.04 km</desc>
<time>2011-09-29T10:27:23.36</time>
<name>1753</name>
</trkpt>
<trkpt lat="41.647498" lon="-0.660168">
<ele>345.0</ele>
<speed>22.5</speed>
<course>72.1</course>
<desc>Speed 22.5 km/h Distance 10.04 km</desc>
<time>2011-09-29T10:27:24.63</time>
<name>1754</name>
</trkpt>
<trkpt lat="41.647533" lon="-0.660023">
<ele>345.5</ele>
<speed>23.2</speed>
<course>71.5</course>
<desc>Speed 23.2 km/h Distance 10.06 km</desc>
<time>2011-09-29T10:27:26.36</time>
<name>1755</name>
</trkpt>
<trkpt lat="41.647552" lon="-0.659950">
<ele>345.5</ele>
<speed>23.2</speed>
<course>70.7</course>
<desc>Speed 23.2 km/h Distance 10.06 km</desc>
<time>2011-09-29T10:27:27.35</time>
<name>1756</name>
</trkpt>
<trkpt lat="41.647570" lon="-0.659880">
<ele>346.0</ele>
<speed>22.2</speed>
<course>69.8</course>
<desc>Speed 22.2 km/h Distance 10.07 km</desc>
<time>2011-09-29T10:27:28.35</time>
<name>1757</name>
</trkpt>
<trkpt lat="41.647588" lon="-0.659813">
<ele>346.0</ele>
<speed>21.3</speed>
<course>69.3</course>
<desc>Speed 21.3 km/h Distance 10.07 km</desc>
<time>2011-09-29T10:27:29.35</time>
<name>1758</name>
</trkpt>
<trkpt lat="41.647607" lon="-0.659748">
<ele>346.5</ele>
<speed>20.8</speed>
<course>68.8</course>
<desc>Speed 20.8 km/h Distance 10.08 km</desc>
<time>2011-09-29T10:27:30.35</time>
<name>1759</name>
</trkpt>
<trkpt lat="41.647625" lon="-0.659685">
<ele>346.5</ele>
<speed>20.2</speed>
<course>66.0</course>
<desc>Speed 20.2 km/h Distance 10.09 km</desc>
<time>2011-09-29T10:27:31.56</time>
<name>1760</name>
</trkpt>
<trkpt lat="41.647645" lon="-0.659625">
<ele>347.0</ele>
<speed>19.5</speed>
<course>61.1</course>
<desc>Speed 19.5 km/h Distance 10.09 km</desc>
<time>2011-09-29T10:27:32.35</time>
<name>1761</name>
</trkpt>
<trkpt lat="41.647668" lon="-0.659568">
<ele>347.5</ele>
<speed>19.0</speed>
<course>52.8</course>
<desc>Speed 19.0 km/h Distance 10.10 km</desc>
<time>2011-09-29T10:27:33.34</time>
<name>1762</name>
</trkpt>
<trkpt lat="41.647697" lon="-0.659518">
<ele>347.5</ele>
<speed>19.1</speed>
<course>55.4</course>
<desc>Speed 19.1 km/h Distance 10.10 km</desc>
<time>2011-09-29T10:27:34.36</time>
<name>1763</name>
</trkpt>
<trkpt lat="41.647723" lon="-0.659467">
<ele>348.0</ele>
<speed>18.6</speed>
<course>51.9</course>
<desc>Speed 18.6 km/h Distance 10.11 km</desc>
<time>2011-09-29T10:27:35.35</time>
<name>1764</name>
</trkpt>
<trkpt lat="41.647752" lon="-0.659418">
<ele>348.0</ele>
<speed>18.3</speed>
<course>47.5</course>
<desc>Speed 18.3 km/h Distance 10.11 km</desc>
<time>2011-09-29T10:27:36.86</time>
<name>1765</name>
</trkpt>
<trkpt lat="41.647813" lon="-0.659328">
<ele>348.5</ele>
<speed>17.7</speed>
<course>46.1</course>
<desc>Speed 17.7 km/h Distance 10.12 km</desc>
<time>2011-09-29T10:27:38.34</time>
<name>1766</name>
</trkpt>
<trkpt lat="41.647843" lon="-0.659287">
<ele>348.5</ele>
<speed>17.5</speed>
<course>43.0</course>
<desc>Speed 17.5 km/h Distance 10.13 km</desc>
<time>2011-09-29T10:27:39.34</time>
<name>1767</name>
</trkpt>
<trkpt lat="41.647877" lon="-0.659245">
<ele>349.0</ele>
<speed>17.9</speed>
<course>43.0</course>
<desc>Speed 17.9 km/h Distance 10.13 km</desc>
<time>2011-09-29T10:27:40.34</time>
<name>1768</name>
</trkpt>
<trkpt lat="41.647910" lon="-0.659203">
<ele>349.0</ele>
<speed>18.3</speed>
<course>43.3</course>
<desc>Speed 18.3 km/h Distance 10.14 km</desc>
<time>2011-09-29T10:27:41.85</time>
<name>1769</name>
</trkpt>
<trkpt lat="41.647973" lon="-0.659123">
<ele>350.0</ele>
<speed>17.0</speed>
<course>35.4</course>
<desc>Speed 17.0 km/h Distance 10.15 km</desc>
<time>2011-09-29T10:27:43.34</time>
<name>1770</name>
</trkpt>
<trkpt lat="41.648008" lon="-0.659090">
<ele>350.0</ele>
<speed>17.0</speed>
<course>36.8</course>
<desc>Speed 17.0 km/h Distance 10.15 km</desc>
<time>2011-09-29T10:27:45.03</time>
<name>1771</name>
</trkpt>
<trkpt lat="41.648115" lon="-0.658983">
<ele>350.5</ele>
<speed>17.6</speed>
<course>31.4</course>
<desc>Speed 17.6 km/h Distance 10.17 km</desc>
<time>2011-09-29T10:27:47.34</time>
<name>1772</name>
</trkpt>
<trkpt lat="41.648152" lon="-0.658953">
<ele>351.0</ele>
<speed>17.5</speed>
<course>31.7</course>
<desc>Speed 17.5 km/h Distance 10.17 km</desc>
<time>2011-09-29T10:27:48.34</time>
<name>1773</name>
</trkpt>
<trkpt lat="41.648190" lon="-0.658922">
<ele>351.0</ele>
<speed>17.7</speed>
<course>27.9</course>
<desc>Speed 17.7 km/h Distance 10.18 km</desc>
<time>2011-09-29T10:27:49.34</time>
<name>1774</name>
</trkpt>
<trkpt lat="41.648230" lon="-0.658893">
<ele>351.0</ele>
<speed>18.3</speed>
<course>25.5</course>
<desc>Speed 18.3 km/h Distance 10.18 km</desc>
<time>2011-09-29T10:27:50.34</time>
<name>1775</name>
</trkpt>
<trkpt lat="41.648272" lon="-0.658867">
<ele>351.5</ele>
<speed>18.2</speed>
<course>25.6</course>
<desc>Speed 18.2 km/h Distance 10.19 km</desc>
<time>2011-09-29T10:27:51.55</time>
<name>1776</name>
</trkpt>
<trkpt lat="41.648313" lon="-0.658840">
<ele>351.5</ele>
<speed>18.5</speed>
<course>17.6</course>
<desc>Speed 18.5 km/h Distance 10.19 km</desc>
<time>2011-09-29T10:27:52.34</time>
<name>1777</name>
</trkpt>
<trkpt lat="41.648357" lon="-0.658822">
<ele>351.5</ele>
<speed>17.8</speed>
<course>14.6</course>
<desc>Speed 17.8 km/h Distance 10.20 km</desc>
<time>2011-09-29T10:27:53.34</time>
<name>1778</name>
</trkpt>
<trkpt lat="41.648400" lon="-0.658807">
<ele>352.0</ele>
<speed>17.6</speed>
<course>6.3</course>
<desc>Speed 17.6 km/h Distance 10.20 km</desc>
<time>2011-09-29T10:27:54.35</time>
<name>1779</name>
</trkpt>
<trkpt lat="41.648445" lon="-0.658800">
<ele>352.0</ele>
<speed>17.9</speed>
<course>5.8</course>
<desc>Speed 17.9 km/h Distance 10.21 km</desc>
<time>2011-09-29T10:27:55.33</time>
<name>1780</name>
</trkpt>
<trkpt lat="41.648493" lon="-0.658793">
<ele>351.5</ele>
<speed>18.9</speed>
<course>2.6</course>
<desc>Speed 18.9 km/h Distance 10.21 km</desc>
<time>2011-09-29T10:27:56.33</time>
<name>1781</name>
</trkpt>
<trkpt lat="41.648543" lon="-0.658790">
<ele>352.0</ele>
<speed>19.6</speed>
<course>4.2</course>
<desc>Speed 19.6 km/h Distance 10.22 km</desc>
<time>2011-09-29T10:27:57.33</time>
<name>1782</name>
</trkpt>
<trkpt lat="41.648593" lon="-0.658785">
<ele>352.0</ele>
<speed>19.7</speed>
<course>7.3</course>
<desc>Speed 19.7 km/h Distance 10.22 km</desc>
<time>2011-09-29T10:27:58.33</time>
<name>1783</name>
</trkpt>
<trkpt lat="41.648642" lon="-0.658777">
<ele>352.0</ele>
<speed>19.7</speed>
<course>17.2</course>
<desc>Speed 19.7 km/h Distance 10.23 km</desc>
<time>2011-09-29T10:27:59.33</time>
<name>1784</name>
</trkpt>
<trkpt lat="41.648690" lon="-0.658757">
<ele>351.5</ele>
<speed>19.7</speed>
<course>34.4</course>
<desc>Speed 19.7 km/h Distance 10.23 km</desc>
<time>2011-09-29T10:28:00.33</time>
<name>1785</name>
</trkpt>
<trkpt lat="41.648730" lon="-0.658720">
<ele>351.5</ele>
<speed>19.6</speed>
<course>45.9</course>
<desc>Speed 19.6 km/h Distance 10.24 km</desc>
<time>2011-09-29T10:28:01.33</time>
<name>1786</name>
</trkpt>
<trkpt lat="41.648765" lon="-0.658672">
<ele>352.0</ele>
<speed>19.7</speed>
<course>46.9</course>
<desc>Speed 19.7 km/h Distance 10.24 km</desc>
<time>2011-09-29T10:28:02.34</time>
<name>1787</name>
</trkpt>
<trkpt lat="41.648800" lon="-0.658622">
<ele>352.0</ele>
<speed>19.7</speed>
<course>47.3</course>
<desc>Speed 19.7 km/h Distance 10.25 km</desc>
<time>2011-09-29T10:28:03.33</time>
<name>1788</name>
</trkpt>
<trkpt lat="41.648833" lon="-0.658573">
<ele>352.0</ele>
<speed>19.6</speed>
<course>47.3</course>
<desc>Speed 19.6 km/h Distance 10.26 km</desc>
<time>2011-09-29T10:28:04.33</time>
<name>1789</name>
</trkpt>
<trkpt lat="41.648867" lon="-0.658525">
<ele>352.5</ele>
<speed>19.5</speed>
<course>44.9</course>
<desc>Speed 19.5 km/h Distance 10.26 km</desc>
<time>2011-09-29T10:28:05.33</time>
<name>1790</name>
</trkpt>
<trkpt lat="41.648902" lon="-0.658478">
<ele>352.5</ele>
<speed>19.4</speed>
<course>43.9</course>
<desc>Speed 19.4 km/h Distance 10.27 km</desc>
<time>2011-09-29T10:28:06.33</time>
<name>1791</name>
</trkpt>
<trkpt lat="41.648937" lon="-0.658433">
<ele>352.5</ele>
<speed>19.4</speed>
<course>40.2</course>
<desc>Speed 19.4 km/h Distance 10.27 km</desc>
<time>2011-09-29T10:28:07.32</time>
<name>1792</name>
</trkpt>
<trkpt lat="41.648975" lon="-0.658390">
<ele>352.5</ele>
<speed>19.3</speed>
<course>38.0</course>
<desc>Speed 19.3 km/h Distance 10.28 km</desc>
<time>2011-09-29T10:28:08.32</time>
<name>1793</name>
</trkpt>
<trkpt lat="41.649013" lon="-0.658350">
<ele>352.5</ele>
<speed>19.0</speed>
<course>36.8</course>
<desc>Speed 19.0 km/h Distance 10.28 km</desc>
<time>2011-09-29T10:28:09.32</time>
<name>1794</name>
</trkpt>
<trkpt lat="41.649052" lon="-0.658312">
<ele>352.5</ele>
<speed>19.1</speed>
<course>35.6</course>
<desc>Speed 19.1 km/h Distance 10.29 km</desc>
<time>2011-09-29T10:28:10.33</time>
<name>1795</name>
</trkpt>
<trkpt lat="41.649092" lon="-0.658273">
<ele>352.5</ele>
<speed>19.3</speed>
<course>32.1</course>
<desc>Speed 19.3 km/h Distance 10.29 km</desc>
<time>2011-09-29T10:28:11.32</time>
<name>1796</name>
</trkpt>
<trkpt lat="41.649133" lon="-0.658238">
<ele>353.0</ele>
<speed>19.6</speed>
<course>33.5</course>
<desc>Speed 19.6 km/h Distance 10.30 km</desc>
<time>2011-09-29T10:28:12.32</time>
<name>1797</name>
</trkpt>
<trkpt lat="41.649177" lon="-0.658200">
<ele>353.0</ele>
<speed>19.8</speed>
<course>35.1</course>
<desc>Speed 19.8 km/h Distance 10.31 km</desc>
<time>2011-09-29T10:28:13.88</time>
<name>1798</name>
</trkpt>
<trkpt lat="41.649258" lon="-0.658123">
<ele>353.0</ele>
<speed>20.1</speed>
<course>34.5</course>
<desc>Speed 20.1 km/h Distance 10.32 km</desc>
<time>2011-09-29T10:28:15.32</time>
<name>1799</name>
</trkpt>
<trkpt lat="41.649300" lon="-0.658085">
<ele>353.0</ele>
<speed>20.1</speed>
<course>36.8</course>
<desc>Speed 20.1 km/h Distance 10.32 km</desc>
<time>2011-09-29T10:28:16.32</time>
<name>1800</name>
</trkpt>
<trkpt lat="41.649340" lon="-0.658045">
<ele>353.0</ele>
<speed>20.1</speed>
<course>37.9</course>
<desc>Speed 20.1 km/h Distance 10.33 km</desc>
<time>2011-09-29T10:28:17.32</time>
<name>1801</name>
</trkpt>
<trkpt lat="41.649380" lon="-0.658003">
<ele>353.0</ele>
<speed>19.7</speed>
<course>39.1</course>
<desc>Speed 19.7 km/h Distance 10.33 km</desc>
<time>2011-09-29T10:28:18.32</time>
<name>1802</name>
</trkpt>
<trkpt lat="41.649418" lon="-0.657962">
<ele>353.0</ele>
<speed>19.9</speed>
<course>36.8</course>
<desc>Speed 19.9 km/h Distance 10.34 km</desc>
<time>2011-09-29T10:28:19.32</time>
<name>1803</name>
</trkpt>
<trkpt lat="41.649458" lon="-0.657922">
<ele>353.0</ele>
<speed>19.7</speed>
<course>35.6</course>
<desc>Speed 19.7 km/h Distance 10.34 km</desc>
<time>2011-09-29T10:28:20.32</time>
<name>1804</name>
</trkpt>
<trkpt lat="41.649498" lon="-0.657883">
<ele>353.5</ele>
<speed>19.4</speed>
<course>34.4</course>
<desc>Speed 19.4 km/h Distance 10.35 km</desc>
<time>2011-09-29T10:28:21.31</time>
<name>1805</name>
</trkpt>
<trkpt lat="41.649538" lon="-0.657847">
<ele>353.5</ele>
<speed>19.1</speed>
<course>35.6</course>
<desc>Speed 19.1 km/h Distance 10.36 km</desc>
<time>2011-09-29T10:28:22.31</time>
<name>1806</name>
</trkpt>
<trkpt lat="41.649577" lon="-0.657810">
<ele>353.5</ele>
<speed>18.8</speed>
<course>32.0</course>
<desc>Speed 18.8 km/h Distance 10.36 km</desc>
<time>2011-09-29T10:28:23.62</time>
<name>1807</name>
</trkpt>
<trkpt lat="41.649658" lon="-0.657742">
<ele>354.0</ele>
<speed>19.0</speed>
<course>32.1</course>
<desc>Speed 19.0 km/h Distance 10.37 km</desc>
<time>2011-09-29T10:28:25.31</time>
<name>1808</name>
</trkpt>
<trkpt lat="41.649700" lon="-0.657707">
<ele>354.0</ele>
<speed>19.1</speed>
<course>29.6</course>
<desc>Speed 19.1 km/h Distance 10.38 km</desc>
<time>2011-09-29T10:28:26.31</time>
<name>1809</name>
</trkpt>
<trkpt lat="41.649742" lon="-0.657675">
<ele>354.0</ele>
<speed>19.0</speed>
<course>30.6</course>
<desc>Speed 19.0 km/h Distance 10.38 km</desc>
<time>2011-09-29T10:28:27.31</time>
<name>1810</name>
</trkpt>
<trkpt lat="41.649782" lon="-0.657643">
<ele>354.0</ele>
<speed>19.0</speed>
<course>29.6</course>
<desc>Speed 19.0 km/h Distance 10.39 km</desc>
<time>2011-09-29T10:28:28.31</time>
<name>1811</name>
</trkpt>
<trkpt lat="41.649823" lon="-0.657612">
<ele>354.5</ele>
<speed>18.8</speed>
<course>27.9</course>
<desc>Speed 18.8 km/h Distance 10.39 km</desc>
<time>2011-09-29T10:28:29.31</time>
<name>1812</name>
</trkpt>
<trkpt lat="41.649863" lon="-0.657583">
<ele>354.5</ele>
<speed>18.1</speed>
<course>22.7</course>
<desc>Speed 18.1 km/h Distance 10.40 km</desc>
<time>2011-09-29T10:28:30.54</time>
<name>1813</name>
</trkpt>
<trkpt lat="41.649947" lon="-0.657537">
<ele>355.5</ele>
<speed>17.7</speed>
<course>21.3</course>
<desc>Speed 17.7 km/h Distance 10.41 km</desc>
<time>2011-09-29T10:28:32.31</time>
<name>1814</name>
</trkpt>
<trkpt lat="41.649988" lon="-0.657515">
<ele>355.5</ele>
<speed>17.7</speed>
<course>15.5</course>
<desc>Speed 17.7 km/h Distance 10.41 km</desc>
<time>2011-09-29T10:28:33.35</time>
<name>1815</name>
</trkpt>
<trkpt lat="41.650033" lon="-0.657498">
<ele>355.5</ele>
<speed>18.3</speed>
<course>6.1</course>
<desc>Speed 18.3 km/h Distance 10.42 km</desc>
<time>2011-09-29T10:28:34.31</time>
<name>1816</name>
</trkpt>
<trkpt lat="41.650078" lon="-0.657492">
<ele>356.0</ele>
<speed>18.1</speed>
<course>8.1</course>
<desc>Speed 18.1 km/h Distance 10.42 km</desc>
<time>2011-09-29T10:28:35.31</time>
<name>1817</name>
</trkpt>
<trkpt lat="41.650122" lon="-0.657483">
<ele>356.5</ele>
<speed>17.6</speed>
<course>6.4</course>
<desc>Speed 17.6 km/h Distance 10.43 km</desc>
<time>2011-09-29T10:28:36.31</time>
<name>1818</name>
</trkpt>
<trkpt lat="41.650165" lon="-0.657477">
<ele>356.5</ele>
<speed>17.4</speed>
<course>6.2</course>
<desc>Speed 17.4 km/h Distance 10.43 km</desc>
<time>2011-09-29T10:28:37.31</time>
<name>1819</name>
</trkpt>
<trkpt lat="41.650210" lon="-0.657470">
<ele>356.5</ele>
<speed>17.7</speed>
<course>6.3</course>
<desc>Speed 17.7 km/h Distance 10.44 km</desc>
<time>2011-09-29T10:28:38.30</time>
<name>1820</name>
</trkpt>
<trkpt lat="41.650255" lon="-0.657463">
<ele>356.5</ele>
<speed>17.6</speed>
<course>3.2</course>
<desc>Speed 17.6 km/h Distance 10.44 km</desc>
<time>2011-09-29T10:28:39.31</time>
<name>1821</name>
</trkpt>
<trkpt lat="41.650298" lon="-0.657460">
<ele>357.0</ele>
<speed>17.2</speed>
<course>3.2</course>
<desc>Speed 17.2 km/h Distance 10.45 km</desc>
<time>2011-09-29T10:28:40.30</time>
<name>1822</name>
</trkpt>
<trkpt lat="41.650342" lon="-0.657457">
<ele>357.0</ele>
<speed>17.7</speed>
<course>358.5</course>
<desc>Speed 17.7 km/h Distance 10.45 km</desc>
<time>2011-09-29T10:28:41.30</time>
<name>1823</name>
</trkpt>
<trkpt lat="41.650387" lon="-0.657458">
<ele>357.0</ele>
<speed>17.7</speed>
<course>351.5</course>
<desc>Speed 17.7 km/h Distance 10.46 km</desc>
<time>2011-09-29T10:28:43.08</time>
<name>1824</name>
</trkpt>
<trkpt lat="41.650520" lon="-0.657485">
<ele>357.5</ele>
<speed>17.9</speed>
<course>342.5</course>
<desc>Speed 17.9 km/h Distance 10.47 km</desc>
<time>2011-09-29T10:28:45.30</time>
<name>1825</name>
</trkpt>
<trkpt lat="41.650563" lon="-0.657503">
<ele>357.5</ele>
<speed>18.0</speed>
<course>339.5</course>
<desc>Speed 18.0 km/h Distance 10.48 km</desc>
<time>2011-09-29T10:28:46.30</time>
<name>1826</name>
</trkpt>
<trkpt lat="41.650607" lon="-0.657525">
<ele>357.5</ele>
<speed>17.9</speed>
<course>339.5</course>
<desc>Speed 17.9 km/h Distance 10.48 km</desc>
<time>2011-09-29T10:28:47.30</time>
<name>1827</name>
</trkpt>
<trkpt lat="41.650650" lon="-0.657547">
<ele>357.5</ele>
<speed>18.1</speed>
<course>337.3</course>
<desc>Speed 18.1 km/h Distance 10.49 km</desc>
<time>2011-09-29T10:28:48.30</time>
<name>1828</name>
</trkpt>
<trkpt lat="41.650692" lon="-0.657570">
<ele>357.5</ele>
<speed>18.1</speed>
<course>340.2</course>
<desc>Speed 18.1 km/h Distance 10.49 km</desc>
<time>2011-09-29T10:28:49.30</time>
<name>1829</name>
</trkpt>
<trkpt lat="41.650737" lon="-0.657592">
<ele>357.5</ele>
<speed>18.4</speed>
<course>343.1</course>
<desc>Speed 18.4 km/h Distance 10.50 km</desc>
<time>2011-09-29T10:28:50.30</time>
<name>1830</name>
</trkpt>
<trkpt lat="41.650782" lon="-0.657610">
<ele>357.5</ele>
<speed>18.4</speed>
<course>345.0</course>
<desc>Speed 18.4 km/h Distance 10.50 km</desc>
<time>2011-09-29T10:28:51.29</time>
<name>1831</name>
</trkpt>
<trkpt lat="41.650828" lon="-0.657627">
<ele>357.5</ele>
<speed>18.7</speed>
<course>345.3</course>
<desc>Speed 18.7 km/h Distance 10.51 km</desc>
<time>2011-09-29T10:28:52.83</time>
<name>1832</name>
</trkpt>
<trkpt lat="41.650918" lon="-0.657658">
<ele>358.0</ele>
<speed>18.3</speed>
<course>348.6</course>
<desc>Speed 18.3 km/h Distance 10.52 km</desc>
<time>2011-09-29T10:28:54.29</time>
<name>1833</name>
</trkpt>
<trkpt lat="41.650962" lon="-0.657670">
<ele>358.5</ele>
<speed>17.6</speed>
<course>348.6</course>
<desc>Speed 17.6 km/h Distance 10.52 km</desc>
<time>2011-09-29T10:28:55.29</time>
<name>1834</name>
</trkpt>
<trkpt lat="41.651005" lon="-0.657682">
<ele>358.5</ele>
<speed>17.5</speed>
<course>349.9</course>
<desc>Speed 17.5 km/h Distance 10.53 km</desc>
<time>2011-09-29T10:28:56.29</time>
<name>1835</name>
</trkpt>
<trkpt lat="41.651047" lon="-0.657692">
<ele>359.0</ele>
<speed>17.0</speed>
<course>355.2</course>
<desc>Speed 17.0 km/h Distance 10.53 km</desc>
<time>2011-09-29T10:28:57.29</time>
<name>1836</name>
</trkpt>
<trkpt lat="41.651090" lon="-0.657697">
<ele>359.0</ele>
<speed>17.1</speed>
<course>356.8</course>
<desc>Speed 17.1 km/h Distance 10.54 km</desc>
<time>2011-09-29T10:28:58.29</time>
<name>1837</name>
</trkpt>
<trkpt lat="41.651133" lon="-0.657700">
<ele>359.0</ele>
<speed>17.0</speed>
<course>356.4</course>
<desc>Speed 17.0 km/h Distance 10.54 km</desc>
<time>2011-09-29T10:28:59.29</time>
<name>1838</name>
</trkpt>
<trkpt lat="41.651175" lon="-0.657703">
<ele>359.0</ele>
<speed>16.8</speed>
<course>0.0</course>
<desc>Speed 16.8 km/h Distance 10.55 km</desc>
<time>2011-09-29T10:29:00.29</time>
<name>1839</name>
</trkpt>
<trkpt lat="41.651218" lon="-0.657703">
<ele>359.5</ele>
<speed>16.8</speed>
<course>8.4</course>
<desc>Speed 16.8 km/h Distance 10.55 km</desc>
<time>2011-09-29T10:29:01.29</time>
<name>1840</name>
</trkpt>
<trkpt lat="41.651260" lon="-0.657695">
<ele>359.5</ele>
<speed>17.3</speed>
<course>7.9</course>
<desc>Speed 17.3 km/h Distance 10.56 km</desc>
<time>2011-09-29T10:29:02.55</time>
<name>1841</name>
</trkpt>
<trkpt lat="41.651305" lon="-0.657687">
<ele>359.5</ele>
<speed>18.1</speed>
<course>13.8</course>
<desc>Speed 18.1 km/h Distance 10.56 km</desc>
<time>2011-09-29T10:29:04.07</time>
<name>1842</name>
</trkpt>
<trkpt lat="41.651447" lon="-0.657640">
<ele>359.5</ele>
<speed>19.2</speed>
<course>21.2</course>
<desc>Speed 19.2 km/h Distance 10.58 km</desc>
<time>2011-09-29T10:29:06.28</time>
<name>1843</name>
</trkpt>
<trkpt lat="41.651492" lon="-0.657617">
<ele>359.5</ele>
<speed>19.3</speed>
<course>24.7</course>
<desc>Speed 19.3 km/h Distance 10.58 km</desc>
<time>2011-09-29T10:29:07.28</time>
<name>1844</name>
</trkpt>
<trkpt lat="41.651535" lon="-0.657590">
<ele>359.5</ele>
<speed>18.8</speed>
<course>25.4</course>
<desc>Speed 18.8 km/h Distance 10.59 km</desc>
<time>2011-09-29T10:29:08.90</time>
<name>1845</name>
</trkpt>
<trkpt lat="41.651622" lon="-0.657535">
<ele>360.0</ele>
<speed>18.6</speed>
<course>27.9</course>
<desc>Speed 18.6 km/h Distance 10.60 km</desc>
<time>2011-09-29T10:29:10.28</time>
<name>1846</name>
</trkpt>
<trkpt lat="41.651662" lon="-0.657507">
<ele>360.0</ele>
<speed>18.0</speed>
<course>30.6</course>
<desc>Speed 18.0 km/h Distance 10.61 km</desc>
<time>2011-09-29T10:29:11.28</time>
<name>1847</name>
</trkpt>
<trkpt lat="41.651702" lon="-0.657475">
<ele>360.0</ele>
<speed>18.1</speed>
<course>34.9</course>
<desc>Speed 18.1 km/h Distance 10.61 km</desc>
<time>2011-09-29T10:29:12.28</time>
<name>1848</name>
</trkpt>
<trkpt lat="41.651777" lon="-0.657405">
<ele>360.5</ele>
<speed>17.9</speed>
<course>40.0</course>
<desc>Speed 17.9 km/h Distance 10.62 km</desc>
<time>2011-09-29T10:29:14.28</time>
<name>1849</name>
</trkpt>
<trkpt lat="41.651845" lon="-0.657328">
<ele>361.0</ele>
<speed>17.4</speed>
<course>49.4</course>
<desc>Speed 17.4 km/h Distance 10.63 km</desc>
<time>2011-09-29T10:29:17.42</time>
<name>1850</name>
</trkpt>
<trkpt lat="41.651928" lon="-0.657198">
<ele>362.0</ele>
<speed>16.6</speed>
<course>58.1</course>
<desc>Speed 16.6 km/h Distance 10.64 km</desc>
<time>2011-09-29T10:29:19.27</time>
<name>1851</name>
</trkpt>
<trkpt lat="41.651950" lon="-0.657152">
<ele>362.5</ele>
<speed>16.3</speed>
<course>63.1</course>
<desc>Speed 16.3 km/h Distance 10.65 km</desc>
<time>2011-09-29T10:29:20.27</time>
<name>1852</name>
</trkpt>
<trkpt lat="41.651968" lon="-0.657103">
<ele>362.5</ele>
<speed>16.1</speed>
<course>65.2</course>
<desc>Speed 16.1 km/h Distance 10.65 km</desc>
<time>2011-09-29T10:29:22.01</time>
<name>1853</name>
</trkpt>
<trkpt lat="41.652002" lon="-0.657007">
<ele>362.5</ele>
<speed>15.9</speed>
<course>66.6</course>
<desc>Speed 15.9 km/h Distance 10.66 km</desc>
<time>2011-09-29T10:29:23.27</time>
<name>1854</name>
</trkpt>
<trkpt lat="41.652018" lon="-0.656955">
<ele>362.5</ele>
<speed>16.4</speed>
<course>72.0</course>
<desc>Speed 16.4 km/h Distance 10.67 km</desc>
<time>2011-09-29T10:29:24.27</time>
<name>1855</name>
</trkpt>
<trkpt lat="41.652032" lon="-0.656900">
<ele>362.5</ele>
<speed>17.4</speed>
<course>72.0</course>
<desc>Speed 17.4 km/h Distance 10.67 km</desc>
<time>2011-09-29T10:29:25.27</time>
<name>1856</name>
</trkpt>
<trkpt lat="41.652045" lon="-0.656845">
<ele>362.5</ele>
<speed>17.6</speed>
<course>72.5</course>
<desc>Speed 17.6 km/h Distance 10.68 km</desc>
<time>2011-09-29T10:29:26.27</time>
<name>1857</name>
</trkpt>
<trkpt lat="41.652058" lon="-0.656788">
<ele>362.0</ele>
<speed>18.0</speed>
<course>71.5</course>
<desc>Speed 18.0 km/h Distance 10.68 km</desc>
<time>2011-09-29T10:29:27.27</time>
<name>1858</name>
</trkpt>
<trkpt lat="41.652073" lon="-0.656728">
<ele>362.0</ele>
<speed>18.8</speed>
<course>73.4</course>
<desc>Speed 18.8 km/h Distance 10.69 km</desc>
<time>2011-09-29T10:29:28.27</time>
<name>1859</name>
</trkpt>
<trkpt lat="41.652087" lon="-0.656668">
<ele>362.0</ele>
<speed>18.9</speed>
<course>75.4</course>
<desc>Speed 18.9 km/h Distance 10.69 km</desc>
<time>2011-09-29T10:29:29.27</time>
<name>1860</name>
</trkpt>
<trkpt lat="41.652098" lon="-0.656608">
<ele>361.5</ele>
<speed>18.8</speed>
<course>77.4</course>
<desc>Speed 18.8 km/h Distance 10.70 km</desc>
<time>2011-09-29T10:29:30.26</time>
<name>1861</name>
</trkpt>
<trkpt lat="41.652108" lon="-0.656548">
<ele>361.5</ele>
<speed>18.3</speed>
<course>75.0</course>
<desc>Speed 18.3 km/h Distance 10.70 km</desc>
<time>2011-09-29T10:29:31.74</time>
<name>1862</name>
</trkpt>
<trkpt lat="41.652132" lon="-0.656432">
<ele>361.5</ele>
<speed>18.7</speed>
<course>76.1</course>
<desc>Speed 18.7 km/h Distance 10.71 km</desc>
<time>2011-09-29T10:29:33.26</time>
<name>1863</name>
</trkpt>
<trkpt lat="41.652143" lon="-0.656368">
<ele>361.5</ele>
<speed>19.2</speed>
<course>81.8</course>
<desc>Speed 19.2 km/h Distance 10.72 km</desc>
<time>2011-09-29T10:29:34.27</time>
<name>1864</name>
</trkpt>
<trkpt lat="41.652150" lon="-0.656307">
<ele>361.5</ele>
<speed>19.0</speed>
<course>77.8</course>
<desc>Speed 19.0 km/h Distance 10.72 km</desc>
<time>2011-09-29T10:29:35.26</time>
<name>1865</name>
</trkpt>
<trkpt lat="41.652160" lon="-0.656245">
<ele>362.0</ele>
<speed>18.9</speed>
<course>79.7</course>
<desc>Speed 18.9 km/h Distance 10.73 km</desc>
<time>2011-09-29T10:29:36.26</time>
<name>1866</name>
</trkpt>
<trkpt lat="41.652168" lon="-0.656183">
<ele>362.0</ele>
<speed>19.1</speed>
<course>76.2</course>
<desc>Speed 19.1 km/h Distance 10.73 km</desc>
<time>2011-09-29T10:29:37.26</time>
<name>1867</name>
</trkpt>
<trkpt lat="41.652180" lon="-0.656120">
<ele>362.0</ele>
<speed>19.5</speed>
<course>76.0</course>
<desc>Speed 19.5 km/h Distance 10.74 km</desc>
<time>2011-09-29T10:29:38.26</time>
<name>1868</name>
</trkpt>
<trkpt lat="41.652203" lon="-0.655995">
<ele>362.0</ele>
<speed>19.2</speed>
<course>72.0</course>
<desc>Speed 19.2 km/h Distance 10.75 km</desc>
<time>2011-09-29T10:29:40.26</time>
<name>1869</name>
</trkpt>
<trkpt lat="41.652218" lon="-0.655933">
<ele>361.5</ele>
<speed>19.3</speed>
<course>58.8</course>
<desc>Speed 19.3 km/h Distance 10.76 km</desc>
<time>2011-09-29T10:29:41.57</time>
<name>1870</name>
</trkpt>
<trkpt lat="41.652267" lon="-0.655827">
<ele>362.0</ele>
<speed>18.3</speed>
<course>46.1</course>
<desc>Speed 18.3 km/h Distance 10.77 km</desc>
<time>2011-09-29T10:29:43.26</time>
<name>1871</name>
</trkpt>
<trkpt lat="41.652297" lon="-0.655785">
<ele>362.0</ele>
<speed>17.6</speed>
<course>45.3</course>
<desc>Speed 17.6 km/h Distance 10.77 km</desc>
<time>2011-09-29T10:29:44.26</time>
<name>1872</name>
</trkpt>
<trkpt lat="41.652325" lon="-0.655747">
<ele>362.5</ele>
<speed>16.4</speed>
<course>39.7</course>
<desc>Speed 16.4 km/h Distance 10.77 km</desc>
<time>2011-09-29T10:29:45.25</time>
<name>1873</name>
</trkpt>
<trkpt lat="41.652355" lon="-0.655713">
<ele>362.5</ele>
<speed>15.6</speed>
<course>47.0</course>
<desc>Speed 15.6 km/h Distance 10.78 km</desc>
<time>2011-09-29T10:29:46.25</time>
<name>1874</name>
</trkpt>
<trkpt lat="41.652382" lon="-0.655675">
<ele>363.0</ele>
<speed>15.4</speed>
<course>59.3</course>
<desc>Speed 15.4 km/h Distance 10.78 km</desc>
<time>2011-09-29T10:29:47.25</time>
<name>1875</name>
</trkpt>
<trkpt lat="41.652402" lon="-0.655630">
<ele>363.0</ele>
<speed>15.9</speed>
<course>69.7</course>
<desc>Speed 15.9 km/h Distance 10.79 km</desc>
<time>2011-09-29T10:29:48.47</time>
<name>1876</name>
</trkpt>
<trkpt lat="41.652432" lon="-0.655522">
<ele>363.0</ele>
<speed>17.5</speed>
<course>76.3</course>
<desc>Speed 17.5 km/h Distance 10.80 km</desc>
<time>2011-09-29T10:29:50.26</time>
<name>1877</name>
</trkpt>
<trkpt lat="41.652442" lon="-0.655467">
<ele>363.0</ele>
<speed>17.0</speed>
<course>73.7</course>
<desc>Speed 17.0 km/h Distance 10.80 km</desc>
<time>2011-09-29T10:29:51.27</time>
<name>1878</name>
</trkpt>
<trkpt lat="41.652453" lon="-0.655413">
<ele>363.0</ele>
<speed>16.8</speed>
<course>63.1</course>
<desc>Speed 16.8 km/h Distance 10.81 km</desc>
<time>2011-09-29T10:29:52.25</time>
<name>1879</name>
</trkpt>
<trkpt lat="41.652472" lon="-0.655365">
<ele>363.0</ele>
<speed>16.1</speed>
<course>45.3</course>
<desc>Speed 16.1 km/h Distance 10.81 km</desc>
<time>2011-09-29T10:29:53.25</time>
<name>1880</name>
</trkpt>
<trkpt lat="41.652500" lon="-0.655327">
<ele>363.0</ele>
<speed>16.1</speed>
<course>27.5</course>
<desc>Speed 16.1 km/h Distance 10.82 km</desc>
<time>2011-09-29T10:29:54.25</time>
<name>1881</name>
</trkpt>
<trkpt lat="41.652538" lon="-0.655300">
<ele>363.0</ele>
<speed>16.9</speed>
<course>11.8</course>
<desc>Speed 16.9 km/h Distance 10.82 km</desc>
<time>2011-09-29T10:29:55.25</time>
<name>1882</name>
</trkpt>
<trkpt lat="41.652580" lon="-0.655288">
<ele>363.5</ele>
<speed>17.0</speed>
<course>356.5</course>
<desc>Speed 17.0 km/h Distance 10.83 km</desc>
<time>2011-09-29T10:29:56.25</time>
<name>1883</name>
</trkpt>
<trkpt lat="41.652620" lon="-0.655292">
<ele>363.5</ele>
<speed>16.3</speed>
<course>351.2</course>
<desc>Speed 16.3 km/h Distance 10.83 km</desc>
<time>2011-09-29T10:29:57.25</time>
<name>1884</name>
</trkpt>
<trkpt lat="41.652660" lon="-0.655300">
<ele>364.0</ele>
<speed>16.1</speed>
<course>349.0</course>
<desc>Speed 16.1 km/h Distance 10.83 km</desc>
<time>2011-09-29T10:29:58.26</time>
<name>1885</name>
</trkpt>
<trkpt lat="41.652698" lon="-0.655310">
<ele>364.5</ele>
<speed>16.0</speed>
<course>351.2</course>
<desc>Speed 16.0 km/h Distance 10.84 km</desc>
<time>2011-09-29T10:29:59.25</time>
<name>1886</name>
</trkpt>
<trkpt lat="41.652738" lon="-0.655318">
<ele>365.0</ele>
<speed>16.3</speed>
<course>352.7</course>
<desc>Speed 16.3 km/h Distance 10.84 km</desc>
<time>2011-09-29T10:30:01.02</time>
<name>1887</name>
</trkpt>
<trkpt lat="41.652855" lon="-0.655338">
<ele>366.0</ele>
<speed>15.6</speed>
<course>350.5</course>
<desc>Speed 15.6 km/h Distance 10.86 km</desc>
<time>2011-09-29T10:30:03.24</time>
<name>1888</name>
</trkpt>
<trkpt lat="41.652892" lon="-0.655347">
<ele>366.5</ele>
<speed>15.4</speed>
<course>350.9</course>
<desc>Speed 15.4 km/h Distance 10.86 km</desc>
<time>2011-09-29T10:30:04.24</time>
<name>1889</name>
</trkpt>
<trkpt lat="41.652930" lon="-0.655355">
<ele>367.0</ele>
<speed>15.4</speed>
<course>356.4</course>
<desc>Speed 15.4 km/h Distance 10.86 km</desc>
<time>2011-09-29T10:30:05.24</time>
<name>1890</name>
</trkpt>
<trkpt lat="41.652968" lon="-0.655358">
<ele>367.5</ele>
<speed>14.9</speed>
<course>0.4</course>
<desc>Speed 14.9 km/h Distance 10.87 km</desc>
<time>2011-09-29T10:30:06.24</time>
<name>1891</name>
</trkpt>
<trkpt lat="41.653007" lon="-0.655358">
<ele>368.0</ele>
<speed>15.3</speed>
<course>354.4</course>
<desc>Speed 15.3 km/h Distance 10.87 km</desc>
<time>2011-09-29T10:30:07.24</time>
<name>1892</name>
</trkpt>
<trkpt lat="41.653045" lon="-0.655363">
<ele>368.5</ele>
<speed>15.6</speed>
<course>354.6</course>
<desc>Speed 15.6 km/h Distance 10.88 km</desc>
<time>2011-09-29T10:30:08.24</time>
<name>1893</name>
</trkpt>
<trkpt lat="41.653083" lon="-0.655368">
<ele>369.0</ele>
<speed>15.8</speed>
<course>356.4</course>
<desc>Speed 15.8 km/h Distance 10.88 km</desc>
<time>2011-09-29T10:30:09.24</time>
<name>1894</name>
</trkpt>
<trkpt lat="41.653122" lon="-0.655372">
<ele>369.5</ele>
<speed>15.8</speed>
<course>357.2</course>
<desc>Speed 15.8 km/h Distance 10.89 km</desc>
<time>2011-09-29T10:30:10.76</time>
<name>1895</name>
</trkpt>
<trkpt lat="41.653198" lon="-0.655377">
<ele>370.0</ele>
<speed>15.4</speed>
<course>358.3</course>
<desc>Speed 15.4 km/h Distance 10.89 km</desc>
<time>2011-09-29T10:30:12.24</time>
<name>1896</name>
</trkpt>
<trkpt lat="41.653235" lon="-0.655378">
<ele>370.5</ele>
<speed>15.2</speed>
<course>354.1</course>
<desc>Speed 15.2 km/h Distance 10.90 km</desc>
<time>2011-09-29T10:30:13.24</time>
<name>1897</name>
</trkpt>
<trkpt lat="41.653272" lon="-0.655383">
<ele>371.0</ele>
<speed>14.9</speed>
<course>354.7</course>
<desc>Speed 14.9 km/h Distance 10.90 km</desc>
<time>2011-09-29T10:30:14.23</time>
<name>1898</name>
</trkpt>
<trkpt lat="41.653312" lon="-0.655388">
<ele>371.0</ele>
<speed>15.6</speed>
<course>358.1</course>
<desc>Speed 15.6 km/h Distance 10.91 km</desc>
<time>2011-09-29T10:30:15.23</time>
<name>1899</name>
</trkpt>
<trkpt lat="41.653350" lon="-0.655390">
<ele>371.0</ele>
<speed>15.2</speed>
<course>0.4</course>
<desc>Speed 15.2 km/h Distance 10.91 km</desc>
<time>2011-09-29T10:30:16.23</time>
<name>1900</name>
</trkpt>
<trkpt lat="41.653388" lon="-0.655390">
<ele>371.0</ele>
<speed>15.2</speed>
<course>1.2</course>
<desc>Speed 15.2 km/h Distance 10.92 km</desc>
<time>2011-09-29T10:30:17.24</time>
<name>1901</name>
</trkpt>
<trkpt lat="41.653428" lon="-0.655388">
<ele>371.0</ele>
<speed>15.9</speed>
<course>1.2</course>
<desc>Speed 15.9 km/h Distance 10.92 km</desc>
<time>2011-09-29T10:30:18.23</time>
<name>1902</name>
</trkpt>
<trkpt lat="41.653468" lon="-0.655387">
<ele>371.0</ele>
<speed>15.5</speed>
<course>7.4</course>
<desc>Speed 15.5 km/h Distance 10.92 km</desc>
<time>2011-09-29T10:30:19.23</time>
<name>1903</name>
</trkpt>
<trkpt lat="41.653507" lon="-0.655380">
<ele>371.0</ele>
<speed>15.6</speed>
<course>9.7</course>
<desc>Speed 15.6 km/h Distance 10.93 km</desc>
<time>2011-09-29T10:30:20.51</time>
<name>1904</name>
</trkpt>
<trkpt lat="41.653587" lon="-0.655362">
<ele>371.0</ele>
<speed>15.6</speed>
<course>14.6</course>
<desc>Speed 15.6 km/h Distance 10.94 km</desc>
<time>2011-09-29T10:30:22.23</time>
<name>1905</name>
</trkpt>
<trkpt lat="41.653625" lon="-0.655348">
<ele>371.0</ele>
<speed>15.4</speed>
<course>18.8</course>
<desc>Speed 15.4 km/h Distance 10.94 km</desc>
<time>2011-09-29T10:30:23.23</time>
<name>1906</name>
</trkpt>
<trkpt lat="41.653662" lon="-0.655332">
<ele>371.0</ele>
<speed>15.5</speed>
<course>20.4</course>
<desc>Speed 15.5 km/h Distance 10.95 km</desc>
<time>2011-09-29T10:30:24.23</time>
<name>1907</name>
</trkpt>
<trkpt lat="41.653698" lon="-0.655313">
<ele>371.0</ele>
<speed>15.7</speed>
<course>19.7</course>
<desc>Speed 15.7 km/h Distance 10.95 km</desc>
<time>2011-09-29T10:30:25.23</time>
<name>1908</name>
</trkpt>
<trkpt lat="41.653737" lon="-0.655295">
<ele>371.5</ele>
<speed>15.7</speed>
<course>25.4</course>
<desc>Speed 15.7 km/h Distance 10.96 km</desc>
<time>2011-09-29T10:30:26.23</time>
<name>1909</name>
</trkpt>
<trkpt lat="41.653773" lon="-0.655272">
<ele>371.5</ele>
<speed>15.7</speed>
<course>28.3</course>
<desc>Speed 15.7 km/h Distance 10.96 km</desc>
<time>2011-09-29T10:30:27.44</time>
<name>1910</name>
</trkpt>
<trkpt lat="41.653845" lon="-0.655220">
<ele>371.5</ele>
<speed>15.5</speed>
<course>34.1</course>
<desc>Speed 15.5 km/h Distance 10.97 km</desc>
<time>2011-09-29T10:30:29.22</time>
<name>1911</name>
</trkpt>
<trkpt lat="41.653880" lon="-0.655188">
<ele>371.5</ele>
<speed>15.7</speed>
<course>38.2</course>
<desc>Speed 15.7 km/h Distance 10.97 km</desc>
<time>2011-09-29T10:30:30.24</time>
<name>1912</name>
</trkpt>
<trkpt lat="41.653912" lon="-0.655155">
<ele>371.5</ele>
<speed>15.5</speed>
<course>41.1</course>
<desc>Speed 15.5 km/h Distance 10.98 km</desc>
<time>2011-09-29T10:30:31.22</time>
<name>1913</name>
</trkpt>
<trkpt lat="41.653942" lon="-0.655120">
<ele>371.5</ele>
<speed>15.7</speed>
<course>42.4</course>
<desc>Speed 15.7 km/h Distance 10.98 km</desc>
<time>2011-09-29T10:30:32.22</time>
<name>1914</name>
</trkpt>
<trkpt lat="41.653972" lon="-0.655083">
<ele>371.5</ele>
<speed>16.1</speed>
<course>46.5</course>
<desc>Speed 16.1 km/h Distance 10.99 km</desc>
<time>2011-09-29T10:30:33.22</time>
<name>1915</name>
</trkpt>
<trkpt lat="41.654000" lon="-0.655043">
<ele>371.5</ele>
<speed>15.7</speed>
<course>47.0</course>
<desc>Speed 15.7 km/h Distance 10.99 km</desc>
<time>2011-09-29T10:30:34.22</time>
<name>1916</name>
</trkpt>
<trkpt lat="41.654027" lon="-0.655005">
<ele>371.5</ele>
<speed>15.6</speed>
<course>44.0</course>
<desc>Speed 15.6 km/h Distance 11.00 km</desc>
<time>2011-09-29T10:30:35.22</time>
<name>1917</name>
</trkpt>
<trkpt lat="41.654055" lon="-0.654968">
<ele>371.5</ele>
<speed>15.3</speed>
<course>41.1</course>
<desc>Speed 15.3 km/h Distance 11.00 km</desc>
<time>2011-09-29T10:30:36.22</time>
<name>1918</name>
</trkpt>
<trkpt lat="41.654085" lon="-0.654933">
<ele>372.0</ele>
<speed>15.3</speed>
<course>38.2</course>
<desc>Speed 15.3 km/h Distance 11.01 km</desc>
<time>2011-09-29T10:30:37.22</time>
<name>1919</name>
</trkpt>
<trkpt lat="41.654115" lon="-0.654902">
<ele>372.0</ele>
<speed>14.8</speed>
<course>35.2</course>
<desc>Speed 14.8 km/h Distance 11.01 km</desc>
<time>2011-09-29T10:30:38.22</time>
<name>1920</name>
</trkpt>
<trkpt lat="41.654145" lon="-0.654873">
<ele>372.0</ele>
<speed>14.3</speed>
<course>33.7</course>
<desc>Speed 14.3 km/h Distance 11.01 km</desc>
<time>2011-09-29T10:30:39.99</time>
<name>1921</name>
</trkpt>
<trkpt lat="41.654237" lon="-0.654792">
<ele>372.5</ele>
<speed>14.7</speed>
<course>35.2</course>
<desc>Speed 14.7 km/h Distance 11.03 km</desc>
<time>2011-09-29T10:30:42.21</time>
<name>1922</name>
</trkpt>
<trkpt lat="41.654267" lon="-0.654763">
<ele>373.0</ele>
<speed>14.5</speed>
<course>29.3</course>
<desc>Speed 14.5 km/h Distance 11.03 km</desc>
<time>2011-09-29T10:30:43.22</time>
<name>1923</name>
</trkpt>
<trkpt lat="41.654300" lon="-0.654738">
<ele>373.0</ele>
<speed>14.8</speed>
<course>29.3</course>
<desc>Speed 14.8 km/h Distance 11.03 km</desc>
<time>2011-09-29T10:30:44.22</time>
<name>1924</name>
</trkpt>
<trkpt lat="41.654333" lon="-0.654713">
<ele>373.5</ele>
<speed>15.0</speed>
<course>33.6</course>
<desc>Speed 15.0 km/h Distance 11.04 km</desc>
<time>2011-09-29T10:30:45.21</time>
<name>1925</name>
</trkpt>
<trkpt lat="41.654363" lon="-0.654687">
<ele>373.5</ele>
<speed>14.1</speed>
<course>28.8</course>
<desc>Speed 14.1 km/h Distance 11.04 km</desc>
<time>2011-09-29T10:30:46.21</time>
<name>1926</name>
</trkpt>
<trkpt lat="41.654395" lon="-0.654663">
<ele>373.0</ele>
<speed>14.5</speed>
<course>27.6</course>
<desc>Speed 14.5 km/h Distance 11.05 km</desc>
<time>2011-09-29T10:30:47.21</time>
<name>1927</name>
</trkpt>
<trkpt lat="41.654428" lon="-0.654640">
<ele>373.5</ele>
<speed>14.5</speed>
<course>30.5</course>
<desc>Speed 14.5 km/h Distance 11.05 km</desc>
<time>2011-09-29T10:30:48.21</time>
<name>1928</name>
</trkpt>
<trkpt lat="41.654460" lon="-0.654615">
<ele>373.0</ele>
<speed>14.5</speed>
<course>33.0</course>
<desc>Speed 14.5 km/h Distance 11.05 km</desc>
<time>2011-09-29T10:30:49.71</time>
<name>1929</name>
</trkpt>
<trkpt lat="41.654523" lon="-0.654560">
<ele>373.5</ele>
<speed>14.7</speed>
<course>38.3</course>
<desc>Speed 14.7 km/h Distance 11.06 km</desc>
<time>2011-09-29T10:30:51.21</time>
<name>1930</name>
</trkpt>
<trkpt lat="41.654552" lon="-0.654530">
<ele>373.5</ele>
<speed>14.4</speed>
<course>39.7</course>
<desc>Speed 14.4 km/h Distance 11.07 km</desc>
<time>2011-09-29T10:30:52.21</time>
<name>1931</name>
</trkpt>
<trkpt lat="41.654582" lon="-0.654497">
<ele>373.5</ele>
<speed>14.9</speed>
<course>42.7</course>
<desc>Speed 14.9 km/h Distance 11.07 km</desc>
<time>2011-09-29T10:30:53.21</time>
<name>1932</name>
</trkpt>
<trkpt lat="41.654610" lon="-0.654462">
<ele>373.5</ele>
<speed>15.2</speed>
<course>41.1</course>
<desc>Speed 15.2 km/h Distance 11.08 km</desc>
<time>2011-09-29T10:30:54.21</time>
<name>1933</name>
</trkpt>
<trkpt lat="41.654640" lon="-0.654427">
<ele>373.5</ele>
<speed>15.4</speed>
<course>42.7</course>
<desc>Speed 15.4 km/h Distance 11.08 km</desc>
<time>2011-09-29T10:30:55.21</time>
<name>1934</name>
</trkpt>
<trkpt lat="41.654668" lon="-0.654392">
<ele>373.5</ele>
<speed>15.3</speed>
<course>44.0</course>
<desc>Speed 15.3 km/h Distance 11.08 km</desc>
<time>2011-09-29T10:30:56.21</time>
<name>1935</name>
</trkpt>
<trkpt lat="41.654697" lon="-0.654355">
<ele>373.5</ele>
<speed>15.6</speed>
<course>44.0</course>
<desc>Speed 15.6 km/h Distance 11.09 km</desc>
<time>2011-09-29T10:30:57.21</time>
<name>1936</name>
</trkpt>
<trkpt lat="41.654725" lon="-0.654318">
<ele>374.0</ele>
<speed>15.7</speed>
<course>44.0</course>
<desc>Speed 15.7 km/h Distance 11.09 km</desc>
<time>2011-09-29T10:30:58.21</time>
<name>1937</name>
</trkpt>
<trkpt lat="41.654753" lon="-0.654282">
<ele>374.0</ele>
<speed>16.0</speed>
<course>41.2</course>
<desc>Speed 16.0 km/h Distance 11.10 km</desc>
<time>2011-09-29T10:30:59.44</time>
<name>1938</name>
</trkpt>
<trkpt lat="41.654812" lon="-0.654213">
<ele>374.5</ele>
<speed>15.4</speed>
<course>39.7</course>
<desc>Speed 15.4 km/h Distance 11.11 km</desc>
<time>2011-09-29T10:31:01.20</time>
<name>1939</name>
</trkpt>
<trkpt lat="41.654842" lon="-0.654180">
<ele>375.0</ele>
<speed>15.5</speed>
<course>36.8</course>
<desc>Speed 15.5 km/h Distance 11.11 km</desc>
<time>2011-09-29T10:31:02.20</time>
<name>1940</name>
</trkpt>
<trkpt lat="41.654872" lon="-0.654150">
<ele>375.0</ele>
<speed>15.2</speed>
<course>35.3</course>
<desc>Speed 15.2 km/h Distance 11.11 km</desc>
<time>2011-09-29T10:31:03.20</time>
<name>1941</name>
</trkpt>
<trkpt lat="41.654903" lon="-0.654120">
<ele>375.0</ele>
<speed>15.4</speed>
<course>28.1</course>
<desc>Speed 15.4 km/h Distance 11.12 km</desc>
<time>2011-09-29T10:31:04.20</time>
<name>1942</name>
</trkpt>
<trkpt lat="41.654938" lon="-0.654095">
<ele>375.5</ele>
<speed>15.4</speed>
<course>17.8</course>
<desc>Speed 15.4 km/h Distance 11.12 km</desc>
<time>2011-09-29T10:31:05.20</time>
<name>1943</name>
</trkpt>
<trkpt lat="41.654973" lon="-0.654080">
<ele>376.0</ele>
<speed>14.8</speed>
<course>12.8</course>
<desc>Speed 14.8 km/h Distance 11.13 km</desc>
<time>2011-09-29T10:31:06.37</time>
<name>1944</name>
</trkpt>
<trkpt lat="41.655012" lon="-0.654068">
<ele>376.0</ele>
<speed>15.3</speed>
<course>5.7</course>
<desc>Speed 15.3 km/h Distance 11.13 km</desc>
<time>2011-09-29T10:31:07.20</time>
<name>1945</name>
</trkpt>
<trkpt lat="41.655050" lon="-0.654063">
<ele>376.0</ele>
<speed>15.6</speed>
<course>2.5</course>
<desc>Speed 15.6 km/h Distance 11.14 km</desc>
<time>2011-09-29T10:31:08.20</time>
<name>1946</name>
</trkpt>
<trkpt lat="41.655087" lon="-0.654062">
<ele>376.5</ele>
<speed>14.5</speed>
<course>0.0</course>
<desc>Speed 14.5 km/h Distance 11.14 km</desc>
<time>2011-09-29T10:31:09.27</time>
<name>1947</name>
</trkpt>
<trkpt lat="41.655123" lon="-0.654062">
<ele>376.5</ele>
<speed>14.7</speed>
<course>356.3</course>
<desc>Speed 14.7 km/h Distance 11.14 km</desc>
<time>2011-09-29T10:31:10.20</time>
<name>1948</name>
</trkpt>
<trkpt lat="41.655160" lon="-0.654065">
<ele>376.5</ele>
<speed>14.6</speed>
<course>352.1</course>
<desc>Speed 14.6 km/h Distance 11.15 km</desc>
<time>2011-09-29T10:31:11.20</time>
<name>1949</name>
</trkpt>
<trkpt lat="41.655197" lon="-0.654072">
<ele>377.0</ele>
<speed>14.7</speed>
<course>0.4</course>
<desc>Speed 14.7 km/h Distance 11.15 km</desc>
<time>2011-09-29T10:31:12.20</time>
<name>1950</name>
</trkpt>
<trkpt lat="41.655235" lon="-0.654072">
<ele>377.0</ele>
<speed>15.2</speed>
<course>3.2</course>
<desc>Speed 15.2 km/h Distance 11.16 km</desc>
<time>2011-09-29T10:31:13.20</time>
<name>1951</name>
</trkpt>
<trkpt lat="41.655275" lon="-0.654068">
<ele>377.0</ele>
<speed>15.6</speed>
<course>11.4</course>
<desc>Speed 15.6 km/h Distance 11.16 km</desc>
<time>2011-09-29T10:31:14.20</time>
<name>1952</name>
</trkpt>
<trkpt lat="41.655318" lon="-0.654057">
<ele>376.5</ele>
<speed>17.2</speed>
<course>22.9</course>
<desc>Speed 17.2 km/h Distance 11.17 km</desc>
<time>2011-09-29T10:31:15.19</time>
<name>1953</name>
</trkpt>
<trkpt lat="41.655357" lon="-0.654035">
<ele>376.5</ele>
<speed>16.4</speed>
<course>31.1</course>
<desc>Speed 16.4 km/h Distance 11.17 km</desc>
<time>2011-09-29T10:31:16.19</time>
<name>1954</name>
</trkpt>
<trkpt lat="41.655392" lon="-0.654007">
<ele>376.5</ele>
<speed>16.2</speed>
<course>39.5</course>
<desc>Speed 16.2 km/h Distance 11.18 km</desc>
<time>2011-09-29T10:31:17.19</time>
<name>1955</name>
</trkpt>
<trkpt lat="41.655423" lon="-0.653972">
<ele>377.0</ele>
<speed>16.1</speed>
<course>51.6</course>
<desc>Speed 16.1 km/h Distance 11.18 km</desc>
<time>2011-09-29T10:31:18.91</time>
<name>1956</name>
</trkpt>
<trkpt lat="41.655472" lon="-0.653890">
<ele>377.0</ele>
<speed>15.5</speed>
<course>57.3</course>
<desc>Speed 15.5 km/h Distance 11.19 km</desc>
<time>2011-09-29T10:31:20.19</time>
<name>1957</name>
</trkpt>
<trkpt lat="41.655492" lon="-0.653848">
<ele>377.5</ele>
<speed>14.9</speed>
<course>60.5</course>
<desc>Speed 14.9 km/h Distance 11.19 km</desc>
<time>2011-09-29T10:31:21.19</time>
<name>1958</name>
</trkpt>
<trkpt lat="41.655510" lon="-0.653805">
<ele>378.0</ele>
<speed>14.8</speed>
<course>59.5</course>
<desc>Speed 14.8 km/h Distance 11.20 km</desc>
<time>2011-09-29T10:31:22.19</time>
<name>1959</name>
</trkpt>
<trkpt lat="41.655528" lon="-0.653763">
<ele>378.0</ele>
<speed>14.9</speed>
<course>59.5</course>
<desc>Speed 14.9 km/h Distance 11.20 km</desc>
<time>2011-09-29T10:31:23.19</time>
<name>1960</name>
</trkpt>
<trkpt lat="41.655547" lon="-0.653722">
<ele>378.5</ele>
<speed>14.7</speed>
<course>56.2</course>
<desc>Speed 14.7 km/h Distance 11.21 km</desc>
<time>2011-09-29T10:31:24.19</time>
<name>1961</name>
</trkpt>
<trkpt lat="41.655567" lon="-0.653682">
<ele>378.5</ele>
<speed>14.9</speed>
<course>57.3</course>
<desc>Speed 14.9 km/h Distance 11.21 km</desc>
<time>2011-09-29T10:31:25.19</time>
<name>1962</name>
</trkpt>
<trkpt lat="41.655587" lon="-0.653640">
<ele>379.0</ele>
<speed>14.6</speed>
<course>58.5</course>
<desc>Speed 14.6 km/h Distance 11.21 km</desc>
<time>2011-09-29T10:31:26.19</time>
<name>1963</name>
</trkpt>
<trkpt lat="41.655605" lon="-0.653600">
<ele>379.5</ele>
<speed>14.4</speed>
<course>52.9</course>
<desc>Speed 14.4 km/h Distance 11.22 km</desc>
<time>2011-09-29T10:31:27.19</time>
<name>1964</name>
</trkpt>
<trkpt lat="41.655627" lon="-0.653562">
<ele>379.5</ele>
<speed>14.5</speed>
<course>46.3</course>
<desc>Speed 14.5 km/h Distance 11.22 km</desc>
<time>2011-09-29T10:31:28.65</time>
<name>1965</name>
</trkpt>
<trkpt lat="41.655677" lon="-0.653492">
<ele>379.5</ele>
<speed>14.4</speed>
<course>30.2</course>
<desc>Speed 14.4 km/h Distance 11.23 km</desc>
<time>2011-09-29T10:31:30.19</time>
<name>1966</name>
</trkpt>
<trkpt lat="41.655707" lon="-0.653468">
<ele>379.5</ele>
<speed>13.8</speed>
<course>23.2</course>
<desc>Speed 13.8 km/h Distance 11.23 km</desc>
<time>2011-09-29T10:31:31.18</time>
<name>1967</name>
</trkpt>
<trkpt lat="41.655742" lon="-0.653448">
<ele>379.5</ele>
<speed>15.2</speed>
<course>18.0</course>
<desc>Speed 15.2 km/h Distance 11.24 km</desc>
<time>2011-09-29T10:31:32.18</time>
<name>1968</name>
</trkpt>
<trkpt lat="41.655780" lon="-0.653432">
<ele>379.5</ele>
<speed>16.0</speed>
<course>14.6</course>
<desc>Speed 16.0 km/h Distance 11.24 km</desc>
<time>2011-09-29T10:31:33.18</time>
<name>1969</name>
</trkpt>
<trkpt lat="41.655818" lon="-0.653418">
<ele>379.5</ele>
<speed>15.8</speed>
<course>14.6</course>
<desc>Speed 15.8 km/h Distance 11.25 km</desc>
<time>2011-09-29T10:31:34.18</time>
<name>1970</name>
</trkpt>
<trkpt lat="41.655857" lon="-0.653405">
<ele>379.5</ele>
<speed>15.9</speed>
<course>11.7</course>
<desc>Speed 15.9 km/h Distance 11.25 km</desc>
<time>2011-09-29T10:31:35.58</time>
<name>1971</name>
</trkpt>
<trkpt lat="41.655935" lon="-0.653383">
<ele>380.0</ele>
<speed>15.7</speed>
<course>5.4</course>
<desc>Speed 15.7 km/h Distance 11.26 km</desc>
<time>2011-09-29T10:31:37.18</time>
<name>1972</name>
</trkpt>
<trkpt lat="41.655973" lon="-0.653378">
<ele>380.0</ele>
<speed>15.7</speed>
<course>0.0</course>
<desc>Speed 15.7 km/h Distance 11.26 km</desc>
<time>2011-09-29T10:31:38.40</time>
<name>1973</name>
</trkpt>
<trkpt lat="41.656053" lon="-0.653378">
<ele>380.0</ele>
<speed>15.6</speed>
<course>356.8</course>
<desc>Speed 15.6 km/h Distance 11.27 km</desc>
<time>2011-09-29T10:31:40.18</time>
<name>1974</name>
</trkpt>
<trkpt lat="41.656092" lon="-0.653382">
<ele>380.5</ele>
<speed>15.6</speed>
<course>354.7</course>
<desc>Speed 15.6 km/h Distance 11.28 km</desc>
<time>2011-09-29T10:31:41.18</time>
<name>1975</name>
</trkpt>
<trkpt lat="41.656132" lon="-0.653387">
<ele>381.0</ele>
<speed>15.4</speed>
<course>0.4</course>
<desc>Speed 15.4 km/h Distance 11.28 km</desc>
<time>2011-09-29T10:31:42.18</time>
<name>1976</name>
</trkpt>
<trkpt lat="41.656170" lon="-0.653387">
<ele>381.0</ele>
<speed>15.6</speed>
<course>3.4</course>
<desc>Speed 15.6 km/h Distance 11.29 km</desc>
<time>2011-09-29T10:31:43.18</time>
<name>1977</name>
</trkpt>
<trkpt lat="41.656208" lon="-0.653383">
<ele>381.5</ele>
<speed>15.4</speed>
<course>6.8</course>
<desc>Speed 15.4 km/h Distance 11.29 km</desc>
<time>2011-09-29T10:31:44.18</time>
<name>1978</name>
</trkpt>
<trkpt lat="41.656250" lon="-0.653377">
<ele>381.5</ele>
<speed>16.6</speed>
<course>10.8</course>
<desc>Speed 16.6 km/h Distance 11.29 km</desc>
<time>2011-09-29T10:31:45.33</time>
<name>1979</name>
</trkpt>
<trkpt lat="41.656328" lon="-0.653357">
<ele>381.5</ele>
<speed>15.3</speed>
<course>16.3</course>
<desc>Speed 15.3 km/h Distance 11.30 km</desc>
<time>2011-09-29T10:31:47.18</time>
<name>1980</name>
</trkpt>
<trkpt lat="41.656367" lon="-0.653342">
<ele>381.5</ele>
<speed>15.4</speed>
<course>18.1</course>
<desc>Speed 15.4 km/h Distance 11.31 km</desc>
<time>2011-09-29T10:31:48.18</time>
<name>1981</name>
</trkpt>
<trkpt lat="41.656405" lon="-0.653325">
<ele>381.5</ele>
<speed>15.3</speed>
<course>22.2</course>
<desc>Speed 15.3 km/h Distance 11.31 km</desc>
<time>2011-09-29T10:31:49.17</time>
<name>1982</name>
</trkpt>
<trkpt lat="41.656442" lon="-0.653305">
<ele>381.5</ele>
<speed>15.0</speed>
<course>30.5</course>
<desc>Speed 15.0 km/h Distance 11.32 km</desc>
<time>2011-09-29T10:31:50.18</time>
<name>1983</name>
</trkpt>
<trkpt lat="41.656473" lon="-0.653280">
<ele>381.5</ele>
<speed>14.5</speed>
<course>33.6</course>
<desc>Speed 14.5 km/h Distance 11.32 km</desc>
<time>2011-09-29T10:31:51.17</time>
<name>1984</name>
</trkpt>
<trkpt lat="41.656503" lon="-0.653253">
<ele>381.5</ele>
<speed>13.9</speed>
<course>43.0</course>
<desc>Speed 13.9 km/h Distance 11.32 km</desc>
<time>2011-09-29T10:31:52.17</time>
<name>1985</name>
</trkpt>
<trkpt lat="41.656530" lon="-0.653220">
<ele>382.0</ele>
<speed>13.9</speed>
<course>50.1</course>
<desc>Speed 13.9 km/h Distance 11.33 km</desc>
<time>2011-09-29T10:31:53.17</time>
<name>1986</name>
</trkpt>
<trkpt lat="41.656555" lon="-0.653180">
<ele>382.0</ele>
<speed>14.1</speed>
<course>54.1</course>
<desc>Speed 14.1 km/h Distance 11.33 km</desc>
<time>2011-09-29T10:31:54.17</time>
<name>1987</name>
</trkpt>
<trkpt lat="41.656577" lon="-0.653140">
<ele>382.5</ele>
<speed>14.5</speed>
<course>57.4</course>
<desc>Speed 14.5 km/h Distance 11.34 km</desc>
<time>2011-09-29T10:31:55.17</time>
<name>1988</name>
</trkpt>
<trkpt lat="41.656595" lon="-0.653102">
<ele>382.5</ele>
<speed>12.9</speed>
<course>62.4</course>
<desc>Speed 12.9 km/h Distance 11.34 km</desc>
<time>2011-09-29T10:31:56.17</time>
<name>1989</name>
</trkpt>
<trkpt lat="41.656610" lon="-0.653063">
<ele>382.5</ele>
<speed>12.7</speed>
<course>68.3</course>
<desc>Speed 12.7 km/h Distance 11.34 km</desc>
<time>2011-09-29T10:31:57.91</time>
<name>1990</name>
</trkpt>
<trkpt lat="41.656633" lon="-0.652985">
<ele>383.0</ele>
<speed>12.4</speed>
<course>74.4</course>
<desc>Speed 12.4 km/h Distance 11.35 km</desc>
<time>2011-09-29T10:31:59.17</time>
<name>1991</name>
</trkpt>
<trkpt lat="41.656642" lon="-0.652945">
<ele>383.0</ele>
<speed>12.6</speed>
<course>71.5</course>
<desc>Speed 12.6 km/h Distance 11.36 km</desc>
<time>2011-09-29T10:32:00.17</time>
<name>1992</name>
</trkpt>
<trkpt lat="41.656652" lon="-0.652905">
<ele>383.5</ele>
<speed>12.4</speed>
<course>72.8</course>
<desc>Speed 12.4 km/h Distance 11.36 km</desc>
<time>2011-09-29T10:32:01.17</time>
<name>1993</name>
</trkpt>
<trkpt lat="41.656662" lon="-0.652862">
<ele>384.0</ele>
<speed>13.6</speed>
<course>75.0</course>
<desc>Speed 13.6 km/h Distance 11.36 km</desc>
<time>2011-09-29T10:32:02.17</time>
<name>1994</name>
</trkpt>
<trkpt lat="41.656670" lon="-0.652820">
<ele>384.0</ele>
<speed>13.2</speed>
<course>67.8</course>
<desc>Speed 13.2 km/h Distance 11.37 km</desc>
<time>2011-09-29T10:32:03.16</time>
<name>1995</name>
</trkpt>
<trkpt lat="41.656682" lon="-0.652782">
<ele>384.5</ele>
<speed>12.3</speed>
<course>66.9</course>
<desc>Speed 12.3 km/h Distance 11.37 km</desc>
<time>2011-09-29T10:32:04.16</time>
<name>1996</name>
</trkpt>
<trkpt lat="41.656693" lon="-0.652745">
<ele>384.5</ele>
<speed>12.2</speed>
<course>67.8</course>
<desc>Speed 12.2 km/h Distance 11.37 km</desc>
<time>2011-09-29T10:32:05.16</time>
<name>1997</name>
</trkpt>
<trkpt lat="41.656705" lon="-0.652707">
<ele>385.0</ele>
<speed>12.4</speed>
<course>60.2</course>
<desc>Speed 12.4 km/h Distance 11.38 km</desc>
<time>2011-09-29T10:32:06.16</time>
<name>1998</name>
</trkpt>
<trkpt lat="41.656720" lon="-0.652672">
<ele>385.0</ele>
<speed>12.2</speed>
<course>57.5</course>
<desc>Speed 12.2 km/h Distance 11.38 km</desc>
<time>2011-09-29T10:32:07.63</time>
<name>1999</name>
</trkpt>
<trkpt lat="41.656753" lon="-0.652602">
<ele>386.0</ele>
<speed>12.8</speed>
<course>51.2</course>
<desc>Speed 12.8 km/h Distance 11.39 km</desc>
<time>2011-09-29T10:32:09.16</time>
<name>2000</name>
</trkpt>
<trkpt lat="41.656773" lon="-0.652568">
<ele>386.0</ele>
<speed>12.7</speed>
<course>49.0</course>
<desc>Speed 12.7 km/h Distance 11.39 km</desc>
<time>2011-09-29T10:32:10.16</time>
<name>2001</name>
</trkpt>
<trkpt lat="41.656795" lon="-0.652535">
<ele>386.5</ele>
<speed>12.7</speed>
<course>46.0</course>
<desc>Speed 12.7 km/h Distance 11.39 km</desc>
<time>2011-09-29T10:32:11.16</time>
<name>2002</name>
</trkpt>
<trkpt lat="41.656817" lon="-0.652505">
<ele>387.0</ele>
<speed>12.9</speed>
<course>38.6</course>
<desc>Speed 12.9 km/h Distance 11.40 km</desc>
<time>2011-09-29T10:32:12.16</time>
<name>2003</name>
</trkpt>
<trkpt lat="41.656842" lon="-0.652478">
<ele>387.0</ele>
<speed>13.1</speed>
<course>38.6</course>
<desc>Speed 13.1 km/h Distance 11.40 km</desc>
<time>2011-09-29T10:32:13.16</time>
<name>2004</name>
</trkpt>
<trkpt lat="41.656867" lon="-0.652452">
<ele>387.5</ele>
<speed>13.0</speed>
<course>42.8</course>
<desc>Speed 13.0 km/h Distance 11.40 km</desc>
<time>2011-09-29T10:32:14.16</time>
<name>2005</name>
</trkpt>
<trkpt lat="41.656915" lon="-0.652392">
<ele>388.0</ele>
<speed>13.1</speed>
<course>53.9</course>
<desc>Speed 13.1 km/h Distance 11.41 km</desc>
<time>2011-09-29T10:32:16.16</time>
<name>2006</name>
</trkpt>
<trkpt lat="41.656935" lon="-0.652355">
<ele>388.0</ele>
<speed>13.4</speed>
<course>55.1</course>
<desc>Speed 13.4 km/h Distance 11.42 km</desc>
<time>2011-09-29T10:32:17.36</time>
<name>2007</name>
</trkpt>
<trkpt lat="41.656955" lon="-0.652317">
<ele>388.5</ele>
<speed>13.8</speed>
<course>53.9</course>
<desc>Speed 13.8 km/h Distance 11.42 km</desc>
<time>2011-09-29T10:32:18.16</time>
<name>2008</name>
</trkpt>
<trkpt lat="41.656975" lon="-0.652280">
<ele>388.5</ele>
<speed>13.8</speed>
<course>56.2</course>
<desc>Speed 13.8 km/h Distance 11.42 km</desc>
<time>2011-09-29T10:32:19.16</time>
<name>2009</name>
</trkpt>
<trkpt lat="41.656995" lon="-0.652240">
<ele>389.0</ele>
<speed>14.1</speed>
<course>58.5</course>
<desc>Speed 14.1 km/h Distance 11.43 km</desc>
<time>2011-09-29T10:32:20.15</time>
<name>2010</name>
</trkpt>
<trkpt lat="41.657013" lon="-0.652200">
<ele>389.0</ele>
<speed>14.2</speed>
<course>58.5</course>
<desc>Speed 14.2 km/h Distance 11.43 km</desc>
<time>2011-09-29T10:32:21.16</time>
<name>2011</name>
</trkpt>
<trkpt lat="41.657032" lon="-0.652160">
<ele>389.5</ele>
<speed>14.3</speed>
<course>58.5</course>
<desc>Speed 14.3 km/h Distance 11.44 km</desc>
<time>2011-09-29T10:32:22.15</time>
<name>2012</name>
</trkpt>
<trkpt lat="41.657050" lon="-0.652120">
<ele>389.5</ele>
<speed>13.9</speed>
<course>59.8</course>
<desc>Speed 13.9 km/h Distance 11.44 km</desc>
<time>2011-09-29T10:32:23.15</time>
<name>2013</name>
</trkpt>
<trkpt lat="41.657067" lon="-0.652082">
<ele>389.5</ele>
<speed>13.6</speed>
<course>59.8</course>
<desc>Speed 13.6 km/h Distance 11.44 km</desc>
<time>2011-09-29T10:32:24.30</time>
<name>2014</name>
</trkpt>
<trkpt lat="41.657083" lon="-0.652043">
<ele>390.0</ele>
<speed>13.8</speed>
<course>58.5</course>
<desc>Speed 13.8 km/h Distance 11.45 km</desc>
<time>2011-09-29T10:32:25.15</time>
<name>2015</name>
</trkpt>
<trkpt lat="41.657102" lon="-0.652003">
<ele>390.0</ele>
<speed>13.9</speed>
<course>61.8</course>
<desc>Speed 13.9 km/h Distance 11.45 km</desc>
<time>2011-09-29T10:32:26.15</time>
<name>2016</name>
</trkpt>
<trkpt lat="41.657118" lon="-0.651962">
<ele>390.0</ele>
<speed>14.1</speed>
<course>60.9</course>
<desc>Speed 14.1 km/h Distance 11.45 km</desc>
<time>2011-09-29T10:32:27.16</time>
<name>2017</name>
</trkpt>
<trkpt lat="41.657135" lon="-0.651922">
<ele>390.0</ele>
<speed>13.9</speed>
<course>58.5</course>
<desc>Speed 13.9 km/h Distance 11.46 km</desc>
<time>2011-09-29T10:32:28.15</time>
<name>2018</name>
</trkpt>
<trkpt lat="41.657153" lon="-0.651882">
<ele>390.5</ele>
<speed>13.8</speed>
<course>63.3</course>
<desc>Speed 13.8 km/h Distance 11.46 km</desc>
<time>2011-09-29T10:32:29.15</time>
<name>2019</name>
</trkpt>
<trkpt lat="41.657168" lon="-0.651842">
<ele>390.5</ele>
<speed>13.8</speed>
<course>60.9</course>
<desc>Speed 13.8 km/h Distance 11.47 km</desc>
<time>2011-09-29T10:32:30.15</time>
<name>2020</name>
</trkpt>
<trkpt lat="41.657185" lon="-0.651802">
<ele>390.5</ele>
<speed>13.7</speed>
<course>58.5</course>
<desc>Speed 13.7 km/h Distance 11.47 km</desc>
<time>2011-09-29T10:32:31.15</time>
<name>2021</name>
</trkpt>
<trkpt lat="41.657203" lon="-0.651762">
<ele>390.5</ele>
<speed>13.8</speed>
<course>53.9</course>
<desc>Speed 13.8 km/h Distance 11.47 km</desc>
<time>2011-09-29T10:32:32.15</time>
<name>2022</name>
</trkpt>
<trkpt lat="41.657223" lon="-0.651725">
<ele>391.0</ele>
<speed>13.5</speed>
<course>52.6</course>
<desc>Speed 13.5 km/h Distance 11.48 km</desc>
<time>2011-09-29T10:32:33.14</time>
<name>2023</name>
</trkpt>
<trkpt lat="41.657243" lon="-0.651690">
<ele>391.0</ele>
<speed>13.3</speed>
<course>46.9</course>
<desc>Speed 13.3 km/h Distance 11.48 km</desc>
<time>2011-09-29T10:32:34.14</time>
<name>2024</name>
</trkpt>
<trkpt lat="41.657267" lon="-0.651657">
<ele>391.0</ele>
<speed>13.4</speed>
<course>43.4</course>
<desc>Speed 13.4 km/h Distance 11.48 km</desc>
<time>2011-09-29T10:32:35.14</time>
<name>2025</name>
</trkpt>
<trkpt lat="41.657292" lon="-0.651625">
<ele>391.5</ele>
<speed>13.4</speed>
<course>38.4</course>
<desc>Speed 13.4 km/h Distance 11.49 km</desc>
<time>2011-09-29T10:32:36.85</time>
<name>2026</name>
</trkpt>
<trkpt lat="41.657347" lon="-0.651567">
<ele>392.0</ele>
<speed>14.2</speed>
<course>38.4</course>
<desc>Speed 14.2 km/h Distance 11.50 km</desc>
<time>2011-09-29T10:32:38.14</time>
<name>2027</name>
</trkpt>
<trkpt lat="41.657373" lon="-0.651538">
<ele>392.0</ele>
<speed>14.0</speed>
<course>40.1</course>
<desc>Speed 14.0 km/h Distance 11.50 km</desc>
<time>2011-09-29T10:32:39.14</time>
<name>2028</name>
</trkpt>
<trkpt lat="41.657400" lon="-0.651508">
<ele>392.5</ele>
<speed>13.5</speed>
<course>43.4</course>
<desc>Speed 13.5 km/h Distance 11.50 km</desc>
<time>2011-09-29T10:32:40.14</time>
<name>2029</name>
</trkpt>
<trkpt lat="41.657425" lon="-0.651477">
<ele>392.5</ele>
<speed>13.5</speed>
<course>45.4</course>
<desc>Speed 13.5 km/h Distance 11.51 km</desc>
<time>2011-09-29T10:32:41.14</time>
<name>2030</name>
</trkpt>
<trkpt lat="41.657448" lon="-0.651445">
<ele>393.0</ele>
<speed>13.1</speed>
<course>45.4</course>
<desc>Speed 13.1 km/h Distance 11.51 km</desc>
<time>2011-09-29T10:32:42.13</time>
<name>2031</name>
</trkpt>
<trkpt lat="41.657472" lon="-0.651413">
<ele>393.5</ele>
<speed>12.9</speed>
<course>41.9</course>
<desc>Speed 12.9 km/h Distance 11.52 km</desc>
<time>2011-09-29T10:32:43.14</time>
<name>2032</name>
</trkpt>
<trkpt lat="41.657497" lon="-0.651383">
<ele>393.5</ele>
<speed>13.3</speed>
<course>38.6</course>
<desc>Speed 13.3 km/h Distance 11.52 km</desc>
<time>2011-09-29T10:32:44.13</time>
<name>2033</name>
</trkpt>
<trkpt lat="41.657522" lon="-0.651357">
<ele>394.0</ele>
<speed>13.1</speed>
<course>45.4</course>
<desc>Speed 13.1 km/h Distance 11.52 km</desc>
<time>2011-09-29T10:32:45.13</time>
<name>2034</name>
</trkpt>
<trkpt lat="41.657545" lon="-0.651325">
<ele>394.0</ele>
<speed>13.0</speed>
<course>41.2</course>
<desc>Speed 13.0 km/h Distance 11.53 km</desc>
<time>2011-09-29T10:32:46.58</time>
<name>2035</name>
</trkpt>
<trkpt lat="41.657593" lon="-0.651268">
<ele>394.5</ele>
<speed>12.8</speed>
<course>38.6</course>
<desc>Speed 12.8 km/h Distance 11.53 km</desc>
<time>2011-09-29T10:32:48.13</time>
<name>2036</name>
</trkpt>
<trkpt lat="41.657618" lon="-0.651242">
<ele>394.5</ele>
<speed>12.6</speed>
<course>40.5</course>
<desc>Speed 12.6 km/h Distance 11.54 km</desc>
<time>2011-09-29T10:32:49.13</time>
<name>2037</name>
</trkpt>
<trkpt lat="41.657642" lon="-0.651215">
<ele>395.0</ele>
<speed>12.1</speed>
<course>38.6</course>
<desc>Speed 12.1 km/h Distance 11.54 km</desc>
<time>2011-09-29T10:32:50.14</time>
<name>2038</name>
</trkpt>
<trkpt lat="41.657667" lon="-0.651188">
<ele>395.0</ele>
<speed>12.4</speed>
<course>36.8</course>
<desc>Speed 12.4 km/h Distance 11.54 km</desc>
<time>2011-09-29T10:32:51.13</time>
<name>2039</name>
</trkpt>
<trkpt lat="41.657690" lon="-0.651165">
<ele>395.5</ele>
<speed>12.1</speed>
<course>33.2</course>
<desc>Speed 12.1 km/h Distance 11.55 km</desc>
<time>2011-09-29T10:32:52.13</time>
<name>2040</name>
</trkpt>
<trkpt lat="41.657717" lon="-0.651142">
<ele>396.0</ele>
<speed>12.5</speed>
<course>36.8</course>
<desc>Speed 12.5 km/h Distance 11.55 km</desc>
<time>2011-09-29T10:32:53.51</time>
<name>2041</name>
</trkpt>
<trkpt lat="41.657767" lon="-0.651092">
<ele>396.5</ele>
<speed>12.2</speed>
<course>38.6</course>
<desc>Speed 12.2 km/h Distance 11.56 km</desc>
<time>2011-09-29T10:32:55.12</time>
<name>2042</name>
</trkpt>
<trkpt lat="41.657792" lon="-0.651065">
<ele>397.0</ele>
<speed>12.7</speed>
<course>40.5</course>
<desc>Speed 12.7 km/h Distance 11.56 km</desc>
<time>2011-09-29T10:32:56.33</time>
<name>2043</name>
</trkpt>
<trkpt lat="41.657815" lon="-0.651038">
<ele>397.0</ele>
<speed>12.2</speed>
<course>38.6</course>
<desc>Speed 12.2 km/h Distance 11.56 km</desc>
<time>2011-09-29T10:32:57.12</time>
<name>2044</name>
</trkpt>
<trkpt lat="41.657838" lon="-0.651013">
<ele>397.5</ele>
<speed>12.1</speed>
<course>34.9</course>
<desc>Speed 12.1 km/h Distance 11.57 km</desc>
<time>2011-09-29T10:32:58.12</time>
<name>2045</name>
</trkpt>
<trkpt lat="41.657863" lon="-0.650990">
<ele>398.0</ele>
<speed>12.0</speed>
<course>42.6</course>
<desc>Speed 12.0 km/h Distance 11.57 km</desc>
<time>2011-09-29T10:32:59.12</time>
<name>2046</name>
</trkpt>
<trkpt lat="41.657885" lon="-0.650963">
<ele>398.0</ele>
<speed>11.3</speed>
<course>36.7</course>
<desc>Speed 11.3 km/h Distance 11.57 km</desc>
<time>2011-09-29T10:33:00.13</time>
<name>2047</name>
</trkpt>
<trkpt lat="41.657907" lon="-0.650942">
<ele>398.5</ele>
<speed>11.1</speed>
<course>32.6</course>
<desc>Speed 11.1 km/h Distance 11.58 km</desc>
<time>2011-09-29T10:33:01.12</time>
<name>2048</name>
</trkpt>
<trkpt lat="41.657930" lon="-0.650922">
<ele>399.0</ele>
<speed>11.0</speed>
<course>32.7</course>
<desc>Speed 11.0 km/h Distance 11.58 km</desc>
<time>2011-09-29T10:33:02.12</time>
<name>2049</name>
</trkpt>
<trkpt lat="41.657953" lon="-0.650902">
<ele>399.5</ele>
<speed>10.7</speed>
<course>39.0</course>
<desc>Speed 10.7 km/h Distance 11.58 km</desc>
<time>2011-09-29T10:33:03.26</time>
<name>2050</name>
</trkpt>
<trkpt lat="41.657973" lon="-0.650880">
<ele>399.5</ele>
<speed>10.5</speed>
<course>41.1</course>
<desc>Speed 10.5 km/h Distance 11.59 km</desc>
<time>2011-09-29T10:33:04.12</time>
<name>2051</name>
</trkpt>
<trkpt lat="41.657993" lon="-0.650857">
<ele>400.0</ele>
<speed>10.7</speed>
<course>39.0</course>
<desc>Speed 10.7 km/h Distance 11.59 km</desc>
<time>2011-09-29T10:33:05.11</time>
<name>2052</name>
</trkpt>
<trkpt lat="41.658013" lon="-0.650835">
<ele>400.5</ele>
<speed>10.0</speed>
<course>34.4</course>
<desc>Speed 10.0 km/h Distance 11.59 km</desc>
<time>2011-09-29T10:33:06.14</time>
<name>2053</name>
</trkpt>
<trkpt lat="41.658033" lon="-0.650817">
<ele>400.5</ele>
<speed>9.6</speed>
<course>31.9</course>
<desc>Speed 9.6 km/h Distance 11.60 km</desc>
<time>2011-09-29T10:33:07.11</time>
<name>2054</name>
</trkpt>
<trkpt lat="41.658053" lon="-0.650800">
<ele>401.0</ele>
<speed>9.3</speed>
<course>39.4</course>
<desc>Speed 9.3 km/h Distance 11.60 km</desc>
<time>2011-09-29T10:33:08.11</time>
<name>2055</name>
</trkpt>
<trkpt lat="41.658070" lon="-0.650782">
<ele>401.5</ele>
<speed>8.9</speed>
<course>34.4</course>
<desc>Speed 8.9 km/h Distance 11.60 km</desc>
<time>2011-09-29T10:33:09.11</time>
<name>2056</name>
</trkpt>
<trkpt lat="41.658090" lon="-0.650763">
<ele>401.5</ele>
<speed>9.2</speed>
<course>34.3</course>
<desc>Speed 9.2 km/h Distance 11.60 km</desc>
<time>2011-09-29T10:33:10.11</time>
<name>2057</name>
</trkpt>
<trkpt lat="41.658110" lon="-0.650745">
<ele>402.0</ele>
<speed>9.6</speed>
<course>39.0</course>
<desc>Speed 9.6 km/h Distance 11.61 km</desc>
<time>2011-09-29T10:33:11.11</time>
<name>2058</name>
</trkpt>
<trkpt lat="41.658130" lon="-0.650723">
<ele>402.0</ele>
<speed>9.8</speed>
<course>36.7</course>
<desc>Speed 9.8 km/h Distance 11.61 km</desc>
<time>2011-09-29T10:33:12.11</time>
<name>2059</name>
</trkpt>
<trkpt lat="41.658150" lon="-0.650703">
<ele>402.5</ele>
<speed>9.6</speed>
<course>39.2</course>
<desc>Speed 9.6 km/h Distance 11.61 km</desc>
<time>2011-09-29T10:33:13.11</time>
<name>2060</name>
</trkpt>
<trkpt lat="41.658168" lon="-0.650683">
<ele>402.5</ele>
<speed>9.6</speed>
<course>34.4</course>
<desc>Speed 9.6 km/h Distance 11.61 km</desc>
<time>2011-09-29T10:33:14.11</time>
<name>2061</name>
</trkpt>
<trkpt lat="41.658188" lon="-0.650665">
<ele>402.5</ele>
<speed>9.6</speed>
<course>37.9</course>
<desc>Speed 9.6 km/h Distance 11.62 km</desc>
<time>2011-09-29T10:33:15.83</time>
<name>2062</name>
</trkpt>
<trkpt lat="41.658227" lon="-0.650625">
<ele>403.0</ele>
<speed>9.3</speed>
<course>41.9</course>
<desc>Speed 9.3 km/h Distance 11.62 km</desc>
<time>2011-09-29T10:33:17.11</time>
<name>2063</name>
</trkpt>
<trkpt lat="41.658243" lon="-0.650605">
<ele>403.0</ele>
<speed>9.0</speed>
<course>39.2</course>
<desc>Speed 9.0 km/h Distance 11.62 km</desc>
<time>2011-09-29T10:33:18.11</time>
<name>2064</name>
</trkpt>
<trkpt lat="41.658262" lon="-0.650585">
<ele>403.5</ele>
<speed>9.6</speed>
<course>28.1</course>
<desc>Speed 9.6 km/h Distance 11.63 km</desc>
<time>2011-09-29T10:33:19.10</time>
<name>2065</name>
</trkpt>
<trkpt lat="41.658285" lon="-0.650568">
<ele>403.5</ele>
<speed>10.2</speed>
<course>34.6</course>
<desc>Speed 10.2 km/h Distance 11.63 km</desc>
<time>2011-09-29T10:33:20.10</time>
<name>2066</name>
</trkpt>
<trkpt lat="41.658307" lon="-0.650548">
<ele>403.5</ele>
<speed>10.1</speed>
<course>31.9</course>
<desc>Speed 10.1 km/h Distance 11.63 km</desc>
<time>2011-09-29T10:33:21.11</time>
<name>2067</name>
</trkpt>
<trkpt lat="41.658327" lon="-0.650532">
<ele>404.0</ele>
<speed>9.7</speed>
<course>32.3</course>
<desc>Speed 9.7 km/h Distance 11.64 km</desc>
<time>2011-09-29T10:33:22.10</time>
<name>2068</name>
</trkpt>
<trkpt lat="41.658348" lon="-0.650513">
<ele>404.0</ele>
<speed>9.9</speed>
<course>25.6</course>
<desc>Speed 9.9 km/h Distance 11.64 km</desc>
<time>2011-09-29T10:33:23.11</time>
<name>2069</name>
</trkpt>
<trkpt lat="41.658372" lon="-0.650498">
<ele>404.0</ele>
<speed>10.3</speed>
<course>23.0</course>
<desc>Speed 10.3 km/h Distance 11.64 km</desc>
<time>2011-09-29T10:33:24.10</time>
<name>2070</name>
</trkpt>
<trkpt lat="41.658395" lon="-0.650485">
<ele>404.0</ele>
<speed>9.5</speed>
<course>14.0</course>
<desc>Speed 9.5 km/h Distance 11.64 km</desc>
<time>2011-09-29T10:33:25.55</time>
<name>2071</name>
</trkpt>
<trkpt lat="41.658445" lon="-0.650468">
<ele>404.0</ele>
<speed>9.6</speed>
<course>8.1</course>
<desc>Speed 9.6 km/h Distance 11.65 km</desc>
<time>2011-09-29T10:33:27.10</time>
<name>2072</name>
</trkpt>
<trkpt lat="41.658470" lon="-0.650463">
<ele>404.0</ele>
<speed>10.0</speed>
<course>1.2</course>
<desc>Speed 10.0 km/h Distance 11.65 km</desc>
<time>2011-09-29T10:33:28.10</time>
<name>2073</name>
</trkpt>
<trkpt lat="41.658497" lon="-0.650462">
<ele>404.0</ele>
<speed>10.7</speed>
<course>3.1</course>
<desc>Speed 10.7 km/h Distance 11.66 km</desc>
<time>2011-09-29T10:33:29.10</time>
<name>2074</name>
</trkpt>
<trkpt lat="41.658522" lon="-0.650460">
<ele>403.5</ele>
<speed>9.9</speed>
<course>5.1</course>
<desc>Speed 9.9 km/h Distance 11.66 km</desc>
<time>2011-09-29T10:33:30.10</time>
<name>2075</name>
</trkpt>
<trkpt lat="41.658550" lon="-0.650457">
<ele>403.5</ele>
<speed>11.1</speed>
<course>5.1</course>
<desc>Speed 11.1 km/h Distance 11.66 km</desc>
<time>2011-09-29T10:33:31.10</time>
<name>2076</name>
</trkpt>
<trkpt lat="41.658578" lon="-0.650453">
<ele>403.5</ele>
<speed>10.7</speed>
<course>16.1</course>
<desc>Speed 10.7 km/h Distance 11.66 km</desc>
<time>2011-09-29T10:33:32.49</time>
<name>2077</name>
</trkpt>
<trkpt lat="41.658630" lon="-0.650433">
<ele>403.5</ele>
<speed>10.1</speed>
<course>23.0</course>
<desc>Speed 10.1 km/h Distance 11.67 km</desc>
<time>2011-09-29T10:33:34.09</time>
<name>2078</name>
</trkpt>
<trkpt lat="41.658653" lon="-0.650420">
<ele>404.0</ele>
<speed>10.4</speed>
<course>26.5</course>
<desc>Speed 10.4 km/h Distance 11.67 km</desc>
<time>2011-09-29T10:33:35.30</time>
<name>2079</name>
</trkpt>
<trkpt lat="41.658678" lon="-0.650403">
<ele>404.0</ele>
<speed>10.2</speed>
<course>43.6</course>
<desc>Speed 10.2 km/h Distance 11.68 km</desc>
<time>2011-09-29T10:33:36.09</time>
<name>2080</name>
</trkpt>
<trkpt lat="41.658697" lon="-0.650380">
<ele>404.0</ele>
<speed>10.2</speed>
<course>45.5</course>
<desc>Speed 10.2 km/h Distance 11.68 km</desc>
<time>2011-09-29T10:33:37.09</time>
<name>2081</name>
</trkpt>
<trkpt lat="41.658715" lon="-0.650355">
<ele>404.0</ele>
<speed>10.3</speed>
<course>44.9</course>
<desc>Speed 10.3 km/h Distance 11.68 km</desc>
<time>2011-09-29T10:33:38.09</time>
<name>2082</name>
</trkpt>
<trkpt lat="41.658735" lon="-0.650328">
<ele>404.5</ele>
<speed>10.5</speed>
<course>51.8</course>
<desc>Speed 10.5 km/h Distance 11.69 km</desc>
<time>2011-09-29T10:33:39.09</time>
<name>2083</name>
</trkpt>
<trkpt lat="41.658752" lon="-0.650300">
<ele>404.5</ele>
<speed>10.7</speed>
<course>47.4</course>
<desc>Speed 10.7 km/h Distance 11.69 km</desc>
<time>2011-09-29T10:33:40.09</time>
<name>2084</name>
</trkpt>
<trkpt lat="41.658770" lon="-0.650273">
<ele>404.5</ele>
<speed>10.8</speed>
<course>56.2</course>
<desc>Speed 10.8 km/h Distance 11.69 km</desc>
<time>2011-09-29T10:33:41.09</time>
<name>2085</name>
</trkpt>
<trkpt lat="41.658785" lon="-0.650243">
<ele>405.0</ele>
<speed>10.3</speed>
<course>57.8</course>
<desc>Speed 10.3 km/h Distance 11.69 km</desc>
<time>2011-09-29T10:33:42.23</time>
<name>2086</name>
</trkpt>
<trkpt lat="41.658798" lon="-0.650215">
<ele>405.0</ele>
<speed>10.1</speed>
<course>62.5</course>
<desc>Speed 10.1 km/h Distance 11.70 km</desc>
<time>2011-09-29T10:33:43.09</time>
<name>2087</name>
</trkpt>
<trkpt lat="41.658810" lon="-0.650185">
<ele>405.5</ele>
<speed>10.5</speed>
<course>69.1</course>
<desc>Speed 10.5 km/h Distance 11.70 km</desc>
<time>2011-09-29T10:33:44.09</time>
<name>2088</name>
</trkpt>
<trkpt lat="41.658820" lon="-0.650150">
<ele>405.5</ele>
<speed>10.9</speed>
<course>68.1</course>
<desc>Speed 10.9 km/h Distance 11.70 km</desc>
<time>2011-09-29T10:33:45.09</time>
<name>2089</name>
</trkpt>
<trkpt lat="41.658830" lon="-0.650117">
<ele>405.5</ele>
<speed>10.9</speed>
<course>64.9</course>
<desc>Speed 10.9 km/h Distance 11.71 km</desc>
<time>2011-09-29T10:33:46.09</time>
<name>2090</name>
</trkpt>
<trkpt lat="41.658842" lon="-0.650083">
<ele>406.0</ele>
<speed>10.8</speed>
<course>71.5</course>
<desc>Speed 10.8 km/h Distance 11.71 km</desc>
<time>2011-09-29T10:33:47.09</time>
<name>2091</name>
</trkpt>
<trkpt lat="41.658850" lon="-0.650050">
<ele>406.0</ele>
<speed>10.7</speed>
<course>68.1</course>
<desc>Speed 10.7 km/h Distance 11.71 km</desc>
<time>2011-09-29T10:33:48.09</time>
<name>2092</name>
</trkpt>
<trkpt lat="41.658860" lon="-0.650017">
<ele>406.0</ele>
<speed>10.8</speed>
<course>64.9</course>
<desc>Speed 10.8 km/h Distance 11.72 km</desc>
<time>2011-09-29T10:33:49.09</time>
<name>2093</name>
</trkpt>
<trkpt lat="41.658872" lon="-0.649983">
<ele>406.0</ele>
<speed>11.0</speed>
<course>61.8</course>
<desc>Speed 11.0 km/h Distance 11.72 km</desc>
<time>2011-09-29T10:33:50.09</time>
<name>2094</name>
</trkpt>
<trkpt lat="41.658885" lon="-0.649950">
<ele>406.5</ele>
<speed>10.9</speed>
<course>63.8</course>
<desc>Speed 10.9 km/h Distance 11.72 km</desc>
<time>2011-09-29T10:33:51.08</time>
<name>2095</name>
</trkpt>
<trkpt lat="41.658897" lon="-0.649918">
<ele>406.5</ele>
<speed>10.5</speed>
<course>59.3</course>
<desc>Speed 10.5 km/h Distance 11.72 km</desc>
<time>2011-09-29T10:33:52.09</time>
<name>2096</name>
</trkpt>
<trkpt lat="41.658910" lon="-0.649888">
<ele>406.5</ele>
<speed>10.7</speed>
<course>57.6</course>
<desc>Speed 10.7 km/h Distance 11.73 km</desc>
<time>2011-09-29T10:33:53.08</time>
<name>2097</name>
</trkpt>
<trkpt lat="41.658925" lon="-0.649857">
<ele>406.5</ele>
<speed>11.1</speed>
<course>46.6</course>
<desc>Speed 11.1 km/h Distance 11.73 km</desc>
<time>2011-09-29T10:33:54.77</time>
<name>2098</name>
</trkpt>
<trkpt lat="41.658965" lon="-0.649800">
<ele>407.0</ele>
<speed>11.5</speed>
<course>40.7</course>
<desc>Speed 11.5 km/h Distance 11.74 km</desc>
<time>2011-09-29T10:33:56.08</time>
<name>2099</name>
</trkpt>
<trkpt lat="41.658987" lon="-0.649775">
<ele>407.0</ele>
<speed>11.7</speed>
<course>42.6</course>
<desc>Speed 11.7 km/h Distance 11.74 km</desc>
<time>2011-09-29T10:33:57.08</time>
<name>2100</name>
</trkpt>
<trkpt lat="41.659008" lon="-0.649748">
<ele>407.0</ele>
<speed>11.4</speed>
<course>38.7</course>
<desc>Speed 11.4 km/h Distance 11.74 km</desc>
<time>2011-09-29T10:33:58.08</time>
<name>2101</name>
</trkpt>
<trkpt lat="41.659032" lon="-0.649723">
<ele>407.0</ele>
<speed>12.0</speed>
<course>38.7</course>
<desc>Speed 12.0 km/h Distance 11.75 km</desc>
<time>2011-09-29T10:33:59.09</time>
<name>2102</name>
</trkpt>
<trkpt lat="41.659055" lon="-0.649698">
<ele>407.0</ele>
<speed>12.3</speed>
<course>34.9</course>
<desc>Speed 12.3 km/h Distance 11.75 km</desc>
<time>2011-09-29T10:34:00.09</time>
<name>2103</name>
</trkpt>
<trkpt lat="41.659080" lon="-0.649675">
<ele>407.5</ele>
<speed>11.8</speed>
<course>30.9</course>
<desc>Speed 11.8 km/h Distance 11.75 km</desc>
<time>2011-09-29T10:34:01.08</time>
<name>2104</name>
</trkpt>
<trkpt lat="41.659105" lon="-0.649655">
<ele>407.5</ele>
<speed>11.5</speed>
<course>28.1</course>
<desc>Speed 11.5 km/h Distance 11.76 km</desc>
<time>2011-09-29T10:34:02.08</time>
<name>2105</name>
</trkpt>
<trkpt lat="41.659128" lon="-0.649638">
<ele>407.5</ele>
<speed>11.3</speed>
<course>25.0</course>
<desc>Speed 11.3 km/h Distance 11.76 km</desc>
<time>2011-09-29T10:34:03.08</time>
<name>2106</name>
</trkpt>
<trkpt lat="41.659155" lon="-0.649622">
<ele>408.0</ele>
<speed>11.2</speed>
<course>16.7</course>
<desc>Speed 11.2 km/h Distance 11.76 km</desc>
<time>2011-09-29T10:34:04.51</time>
<name>2107</name>
</trkpt>
<trkpt lat="41.659213" lon="-0.649598">
<ele>408.0</ele>
<speed>12.0</speed>
<course>17.5</course>
<desc>Speed 12.0 km/h Distance 11.77 km</desc>
<time>2011-09-29T10:34:06.08</time>
<name>2108</name>
</trkpt>
<trkpt lat="41.659245" lon="-0.649585">
<ele>408.5</ele>
<speed>13.2</speed>
<course>17.4</course>
<desc>Speed 13.2 km/h Distance 11.77 km</desc>
<time>2011-09-29T10:34:07.08</time>
<name>2109</name>
</trkpt>
<trkpt lat="41.659277" lon="-0.649572">
<ele>408.5</ele>
<speed>13.3</speed>
<course>12.6</course>
<desc>Speed 13.3 km/h Distance 11.78 km</desc>
<time>2011-09-29T10:34:08.08</time>
<name>2110</name>
</trkpt>
<trkpt lat="41.659310" lon="-0.649562">
<ele>408.5</ele>
<speed>12.9</speed>
<course>17.5</course>
<desc>Speed 12.9 km/h Distance 11.78 km</desc>
<time>2011-09-29T10:34:09.08</time>
<name>2111</name>
</trkpt>
<trkpt lat="41.659342" lon="-0.649548">
<ele>408.5</ele>
<speed>13.1</speed>
<course>17.5</course>
<desc>Speed 13.1 km/h Distance 11.78 km</desc>
<time>2011-09-29T10:34:10.08</time>
<name>2112</name>
</trkpt>
<trkpt lat="41.659373" lon="-0.649535">
<ele>408.5</ele>
<speed>13.4</speed>
<course>17.7</course>
<desc>Speed 13.4 km/h Distance 11.79 km</desc>
<time>2011-09-29T10:34:11.08</time>
<name>2113</name>
</trkpt>
<trkpt lat="41.659408" lon="-0.649520">
<ele>408.5</ele>
<speed>13.9</speed>
<course>15.4</course>
<desc>Speed 13.9 km/h Distance 11.79 km</desc>
<time>2011-09-29T10:34:12.09</time>
<name>2114</name>
</trkpt>
<trkpt lat="41.659440" lon="-0.649508">
<ele>408.5</ele>
<speed>13.5</speed>
<course>15.8</course>
<desc>Speed 13.5 km/h Distance 11.80 km</desc>
<time>2011-09-29T10:34:13.25</time>
<name>2115</name>
</trkpt>
<trkpt lat="41.659475" lon="-0.649495">
<ele>408.5</ele>
<speed>13.8</speed>
<course>16.6</course>
<desc>Speed 13.8 km/h Distance 11.80 km</desc>
<time>2011-09-29T10:34:14.07</time>
<name>2116</name>
</trkpt>
<trkpt lat="41.659508" lon="-0.649482">
<ele>409.0</ele>
<speed>13.8</speed>
<course>18.6</course>
<desc>Speed 13.8 km/h Distance 11.80 km</desc>
<time>2011-09-29T10:34:15.08</time>
<name>2117</name>
</trkpt>
<trkpt lat="41.659542" lon="-0.649467">
<ele>409.0</ele>
<speed>13.9</speed>
<course>16.6</course>
<desc>Speed 13.9 km/h Distance 11.81 km</desc>
<time>2011-09-29T10:34:16.07</time>
<name>2118</name>
</trkpt>
<trkpt lat="41.659575" lon="-0.649453">
<ele>409.5</ele>
<speed>13.5</speed>
<course>15.8</course>
<desc>Speed 13.5 km/h Distance 11.81 km</desc>
<time>2011-09-29T10:34:17.07</time>
<name>2119</name>
</trkpt>
<trkpt lat="41.659610" lon="-0.649440">
<ele>409.5</ele>
<speed>13.9</speed>
<course>16.6</course>
<desc>Speed 13.9 km/h Distance 11.82 km</desc>
<time>2011-09-29T10:34:18.07</time>
<name>2120</name>
</trkpt>
<trkpt lat="41.659643" lon="-0.649427">
<ele>409.5</ele>
<speed>13.4</speed>
<course>14.6</course>
<desc>Speed 13.4 km/h Distance 11.82 km</desc>
<time>2011-09-29T10:34:19.07</time>
<name>2121</name>
</trkpt>
<trkpt lat="41.659677" lon="-0.649415">
<ele>410.0</ele>
<speed>13.4</speed>
<course>18.3</course>
<desc>Speed 13.4 km/h Distance 11.82 km</desc>
<time>2011-09-29T10:34:20.07</time>
<name>2122</name>
</trkpt>
<trkpt lat="41.659707" lon="-0.649402">
<ele>410.5</ele>
<speed>12.9</speed>
<course>20.4</course>
<desc>Speed 12.9 km/h Distance 11.83 km</desc>
<time>2011-09-29T10:34:21.20</time>
<name>2123</name>
</trkpt>
<trkpt lat="41.659737" lon="-0.649387">
<ele>411.0</ele>
<speed>12.6</speed>
<course>13.3</course>
<desc>Speed 12.6 km/h Distance 11.83 km</desc>
<time>2011-09-29T10:34:22.07</time>
<name>2124</name>
</trkpt>
<trkpt lat="41.659768" lon="-0.649377">
<ele>411.0</ele>
<speed>13.0</speed>
<course>13.9</course>
<desc>Speed 13.0 km/h Distance 11.83 km</desc>
<time>2011-09-29T10:34:23.07</time>
<name>2125</name>
</trkpt>
<trkpt lat="41.659798" lon="-0.649367">
<ele>411.5</ele>
<speed>12.2</speed>
<course>17.1</course>
<desc>Speed 12.2 km/h Distance 11.84 km</desc>
<time>2011-09-29T10:34:24.10</time>
<name>2126</name>
</trkpt>
<trkpt lat="41.659827" lon="-0.649355">
<ele>412.0</ele>
<speed>12.3</speed>
<course>14.0</course>
<desc>Speed 12.3 km/h Distance 11.84 km</desc>
<time>2011-09-29T10:34:25.07</time>
<name>2127</name>
</trkpt>
<trkpt lat="41.659857" lon="-0.649345">
<ele>412.0</ele>
<speed>12.7</speed>
<course>18.4</course>
<desc>Speed 12.7 km/h Distance 11.84 km</desc>
<time>2011-09-29T10:34:26.07</time>
<name>2128</name>
</trkpt>
<trkpt lat="41.659887" lon="-0.649332">
<ele>412.5</ele>
<speed>12.6</speed>
<course>19.4</course>
<desc>Speed 12.6 km/h Distance 11.85 km</desc>
<time>2011-09-29T10:34:27.07</time>
<name>2129</name>
</trkpt>
<trkpt lat="41.659915" lon="-0.649318">
<ele>413.0</ele>
<speed>12.7</speed>
<course>19.4</course>
<desc>Speed 12.7 km/h Distance 11.85 km</desc>
<time>2011-09-29T10:34:28.06</time>
<name>2130</name>
</trkpt>
<trkpt lat="41.659943" lon="-0.649305">
<ele>413.5</ele>
<speed>12.3</speed>
<course>13.1</course>
<desc>Speed 12.3 km/h Distance 11.85 km</desc>
<time>2011-09-29T10:34:29.06</time>
<name>2131</name>
</trkpt>
<trkpt lat="41.659975" lon="-0.649295">
<ele>414.0</ele>
<speed>12.5</speed>
<course>13.9</course>
<desc>Speed 12.5 km/h Distance 11.86 km</desc>
<time>2011-09-29T10:34:30.06</time>
<name>2132</name>
</trkpt>
<trkpt lat="41.660005" lon="-0.649285">
<ele>414.0</ele>
<speed>12.5</speed>
<course>16.2</course>
<desc>Speed 12.5 km/h Distance 11.86 km</desc>
<time>2011-09-29T10:34:31.06</time>
<name>2133</name>
</trkpt>
<trkpt lat="41.660035" lon="-0.649273">
<ele>414.5</ele>
<speed>12.5</speed>
<course>19.4</course>
<desc>Speed 12.5 km/h Distance 11.86 km</desc>
<time>2011-09-29T10:34:32.06</time>
<name>2134</name>
</trkpt>
<trkpt lat="41.660063" lon="-0.649260">
<ele>414.5</ele>
<speed>12.3</speed>
<course>17.1</course>
<desc>Speed 12.3 km/h Distance 11.87 km</desc>
<time>2011-09-29T10:34:33.82</time>
<name>2135</name>
</trkpt>
<trkpt lat="41.660120" lon="-0.649237">
<ele>415.0</ele>
<speed>11.7</speed>
<course>11.6</course>
<desc>Speed 11.7 km/h Distance 11.87 km</desc>
<time>2011-09-29T10:34:35.06</time>
<name>2136</name>
</trkpt>
<trkpt lat="41.660150" lon="-0.649228">
<ele>415.5</ele>
<speed>11.8</speed>
<course>12.5</course>
<desc>Speed 11.8 km/h Distance 11.88 km</desc>
<time>2011-09-29T10:34:36.06</time>
<name>2137</name>
</trkpt>
<trkpt lat="41.660178" lon="-0.649220">
<ele>415.5</ele>
<speed>12.1</speed>
<course>11.7</course>
<desc>Speed 12.1 km/h Distance 11.88 km</desc>
<time>2011-09-29T10:34:37.06</time>
<name>2138</name>
</trkpt>
<trkpt lat="41.660208" lon="-0.649212">
<ele>415.5</ele>
<speed>11.9</speed>
<course>17.1</course>
<desc>Speed 11.9 km/h Distance 11.88 km</desc>
<time>2011-09-29T10:34:38.06</time>
<name>2139</name>
</trkpt>
<trkpt lat="41.660237" lon="-0.649200">
<ele>416.0</ele>
<speed>12.1</speed>
<course>14.7</course>
<desc>Speed 12.1 km/h Distance 11.89 km</desc>
<time>2011-09-29T10:34:39.06</time>
<name>2140</name>
</trkpt>
<trkpt lat="41.660265" lon="-0.649190">
<ele>416.0</ele>
<speed>12.0</speed>
<course>14.7</course>
<desc>Speed 12.0 km/h Distance 11.89 km</desc>
<time>2011-09-29T10:34:40.32</time>
<name>2141</name>
</trkpt>
<trkpt lat="41.660293" lon="-0.649180">
<ele>416.0</ele>
<speed>11.7</speed>
<course>15.5</course>
<desc>Speed 11.7 km/h Distance 11.89 km</desc>
<time>2011-09-29T10:34:41.06</time>
<name>2142</name>
</trkpt>
<trkpt lat="41.660320" lon="-0.649170">
<ele>416.5</ele>
<speed>11.5</speed>
<course>13.1</course>
<desc>Speed 11.5 km/h Distance 11.90 km</desc>
<time>2011-09-29T10:34:42.06</time>
<name>2143</name>
</trkpt>
<trkpt lat="41.660347" lon="-0.649162">
<ele>416.5</ele>
<speed>11.4</speed>
<course>13.2</course>
<desc>Speed 11.4 km/h Distance 11.90 km</desc>
<time>2011-09-29T10:34:43.56</time>
<name>2144</name>
</trkpt>
<trkpt lat="41.660400" lon="-0.649145">
<ele>417.0</ele>
<speed>10.7</speed>
<course>18.1</course>
<desc>Speed 10.7 km/h Distance 11.91 km</desc>
<time>2011-09-29T10:34:45.06</time>
<name>2145</name>
</trkpt>
<trkpt lat="41.660427" lon="-0.649133">
<ele>417.5</ele>
<speed>10.9</speed>
<course>15.5</course>
<desc>Speed 10.9 km/h Distance 11.91 km</desc>
<time>2011-09-29T10:34:46.06</time>
<name>2146</name>
</trkpt>
<trkpt lat="41.660453" lon="-0.649123">
<ele>418.0</ele>
<speed>11.4</speed>
<course>12.3</course>
<desc>Speed 11.4 km/h Distance 11.91 km</desc>
<time>2011-09-29T10:34:47.06</time>
<name>2147</name>
</trkpt>
<trkpt lat="41.660482" lon="-0.649115">
<ele>418.0</ele>
<speed>11.1</speed>
<course>15.6</course>
<desc>Speed 11.1 km/h Distance 11.92 km</desc>
<time>2011-09-29T10:34:48.05</time>
<name>2148</name>
</trkpt>
<trkpt lat="41.660508" lon="-0.649105">
<ele>418.5</ele>
<speed>11.1</speed>
<course>5.1</course>
<desc>Speed 11.1 km/h Distance 11.92 km</desc>
<time>2011-09-29T10:34:49.05</time>
<name>2149</name>
</trkpt>
<trkpt lat="41.660537" lon="-0.649102">
<ele>418.5</ele>
<speed>11.4</speed>
<course>11.8</course>
<desc>Speed 11.4 km/h Distance 11.92 km</desc>
<time>2011-09-29T10:34:50.06</time>
<name>2150</name>
</trkpt>
<trkpt lat="41.660567" lon="-0.649093">
<ele>418.5</ele>
<speed>11.8</speed>
<course>12.3</course>
<desc>Speed 11.8 km/h Distance 11.93 km</desc>
<time>2011-09-29T10:34:51.05</time>
<name>2151</name>
</trkpt>
<trkpt lat="41.660595" lon="-0.649085">
<ele>419.0</ele>
<speed>11.7</speed>
<course>17.1</course>
<desc>Speed 11.7 km/h Distance 11.93 km</desc>
<time>2011-09-29T10:34:52.06</time>
<name>2152</name>
</trkpt>
<trkpt lat="41.660623" lon="-0.649073">
<ele>419.0</ele>
<speed>11.7</speed>
<course>12.3</course>
<desc>Speed 11.7 km/h Distance 11.93 km</desc>
<time>2011-09-29T10:34:53.32</time>
<name>2153</name>
</trkpt>
<trkpt lat="41.660652" lon="-0.649065">
<ele>419.0</ele>
<speed>11.3</speed>
<course>21.5</course>
<desc>Speed 11.3 km/h Distance 11.94 km</desc>
<time>2011-09-29T10:34:54.05</time>
<name>2154</name>
</trkpt>
<trkpt lat="41.660680" lon="-0.649050">
<ele>419.0</ele>
<speed>11.5</speed>
<course>26.5</course>
<desc>Speed 11.5 km/h Distance 11.94 km</desc>
<time>2011-09-29T10:34:55.05</time>
<name>2155</name>
</trkpt>
<trkpt lat="41.660705" lon="-0.649033">
<ele>419.0</ele>
<speed>11.0</speed>
<course>29.9</course>
<desc>Speed 11.0 km/h Distance 11.94 km</desc>
<time>2011-09-29T10:34:56.05</time>
<name>2156</name>
</trkpt>
<trkpt lat="41.660727" lon="-0.649017">
<ele>419.5</ele>
<speed>10.0</speed>
<course>30.4</course>
<desc>Speed 10.0 km/h Distance 11.95 km</desc>
<time>2011-09-29T10:34:57.05</time>
<name>2157</name>
</trkpt>
<trkpt lat="41.660750" lon="-0.648998">
<ele>420.0</ele>
<speed>10.0</speed>
<course>32.3</course>
<desc>Speed 10.0 km/h Distance 11.95 km</desc>
<time>2011-09-29T10:34:58.05</time>
<name>2158</name>
</trkpt>
<trkpt lat="41.660772" lon="-0.648980">
<ele>420.5</ele>
<speed>9.9</speed>
<course>30.0</course>
<desc>Speed 9.9 km/h Distance 11.95 km</desc>
<time>2011-09-29T10:34:59.05</time>
<name>2159</name>
</trkpt>
<trkpt lat="41.660793" lon="-0.648963">
<ele>421.0</ele>
<speed>9.8</speed>
<course>44.2</course>
<desc>Speed 9.8 km/h Distance 11.95 km</desc>
<time>2011-09-29T10:35:00.24</time>
<name>2160</name>
</trkpt>
<trkpt lat="41.660810" lon="-0.648942">
<ele>421.5</ele>
<speed>9.4</speed>
<course>38.8</course>
<desc>Speed 9.4 km/h Distance 11.96 km</desc>
<time>2011-09-29T10:35:01.04</time>
<name>2161</name>
</trkpt>
<trkpt lat="41.660832" lon="-0.648918">
<ele>421.5</ele>
<speed>10.4</speed>
<course>41.1</course>
<desc>Speed 10.4 km/h Distance 11.96 km</desc>
<time>2011-09-29T10:35:02.04</time>
<name>2162</name>
</trkpt>
<trkpt lat="41.660852" lon="-0.648895">
<ele>421.5</ele>
<speed>10.6</speed>
<course>30.8</course>
<desc>Speed 10.6 km/h Distance 11.96 km</desc>
<time>2011-09-29T10:35:03.05</time>
<name>2163</name>
</trkpt>
<trkpt lat="41.660877" lon="-0.648875">
<ele>421.5</ele>
<speed>10.8</speed>
<course>26.5</course>
<desc>Speed 10.8 km/h Distance 11.97 km</desc>
<time>2011-09-29T10:35:04.04</time>
<name>2164</name>
</trkpt>
<trkpt lat="41.660902" lon="-0.648858">
<ele>422.0</ele>
<speed>10.9</speed>
<course>15.5</course>
<desc>Speed 10.9 km/h Distance 11.97 km</desc>
<time>2011-09-29T10:35:05.04</time>
<name>2165</name>
</trkpt>
<trkpt lat="41.660928" lon="-0.648848">
<ele>422.0</ele>
<speed>11.0</speed>
<course>20.4</course>
<desc>Speed 11.0 km/h Distance 11.97 km</desc>
<time>2011-09-29T10:35:06.04</time>
<name>2166</name>
</trkpt>
<trkpt lat="41.660955" lon="-0.648835">
<ele>422.0</ele>
<speed>11.2</speed>
<course>13.1</course>
<desc>Speed 11.2 km/h Distance 11.98 km</desc>
<time>2011-09-29T10:35:07.04</time>
<name>2167</name>
</trkpt>
<trkpt lat="41.660982" lon="-0.648827">
<ele>422.0</ele>
<speed>11.3</speed>
<course>11.7</course>
<desc>Speed 11.3 km/h Distance 11.98 km</desc>
<time>2011-09-29T10:35:08.04</time>
<name>2168</name>
</trkpt>
<trkpt lat="41.661012" lon="-0.648818">
<ele>422.0</ele>
<speed>11.3</speed>
<course>9.8</course>
<desc>Speed 11.3 km/h Distance 11.98 km</desc>
<time>2011-09-29T10:35:09.04</time>
<name>2169</name>
</trkpt>
<trkpt lat="41.661040" lon="-0.648812">
<ele>422.0</ele>
<speed>11.3</speed>
<course>20.4</course>
<desc>Speed 11.3 km/h Distance 11.98 km</desc>
<time>2011-09-29T10:35:10.04</time>
<name>2170</name>
</trkpt>
<trkpt lat="41.661067" lon="-0.648798">
<ele>422.0</ele>
<speed>11.3</speed>
<course>11.7</course>
<desc>Speed 11.3 km/h Distance 11.99 km</desc>
<time>2011-09-29T10:35:11.04</time>
<name>2171</name>
</trkpt>
<trkpt lat="41.661097" lon="-0.648790">
<ele>422.0</ele>
<speed>11.8</speed>
<course>5.9</course>
<desc>Speed 11.8 km/h Distance 11.99 km</desc>
<time>2011-09-29T10:35:12.77</time>
<name>2172</name>
</trkpt>
<trkpt lat="41.661157" lon="-0.648782">
<ele>422.0</ele>
<speed>12.1</speed>
<course>4.4</course>
<desc>Speed 12.1 km/h Distance 12.00 km</desc>
<time>2011-09-29T10:35:14.03</time>
<name>2173</name>
</trkpt>
<trkpt lat="41.661187" lon="-0.648778">
<ele>422.0</ele>
<speed>12.0</speed>
<course>9.5</course>
<desc>Speed 12.0 km/h Distance 12.00 km</desc>
<time>2011-09-29T10:35:15.04</time>
<name>2174</name>
</trkpt>
<trkpt lat="41.661217" lon="-0.648772">
<ele>422.5</ele>
<speed>11.8</speed>
<course>9.3</course>
<desc>Speed 11.8 km/h Distance 12.00 km</desc>
<time>2011-09-29T10:35:16.03</time>
<name>2175</name>
</trkpt>
<trkpt lat="41.661247" lon="-0.648765">
<ele>422.5</ele>
<speed>11.8</speed>
<course>7.1</course>
<desc>Speed 11.8 km/h Distance 12.01 km</desc>
<time>2011-09-29T10:35:17.03</time>
<name>2176</name>
</trkpt>
<trkpt lat="41.661277" lon="-0.648760">
<ele>422.5</ele>
<speed>11.9</speed>
<course>5.1</course>
<desc>Speed 11.9 km/h Distance 12.01 km</desc>
<time>2011-09-29T10:35:18.03</time>
<name>2177</name>
</trkpt>
<trkpt lat="41.661305" lon="-0.648757">
<ele>422.5</ele>
<speed>11.6</speed>
<course>4.7</course>
<desc>Speed 11.6 km/h Distance 12.01 km</desc>
<time>2011-09-29T10:35:19.03</time>
<name>2178</name>
</trkpt>
<trkpt lat="41.661335" lon="-0.648753">
<ele>423.0</ele>
<speed>11.6</speed>
<course>7.8</course>
<desc>Speed 11.6 km/h Distance 12.02 km</desc>
<time>2011-09-29T10:35:20.03</time>
<name>2179</name>
</trkpt>
<trkpt lat="41.661363" lon="-0.648748">
<ele>423.0</ele>
<speed>11.3</speed>
<course>7.4</course>
<desc>Speed 11.3 km/h Distance 12.02 km</desc>
<time>2011-09-29T10:35:21.03</time>
<name>2180</name>
</trkpt>
<trkpt lat="41.661392" lon="-0.648743">
<ele>423.0</ele>
<speed>11.3</speed>
<course>0.0</course>
<desc>Speed 11.3 km/h Distance 12.02 km</desc>
<time>2011-09-29T10:35:22.51</time>
<name>2181</name>
</trkpt>
<trkpt lat="41.661448" lon="-0.648743">
<ele>424.0</ele>
<speed>11.0</speed>
<course>358.6</course>
<desc>Speed 11.0 km/h Distance 12.03 km</desc>
<time>2011-09-29T10:35:24.03</time>
<name>2182</name>
</trkpt>
<trkpt lat="41.661477" lon="-0.648745">
<ele>424.0</ele>
<speed>11.2</speed>
<course>1.9</course>
<desc>Speed 11.2 km/h Distance 12.03 km</desc>
<time>2011-09-29T10:35:25.03</time>
<name>2183</name>
</trkpt>
<trkpt lat="41.661507" lon="-0.648743">
<ele>424.5</ele>
<speed>12.0</speed>
<course>355.2</course>
<desc>Speed 12.0 km/h Distance 12.04 km</desc>
<time>2011-09-29T10:35:26.03</time>
<name>2184</name>
</trkpt>
<trkpt lat="41.661535" lon="-0.648747">
<ele>424.5</ele>
<speed>11.7</speed>
<course>357.0</course>
<desc>Speed 11.7 km/h Distance 12.04 km</desc>
<time>2011-09-29T10:35:27.02</time>
<name>2185</name>
</trkpt>
<trkpt lat="41.661565" lon="-0.648748">
<ele>425.0</ele>
<speed>11.7</speed>
<course>1.4</course>
<desc>Speed 11.7 km/h Distance 12.04 km</desc>
<time>2011-09-29T10:35:28.02</time>
<name>2186</name>
</trkpt>
<trkpt lat="41.661593" lon="-0.648748">
<ele>425.5</ele>
<speed>11.6</speed>
<course>353.1</course>
<desc>Speed 11.6 km/h Distance 12.05 km</desc>
<time>2011-09-29T10:35:29.02</time>
<name>2187</name>
</trkpt>
<trkpt lat="41.661623" lon="-0.648753">
<ele>425.5</ele>
<speed>11.8</speed>
<course>355.6</course>
<desc>Speed 11.8 km/h Distance 12.05 km</desc>
<time>2011-09-29T10:35:30.02</time>
<name>2188</name>
</trkpt>
<trkpt lat="41.661653" lon="-0.648757">
<ele>426.0</ele>
<speed>11.8</speed>
<course>358.1</course>
<desc>Speed 11.8 km/h Distance 12.05 km</desc>
<time>2011-09-29T10:35:31.02</time>
<name>2189</name>
</trkpt>
<trkpt lat="41.661683" lon="-0.648758">
<ele>426.0</ele>
<speed>11.7</speed>
<course>353.1</course>
<desc>Speed 11.7 km/h Distance 12.06 km</desc>
<time>2011-09-29T10:35:32.24</time>
<name>2190</name>
</trkpt>
<trkpt lat="41.661713" lon="-0.648763">
<ele>426.5</ele>
<speed>12.0</speed>
<course>358.6</course>
<desc>Speed 12.0 km/h Distance 12.06 km</desc>
<time>2011-09-29T10:35:33.02</time>
<name>2191</name>
</trkpt>
<trkpt lat="41.661742" lon="-0.648765">
<ele>426.5</ele>
<speed>11.2</speed>
<course>355.4</course>
<desc>Speed 11.2 km/h Distance 12.06 km</desc>
<time>2011-09-29T10:35:34.02</time>
<name>2192</name>
</trkpt>
<trkpt lat="41.661768" lon="-0.648768">
<ele>426.5</ele>
<speed>10.6</speed>
<course>10.6</course>
<desc>Speed 10.6 km/h Distance 12.07 km</desc>
<time>2011-09-29T10:35:35.02</time>
<name>2193</name>
</trkpt>
<trkpt lat="41.661795" lon="-0.648762">
<ele>426.5</ele>
<speed>10.6</speed>
<course>7.4</course>
<desc>Speed 10.6 km/h Distance 12.07 km</desc>
<time>2011-09-29T10:35:36.02</time>
<name>2194</name>
</trkpt>
<trkpt lat="41.661823" lon="-0.648757">
<ele>427.0</ele>
<speed>11.1</speed>
<course>17.1</course>
<desc>Speed 11.1 km/h Distance 12.07 km</desc>
<time>2011-09-29T10:35:37.02</time>
<name>2195</name>
</trkpt>
<trkpt lat="41.661852" lon="-0.648745">
<ele>427.0</ele>
<speed>11.7</speed>
<course>17.1</course>
<desc>Speed 11.7 km/h Distance 12.08 km</desc>
<time>2011-09-29T10:35:38.02</time>
<name>2196</name>
</trkpt>
<trkpt lat="41.661880" lon="-0.648733">
<ele>427.0</ele>
<speed>12.1</speed>
<course>17.1</course>
<desc>Speed 12.1 km/h Distance 12.08 km</desc>
<time>2011-09-29T10:35:39.17</time>
<name>2197</name>
</trkpt>
<trkpt lat="41.661908" lon="-0.648722">
<ele>427.0</ele>
<speed>12.2</speed>
<course>20.4</course>
<desc>Speed 12.2 km/h Distance 12.08 km</desc>
<time>2011-09-29T10:35:40.02</time>
<name>2198</name>
</trkpt>
<trkpt lat="41.661938" lon="-0.648707">
<ele>427.0</ele>
<speed>11.8</speed>
<course>21.6</course>
<desc>Speed 11.8 km/h Distance 12.09 km</desc>
<time>2011-09-29T10:35:41.02</time>
<name>2199</name>
</trkpt>
<trkpt lat="41.661967" lon="-0.648692">
<ele>427.0</ele>
<speed>11.9</speed>
<course>18.3</course>
<desc>Speed 11.9 km/h Distance 12.09 km</desc>
<time>2011-09-29T10:35:42.02</time>
<name>2200</name>
</trkpt>
<trkpt lat="41.661997" lon="-0.648678">
<ele>427.0</ele>
<speed>11.7</speed>
<course>22.5</course>
<desc>Speed 11.7 km/h Distance 12.09 km</desc>
<time>2011-09-29T10:35:43.01</time>
<name>2201</name>
</trkpt>
<trkpt lat="41.662027" lon="-0.648662">
<ele>427.0</ele>
<speed>12.5</speed>
<course>25.8</course>
<desc>Speed 12.5 km/h Distance 12.10 km</desc>
<time>2011-09-29T10:35:44.02</time>
<name>2202</name>
</trkpt>
<trkpt lat="41.662055" lon="-0.648643">
<ele>427.0</ele>
<speed>11.7</speed>
<course>23.4</course>
<desc>Speed 11.7 km/h Distance 12.10 km</desc>
<time>2011-09-29T10:35:45.01</time>
<name>2203</name>
</trkpt>
<trkpt lat="41.662087" lon="-0.648625">
<ele>426.5</ele>
<speed>13.3</speed>
<course>16.3</course>
<desc>Speed 13.3 km/h Distance 12.10 km</desc>
<time>2011-09-29T10:35:46.01</time>
<name>2204</name>
</trkpt>
<trkpt lat="41.662125" lon="-0.648610">
<ele>426.0</ele>
<speed>14.7</speed>
<course>19.7</course>
<desc>Speed 14.7 km/h Distance 12.11 km</desc>
<time>2011-09-29T10:35:47.01</time>
<name>2205</name>
</trkpt>
<trkpt lat="41.662163" lon="-0.648592">
<ele>426.0</ele>
<speed>16.7</speed>
<course>25.5</course>
<desc>Speed 16.7 km/h Distance 12.11 km</desc>
<time>2011-09-29T10:35:48.01</time>
<name>2206</name>
</trkpt>
<trkpt lat="41.662205" lon="-0.648565">
<ele>426.0</ele>
<speed>18.3</speed>
<course>25.7</course>
<desc>Speed 18.3 km/h Distance 12.12 km</desc>
<time>2011-09-29T10:35:49.01</time>
<name>2207</name>
</trkpt>
<trkpt lat="41.662252" lon="-0.648535">
<ele>425.5</ele>
<speed>20.3</speed>
<course>27.6</course>
<desc>Speed 20.3 km/h Distance 12.12 km</desc>
<time>2011-09-29T10:35:50.02</time>
<name>2208</name>
</trkpt>
<trkpt lat="41.662302" lon="-0.648500">
<ele>425.0</ele>
<speed>22.1</speed>
<course>35.3</course>
<desc>Speed 22.1 km/h Distance 12.13 km</desc>
<time>2011-09-29T10:35:51.72</time>
<name>2209</name>
</trkpt>
<trkpt lat="41.662462" lon="-0.648348">
<ele>423.5</ele>
<speed>27.3</speed>
<course>29.5</course>
<desc>Speed 27.3 km/h Distance 12.15 km</desc>
<time>2011-09-29T10:35:54.01</time>
<name>2210</name>
</trkpt>
<trkpt lat="41.662523" lon="-0.648302">
<ele>423.0</ele>
<speed>28.1</speed>
<course>31.0</course>
<desc>Speed 28.1 km/h Distance 12.16 km</desc>
<time>2011-09-29T10:35:55.01</time>
<name>2211</name>
</trkpt>
<trkpt lat="41.662583" lon="-0.648253">
<ele>423.0</ele>
<speed>27.4</speed>
<course>31.8</course>
<desc>Speed 27.4 km/h Distance 12.17 km</desc>
<time>2011-09-29T10:35:56.01</time>
<name>2212</name>
</trkpt>
<trkpt lat="41.662642" lon="-0.648205">
<ele>423.0</ele>
<speed>26.8</speed>
<course>30.7</course>
<desc>Speed 26.8 km/h Distance 12.18 km</desc>
<time>2011-09-29T10:35:57.00</time>
<name>2213</name>
</trkpt>
<trkpt lat="41.662698" lon="-0.648160">
<ele>423.0</ele>
<speed>26.3</speed>
<course>33.3</course>
<desc>Speed 26.3 km/h Distance 12.18 km</desc>
<time>2011-09-29T10:35:58.00</time>
<name>2214</name>
</trkpt>
<trkpt lat="41.662753" lon="-0.648112">
<ele>423.0</ele>
<speed>25.7</speed>
<course>32.2</course>
<desc>Speed 25.7 km/h Distance 12.19 km</desc>
<time>2011-09-29T10:35:59.00</time>
<name>2215</name>
</trkpt>
<trkpt lat="41.662807" lon="-0.648067">
<ele>423.0</ele>
<speed>25.2</speed>
<course>33.9</course>
<desc>Speed 25.2 km/h Distance 12.20 km</desc>
<time>2011-09-29T10:36:00.00</time>
<name>2216</name>
</trkpt>
<trkpt lat="41.662857" lon="-0.648022">
<ele>423.0</ele>
<speed>24.3</speed>
<course>32.9</course>
<desc>Speed 24.3 km/h Distance 12.20 km</desc>
<time>2011-09-29T10:36:01.45</time>
<name>2217</name>
</trkpt>
<trkpt lat="41.662955" lon="-0.647937">
<ele>423.0</ele>
<speed>22.6</speed>
<course>30.4</course>
<desc>Speed 22.6 km/h Distance 12.22 km</desc>
<time>2011-09-29T10:36:03.00</time>
<name>2218</name>
</trkpt>
<trkpt lat="41.663002" lon="-0.647900">
<ele>423.0</ele>
<speed>21.7</speed>
<course>34.6</course>
<desc>Speed 21.7 km/h Distance 12.22 km</desc>
<time>2011-09-29T10:36:04.00</time>
<name>2219</name>
</trkpt>
<trkpt lat="41.663045" lon="-0.647860">
<ele>423.5</ele>
<speed>21.0</speed>
<course>37.9</course>
<desc>Speed 21.0 km/h Distance 12.23 km</desc>
<time>2011-09-29T10:36:05.00</time>
<name>2220</name>
</trkpt>
<trkpt lat="41.663085" lon="-0.647818">
<ele>423.5</ele>
<speed>20.1</speed>
<course>39.1</course>
<desc>Speed 20.1 km/h Distance 12.23 km</desc>
<time>2011-09-29T10:36:06.00</time>
<name>2221</name>
</trkpt>
<trkpt lat="41.663123" lon="-0.647777">
<ele>423.5</ele>
<speed>19.9</speed>
<course>42.5</course>
<desc>Speed 19.9 km/h Distance 12.24 km</desc>
<time>2011-09-29T10:36:07.00</time>
<name>2222</name>
</trkpt>
<trkpt lat="41.663160" lon="-0.647732">
<ele>423.5</ele>
<speed>19.8</speed>
<course>44.2</course>
<desc>Speed 19.8 km/h Distance 12.25 km</desc>
<time>2011-09-29T10:36:08.37</time>
<name>2223</name>
</trkpt>
<trkpt lat="41.663232" lon="-0.647638">
<ele>423.5</ele>
<speed>19.9</speed>
<course>48.3</course>
<desc>Speed 19.9 km/h Distance 12.26 km</desc>
<time>2011-09-29T10:36:09.99</time>
<name>2224</name>
</trkpt>
<trkpt lat="41.663265" lon="-0.647588">
<ele>423.5</ele>
<speed>19.8</speed>
<course>48.3</course>
<desc>Speed 19.8 km/h Distance 12.26 km</desc>
<time>2011-09-29T10:36:11.20</time>
<name>2225</name>
</trkpt>
<trkpt lat="41.663298" lon="-0.647538">
<ele>423.5</ele>
<speed>19.9</speed>
<course>49.2</course>
<desc>Speed 19.9 km/h Distance 12.27 km</desc>
<time>2011-09-29T10:36:12.00</time>
<name>2226</name>
</trkpt>
<trkpt lat="41.663332" lon="-0.647487">
<ele>423.5</ele>
<speed>20.2</speed>
<course>50.1</course>
<desc>Speed 20.2 km/h Distance 12.27 km</desc>
<time>2011-09-29T10:36:12.99</time>
<name>2227</name>
</trkpt>
<trkpt lat="41.663365" lon="-0.647433">
<ele>423.5</ele>
<speed>20.6</speed>
<course>46.9</course>
<desc>Speed 20.6 km/h Distance 12.28 km</desc>
<time>2011-09-29T10:36:13.99</time>
<name>2228</name>
</trkpt>
<trkpt lat="41.663400" lon="-0.647383">
<ele>423.5</ele>
<speed>20.8</speed>
<course>45.5</course>
<desc>Speed 20.8 km/h Distance 12.28 km</desc>
<time>2011-09-29T10:36:14.99</time>
<name>2229</name>
</trkpt>
<trkpt lat="41.663437" lon="-0.647333">
<ele>424.0</ele>
<speed>20.8</speed>
<course>41.2</course>
<desc>Speed 20.8 km/h Distance 12.29 km</desc>
<time>2011-09-29T10:36:15.99</time>
<name>2230</name>
</trkpt>
<trkpt lat="41.663475" lon="-0.647288">
<ele>424.0</ele>
<speed>20.6</speed>
<course>36.8</course>
<desc>Speed 20.6 km/h Distance 12.30 km</desc>
<time>2011-09-29T10:36:16.99</time>
<name>2231</name>
</trkpt>
<trkpt lat="41.663517" lon="-0.647247">
<ele>424.5</ele>
<speed>20.3</speed>
<course>33.2</course>
<desc>Speed 20.3 km/h Distance 12.30 km</desc>
<time>2011-09-29T10:36:18.11</time>
<name>2232</name>
</trkpt>
<trkpt lat="41.663557" lon="-0.647212">
<ele>425.0</ele>
<speed>19.6</speed>
<course>35.6</course>
<desc>Speed 19.6 km/h Distance 12.31 km</desc>
<time>2011-09-29T10:36:18.99</time>
<name>2233</name>
</trkpt>
<trkpt lat="41.663597" lon="-0.647173">
<ele>425.0</ele>
<speed>18.9</speed>
<course>31.7</course>
<desc>Speed 18.9 km/h Distance 12.31 km</desc>
<time>2011-09-29T10:36:19.99</time>
<name>2234</name>
</trkpt>
<trkpt lat="41.663635" lon="-0.647142">
<ele>425.5</ele>
<speed>18.6</speed>
<course>38.0</course>
<desc>Speed 18.6 km/h Distance 12.32 km</desc>
<time>2011-09-29T10:36:21.00</time>
<name>2235</name>
</trkpt>
<trkpt lat="41.663672" lon="-0.647103">
<ele>425.5</ele>
<speed>18.0</speed>
<course>45.6</course>
<desc>Speed 18.0 km/h Distance 12.32 km</desc>
<time>2011-09-29T10:36:21.99</time>
<name>2236</name>
</trkpt>
<trkpt lat="41.663703" lon="-0.647060">
<ele>425.5</ele>
<speed>18.4</speed>
<course>47.7</course>
<desc>Speed 18.4 km/h Distance 12.33 km</desc>
<time>2011-09-29T10:36:22.99</time>
<name>2237</name>
</trkpt>
<trkpt lat="41.663735" lon="-0.647013">
<ele>426.0</ele>
<speed>18.6</speed>
<course>51.2</course>
<desc>Speed 18.6 km/h Distance 12.33 km</desc>
<time>2011-09-29T10:36:23.99</time>
<name>2238</name>
</trkpt>
<trkpt lat="41.663765" lon="-0.646963">
<ele>426.0</ele>
<speed>19.1</speed>
<course>62.9</course>
<desc>Speed 19.1 km/h Distance 12.34 km</desc>
<time>2011-09-29T10:36:24.98</time>
<name>2239</name>
</trkpt>
<trkpt lat="41.663787" lon="-0.646907">
<ele>426.0</ele>
<speed>19.1</speed>
<course>64.7</course>
<desc>Speed 19.1 km/h Distance 12.34 km</desc>
<time>2011-09-29T10:36:25.98</time>
<name>2240</name>
</trkpt>
<trkpt lat="41.663807" lon="-0.646850">
<ele>426.0</ele>
<speed>18.6</speed>
<course>66.0</course>
<desc>Speed 18.6 km/h Distance 12.35 km</desc>
<time>2011-09-29T10:36:26.98</time>
<name>2241</name>
</trkpt>
<trkpt lat="41.663825" lon="-0.646795">
<ele>426.5</ele>
<speed>18.5</speed>
<course>66.0</course>
<desc>Speed 18.5 km/h Distance 12.35 km</desc>
<time>2011-09-29T10:36:27.98</time>
<name>2242</name>
</trkpt>
<trkpt lat="41.663843" lon="-0.646740">
<ele>426.5</ele>
<speed>18.1</speed>
<course>62.2</course>
<desc>Speed 18.1 km/h Distance 12.36 km</desc>
<time>2011-09-29T10:36:28.98</time>
<name>2243</name>
</trkpt>
<trkpt lat="41.663865" lon="-0.646685">
<ele>426.5</ele>
<speed>18.1</speed>
<course>60.4</course>
<desc>Speed 18.1 km/h Distance 12.36 km</desc>
<time>2011-09-29T10:36:30.64</time>
<name>2244</name>
</trkpt>
<trkpt lat="41.663935" lon="-0.646520">
<ele>426.0</ele>
<speed>19.7</speed>
<course>55.5</course>
<desc>Speed 19.7 km/h Distance 12.38 km</desc>
<time>2011-09-29T10:36:32.98</time>
<name>2245</name>
</trkpt>
<trkpt lat="41.663965" lon="-0.646462">
<ele>425.5</ele>
<speed>21.5</speed>
<course>52.2</course>
<desc>Speed 21.5 km/h Distance 12.39 km</desc>
<time>2011-09-29T10:36:33.98</time>
<name>2246</name>
</trkpt>
<trkpt lat="41.664002" lon="-0.646398">
<ele>425.0</ele>
<speed>23.3</speed>
<course>52.2</course>
<desc>Speed 23.3 km/h Distance 12.39 km</desc>
<time>2011-09-29T10:36:34.98</time>
<name>2247</name>
</trkpt>
<trkpt lat="41.664038" lon="-0.646335">
<ele>424.5</ele>
<speed>24.4</speed>
<course>53.1</course>
<desc>Speed 24.4 km/h Distance 12.40 km</desc>
<time>2011-09-29T10:36:35.97</time>
<name>2248</name>
</trkpt>
<trkpt lat="41.664077" lon="-0.646267">
<ele>424.0</ele>
<speed>25.2</speed>
<course>53.8</course>
<desc>Speed 25.2 km/h Distance 12.41 km</desc>
<time>2011-09-29T10:36:36.98</time>
<name>2249</name>
</trkpt>
<trkpt lat="41.664115" lon="-0.646197">
<ele>424.0</ele>
<speed>25.8</speed>
<course>55.6</course>
<desc>Speed 25.8 km/h Distance 12.41 km</desc>
<time>2011-09-29T10:36:37.97</time>
<name>2250</name>
</trkpt>
<trkpt lat="41.664152" lon="-0.646125">
<ele>423.5</ele>
<speed>26.4</speed>
<course>55.6</course>
<desc>Speed 26.4 km/h Distance 12.42 km</desc>
<time>2011-09-29T10:36:38.97</time>
<name>2251</name>
</trkpt>
<trkpt lat="41.664190" lon="-0.646050">
<ele>423.0</ele>
<speed>27.0</speed>
<course>56.2</course>
<desc>Speed 27.0 km/h Distance 12.43 km</desc>
<time>2011-09-29T10:36:40.39</time>
<name>2252</name>
</trkpt>
<trkpt lat="41.664268" lon="-0.645893">
<ele>422.0</ele>
<speed>28.5</speed>
<course>55.1</course>
<desc>Speed 28.5 km/h Distance 12.44 km</desc>
<time>2011-09-29T10:36:41.97</time>
<name>2253</name>
</trkpt>
<trkpt lat="41.664310" lon="-0.645813">
<ele>421.5</ele>
<speed>29.3</speed>
<course>56.7</course>
<desc>Speed 29.3 km/h Distance 12.45 km</desc>
<time>2011-09-29T10:36:42.97</time>
<name>2254</name>
</trkpt>
<trkpt lat="41.664352" lon="-0.645728">
<ele>421.0</ele>
<speed>29.8</speed>
<course>57.3</course>
<desc>Speed 29.8 km/h Distance 12.46 km</desc>
<time>2011-09-29T10:36:43.97</time>
<name>2255</name>
</trkpt>
<trkpt lat="41.664392" lon="-0.645645">
<ele>421.0</ele>
<speed>30.0</speed>
<course>57.8</course>
<desc>Speed 30.0 km/h Distance 12.47 km</desc>
<time>2011-09-29T10:36:44.96</time>
<name>2256</name>
</trkpt>
<trkpt lat="41.664432" lon="-0.645560">
<ele>421.0</ele>
<speed>29.7</speed>
<course>58.4</course>
<desc>Speed 29.7 km/h Distance 12.48 km</desc>
<time>2011-09-29T10:36:45.97</time>
<name>2257</name>
</trkpt>
<trkpt lat="41.664545" lon="-0.645313">
<ele>420.5</ele>
<speed>28.2</speed>
<course>57.4</course>
<desc>Speed 28.2 km/h Distance 12.50 km</desc>
<time>2011-09-29T10:36:48.97</time>
<name>2258</name>
</trkpt>
<trkpt lat="41.664582" lon="-0.645237">
<ele>420.5</ele>
<speed>27.3</speed>
<course>58.7</course>
<desc>Speed 27.3 km/h Distance 12.51 km</desc>
<time>2011-09-29T10:36:50.53</time>
<name>2259</name>
</trkpt>
<trkpt lat="41.664647" lon="-0.645093">
<ele>421.0</ele>
<speed>24.2</speed>
<course>56.9</course>
<desc>Speed 24.2 km/h Distance 12.52 km</desc>
<time>2011-09-29T10:36:51.96</time>
<name>2260</name>
</trkpt>
<trkpt lat="41.664677" lon="-0.645032">
<ele>421.0</ele>
<speed>21.9</speed>
<course>57.8</course>
<desc>Speed 21.9 km/h Distance 12.53 km</desc>
<time>2011-09-29T10:36:52.96</time>
<name>2261</name>
</trkpt>
<trkpt lat="41.664703" lon="-0.644975">
<ele>421.5</ele>
<speed>20.2</speed>
<course>55.4</course>
<desc>Speed 20.2 km/h Distance 12.53 km</desc>
<time>2011-09-29T10:36:53.96</time>
<name>2262</name>
</trkpt>
<trkpt lat="41.664732" lon="-0.644920">
<ele>421.5</ele>
<speed>19.5</speed>
<course>53.7</course>
<desc>Speed 19.5 km/h Distance 12.54 km</desc>
<time>2011-09-29T10:36:54.96</time>
<name>2263</name>
</trkpt>
<trkpt lat="41.664760" lon="-0.644868">
<ele>421.5</ele>
<speed>19.4</speed>
<course>55.4</course>
<desc>Speed 19.4 km/h Distance 12.55 km</desc>
<time>2011-09-29T10:36:55.96</time>
<name>2264</name>
</trkpt>
<trkpt lat="41.664788" lon="-0.644813">
<ele>421.5</ele>
<speed>19.8</speed>
<course>53.2</course>
<desc>Speed 19.8 km/h Distance 12.55 km</desc>
<time>2011-09-29T10:36:56.96</time>
<name>2265</name>
</trkpt>
<trkpt lat="41.664820" lon="-0.644757">
<ele>421.0</ele>
<speed>21.2</speed>
<course>51.8</course>
<desc>Speed 21.2 km/h Distance 12.56 km</desc>
<time>2011-09-29T10:36:57.96</time>
<name>2266</name>
</trkpt>
<trkpt lat="41.664853" lon="-0.644700">
<ele>421.0</ele>
<speed>22.0</speed>
<course>49.9</course>
<desc>Speed 22.0 km/h Distance 12.56 km</desc>
<time>2011-09-29T10:36:58.96</time>
<name>2267</name>
</trkpt>
<trkpt lat="41.664890" lon="-0.644642">
<ele>421.0</ele>
<speed>22.4</speed>
<course>45.3</course>
<desc>Speed 22.4 km/h Distance 12.57 km</desc>
<time>2011-09-29T10:37:00.29</time>
<name>2268</name>
</trkpt>
<trkpt lat="41.664970" lon="-0.644533">
<ele>420.5</ele>
<speed>22.5</speed>
<course>37.9</course>
<desc>Speed 22.5 km/h Distance 12.58 km</desc>
<time>2011-09-29T10:37:01.96</time>
<name>2269</name>
</trkpt>
<trkpt lat="41.665008" lon="-0.644493">
<ele>420.0</ele>
<speed>18.9</speed>
<course>55.1</course>
<desc>Speed 18.9 km/h Distance 12.59 km</desc>
<time>2011-09-29T10:37:02.95</time>
<name>2270</name>
</trkpt>
<trkpt lat="41.665028" lon="-0.644455">
<ele>420.0</ele>
<speed>14.2</speed>
<course>61.3</course>
<desc>Speed 14.2 km/h Distance 12.59 km</desc>
<time>2011-09-29T10:37:03.95</time>
<name>2271</name>
</trkpt>
<trkpt lat="41.665043" lon="-0.644418">
<ele>420.0</ele>
<speed>12.4</speed>
<course>32.5</course>
<desc>Speed 12.4 km/h Distance 12.59 km</desc>
<time>2011-09-29T10:37:04.95</time>
<name>2272</name>
</trkpt>
<trkpt lat="41.665088" lon="-0.644380">
<ele>419.5</ele>
<speed>8.4</speed>
<course>36.7</course>
<desc>Speed 8.4 km/h Distance 12.60 km</desc>
<time>2011-09-29T10:37:07.22</time>
<name>2273</name>
</trkpt>
<trkpt lat="41.665110" lon="-0.644358">
<ele>420.0</ele>
<speed>10.3</speed>
<course>36.8</course>
<desc>Speed 10.3 km/h Distance 12.60 km</desc>
<time>2011-09-29T10:37:08.24</time>
<name>2274</name>
</trkpt>
<trkpt lat="41.665133" lon="-0.644335">
<ele>420.0</ele>
<speed>11.8</speed>
<course>35.0</course>
<desc>Speed 11.8 km/h Distance 12.61 km</desc>
<time>2011-09-29T10:37:09.22</time>
<name>2275</name>
</trkpt>
<trkpt lat="41.665160" lon="-0.644310">
<ele>420.0</ele>
<speed>13.0</speed>
<course>36.8</course>
<desc>Speed 13.0 km/h Distance 12.61 km</desc>
<time>2011-09-29T10:37:10.21</time>
<name>2276</name>
</trkpt>
<trkpt lat="41.665187" lon="-0.644283">
<ele>420.0</ele>
<speed>13.6</speed>
<course>43.0</course>
<desc>Speed 13.6 km/h Distance 12.61 km</desc>
<time>2011-09-29T10:37:11.21</time>
<name>2277</name>
</trkpt>
<trkpt lat="41.665213" lon="-0.644250">
<ele>420.0</ele>
<speed>14.3</speed>
<course>38.3</course>
<desc>Speed 14.3 km/h Distance 12.62 km</desc>
<time>2011-09-29T10:37:12.21</time>
<name>2278</name>
</trkpt>
<trkpt lat="41.665242" lon="-0.644220">
<ele>420.0</ele>
<speed>14.4</speed>
<course>33.8</course>
<desc>Speed 14.4 km/h Distance 12.62 km</desc>
<time>2011-09-29T10:37:13.21</time>
<name>2279</name>
</trkpt>
<trkpt lat="41.665273" lon="-0.644192">
<ele>420.0</ele>
<speed>15.2</speed>
<course>32.6</course>
<desc>Speed 15.2 km/h Distance 12.63 km</desc>
<time>2011-09-29T10:37:14.21</time>
<name>2280</name>
</trkpt>
<trkpt lat="41.665308" lon="-0.644162">
<ele>420.0</ele>
<speed>16.1</speed>
<course>34.2</course>
<desc>Speed 16.1 km/h Distance 12.63 km</desc>
<time>2011-09-29T10:37:15.21</time>
<name>2281</name>
</trkpt>
<trkpt lat="41.665345" lon="-0.644128">
<ele>420.0</ele>
<speed>17.3</speed>
<course>34.3</course>
<desc>Speed 17.3 km/h Distance 12.64 km</desc>
<time>2011-09-29T10:37:16.21</time>
<name>2282</name>
</trkpt>
<trkpt lat="41.665383" lon="-0.644093">
<ele>420.5</ele>
<speed>18.0</speed>
<course>31.4</course>
<desc>Speed 18.0 km/h Distance 12.64 km</desc>
<time>2011-09-29T10:37:17.98</time>
<name>2283</name>
</trkpt>
<trkpt lat="41.665502" lon="-0.643997">
<ele>420.5</ele>
<speed>18.9</speed>
<course>30.8</course>
<desc>Speed 18.9 km/h Distance 12.66 km</desc>
<time>2011-09-29T10:37:20.21</time>
<name>2284</name>
</trkpt>
<trkpt lat="41.665543" lon="-0.643963">
<ele>420.5</ele>
<speed>19.3</speed>
<course>32.1</course>
<desc>Speed 19.3 km/h Distance 12.66 km</desc>
<time>2011-09-29T10:37:21.21</time>
<name>2285</name>
</trkpt>
<trkpt lat="41.665585" lon="-0.643928">
<ele>420.5</ele>
<speed>19.5</speed>
<course>31.1</course>
<desc>Speed 19.5 km/h Distance 12.67 km</desc>
<time>2011-09-29T10:37:22.21</time>
<name>2286</name>
</trkpt>
<trkpt lat="41.665628" lon="-0.643893">
<ele>420.5</ele>
<speed>19.6</speed>
<course>31.1</course>
<desc>Speed 19.6 km/h Distance 12.67 km</desc>
<time>2011-09-29T10:37:23.20</time>
<name>2287</name>
</trkpt>
<trkpt lat="41.665672" lon="-0.643858">
<ele>420.5</ele>
<speed>20.1</speed>
<course>29.9</course>
<desc>Speed 20.1 km/h Distance 12.68 km</desc>
<time>2011-09-29T10:37:24.20</time>
<name>2288</name>
</trkpt>
<trkpt lat="41.665715" lon="-0.643825">
<ele>420.5</ele>
<speed>20.0</speed>
<course>31.1</course>
<desc>Speed 20.0 km/h Distance 12.68 km</desc>
<time>2011-09-29T10:37:25.20</time>
<name>2289</name>
</trkpt>
<trkpt lat="41.665758" lon="-0.643790">
<ele>420.5</ele>
<speed>20.2</speed>
<course>31.1</course>
<desc>Speed 20.2 km/h Distance 12.69 km</desc>
<time>2011-09-29T10:37:26.20</time>
<name>2290</name>
</trkpt>
<trkpt lat="41.665802" lon="-0.643755">
<ele>420.5</ele>
<speed>20.1</speed>
<course>29.4</course>
<desc>Speed 20.1 km/h Distance 12.70 km</desc>
<time>2011-09-29T10:37:27.71</time>
<name>2291</name>
</trkpt>
<trkpt lat="41.665890" lon="-0.643688">
<ele>421.0</ele>
<speed>19.5</speed>
<course>32.1</course>
<desc>Speed 19.5 km/h Distance 12.71 km</desc>
<time>2011-09-29T10:37:29.20</time>
<name>2292</name>
</trkpt>
<trkpt lat="41.665932" lon="-0.643653">
<ele>421.0</ele>
<speed>19.5</speed>
<course>30.9</course>
<desc>Speed 19.5 km/h Distance 12.71 km</desc>
<time>2011-09-29T10:37:30.20</time>
<name>2293</name>
</trkpt>
<trkpt lat="41.665973" lon="-0.643620">
<ele>421.0</ele>
<speed>19.4</speed>
<course>28.6</course>
<desc>Speed 19.4 km/h Distance 12.72 km</desc>
<time>2011-09-29T10:37:31.20</time>
<name>2294</name>
</trkpt>
<trkpt lat="41.666017" lon="-0.643588">
<ele>421.5</ele>
<speed>19.4</speed>
<course>29.9</course>
<desc>Speed 19.4 km/h Distance 12.72 km</desc>
<time>2011-09-29T10:37:32.20</time>
<name>2295</name>
</trkpt>
<trkpt lat="41.666060" lon="-0.643555">
<ele>421.5</ele>
<speed>19.4</speed>
<course>29.9</course>
<desc>Speed 19.4 km/h Distance 12.73 km</desc>
<time>2011-09-29T10:37:33.20</time>
<name>2296</name>
</trkpt>
<trkpt lat="41.666103" lon="-0.643522">
<ele>421.5</ele>
<speed>19.5</speed>
<course>29.9</course>
<desc>Speed 19.5 km/h Distance 12.73 km</desc>
<time>2011-09-29T10:37:34.20</time>
<name>2297</name>
</trkpt>
<trkpt lat="41.666147" lon="-0.643488">
<ele>421.5</ele>
<speed>19.7</speed>
<course>32.1</course>
<desc>Speed 19.7 km/h Distance 12.74 km</desc>
<time>2011-09-29T10:37:35.20</time>
<name>2298</name>
</trkpt>
<trkpt lat="41.666188" lon="-0.643453">
<ele>422.0</ele>
<speed>19.3</speed>
<course>28.3</course>
<desc>Speed 19.3 km/h Distance 12.75 km</desc>
<time>2011-09-29T10:37:36.20</time>
<name>2299</name>
</trkpt>
<trkpt lat="41.666230" lon="-0.643423">
<ele>422.0</ele>
<speed>19.1</speed>
<course>29.6</course>
<desc>Speed 19.1 km/h Distance 12.75 km</desc>
<time>2011-09-29T10:37:37.45</time>
<name>2300</name>
</trkpt>
<trkpt lat="41.666313" lon="-0.643360">
<ele>422.0</ele>
<speed>19.3</speed>
<course>29.6</course>
<desc>Speed 19.3 km/h Distance 12.76 km</desc>
<time>2011-09-29T10:37:39.19</time>
<name>2301</name>
</trkpt>
<trkpt lat="41.666355" lon="-0.643328">
<ele>422.0</ele>
<speed>19.3</speed>
<course>32.1</course>
<desc>Speed 19.3 km/h Distance 12.77 km</desc>
<time>2011-09-29T10:37:40.20</time>
<name>2302</name>
</trkpt>
<trkpt lat="41.666397" lon="-0.643293">
<ele>422.5</ele>
<speed>19.2</speed>
<course>30.9</course>
<desc>Speed 19.2 km/h Distance 12.77 km</desc>
<time>2011-09-29T10:37:41.19</time>
<name>2303</name>
</trkpt>
<trkpt lat="41.666438" lon="-0.643260">
<ele>422.5</ele>
<speed>19.1</speed>
<course>29.6</course>
<desc>Speed 19.1 km/h Distance 12.78 km</desc>
<time>2011-09-29T10:37:42.19</time>
<name>2304</name>
</trkpt>
<trkpt lat="41.666480" lon="-0.643228">
<ele>422.5</ele>
<speed>19.2</speed>
<course>30.9</course>
<desc>Speed 19.2 km/h Distance 12.78 km</desc>
<time>2011-09-29T10:37:43.19</time>
<name>2305</name>
</trkpt>
<trkpt lat="41.666522" lon="-0.643195">
<ele>422.5</ele>
<speed>19.4</speed>
<course>30.8</course>
<desc>Speed 19.4 km/h Distance 12.79 km</desc>
<time>2011-09-29T10:37:44.38</time>
<name>2306</name>
</trkpt>
<trkpt lat="41.666563" lon="-0.643162">
<ele>423.0</ele>
<speed>19.7</speed>
<course>29.9</course>
<desc>Speed 19.7 km/h Distance 12.79 km</desc>
<time>2011-09-29T10:37:45.19</time>
<name>2307</name>
</trkpt>
<trkpt lat="41.666607" lon="-0.643128">
<ele>423.0</ele>
<speed>19.9</speed>
<course>28.6</course>
<desc>Speed 19.9 km/h Distance 12.80 km</desc>
<time>2011-09-29T10:37:46.19</time>
<name>2308</name>
</trkpt>
<trkpt lat="41.666650" lon="-0.643097">
<ele>423.0</ele>
<speed>19.9</speed>
<course>31.1</course>
<desc>Speed 19.9 km/h Distance 12.80 km</desc>
<time>2011-09-29T10:37:47.19</time>
<name>2309</name>
</trkpt>
<trkpt lat="41.666693" lon="-0.643062">
<ele>423.0</ele>
<speed>20.1</speed>
<course>32.3</course>
<desc>Speed 20.1 km/h Distance 12.81 km</desc>
<time>2011-09-29T10:37:48.19</time>
<name>2310</name>
</trkpt>
<trkpt lat="41.666737" lon="-0.643025">
<ele>423.0</ele>
<speed>20.4</speed>
<course>30.2</course>
<desc>Speed 20.4 km/h Distance 12.82 km</desc>
<time>2011-09-29T10:37:49.19</time>
<name>2311</name>
</trkpt>
<trkpt lat="41.666782" lon="-0.642990">
<ele>423.0</ele>
<speed>20.5</speed>
<course>29.0</course>
<desc>Speed 20.5 km/h Distance 12.82 km</desc>
<time>2011-09-29T10:37:50.19</time>
<name>2312</name>
</trkpt>
<trkpt lat="41.666827" lon="-0.642957">
<ele>423.5</ele>
<speed>20.4</speed>
<course>29.0</course>
<desc>Speed 20.4 km/h Distance 12.83 km</desc>
<time>2011-09-29T10:37:51.19</time>
<name>2313</name>
</trkpt>
<trkpt lat="41.666872" lon="-0.642923">
<ele>423.5</ele>
<speed>20.6</speed>
<course>28.9</course>
<desc>Speed 20.6 km/h Distance 12.83 km</desc>
<time>2011-09-29T10:37:52.18</time>
<name>2314</name>
</trkpt>
<trkpt lat="41.666917" lon="-0.642890">
<ele>424.0</ele>
<speed>20.4</speed>
<course>29.3</course>
<desc>Speed 20.4 km/h Distance 12.84 km</desc>
<time>2011-09-29T10:37:53.18</time>
<name>2315</name>
</trkpt>
<trkpt lat="41.666963" lon="-0.642855">
<ele>424.0</ele>
<speed>20.7</speed>
<course>28.1</course>
<desc>Speed 20.7 km/h Distance 12.84 km</desc>
<time>2011-09-29T10:37:54.18</time>
<name>2316</name>
</trkpt>
<trkpt lat="41.667010" lon="-0.642822">
<ele>424.5</ele>
<speed>20.6</speed>
<course>32.3</course>
<desc>Speed 20.6 km/h Distance 12.85 km</desc>
<time>2011-09-29T10:37:55.18</time>
<name>2317</name>
</trkpt>
<trkpt lat="41.667053" lon="-0.642785">
<ele>424.5</ele>
<speed>20.6</speed>
<course>30.2</course>
<desc>Speed 20.6 km/h Distance 12.86 km</desc>
<time>2011-09-29T10:37:56.92</time>
<name>2318</name>
</trkpt>
<trkpt lat="41.667188" lon="-0.642680">
<ele>425.0</ele>
<speed>20.4</speed>
<course>32.3</course>
<desc>Speed 20.4 km/h Distance 12.87 km</desc>
<time>2011-09-29T10:37:59.18</time>
<name>2319</name>
</trkpt>
<trkpt lat="41.667232" lon="-0.642643">
<ele>425.0</ele>
<speed>20.3</speed>
<course>29.3</course>
<desc>Speed 20.3 km/h Distance 12.88 km</desc>
<time>2011-09-29T10:38:00.18</time>
<name>2320</name>
</trkpt>
<trkpt lat="41.667278" lon="-0.642608">
<ele>425.5</ele>
<speed>20.5</speed>
<course>31.1</course>
<desc>Speed 20.5 km/h Distance 12.89 km</desc>
<time>2011-09-29T10:38:01.18</time>
<name>2321</name>
</trkpt>
<trkpt lat="41.667322" lon="-0.642573">
<ele>425.5</ele>
<speed>20.2</speed>
<course>32.3</course>
<desc>Speed 20.2 km/h Distance 12.89 km</desc>
<time>2011-09-29T10:38:02.18</time>
<name>2322</name>
</trkpt>
<trkpt lat="41.667365" lon="-0.642537">
<ele>425.5</ele>
<speed>20.0</speed>
<course>27.7</course>
<desc>Speed 20.0 km/h Distance 12.90 km</desc>
<time>2011-09-29T10:38:03.18</time>
<name>2323</name>
</trkpt>
<trkpt lat="41.667410" lon="-0.642505">
<ele>425.5</ele>
<speed>20.0</speed>
<course>28.9</course>
<desc>Speed 20.0 km/h Distance 12.90 km</desc>
<time>2011-09-29T10:38:04.18</time>
<name>2324</name>
</trkpt>
<trkpt lat="41.667455" lon="-0.642472">
<ele>425.5</ele>
<speed>19.9</speed>
<course>31.1</course>
<desc>Speed 19.9 km/h Distance 12.91 km</desc>
<time>2011-09-29T10:38:05.18</time>
<name>2325</name>
</trkpt>
<trkpt lat="41.667498" lon="-0.642437">
<ele>426.0</ele>
<speed>20.3</speed>
<course>31.1</course>
<desc>Speed 20.3 km/h Distance 12.91 km</desc>
<time>2011-09-29T10:38:06.65</time>
<name>2326</name>
</trkpt>
<trkpt lat="41.667585" lon="-0.642367">
<ele>426.0</ele>
<speed>20.1</speed>
<course>31.1</course>
<desc>Speed 20.1 km/h Distance 12.93 km</desc>
<time>2011-09-29T10:38:08.18</time>
<name>2327</name>
</trkpt>
<trkpt lat="41.667628" lon="-0.642332">
<ele>426.0</ele>
<speed>19.6</speed>
<course>27.7</course>
<desc>Speed 19.6 km/h Distance 12.93 km</desc>
<time>2011-09-29T10:38:09.18</time>
<name>2328</name>
</trkpt>
<trkpt lat="41.667673" lon="-0.642300">
<ele>426.0</ele>
<speed>19.8</speed>
<course>29.8</course>
<desc>Speed 19.8 km/h Distance 12.94 km</desc>
<time>2011-09-29T10:38:10.18</time>
<name>2329</name>
</trkpt>
<trkpt lat="41.667717" lon="-0.642267">
<ele>426.5</ele>
<speed>19.8</speed>
<course>32.1</course>
<desc>Speed 19.8 km/h Distance 12.94 km</desc>
<time>2011-09-29T10:38:11.17</time>
<name>2330</name>
</trkpt>
<trkpt lat="41.667758" lon="-0.642232">
<ele>426.5</ele>
<speed>19.3</speed>
<course>30.6</course>
<desc>Speed 19.3 km/h Distance 12.95 km</desc>
<time>2011-09-29T10:38:12.17</time>
<name>2331</name>
</trkpt>
<trkpt lat="41.667798" lon="-0.642200">
<ele>426.5</ele>
<speed>18.8</speed>
<course>28.3</course>
<desc>Speed 18.8 km/h Distance 12.95 km</desc>
<time>2011-09-29T10:38:13.17</time>
<name>2332</name>
</trkpt>
<trkpt lat="41.667840" lon="-0.642170">
<ele>427.0</ele>
<speed>18.3</speed>
<course>28.3</course>
<desc>Speed 18.3 km/h Distance 12.96 km</desc>
<time>2011-09-29T10:38:14.17</time>
<name>2333</name>
</trkpt>
<trkpt lat="41.667882" lon="-0.642140">
<ele>427.0</ele>
<speed>18.6</speed>
<course>29.3</course>
<desc>Speed 18.6 km/h Distance 12.96 km</desc>
<time>2011-09-29T10:38:15.17</time>
<name>2334</name>
</trkpt>
<trkpt lat="41.667922" lon="-0.642110">
<ele>427.5</ele>
<speed>18.3</speed>
<course>30.6</course>
<desc>Speed 18.3 km/h Distance 12.97 km</desc>
<time>2011-09-29T10:38:16.39</time>
<name>2335</name>
</trkpt>
<trkpt lat="41.667962" lon="-0.642078">
<ele>427.5</ele>
<speed>18.7</speed>
<course>29.6</course>
<desc>Speed 18.7 km/h Distance 12.97 km</desc>
<time>2011-09-29T10:38:17.17</time>
<name>2336</name>
</trkpt>
<trkpt lat="41.668003" lon="-0.642047">
<ele>428.0</ele>
<speed>18.6</speed>
<course>30.6</course>
<desc>Speed 18.6 km/h Distance 12.98 km</desc>
<time>2011-09-29T10:38:18.17</time>
<name>2337</name>
</trkpt>
<trkpt lat="41.668043" lon="-0.642015">
<ele>428.0</ele>
<speed>18.4</speed>
<course>29.3</course>
<desc>Speed 18.4 km/h Distance 12.98 km</desc>
<time>2011-09-29T10:38:19.17</time>
<name>2338</name>
</trkpt>
<trkpt lat="41.668083" lon="-0.641985">
<ele>428.5</ele>
<speed>18.2</speed>
<course>30.3</course>
<desc>Speed 18.2 km/h Distance 12.99 km</desc>
<time>2011-09-29T10:38:20.16</time>
<name>2339</name>
</trkpt>
<trkpt lat="41.668122" lon="-0.641955">
<ele>429.0</ele>
<speed>18.2</speed>
<course>30.6</course>
<desc>Speed 18.2 km/h Distance 12.99 km</desc>
<time>2011-09-29T10:38:21.17</time>
<name>2340</name>
</trkpt>
<trkpt lat="41.668162" lon="-0.641923">
<ele>429.0</ele>
<speed>18.0</speed>
<course>30.3</course>
<desc>Speed 18.0 km/h Distance 13.00 km</desc>
<time>2011-09-29T10:38:22.16</time>
<name>2341</name>
</trkpt>
<trkpt lat="41.668200" lon="-0.641893">
<ele>429.5</ele>
<speed>17.8</speed>
<course>30.3</course>
<desc>Speed 17.8 km/h Distance 13.00 km</desc>
<time>2011-09-29T10:38:23.32</time>
<name>2342</name>
</trkpt>
<trkpt lat="41.668238" lon="-0.641863">
<ele>430.0</ele>
<speed>17.7</speed>
<course>31.4</course>
<desc>Speed 17.7 km/h Distance 13.01 km</desc>
<time>2011-09-29T10:38:24.16</time>
<name>2343</name>
</trkpt>
<trkpt lat="41.668275" lon="-0.641833">
<ele>430.0</ele>
<speed>17.2</speed>
<course>30.0</course>
<desc>Speed 17.2 km/h Distance 13.01 km</desc>
<time>2011-09-29T10:38:25.16</time>
<name>2344</name>
</trkpt>
<trkpt lat="41.668312" lon="-0.641805">
<ele>430.5</ele>
<speed>16.7</speed>
<course>25.4</course>
<desc>Speed 16.7 km/h Distance 13.02 km</desc>
<time>2011-09-29T10:38:26.17</time>
<name>2345</name>
</trkpt>
<trkpt lat="41.668348" lon="-0.641782">
<ele>431.0</ele>
<speed>16.1</speed>
<course>29.7</course>
<desc>Speed 16.1 km/h Distance 13.02 km</desc>
<time>2011-09-29T10:38:27.16</time>
<name>2346</name>
</trkpt>
<trkpt lat="41.668383" lon="-0.641755">
<ele>431.0</ele>
<speed>15.6</speed>
<course>30.5</course>
<desc>Speed 15.6 km/h Distance 13.03 km</desc>
<time>2011-09-29T10:38:28.16</time>
<name>2347</name>
</trkpt>
<trkpt lat="41.668415" lon="-0.641730">
<ele>431.5</ele>
<speed>14.9</speed>
<course>30.5</course>
<desc>Speed 14.9 km/h Distance 13.03 km</desc>
<time>2011-09-29T10:38:29.16</time>
<name>2348</name>
</trkpt>
<trkpt lat="41.668447" lon="-0.641705">
<ele>432.0</ele>
<speed>14.4</speed>
<course>30.5</course>
<desc>Speed 14.4 km/h Distance 13.04 km</desc>
<time>2011-09-29T10:38:30.16</time>
<name>2349</name>
</trkpt>
<trkpt lat="41.668478" lon="-0.641680">
<ele>432.0</ele>
<speed>14.3</speed>
<course>31.9</course>
<desc>Speed 14.3 km/h Distance 13.04 km</desc>
<time>2011-09-29T10:38:31.15</time>
<name>2350</name>
</trkpt>
<trkpt lat="41.668508" lon="-0.641655">
<ele>432.5</ele>
<speed>14.4</speed>
<course>32.2</course>
<desc>Speed 14.4 km/h Distance 13.04 km</desc>
<time>2011-09-29T10:38:32.15</time>
<name>2351</name>
</trkpt>
<trkpt lat="41.668540" lon="-0.641628">
<ele>433.0</ele>
<speed>15.0</speed>
<course>27.6</course>
<desc>Speed 15.0 km/h Distance 13.05 km</desc>
<time>2011-09-29T10:38:33.15</time>
<name>2352</name>
</trkpt>
<trkpt lat="41.668573" lon="-0.641605">
<ele>433.5</ele>
<speed>14.7</speed>
<course>33.7</course>
<desc>Speed 14.7 km/h Distance 13.05 km</desc>
<time>2011-09-29T10:38:34.15</time>
<name>2353</name>
</trkpt>
<trkpt lat="41.668605" lon="-0.641577">
<ele>433.5</ele>
<speed>14.9</speed>
<course>35.2</course>
<desc>Speed 14.9 km/h Distance 13.06 km</desc>
<time>2011-09-29T10:38:35.86</time>
<name>2354</name>
</trkpt>
<trkpt lat="41.668663" lon="-0.641522">
<ele>434.5</ele>
<speed>13.9</speed>
<course>33.4</course>
<desc>Speed 13.9 km/h Distance 13.06 km</desc>
<time>2011-09-29T10:38:37.15</time>
<name>2355</name>
</trkpt>
<trkpt lat="41.668692" lon="-0.641497">
<ele>434.5</ele>
<speed>13.1</speed>
<course>31.2</course>
<desc>Speed 13.1 km/h Distance 13.07 km</desc>
<time>2011-09-29T10:38:38.15</time>
<name>2356</name>
</trkpt>
<trkpt lat="41.668718" lon="-0.641475">
<ele>435.0</ele>
<speed>12.7</speed>
<course>31.6</course>
<desc>Speed 12.7 km/h Distance 13.07 km</desc>
<time>2011-09-29T10:38:39.15</time>
<name>2357</name>
</trkpt>
<trkpt lat="41.668747" lon="-0.641452">
<ele>435.5</ele>
<speed>12.7</speed>
<course>31.6</course>
<desc>Speed 12.7 km/h Distance 13.08 km</desc>
<time>2011-09-29T10:38:40.15</time>
<name>2358</name>
</trkpt>
<trkpt lat="41.668775" lon="-0.641428">
<ele>435.5</ele>
<speed>12.8</speed>
<course>31.2</course>
<desc>Speed 12.8 km/h Distance 13.08 km</desc>
<time>2011-09-29T10:38:41.15</time>
<name>2359</name>
</trkpt>
<trkpt lat="41.668802" lon="-0.641407">
<ele>436.0</ele>
<speed>12.9</speed>
<course>33.2</course>
<desc>Speed 12.9 km/h Distance 13.08 km</desc>
<time>2011-09-29T10:38:42.14</time>
<name>2360</name>
</trkpt>
<trkpt lat="41.668828" lon="-0.641383">
<ele>436.5</ele>
<speed>12.7</speed>
<course>33.2</course>
<desc>Speed 12.7 km/h Distance 13.09 km</desc>
<time>2011-09-29T10:38:43.14</time>
<name>2361</name>
</trkpt>
<trkpt lat="41.668855" lon="-0.641360">
<ele>437.0</ele>
<speed>12.4</speed>
<course>27.8</course>
<desc>Speed 12.4 km/h Distance 13.09 km</desc>
<time>2011-09-29T10:38:44.15</time>
<name>2362</name>
</trkpt>
<trkpt lat="41.668883" lon="-0.641340">
<ele>437.0</ele>
<speed>12.6</speed>
<course>31.2</course>
<desc>Speed 12.6 km/h Distance 13.09 km</desc>
<time>2011-09-29T10:38:45.59</time>
<name>2363</name>
</trkpt>
<trkpt lat="41.668910" lon="-0.641318">
<ele>437.5</ele>
<speed>12.4</speed>
<course>28.5</course>
<desc>Speed 12.4 km/h Distance 13.10 km</desc>
<time>2011-09-29T10:38:46.45</time>
<name>2364</name>
</trkpt>
<trkpt lat="41.668965" lon="-0.641278">
<ele>438.5</ele>
<speed>12.3</speed>
<course>27.7</course>
<desc>Speed 12.3 km/h Distance 13.10 km</desc>
<time>2011-09-29T10:38:48.14</time>
<name>2365</name>
</trkpt>
<trkpt lat="41.668993" lon="-0.641258">
<ele>438.5</ele>
<speed>12.5</speed>
<course>29.2</course>
<desc>Speed 12.5 km/h Distance 13.11 km</desc>
<time>2011-09-29T10:38:49.14</time>
<name>2366</name>
</trkpt>
<trkpt lat="41.669020" lon="-0.641238">
<ele>439.0</ele>
<speed>12.6</speed>
<course>27.8</course>
<desc>Speed 12.6 km/h Distance 13.11 km</desc>
<time>2011-09-29T10:38:50.14</time>
<name>2367</name>
</trkpt>
<trkpt lat="41.669048" lon="-0.641218">
<ele>439.5</ele>
<speed>12.5</speed>
<course>25.8</course>
<desc>Speed 12.5 km/h Distance 13.11 km</desc>
<time>2011-09-29T10:38:51.14</time>
<name>2368</name>
</trkpt>
<trkpt lat="41.669077" lon="-0.641200">
<ele>440.0</ele>
<speed>12.7</speed>
<course>16.8</course>
<desc>Speed 12.7 km/h Distance 13.12 km</desc>
<time>2011-09-29T10:38:52.52</time>
<name>2369</name>
</trkpt>
<trkpt lat="41.669138" lon="-0.641175">
<ele>440.5</ele>
<speed>12.7</speed>
<course>15.4</course>
<desc>Speed 12.7 km/h Distance 13.12 km</desc>
<time>2011-09-29T10:38:54.14</time>
<name>2370</name>
</trkpt>
<trkpt lat="41.669170" lon="-0.641163">
<ele>441.0</ele>
<speed>13.0</speed>
<course>22.6</course>
<desc>Speed 13.0 km/h Distance 13.13 km</desc>
<time>2011-09-29T10:38:55.32</time>
<name>2371</name>
</trkpt>
<trkpt lat="41.669200" lon="-0.641147">
<ele>441.5</ele>
<speed>12.9</speed>
<course>19.5</course>
<desc>Speed 12.9 km/h Distance 13.13 km</desc>
<time>2011-09-29T10:38:56.13</time>
<name>2372</name>
</trkpt>
<trkpt lat="41.669232" lon="-0.641132">
<ele>441.5</ele>
<speed>13.0</speed>
<course>17.5</course>
<desc>Speed 13.0 km/h Distance 13.14 km</desc>
<time>2011-09-29T10:38:57.13</time>
<name>2373</name>
</trkpt>
<trkpt lat="41.669263" lon="-0.641118">
<ele>442.0</ele>
<speed>12.8</speed>
<course>18.4</course>
<desc>Speed 12.8 km/h Distance 13.14 km</desc>
<time>2011-09-29T10:38:58.13</time>
<name>2374</name>
</trkpt>
<trkpt lat="41.669293" lon="-0.641105">
<ele>442.0</ele>
<speed>12.6</speed>
<course>11.7</course>
<desc>Speed 12.6 km/h Distance 13.14 km</desc>
<time>2011-09-29T10:38:59.13</time>
<name>2375</name>
</trkpt>
<trkpt lat="41.669323" lon="-0.641097">
<ele>442.5</ele>
<speed>11.9</speed>
<course>7.4</course>
<desc>Speed 11.9 km/h Distance 13.15 km</desc>
<time>2011-09-29T10:39:00.13</time>
<name>2376</name>
</trkpt>
<trkpt lat="41.669352" lon="-0.641092">
<ele>442.5</ele>
<speed>11.7</speed>
<course>357.7</course>
<desc>Speed 11.7 km/h Distance 13.15 km</desc>
<time>2011-09-29T10:39:01.13</time>
<name>2377</name>
</trkpt>
<trkpt lat="41.669383" lon="-0.641093">
<ele>442.5</ele>
<speed>11.9</speed>
<course>355.0</course>
<desc>Speed 11.9 km/h Distance 13.15 km</desc>
<time>2011-09-29T10:39:02.26</time>
<name>2378</name>
</trkpt>
<trkpt lat="41.669413" lon="-0.641097">
<ele>442.5</ele>
<speed>12.1</speed>
<course>7.1</course>
<desc>Speed 12.1 km/h Distance 13.16 km</desc>
<time>2011-09-29T10:39:03.15</time>
<name>2379</name>
</trkpt>
<trkpt lat="41.669443" lon="-0.641092">
<ele>443.0</ele>
<speed>11.8</speed>
<course>0.9</course>
<desc>Speed 11.8 km/h Distance 13.16 km</desc>
<time>2011-09-29T10:39:04.14</time>
<name>2380</name>
</trkpt>
<trkpt lat="41.669473" lon="-0.641092">
<ele>443.0</ele>
<speed>12.0</speed>
<course>351.0</course>
<desc>Speed 12.0 km/h Distance 13.16 km</desc>
<time>2011-09-29T10:39:05.14</time>
<name>2381</name>
</trkpt>
<trkpt lat="41.669505" lon="-0.641098">
<ele>443.0</ele>
<speed>12.5</speed>
<course>353.7</course>
<desc>Speed 12.5 km/h Distance 13.17 km</desc>
<time>2011-09-29T10:39:06.14</time>
<name>2382</name>
</trkpt>
<trkpt lat="41.669538" lon="-0.641103">
<ele>443.0</ele>
<speed>13.2</speed>
<course>355.9</course>
<desc>Speed 13.2 km/h Distance 13.17 km</desc>
<time>2011-09-29T10:39:07.14</time>
<name>2383</name>
</trkpt>
<trkpt lat="41.669573" lon="-0.641107">
<ele>442.5</ele>
<speed>13.8</speed>
<course>353.9</course>
<desc>Speed 13.8 km/h Distance 13.17 km</desc>
<time>2011-09-29T10:39:08.13</time>
<name>2384</name>
</trkpt>
<trkpt lat="41.669608" lon="-0.641112">
<ele>442.5</ele>
<speed>14.0</speed>
<course>348.6</course>
<desc>Speed 14.0 km/h Distance 13.18 km</desc>
<time>2011-09-29T10:39:09.14</time>
<name>2385</name>
</trkpt>
<trkpt lat="41.669645" lon="-0.641122">
<ele>442.5</ele>
<speed>14.1</speed>
<course>344.0</course>
<desc>Speed 14.1 km/h Distance 13.18 km</desc>
<time>2011-09-29T10:39:10.12</time>
<name>2386</name>
</trkpt>
<trkpt lat="41.669680" lon="-0.641135">
<ele>442.5</ele>
<speed>14.1</speed>
<course>339.5</course>
<desc>Speed 14.1 km/h Distance 13.19 km</desc>
<time>2011-09-29T10:39:11.13</time>
<name>2387</name>
</trkpt>
<trkpt lat="41.669713" lon="-0.641152">
<ele>442.5</ele>
<speed>13.9</speed>
<course>349.9</course>
<desc>Speed 13.9 km/h Distance 13.19 km</desc>
<time>2011-09-29T10:39:12.12</time>
<name>2388</name>
</trkpt>
<trkpt lat="41.669748" lon="-0.641160">
<ele>442.5</ele>
<speed>13.8</speed>
<course>345.4</course>
<desc>Speed 13.8 km/h Distance 13.19 km</desc>
<time>2011-09-29T10:39:13.13</time>
<name>2389</name>
</trkpt>
<trkpt lat="41.669782" lon="-0.641172">
<ele>442.0</ele>
<speed>13.6</speed>
<course>341.4</course>
<desc>Speed 13.6 km/h Distance 13.20 km</desc>
<time>2011-09-29T10:39:14.82</time>
<name>2390</name>
</trkpt>
<trkpt lat="41.669848" lon="-0.641202">
<ele>442.0</ele>
<speed>13.9</speed>
<course>338.7</course>
<desc>Speed 13.9 km/h Distance 13.21 km</desc>
<time>2011-09-29T10:39:16.13</time>
<name>2391</name>
</trkpt>
<trkpt lat="41.669883" lon="-0.641220">
<ele>442.0</ele>
<speed>14.1</speed>
<course>336.9</course>
<desc>Speed 14.1 km/h Distance 13.21 km</desc>
<time>2011-09-29T10:39:17.12</time>
<name>2392</name>
</trkpt>
<trkpt lat="41.669918" lon="-0.641240">
<ele>441.5</ele>
<speed>14.7</speed>
<course>333.5</course>
<desc>Speed 14.7 km/h Distance 13.21 km</desc>
<time>2011-09-29T10:39:18.12</time>
<name>2393</name>
</trkpt>
<trkpt lat="41.669953" lon="-0.641263">
<ele>441.5</ele>
<speed>15.5</speed>
<course>324.7</course>
<desc>Speed 15.5 km/h Distance 13.22 km</desc>
<time>2011-09-29T10:39:19.12</time>
<name>2394</name>
</trkpt>
<trkpt lat="41.669985" lon="-0.641293">
<ele>441.5</ele>
<speed>15.6</speed>
<course>327.6</course>
<desc>Speed 15.6 km/h Distance 13.22 km</desc>
<time>2011-09-29T10:39:20.12</time>
<name>2395</name>
</trkpt>
<trkpt lat="41.670018" lon="-0.641322">
<ele>441.5</ele>
<speed>15.4</speed>
<course>334.6</course>
<desc>Speed 15.4 km/h Distance 13.23 km</desc>
<time>2011-09-29T10:39:21.12</time>
<name>2396</name>
</trkpt>
<trkpt lat="41.670055" lon="-0.641345">
<ele>441.5</ele>
<speed>15.8</speed>
<course>340.3</course>
<desc>Speed 15.8 km/h Distance 13.23 km</desc>
<time>2011-09-29T10:39:22.12</time>
<name>2397</name>
</trkpt>
<trkpt lat="41.670093" lon="-0.641363">
<ele>441.5</ele>
<speed>16.1</speed>
<course>331.5</course>
<desc>Speed 16.1 km/h Distance 13.24 km</desc>
<time>2011-09-29T10:39:23.12</time>
<name>2398</name>
</trkpt>
<trkpt lat="41.670130" lon="-0.641390">
<ele>441.0</ele>
<speed>16.4</speed>
<course>332.8</course>
<desc>Speed 16.4 km/h Distance 13.24 km</desc>
<time>2011-09-29T10:39:24.54</time>
<name>2399</name>
</trkpt>
<trkpt lat="41.670205" lon="-0.641442">
<ele>441.0</ele>
<speed>16.8</speed>
<course>328.9</course>
<desc>Speed 16.8 km/h Distance 13.25 km</desc>
<time>2011-09-29T10:39:26.12</time>
<name>2400</name>
</trkpt>
<trkpt lat="41.670240" lon="-0.641470">
<ele>441.0</ele>
<speed>16.4</speed>
<course>334.0</course>
<desc>Speed 16.4 km/h Distance 13.26 km</desc>
<time>2011-09-29T10:39:27.12</time>
<name>2401</name>
</trkpt>
<trkpt lat="41.670278" lon="-0.641495">
<ele>441.0</ele>
<speed>16.8</speed>
<course>334.0</course>
<desc>Speed 16.8 km/h Distance 13.26 km</desc>
<time>2011-09-29T10:39:28.11</time>
<name>2402</name>
</trkpt>
<trkpt lat="41.670317" lon="-0.641520">
<ele>441.0</ele>
<speed>16.8</speed>
<course>334.0</course>
<desc>Speed 16.8 km/h Distance 13.26 km</desc>
<time>2011-09-29T10:39:29.11</time>
<name>2403</name>
</trkpt>
<trkpt lat="41.670355" lon="-0.641545">
<ele>440.5</ele>
<speed>17.3</speed>
<course>334.4</course>
<desc>Speed 17.3 km/h Distance 13.27 km</desc>
<time>2011-09-29T10:39:30.11</time>
<name>2404</name>
</trkpt>
<trkpt lat="41.670397" lon="-0.641572">
<ele>440.5</ele>
<speed>18.2</speed>
<course>334.9</course>
<desc>Speed 18.2 km/h Distance 13.27 km</desc>
<time>2011-09-29T10:39:31.52</time>
<name>2405</name>
</trkpt>
<trkpt lat="41.670482" lon="-0.641625">
<ele>440.5</ele>
<speed>18.6</speed>
<course>334.4</course>
<desc>Speed 18.6 km/h Distance 13.29 km</desc>
<time>2011-09-29T10:39:33.11</time>
<name>2406</name>
</trkpt>
<trkpt lat="41.670523" lon="-0.641652">
<ele>440.5</ele>
<speed>18.7</speed>
<course>331.1</course>
<desc>Speed 18.7 km/h Distance 13.29 km</desc>
<time>2011-09-29T10:39:34.45</time>
<name>2407</name>
</trkpt>
<trkpt lat="41.670607" lon="-0.641713">
<ele>440.5</ele>
<speed>18.8</speed>
<course>335.9</course>
<desc>Speed 18.8 km/h Distance 13.30 km</desc>
<time>2011-09-29T10:39:36.11</time>
<name>2408</name>
</trkpt>
<trkpt lat="41.670648" lon="-0.641738">
<ele>440.5</ele>
<speed>18.6</speed>
<course>336.7</course>
<desc>Speed 18.6 km/h Distance 13.31 km</desc>
<time>2011-09-29T10:39:37.11</time>
<name>2409</name>
</trkpt>
<trkpt lat="41.670692" lon="-0.641763">
<ele>440.5</ele>
<speed>18.7</speed>
<course>341.0</course>
<desc>Speed 18.7 km/h Distance 13.31 km</desc>
<time>2011-09-29T10:39:38.11</time>
<name>2410</name>
</trkpt>
<trkpt lat="41.670735" lon="-0.641783">
<ele>440.5</ele>
<speed>18.3</speed>
<course>338.8</course>
<desc>Speed 18.3 km/h Distance 13.32 km</desc>
<time>2011-09-29T10:39:39.11</time>
<name>2411</name>
</trkpt>
<trkpt lat="41.670777" lon="-0.641805">
<ele>440.5</ele>
<speed>17.6</speed>
<course>334.0</course>
<desc>Speed 17.6 km/h Distance 13.32 km</desc>
<time>2011-09-29T10:39:40.11</time>
<name>2412</name>
</trkpt>
<trkpt lat="41.670815" lon="-0.641830">
<ele>440.5</ele>
<speed>17.2</speed>
<course>339.1</course>
<desc>Speed 17.2 km/h Distance 13.33 km</desc>
<time>2011-09-29T10:39:41.34</time>
<name>2413</name>
</trkpt>
<trkpt lat="41.670897" lon="-0.641872">
<ele>441.0</ele>
<speed>17.4</speed>
<course>338.0</course>
<desc>Speed 17.4 km/h Distance 13.34 km</desc>
<time>2011-09-29T10:39:43.11</time>
<name>2414</name>
</trkpt>
<trkpt lat="41.670937" lon="-0.641893">
<ele>441.0</ele>
<speed>17.0</speed>
<course>340.3</course>
<desc>Speed 17.0 km/h Distance 13.34 km</desc>
<time>2011-09-29T10:39:44.17</time>
<name>2415</name>
</trkpt>
<trkpt lat="41.670975" lon="-0.641912">
<ele>441.5</ele>
<speed>16.3</speed>
<course>345.4</course>
<desc>Speed 16.3 km/h Distance 13.35 km</desc>
<time>2011-09-29T10:39:45.10</time>
<name>2416</name>
</trkpt>
<trkpt lat="41.671013" lon="-0.641925">
<ele>441.5</ele>
<speed>15.8</speed>
<course>346.1</course>
<desc>Speed 15.8 km/h Distance 13.35 km</desc>
<time>2011-09-29T10:39:46.11</time>
<name>2417</name>
</trkpt>
<trkpt lat="41.671053" lon="-0.641938">
<ele>441.5</ele>
<speed>16.2</speed>
<course>344.3</course>
<desc>Speed 16.2 km/h Distance 13.35 km</desc>
<time>2011-09-29T10:39:47.10</time>
<name>2418</name>
</trkpt>
<trkpt lat="41.671093" lon="-0.641953">
<ele>441.5</ele>
<speed>16.6</speed>
<course>347.1</course>
<desc>Speed 16.6 km/h Distance 13.36 km</desc>
<time>2011-09-29T10:39:48.10</time>
<name>2419</name>
</trkpt>
<trkpt lat="41.671137" lon="-0.641967">
<ele>442.0</ele>
<speed>17.1</speed>
<course>351.6</course>
<desc>Speed 17.1 km/h Distance 13.36 km</desc>
<time>2011-09-29T10:39:49.10</time>
<name>2420</name>
</trkpt>
<trkpt lat="41.671178" lon="-0.641975">
<ele>442.0</ele>
<speed>17.1</speed>
<course>355.2</course>
<desc>Speed 17.1 km/h Distance 13.37 km</desc>
<time>2011-09-29T10:39:50.10</time>
<name>2421</name>
</trkpt>
<trkpt lat="41.671223" lon="-0.641980">
<ele>442.0</ele>
<speed>17.4</speed>
<course>353.5</course>
<desc>Speed 17.4 km/h Distance 13.37 km</desc>
<time>2011-09-29T10:39:51.10</time>
<name>2422</name>
</trkpt>
<trkpt lat="41.671267" lon="-0.641987">
<ele>442.0</ele>
<speed>17.9</speed>
<course>0.0</course>
<desc>Speed 17.9 km/h Distance 13.38 km</desc>
<time>2011-09-29T10:39:52.10</time>
<name>2423</name>
</trkpt>
<trkpt lat="41.671312" lon="-0.641987">
<ele>442.5</ele>
<speed>17.7</speed>
<course>3.7</course>
<desc>Speed 17.7 km/h Distance 13.38 km</desc>
<time>2011-09-29T10:39:53.89</time>
<name>2424</name>
</trkpt>
<trkpt lat="41.671448" lon="-0.641975">
<ele>442.5</ele>
<speed>18.1</speed>
<course>7.8</course>
<desc>Speed 18.1 km/h Distance 13.40 km</desc>
<time>2011-09-29T10:39:56.09</time>
<name>2425</name>
</trkpt>
<trkpt lat="41.671493" lon="-0.641967">
<ele>442.5</ele>
<speed>17.9</speed>
<course>4.7</course>
<desc>Speed 17.9 km/h Distance 13.40 km</desc>
<time>2011-09-29T10:39:57.09</time>
<name>2426</name>
</trkpt>
<trkpt lat="41.671538" lon="-0.641962">
<ele>442.5</ele>
<speed>18.2</speed>
<course>9.1</course>
<desc>Speed 18.2 km/h Distance 13.41 km</desc>
<time>2011-09-29T10:39:58.09</time>
<name>2427</name>
</trkpt>
<trkpt lat="41.671585" lon="-0.641952">
<ele>442.5</ele>
<speed>18.5</speed>
<course>10.2</course>
<desc>Speed 18.5 km/h Distance 13.41 km</desc>
<time>2011-09-29T10:39:59.09</time>
<name>2428</name>
</trkpt>
<trkpt lat="41.671633" lon="-0.641940">
<ele>442.5</ele>
<speed>19.1</speed>
<course>7.5</course>
<desc>Speed 19.1 km/h Distance 13.42 km</desc>
<time>2011-09-29T10:40:00.09</time>
<name>2429</name>
</trkpt>
<trkpt lat="41.671680" lon="-0.641932">
<ele>442.0</ele>
<speed>19.0</speed>
<course>5.9</course>
<desc>Speed 19.0 km/h Distance 13.42 km</desc>
<time>2011-09-29T10:40:01.09</time>
<name>2430</name>
</trkpt>
<trkpt lat="41.671728" lon="-0.641925">
<ele>442.0</ele>
<speed>19.3</speed>
<course>5.5</course>
<desc>Speed 19.3 km/h Distance 13.43 km</desc>
<time>2011-09-29T10:40:02.09</time>
<name>2431</name>
</trkpt>
<trkpt lat="41.671780" lon="-0.641918">
<ele>442.0</ele>
<speed>19.9</speed>
<course>4.9</course>
<desc>Speed 19.9 km/h Distance 13.44 km</desc>
<time>2011-09-29T10:40:03.62</time>
<name>2432</name>
</trkpt>
<trkpt lat="41.671882" lon="-0.641907">
<ele>442.0</ele>
<speed>20.5</speed>
<course>4.1</course>
<desc>Speed 20.5 km/h Distance 13.45 km</desc>
<time>2011-09-29T10:40:05.09</time>
<name>2433</name>
</trkpt>
<trkpt lat="41.671935" lon="-0.641902">
<ele>442.0</ele>
<speed>20.9</speed>
<course>4.0</course>
<desc>Speed 20.9 km/h Distance 13.45 km</desc>
<time>2011-09-29T10:40:06.09</time>
<name>2434</name>
</trkpt>
<trkpt lat="41.671988" lon="-0.641897">
<ele>441.5</ele>
<speed>21.1</speed>
<course>3.9</course>
<desc>Speed 21.1 km/h Distance 13.46 km</desc>
<time>2011-09-29T10:40:07.09</time>
<name>2435</name>
</trkpt>
<trkpt lat="41.672042" lon="-0.641892">
<ele>441.5</ele>
<speed>21.1</speed>
<course>0.0</course>
<desc>Speed 21.1 km/h Distance 13.46 km</desc>
<time>2011-09-29T10:40:08.09</time>
<name>2436</name>
</trkpt>
<trkpt lat="41.672095" lon="-0.641892">
<ele>441.0</ele>
<speed>21.0</speed>
<course>1.2</course>
<desc>Speed 21.0 km/h Distance 13.47 km</desc>
<time>2011-09-29T10:40:09.10</time>
<name>2437</name>
</trkpt>
<trkpt lat="41.672148" lon="-0.641890">
<ele>441.0</ele>
<speed>21.1</speed>
<course>2.6</course>
<desc>Speed 21.1 km/h Distance 13.48 km</desc>
<time>2011-09-29T10:40:10.09</time>
<name>2438</name>
</trkpt>
<trkpt lat="41.672202" lon="-0.641887">
<ele>441.0</ele>
<speed>21.5</speed>
<course>3.7</course>
<desc>Speed 21.5 km/h Distance 13.48 km</desc>
<time>2011-09-29T10:40:11.09</time>
<name>2439</name>
</trkpt>
<trkpt lat="41.672258" lon="-0.641882">
<ele>440.5</ele>
<speed>22.1</speed>
<course>358.9</course>
<desc>Speed 22.1 km/h Distance 13.49 km</desc>
<time>2011-09-29T10:40:12.09</time>
<name>2440</name>
</trkpt>
<trkpt lat="41.672315" lon="-0.641883">
<ele>440.5</ele>
<speed>22.5</speed>
<course>0.5</course>
<desc>Speed 22.5 km/h Distance 13.50 km</desc>
<time>2011-09-29T10:40:13.34</time>
<name>2441</name>
</trkpt>
<trkpt lat="41.672432" lon="-0.641882">
<ele>440.0</ele>
<speed>23.1</speed>
<course>358.5</course>
<desc>Speed 23.1 km/h Distance 13.51 km</desc>
<time>2011-09-29T10:40:15.09</time>
<name>2442</name>
</trkpt>
<trkpt lat="41.672492" lon="-0.641883">
<ele>439.5</ele>
<speed>23.7</speed>
<course>0.0</course>
<desc>Speed 23.7 km/h Distance 13.52 km</desc>
<time>2011-09-29T10:40:16.09</time>
<name>2443</name>
</trkpt>
<trkpt lat="41.672553" lon="-0.641883">
<ele>439.5</ele>
<speed>24.6</speed>
<course>1.0</course>
<desc>Speed 24.6 km/h Distance 13.52 km</desc>
<time>2011-09-29T10:40:17.08</time>
<name>2444</name>
</trkpt>
<trkpt lat="41.672618" lon="-0.641882">
<ele>439.0</ele>
<speed>25.5</speed>
<course>0.6</course>
<desc>Speed 25.5 km/h Distance 13.53 km</desc>
<time>2011-09-29T10:40:18.08</time>
<name>2445</name>
</trkpt>
<trkpt lat="41.672685" lon="-0.641882">
<ele>438.5</ele>
<speed>26.5</speed>
<course>3.1</course>
<desc>Speed 26.5 km/h Distance 13.54 km</desc>
<time>2011-09-29T10:40:19.08</time>
<name>2446</name>
</trkpt>
<trkpt lat="41.672755" lon="-0.641877">
<ele>438.5</ele>
<speed>27.5</speed>
<course>359.5</course>
<desc>Speed 27.5 km/h Distance 13.54 km</desc>
<time>2011-09-29T10:40:20.27</time>
<name>2447</name>
</trkpt>
<trkpt lat="41.672897" lon="-0.641878">
<ele>438.0</ele>
<speed>28.4</speed>
<course>1.9</course>
<desc>Speed 28.4 km/h Distance 13.56 km</desc>
<time>2011-09-29T10:40:22.08</time>
<name>2448</name>
</trkpt>
<trkpt lat="41.672968" lon="-0.641875">
<ele>438.0</ele>
<speed>28.4</speed>
<course>1.9</course>
<desc>Speed 28.4 km/h Distance 13.57 km</desc>
<time>2011-09-29T10:40:23.12</time>
<name>2449</name>
</trkpt>
<trkpt lat="41.673040" lon="-0.641872">
<ele>438.0</ele>
<speed>28.0</speed>
<course>5.2</course>
<desc>Speed 28.0 km/h Distance 13.58 km</desc>
<time>2011-09-29T10:40:24.08</time>
<name>2450</name>
</trkpt>
<trkpt lat="41.673108" lon="-0.641863">
<ele>438.0</ele>
<speed>27.6</speed>
<course>7.4</course>
<desc>Speed 27.6 km/h Distance 13.58 km</desc>
<time>2011-09-29T10:40:25.08</time>
<name>2451</name>
</trkpt>
<trkpt lat="41.673175" lon="-0.641852">
<ele>438.0</ele>
<speed>26.2</speed>
<course>15.1</course>
<desc>Speed 26.2 km/h Distance 13.59 km</desc>
<time>2011-09-29T10:40:26.08</time>
<name>2452</name>
</trkpt>
<trkpt lat="41.673235" lon="-0.641830">
<ele>438.0</ele>
<speed>25.1</speed>
<course>27.5</course>
<desc>Speed 25.1 km/h Distance 13.60 km</desc>
<time>2011-09-29T10:40:27.08</time>
<name>2453</name>
</trkpt>
<trkpt lat="41.673290" lon="-0.641792">
<ele>438.0</ele>
<speed>24.4</speed>
<course>38.7</course>
<desc>Speed 24.4 km/h Distance 13.61 km</desc>
<time>2011-09-29T10:40:28.08</time>
<name>2454</name>
</trkpt>
<trkpt lat="41.673335" lon="-0.641743">
<ele>438.5</ele>
<speed>22.7</speed>
<course>49.2</course>
<desc>Speed 22.7 km/h Distance 13.61 km</desc>
<time>2011-09-29T10:40:29.08</time>
<name>2455</name>
</trkpt>
<trkpt lat="41.673368" lon="-0.641692">
<ele>439.0</ele>
<speed>20.2</speed>
<course>67.3</course>
<desc>Speed 20.2 km/h Distance 13.62 km</desc>
<time>2011-09-29T10:40:30.08</time>
<name>2456</name>
</trkpt>
<trkpt lat="41.673385" lon="-0.641638">
<ele>439.0</ele>
<speed>17.2</speed>
<course>85.1</course>
<desc>Speed 17.2 km/h Distance 13.62 km</desc>
<time>2011-09-29T10:40:31.08</time>
<name>2457</name>
</trkpt>
<trkpt lat="41.673392" lon="-0.641533">
<ele>439.0</ele>
<speed>15.6</speed>
<course>99.8</course>
<desc>Speed 15.6 km/h Distance 13.63 km</desc>
<time>2011-09-29T10:40:33.08</time>
<name>2458</name>
</trkpt>
<trkpt lat="41.673385" lon="-0.641482">
<ele>439.0</ele>
<speed>15.5</speed>
<course>99.5</course>
<desc>Speed 15.5 km/h Distance 13.64 km</desc>
<time>2011-09-29T10:40:34.08</time>
<name>2459</name>
</trkpt>
<trkpt lat="41.673378" lon="-0.641428">
<ele>439.0</ele>
<speed>16.1</speed>
<course>99.5</course>
<desc>Speed 16.1 km/h Distance 13.64 km</desc>
<time>2011-09-29T10:40:35.08</time>
<name>2460</name>
</trkpt>
<trkpt lat="41.673372" lon="-0.641375">
<ele>439.0</ele>
<speed>16.3</speed>
<course>97.2</course>
<desc>Speed 16.3 km/h Distance 13.64 km</desc>
<time>2011-09-29T10:40:36.08</time>
<name>2461</name>
</trkpt>
<trkpt lat="41.673367" lon="-0.641322">
<ele>439.5</ele>
<speed>16.1</speed>
<course>92.4</course>
<desc>Speed 16.1 km/h Distance 13.65 km</desc>
<time>2011-09-29T10:40:37.07</time>
<name>2462</name>
</trkpt>
<trkpt lat="41.673365" lon="-0.641268">
<ele>439.5</ele>
<speed>16.1</speed>
<course>94.6</course>
<desc>Speed 16.1 km/h Distance 13.65 km</desc>
<time>2011-09-29T10:40:38.08</time>
<name>2463</name>
</trkpt>
<trkpt lat="41.673362" lon="-0.641213">
<ele>439.5</ele>
<speed>16.6</speed>
<course>90.0</course>
<desc>Speed 16.6 km/h Distance 13.66 km</desc>
<time>2011-09-29T10:40:39.08</time>
<name>2464</name>
</trkpt>
<trkpt lat="41.673362" lon="-0.641157">
<ele>439.5</ele>
<speed>17.0</speed>
<course>92.3</course>
<desc>Speed 17.0 km/h Distance 13.66 km</desc>
<time>2011-09-29T10:40:40.08</time>
<name>2465</name>
</trkpt>
<trkpt lat="41.673360" lon="-0.641100">
<ele>439.0</ele>
<speed>17.2</speed>
<course>90.0</course>
<desc>Speed 17.2 km/h Distance 13.67 km</desc>
<time>2011-09-29T10:40:41.07</time>
<name>2466</name>
</trkpt>
<trkpt lat="41.673360" lon="-0.641042">
<ele>439.0</ele>
<speed>17.2</speed>
<course>83.3</course>
<desc>Speed 17.2 km/h Distance 13.67 km</desc>
<time>2011-09-29T10:40:42.59</time>
<name>2467</name>
</trkpt>
<trkpt lat="41.673370" lon="-0.640928">
<ele>439.0</ele>
<speed>17.3</speed>
<course>81.5</course>
<desc>Speed 17.3 km/h Distance 13.68 km</desc>
<time>2011-09-29T10:40:44.08</time>
<name>2468</name>
</trkpt>
<trkpt lat="41.673377" lon="-0.640868">
<ele>439.0</ele>
<speed>18.0</speed>
<course>87.9</course>
<desc>Speed 18.0 km/h Distance 13.69 km</desc>
<time>2011-09-29T10:40:45.07</time>
<name>2469</name>
</trkpt>
<trkpt lat="41.673378" lon="-0.640808">
<ele>438.5</ele>
<speed>18.4</speed>
<course>86.0</course>
<desc>Speed 18.4 km/h Distance 13.69 km</desc>
<time>2011-09-29T10:40:46.07</time>
<name>2470</name>
</trkpt>
<trkpt lat="41.673382" lon="-0.640745">
<ele>438.5</ele>
<speed>18.6</speed>
<course>87.9</course>
<desc>Speed 18.6 km/h Distance 13.70 km</desc>
<time>2011-09-29T10:40:47.07</time>
<name>2471</name>
</trkpt>
<trkpt lat="41.673383" lon="-0.640683">
<ele>438.5</ele>
<speed>18.5</speed>
<course>83.6</course>
<desc>Speed 18.5 km/h Distance 13.70 km</desc>
<time>2011-09-29T10:40:48.07</time>
<name>2472</name>
</trkpt>
<trkpt lat="41.673388" lon="-0.640623">
<ele>438.5</ele>
<speed>18.4</speed>
<course>86.0</course>
<desc>Speed 18.4 km/h Distance 13.71 km</desc>
<time>2011-09-29T10:40:49.07</time>
<name>2473</name>
</trkpt>
<trkpt lat="41.673392" lon="-0.640560">
<ele>438.0</ele>
<speed>18.9</speed>
<course>86.0</course>
<desc>Speed 18.9 km/h Distance 13.71 km</desc>
<time>2011-09-29T10:40:50.07</time>
<name>2474</name>
</trkpt>
<trkpt lat="41.673398" lon="-0.640432">
<ele>438.0</ele>
<speed>19.3</speed>
<course>85.0</course>
<desc>Speed 19.3 km/h Distance 13.72 km</desc>
<time>2011-09-29T10:40:52.32</time>
<name>2475</name>
</trkpt>
<trkpt lat="41.673407" lon="-0.640303">
<ele>438.0</ele>
<speed>19.2</speed>
<course>88.0</course>
<desc>Speed 19.2 km/h Distance 13.73 km</desc>
<time>2011-09-29T10:40:54.07</time>
<name>2476</name>
</trkpt>
<trkpt lat="41.673408" lon="-0.640238">
<ele>438.0</ele>
<speed>19.2</speed>
<course>85.9</course>
<desc>Speed 19.2 km/h Distance 13.74 km</desc>
<time>2011-09-29T10:40:55.07</time>
<name>2477</name>
</trkpt>
<trkpt lat="41.673412" lon="-0.640177">
<ele>438.0</ele>
<speed>18.8</speed>
<course>88.0</course>
<desc>Speed 18.8 km/h Distance 13.74 km</desc>
<time>2011-09-29T10:40:56.07</time>
<name>2478</name>
</trkpt>
<trkpt lat="41.673413" lon="-0.640113">
<ele>438.0</ele>
<speed>18.6</speed>
<course>87.9</course>
<desc>Speed 18.6 km/h Distance 13.75 km</desc>
<time>2011-09-29T10:40:57.07</time>
<name>2479</name>
</trkpt>
<trkpt lat="41.673415" lon="-0.640052">
<ele>438.0</ele>
<speed>18.5</speed>
<course>90.0</course>
<desc>Speed 18.5 km/h Distance 13.75 km</desc>
<time>2011-09-29T10:40:58.06</time>
<name>2480</name>
</trkpt>
<trkpt lat="41.673415" lon="-0.639992">
<ele>438.0</ele>
<speed>18.3</speed>
<course>94.2</course>
<desc>Speed 18.3 km/h Distance 13.76 km</desc>
<time>2011-09-29T10:40:59.25</time>
<name>2481</name>
</trkpt>
<trkpt lat="41.673408" lon="-0.639870">
<ele>438.5</ele>
<speed>18.4</speed>
<course>94.3</course>
<desc>Speed 18.4 km/h Distance 13.77 km</desc>
<time>2011-09-29T10:41:01.08</time>
<name>2482</name>
</trkpt>
<trkpt lat="41.673405" lon="-0.639810">
<ele>438.5</ele>
<speed>17.9</speed>
<course>94.6</course>
<desc>Speed 17.9 km/h Distance 13.77 km</desc>
<time>2011-09-29T10:41:02.07</time>
<name>2483</name>
</trkpt>
<trkpt lat="41.673398" lon="-0.639700">
<ele>438.5</ele>
<speed>16.1</speed>
<course>99.5</course>
<desc>Speed 16.1 km/h Distance 13.78 km</desc>
<time>2011-09-29T10:41:04.06</time>
<name>2484</name>
</trkpt>
<trkpt lat="41.673392" lon="-0.639647">
<ele>438.5</ele>
<speed>16.3</speed>
<course>101.8</course>
<desc>Speed 16.3 km/h Distance 13.79 km</desc>
<time>2011-09-29T10:41:05.06</time>
<name>2485</name>
</trkpt>
<trkpt lat="41.673383" lon="-0.639593">
<ele>438.5</ele>
<speed>16.5</speed>
<course>101.1</course>
<desc>Speed 16.5 km/h Distance 13.79 km</desc>
<time>2011-09-29T10:41:06.06</time>
<name>2486</name>
</trkpt>
<trkpt lat="41.673375" lon="-0.639537">
<ele>438.5</ele>
<speed>17.4</speed>
<course>98.2</course>
<desc>Speed 17.4 km/h Distance 13.80 km</desc>
<time>2011-09-29T10:41:07.06</time>
<name>2487</name>
</trkpt>
<trkpt lat="41.673368" lon="-0.639475">
<ele>438.5</ele>
<speed>18.4</speed>
<course>98.5</course>
<desc>Speed 18.4 km/h Distance 13.80 km</desc>
<time>2011-09-29T10:41:08.06</time>
<name>2488</name>
</trkpt>
<trkpt lat="41.673362" lon="-0.639415">
<ele>438.5</ele>
<speed>18.6</speed>
<course>97.1</course>
<desc>Speed 18.6 km/h Distance 13.81 km</desc>
<time>2011-09-29T10:41:09.25</time>
<name>2489</name>
</trkpt>
<trkpt lat="41.673350" lon="-0.639290">
<ele>439.0</ele>
<speed>18.7</speed>
<course>94.0</course>
<desc>Speed 18.7 km/h Distance 13.82 km</desc>
<time>2011-09-29T10:41:11.06</time>
<name>2490</name>
</trkpt>
<trkpt lat="41.673347" lon="-0.639227">
<ele>439.0</ele>
<speed>19.4</speed>
<course>95.0</course>
<desc>Speed 19.4 km/h Distance 13.82 km</desc>
<time>2011-09-29T10:41:12.11</time>
<name>2491</name>
</trkpt>
<trkpt lat="41.673338" lon="-0.639098">
<ele>439.0</ele>
<speed>19.4</speed>
<course>93.9</course>
<desc>Speed 19.4 km/h Distance 13.83 km</desc>
<time>2011-09-29T10:41:14.06</time>
<name>2492</name>
</trkpt>
<trkpt lat="41.673335" lon="-0.639033">
<ele>439.5</ele>
<speed>19.3</speed>
<course>94.0</course>
<desc>Speed 19.3 km/h Distance 13.84 km</desc>
<time>2011-09-29T10:41:15.06</time>
<name>2493</name>
</trkpt>
<trkpt lat="41.673332" lon="-0.638970">
<ele>439.5</ele>
<speed>19.3</speed>
<course>98.0</course>
<desc>Speed 19.3 km/h Distance 13.85 km</desc>
<time>2011-09-29T10:41:16.05</time>
<name>2494</name>
</trkpt>
<trkpt lat="41.673325" lon="-0.638907">
<ele>440.0</ele>
<speed>18.8</speed>
<course>98.2</course>
<desc>Speed 18.8 km/h Distance 13.85 km</desc>
<time>2011-09-29T10:41:17.05</time>
<name>2495</name>
</trkpt>
<trkpt lat="41.673318" lon="-0.638845">
<ele>440.0</ele>
<speed>18.8</speed>
<course>104.2</course>
<desc>Speed 18.8 km/h Distance 13.86 km</desc>
<time>2011-09-29T10:41:18.06</time>
<name>2496</name>
</trkpt>
<trkpt lat="41.673307" lon="-0.638783">
<ele>440.0</ele>
<speed>18.9</speed>
<course>104.2</course>
<desc>Speed 18.9 km/h Distance 13.86 km</desc>
<time>2011-09-29T10:41:19.05</time>
<name>2497</name>
</trkpt>
<trkpt lat="41.673295" lon="-0.638722">
<ele>440.0</ele>
<speed>19.3</speed>
<course>101.6</course>
<desc>Speed 19.3 km/h Distance 13.87 km</desc>
<time>2011-09-29T10:41:20.05</time>
<name>2498</name>
</trkpt>
<trkpt lat="41.673285" lon="-0.638657">
<ele>440.0</ele>
<speed>19.7</speed>
<course>103.6</course>
<desc>Speed 19.7 km/h Distance 13.87 km</desc>
<time>2011-09-29T10:41:21.79</time>
<name>2499</name>
</trkpt>
<trkpt lat="41.673250" lon="-0.638463">
<ele>440.0</ele>
<speed>19.9</speed>
<course>101.6</course>
<desc>Speed 19.9 km/h Distance 13.89 km</desc>
<time>2011-09-29T10:41:24.05</time>
<name>2500</name>
</trkpt>
<trkpt lat="41.673240" lon="-0.638398">
<ele>439.5</ele>
<speed>20.1</speed>
<course>103.2</course>
<desc>Speed 20.1 km/h Distance 13.89 km</desc>
<time>2011-09-29T10:41:25.05</time>
<name>2501</name>
</trkpt>
<trkpt lat="41.673228" lon="-0.638332">
<ele>439.5</ele>
<speed>20.2</speed>
<course>101.4</course>
<desc>Speed 20.2 km/h Distance 13.90 km</desc>
<time>2011-09-29T10:41:26.05</time>
<name>2502</name>
</trkpt>
<trkpt lat="41.673218" lon="-0.638265">
<ele>439.5</ele>
<speed>20.6</speed>
<course>99.5</course>
<desc>Speed 20.6 km/h Distance 13.91 km</desc>
<time>2011-09-29T10:41:27.05</time>
<name>2503</name>
</trkpt>
<trkpt lat="41.673210" lon="-0.638198">
<ele>439.5</ele>
<speed>20.4</speed>
<course>103.2</course>
<desc>Speed 20.4 km/h Distance 13.91 km</desc>
<time>2011-09-29T10:41:28.05</time>
<name>2504</name>
</trkpt>
<trkpt lat="41.673198" lon="-0.638132">
<ele>439.5</ele>
<speed>20.2</speed>
<course>99.7</course>
<desc>Speed 20.2 km/h Distance 13.92 km</desc>
<time>2011-09-29T10:41:29.05</time>
<name>2505</name>
</trkpt>
<trkpt lat="41.673190" lon="-0.638067">
<ele>439.5</ele>
<speed>19.7</speed>
<course>104.2</course>
<desc>Speed 19.7 km/h Distance 13.92 km</desc>
<time>2011-09-29T10:41:30.05</time>
<name>2506</name>
</trkpt>
<trkpt lat="41.673178" lon="-0.638005">
<ele>439.5</ele>
<speed>19.4</speed>
<course>104.6</course>
<desc>Speed 19.4 km/h Distance 13.93 km</desc>
<time>2011-09-29T10:41:31.51</time>
<name>2507</name>
</trkpt>
<trkpt lat="41.673155" lon="-0.637885">
<ele>439.0</ele>
<speed>18.6</speed>
<course>102.6</course>
<desc>Speed 18.6 km/h Distance 13.94 km</desc>
<time>2011-09-29T10:41:33.04</time>
<name>2508</name>
</trkpt>
<trkpt lat="41.673145" lon="-0.637825">
<ele>439.0</ele>
<speed>18.6</speed>
<course>110.9</course>
<desc>Speed 18.6 km/h Distance 13.94 km</desc>
<time>2011-09-29T10:41:34.05</time>
<name>2509</name>
</trkpt>
<trkpt lat="41.673128" lon="-0.637767">
<ele>439.0</ele>
<speed>18.3</speed>
<course>109.0</course>
<desc>Speed 18.3 km/h Distance 13.95 km</desc>
<time>2011-09-29T10:41:35.04</time>
<name>2510</name>
</trkpt>
<trkpt lat="41.673113" lon="-0.637708">
<ele>439.0</ele>
<speed>18.6</speed>
<course>109.5</course>
<desc>Speed 18.6 km/h Distance 13.95 km</desc>
<time>2011-09-29T10:41:36.04</time>
<name>2511</name>
</trkpt>
<trkpt lat="41.673098" lon="-0.637652">
<ele>439.0</ele>
<speed>18.6</speed>
<course>112.8</course>
<desc>Speed 18.6 km/h Distance 13.96 km</desc>
<time>2011-09-29T10:41:37.04</time>
<name>2512</name>
</trkpt>
<trkpt lat="41.673080" lon="-0.637593">
<ele>439.0</ele>
<speed>19.0</speed>
<course>118.3</course>
<desc>Speed 19.0 km/h Distance 13.96 km</desc>
<time>2011-09-29T10:41:38.04</time>
<name>2513</name>
</trkpt>
<trkpt lat="41.673035" lon="-0.637482">
<ele>438.5</ele>
<speed>19.2</speed>
<course>118.9</course>
<desc>Speed 19.2 km/h Distance 13.97 km</desc>
<time>2011-09-29T10:41:40.04</time>
<name>2514</name>
</trkpt>
<trkpt lat="41.673012" lon="-0.637425">
<ele>438.5</ele>
<speed>19.7</speed>
<course>118.7</course>
<desc>Speed 19.7 km/h Distance 13.98 km</desc>
<time>2011-09-29T10:41:41.25</time>
<name>2515</name>
</trkpt>
<trkpt lat="41.672963" lon="-0.637307">
<ele>438.5</ele>
<speed>20.1</speed>
<course>115.8</course>
<desc>Speed 20.1 km/h Distance 13.99 km</desc>
<time>2011-09-29T10:41:43.04</time>
<name>2516</name>
</trkpt>
<trkpt lat="41.672942" lon="-0.637247">
<ele>439.0</ele>
<speed>20.0</speed>
<course>118.2</course>
<desc>Speed 20.0 km/h Distance 14.00 km</desc>
<time>2011-09-29T10:41:44.04</time>
<name>2517</name>
</trkpt>
<trkpt lat="41.672918" lon="-0.637188">
<ele>439.0</ele>
<speed>19.8</speed>
<course>118.2</course>
<desc>Speed 19.8 km/h Distance 14.00 km</desc>
<time>2011-09-29T10:41:45.04</time>
<name>2518</name>
</trkpt>
<trkpt lat="41.672895" lon="-0.637130">
<ele>439.5</ele>
<speed>19.6</speed>
<course>113.4</course>
<desc>Speed 19.6 km/h Distance 14.01 km</desc>
<time>2011-09-29T10:41:46.04</time>
<name>2519</name>
</trkpt>
<trkpt lat="41.672877" lon="-0.637073">
<ele>440.0</ele>
<speed>18.7</speed>
<course>116.6</course>
<desc>Speed 18.7 km/h Distance 14.01 km</desc>
<time>2011-09-29T10:41:47.04</time>
<name>2520</name>
</trkpt>
<trkpt lat="41.672857" lon="-0.637020">
<ele>440.5</ele>
<speed>17.9</speed>
<course>110.8</course>
<desc>Speed 17.9 km/h Distance 14.02 km</desc>
<time>2011-09-29T10:41:48.18</time>
<name>2521</name>
</trkpt>
<trkpt lat="41.672825" lon="-0.636908">
<ele>441.0</ele>
<speed>17.6</speed>
<course>112.7</course>
<desc>Speed 17.6 km/h Distance 14.03 km</desc>
<time>2011-09-29T10:41:50.04</time>
<name>2522</name>
</trkpt>
<trkpt lat="41.672808" lon="-0.636855">
<ele>441.0</ele>
<speed>17.2</speed>
<course>110.6</course>
<desc>Speed 17.2 km/h Distance 14.03 km</desc>
<time>2011-09-29T10:41:51.03</time>
<name>2523</name>
</trkpt>
<trkpt lat="41.672793" lon="-0.636802">
<ele>441.0</ele>
<speed>17.4</speed>
<course>107.5</course>
<desc>Speed 17.4 km/h Distance 14.04 km</desc>
<time>2011-09-29T10:41:52.04</time>
<name>2524</name>
</trkpt>
<trkpt lat="41.672780" lon="-0.636745">
<ele>441.0</ele>
<speed>17.8</speed>
<course>109.5</course>
<desc>Speed 17.8 km/h Distance 14.04 km</desc>
<time>2011-09-29T10:41:53.04</time>
<name>2525</name>
</trkpt>
<trkpt lat="41.672765" lon="-0.636688">
<ele>441.0</ele>
<speed>18.1</speed>
<course>107.0</course>
<desc>Speed 18.1 km/h Distance 14.05 km</desc>
<time>2011-09-29T10:41:54.03</time>
<name>2526</name>
</trkpt>
<trkpt lat="41.672752" lon="-0.636630">
<ele>441.0</ele>
<speed>18.3</speed>
<course>107.0</course>
<desc>Speed 18.3 km/h Distance 14.05 km</desc>
<time>2011-09-29T10:41:55.03</time>
<name>2527</name>
</trkpt>
<trkpt lat="41.672738" lon="-0.636572">
<ele>441.0</ele>
<speed>18.7</speed>
<course>104.2</course>
<desc>Speed 18.7 km/h Distance 14.06 km</desc>
<time>2011-09-29T10:41:56.03</time>
<name>2528</name>
</trkpt>
<trkpt lat="41.672727" lon="-0.636510">
<ele>440.5</ele>
<speed>19.0</speed>
<course>104.2</course>
<desc>Speed 19.0 km/h Distance 14.06 km</desc>
<time>2011-09-29T10:41:57.03</time>
<name>2529</name>
</trkpt>
<trkpt lat="41.672715" lon="-0.636448">
<ele>440.5</ele>
<speed>19.3</speed>
<course>101.9</course>
<desc>Speed 19.3 km/h Distance 14.07 km</desc>
<time>2011-09-29T10:41:58.03</time>
<name>2530</name>
</trkpt>
<trkpt lat="41.672705" lon="-0.636385">
<ele>440.5</ele>
<speed>19.5</speed>
<course>97.8</course>
<desc>Speed 19.5 km/h Distance 14.07 km</desc>
<time>2011-09-29T10:41:59.03</time>
<name>2531</name>
</trkpt>
<trkpt lat="41.672698" lon="-0.636320">
<ele>440.5</ele>
<speed>19.8</speed>
<course>98.6</course>
<desc>Speed 19.8 km/h Distance 14.08 km</desc>
<time>2011-09-29T10:42:00.71</time>
<name>2532</name>
</trkpt>
<trkpt lat="41.672675" lon="-0.636113">
<ele>440.0</ele>
<speed>21.4</speed>
<course>100.6</course>
<desc>Speed 21.4 km/h Distance 14.10 km</desc>
<time>2011-09-29T10:42:03.03</time>
<name>2533</name>
</trkpt>
<trkpt lat="41.672665" lon="-0.636042">
<ele>439.5</ele>
<speed>21.7</speed>
<course>97.1</course>
<desc>Speed 21.7 km/h Distance 14.10 km</desc>
<time>2011-09-29T10:42:04.02</time>
<name>2534</name>
</trkpt>
<trkpt lat="41.672658" lon="-0.635970">
<ele>439.5</ele>
<speed>21.8</speed>
<course>98.8</course>
<desc>Speed 21.8 km/h Distance 14.11 km</desc>
<time>2011-09-29T10:42:05.02</time>
<name>2535</name>
</trkpt>
<trkpt lat="41.672650" lon="-0.635898">
<ele>439.5</ele>
<speed>21.8</speed>
<course>102.6</course>
<desc>Speed 21.8 km/h Distance 14.11 km</desc>
<time>2011-09-29T10:42:06.03</time>
<name>2536</name>
</trkpt>
<trkpt lat="41.672638" lon="-0.635828">
<ele>439.0</ele>
<speed>21.6</speed>
<course>102.9</course>
<desc>Speed 21.6 km/h Distance 14.12 km</desc>
<time>2011-09-29T10:42:07.02</time>
<name>2537</name>
</trkpt>
<trkpt lat="41.672627" lon="-0.635760">
<ele>439.0</ele>
<speed>20.8</speed>
<course>101.8</course>
<desc>Speed 20.8 km/h Distance 14.13 km</desc>
<time>2011-09-29T10:42:08.02</time>
<name>2538</name>
</trkpt>
<trkpt lat="41.672618" lon="-0.635707">
<ele>439.0</ele>
<speed>16.6</speed>
<course>102.9</course>
<desc>Speed 16.6 km/h Distance 14.13 km</desc>
<time>2011-09-29T10:42:09.03</time>
<name>2539</name>
</trkpt>
<trkpt lat="41.672608" lon="-0.635648">
<ele>439.0</ele>
<speed>17.9</speed>
<course>102.9</course>
<desc>Speed 17.9 km/h Distance 14.13 km</desc>
<time>2011-09-29T10:42:10.51</time>
<name>2540</name>
</trkpt>
<trkpt lat="41.672585" lon="-0.635512">
<ele>439.0</ele>
<speed>21.2</speed>
<course>104.3</course>
<desc>Speed 21.2 km/h Distance 14.15 km</desc>
<time>2011-09-29T10:42:12.02</time>
<name>2541</name>
</trkpt>
<trkpt lat="41.672572" lon="-0.635442">
<ele>439.0</ele>
<speed>21.7</speed>
<course>104.6</course>
<desc>Speed 21.7 km/h Distance 14.15 km</desc>
<time>2011-09-29T10:42:13.02</time>
<name>2542</name>
</trkpt>
<trkpt lat="41.672558" lon="-0.635373">
<ele>438.5</ele>
<speed>21.4</speed>
<course>101.4</course>
<desc>Speed 21.4 km/h Distance 14.16 km</desc>
<time>2011-09-29T10:42:14.02</time>
<name>2543</name>
</trkpt>
<trkpt lat="41.672548" lon="-0.635307">
<ele>438.5</ele>
<speed>21.0</speed>
<course>104.6</course>
<desc>Speed 21.0 km/h Distance 14.16 km</desc>
<time>2011-09-29T10:42:15.02</time>
<name>2544</name>
</trkpt>
<trkpt lat="41.672535" lon="-0.635238">
<ele>438.5</ele>
<speed>20.8</speed>
<course>105.0</course>
<desc>Speed 20.8 km/h Distance 14.17 km</desc>
<time>2011-09-29T10:42:16.02</time>
<name>2545</name>
</trkpt>
<trkpt lat="41.672522" lon="-0.635172">
<ele>438.5</ele>
<speed>21.0</speed>
<course>105.0</course>
<desc>Speed 21.0 km/h Distance 14.18 km</desc>
<time>2011-09-29T10:42:17.02</time>
<name>2546</name>
</trkpt>
<trkpt lat="41.672508" lon="-0.635105">
<ele>438.5</ele>
<speed>20.7</speed>
<course>105.4</course>
<desc>Speed 20.7 km/h Distance 14.18 km</desc>
<time>2011-09-29T10:42:18.02</time>
<name>2547</name>
</trkpt>
<trkpt lat="41.672495" lon="-0.635040">
<ele>438.5</ele>
<speed>20.3</speed>
<course>103.9</course>
<desc>Speed 20.3 km/h Distance 14.19 km</desc>
<time>2011-09-29T10:42:19.02</time>
<name>2548</name>
</trkpt>
<trkpt lat="41.672483" lon="-0.634977">
<ele>438.5</ele>
<speed>19.8</speed>
<course>104.8</course>
<desc>Speed 19.8 km/h Distance 14.19 km</desc>
<time>2011-09-29T10:42:20.24</time>
<name>2549</name>
</trkpt>
<trkpt lat="41.672458" lon="-0.634850">
<ele>438.5</ele>
<speed>19.9</speed>
<course>107.2</course>
<desc>Speed 19.9 km/h Distance 14.20 km</desc>
<time>2011-09-29T10:42:22.02</time>
<name>2550</name>
</trkpt>
<trkpt lat="41.672443" lon="-0.634785">
<ele>438.5</ele>
<speed>20.0</speed>
<course>105.4</course>
<desc>Speed 20.0 km/h Distance 14.21 km</desc>
<time>2011-09-29T10:42:23.01</time>
<name>2551</name>
</trkpt>
<trkpt lat="41.672430" lon="-0.634720">
<ele>438.5</ele>
<speed>20.3</speed>
<course>107.2</course>
<desc>Speed 20.3 km/h Distance 14.21 km</desc>
<time>2011-09-29T10:42:24.01</time>
<name>2552</name>
</trkpt>
<trkpt lat="41.672415" lon="-0.634655">
<ele>438.5</ele>
<speed>20.7</speed>
<course>111.2</course>
<desc>Speed 20.7 km/h Distance 14.22 km</desc>
<time>2011-09-29T10:42:25.01</time>
<name>2553</name>
</trkpt>
<trkpt lat="41.672397" lon="-0.634592">
<ele>438.5</ele>
<speed>20.7</speed>
<course>112.4</course>
<desc>Speed 20.7 km/h Distance 14.23 km</desc>
<time>2011-09-29T10:42:26.01</time>
<name>2554</name>
</trkpt>
<trkpt lat="41.672377" lon="-0.634527">
<ele>438.5</ele>
<speed>20.7</speed>
<course>107.8</course>
<desc>Speed 20.7 km/h Distance 14.23 km</desc>
<time>2011-09-29T10:42:27.18</time>
<name>2555</name>
</trkpt>
<trkpt lat="41.672345" lon="-0.634395">
<ele>438.5</ele>
<speed>21.0</speed>
<course>112.4</course>
<desc>Speed 21.0 km/h Distance 14.24 km</desc>
<time>2011-09-29T10:42:29.01</time>
<name>2556</name>
</trkpt>
<trkpt lat="41.672325" lon="-0.634330">
<ele>438.5</ele>
<speed>21.1</speed>
<course>110.7</course>
<desc>Speed 21.1 km/h Distance 14.25 km</desc>
<time>2011-09-29T10:42:30.03</time>
<name>2557</name>
</trkpt>
<trkpt lat="41.672307" lon="-0.634265">
<ele>438.5</ele>
<speed>21.1</speed>
<course>110.7</course>
<desc>Speed 21.1 km/h Distance 14.25 km</desc>
<time>2011-09-29T10:42:31.01</time>
<name>2558</name>
</trkpt>
<trkpt lat="41.672288" lon="-0.634200">
<ele>438.5</ele>
<speed>21.0</speed>
<course>112.4</course>
<desc>Speed 21.0 km/h Distance 14.26 km</desc>
<time>2011-09-29T10:42:32.01</time>
<name>2559</name>
</trkpt>
<trkpt lat="41.672268" lon="-0.634135">
<ele>438.5</ele>
<speed>21.2</speed>
<course>112.4</course>
<desc>Speed 21.2 km/h Distance 14.27 km</desc>
<time>2011-09-29T10:42:33.01</time>
<name>2560</name>
</trkpt>
<trkpt lat="41.672248" lon="-0.634070">
<ele>438.5</ele>
<speed>21.2</speed>
<course>112.4</course>
<desc>Speed 21.2 km/h Distance 14.27 km</desc>
<time>2011-09-29T10:42:34.01</time>
<name>2561</name>
</trkpt>
<trkpt lat="41.672228" lon="-0.634005">
<ele>438.5</ele>
<speed>21.2</speed>
<course>110.7</course>
<desc>Speed 21.2 km/h Distance 14.28 km</desc>
<time>2011-09-29T10:42:35.01</time>
<name>2562</name>
</trkpt>
<trkpt lat="41.672210" lon="-0.633940">
<ele>438.5</ele>
<speed>21.0</speed>
<course>108.5</course>
<desc>Speed 21.0 km/h Distance 14.28 km</desc>
<time>2011-09-29T10:42:36.00</time>
<name>2563</name>
</trkpt>
<trkpt lat="41.672193" lon="-0.633873">
<ele>438.5</ele>
<speed>20.8</speed>
<course>111.2</course>
<desc>Speed 20.8 km/h Distance 14.29 km</desc>
<time>2011-09-29T10:42:37.00</time>
<name>2564</name>
</trkpt>
<trkpt lat="41.672175" lon="-0.633810">
<ele>438.5</ele>
<speed>20.8</speed>
<course>112.4</course>
<desc>Speed 20.8 km/h Distance 14.30 km</desc>
<time>2011-09-29T10:42:38.01</time>
<name>2565</name>
</trkpt>
<trkpt lat="41.672155" lon="-0.633745">
<ele>438.5</ele>
<speed>21.1</speed>
<course>110.1</course>
<desc>Speed 21.1 km/h Distance 14.30 km</desc>
<time>2011-09-29T10:42:39.73</time>
<name>2566</name>
</trkpt>
<trkpt lat="41.672102" lon="-0.633550">
<ele>439.0</ele>
<speed>20.8</speed>
<course>110.7</course>
<desc>Speed 20.8 km/h Distance 14.32 km</desc>
<time>2011-09-29T10:42:42.01</time>
<name>2567</name>
</trkpt>
<trkpt lat="41.672083" lon="-0.633485">
<ele>439.0</ele>
<speed>20.7</speed>
<course>110.7</course>
<desc>Speed 20.7 km/h Distance 14.32 km</desc>
<time>2011-09-29T10:42:43.00</time>
<name>2568</name>
</trkpt>
<trkpt lat="41.672065" lon="-0.633420">
<ele>439.0</ele>
<speed>20.9</speed>
<course>110.7</course>
<desc>Speed 20.9 km/h Distance 14.33 km</desc>
<time>2011-09-29T10:42:44.00</time>
<name>2569</name>
</trkpt>
<trkpt lat="41.672047" lon="-0.633355">
<ele>439.0</ele>
<speed>20.7</speed>
<course>111.7</course>
<desc>Speed 20.7 km/h Distance 14.34 km</desc>
<time>2011-09-29T10:42:45.00</time>
<name>2570</name>
</trkpt>
<trkpt lat="41.672028" lon="-0.633293">
<ele>439.0</ele>
<speed>20.3</speed>
<course>109.4</course>
<desc>Speed 20.3 km/h Distance 14.34 km</desc>
<time>2011-09-29T10:42:46.00</time>
<name>2571</name>
</trkpt>
<trkpt lat="41.672012" lon="-0.633230">
<ele>439.5</ele>
<speed>20.0</speed>
<course>112.2</course>
<desc>Speed 20.0 km/h Distance 14.35 km</desc>
<time>2011-09-29T10:42:46.99</time>
<name>2572</name>
</trkpt>
<trkpt lat="41.671993" lon="-0.633170">
<ele>439.5</ele>
<speed>19.7</speed>
<course>111.7</course>
<desc>Speed 19.7 km/h Distance 14.35 km</desc>
<time>2011-09-29T10:42:48.00</time>
<name>2573</name>
</trkpt>
<trkpt lat="41.671975" lon="-0.633108">
<ele>439.5</ele>
<speed>19.7</speed>
<course>111.1</course>
<desc>Speed 19.7 km/h Distance 14.36 km</desc>
<time>2011-09-29T10:42:49.46</time>
<name>2574</name>
</trkpt>
<trkpt lat="41.671940" lon="-0.632987">
<ele>440.0</ele>
<speed>19.4</speed>
<course>108.0</course>
<desc>Speed 19.4 km/h Distance 14.37 km</desc>
<time>2011-09-29T10:42:50.99</time>
<name>2575</name>
</trkpt>
<trkpt lat="41.671925" lon="-0.632925">
<ele>440.0</ele>
<speed>19.6</speed>
<course>108.0</course>
<desc>Speed 19.6 km/h Distance 14.37 km</desc>
<time>2011-09-29T10:42:51.99</time>
<name>2576</name>
</trkpt>
<trkpt lat="41.671910" lon="-0.632863">
<ele>440.0</ele>
<speed>19.8</speed>
<course>107.6</course>
<desc>Speed 19.8 km/h Distance 14.38 km</desc>
<time>2011-09-29T10:42:52.99</time>
<name>2577</name>
</trkpt>
<trkpt lat="41.671895" lon="-0.632800">
<ele>440.0</ele>
<speed>19.8</speed>
<course>108.0</course>
<desc>Speed 19.8 km/h Distance 14.38 km</desc>
<time>2011-09-29T10:42:53.99</time>
<name>2578</name>
</trkpt>
<trkpt lat="41.671880" lon="-0.632738">
<ele>440.0</ele>
<speed>19.7</speed>
<course>109.4</course>
<desc>Speed 19.7 km/h Distance 14.39 km</desc>
<time>2011-09-29T10:42:55.00</time>
<name>2579</name>
</trkpt>
<trkpt lat="41.671863" lon="-0.632675">
<ele>440.0</ele>
<speed>20.1</speed>
<course>106.1</course>
<desc>Speed 20.1 km/h Distance 14.40 km</desc>
<time>2011-09-29T10:42:55.99</time>
<name>2580</name>
</trkpt>
<trkpt lat="41.671835" lon="-0.632543">
<ele>440.5</ele>
<speed>20.5</speed>
<course>103.5</course>
<desc>Speed 20.5 km/h Distance 14.41 km</desc>
<time>2011-09-29T10:42:57.99</time>
<name>2581</name>
</trkpt>
<trkpt lat="41.671823" lon="-0.632478">
<ele>440.5</ele>
<speed>20.4</speed>
<course>101.5</course>
<desc>Speed 20.4 km/h Distance 14.41 km</desc>
<time>2011-09-29T10:42:59.21</time>
<name>2582</name>
</trkpt>
<trkpt lat="41.671803" lon="-0.632347">
<ele>440.5</ele>
<speed>19.9</speed>
<course>97.8</course>
<desc>Speed 19.9 km/h Distance 14.42 km</desc>
<time>2011-09-29T10:43:00.99</time>
<name>2583</name>
</trkpt>
<trkpt lat="41.671797" lon="-0.632282">
<ele>441.0</ele>
<speed>19.9</speed>
<course>97.6</course>
<desc>Speed 19.9 km/h Distance 14.43 km</desc>
<time>2011-09-29T10:43:01.99</time>
<name>2584</name>
</trkpt>
<trkpt lat="41.671790" lon="-0.632215">
<ele>441.0</ele>
<speed>19.9</speed>
<course>95.7</course>
<desc>Speed 19.9 km/h Distance 14.43 km</desc>
<time>2011-09-29T10:43:02.99</time>
<name>2585</name>
</trkpt>
<trkpt lat="41.671785" lon="-0.632148">
<ele>441.5</ele>
<speed>19.8</speed>
<course>93.8</course>
<desc>Speed 19.8 km/h Distance 14.44 km</desc>
<time>2011-09-29T10:43:03.98</time>
<name>2586</name>
</trkpt>
<trkpt lat="41.671782" lon="-0.632082">
<ele>441.5</ele>
<speed>19.8</speed>
<course>93.8</course>
<desc>Speed 19.8 km/h Distance 14.45 km</desc>
<time>2011-09-29T10:43:04.98</time>
<name>2587</name>
</trkpt>
<trkpt lat="41.671778" lon="-0.632015">
<ele>442.0</ele>
<speed>19.9</speed>
<course>89.1</course>
<desc>Speed 19.9 km/h Distance 14.45 km</desc>
<time>2011-09-29T10:43:06.16</time>
<name>2588</name>
</trkpt>
<trkpt lat="41.671780" lon="-0.631880">
<ele>442.0</ele>
<speed>20.2</speed>
<course>86.2</course>
<desc>Speed 20.2 km/h Distance 14.46 km</desc>
<time>2011-09-29T10:43:07.98</time>
<name>2589</name>
</trkpt>
<trkpt lat="41.671783" lon="-0.631813">
<ele>442.5</ele>
<speed>20.0</speed>
<course>82.2</course>
<desc>Speed 20.0 km/h Distance 14.47 km</desc>
<time>2011-09-29T10:43:09.01</time>
<name>2590</name>
</trkpt>
<trkpt lat="41.671790" lon="-0.631748">
<ele>442.5</ele>
<speed>19.9</speed>
<course>80.3</course>
<desc>Speed 19.9 km/h Distance 14.47 km</desc>
<time>2011-09-29T10:43:09.99</time>
<name>2591</name>
</trkpt>
<trkpt lat="41.671798" lon="-0.631683">
<ele>443.0</ele>
<speed>19.5</speed>
<course>81.8</course>
<desc>Speed 19.5 km/h Distance 14.48 km</desc>
<time>2011-09-29T10:43:10.98</time>
<name>2592</name>
</trkpt>
<trkpt lat="41.671805" lon="-0.631622">
<ele>443.0</ele>
<speed>19.0</speed>
<course>70.5</course>
<desc>Speed 19.0 km/h Distance 14.48 km</desc>
<time>2011-09-29T10:43:11.98</time>
<name>2593</name>
</trkpt>
<trkpt lat="41.671820" lon="-0.631565">
<ele>444.0</ele>
<speed>18.0</speed>
<course>66.6</course>
<desc>Speed 18.0 km/h Distance 14.49 km</desc>
<time>2011-09-29T10:43:12.98</time>
<name>2594</name>
</trkpt>
<trkpt lat="41.671837" lon="-0.631513">
<ele>444.0</ele>
<speed>16.8</speed>
<course>58.3</course>
<desc>Speed 16.8 km/h Distance 14.49 km</desc>
<time>2011-09-29T10:43:13.98</time>
<name>2595</name>
</trkpt>
<trkpt lat="41.671857" lon="-0.631470">
<ele>444.5</ele>
<speed>15.3</speed>
<course>50.8</course>
<desc>Speed 15.3 km/h Distance 14.50 km</desc>
<time>2011-09-29T10:43:14.98</time>
<name>2596</name>
</trkpt>
<trkpt lat="41.671880" lon="-0.631432">
<ele>444.5</ele>
<speed>14.5</speed>
<course>47.6</course>
<desc>Speed 14.5 km/h Distance 14.50 km</desc>
<time>2011-09-29T10:43:15.98</time>
<name>2597</name>
</trkpt>
<trkpt lat="41.671905" lon="-0.631395">
<ele>445.0</ele>
<speed>14.7</speed>
<course>44.4</course>
<desc>Speed 14.7 km/h Distance 14.51 km</desc>
<time>2011-09-29T10:43:16.98</time>
<name>2598</name>
</trkpt>
<trkpt lat="41.671932" lon="-0.631360">
<ele>445.0</ele>
<speed>14.6</speed>
<course>39.1</course>
<desc>Speed 14.6 km/h Distance 14.51 km</desc>
<time>2011-09-29T10:43:18.68</time>
<name>2599</name>
</trkpt>
<trkpt lat="41.671988" lon="-0.631298">
<ele>446.0</ele>
<speed>14.5</speed>
<course>36.7</course>
<desc>Speed 14.5 km/h Distance 14.52 km</desc>
<time>2011-09-29T10:43:19.98</time>
<name>2600</name>
</trkpt>
<trkpt lat="41.672017" lon="-0.631270">
<ele>446.5</ele>
<speed>13.8</speed>
<course>35.1</course>
<desc>Speed 13.8 km/h Distance 14.52 km</desc>
<time>2011-09-29T10:43:20.98</time>
<name>2601</name>
</trkpt>
<trkpt lat="41.672045" lon="-0.631243">
<ele>447.0</ele>
<speed>13.8</speed>
<course>38.3</course>
<desc>Speed 13.8 km/h Distance 14.53 km</desc>
<time>2011-09-29T10:43:21.98</time>
<name>2602</name>
</trkpt>
<trkpt lat="41.672073" lon="-0.631213">
<ele>447.0</ele>
<speed>14.0</speed>
<course>32.2</course>
<desc>Speed 14.0 km/h Distance 14.53 km</desc>
<time>2011-09-29T10:43:22.98</time>
<name>2603</name>
</trkpt>
<trkpt lat="41.672105" lon="-0.631187">
<ele>447.5</ele>
<speed>14.9</speed>
<course>33.8</course>
<desc>Speed 14.9 km/h Distance 14.53 km</desc>
<time>2011-09-29T10:43:23.97</time>
<name>2604</name>
</trkpt>
<trkpt lat="41.672137" lon="-0.631158">
<ele>448.0</ele>
<speed>15.0</speed>
<course>30.5</course>
<desc>Speed 15.0 km/h Distance 14.54 km</desc>
<time>2011-09-29T10:43:24.97</time>
<name>2605</name>
</trkpt>
<trkpt lat="41.672168" lon="-0.631133">
<ele>448.5</ele>
<speed>14.9</speed>
<course>32.2</course>
<desc>Speed 14.9 km/h Distance 14.54 km</desc>
<time>2011-09-29T10:43:25.97</time>
<name>2606</name>
</trkpt>
<trkpt lat="41.672200" lon="-0.631107">
<ele>449.0</ele>
<speed>14.5</speed>
<course>30.5</course>
<desc>Speed 14.5 km/h Distance 14.55 km</desc>
<time>2011-09-29T10:43:26.97</time>
<name>2607</name>
</trkpt>
<trkpt lat="41.672232" lon="-0.631082">
<ele>449.5</ele>
<speed>14.4</speed>
<course>29.0</course>
<desc>Speed 14.4 km/h Distance 14.55 km</desc>
<time>2011-09-29T10:43:28.51</time>
<name>2608</name>
</trkpt>
<trkpt lat="41.672297" lon="-0.631033">
<ele>449.5</ele>
<speed>15.3</speed>
<course>27.0</course>
<desc>Speed 15.3 km/h Distance 14.56 km</desc>
<time>2011-09-29T10:43:29.98</time>
<name>2609</name>
</trkpt>
<trkpt lat="41.672333" lon="-0.631008">
<ele>449.5</ele>
<speed>15.9</speed>
<course>25.4</course>
<desc>Speed 15.9 km/h Distance 14.56 km</desc>
<time>2011-09-29T10:43:30.97</time>
<name>2610</name>
</trkpt>
<trkpt lat="41.672370" lon="-0.630985">
<ele>449.5</ele>
<speed>16.3</speed>
<course>27.5</course>
<desc>Speed 16.3 km/h Distance 14.57 km</desc>
<time>2011-09-29T10:43:31.97</time>
<name>2611</name>
</trkpt>
<trkpt lat="41.672408" lon="-0.630958">
<ele>449.5</ele>
<speed>16.6</speed>
<course>34.1</course>
<desc>Speed 16.6 km/h Distance 14.57 km</desc>
<time>2011-09-29T10:43:32.97</time>
<name>2612</name>
</trkpt>
<trkpt lat="41.672443" lon="-0.630927">
<ele>449.5</ele>
<speed>17.0</speed>
<course>32.8</course>
<desc>Speed 17.0 km/h Distance 14.58 km</desc>
<time>2011-09-29T10:43:33.97</time>
<name>2613</name>
</trkpt>
<trkpt lat="41.672480" lon="-0.630895">
<ele>450.0</ele>
<speed>17.2</speed>
<course>34.2</course>
<desc>Speed 17.2 km/h Distance 14.58 km</desc>
<time>2011-09-29T10:43:34.97</time>
<name>2614</name>
</trkpt>
<trkpt lat="41.672517" lon="-0.630862">
<ele>450.0</ele>
<speed>17.4</speed>
<course>31.7</course>
<desc>Speed 17.4 km/h Distance 14.59 km</desc>
<time>2011-09-29T10:43:35.97</time>
<name>2615</name>
</trkpt>
<trkpt lat="41.672555" lon="-0.630830">
<ele>450.0</ele>
<speed>17.4</speed>
<course>35.4</course>
<desc>Speed 17.4 km/h Distance 14.59 km</desc>
<time>2011-09-29T10:43:37.97</time>
<name>2616</name>
</trkpt>
<trkpt lat="41.672590" lon="-0.630797">
<ele>450.0</ele>
<speed>17.0</speed>
<course>36.1</course>
<desc>Speed 17.0 km/h Distance 14.60 km</desc>
<time>2011-09-29T10:43:39.26</time>
<name>2617</name>
</trkpt>
<trkpt lat="41.672660" lon="-0.630728">
<ele>450.5</ele>
<speed>16.8</speed>
<course>38.1</course>
<desc>Speed 16.8 km/h Distance 14.61 km</desc>
<time>2011-09-29T10:43:40.96</time>
<name>2618</name>
</trkpt>
<trkpt lat="41.672693" lon="-0.630693">
<ele>450.5</ele>
<speed>17.0</speed>
<course>40.7</course>
<desc>Speed 17.0 km/h Distance 14.61 km</desc>
<time>2011-09-29T10:43:41.96</time>
<name>2619</name>
</trkpt>
<trkpt lat="41.672727" lon="-0.630655">
<ele>450.5</ele>
<speed>17.1</speed>
<course>36.8</course>
<desc>Speed 17.1 km/h Distance 14.62 km</desc>
<time>2011-09-29T10:43:42.96</time>
<name>2620</name>
</trkpt>
<trkpt lat="41.672762" lon="-0.630620">
<ele>451.0</ele>
<speed>17.1</speed>
<course>39.5</course>
<desc>Speed 17.1 km/h Distance 14.62 km</desc>
<time>2011-09-29T10:43:43.96</time>
<name>2621</name>
</trkpt>
<trkpt lat="41.672793" lon="-0.630585">
<ele>451.0</ele>
<speed>16.8</speed>
<course>36.7</course>
<desc>Speed 16.8 km/h Distance 14.63 km</desc>
<time>2011-09-29T10:43:45.03</time>
<name>2622</name>
</trkpt>
<trkpt lat="41.672827" lon="-0.630552">
<ele>451.5</ele>
<speed>16.4</speed>
<course>34.0</course>
<desc>Speed 16.4 km/h Distance 14.63 km</desc>
<time>2011-09-29T10:43:46.17</time>
<name>2623</name>
</trkpt>
<trkpt lat="41.672862" lon="-0.630520">
<ele>451.5</ele>
<speed>16.6</speed>
<course>31.1</course>
<desc>Speed 16.6 km/h Distance 14.64 km</desc>
<time>2011-09-29T10:43:46.96</time>
<name>2624</name>
</trkpt>
<trkpt lat="41.672897" lon="-0.630492">
<ele>452.0</ele>
<speed>16.3</speed>
<course>30.0</course>
<desc>Speed 16.3 km/h Distance 14.64 km</desc>
<time>2011-09-29T10:43:47.97</time>
<name>2625</name>
</trkpt>
<trkpt lat="41.672933" lon="-0.630463">
<ele>452.0</ele>
<speed>16.6</speed>
<course>23.6</course>
<desc>Speed 16.6 km/h Distance 14.65 km</desc>
<time>2011-09-29T10:43:48.96</time>
<name>2626</name>
</trkpt>
<trkpt lat="41.672973" lon="-0.630440">
<ele>452.0</ele>
<speed>16.9</speed>
<course>27.5</course>
<desc>Speed 16.9 km/h Distance 14.65 km</desc>
<time>2011-09-29T10:43:49.96</time>
<name>2627</name>
</trkpt>
<trkpt lat="41.673012" lon="-0.630413">
<ele>452.0</ele>
<speed>17.1</speed>
<course>28.9</course>
<desc>Speed 17.1 km/h Distance 14.66 km</desc>
<time>2011-09-29T10:43:50.96</time>
<name>2628</name>
</trkpt>
<trkpt lat="41.673050" lon="-0.630385">
<ele>452.0</ele>
<speed>17.4</speed>
<course>31.7</course>
<desc>Speed 17.4 km/h Distance 14.66 km</desc>
<time>2011-09-29T10:43:51.96</time>
<name>2629</name>
</trkpt>
<trkpt lat="41.673088" lon="-0.630353">
<ele>452.0</ele>
<speed>17.6</speed>
<course>31.6</course>
<desc>Speed 17.6 km/h Distance 14.66 km</desc>
<time>2011-09-29T10:43:53.30</time>
<name>2630</name>
</trkpt>
<trkpt lat="41.673163" lon="-0.630292">
<ele>452.5</ele>
<speed>17.3</speed>
<course>31.7</course>
<desc>Speed 17.3 km/h Distance 14.67 km</desc>
<time>2011-09-29T10:43:54.95</time>
<name>2631</name>
</trkpt>
<trkpt lat="41.673202" lon="-0.630260">
<ele>452.5</ele>
<speed>17.2</speed>
<course>34.2</course>
<desc>Speed 17.2 km/h Distance 14.68 km</desc>
<time>2011-09-29T10:43:55.96</time>
<name>2632</name>
</trkpt>
<trkpt lat="41.673238" lon="-0.630227">
<ele>452.5</ele>
<speed>17.6</speed>
<course>34.2</course>
<desc>Speed 17.6 km/h Distance 14.68 km</desc>
<time>2011-09-29T10:43:56.95</time>
<name>2633</name>
</trkpt>
<trkpt lat="41.673275" lon="-0.630193">
<ele>453.0</ele>
<speed>17.5</speed>
<course>35.3</course>
<desc>Speed 17.5 km/h Distance 14.69 km</desc>
<time>2011-09-29T10:43:58.70</time>
<name>2634</name>
</trkpt>
<trkpt lat="41.673340" lon="-0.630132">
<ele>454.0</ele>
<speed>14.9</speed>
<course>40.0</course>
<desc>Speed 14.9 km/h Distance 14.70 km</desc>
<time>2011-09-29T10:43:59.95</time>
<name>2635</name>
</trkpt>
<trkpt lat="41.673367" lon="-0.630102">
<ele>454.5</ele>
<speed>14.1</speed>
<course>33.6</course>
<desc>Speed 14.1 km/h Distance 14.70 km</desc>
<time>2011-09-29T10:44:00.95</time>
<name>2636</name>
</trkpt>
<trkpt lat="41.673397" lon="-0.630075">
<ele>455.0</ele>
<speed>14.2</speed>
<course>35.2</course>
<desc>Speed 14.2 km/h Distance 14.71 km</desc>
<time>2011-09-29T10:44:01.95</time>
<name>2637</name>
</trkpt>
<trkpt lat="41.673427" lon="-0.630047">
<ele>455.5</ele>
<speed>14.4</speed>
<course>38.4</course>
<desc>Speed 14.4 km/h Distance 14.71 km</desc>
<time>2011-09-29T10:44:02.95</time>
<name>2638</name>
</trkpt>
<trkpt lat="41.673455" lon="-0.630017">
<ele>456.0</ele>
<speed>14.7</speed>
<course>39.9</course>
<desc>Speed 14.7 km/h Distance 14.71 km</desc>
<time>2011-09-29T10:44:03.95</time>
<name>2639</name>
</trkpt>
<trkpt lat="41.673483" lon="-0.629985">
<ele>457.0</ele>
<speed>14.3</speed>
<course>35.2</course>
<desc>Speed 14.3 km/h Distance 14.72 km</desc>
<time>2011-09-29T10:44:04.95</time>
<name>2640</name>
</trkpt>
<trkpt lat="41.673513" lon="-0.629957">
<ele>457.0</ele>
<speed>14.8</speed>
<course>30.5</course>
<desc>Speed 14.8 km/h Distance 14.72 km</desc>
<time>2011-09-29T10:44:05.95</time>
<name>2641</name>
</trkpt>
<trkpt lat="41.673545" lon="-0.629932">
<ele>457.5</ele>
<speed>14.5</speed>
<course>36.7</course>
<desc>Speed 14.5 km/h Distance 14.73 km</desc>
<time>2011-09-29T10:44:06.95</time>
<name>2642</name>
</trkpt>
<trkpt lat="41.673575" lon="-0.629902">
<ele>458.0</ele>
<speed>14.7</speed>
<course>33.0</course>
<desc>Speed 14.7 km/h Distance 14.73 km</desc>
<time>2011-09-29T10:44:08.53</time>
<name>2643</name>
</trkpt>
<trkpt lat="41.673638" lon="-0.629847">
<ele>458.0</ele>
<speed>15.4</speed>
<course>31.4</course>
<desc>Speed 15.4 km/h Distance 14.74 km</desc>
<time>2011-09-29T10:44:09.95</time>
<name>2644</name>
</trkpt>
<trkpt lat="41.673675" lon="-0.629817">
<ele>457.5</ele>
<speed>17.0</speed>
<course>29.3</course>
<desc>Speed 17.0 km/h Distance 14.74 km</desc>
<time>2011-09-29T10:44:10.95</time>
<name>2645</name>
</trkpt>
<trkpt lat="41.673715" lon="-0.629787">
<ele>457.5</ele>
<speed>17.9</speed>
<course>27.9</course>
<desc>Speed 17.9 km/h Distance 14.75 km</desc>
<time>2011-09-29T10:44:11.94</time>
<name>2646</name>
</trkpt>
<trkpt lat="41.673755" lon="-0.629758">
<ele>457.0</ele>
<speed>18.4</speed>
<course>23.3</course>
<desc>Speed 18.4 km/h Distance 14.75 km</desc>
<time>2011-09-29T10:44:12.94</time>
<name>2647</name>
</trkpt>
<trkpt lat="41.673798" lon="-0.629733">
<ele>457.0</ele>
<speed>18.5</speed>
<course>24.7</course>
<desc>Speed 18.5 km/h Distance 14.76 km</desc>
<time>2011-09-29T10:44:13.95</time>
<name>2648</name>
</trkpt>
<trkpt lat="41.673842" lon="-0.629707">
<ele>457.0</ele>
<speed>18.4</speed>
<course>30.3</course>
<desc>Speed 18.4 km/h Distance 14.76 km</desc>
<time>2011-09-29T10:44:14.94</time>
<name>2649</name>
</trkpt>
<trkpt lat="41.673880" lon="-0.629677">
<ele>457.0</ele>
<speed>18.0</speed>
<course>31.7</course>
<desc>Speed 18.0 km/h Distance 14.77 km</desc>
<time>2011-09-29T10:44:15.94</time>
<name>2650</name>
</trkpt>
<trkpt lat="41.673918" lon="-0.629645">
<ele>457.0</ele>
<speed>17.8</speed>
<course>33.0</course>
<desc>Speed 17.8 km/h Distance 14.77 km</desc>
<time>2011-09-29T10:44:16.94</time>
<name>2651</name>
</trkpt>
<trkpt lat="41.673957" lon="-0.629612">
<ele>457.0</ele>
<speed>17.9</speed>
<course>36.8</course>
<desc>Speed 17.9 km/h Distance 14.78 km</desc>
<time>2011-09-29T10:44:18.21</time>
<name>2652</name>
</trkpt>
<trkpt lat="41.674028" lon="-0.629540">
<ele>457.5</ele>
<speed>17.8</speed>
<course>38.0</course>
<desc>Speed 17.8 km/h Distance 14.79 km</desc>
<time>2011-09-29T10:44:19.94</time>
<name>2653</name>
</trkpt>
<trkpt lat="41.674063" lon="-0.629503">
<ele>457.5</ele>
<speed>17.9</speed>
<course>36.8</course>
<desc>Speed 17.9 km/h Distance 14.79 km</desc>
<time>2011-09-29T10:44:20.94</time>
<name>2654</name>
</trkpt>
<trkpt lat="41.674100" lon="-0.629467">
<ele>457.5</ele>
<speed>18.0</speed>
<course>35.5</course>
<desc>Speed 18.0 km/h Distance 14.80 km</desc>
<time>2011-09-29T10:44:21.94</time>
<name>2655</name>
</trkpt>
<trkpt lat="41.674137" lon="-0.629432">
<ele>457.5</ele>
<speed>17.9</speed>
<course>35.5</course>
<desc>Speed 17.9 km/h Distance 14.80 km</desc>
<time>2011-09-29T10:44:22.94</time>
<name>2656</name>
</trkpt>
<trkpt lat="41.674173" lon="-0.629397">
<ele>457.5</ele>
<speed>17.5</speed>
<course>34.2</course>
<desc>Speed 17.5 km/h Distance 14.81 km</desc>
<time>2011-09-29T10:44:23.94</time>
<name>2657</name>
</trkpt>
<trkpt lat="41.674210" lon="-0.629363">
<ele>457.5</ele>
<speed>17.3</speed>
<course>27.5</course>
<desc>Speed 17.3 km/h Distance 14.81 km</desc>
<time>2011-09-29T10:44:25.15</time>
<name>2658</name>
</trkpt>
<trkpt lat="41.674248" lon="-0.629337">
<ele>457.5</ele>
<speed>17.4</speed>
<course>27.5</course>
<desc>Speed 17.4 km/h Distance 14.82 km</desc>
<time>2011-09-29T10:44:25.94</time>
<name>2659</name>
</trkpt>
<trkpt lat="41.674287" lon="-0.629310">
<ele>458.0</ele>
<speed>17.5</speed>
<course>27.5</course>
<desc>Speed 17.5 km/h Distance 14.82 km</desc>
<time>2011-09-29T10:44:26.93</time>
<name>2660</name>
</trkpt>
<trkpt lat="41.674325" lon="-0.629283">
<ele>458.0</ele>
<speed>17.0</speed>
<course>27.5</course>
<desc>Speed 17.0 km/h Distance 14.83 km</desc>
<time>2011-09-29T10:44:27.95</time>
<name>2661</name>
</trkpt>
<trkpt lat="41.674363" lon="-0.629257">
<ele>458.0</ele>
<speed>17.2</speed>
<course>21.3</course>
<desc>Speed 17.2 km/h Distance 14.83 km</desc>
<time>2011-09-29T10:44:28.93</time>
<name>2662</name>
</trkpt>
<trkpt lat="41.674402" lon="-0.629237">
<ele>458.5</ele>
<speed>16.7</speed>
<course>16.7</course>
<desc>Speed 16.7 km/h Distance 14.84 km</desc>
<time>2011-09-29T10:44:29.94</time>
<name>2663</name>
</trkpt>
<trkpt lat="41.674443" lon="-0.629220">
<ele>458.5</ele>
<speed>16.9</speed>
<course>18.2</course>
<desc>Speed 16.9 km/h Distance 14.84 km</desc>
<time>2011-09-29T10:44:30.93</time>
<name>2664</name>
</trkpt>
<trkpt lat="41.674485" lon="-0.629202">
<ele>459.0</ele>
<speed>17.2</speed>
<course>12.3</course>
<desc>Speed 17.2 km/h Distance 14.85 km</desc>
<time>2011-09-29T10:44:31.94</time>
<name>2665</name>
</trkpt>
<trkpt lat="41.674525" lon="-0.629190">
<ele>459.0</ele>
<speed>16.6</speed>
<course>9.1</course>
<desc>Speed 16.6 km/h Distance 14.85 km</desc>
<time>2011-09-29T10:44:32.93</time>
<name>2666</name>
</trkpt>
<trkpt lat="41.674563" lon="-0.629182">
<ele>459.5</ele>
<speed>15.7</speed>
<course>3.6</course>
<desc>Speed 15.7 km/h Distance 14.86 km</desc>
<time>2011-09-29T10:44:33.93</time>
<name>2667</name>
</trkpt>
<trkpt lat="41.674602" lon="-0.629178">
<ele>460.5</ele>
<speed>15.0</speed>
<course>0.0</course>
<desc>Speed 15.0 km/h Distance 14.86 km</desc>
<time>2011-09-29T10:44:34.93</time>
<name>2668</name>
</trkpt>
<trkpt lat="41.674640" lon="-0.629178">
<ele>460.5</ele>
<speed>14.8</speed>
<course>0.0</course>
<desc>Speed 14.8 km/h Distance 14.87 km</desc>
<time>2011-09-29T10:44:35.93</time>
<name>2669</name>
</trkpt>
<trkpt lat="41.674677" lon="-0.629178">
<ele>461.0</ele>
<speed>14.8</speed>
<course>354.8</course>
<desc>Speed 14.8 km/h Distance 14.87 km</desc>
<time>2011-09-29T10:44:37.71</time>
<name>2670</name>
</trkpt>
<trkpt lat="41.674785" lon="-0.629192">
<ele>462.0</ele>
<speed>13.5</speed>
<course>357.7</course>
<desc>Speed 13.5 km/h Distance 14.88 km</desc>
<time>2011-09-29T10:44:39.92</time>
<name>2671</name>
</trkpt>
<trkpt lat="41.674817" lon="-0.629193">
<ele>462.0</ele>
<speed>13.0</speed>
<course>358.1</course>
<desc>Speed 13.0 km/h Distance 14.89 km</desc>
<time>2011-09-29T10:44:40.92</time>
<name>2672</name>
</trkpt>
<trkpt lat="41.674850" lon="-0.629195">
<ele>462.0</ele>
<speed>12.8</speed>
<course>358.1</course>
<desc>Speed 12.8 km/h Distance 14.89 km</desc>
<time>2011-09-29T10:44:41.92</time>
<name>2673</name>
</trkpt>
<trkpt lat="41.674883" lon="-0.629197">
<ele>462.0</ele>
<speed>12.8</speed>
<course>0.0</course>
<desc>Speed 12.8 km/h Distance 14.89 km</desc>
<time>2011-09-29T10:44:42.92</time>
<name>2674</name>
</trkpt>
<trkpt lat="41.674918" lon="-0.629197">
<ele>462.0</ele>
<speed>13.5</speed>
<course>5.7</course>
<desc>Speed 13.5 km/h Distance 14.90 km</desc>
<time>2011-09-29T10:44:43.92</time>
<name>2675</name>
</trkpt>
<trkpt lat="41.674955" lon="-0.629192">
<ele>462.0</ele>
<speed>14.1</speed>
<course>1.7</course>
<desc>Speed 14.1 km/h Distance 14.90 km</desc>
<time>2011-09-29T10:44:44.92</time>
<name>2676</name>
</trkpt>
<trkpt lat="41.674990" lon="-0.629190">
<ele>462.0</ele>
<speed>14.0</speed>
<course>3.8</course>
<desc>Speed 14.0 km/h Distance 14.90 km</desc>
<time>2011-09-29T10:44:45.92</time>
<name>2677</name>
</trkpt>
<trkpt lat="41.675025" lon="-0.629187">
<ele>462.0</ele>
<speed>14.1</speed>
<course>3.9</course>
<desc>Speed 14.1 km/h Distance 14.91 km</desc>
<time>2011-09-29T10:44:47.42</time>
<name>2678</name>
</trkpt>
<trkpt lat="41.675100" lon="-0.629180">
<ele>462.5</ele>
<speed>14.6</speed>
<course>5.9</course>
<desc>Speed 14.6 km/h Distance 14.92 km</desc>
<time>2011-09-29T10:44:48.91</time>
<name>2679</name>
</trkpt>
<trkpt lat="41.675137" lon="-0.629175">
<ele>463.0</ele>
<speed>14.5</speed>
<course>7.4</course>
<desc>Speed 14.5 km/h Distance 14.92 km</desc>
<time>2011-09-29T10:44:49.92</time>
<name>2680</name>
</trkpt>
<trkpt lat="41.675175" lon="-0.629168">
<ele>463.0</ele>
<speed>15.0</speed>
<course>11.0</course>
<desc>Speed 15.0 km/h Distance 14.93 km</desc>
<time>2011-09-29T10:44:50.92</time>
<name>2681</name>
</trkpt>
<trkpt lat="41.675213" lon="-0.629158">
<ele>463.0</ele>
<speed>15.2</speed>
<course>18.8</course>
<desc>Speed 15.2 km/h Distance 14.93 km</desc>
<time>2011-09-29T10:44:51.92</time>
<name>2682</name>
</trkpt>
<trkpt lat="41.675250" lon="-0.629142">
<ele>463.5</ele>
<speed>15.2</speed>
<course>28.8</course>
<desc>Speed 15.2 km/h Distance 14.93 km</desc>
<time>2011-09-29T10:44:52.92</time>
<name>2683</name>
</trkpt>
<trkpt lat="41.675282" lon="-0.629118">
<ele>463.5</ele>
<speed>14.3</speed>
<course>41.6</course>
<desc>Speed 14.3 km/h Distance 14.94 km</desc>
<time>2011-09-29T10:44:53.92</time>
<name>2684</name>
</trkpt>
<trkpt lat="41.675308" lon="-0.629087">
<ele>463.5</ele>
<speed>14.0</speed>
<course>36.8</course>
<desc>Speed 14.0 km/h Distance 14.94 km</desc>
<time>2011-09-29T10:44:54.92</time>
<name>2685</name>
</trkpt>
<trkpt lat="41.675337" lon="-0.629058">
<ele>463.5</ele>
<speed>13.8</speed>
<course>39.9</course>
<desc>Speed 13.8 km/h Distance 14.95 km</desc>
<time>2011-09-29T10:44:55.91</time>
<name>2686</name>
</trkpt>
<trkpt lat="41.675365" lon="-0.629027">
<ele>463.5</ele>
<speed>14.4</speed>
<course>44.4</course>
<desc>Speed 14.4 km/h Distance 14.95 km</desc>
<time>2011-09-29T10:44:57.15</time>
<name>2687</name>
</trkpt>
<trkpt lat="41.675392" lon="-0.628992">
<ele>463.5</ele>
<speed>14.4</speed>
<course>46.9</course>
<desc>Speed 14.4 km/h Distance 14.95 km</desc>
<time>2011-09-29T10:44:57.91</time>
<name>2688</name>
</trkpt>
<trkpt lat="41.675415" lon="-0.628958">
<ele>463.5</ele>
<speed>14.1</speed>
<course>52.9</course>
<desc>Speed 14.1 km/h Distance 14.96 km</desc>
<time>2011-09-29T10:44:58.91</time>
<name>2689</name>
</trkpt>
<trkpt lat="41.675437" lon="-0.628920">
<ele>463.5</ele>
<speed>13.6</speed>
<course>53.9</course>
<desc>Speed 13.6 km/h Distance 14.96 km</desc>
<time>2011-09-29T10:44:59.91</time>
<name>2690</name>
</trkpt>
<trkpt lat="41.675457" lon="-0.628883">
<ele>464.0</ele>
<speed>13.5</speed>
<course>56.2</course>
<desc>Speed 13.5 km/h Distance 14.97 km</desc>
<time>2011-09-29T10:45:00.91</time>
<name>2691</name>
</trkpt>
<trkpt lat="41.675475" lon="-0.628847">
<ele>464.0</ele>
<speed>13.5</speed>
<course>57.4</course>
<desc>Speed 13.5 km/h Distance 14.97 km</desc>
<time>2011-09-29T10:45:01.91</time>
<name>2692</name>
</trkpt>
<trkpt lat="41.675493" lon="-0.628808">
<ele>464.0</ele>
<speed>13.7</speed>
<course>53.9</course>
<desc>Speed 13.7 km/h Distance 14.97 km</desc>
<time>2011-09-29T10:45:02.91</time>
<name>2693</name>
</trkpt>
<trkpt lat="41.675513" lon="-0.628772">
<ele>464.0</ele>
<speed>13.5</speed>
<course>57.4</course>
<desc>Speed 13.5 km/h Distance 14.98 km</desc>
<time>2011-09-29T10:45:04.09</time>
<name>2694</name>
</trkpt>
<trkpt lat="41.675532" lon="-0.628733">
<ele>464.0</ele>
<speed>13.8</speed>
<course>58.5</course>
<desc>Speed 13.8 km/h Distance 14.98 km</desc>
<time>2011-09-29T10:45:04.91</time>
<name>2695</name>
</trkpt>
<trkpt lat="41.675550" lon="-0.628693">
<ele>464.0</ele>
<speed>14.2</speed>
<course>58.5</course>
<desc>Speed 14.2 km/h Distance 14.98 km</desc>
<time>2011-09-29T10:45:05.91</time>
<name>2696</name>
</trkpt>
<trkpt lat="41.675568" lon="-0.628653">
<ele>464.5</ele>
<speed>13.9</speed>
<course>59.8</course>
<desc>Speed 13.9 km/h Distance 14.99 km</desc>
<time>2011-09-29T10:45:06.93</time>
<name>2697</name>
</trkpt>
<trkpt lat="41.675585" lon="-0.628615">
<ele>464.5</ele>
<speed>13.5</speed>
<course>60.8</course>
<desc>Speed 13.5 km/h Distance 14.99 km</desc>
<time>2011-09-29T10:45:08.05</time>
<name>2698</name>
</trkpt>
<trkpt lat="41.675602" lon="-0.628575">
<ele>464.5</ele>
<speed>14.0</speed>
<course>59.5</course>
<desc>Speed 14.0 km/h Distance 15.00 km</desc>
<time>2011-09-29T10:45:08.90</time>
<name>2699</name>
</trkpt>
<trkpt lat="41.675620" lon="-0.628533">
<ele>464.5</ele>
<speed>14.2</speed>
<course>60.8</course>
<desc>Speed 14.2 km/h Distance 15.00 km</desc>
<time>2011-09-29T10:45:09.92</time>
<name>2700</name>
</trkpt>
<trkpt lat="41.675637" lon="-0.628493">
<ele>465.0</ele>
<speed>14.0</speed>
<course>61.8</course>
<desc>Speed 14.0 km/h Distance 15.00 km</desc>
<time>2011-09-29T10:45:10.90</time>
<name>2701</name>
</trkpt>
<trkpt lat="41.675653" lon="-0.628452">
<ele>465.0</ele>
<speed>14.0</speed>
<course>61.8</course>
<desc>Speed 14.0 km/h Distance 15.01 km</desc>
<time>2011-09-29T10:45:11.90</time>
<name>2702</name>
</trkpt>
<trkpt lat="41.675670" lon="-0.628410">
<ele>465.0</ele>
<speed>13.9</speed>
<course>64.3</course>
<desc>Speed 13.9 km/h Distance 15.01 km</desc>
<time>2011-09-29T10:45:12.90</time>
<name>2703</name>
</trkpt>
<trkpt lat="41.675685" lon="-0.628368">
<ele>465.5</ele>
<speed>13.9</speed>
<course>62.8</course>
<desc>Speed 13.9 km/h Distance 15.02 km</desc>
<time>2011-09-29T10:45:13.90</time>
<name>2704</name>
</trkpt>
<trkpt lat="41.675702" lon="-0.628325">
<ele>465.5</ele>
<speed>14.2</speed>
<course>61.8</course>
<desc>Speed 14.2 km/h Distance 15.02 km</desc>
<time>2011-09-29T10:45:14.90</time>
<name>2705</name>
</trkpt>
<trkpt lat="41.675718" lon="-0.628283">
<ele>465.5</ele>
<speed>14.3</speed>
<course>63.0</course>
<desc>Speed 14.3 km/h Distance 15.02 km</desc>
<time>2011-09-29T10:45:16.62</time>
<name>2706</name>
</trkpt>
<trkpt lat="41.675750" lon="-0.628200">
<ele>466.0</ele>
<speed>14.0</speed>
<course>64.3</course>
<desc>Speed 14.0 km/h Distance 15.03 km</desc>
<time>2011-09-29T10:45:17.90</time>
<name>2707</name>
</trkpt>
<trkpt lat="41.675765" lon="-0.628158">
<ele>466.0</ele>
<speed>14.0</speed>
<course>61.8</course>
<desc>Speed 14.0 km/h Distance 15.04 km</desc>
<time>2011-09-29T10:45:18.90</time>
<name>2708</name>
</trkpt>
<trkpt lat="41.675782" lon="-0.628117">
<ele>466.0</ele>
<speed>13.9</speed>
<course>65.1</course>
<desc>Speed 13.9 km/h Distance 15.04 km</desc>
<time>2011-09-29T10:45:19.90</time>
<name>2709</name>
</trkpt>
<trkpt lat="41.675797" lon="-0.628073">
<ele>466.5</ele>
<speed>14.0</speed>
<course>64.3</course>
<desc>Speed 14.0 km/h Distance 15.04 km</desc>
<time>2011-09-29T10:45:20.90</time>
<name>2710</name>
</trkpt>
<trkpt lat="41.675812" lon="-0.628032">
<ele>466.5</ele>
<speed>13.9</speed>
<course>61.8</course>
<desc>Speed 13.9 km/h Distance 15.05 km</desc>
<time>2011-09-29T10:45:21.90</time>
<name>2711</name>
</trkpt>
<trkpt lat="41.675828" lon="-0.627990">
<ele>466.5</ele>
<speed>14.0</speed>
<course>63.3</course>
<desc>Speed 14.0 km/h Distance 15.05 km</desc>
<time>2011-09-29T10:45:22.90</time>
<name>2712</name>
</trkpt>
<trkpt lat="41.675843" lon="-0.627950">
<ele>466.5</ele>
<speed>13.6</speed>
<course>63.3</course>
<desc>Speed 13.6 km/h Distance 15.05 km</desc>
<time>2011-09-29T10:45:23.89</time>
<name>2713</name>
</trkpt>
<trkpt lat="41.675858" lon="-0.627910">
<ele>467.0</ele>
<speed>13.5</speed>
<course>60.8</course>
<desc>Speed 13.5 km/h Distance 15.06 km</desc>
<time>2011-09-29T10:45:24.89</time>
<name>2714</name>
</trkpt>
<trkpt lat="41.675875" lon="-0.627870">
<ele>467.0</ele>
<speed>13.5</speed>
<course>65.5</course>
<desc>Speed 13.5 km/h Distance 15.06 km</desc>
<time>2011-09-29T10:45:26.35</time>
<name>2715</name>
</trkpt>
<trkpt lat="41.675902" lon="-0.627792">
<ele>467.5</ele>
<speed>13.0</speed>
<course>62.3</course>
<desc>Speed 13.0 km/h Distance 15.07 km</desc>
<time>2011-09-29T10:45:27.89</time>
<name>2716</name>
</trkpt>
<trkpt lat="41.675917" lon="-0.627753">
<ele>468.0</ele>
<speed>12.9</speed>
<course>70.2</course>
<desc>Speed 12.9 km/h Distance 15.07 km</desc>
<time>2011-09-29T10:45:28.89</time>
<name>2717</name>
</trkpt>
<trkpt lat="41.675928" lon="-0.627710">
<ele>468.0</ele>
<speed>13.8</speed>
<course>69.5</course>
<desc>Speed 13.8 km/h Distance 15.08 km</desc>
<time>2011-09-29T10:45:29.89</time>
<name>2718</name>
</trkpt>
<trkpt lat="41.675940" lon="-0.627668">
<ele>468.5</ele>
<speed>13.6</speed>
<course>64.3</course>
<desc>Speed 13.6 km/h Distance 15.08 km</desc>
<time>2011-09-29T10:45:30.89</time>
<name>2719</name>
</trkpt>
<trkpt lat="41.675955" lon="-0.627627">
<ele>468.5</ele>
<speed>13.7</speed>
<course>64.3</course>
<desc>Speed 13.7 km/h Distance 15.08 km</desc>
<time>2011-09-29T10:45:31.89</time>
<name>2720</name>
</trkpt>
<trkpt lat="41.675970" lon="-0.627585">
<ele>469.0</ele>
<speed>13.8</speed>
<course>64.3</course>
<desc>Speed 13.8 km/h Distance 15.09 km</desc>
<time>2011-09-29T10:45:32.89</time>
<name>2721</name>
</trkpt>
<trkpt lat="41.675985" lon="-0.627543">
<ele>469.0</ele>
<speed>13.8</speed>
<course>64.3</course>
<desc>Speed 13.8 km/h Distance 15.09 km</desc>
<time>2011-09-29T10:45:33.89</time>
<name>2722</name>
</trkpt>
<trkpt lat="41.676000" lon="-0.627502">
<ele>469.0</ele>
<speed>13.8</speed>
<course>69.5</course>
<desc>Speed 13.8 km/h Distance 15.10 km</desc>
<time>2011-09-29T10:45:34.89</time>
<name>2723</name>
</trkpt>
<trkpt lat="41.676012" lon="-0.627460">
<ele>469.5</ele>
<speed>13.6</speed>
<course>63.3</course>
<desc>Speed 13.6 km/h Distance 15.10 km</desc>
<time>2011-09-29T10:45:36.09</time>
<name>2724</name>
</trkpt>
<trkpt lat="41.676027" lon="-0.627420">
<ele>469.5</ele>
<speed>13.5</speed>
<course>67.6</course>
<desc>Speed 13.5 km/h Distance 15.10 km</desc>
<time>2011-09-29T10:45:36.89</time>
<name>2725</name>
</trkpt>
<trkpt lat="41.676040" lon="-0.627377">
<ele>470.0</ele>
<speed>14.0</speed>
<course>65.9</course>
<desc>Speed 14.0 km/h Distance 15.11 km</desc>
<time>2011-09-29T10:45:37.89</time>
<name>2726</name>
</trkpt>
<trkpt lat="41.676053" lon="-0.627337">
<ele>470.0</ele>
<speed>13.4</speed>
<course>72.2</course>
<desc>Speed 13.4 km/h Distance 15.11 km</desc>
<time>2011-09-29T10:45:38.89</time>
<name>2727</name>
</trkpt>
<trkpt lat="41.676063" lon="-0.627295">
<ele>470.0</ele>
<speed>13.1</speed>
<course>62.4</course>
<desc>Speed 13.1 km/h Distance 15.11 km</desc>
<time>2011-09-29T10:45:39.89</time>
<name>2728</name>
</trkpt>
<trkpt lat="41.676078" lon="-0.627257">
<ele>470.5</ele>
<speed>13.0</speed>
<course>64.3</course>
<desc>Speed 13.0 km/h Distance 15.12 km</desc>
<time>2011-09-29T10:45:40.88</time>
<name>2729</name>
</trkpt>
<trkpt lat="41.676093" lon="-0.627215">
<ele>470.5</ele>
<speed>13.5</speed>
<course>66.8</course>
<desc>Speed 13.5 km/h Distance 15.12 km</desc>
<time>2011-09-29T10:45:41.88</time>
<name>2730</name>
</trkpt>
<trkpt lat="41.676107" lon="-0.627173">
<ele>470.5</ele>
<speed>13.9</speed>
<course>65.1</course>
<desc>Speed 13.9 km/h Distance 15.13 km</desc>
<time>2011-09-29T10:45:43.04</time>
<name>2731</name>
</trkpt>
<trkpt lat="41.676122" lon="-0.627130">
<ele>470.5</ele>
<speed>14.1</speed>
<course>65.1</course>
<desc>Speed 14.1 km/h Distance 15.13 km</desc>
<time>2011-09-29T10:45:43.88</time>
<name>2732</name>
</trkpt>
<trkpt lat="41.676137" lon="-0.627087">
<ele>471.0</ele>
<speed>13.8</speed>
<course>66.8</course>
<desc>Speed 13.8 km/h Distance 15.13 km</desc>
<time>2011-09-29T10:45:44.88</time>
<name>2733</name>
</trkpt>
<trkpt lat="41.676150" lon="-0.627045">
<ele>471.0</ele>
<speed>14.0</speed>
<course>68.4</course>
<desc>Speed 14.0 km/h Distance 15.14 km</desc>
<time>2011-09-29T10:45:45.89</time>
<name>2734</name>
</trkpt>
<trkpt lat="41.676163" lon="-0.627000">
<ele>471.0</ele>
<speed>14.3</speed>
<course>65.9</course>
<desc>Speed 14.3 km/h Distance 15.14 km</desc>
<time>2011-09-29T10:45:46.88</time>
<name>2735</name>
</trkpt>
<trkpt lat="41.676178" lon="-0.626955">
<ele>471.0</ele>
<speed>14.4</speed>
<course>66.0</course>
<desc>Speed 14.4 km/h Distance 15.15 km</desc>
<time>2011-09-29T10:45:47.91</time>
<name>2736</name>
</trkpt>
<trkpt lat="41.676193" lon="-0.626910">
<ele>471.0</ele>
<speed>14.4</speed>
<course>67.6</course>
<desc>Speed 14.4 km/h Distance 15.15 km</desc>
<time>2011-09-29T10:45:48.88</time>
<name>2737</name>
</trkpt>
<trkpt lat="41.676207" lon="-0.626867">
<ele>471.5</ele>
<speed>14.1</speed>
<course>70.9</course>
<desc>Speed 14.1 km/h Distance 15.15 km</desc>
<time>2011-09-29T10:45:49.88</time>
<name>2738</name>
</trkpt>
<trkpt lat="41.676218" lon="-0.626822">
<ele>471.5</ele>
<speed>14.0</speed>
<course>73.4</course>
<desc>Speed 14.0 km/h Distance 15.16 km</desc>
<time>2011-09-29T10:45:50.88</time>
<name>2739</name>
</trkpt>
<trkpt lat="41.676228" lon="-0.626777">
<ele>471.5</ele>
<speed>14.0</speed>
<course>70.2</course>
<desc>Speed 14.0 km/h Distance 15.16 km</desc>
<time>2011-09-29T10:45:51.88</time>
<name>2740</name>
</trkpt>
<trkpt lat="41.676240" lon="-0.626733">
<ele>471.5</ele>
<speed>13.6</speed>
<course>72.2</course>
<desc>Speed 13.6 km/h Distance 15.17 km</desc>
<time>2011-09-29T10:45:52.87</time>
<name>2741</name>
</trkpt>
<trkpt lat="41.676250" lon="-0.626692">
<ele>472.0</ele>
<speed>13.2</speed>
<course>72.8</course>
<desc>Speed 13.2 km/h Distance 15.17 km</desc>
<time>2011-09-29T10:45:53.88</time>
<name>2742</name>
</trkpt>
<trkpt lat="41.676260" lon="-0.626648">
<ele>472.0</ele>
<speed>13.3</speed>
<course>76.4</course>
<desc>Speed 13.3 km/h Distance 15.17 km</desc>
<time>2011-09-29T10:45:55.59</time>
<name>2743</name>
</trkpt>
<trkpt lat="41.676275" lon="-0.626565">
<ele>472.0</ele>
<speed>12.7</speed>
<course>81.2</course>
<desc>Speed 12.7 km/h Distance 15.18 km</desc>
<time>2011-09-29T10:45:56.88</time>
<name>2744</name>
</trkpt>
<trkpt lat="41.676280" lon="-0.626522">
<ele>472.0</ele>
<speed>13.1</speed>
<course>81.5</course>
<desc>Speed 13.1 km/h Distance 15.18 km</desc>
<time>2011-09-29T10:45:57.98</time>
<name>2745</name>
</trkpt>
<trkpt lat="41.676285" lon="-0.626477">
<ele>472.0</ele>
<speed>13.5</speed>
<course>78.4</course>
<desc>Speed 13.5 km/h Distance 15.19 km</desc>
<time>2011-09-29T10:45:58.87</time>
<name>2746</name>
</trkpt>
<trkpt lat="41.676292" lon="-0.626433">
<ele>472.5</ele>
<speed>13.5</speed>
<course>81.5</course>
<desc>Speed 13.5 km/h Distance 15.19 km</desc>
<time>2011-09-29T10:45:59.87</time>
<name>2747</name>
</trkpt>
<trkpt lat="41.676297" lon="-0.626388">
<ele>472.5</ele>
<speed>13.4</speed>
<course>83.6</course>
<desc>Speed 13.4 km/h Distance 15.19 km</desc>
<time>2011-09-29T10:46:00.87</time>
<name>2748</name>
</trkpt>
<trkpt lat="41.676300" lon="-0.626348">
<ele>472.5</ele>
<speed>12.5</speed>
<course>83.6</course>
<desc>Speed 12.5 km/h Distance 15.20 km</desc>
<time>2011-09-29T10:46:01.87</time>
<name>2749</name>
</trkpt>
<trkpt lat="41.676303" lon="-0.626308">
<ele>472.5</ele>
<speed>12.0</speed>
<course>87.1</course>
<desc>Speed 12.0 km/h Distance 15.20 km</desc>
<time>2011-09-29T10:46:02.87</time>
<name>2750</name>
</trkpt>
<trkpt lat="41.676305" lon="-0.626265">
<ele>472.0</ele>
<speed>12.8</speed>
<course>82.1</course>
<desc>Speed 12.8 km/h Distance 15.21 km</desc>
<time>2011-09-29T10:46:03.87</time>
<name>2751</name>
</trkpt>
<trkpt lat="41.676310" lon="-0.626217">
<ele>471.5</ele>
<speed>15.0</speed>
<course>79.6</course>
<desc>Speed 15.0 km/h Distance 15.21 km</desc>
<time>2011-09-29T10:46:05.22</time>
<name>2752</name>
</trkpt>
<trkpt lat="41.676327" lon="-0.626095">
<ele>471.0</ele>
<speed>19.3</speed>
<course>80.7</course>
<desc>Speed 19.3 km/h Distance 15.22 km</desc>
<time>2011-09-29T10:46:06.87</time>
<name>2753</name>
</trkpt>
<trkpt lat="41.676335" lon="-0.626027">
<ele>470.5</ele>
<speed>20.8</speed>
<course>78.0</course>
<desc>Speed 20.8 km/h Distance 15.23 km</desc>
<time>2011-09-29T10:46:07.87</time>
<name>2754</name>
</trkpt>
<trkpt lat="41.676347" lon="-0.625953">
<ele>470.5</ele>
<speed>22.1</speed>
<course>75.0</course>
<desc>Speed 22.1 km/h Distance 15.23 km</desc>
<time>2011-09-29T10:46:08.86</time>
<name>2755</name>
</trkpt>
<trkpt lat="41.676362" lon="-0.625878">
<ele>470.0</ele>
<speed>23.0</speed>
<course>73.4</course>
<desc>Speed 23.0 km/h Distance 15.24 km</desc>
<time>2011-09-29T10:46:09.87</time>
<name>2756</name>
</trkpt>
<trkpt lat="41.676378" lon="-0.625803">
<ele>470.0</ele>
<speed>23.4</speed>
<course>73.4</course>
<desc>Speed 23.4 km/h Distance 15.24 km</desc>
<time>2011-09-29T10:46:10.86</time>
<name>2757</name>
</trkpt>
<trkpt lat="41.676395" lon="-0.625728">
<ele>470.0</ele>
<speed>23.4</speed>
<course>75.7</course>
<desc>Speed 23.4 km/h Distance 15.25 km</desc>
<time>2011-09-29T10:46:12.18</time>
<name>2758</name>
</trkpt>
<trkpt lat="41.676423" lon="-0.625580">
<ele>470.0</ele>
<speed>22.3</speed>
<course>69.7</course>
<desc>Speed 22.3 km/h Distance 15.26 km</desc>
<time>2011-09-29T10:46:15.24</time>
<name>2759</name>
</trkpt>
<trkpt lat="41.676493" lon="-0.625327">
<ele>470.5</ele>
<speed>18.7</speed>
<course>73.0</course>
<desc>Speed 18.7 km/h Distance 15.29 km</desc>
<time>2011-09-29T10:46:17.86</time>
<name>2760</name>
</trkpt>
<trkpt lat="41.676507" lon="-0.625268">
<ele>470.5</ele>
<speed>18.4</speed>
<course>71.0</course>
<desc>Speed 18.4 km/h Distance 15.29 km</desc>
<time>2011-09-29T10:46:18.86</time>
<name>2761</name>
</trkpt>
<trkpt lat="41.676522" lon="-0.625210">
<ele>471.0</ele>
<speed>18.4</speed>
<course>73.4</course>
<desc>Speed 18.4 km/h Distance 15.30 km</desc>
<time>2011-09-29T10:46:19.86</time>
<name>2762</name>
</trkpt>
<trkpt lat="41.676535" lon="-0.625150">
<ele>471.0</ele>
<speed>18.3</speed>
<course>73.0</course>
<desc>Speed 18.3 km/h Distance 15.30 km</desc>
<time>2011-09-29T10:46:20.86</time>
<name>2763</name>
</trkpt>
<trkpt lat="41.676548" lon="-0.625092">
<ele>471.0</ele>
<speed>18.1</speed>
<course>72.1</course>
<desc>Speed 18.1 km/h Distance 15.31 km</desc>
<time>2011-09-29T10:46:22.16</time>
<name>2764</name>
</trkpt>
<trkpt lat="41.676573" lon="-0.624988">
<ele>471.5</ele>
<speed>16.1</speed>
<course>69.7</course>
<desc>Speed 16.1 km/h Distance 15.32 km</desc>
<time>2011-09-29T10:46:23.86</time>
<name>2765</name>
</trkpt>
<trkpt lat="41.676587" lon="-0.624940">
<ele>472.0</ele>
<speed>15.4</speed>
<course>70.9</course>
<desc>Speed 15.4 km/h Distance 15.32 km</desc>
<time>2011-09-29T10:46:24.96</time>
<name>2766</name>
</trkpt>
<trkpt lat="41.676598" lon="-0.624895">
<ele>472.5</ele>
<speed>14.3</speed>
<course>72.8</course>
<desc>Speed 14.3 km/h Distance 15.32 km</desc>
<time>2011-09-29T10:46:25.86</time>
<name>2767</name>
</trkpt>
<trkpt lat="41.676608" lon="-0.624852">
<ele>472.5</ele>
<speed>13.5</speed>
<course>70.2</course>
<desc>Speed 13.5 km/h Distance 15.33 km</desc>
<time>2011-09-29T10:46:26.85</time>
<name>2768</name>
</trkpt>
<trkpt lat="41.676620" lon="-0.624808">
<ele>473.0</ele>
<speed>13.6</speed>
<course>66.8</course>
<desc>Speed 13.6 km/h Distance 15.33 km</desc>
<time>2011-09-29T10:46:27.85</time>
<name>2769</name>
</trkpt>
<trkpt lat="41.676633" lon="-0.624767">
<ele>473.0</ele>
<speed>13.6</speed>
<course>64.3</course>
<desc>Speed 13.6 km/h Distance 15.34 km</desc>
<time>2011-09-29T10:46:28.85</time>
<name>2770</name>
</trkpt>
<trkpt lat="41.676648" lon="-0.624725">
<ele>473.5</ele>
<speed>13.6</speed>
<course>66.8</course>
<desc>Speed 13.6 km/h Distance 15.34 km</desc>
<time>2011-09-29T10:46:29.85</time>
<name>2771</name>
</trkpt>
<trkpt lat="41.676662" lon="-0.624683">
<ele>473.5</ele>
<speed>13.8</speed>
<course>62.7</course>
<desc>Speed 13.8 km/h Distance 15.34 km</desc>
<time>2011-09-29T10:46:30.85</time>
<name>2772</name>
</trkpt>
<trkpt lat="41.676678" lon="-0.624640">
<ele>473.5</ele>
<speed>13.8</speed>
<course>61.8</course>
<desc>Speed 13.8 km/h Distance 15.35 km</desc>
<time>2011-09-29T10:46:31.90</time>
<name>2773</name>
</trkpt>
<trkpt lat="41.676695" lon="-0.624598">
<ele>473.5</ele>
<speed>14.2</speed>
<course>62.8</course>
<desc>Speed 14.2 km/h Distance 15.35 km</desc>
<time>2011-09-29T10:46:32.85</time>
<name>2774</name>
</trkpt>
<trkpt lat="41.676712" lon="-0.624555">
<ele>473.5</ele>
<speed>14.4</speed>
<course>58.3</course>
<desc>Speed 14.4 km/h Distance 15.35 km</desc>
<time>2011-09-29T10:46:33.85</time>
<name>2775</name>
</trkpt>
<trkpt lat="41.676732" lon="-0.624512">
<ele>473.5</ele>
<speed>14.7</speed>
<course>52.0</course>
<desc>Speed 14.7 km/h Distance 15.36 km</desc>
<time>2011-09-29T10:46:34.85</time>
<name>2776</name>
</trkpt>
<trkpt lat="41.676755" lon="-0.624472">
<ele>473.5</ele>
<speed>14.9</speed>
<course>53.1</course>
<desc>Speed 14.9 km/h Distance 15.36 km</desc>
<time>2011-09-29T10:46:35.85</time>
<name>2777</name>
</trkpt>
<trkpt lat="41.676778" lon="-0.624430">
<ele>474.0</ele>
<speed>15.2</speed>
<course>52.0</course>
<desc>Speed 15.2 km/h Distance 15.37 km</desc>
<time>2011-09-29T10:46:36.85</time>
<name>2778</name>
</trkpt>
<trkpt lat="41.676802" lon="-0.624390">
<ele>474.0</ele>
<speed>15.0</speed>
<course>52.0</course>
<desc>Speed 15.0 km/h Distance 15.37 km</desc>
<time>2011-09-29T10:46:37.85</time>
<name>2779</name>
</trkpt>
<trkpt lat="41.676825" lon="-0.624350">
<ele>474.0</ele>
<speed>14.9</speed>
<course>47.6</course>
<desc>Speed 14.9 km/h Distance 15.38 km</desc>
<time>2011-09-29T10:46:38.85</time>
<name>2780</name>
</trkpt>
<trkpt lat="41.676850" lon="-0.624313">
<ele>474.0</ele>
<speed>14.5</speed>
<course>45.4</course>
<desc>Speed 14.5 km/h Distance 15.38 km</desc>
<time>2011-09-29T10:46:39.85</time>
<name>2781</name>
</trkpt>
<trkpt lat="41.676873" lon="-0.624282">
<ele>474.5</ele>
<speed>13.5</speed>
<course>48.2</course>
<desc>Speed 13.5 km/h Distance 15.38 km</desc>
<time>2011-09-29T10:46:40.85</time>
<name>2782</name>
</trkpt>
<trkpt lat="41.676893" lon="-0.624252">
<ele>474.5</ele>
<speed>12.0</speed>
<course>42.2</course>
<desc>Speed 12.0 km/h Distance 15.39 km</desc>
<time>2011-09-29T10:46:41.85</time>
<name>2783</name>
</trkpt>
<trkpt lat="41.676917" lon="-0.624223">
<ele>474.5</ele>
<speed>12.1</speed>
<course>35.0</course>
<desc>Speed 12.1 km/h Distance 15.39 km</desc>
<time>2011-09-29T10:46:42.85</time>
<name>2784</name>
</trkpt>
<trkpt lat="41.676943" lon="-0.624198">
<ele>475.0</ele>
<speed>12.4</speed>
<course>25.3</course>
<desc>Speed 12.4 km/h Distance 15.39 km</desc>
<time>2011-09-29T10:46:44.43</time>
<name>2785</name>
</trkpt>
<trkpt lat="41.676993" lon="-0.624167">
<ele>475.5</ele>
<speed>10.9</speed>
<course>16.3</course>
<desc>Speed 10.9 km/h Distance 15.40 km</desc>
<time>2011-09-29T10:46:45.84</time>
<name>2786</name>
</trkpt>
<trkpt lat="41.677023" lon="-0.624155">
<ele>475.5</ele>
<speed>11.8</speed>
<course>20.5</course>
<desc>Speed 11.8 km/h Distance 15.40 km</desc>
<time>2011-09-29T10:46:46.84</time>
<name>2787</name>
</trkpt>
<trkpt lat="41.677050" lon="-0.624142">
<ele>476.0</ele>
<speed>11.4</speed>
<course>22.7</course>
<desc>Speed 11.4 km/h Distance 15.41 km</desc>
<time>2011-09-29T10:46:47.84</time>
<name>2788</name>
</trkpt>
<trkpt lat="41.677077" lon="-0.624127">
<ele>476.0</ele>
<speed>11.5</speed>
<course>17.1</course>
<desc>Speed 11.5 km/h Distance 15.41 km</desc>
<time>2011-09-29T10:46:48.84</time>
<name>2789</name>
</trkpt>
<trkpt lat="41.677105" lon="-0.624115">
<ele>476.0</ele>
<speed>11.2</speed>
<course>20.5</course>
<desc>Speed 11.2 km/h Distance 15.41 km</desc>
<time>2011-09-29T10:46:49.84</time>
<name>2790</name>
</trkpt>
<trkpt lat="41.677128" lon="-0.624103">
<ele>476.5</ele>
<speed>10.3</speed>
<course>15.6</course>
<desc>Speed 10.3 km/h Distance 15.42 km</desc>
<time>2011-09-29T10:46:50.85</time>
<name>2791</name>
</trkpt>
<trkpt lat="41.677155" lon="-0.624093">
<ele>477.0</ele>
<speed>10.9</speed>
<course>12.2</course>
<desc>Speed 10.9 km/h Distance 15.42 km</desc>
<time>2011-09-29T10:46:51.84</time>
<name>2792</name>
</trkpt>
<trkpt lat="41.677183" lon="-0.624085">
<ele>477.0</ele>
<speed>11.3</speed>
<course>19.2</course>
<desc>Speed 11.3 km/h Distance 15.42 km</desc>
<time>2011-09-29T10:46:52.84</time>
<name>2793</name>
</trkpt>
<trkpt lat="41.677208" lon="-0.624073">
<ele>477.5</ele>
<speed>10.5</speed>
<course>14.8</course>
<desc>Speed 10.5 km/h Distance 15.43 km</desc>
<time>2011-09-29T10:46:54.17</time>
<name>2794</name>
</trkpt>
<trkpt lat="41.677265" lon="-0.624053">
<ele>478.0</ele>
<speed>11.7</speed>
<course>9.3</course>
<desc>Speed 11.7 km/h Distance 15.43 km</desc>
<time>2011-09-29T10:46:55.84</time>
<name>2795</name>
</trkpt>
<trkpt lat="41.677295" lon="-0.624047">
<ele>478.0</ele>
<speed>12.0</speed>
<course>9.0</course>
<desc>Speed 12.0 km/h Distance 15.44 km</desc>
<time>2011-09-29T10:46:56.84</time>
<name>2796</name>
</trkpt>
<trkpt lat="41.677327" lon="-0.624040">
<ele>478.0</ele>
<speed>12.3</speed>
<course>14.6</course>
<desc>Speed 12.3 km/h Distance 15.44 km</desc>
<time>2011-09-29T10:46:57.84</time>
<name>2797</name>
</trkpt>
<trkpt lat="41.677360" lon="-0.624028">
<ele>478.5</ele>
<speed>13.2</speed>
<course>11.1</course>
<desc>Speed 13.2 km/h Distance 15.44 km</desc>
<time>2011-09-29T10:46:58.84</time>
<name>2798</name>
</trkpt>
<trkpt lat="41.677392" lon="-0.624020">
<ele>478.5</ele>
<speed>12.9</speed>
<course>6.1</course>
<desc>Speed 12.9 km/h Distance 15.45 km</desc>
<time>2011-09-29T10:46:59.84</time>
<name>2799</name>
</trkpt>
<trkpt lat="41.677427" lon="-0.624015">
<ele>479.0</ele>
<speed>13.4</speed>
<course>16.0</course>
<desc>Speed 13.4 km/h Distance 15.45 km</desc>
<time>2011-09-29T10:47:01.12</time>
<name>2800</name>
</trkpt>
<trkpt lat="41.677492" lon="-0.623990">
<ele>480.0</ele>
<speed>13.4</speed>
<course>22.3</course>
<desc>Speed 13.4 km/h Distance 15.46 km</desc>
<time>2011-09-29T10:47:02.84</time>
<name>2801</name>
</trkpt>
<trkpt lat="41.677525" lon="-0.623972">
<ele>480.0</ele>
<speed>13.7</speed>
<course>20.5</course>
<desc>Speed 13.7 km/h Distance 15.46 km</desc>
<time>2011-09-29T10:47:03.93</time>
<name>2802</name>
</trkpt>
<trkpt lat="41.677558" lon="-0.623955">
<ele>480.5</ele>
<speed>14.3</speed>
<course>30.5</course>
<desc>Speed 14.3 km/h Distance 15.47 km</desc>
<time>2011-09-29T10:47:04.83</time>
<name>2803</name>
</trkpt>
<trkpt lat="41.677590" lon="-0.623930">
<ele>480.5</ele>
<speed>14.1</speed>
<course>30.5</course>
<desc>Speed 14.1 km/h Distance 15.47 km</desc>
<time>2011-09-29T10:47:05.83</time>
<name>2804</name>
</trkpt>
<trkpt lat="41.677622" lon="-0.623905">
<ele>480.5</ele>
<speed>14.8</speed>
<course>39.7</course>
<desc>Speed 14.8 km/h Distance 15.47 km</desc>
<time>2011-09-29T10:47:06.83</time>
<name>2805</name>
</trkpt>
<trkpt lat="41.677652" lon="-0.623872">
<ele>481.0</ele>
<speed>15.2</speed>
<course>42.7</course>
<desc>Speed 15.2 km/h Distance 15.48 km</desc>
<time>2011-09-29T10:47:07.83</time>
<name>2806</name>
</trkpt>
<trkpt lat="41.677680" lon="-0.623837">
<ele>481.0</ele>
<speed>15.4</speed>
<course>47.0</course>
<desc>Speed 15.4 km/h Distance 15.48 km</desc>
<time>2011-09-29T10:47:08.83</time>
<name>2807</name>
</trkpt>
<trkpt lat="41.677707" lon="-0.623798">
<ele>481.0</ele>
<speed>15.4</speed>
<course>48.2</course>
<desc>Speed 15.4 km/h Distance 15.49 km</desc>
<time>2011-09-29T10:47:09.84</time>
<name>2808</name>
</trkpt>
<trkpt lat="41.677733" lon="-0.623758">
<ele>481.5</ele>
<speed>15.6</speed>
<course>51.2</course>
<desc>Speed 15.6 km/h Distance 15.49 km</desc>
<time>2011-09-29T10:47:10.85</time>
<name>2809</name>
</trkpt>
<trkpt lat="41.677758" lon="-0.623717">
<ele>481.5</ele>
<speed>15.6</speed>
<course>48.2</course>
<desc>Speed 15.6 km/h Distance 15.50 km</desc>
<time>2011-09-29T10:47:11.83</time>
<name>2810</name>
</trkpt>
<trkpt lat="41.677785" lon="-0.623677">
<ele>481.5</ele>
<speed>15.6</speed>
<course>50.1</course>
<desc>Speed 15.6 km/h Distance 15.50 km</desc>
<time>2011-09-29T10:47:12.83</time>
<name>2811</name>
</trkpt>
<trkpt lat="41.677810" lon="-0.623637">
<ele>481.5</ele>
<speed>15.7</speed>
<course>44.0</course>
<desc>Speed 15.7 km/h Distance 15.50 km</desc>
<time>2011-09-29T10:47:13.83</time>
<name>2812</name>
</trkpt>
<trkpt lat="41.677838" lon="-0.623600">
<ele>482.0</ele>
<speed>15.5</speed>
<course>41.3</course>
<desc>Speed 15.5 km/h Distance 15.51 km</desc>
<time>2011-09-29T10:47:14.83</time>
<name>2813</name>
</trkpt>
<trkpt lat="41.677867" lon="-0.623567">
<ele>482.0</ele>
<speed>15.2</speed>
<course>36.8</course>
<desc>Speed 15.2 km/h Distance 15.51 km</desc>
<time>2011-09-29T10:47:15.82</time>
<name>2814</name>
</trkpt>
<trkpt lat="41.677898" lon="-0.623535">
<ele>482.0</ele>
<speed>15.2</speed>
<course>27.6</course>
<desc>Speed 15.2 km/h Distance 15.52 km</desc>
<time>2011-09-29T10:47:16.82</time>
<name>2815</name>
</trkpt>
<trkpt lat="41.677932" lon="-0.623512">
<ele>482.0</ele>
<speed>15.4</speed>
<course>22.1</course>
<desc>Speed 15.4 km/h Distance 15.52 km</desc>
<time>2011-09-29T10:47:17.83</time>
<name>2816</name>
</trkpt>
<trkpt lat="41.677968" lon="-0.623492">
<ele>482.0</ele>
<speed>15.7</speed>
<course>18.8</course>
<desc>Speed 15.7 km/h Distance 15.53 km</desc>
<time>2011-09-29T10:47:18.83</time>
<name>2817</name>
</trkpt>
<trkpt lat="41.678005" lon="-0.623475">
<ele>482.0</ele>
<speed>15.5</speed>
<course>8.8</course>
<desc>Speed 15.5 km/h Distance 15.53 km</desc>
<time>2011-09-29T10:47:19.82</time>
<name>2818</name>
</trkpt>
<trkpt lat="41.678045" lon="-0.623467">
<ele>482.5</ele>
<speed>15.5</speed>
<course>1.9</course>
<desc>Speed 15.5 km/h Distance 15.54 km</desc>
<time>2011-09-29T10:47:20.82</time>
<name>2819</name>
</trkpt>
<trkpt lat="41.678083" lon="-0.623465">
<ele>482.5</ele>
<speed>15.2</speed>
<course>358.1</course>
<desc>Speed 15.2 km/h Distance 15.54 km</desc>
<time>2011-09-29T10:47:21.82</time>
<name>2820</name>
</trkpt>
<trkpt lat="41.678122" lon="-0.623467">
<ele>482.5</ele>
<speed>15.0</speed>
<course>353.1</course>
<desc>Speed 15.0 km/h Distance 15.54 km</desc>
<time>2011-09-29T10:47:23.40</time>
<name>2821</name>
</trkpt>
<trkpt lat="41.678193" lon="-0.623478">
<ele>483.0</ele>
<speed>14.3</speed>
<course>348.0</course>
<desc>Speed 14.3 km/h Distance 15.55 km</desc>
<time>2011-09-29T10:47:24.82</time>
<name>2822</name>
</trkpt>
<trkpt lat="41.678228" lon="-0.623488">
<ele>483.0</ele>
<speed>14.2</speed>
<course>345.4</course>
<desc>Speed 14.2 km/h Distance 15.56 km</desc>
<time>2011-09-29T10:47:25.82</time>
<name>2823</name>
</trkpt>
<trkpt lat="41.678262" lon="-0.623500">
<ele>483.0</ele>
<speed>13.7</speed>
<course>348.0</course>
<desc>Speed 13.7 km/h Distance 15.56 km</desc>
<time>2011-09-29T10:47:26.82</time>
<name>2824</name>
</trkpt>
<trkpt lat="41.678297" lon="-0.623510">
<ele>483.5</ele>
<speed>14.2</speed>
<course>348.0</course>
<desc>Speed 14.2 km/h Distance 15.56 km</desc>
<time>2011-09-29T10:47:27.82</time>
<name>2825</name>
</trkpt>
<trkpt lat="41.678332" lon="-0.623520">
<ele>484.0</ele>
<speed>14.4</speed>
<course>344.2</course>
<desc>Speed 14.4 km/h Distance 15.57 km</desc>
<time>2011-09-29T10:47:28.82</time>
<name>2826</name>
</trkpt>
<trkpt lat="41.678367" lon="-0.623533">
<ele>484.0</ele>
<speed>14.6</speed>
<course>344.8</course>
<desc>Speed 14.6 km/h Distance 15.57 km</desc>
<time>2011-09-29T10:47:29.81</time>
<name>2827</name>
</trkpt>
<trkpt lat="41.678403" lon="-0.623547">
<ele>484.5</ele>
<speed>15.0</speed>
<course>344.8</course>
<desc>Speed 15.0 km/h Distance 15.58 km</desc>
<time>2011-09-29T10:47:30.82</time>
<name>2828</name>
</trkpt>
<trkpt lat="41.678440" lon="-0.623560">
<ele>484.5</ele>
<speed>15.1</speed>
<course>349.5</course>
<desc>Speed 15.1 km/h Distance 15.58 km</desc>
<time>2011-09-29T10:47:31.82</time>
<name>2829</name>
</trkpt>
<trkpt lat="41.678480" lon="-0.623570">
<ele>484.5</ele>
<speed>15.7</speed>
<course>349.2</course>
<desc>Speed 15.7 km/h Distance 15.58 km</desc>
<time>2011-09-29T10:47:33.14</time>
<name>2830</name>
</trkpt>
<trkpt lat="41.678558" lon="-0.623590">
<ele>485.0</ele>
<speed>15.7</speed>
<course>356.8</course>
<desc>Speed 15.7 km/h Distance 15.59 km</desc>
<time>2011-09-29T10:47:34.82</time>
<name>2831</name>
</trkpt>
<trkpt lat="41.678598" lon="-0.623593">
<ele>485.0</ele>
<speed>15.9</speed>
<course>355.0</course>
<desc>Speed 15.9 km/h Distance 15.60 km</desc>
<time>2011-09-29T10:47:35.82</time>
<name>2832</name>
</trkpt>
<trkpt lat="41.678640" lon="-0.623598">
<ele>485.0</ele>
<speed>16.6</speed>
<course>358.2</course>
<desc>Speed 16.6 km/h Distance 15.60 km</desc>
<time>2011-09-29T10:47:36.81</time>
<name>2833</name>
</trkpt>
<trkpt lat="41.678682" lon="-0.623600">
<ele>485.5</ele>
<speed>16.5</speed>
<course>353.5</course>
<desc>Speed 16.5 km/h Distance 15.61 km</desc>
<time>2011-09-29T10:47:37.82</time>
<name>2834</name>
</trkpt>
<trkpt lat="41.678725" lon="-0.623607">
<ele>485.5</ele>
<speed>16.5</speed>
<course>351.8</course>
<desc>Speed 16.5 km/h Distance 15.61 km</desc>
<time>2011-09-29T10:47:38.81</time>
<name>2835</name>
</trkpt>
<trkpt lat="41.678768" lon="-0.623615">
<ele>485.5</ele>
<speed>16.8</speed>
<course>355.0</course>
<desc>Speed 16.8 km/h Distance 15.62 km</desc>
<time>2011-09-29T10:47:40.07</time>
<name>2836</name>
</trkpt>
<trkpt lat="41.678853" lon="-0.623625">
<ele>485.5</ele>
<speed>16.7</speed>
<course>355.0</course>
<desc>Speed 16.7 km/h Distance 15.63 km</desc>
<time>2011-09-29T10:47:41.81</time>
<name>2837</name>
</trkpt>
<trkpt lat="41.678895" lon="-0.623630">
<ele>485.5</ele>
<speed>16.7</speed>
<course>355.0</course>
<desc>Speed 16.7 km/h Distance 15.63 km</desc>
<time>2011-09-29T10:47:42.87</time>
<name>2838</name>
</trkpt>
<trkpt lat="41.678937" lon="-0.623635">
<ele>485.5</ele>
<speed>16.5</speed>
<course>353.2</course>
<desc>Speed 16.5 km/h Distance 15.64 km</desc>
<time>2011-09-29T10:47:43.81</time>
<name>2839</name>
</trkpt>
<trkpt lat="41.678978" lon="-0.623642">
<ele>485.5</ele>
<speed>16.3</speed>
<course>354.7</course>
<desc>Speed 16.3 km/h Distance 15.64 km</desc>
<time>2011-09-29T10:47:44.81</time>
<name>2840</name>
</trkpt>
<trkpt lat="41.679018" lon="-0.623647">
<ele>485.5</ele>
<speed>16.0</speed>
<course>355.1</course>
<desc>Speed 16.0 km/h Distance 15.64 km</desc>
<time>2011-09-29T10:47:45.81</time>
<name>2841</name>
</trkpt>
<trkpt lat="41.679062" lon="-0.623652">
<ele>485.5</ele>
<speed>16.1</speed>
<course>354.7</course>
<desc>Speed 16.1 km/h Distance 15.65 km</desc>
<time>2011-09-29T10:47:46.81</time>
<name>2842</name>
</trkpt>
<trkpt lat="41.679102" lon="-0.623657">
<ele>485.5</ele>
<speed>15.9</speed>
<course>354.7</course>
<desc>Speed 15.9 km/h Distance 15.65 km</desc>
<time>2011-09-29T10:47:47.81</time>
<name>2843</name>
</trkpt>
<trkpt lat="41.679142" lon="-0.623662">
<ele>485.5</ele>
<speed>15.6</speed>
<course>352.6</course>
<desc>Speed 15.6 km/h Distance 15.66 km</desc>
<time>2011-09-29T10:47:48.81</time>
<name>2844</name>
</trkpt>
<trkpt lat="41.679180" lon="-0.623668">
<ele>485.5</ele>
<speed>15.6</speed>
<course>354.7</course>
<desc>Speed 15.6 km/h Distance 15.66 km</desc>
<time>2011-09-29T10:47:49.81</time>
<name>2845</name>
</trkpt>
<trkpt lat="41.679220" lon="-0.623673">
<ele>485.5</ele>
<speed>15.7</speed>
<course>355.0</course>
<desc>Speed 15.7 km/h Distance 15.67 km</desc>
<time>2011-09-29T10:47:50.81</time>
<name>2846</name>
</trkpt>
<trkpt lat="41.679262" lon="-0.623678">
<ele>485.5</ele>
<speed>16.1</speed>
<course>352.8</course>
<desc>Speed 16.1 km/h Distance 15.67 km</desc>
<time>2011-09-29T10:47:51.81</time>
<name>2847</name>
</trkpt>
<trkpt lat="41.679302" lon="-0.623685">
<ele>485.5</ele>
<speed>16.0</speed>
<course>351.2</course>
<desc>Speed 16.0 km/h Distance 15.68 km</desc>
<time>2011-09-29T10:47:52.81</time>
<name>2848</name>
</trkpt>
<trkpt lat="41.679342" lon="-0.623693">
<ele>485.5</ele>
<speed>16.4</speed>
<course>355.0</course>
<desc>Speed 16.4 km/h Distance 15.68 km</desc>
<time>2011-09-29T10:47:53.81</time>
<name>2849</name>
</trkpt>
<trkpt lat="41.679383" lon="-0.623698">
<ele>485.5</ele>
<speed>16.3</speed>
<course>353.0</course>
<desc>Speed 16.3 km/h Distance 15.69 km</desc>
<time>2011-09-29T10:47:54.81</time>
<name>2850</name>
</trkpt>
<trkpt lat="41.679423" lon="-0.623705">
<ele>486.0</ele>
<speed>16.0</speed>
<course>352.8</course>
<desc>Speed 16.0 km/h Distance 15.69 km</desc>
<time>2011-09-29T10:47:55.81</time>
<name>2851</name>
</trkpt>
<trkpt lat="41.679463" lon="-0.623712">
<ele>486.0</ele>
<speed>15.8</speed>
<course>348.9</course>
<desc>Speed 15.8 km/h Distance 15.69 km</desc>
<time>2011-09-29T10:47:56.81</time>
<name>2852</name>
</trkpt>
<trkpt lat="41.679502" lon="-0.623722">
<ele>486.0</ele>
<speed>15.5</speed>
<course>348.6</course>
<desc>Speed 15.5 km/h Distance 15.70 km</desc>
<time>2011-09-29T10:47:57.80</time>
<name>2853</name>
</trkpt>
<trkpt lat="41.679538" lon="-0.623732">
<ele>486.5</ele>
<speed>15.6</speed>
<course>350.8</course>
<desc>Speed 15.6 km/h Distance 15.70 km</desc>
<time>2011-09-29T10:47:58.80</time>
<name>2854</name>
</trkpt>
<trkpt lat="41.679577" lon="-0.623740">
<ele>486.5</ele>
<speed>15.4</speed>
<course>341.2</course>
<desc>Speed 15.4 km/h Distance 15.71 km</desc>
<time>2011-09-29T10:47:59.81</time>
<name>2855</name>
</trkpt>
<trkpt lat="41.679613" lon="-0.623757">
<ele>487.0</ele>
<speed>15.2</speed>
<course>345.4</course>
<desc>Speed 15.2 km/h Distance 15.71 km</desc>
<time>2011-09-29T10:48:00.80</time>
<name>2856</name>
</trkpt>
<trkpt lat="41.679652" lon="-0.623770">
<ele>487.0</ele>
<speed>15.7</speed>
<course>345.7</course>
<desc>Speed 15.7 km/h Distance 15.72 km</desc>
<time>2011-09-29T10:48:02.35</time>
<name>2857</name>
</trkpt>
<trkpt lat="41.679730" lon="-0.623797">
<ele>487.5</ele>
<speed>16.3</speed>
<course>344.4</course>
<desc>Speed 16.3 km/h Distance 15.73 km</desc>
<time>2011-09-29T10:48:03.80</time>
<name>2858</name>
</trkpt>
<trkpt lat="41.679770" lon="-0.623812">
<ele>487.5</ele>
<speed>16.4</speed>
<course>346.0</course>
<desc>Speed 16.4 km/h Distance 15.73 km</desc>
<time>2011-09-29T10:48:04.80</time>
<name>2859</name>
</trkpt>
<trkpt lat="41.679810" lon="-0.623825">
<ele>488.0</ele>
<speed>16.1</speed>
<course>349.0</course>
<desc>Speed 16.1 km/h Distance 15.73 km</desc>
<time>2011-09-29T10:48:05.80</time>
<name>2860</name>
</trkpt>
<trkpt lat="41.679848" lon="-0.623835">
<ele>488.0</ele>
<speed>16.0</speed>
<course>351.1</course>
<desc>Speed 16.0 km/h Distance 15.74 km</desc>
<time>2011-09-29T10:48:06.80</time>
<name>2861</name>
</trkpt>
<trkpt lat="41.679888" lon="-0.623843">
<ele>488.0</ele>
<speed>15.7</speed>
<course>350.7</course>
<desc>Speed 15.7 km/h Distance 15.74 km</desc>
<time>2011-09-29T10:48:07.80</time>
<name>2862</name>
</trkpt>
<trkpt lat="41.679927" lon="-0.623852">
<ele>488.5</ele>
<speed>15.7</speed>
<course>352.9</course>
<desc>Speed 15.7 km/h Distance 15.75 km</desc>
<time>2011-09-29T10:48:08.80</time>
<name>2863</name>
</trkpt>
<trkpt lat="41.679967" lon="-0.623858">
<ele>488.5</ele>
<speed>15.7</speed>
<course>354.7</course>
<desc>Speed 15.7 km/h Distance 15.75 km</desc>
<time>2011-09-29T10:48:09.80</time>
<name>2864</name>
</trkpt>
<trkpt lat="41.680007" lon="-0.623863">
<ele>488.5</ele>
<speed>15.8</speed>
<course>1.2</course>
<desc>Speed 15.8 km/h Distance 15.76 km</desc>
<time>2011-09-29T10:48:10.80</time>
<name>2865</name>
</trkpt>
<trkpt lat="41.680047" lon="-0.623863">
<ele>488.5</ele>
<speed>16.1</speed>
<course>1.7</course>
<desc>Speed 16.1 km/h Distance 15.76 km</desc>
<time>2011-09-29T10:48:12.09</time>
<name>2866</name>
</trkpt>
<trkpt lat="41.680128" lon="-0.623860">
<ele>488.5</ele>
<speed>16.1</speed>
<course>7.1</course>
<desc>Speed 16.1 km/h Distance 15.77 km</desc>
<time>2011-09-29T10:48:13.79</time>
<name>2867</name>
</trkpt>
<trkpt lat="41.680168" lon="-0.623853">
<ele>488.5</ele>
<speed>15.6</speed>
<course>12.8</course>
<desc>Speed 15.6 km/h Distance 15.77 km</desc>
<time>2011-09-29T10:48:14.79</time>
<name>2868</name>
</trkpt>
<trkpt lat="41.680207" lon="-0.623842">
<ele>488.5</ele>
<speed>14.9</speed>
<course>16.6</course>
<desc>Speed 14.9 km/h Distance 15.78 km</desc>
<time>2011-09-29T10:48:15.79</time>
<name>2869</name>
</trkpt>
<trkpt lat="41.680240" lon="-0.623828">
<ele>489.0</ele>
<speed>13.5</speed>
<course>18.4</course>
<desc>Speed 13.5 km/h Distance 15.78 km</desc>
<time>2011-09-29T10:48:16.79</time>
<name>2870</name>
</trkpt>
<trkpt lat="41.680270" lon="-0.623815">
<ele>488.5</ele>
<speed>12.6</speed>
<course>20.4</course>
<desc>Speed 12.6 km/h Distance 15.79 km</desc>
<time>2011-09-29T10:48:17.79</time>
<name>2871</name>
</trkpt>
<trkpt lat="41.680300" lon="-0.623800">
<ele>488.5</ele>
<speed>12.1</speed>
<course>25.1</course>
<desc>Speed 12.1 km/h Distance 15.79 km</desc>
<time>2011-09-29T10:48:19.03</time>
<name>2872</name>
</trkpt>
<trkpt lat="41.680327" lon="-0.623783">
<ele>488.5</ele>
<speed>11.3</speed>
<course>36.8</course>
<desc>Speed 11.3 km/h Distance 15.79 km</desc>
<time>2011-09-29T10:48:19.79</time>
<name>2873</name>
</trkpt>
<trkpt lat="41.680352" lon="-0.623758">
<ele>488.0</ele>
<speed>12.0</speed>
<course>38.3</course>
<desc>Speed 12.0 km/h Distance 15.80 km</desc>
<time>2011-09-29T10:48:20.79</time>
<name>2874</name>
</trkpt>
<trkpt lat="41.680380" lon="-0.623728">
<ele>487.5</ele>
<speed>14.1</speed>
<course>38.1</course>
<desc>Speed 14.1 km/h Distance 15.80 km</desc>
<time>2011-09-29T10:48:21.82</time>
<name>2875</name>
</trkpt>
<trkpt lat="41.680413" lon="-0.623693">
<ele>487.0</ele>
<speed>16.7</speed>
<course>40.6</course>
<desc>Speed 16.7 km/h Distance 15.81 km</desc>
<time>2011-09-29T10:48:22.79</time>
<name>2876</name>
</trkpt>
<trkpt lat="41.680447" lon="-0.623655">
<ele>487.0</ele>
<speed>17.7</speed>
<course>44.0</course>
<desc>Speed 17.7 km/h Distance 15.81 km</desc>
<time>2011-09-29T10:48:23.79</time>
<name>2877</name>
</trkpt>
<trkpt lat="41.680475" lon="-0.623618">
<ele>486.5</ele>
<speed>15.5</speed>
<course>48.8</course>
<desc>Speed 15.5 km/h Distance 15.81 km</desc>
<time>2011-09-29T10:48:24.79</time>
<name>2878</name>
</trkpt>
<trkpt lat="41.680503" lon="-0.623575">
<ele>486.0</ele>
<speed>16.8</speed>
<course>47.7</course>
<desc>Speed 16.8 km/h Distance 15.82 km</desc>
<time>2011-09-29T10:48:25.79</time>
<name>2879</name>
</trkpt>
<trkpt lat="41.680535" lon="-0.623528">
<ele>485.5</ele>
<speed>18.6</speed>
<course>46.5</course>
<desc>Speed 18.6 km/h Distance 15.82 km</desc>
<time>2011-09-29T10:48:26.79</time>
<name>2880</name>
</trkpt>
<trkpt lat="41.680572" lon="-0.623477">
<ele>485.5</ele>
<speed>20.6</speed>
<course>49.2</course>
<desc>Speed 20.6 km/h Distance 15.83 km</desc>
<time>2011-09-29T10:48:27.78</time>
<name>2881</name>
</trkpt>
<trkpt lat="41.680605" lon="-0.623425">
<ele>485.0</ele>
<speed>20.1</speed>
<course>47.8</course>
<desc>Speed 20.1 km/h Distance 15.84 km</desc>
<time>2011-09-29T10:48:28.78</time>
<name>2882</name>
</trkpt>
<trkpt lat="41.680640" lon="-0.623373">
<ele>485.0</ele>
<speed>20.6</speed>
<course>47.4</course>
<desc>Speed 20.6 km/h Distance 15.84 km</desc>
<time>2011-09-29T10:48:29.78</time>
<name>2883</name>
</trkpt>
<trkpt lat="41.680677" lon="-0.623320">
<ele>485.0</ele>
<speed>21.1</speed>
<course>45.8</course>
<desc>Speed 21.1 km/h Distance 15.85 km</desc>
<time>2011-09-29T10:48:31.56</time>
<name>2884</name>
</trkpt>
<trkpt lat="41.680787" lon="-0.623168">
<ele>484.0</ele>
<speed>20.7</speed>
<course>47.4</course>
<desc>Speed 20.7 km/h Distance 15.87 km</desc>
<time>2011-09-29T10:48:33.78</time>
<name>2885</name>
</trkpt>
<trkpt lat="41.680823" lon="-0.623115">
<ele>483.5</ele>
<speed>21.5</speed>
<course>47.0</course>
<desc>Speed 21.5 km/h Distance 15.87 km</desc>
<time>2011-09-29T10:48:34.78</time>
<name>2886</name>
</trkpt>
<trkpt lat="41.680862" lon="-0.623060">
<ele>483.5</ele>
<speed>22.2</speed>
<course>46.6</course>
<desc>Speed 22.2 km/h Distance 15.88 km</desc>
<time>2011-09-29T10:48:35.78</time>
<name>2887</name>
</trkpt>
<trkpt lat="41.680902" lon="-0.623003">
<ele>483.0</ele>
<speed>22.9</speed>
<course>45.0</course>
<desc>Speed 22.9 km/h Distance 15.88 km</desc>
<time>2011-09-29T10:48:37.19</time>
<name>2888</name>
</trkpt>
<trkpt lat="41.680985" lon="-0.622892">
<ele>483.0</ele>
<speed>23.4</speed>
<course>47.1</course>
<desc>Speed 23.4 km/h Distance 15.90 km</desc>
<time>2011-09-29T10:48:38.78</time>
<name>2889</name>
</trkpt>
<trkpt lat="41.681027" lon="-0.622832">
<ele>482.5</ele>
<speed>24.3</speed>
<course>49.4</course>
<desc>Speed 24.3 km/h Distance 15.90 km</desc>
<time>2011-09-29T10:48:39.78</time>
<name>2890</name>
</trkpt>
<trkpt lat="41.681068" lon="-0.622767">
<ele>482.0</ele>
<speed>25.2</speed>
<course>53.6</course>
<desc>Speed 25.2 km/h Distance 15.91 km</desc>
<time>2011-09-29T10:48:41.29</time>
<name>2891</name>
</trkpt>
<trkpt lat="41.681193" lon="-0.622540">
<ele>480.5</ele>
<speed>29.4</speed>
<course>60.9</course>
<desc>Speed 29.4 km/h Distance 15.94 km</desc>
<time>2011-09-29T10:48:43.78</time>
<name>2892</name>
</trkpt>
<trkpt lat="41.681230" lon="-0.622452">
<ele>480.0</ele>
<speed>30.7</speed>
<course>59.1</course>
<desc>Speed 30.7 km/h Distance 15.94 km</desc>
<time>2011-09-29T10:48:44.78</time>
<name>2893</name>
</trkpt>
<trkpt lat="41.681272" lon="-0.622358">
<ele>479.0</ele>
<speed>32.0</speed>
<course>60.4</course>
<desc>Speed 32.0 km/h Distance 15.95 km</desc>
<time>2011-09-29T10:48:45.78</time>
<name>2894</name>
</trkpt>
<trkpt lat="41.681313" lon="-0.622260">
<ele>478.0</ele>
<speed>34.2</speed>
<course>61.5</course>
<desc>Speed 34.2 km/h Distance 15.96 km</desc>
<time>2011-09-29T10:48:46.78</time>
<name>2895</name>
</trkpt>
<trkpt lat="41.681357" lon="-0.622153">
<ele>477.0</ele>
<speed>36.2</speed>
<course>56.6</course>
<desc>Speed 36.2 km/h Distance 15.97 km</desc>
<time>2011-09-29T10:48:47.78</time>
<name>2896</name>
</trkpt>
<trkpt lat="41.681408" lon="-0.622048">
<ele>476.0</ele>
<speed>37.7</speed>
<course>57.4</course>
<desc>Speed 37.7 km/h Distance 15.98 km</desc>
<time>2011-09-29T10:48:48.77</time>
<name>2897</name>
</trkpt>
<trkpt lat="41.681460" lon="-0.621940">
<ele>475.0</ele>
<speed>38.8</speed>
<course>56.6</course>
<desc>Speed 38.8 km/h Distance 15.99 km</desc>
<time>2011-09-29T10:48:49.77</time>
<name>2898</name>
</trkpt>
<trkpt lat="41.681515" lon="-0.621828">
<ele>474.5</ele>
<speed>39.5</speed>
<course>57.4</course>
<desc>Speed 39.5 km/h Distance 16.00 km</desc>
<time>2011-09-29T10:48:51.07</time>
<name>2899</name>
</trkpt>
<trkpt lat="41.681618" lon="-0.621612">
<ele>474.0</ele>
<speed>38.3</speed>
<course>55.8</course>
<desc>Speed 38.3 km/h Distance 16.03 km</desc>
<time>2011-09-29T10:48:52.77</time>
<name>2900</name>
</trkpt>
<trkpt lat="41.681672" lon="-0.621507">
<ele>474.0</ele>
<speed>37.7</speed>
<course>55.8</course>
<desc>Speed 37.7 km/h Distance 16.04 km</desc>
<time>2011-09-29T10:48:53.77</time>
<name>2901</name>
</trkpt>
<trkpt lat="41.681723" lon="-0.621405">
<ele>473.5</ele>
<speed>36.9</speed>
<course>58.8</course>
<desc>Speed 36.9 km/h Distance 16.05 km</desc>
<time>2011-09-29T10:48:54.77</time>
<name>2902</name>
</trkpt>
<trkpt lat="41.681770" lon="-0.621302">
<ele>473.5</ele>
<speed>36.0</speed>
<course>58.0</course>
<desc>Speed 36.0 km/h Distance 16.06 km</desc>
<time>2011-09-29T10:48:55.77</time>
<name>2903</name>
</trkpt>
<trkpt lat="41.681817" lon="-0.621202">
<ele>473.5</ele>
<speed>35.2</speed>
<course>56.7</course>
<desc>Speed 35.2 km/h Distance 16.07 km</desc>
<time>2011-09-29T10:48:56.77</time>
<name>2904</name>
</trkpt>
<trkpt lat="41.681863" lon="-0.621107">
<ele>473.5</ele>
<speed>34.4</speed>
<course>58.4</course>
<desc>Speed 34.4 km/h Distance 16.08 km</desc>
<time>2011-09-29T10:48:57.98</time>
<name>2905</name>
</trkpt>
<trkpt lat="41.681948" lon="-0.620922">
<ele>473.5</ele>
<speed>31.7</speed>
<course>60.3</course>
<desc>Speed 31.7 km/h Distance 16.09 km</desc>
<time>2011-09-29T10:48:59.77</time>
<name>2906</name>
</trkpt>
<trkpt lat="41.681987" lon="-0.620832">
<ele>473.5</ele>
<speed>31.1</speed>
<course>59.8</course>
<desc>Speed 31.1 km/h Distance 16.10 km</desc>
<time>2011-09-29T10:49:00.78</time>
<name>2907</name>
</trkpt>
<trkpt lat="41.682025" lon="-0.620743">
<ele>473.5</ele>
<speed>30.0</speed>
<course>61.8</course>
<desc>Speed 30.0 km/h Distance 16.11 km</desc>
<time>2011-09-29T10:49:01.77</time>
<name>2908</name>
</trkpt>
<trkpt lat="41.682058" lon="-0.620660">
<ele>474.0</ele>
<speed>28.5</speed>
<course>62.6</course>
<desc>Speed 28.5 km/h Distance 16.12 km</desc>
<time>2011-09-29T10:49:02.77</time>
<name>2909</name>
</trkpt>
<trkpt lat="41.682090" lon="-0.620578">
<ele>474.0</ele>
<speed>27.2</speed>
<course>60.0</course>
<desc>Speed 27.2 km/h Distance 16.13 km</desc>
<time>2011-09-29T10:49:03.76</time>
<name>2910</name>
</trkpt>
<trkpt lat="41.682122" lon="-0.620505">
<ele>474.5</ele>
<speed>25.2</speed>
<course>58.9</course>
<desc>Speed 25.2 km/h Distance 16.13 km</desc>
<time>2011-09-29T10:49:04.76</time>
<name>2911</name>
</trkpt>
<trkpt lat="41.682152" lon="-0.620438">
<ele>475.0</ele>
<speed>23.2</speed>
<course>54.0</course>
<desc>Speed 23.2 km/h Distance 16.14 km</desc>
<time>2011-09-29T10:49:05.76</time>
<name>2912</name>
</trkpt>
<trkpt lat="41.682183" lon="-0.620380">
<ele>475.0</ele>
<speed>21.3</speed>
<course>59.4</course>
<desc>Speed 21.3 km/h Distance 16.15 km</desc>
<time>2011-09-29T10:49:06.76</time>
<name>2913</name>
</trkpt>
<trkpt lat="41.682208" lon="-0.620323">
<ele>475.0</ele>
<speed>20.0</speed>
<course>54.6</course>
<desc>Speed 20.0 km/h Distance 16.15 km</desc>
<time>2011-09-29T10:49:07.76</time>
<name>2914</name>
</trkpt>
<trkpt lat="41.682237" lon="-0.620270">
<ele>475.0</ele>
<speed>19.3</speed>
<course>57.9</course>
<desc>Speed 19.3 km/h Distance 16.16 km</desc>
<time>2011-09-29T10:49:08.76</time>
<name>2915</name>
</trkpt>
<trkpt lat="41.682262" lon="-0.620217">
<ele>475.5</ele>
<speed>18.7</speed>
<course>54.5</course>
<desc>Speed 18.7 km/h Distance 16.16 km</desc>
<time>2011-09-29T10:49:10.68</time>
<name>2916</name>
</trkpt>
<trkpt lat="41.682343" lon="-0.620063">
<ele>475.0</ele>
<speed>19.0</speed>
<course>53.9</course>
<desc>Speed 19.0 km/h Distance 16.18 km</desc>
<time>2011-09-29T10:49:12.76</time>
<name>2917</name>
</trkpt>
<trkpt lat="41.682373" lon="-0.620008">
<ele>475.0</ele>
<speed>20.2</speed>
<course>54.7</course>
<desc>Speed 20.2 km/h Distance 16.18 km</desc>
<time>2011-09-29T10:49:13.76</time>
<name>2918</name>
</trkpt>
<trkpt lat="41.682403" lon="-0.619952">
<ele>474.5</ele>
<speed>20.8</speed>
<course>47.8</course>
<desc>Speed 20.8 km/h Distance 16.19 km</desc>
<time>2011-09-29T10:49:14.76</time>
<name>2919</name>
</trkpt>
<trkpt lat="41.682438" lon="-0.619900">
<ele>474.5</ele>
<speed>20.6</speed>
<course>48.2</course>
<desc>Speed 20.6 km/h Distance 16.19 km</desc>
<time>2011-09-29T10:49:15.76</time>
<name>2920</name>
</trkpt>
<trkpt lat="41.682472" lon="-0.619850">
<ele>474.5</ele>
<speed>20.1</speed>
<course>55.4</course>
<desc>Speed 20.1 km/h Distance 16.20 km</desc>
<time>2011-09-29T10:49:16.76</time>
<name>2921</name>
</trkpt>
<trkpt lat="41.682500" lon="-0.619795">
<ele>474.5</ele>
<speed>19.7</speed>
<course>57.9</course>
<desc>Speed 19.7 km/h Distance 16.21 km</desc>
<time>2011-09-29T10:49:17.76</time>
<name>2922</name>
</trkpt>
<trkpt lat="41.682525" lon="-0.619742">
<ele>474.5</ele>
<speed>18.9</speed>
<course>54.5</course>
<desc>Speed 18.9 km/h Distance 16.21 km</desc>
<time>2011-09-29T10:49:18.76</time>
<name>2923</name>
</trkpt>
<trkpt lat="41.682552" lon="-0.619692">
<ele>474.5</ele>
<speed>18.0</speed>
<course>54.0</course>
<desc>Speed 18.0 km/h Distance 16.22 km</desc>
<time>2011-09-29T10:49:20.37</time>
<name>2924</name>
</trkpt>
<trkpt lat="41.682605" lon="-0.619593">
<ele>474.0</ele>
<speed>18.3</speed>
<course>58.7</course>
<desc>Speed 18.3 km/h Distance 16.23 km</desc>
<time>2011-09-29T10:49:21.76</time>
<name>2925</name>
</trkpt>
<trkpt lat="41.682630" lon="-0.619538">
<ele>473.5</ele>
<speed>19.0</speed>
<course>55.4</course>
<desc>Speed 19.0 km/h Distance 16.23 km</desc>
<time>2011-09-29T10:49:22.76</time>
<name>2926</name>
</trkpt>
<trkpt lat="41.682658" lon="-0.619483">
<ele>473.0</ele>
<speed>20.1</speed>
<course>51.8</course>
<desc>Speed 20.1 km/h Distance 16.24 km</desc>
<time>2011-09-29T10:49:23.76</time>
<name>2927</name>
</trkpt>
<trkpt lat="41.682692" lon="-0.619427">
<ele>472.5</ele>
<speed>21.2</speed>
<course>49.9</course>
<desc>Speed 21.2 km/h Distance 16.24 km</desc>
<time>2011-09-29T10:49:24.75</time>
<name>2928</name>
</trkpt>
<trkpt lat="41.682728" lon="-0.619368">
<ele>472.0</ele>
<speed>22.8</speed>
<course>47.4</course>
<desc>Speed 22.8 km/h Distance 16.25 km</desc>
<time>2011-09-29T10:49:25.75</time>
<name>2929</name>
</trkpt>
<trkpt lat="41.682768" lon="-0.619310">
<ele>472.0</ele>
<speed>23.9</speed>
<course>45.2</course>
<desc>Speed 23.9 km/h Distance 16.26 km</desc>
<time>2011-09-29T10:49:26.76</time>
<name>2930</name>
</trkpt>
<trkpt lat="41.682812" lon="-0.619252">
<ele>471.5</ele>
<speed>24.3</speed>
<course>39.6</course>
<desc>Speed 24.3 km/h Distance 16.26 km</desc>
<time>2011-09-29T10:49:27.75</time>
<name>2931</name>
</trkpt>
<trkpt lat="41.682858" lon="-0.619200">
<ele>471.5</ele>
<speed>24.1</speed>
<course>41.5</course>
<desc>Speed 24.1 km/h Distance 16.27 km</desc>
<time>2011-09-29T10:49:28.75</time>
<name>2932</name>
</trkpt>
<trkpt lat="41.682903" lon="-0.619147">
<ele>471.5</ele>
<speed>23.8</speed>
<course>49.5</course>
<desc>Speed 23.8 km/h Distance 16.28 km</desc>
<time>2011-09-29T10:49:30.10</time>
<name>2933</name>
</trkpt>
<trkpt lat="41.682977" lon="-0.619032">
<ele>471.5</ele>
<speed>21.9</speed>
<course>61.5</course>
<desc>Speed 21.9 km/h Distance 16.29 km</desc>
<time>2011-09-29T10:49:31.75</time>
<name>2934</name>
</trkpt>
<trkpt lat="41.683002" lon="-0.618970">
<ele>471.5</ele>
<speed>20.9</speed>
<course>64.2</course>
<desc>Speed 20.9 km/h Distance 16.30 km</desc>
<time>2011-09-29T10:49:32.75</time>
<name>2935</name>
</trkpt>
<trkpt lat="41.683023" lon="-0.618910">
<ele>471.5</ele>
<speed>19.8</speed>
<course>60.4</course>
<desc>Speed 19.8 km/h Distance 16.30 km</desc>
<time>2011-09-29T10:49:33.75</time>
<name>2936</name>
</trkpt>
<trkpt lat="41.683047" lon="-0.618855">
<ele>471.5</ele>
<speed>19.0</speed>
<course>60.4</course>
<desc>Speed 19.0 km/h Distance 16.31 km</desc>
<time>2011-09-29T10:49:34.75</time>
<name>2937</name>
</trkpt>
<trkpt lat="41.683070" lon="-0.618800">
<ele>471.5</ele>
<speed>18.6</speed>
<course>63.3</course>
<desc>Speed 18.6 km/h Distance 16.31 km</desc>
<time>2011-09-29T10:49:35.74</time>
<name>2938</name>
</trkpt>
<trkpt lat="41.683090" lon="-0.618747">
<ele>471.5</ele>
<speed>17.9</speed>
<course>58.1</course>
<desc>Speed 17.9 km/h Distance 16.32 km</desc>
<time>2011-09-29T10:49:37.03</time>
<name>2939</name>
</trkpt>
<trkpt lat="41.683135" lon="-0.618650">
<ele>471.5</ele>
<speed>16.9</speed>
<course>45.8</course>
<desc>Speed 16.9 km/h Distance 16.33 km</desc>
<time>2011-09-29T10:49:38.74</time>
<name>2940</name>
</trkpt>
<trkpt lat="41.683162" lon="-0.618613">
<ele>472.5</ele>
<speed>15.4</speed>
<course>42.2</course>
<desc>Speed 15.4 km/h Distance 16.33 km</desc>
<time>2011-09-29T10:49:39.84</time>
<name>2941</name>
</trkpt>
<trkpt lat="41.683185" lon="-0.618585">
<ele>472.5</ele>
<speed>12.2</speed>
<course>51.7</course>
<desc>Speed 12.2 km/h Distance 16.33 km</desc>
<time>2011-09-29T10:49:40.74</time>
<name>2942</name>
</trkpt>
<trkpt lat="41.683202" lon="-0.618557">
<ele>473.0</ele>
<speed>10.4</speed>
<course>53.0</course>
<desc>Speed 10.4 km/h Distance 16.34 km</desc>
<time>2011-09-29T10:49:41.75</time>
<name>2943</name>
</trkpt>
<trkpt lat="41.683217" lon="-0.618530">
<ele>473.0</ele>
<speed>10.2</speed>
<course>46.6</course>
<desc>Speed 10.2 km/h Distance 16.34 km</desc>
<time>2011-09-29T10:49:42.74</time>
<name>2944</name>
</trkpt>
<trkpt lat="41.683237" lon="-0.618502">
<ele>473.0</ele>
<speed>11.4</speed>
<course>34.9</course>
<desc>Speed 11.4 km/h Distance 16.34 km</desc>
<time>2011-09-29T10:49:43.74</time>
<name>2945</name>
</trkpt>
<trkpt lat="41.683262" lon="-0.618478">
<ele>473.5</ele>
<speed>12.6</speed>
<course>38.4</course>
<desc>Speed 12.6 km/h Distance 16.35 km</desc>
<time>2011-09-29T10:49:44.74</time>
<name>2946</name>
</trkpt>
<trkpt lat="41.683288" lon="-0.618450">
<ele>473.5</ele>
<speed>13.4</speed>
<course>35.1</course>
<desc>Speed 13.4 km/h Distance 16.35 km</desc>
<time>2011-09-29T10:49:45.74</time>
<name>2947</name>
</trkpt>
<trkpt lat="41.683317" lon="-0.618423">
<ele>474.0</ele>
<speed>13.5</speed>
<course>30.2</course>
<desc>Speed 13.5 km/h Distance 16.35 km</desc>
<time>2011-09-29T10:49:46.78</time>
<name>2948</name>
</trkpt>
<trkpt lat="41.683347" lon="-0.618400">
<ele>474.5</ele>
<speed>13.5</speed>
<course>28.9</course>
<desc>Speed 13.5 km/h Distance 16.36 km</desc>
<time>2011-09-29T10:49:47.74</time>
<name>2949</name>
</trkpt>
<trkpt lat="41.683378" lon="-0.618377">
<ele>474.5</ele>
<speed>14.4</speed>
<course>21.4</course>
<desc>Speed 14.4 km/h Distance 16.36 km</desc>
<time>2011-09-29T10:49:48.74</time>
<name>2950</name>
</trkpt>
<trkpt lat="41.683413" lon="-0.618358">
<ele>475.0</ele>
<speed>14.5</speed>
<course>15.2</course>
<desc>Speed 14.5 km/h Distance 16.37 km</desc>
<time>2011-09-29T10:49:49.74</time>
<name>2951</name>
</trkpt>
<trkpt lat="41.683450" lon="-0.618345">
<ele>475.0</ele>
<speed>14.4</speed>
<course>10.5</course>
<desc>Speed 14.4 km/h Distance 16.37 km</desc>
<time>2011-09-29T10:49:50.74</time>
<name>2952</name>
</trkpt>
<trkpt lat="41.683483" lon="-0.618337">
<ele>475.0</ele>
<speed>13.5</speed>
<course>8.8</course>
<desc>Speed 13.5 km/h Distance 16.37 km</desc>
<time>2011-09-29T10:49:51.74</time>
<name>2953</name>
</trkpt>
<trkpt lat="41.683515" lon="-0.618330">
<ele>475.5</ele>
<speed>12.8</speed>
<course>11.0</course>
<desc>Speed 12.8 km/h Distance 16.38 km</desc>
<time>2011-09-29T10:49:52.74</time>
<name>2954</name>
</trkpt>
<trkpt lat="41.683547" lon="-0.618322">
<ele>475.5</ele>
<speed>12.6</speed>
<course>19.3</course>
<desc>Speed 12.6 km/h Distance 16.38 km</desc>
<time>2011-09-29T10:49:53.74</time>
<name>2955</name>
</trkpt>
<trkpt lat="41.683575" lon="-0.618308">
<ele>476.0</ele>
<speed>12.1</speed>
<course>11.6</course>
<desc>Speed 12.1 km/h Distance 16.38 km</desc>
<time>2011-09-29T10:49:54.73</time>
<name>2956</name>
</trkpt>
<trkpt lat="41.683605" lon="-0.618300">
<ele>476.0</ele>
<speed>11.9</speed>
<course>7.1</course>
<desc>Speed 11.9 km/h Distance 16.39 km</desc>
<time>2011-09-29T10:49:55.73</time>
<name>2957</name>
</trkpt>
<trkpt lat="41.683635" lon="-0.618295">
<ele>476.5</ele>
<speed>11.4</speed>
<course>0.0</course>
<desc>Speed 11.4 km/h Distance 16.39 km</desc>
<time>2011-09-29T10:49:56.73</time>
<name>2958</name>
</trkpt>
<trkpt lat="41.683663" lon="-0.618295">
<ele>477.0</ele>
<speed>11.3</speed>
<course>0.0</course>
<desc>Speed 11.3 km/h Distance 16.39 km</desc>
<time>2011-09-29T10:49:57.73</time>
<name>2959</name>
</trkpt>
<trkpt lat="41.683693" lon="-0.618295">
<ele>477.5</ele>
<speed>11.7</speed>
<course>5.8</course>
<desc>Speed 11.7 km/h Distance 16.40 km</desc>
<time>2011-09-29T10:49:59.29</time>
<name>2960</name>
</trkpt>
<trkpt lat="41.683755" lon="-0.618287">
<ele>478.0</ele>
<speed>12.4</speed>
<course>6.6</course>
<desc>Speed 12.4 km/h Distance 16.40 km</desc>
<time>2011-09-29T10:50:00.73</time>
<name>2961</name>
</trkpt>
<trkpt lat="41.683787" lon="-0.618282">
<ele>478.0</ele>
<speed>12.8</speed>
<course>10.6</course>
<desc>Speed 12.8 km/h Distance 16.41 km</desc>
<time>2011-09-29T10:50:01.73</time>
<name>2962</name>
</trkpt>
<trkpt lat="41.683820" lon="-0.618273">
<ele>478.5</ele>
<speed>13.0</speed>
<course>1.9</course>
<desc>Speed 13.0 km/h Distance 16.41 km</desc>
<time>2011-09-29T10:50:02.73</time>
<name>2963</name>
</trkpt>
<trkpt lat="41.683853" lon="-0.618272">
<ele>479.0</ele>
<speed>13.2</speed>
<course>0.9</course>
<desc>Speed 13.2 km/h Distance 16.42 km</desc>
<time>2011-09-29T10:50:03.73</time>
<name>2964</name>
</trkpt>
<trkpt lat="41.683885" lon="-0.618272">
<ele>479.5</ele>
<speed>12.9</speed>
<course>353.9</course>
<desc>Speed 12.9 km/h Distance 16.42 km</desc>
<time>2011-09-29T10:50:04.73</time>
<name>2965</name>
</trkpt>
<trkpt lat="41.683920" lon="-0.618277">
<ele>479.5</ele>
<speed>13.8</speed>
<course>4.1</course>
<desc>Speed 13.8 km/h Distance 16.42 km</desc>
<time>2011-09-29T10:50:05.73</time>
<name>2966</name>
</trkpt>
<trkpt lat="41.683955" lon="-0.618273">
<ele>480.0</ele>
<speed>14.4</speed>
<course>358.3</course>
<desc>Speed 14.4 km/h Distance 16.43 km</desc>
<time>2011-09-29T10:50:06.72</time>
<name>2967</name>
</trkpt>
<trkpt lat="41.683992" lon="-0.618275">
<ele>480.5</ele>
<speed>14.1</speed>
<course>358.1</course>
<desc>Speed 14.1 km/h Distance 16.43 km</desc>
<time>2011-09-29T10:50:07.73</time>
<name>2968</name>
</trkpt>
<trkpt lat="41.684030" lon="-0.618277">
<ele>480.5</ele>
<speed>15.7</speed>
<course>5.9</course>
<desc>Speed 15.7 km/h Distance 16.43 km</desc>
<time>2011-09-29T10:50:09.02</time>
<name>2969</name>
</trkpt>
<trkpt lat="41.684115" lon="-0.618265">
<ele>481.5</ele>
<speed>17.0</speed>
<course>8.5</course>
<desc>Speed 17.0 km/h Distance 16.44 km</desc>
<time>2011-09-29T10:50:10.72</time>
<name>2970</name>
</trkpt>
<trkpt lat="41.684157" lon="-0.618257">
<ele>481.5</ele>
<speed>16.8</speed>
<course>5.0</course>
<desc>Speed 16.8 km/h Distance 16.45 km</desc>
<time>2011-09-29T10:50:11.73</time>
<name>2971</name>
</trkpt>
<trkpt lat="41.684198" lon="-0.618252">
<ele>482.0</ele>
<speed>16.1</speed>
<course>3.4</course>
<desc>Speed 16.1 km/h Distance 16.45 km</desc>
<time>2011-09-29T10:50:12.72</time>
<name>2972</name>
</trkpt>
<trkpt lat="41.684240" lon="-0.618248">
<ele>482.0</ele>
<speed>16.6</speed>
<course>3.2</course>
<desc>Speed 16.6 km/h Distance 16.46 km</desc>
<time>2011-09-29T10:50:13.72</time>
<name>2973</name>
</trkpt>
<trkpt lat="41.684280" lon="-0.618245">
<ele>482.5</ele>
<speed>16.2</speed>
<course>1.7</course>
<desc>Speed 16.2 km/h Distance 16.46 km</desc>
<time>2011-09-29T10:50:14.72</time>
<name>2974</name>
</trkpt>
<trkpt lat="41.684317" lon="-0.618243">
<ele>483.0</ele>
<speed>14.3</speed>
<course>1.7</course>
<desc>Speed 14.3 km/h Distance 16.47 km</desc>
<time>2011-09-29T10:50:15.96</time>
<name>2975</name>
</trkpt>
<trkpt lat="41.684352" lon="-0.618242">
<ele>483.0</ele>
<speed>13.9</speed>
<course>1.7</course>
<desc>Speed 13.9 km/h Distance 16.47 km</desc>
<time>2011-09-29T10:50:16.72</time>
<name>2976</name>
</trkpt>
<trkpt lat="41.684388" lon="-0.618240">
<ele>483.0</ele>
<speed>14.0</speed>
<course>0.0</course>
<desc>Speed 14.0 km/h Distance 16.47 km</desc>
<time>2011-09-29T10:50:17.72</time>
<name>2977</name>
</trkpt>
<trkpt lat="41.684422" lon="-0.618240">
<ele>483.5</ele>
<speed>12.9</speed>
<course>351.0</course>
<desc>Speed 12.9 km/h Distance 16.48 km</desc>
<time>2011-09-29T10:50:18.76</time>
<name>2978</name>
</trkpt>
<trkpt lat="41.684453" lon="-0.618247">
<ele>483.5</ele>
<speed>12.4</speed>
<course>340.6</course>
<desc>Speed 12.4 km/h Distance 16.48 km</desc>
<time>2011-09-29T10:50:19.72</time>
<name>2979</name>
</trkpt>
<trkpt lat="41.684482" lon="-0.618260">
<ele>483.5</ele>
<speed>11.7</speed>
<course>343.8</course>
<desc>Speed 11.7 km/h Distance 16.49 km</desc>
<time>2011-09-29T10:50:20.72</time>
<name>2980</name>
</trkpt>
<trkpt lat="41.684512" lon="-0.618272">
<ele>484.0</ele>
<speed>12.3</speed>
<course>344.6</course>
<desc>Speed 12.3 km/h Distance 16.49 km</desc>
<time>2011-09-29T10:50:21.72</time>
<name>2981</name>
</trkpt>
<trkpt lat="41.684543" lon="-0.618283">
<ele>484.0</ele>
<speed>12.9</speed>
<course>346.7</course>
<desc>Speed 12.9 km/h Distance 16.49 km</desc>
<time>2011-09-29T10:50:22.72</time>
<name>2982</name>
</trkpt>
<trkpt lat="41.684575" lon="-0.618293">
<ele>484.5</ele>
<speed>13.1</speed>
<course>353.5</course>
<desc>Speed 13.1 km/h Distance 16.50 km</desc>
<time>2011-09-29T10:50:23.71</time>
<name>2983</name>
</trkpt>
<trkpt lat="41.684608" lon="-0.618298">
<ele>485.0</ele>
<speed>13.2</speed>
<course>348.0</course>
<desc>Speed 13.2 km/h Distance 16.50 km</desc>
<time>2011-09-29T10:50:24.72</time>
<name>2984</name>
</trkpt>
<trkpt lat="41.684643" lon="-0.618308">
<ele>485.0</ele>
<speed>14.5</speed>
<course>342.2</course>
<desc>Speed 14.5 km/h Distance 16.50 km</desc>
<time>2011-09-29T10:50:25.71</time>
<name>2985</name>
</trkpt>
<trkpt lat="41.684678" lon="-0.618323">
<ele>485.0</ele>
<speed>14.4</speed>
<course>341.4</course>
<desc>Speed 14.4 km/h Distance 16.51 km</desc>
<time>2011-09-29T10:50:26.71</time>
<name>2986</name>
</trkpt>
<trkpt lat="41.684712" lon="-0.618338">
<ele>485.5</ele>
<speed>14.2</speed>
<course>341.4</course>
<desc>Speed 14.2 km/h Distance 16.51 km</desc>
<time>2011-09-29T10:50:28.49</time>
<name>2987</name>
</trkpt>
<trkpt lat="41.684815" lon="-0.618385">
<ele>486.0</ele>
<speed>13.9</speed>
<course>349.6</course>
<desc>Speed 13.9 km/h Distance 16.52 km</desc>
<time>2011-09-29T10:50:30.71</time>
<name>2988</name>
</trkpt>
<trkpt lat="41.684848" lon="-0.618393">
<ele>486.0</ele>
<speed>13.7</speed>
<course>352.0</course>
<desc>Speed 13.7 km/h Distance 16.53 km</desc>
<time>2011-09-29T10:50:31.71</time>
<name>2989</name>
</trkpt>
<trkpt lat="41.684883" lon="-0.618400">
<ele>486.0</ele>
<speed>13.5</speed>
<course>337.5</course>
<desc>Speed 13.5 km/h Distance 16.53 km</desc>
<time>2011-09-29T10:50:32.71</time>
<name>2990</name>
</trkpt>
<trkpt lat="41.684913" lon="-0.618417">
<ele>486.5</ele>
<speed>13.2</speed>
<course>331.1</course>
<desc>Speed 13.2 km/h Distance 16.54 km</desc>
<time>2011-09-29T10:50:33.71</time>
<name>2991</name>
</trkpt>
<trkpt lat="41.684945" lon="-0.618440">
<ele>486.5</ele>
<speed>13.8</speed>
<course>328.4</course>
<desc>Speed 13.8 km/h Distance 16.54 km</desc>
<time>2011-09-29T10:50:34.71</time>
<name>2992</name>
</trkpt>
<trkpt lat="41.684973" lon="-0.618463">
<ele>487.0</ele>
<speed>13.5</speed>
<course>331.7</course>
<desc>Speed 13.5 km/h Distance 16.54 km</desc>
<time>2011-09-29T10:50:35.71</time>
<name>2993</name>
</trkpt>
<trkpt lat="41.685003" lon="-0.618485">
<ele>487.0</ele>
<speed>13.5</speed>
<course>337.7</course>
<desc>Speed 13.5 km/h Distance 16.55 km</desc>
<time>2011-09-29T10:50:36.71</time>
<name>2994</name>
</trkpt>
<trkpt lat="41.685037" lon="-0.618503">
<ele>487.0</ele>
<speed>13.7</speed>
<course>331.4</course>
<desc>Speed 13.7 km/h Distance 16.55 km</desc>
<time>2011-09-29T10:50:38.23</time>
<name>2995</name>
</trkpt>
<trkpt lat="41.685098" lon="-0.618548">
<ele>487.0</ele>
<speed>13.9</speed>
<course>329.1</course>
<desc>Speed 13.9 km/h Distance 16.56 km</desc>
<time>2011-09-29T10:50:39.71</time>
<name>2996</name>
</trkpt>
<trkpt lat="41.685132" lon="-0.618575">
<ele>487.0</ele>
<speed>15.1</speed>
<course>332.4</course>
<desc>Speed 15.1 km/h Distance 16.56 km</desc>
<time>2011-09-29T10:50:40.70</time>
<name>2997</name>
</trkpt>
<trkpt lat="41.685165" lon="-0.618598">
<ele>487.0</ele>
<speed>15.2</speed>
<course>329.2</course>
<desc>Speed 15.2 km/h Distance 16.57 km</desc>
<time>2011-09-29T10:50:41.71</time>
<name>2998</name>
</trkpt>
<trkpt lat="41.685198" lon="-0.618625">
<ele>487.5</ele>
<speed>15.1</speed>
<course>320.4</course>
<desc>Speed 15.1 km/h Distance 16.57 km</desc>
<time>2011-09-29T10:50:42.70</time>
<name>2999</name>
</trkpt>
<trkpt lat="41.685230" lon="-0.618660">
<ele>487.5</ele>
<speed>15.9</speed>
<course>319.2</course>
<desc>Speed 15.9 km/h Distance 16.58 km</desc>
<time>2011-09-29T10:50:43.71</time>
<name>3000</name>
</trkpt>
<trkpt lat="41.685262" lon="-0.618697">
<ele>487.5</ele>
<speed>16.7</speed>
<course>328.8</course>
<desc>Speed 16.7 km/h Distance 16.58 km</desc>
<time>2011-09-29T10:50:44.70</time>
<name>3001</name>
</trkpt>
<trkpt lat="41.685297" lon="-0.618725">
<ele>487.5</ele>
<speed>16.6</speed>
<course>326.1</course>
<desc>Speed 16.6 km/h Distance 16.59 km</desc>
<time>2011-09-29T10:50:45.70</time>
<name>3002</name>
</trkpt>
<trkpt lat="41.685330" lon="-0.618755">
<ele>488.0</ele>
<speed>15.7</speed>
<course>323.2</course>
<desc>Speed 15.7 km/h Distance 16.59 km</desc>
<time>2011-09-29T10:50:46.70</time>
<name>3003</name>
</trkpt>
<trkpt lat="41.685362" lon="-0.618787">
<ele>488.0</ele>
<speed>15.4</speed>
<course>324.0</course>
<desc>Speed 15.4 km/h Distance 16.59 km</desc>
<time>2011-09-29T10:50:48.03</time>
<name>3004</name>
</trkpt>
<trkpt lat="41.685425" lon="-0.618848">
<ele>488.0</ele>
<speed>15.6</speed>
<course>327.6</course>
<desc>Speed 15.6 km/h Distance 16.60 km</desc>
<time>2011-09-29T10:50:49.71</time>
<name>3005</name>
</trkpt>
<trkpt lat="41.685458" lon="-0.618877">
<ele>488.0</ele>
<speed>15.7</speed>
<course>320.4</course>
<desc>Speed 15.7 km/h Distance 16.61 km</desc>
<time>2011-09-29T10:50:50.70</time>
<name>3006</name>
</trkpt>
<trkpt lat="41.685490" lon="-0.618912">
<ele>488.0</ele>
<speed>15.8</speed>
<course>323.2</course>
<desc>Speed 15.8 km/h Distance 16.61 km</desc>
<time>2011-09-29T10:50:51.70</time>
<name>3007</name>
</trkpt>
<trkpt lat="41.685522" lon="-0.618943">
<ele>488.0</ele>
<speed>15.6</speed>
<course>319.2</course>
<desc>Speed 15.6 km/h Distance 16.62 km</desc>
<time>2011-09-29T10:50:52.70</time>
<name>3008</name>
</trkpt>
<trkpt lat="41.685553" lon="-0.618980">
<ele>488.0</ele>
<speed>16.5</speed>
<course>319.4</course>
<desc>Speed 16.5 km/h Distance 16.62 km</desc>
<time>2011-09-29T10:50:53.70</time>
<name>3009</name>
</trkpt>
<trkpt lat="41.685587" lon="-0.619018">
<ele>487.5</ele>
<speed>17.3</speed>
<course>329.0</course>
<desc>Speed 17.3 km/h Distance 16.63 km</desc>
<time>2011-09-29T10:50:54.95</time>
<name>3010</name>
</trkpt>
<trkpt lat="41.685663" lon="-0.619080">
<ele>487.5</ele>
<speed>17.8</speed>
<course>326.8</course>
<desc>Speed 17.8 km/h Distance 16.64 km</desc>
<time>2011-09-29T10:50:56.70</time>
<name>3011</name>
</trkpt>
<trkpt lat="41.685703" lon="-0.619115">
<ele>487.0</ele>
<speed>18.6</speed>
<course>319.7</course>
<desc>Speed 18.6 km/h Distance 16.64 km</desc>
<time>2011-09-29T10:50:57.76</time>
<name>3012</name>
</trkpt>
<trkpt lat="41.685740" lon="-0.619157">
<ele>487.0</ele>
<speed>18.9</speed>
<course>328.1</course>
<desc>Speed 18.9 km/h Distance 16.65 km</desc>
<time>2011-09-29T10:50:58.70</time>
<name>3013</name>
</trkpt>
<trkpt lat="41.685780" lon="-0.619190">
<ele>487.0</ele>
<speed>18.5</speed>
<course>324.5</course>
<desc>Speed 18.5 km/h Distance 16.65 km</desc>
<time>2011-09-29T10:50:59.70</time>
<name>3014</name>
</trkpt>
<trkpt lat="41.685817" lon="-0.619225">
<ele>487.0</ele>
<speed>18.3</speed>
<course>324.5</course>
<desc>Speed 18.3 km/h Distance 16.66 km</desc>
<time>2011-09-29T10:51:00.70</time>
<name>3015</name>
</trkpt>
<trkpt lat="41.685855" lon="-0.619262">
<ele>486.5</ele>
<speed>18.5</speed>
<course>325.7</course>
<desc>Speed 18.5 km/h Distance 16.66 km</desc>
<time>2011-09-29T10:51:01.69</time>
<name>3016</name>
</trkpt>
<trkpt lat="41.685893" lon="-0.619297">
<ele>486.5</ele>
<speed>18.2</speed>
<course>327.0</course>
<desc>Speed 18.2 km/h Distance 16.67 km</desc>
<time>2011-09-29T10:51:02.69</time>
<name>3017</name>
</trkpt>
<trkpt lat="41.685932" lon="-0.619330">
<ele>486.5</ele>
<speed>17.8</speed>
<course>329.7</course>
<desc>Speed 17.8 km/h Distance 16.67 km</desc>
<time>2011-09-29T10:51:03.70</time>
<name>3018</name>
</trkpt>
<trkpt lat="41.685970" lon="-0.619360">
<ele>486.5</ele>
<speed>17.2</speed>
<course>328.6</course>
<desc>Speed 17.2 km/h Distance 16.68 km</desc>
<time>2011-09-29T10:51:04.70</time>
<name>3019</name>
</trkpt>
<trkpt lat="41.686007" lon="-0.619390">
<ele>486.5</ele>
<speed>17.0</speed>
<course>327.2</course>
<desc>Speed 17.0 km/h Distance 16.68 km</desc>
<time>2011-09-29T10:51:05.69</time>
<name>3020</name>
</trkpt>
<trkpt lat="41.686043" lon="-0.619422">
<ele>486.5</ele>
<speed>17.2</speed>
<course>327.2</course>
<desc>Speed 17.2 km/h Distance 16.69 km</desc>
<time>2011-09-29T10:51:06.69</time>
<name>3021</name>
</trkpt>
<trkpt lat="41.686080" lon="-0.619453">
<ele>486.5</ele>
<speed>17.0</speed>
<course>328.6</course>
<desc>Speed 17.0 km/h Distance 16.69 km</desc>
<time>2011-09-29T10:51:07.69</time>
<name>3022</name>
</trkpt>
<trkpt lat="41.686117" lon="-0.619483">
<ele>486.5</ele>
<speed>17.1</speed>
<course>332.5</course>
<desc>Speed 17.1 km/h Distance 16.70 km</desc>
<time>2011-09-29T10:51:08.69</time>
<name>3023</name>
</trkpt>
<trkpt lat="41.686155" lon="-0.619510">
<ele>486.5</ele>
<speed>17.5</speed>
<course>338.0</course>
<desc>Speed 17.5 km/h Distance 16.70 km</desc>
<time>2011-09-29T10:51:09.70</time>
<name>3024</name>
</trkpt>
<trkpt lat="41.686195" lon="-0.619532">
<ele>486.5</ele>
<speed>17.0</speed>
<course>334.0</course>
<desc>Speed 17.0 km/h Distance 16.71 km</desc>
<time>2011-09-29T10:51:10.69</time>
<name>3025</name>
</trkpt>
<trkpt lat="41.686233" lon="-0.619557">
<ele>486.5</ele>
<speed>17.1</speed>
<course>338.0</course>
<desc>Speed 17.1 km/h Distance 16.71 km</desc>
<time>2011-09-29T10:51:11.69</time>
<name>3026</name>
</trkpt>
<trkpt lat="41.686273" lon="-0.619578">
<ele>486.5</ele>
<speed>17.0</speed>
<course>337.1</course>
<desc>Speed 17.0 km/h Distance 16.72 km</desc>
<time>2011-09-29T10:51:12.69</time>
<name>3027</name>
</trkpt>
<trkpt lat="41.686312" lon="-0.619600">
<ele>486.5</ele>
<speed>16.6</speed>
<course>337.1</course>
<desc>Speed 16.6 km/h Distance 16.72 km</desc>
<time>2011-09-29T10:51:13.69</time>
<name>3028</name>
</trkpt>
<trkpt lat="41.686350" lon="-0.619622">
<ele>486.5</ele>
<speed>16.4</speed>
<course>340.3</course>
<desc>Speed 16.4 km/h Distance 16.72 km</desc>
<time>2011-09-29T10:51:14.69</time>
<name>3029</name>
</trkpt>
<trkpt lat="41.686388" lon="-0.619640">
<ele>486.5</ele>
<speed>16.2</speed>
<course>342.7</course>
<desc>Speed 16.2 km/h Distance 16.73 km</desc>
<time>2011-09-29T10:51:15.69</time>
<name>3030</name>
</trkpt>
<trkpt lat="41.686428" lon="-0.619657">
<ele>486.5</ele>
<speed>16.2</speed>
<course>341.5</course>
<desc>Speed 16.2 km/h Distance 16.73 km</desc>
<time>2011-09-29T10:51:17.26</time>
<name>3031</name>
</trkpt>
<trkpt lat="41.686507" lon="-0.619692">
<ele>486.5</ele>
<speed>16.3</speed>
<course>342.0</course>
<desc>Speed 16.3 km/h Distance 16.74 km</desc>
<time>2011-09-29T10:51:18.68</time>
<name>3032</name>
</trkpt>
<trkpt lat="41.686545" lon="-0.619708">
<ele>487.0</ele>
<speed>16.2</speed>
<course>348.6</course>
<desc>Speed 16.2 km/h Distance 16.75 km</desc>
<time>2011-09-29T10:51:19.68</time>
<name>3033</name>
</trkpt>
<trkpt lat="41.686588" lon="-0.619720">
<ele>487.0</ele>
<speed>17.0</speed>
<course>348.2</course>
<desc>Speed 17.0 km/h Distance 16.75 km</desc>
<time>2011-09-29T10:51:20.68</time>
<name>3034</name>
</trkpt>
<trkpt lat="41.686630" lon="-0.619732">
<ele>487.0</ele>
<speed>17.2</speed>
<course>353.5</course>
<desc>Speed 17.2 km/h Distance 16.76 km</desc>
<time>2011-09-29T10:51:21.68</time>
<name>3035</name>
</trkpt>
<trkpt lat="41.686673" lon="-0.619738">
<ele>487.5</ele>
<speed>16.8</speed>
<course>353.2</course>
<desc>Speed 16.8 km/h Distance 16.76 km</desc>
<time>2011-09-29T10:51:22.68</time>
<name>3036</name>
</trkpt>
<trkpt lat="41.686715" lon="-0.619745">
<ele>487.5</ele>
<speed>17.0</speed>
<course>353.7</course>
<desc>Speed 17.0 km/h Distance 16.77 km</desc>
<time>2011-09-29T10:51:23.68</time>
<name>3037</name>
</trkpt>
<trkpt lat="41.686760" lon="-0.619752">
<ele>487.5</ele>
<speed>17.9</speed>
<course>357.0</course>
<desc>Speed 17.9 km/h Distance 16.77 km</desc>
<time>2011-09-29T10:51:24.68</time>
<name>3038</name>
</trkpt>
<trkpt lat="41.686807" lon="-0.619755">
<ele>487.5</ele>
<speed>18.3</speed>
<course>354.0</course>
<desc>Speed 18.3 km/h Distance 16.78 km</desc>
<time>2011-09-29T10:51:25.68</time>
<name>3039</name>
</trkpt>
<trkpt lat="41.686853" lon="-0.619762">
<ele>487.5</ele>
<speed>18.2</speed>
<course>3.0</course>
<desc>Speed 18.2 km/h Distance 16.78 km</desc>
<time>2011-09-29T10:51:26.99</time>
<name>3040</name>
</trkpt>
<trkpt lat="41.686947" lon="-0.619755">
<ele>488.0</ele>
<speed>18.1</speed>
<course>4.6</course>
<desc>Speed 18.1 km/h Distance 16.79 km</desc>
<time>2011-09-29T10:51:28.68</time>
<name>3041</name>
</trkpt>
<trkpt lat="41.686992" lon="-0.619750">
<ele>488.0</ele>
<speed>18.1</speed>
<course>3.0</course>
<desc>Speed 18.1 km/h Distance 16.80 km</desc>
<time>2011-09-29T10:51:29.68</time>
<name>3042</name>
</trkpt>
<trkpt lat="41.687038" lon="-0.619747">
<ele>488.5</ele>
<speed>18.2</speed>
<course>4.8</course>
<desc>Speed 18.2 km/h Distance 16.80 km</desc>
<time>2011-09-29T10:51:30.68</time>
<name>3043</name>
</trkpt>
<trkpt lat="41.687083" lon="-0.619742">
<ele>488.5</ele>
<speed>18.3</speed>
<course>4.5</course>
<desc>Speed 18.3 km/h Distance 16.81 km</desc>
<time>2011-09-29T10:51:31.68</time>
<name>3044</name>
</trkpt>
<trkpt lat="41.687130" lon="-0.619737">
<ele>488.5</ele>
<speed>18.4</speed>
<course>4.5</course>
<desc>Speed 18.4 km/h Distance 16.81 km</desc>
<time>2011-09-29T10:51:32.67</time>
<name>3045</name>
</trkpt>
<trkpt lat="41.687177" lon="-0.619732">
<ele>489.0</ele>
<speed>18.3</speed>
<course>4.5</course>
<desc>Speed 18.3 km/h Distance 16.82 km</desc>
<time>2011-09-29T10:51:33.93</time>
<name>3046</name>
</trkpt>
<trkpt lat="41.687270" lon="-0.619722">
<ele>489.0</ele>
<speed>18.9</speed>
<course>8.8</course>
<desc>Speed 18.9 km/h Distance 16.83 km</desc>
<time>2011-09-29T10:51:35.68</time>
<name>3047</name>
</trkpt>
<trkpt lat="41.687318" lon="-0.619712">
<ele>489.0</ele>
<speed>18.6</speed>
<course>9.1</course>
<desc>Speed 18.6 km/h Distance 16.83 km</desc>
<time>2011-09-29T10:51:36.73</time>
<name>3048</name>
</trkpt>
<trkpt lat="41.687365" lon="-0.619702">
<ele>489.0</ele>
<speed>18.5</speed>
<course>5.9</course>
<desc>Speed 18.5 km/h Distance 16.84 km</desc>
<time>2011-09-29T10:51:37.67</time>
<name>3049</name>
</trkpt>
<trkpt lat="41.687412" lon="-0.619695">
<ele>489.0</ele>
<speed>18.3</speed>
<course>7.3</course>
<desc>Speed 18.3 km/h Distance 16.84 km</desc>
<time>2011-09-29T10:51:38.67</time>
<name>3050</name>
</trkpt>
<trkpt lat="41.687460" lon="-0.619687">
<ele>489.0</ele>
<speed>18.7</speed>
<course>7.3</course>
<desc>Speed 18.7 km/h Distance 16.85 km</desc>
<time>2011-09-29T10:51:39.67</time>
<name>3051</name>
</trkpt>
<trkpt lat="41.687508" lon="-0.619678">
<ele>489.5</ele>
<speed>18.7</speed>
<course>7.5</course>
<desc>Speed 18.7 km/h Distance 16.86 km</desc>
<time>2011-09-29T10:51:40.67</time>
<name>3052</name>
</trkpt>
<trkpt lat="41.687555" lon="-0.619670">
<ele>489.5</ele>
<speed>18.8</speed>
<course>11.0</course>
<desc>Speed 18.8 km/h Distance 16.86 km</desc>
<time>2011-09-29T10:51:41.67</time>
<name>3053</name>
</trkpt>
<trkpt lat="41.687600" lon="-0.619658">
<ele>489.5</ele>
<speed>18.6</speed>
<course>10.6</course>
<desc>Speed 18.6 km/h Distance 16.87 km</desc>
<time>2011-09-29T10:51:42.67</time>
<name>3054</name>
</trkpt>
<trkpt lat="41.687647" lon="-0.619647">
<ele>489.5</ele>
<speed>18.4</speed>
<course>14.0</course>
<desc>Speed 18.4 km/h Distance 16.87 km</desc>
<time>2011-09-29T10:51:43.67</time>
<name>3055</name>
</trkpt>
<trkpt lat="41.687692" lon="-0.619632">
<ele>490.0</ele>
<speed>17.9</speed>
<course>9.7</course>
<desc>Speed 17.9 km/h Distance 16.88 km</desc>
<time>2011-09-29T10:51:44.67</time>
<name>3056</name>
</trkpt>
<trkpt lat="41.687735" lon="-0.619622">
<ele>490.0</ele>
<speed>17.1</speed>
<course>21.5</course>
<desc>Speed 17.1 km/h Distance 16.88 km</desc>
<time>2011-09-29T10:51:46.46</time>
<name>3057</name>
</trkpt>
<trkpt lat="41.687862" lon="-0.619555">
<ele>490.5</ele>
<speed>17.4</speed>
<course>22.0</course>
<desc>Speed 17.4 km/h Distance 16.90 km</desc>
<time>2011-09-29T10:51:48.67</time>
<name>3058</name>
</trkpt>
<trkpt lat="41.687902" lon="-0.619533">
<ele>491.0</ele>
<speed>17.1</speed>
<course>23.6</course>
<desc>Speed 17.1 km/h Distance 16.90 km</desc>
<time>2011-09-29T10:51:49.67</time>
<name>3059</name>
</trkpt>
<trkpt lat="41.687942" lon="-0.619510">
<ele>491.0</ele>
<speed>17.6</speed>
<course>23.6</course>
<desc>Speed 17.6 km/h Distance 16.91 km</desc>
<time>2011-09-29T10:51:50.67</time>
<name>3060</name>
</trkpt>
<trkpt lat="41.687982" lon="-0.619487">
<ele>491.5</ele>
<speed>17.4</speed>
<course>23.6</course>
<desc>Speed 17.4 km/h Distance 16.91 km</desc>
<time>2011-09-29T10:51:51.67</time>
<name>3061</name>
</trkpt>
<trkpt lat="41.688022" lon="-0.619463">
<ele>491.5</ele>
<speed>17.4</speed>
<course>25.0</course>
<desc>Speed 17.4 km/h Distance 16.92 km</desc>
<time>2011-09-29T10:51:52.66</time>
<name>3062</name>
</trkpt>
<trkpt lat="41.688062" lon="-0.619438">
<ele>491.5</ele>
<speed>17.1</speed>
<course>32.8</course>
<desc>Speed 17.1 km/h Distance 16.92 km</desc>
<time>2011-09-29T10:51:53.66</time>
<name>3063</name>
</trkpt>
<trkpt lat="41.688098" lon="-0.619407">
<ele>492.0</ele>
<speed>17.0</speed>
<course>28.5</course>
<desc>Speed 17.0 km/h Distance 16.93 km</desc>
<time>2011-09-29T10:51:54.66</time>
<name>3064</name>
</trkpt>
<trkpt lat="41.688135" lon="-0.619380">
<ele>492.0</ele>
<speed>17.0</speed>
<course>34.6</course>
<desc>Speed 17.0 km/h Distance 16.93 km</desc>
<time>2011-09-29T10:51:56.20</time>
<name>3065</name>
</trkpt>
<trkpt lat="41.688202" lon="-0.619318">
<ele>492.5</ele>
<speed>16.0</speed>
<course>36.7</course>
<desc>Speed 16.0 km/h Distance 16.94 km</desc>
<time>2011-09-29T10:51:57.66</time>
<name>3066</name>
</trkpt>
<trkpt lat="41.688233" lon="-0.619287">
<ele>492.5</ele>
<speed>15.8</speed>
<course>32.4</course>
<desc>Speed 15.8 km/h Distance 16.94 km</desc>
<time>2011-09-29T10:51:58.66</time>
<name>3067</name>
</trkpt>
<trkpt lat="41.688267" lon="-0.619258">
<ele>493.0</ele>
<speed>15.2</speed>
<course>20.5</course>
<desc>Speed 15.2 km/h Distance 16.95 km</desc>
<time>2011-09-29T10:51:59.66</time>
<name>3068</name>
</trkpt>
<trkpt lat="41.688303" lon="-0.619240">
<ele>493.0</ele>
<speed>16.1</speed>
<course>22.9</course>
<desc>Speed 16.1 km/h Distance 16.95 km</desc>
<time>2011-09-29T10:52:00.66</time>
<name>3069</name>
</trkpt>
<trkpt lat="41.688342" lon="-0.619218">
<ele>493.0</ele>
<speed>16.1</speed>
<course>32.2</course>
<desc>Speed 16.1 km/h Distance 16.96 km</desc>
<time>2011-09-29T10:52:01.66</time>
<name>3070</name>
</trkpt>
<trkpt lat="41.688373" lon="-0.619192">
<ele>493.0</ele>
<speed>15.0</speed>
<course>27.6</course>
<desc>Speed 15.0 km/h Distance 16.96 km</desc>
<time>2011-09-29T10:52:02.66</time>
<name>3071</name>
</trkpt>
<trkpt lat="41.688407" lon="-0.619168">
<ele>493.0</ele>
<speed>15.0</speed>
<course>26.5</course>
<desc>Speed 15.0 km/h Distance 16.97 km</desc>
<time>2011-09-29T10:52:03.66</time>
<name>3072</name>
</trkpt>
<trkpt lat="41.688442" lon="-0.619145">
<ele>493.0</ele>
<speed>15.0</speed>
<course>24.8</course>
<desc>Speed 15.0 km/h Distance 16.97 km</desc>
<time>2011-09-29T10:52:04.66</time>
<name>3073</name>
</trkpt>
<trkpt lat="41.688477" lon="-0.619123">
<ele>493.0</ele>
<speed>15.4</speed>
<course>25.1</course>
<desc>Speed 15.4 km/h Distance 16.97 km</desc>
<time>2011-09-29T10:52:05.98</time>
<name>3074</name>
</trkpt>
<trkpt lat="41.688548" lon="-0.619078">
<ele>493.5</ele>
<speed>15.6</speed>
<course>26.4</course>
<desc>Speed 15.6 km/h Distance 16.98 km</desc>
<time>2011-09-29T10:52:07.65</time>
<name>3075</name>
</trkpt>
<trkpt lat="41.688583" lon="-0.619055">
<ele>493.5</ele>
<speed>15.9</speed>
<course>28.5</course>
<desc>Speed 15.9 km/h Distance 16.99 km</desc>
<time>2011-09-29T10:52:08.65</time>
<name>3076</name>
</trkpt>
<trkpt lat="41.688620" lon="-0.619028">
<ele>493.5</ele>
<speed>16.3</speed>
<course>23.8</course>
<desc>Speed 16.3 km/h Distance 16.99 km</desc>
<time>2011-09-29T10:52:09.66</time>
<name>3077</name>
</trkpt>
<trkpt lat="41.688657" lon="-0.619007">
<ele>493.5</ele>
<speed>16.3</speed>
<course>22.9</course>
<desc>Speed 16.3 km/h Distance 17.00 km</desc>
<time>2011-09-29T10:52:10.65</time>
<name>3078</name>
</trkpt>
<trkpt lat="41.688695" lon="-0.618985">
<ele>493.5</ele>
<speed>16.5</speed>
<course>27.0</course>
<desc>Speed 16.5 km/h Distance 17.00 km</desc>
<time>2011-09-29T10:52:11.65</time>
<name>3079</name>
</trkpt>
<trkpt lat="41.688732" lon="-0.618960">
<ele>493.5</ele>
<speed>16.9</speed>
<course>24.4</course>
<desc>Speed 16.9 km/h Distance 17.01 km</desc>
<time>2011-09-29T10:52:12.90</time>
<name>3080</name>
</trkpt>
<trkpt lat="41.688808" lon="-0.618913">
<ele>493.5</ele>
<speed>16.9</speed>
<course>25.0</course>
<desc>Speed 16.9 km/h Distance 17.02 km</desc>
<time>2011-09-29T10:52:14.65</time>
<name>3081</name>
</trkpt>
<trkpt lat="41.688848" lon="-0.618888">
<ele>493.5</ele>
<speed>17.0</speed>
<course>23.6</course>
<desc>Speed 17.0 km/h Distance 17.02 km</desc>
<time>2011-09-29T10:52:15.71</time>
<name>3082</name>
</trkpt>
<trkpt lat="41.688888" lon="-0.618865">
<ele>493.5</ele>
<speed>17.2</speed>
<course>24.5</course>
<desc>Speed 17.2 km/h Distance 17.02 km</desc>
<time>2011-09-29T10:52:16.65</time>
<name>3083</name>
</trkpt>
<trkpt lat="41.688927" lon="-0.618842">
<ele>494.0</ele>
<speed>16.9</speed>
<course>22.0</course>
<desc>Speed 16.9 km/h Distance 17.03 km</desc>
<time>2011-09-29T10:52:17.65</time>
<name>3084</name>
</trkpt>
<trkpt lat="41.688967" lon="-0.618820">
<ele>494.0</ele>
<speed>16.8</speed>
<course>24.4</course>
<desc>Speed 16.8 km/h Distance 17.03 km</desc>
<time>2011-09-29T10:52:18.65</time>
<name>3085</name>
</trkpt>
<trkpt lat="41.689005" lon="-0.618797">
<ele>494.0</ele>
<speed>16.7</speed>
<course>24.4</course>
<desc>Speed 16.7 km/h Distance 17.04 km</desc>
<time>2011-09-29T10:52:19.65</time>
<name>3086</name>
</trkpt>
<trkpt lat="41.689043" lon="-0.618773">
<ele>494.0</ele>
<speed>16.6</speed>
<course>27.0</course>
<desc>Speed 16.6 km/h Distance 17.04 km</desc>
<time>2011-09-29T10:52:20.64</time>
<name>3087</name>
</trkpt>
<trkpt lat="41.689080" lon="-0.618748">
<ele>494.0</ele>
<speed>16.3</speed>
<course>19.6</course>
<desc>Speed 16.3 km/h Distance 17.05 km</desc>
<time>2011-09-29T10:52:21.64</time>
<name>3088</name>
</trkpt>
<trkpt lat="41.689118" lon="-0.618730">
<ele>494.0</ele>
<speed>16.0</speed>
<course>28.5</course>
<desc>Speed 16.0 km/h Distance 17.05 km</desc>
<time>2011-09-29T10:52:22.69</time>
<name>3089</name>
</trkpt>
<trkpt lat="41.689155" lon="-0.618703">
<ele>494.5</ele>
<speed>16.5</speed>
<course>28.1</course>
<desc>Speed 16.5 km/h Distance 17.06 km</desc>
<time>2011-09-29T10:52:23.64</time>
<name>3090</name>
</trkpt>
<trkpt lat="41.689190" lon="-0.618678">
<ele>494.0</ele>
<speed>15.3</speed>
<course>26.5</course>
<desc>Speed 15.3 km/h Distance 17.06 km</desc>
<time>2011-09-29T10:52:24.64</time>
<name>3091</name>
</trkpt>
<trkpt lat="41.689225" lon="-0.618655">
<ele>494.0</ele>
<speed>15.7</speed>
<course>21.3</course>
<desc>Speed 15.7 km/h Distance 17.07 km</desc>
<time>2011-09-29T10:52:25.64</time>
<name>3092</name>
</trkpt>
<trkpt lat="41.689263" lon="-0.618635">
<ele>494.5</ele>
<speed>15.9</speed>
<course>24.5</course>
<desc>Speed 15.9 km/h Distance 17.07 km</desc>
<time>2011-09-29T10:52:26.65</time>
<name>3093</name>
</trkpt>
<trkpt lat="41.689302" lon="-0.618612">
<ele>494.5</ele>
<speed>16.5</speed>
<course>26.5</course>
<desc>Speed 16.5 km/h Distance 17.08 km</desc>
<time>2011-09-29T10:52:27.64</time>
<name>3094</name>
</trkpt>
<trkpt lat="41.689337" lon="-0.618588">
<ele>494.5</ele>
<speed>15.8</speed>
<course>25.4</course>
<desc>Speed 15.8 km/h Distance 17.08 km</desc>
<time>2011-09-29T10:52:28.64</time>
<name>3095</name>
</trkpt>
<trkpt lat="41.689373" lon="-0.618565">
<ele>495.0</ele>
<speed>16.3</speed>
<course>24.5</course>
<desc>Speed 16.3 km/h Distance 17.08 km</desc>
<time>2011-09-29T10:52:29.64</time>
<name>3096</name>
</trkpt>
<trkpt lat="41.689412" lon="-0.618542">
<ele>495.0</ele>
<speed>16.4</speed>
<course>25.4</course>
<desc>Speed 16.4 km/h Distance 17.09 km</desc>
<time>2011-09-29T10:52:30.64</time>
<name>3097</name>
</trkpt>
<trkpt lat="41.689448" lon="-0.618518">
<ele>495.0</ele>
<speed>16.7</speed>
<course>23.6</course>
<desc>Speed 16.7 km/h Distance 17.09 km</desc>
<time>2011-09-29T10:52:31.64</time>
<name>3098</name>
</trkpt>
<trkpt lat="41.689488" lon="-0.618495">
<ele>495.0</ele>
<speed>16.8</speed>
<course>27.0</course>
<desc>Speed 16.8 km/h Distance 17.10 km</desc>
<time>2011-09-29T10:52:32.64</time>
<name>3099</name>
</trkpt>
<trkpt lat="41.689525" lon="-0.618470">
<ele>495.5</ele>
<speed>16.6</speed>
<course>23.6</course>
<desc>Speed 16.6 km/h Distance 17.10 km</desc>
<time>2011-09-29T10:52:33.64</time>
<name>3100</name>
</trkpt>
<trkpt lat="41.689565" lon="-0.618447">
<ele>495.5</ele>
<speed>17.2</speed>
<course>24.4</course>
<desc>Speed 17.2 km/h Distance 17.11 km</desc>
<time>2011-09-29T10:52:35.21</time>
<name>3101</name>
</trkpt>
<trkpt lat="41.689642" lon="-0.618400">
<ele>495.5</ele>
<speed>16.6</speed>
<course>27.0</course>
<desc>Speed 16.6 km/h Distance 17.12 km</desc>
<time>2011-09-29T10:52:36.64</time>
<name>3102</name>
</trkpt>
<trkpt lat="41.689678" lon="-0.618375">
<ele>496.0</ele>
<speed>16.5</speed>
<course>27.5</course>
<desc>Speed 16.5 km/h Distance 17.12 km</desc>
<time>2011-09-29T10:52:37.64</time>
<name>3103</name>
</trkpt>
<trkpt lat="41.689717" lon="-0.618348">
<ele>496.0</ele>
<speed>16.8</speed>
<course>28.5</course>
<desc>Speed 16.8 km/h Distance 17.13 km</desc>
<time>2011-09-29T10:52:38.64</time>
<name>3104</name>
</trkpt>
<trkpt lat="41.689753" lon="-0.618322">
<ele>496.5</ele>
<speed>16.6</speed>
<course>30.0</course>
<desc>Speed 16.6 km/h Distance 17.13 km</desc>
<time>2011-09-29T10:52:39.64</time>
<name>3105</name>
</trkpt>
<trkpt lat="41.689790" lon="-0.618293">
<ele>496.5</ele>
<speed>16.5</speed>
<course>25.9</course>
<desc>Speed 16.5 km/h Distance 17.14 km</desc>
<time>2011-09-29T10:52:40.63</time>
<name>3106</name>
</trkpt>
<trkpt lat="41.689828" lon="-0.618268">
<ele>496.5</ele>
<speed>16.5</speed>
<course>24.4</course>
<desc>Speed 16.5 km/h Distance 17.14 km</desc>
<time>2011-09-29T10:52:41.63</time>
<name>3107</name>
</trkpt>
<trkpt lat="41.689867" lon="-0.618245">
<ele>497.0</ele>
<speed>16.6</speed>
<course>18.9</course>
<desc>Speed 16.6 km/h Distance 17.15 km</desc>
<time>2011-09-29T10:52:42.63</time>
<name>3108</name>
</trkpt>
<trkpt lat="41.689907" lon="-0.618227">
<ele>497.5</ele>
<speed>16.7</speed>
<course>18.9</course>
<desc>Speed 16.7 km/h Distance 17.15 km</desc>
<time>2011-09-29T10:52:43.63</time>
<name>3109</name>
</trkpt>
<trkpt lat="41.689947" lon="-0.618208">
<ele>497.5</ele>
<speed>16.5</speed>
<course>17.1</course>
<desc>Speed 16.5 km/h Distance 17.15 km</desc>
<time>2011-09-29T10:52:44.93</time>
<name>3110</name>
</trkpt>
<trkpt lat="41.690023" lon="-0.618177">
<ele>497.5</ele>
<speed>15.7</speed>
<course>14.6</course>
<desc>Speed 15.7 km/h Distance 17.16 km</desc>
<time>2011-09-29T10:52:46.63</time>
<name>3111</name>
</trkpt>
<trkpt lat="41.690062" lon="-0.618163">
<ele>497.5</ele>
<speed>15.4</speed>
<course>9.1</course>
<desc>Speed 15.4 km/h Distance 17.17 km</desc>
<time>2011-09-29T10:52:47.63</time>
<name>3112</name>
</trkpt>
<trkpt lat="41.690100" lon="-0.618155">
<ele>498.0</ele>
<speed>15.1</speed>
<course>9.7</course>
<desc>Speed 15.1 km/h Distance 17.17 km</desc>
<time>2011-09-29T10:52:48.63</time>
<name>3113</name>
</trkpt>
<trkpt lat="41.690137" lon="-0.618147">
<ele>498.0</ele>
<speed>14.5</speed>
<course>10.6</course>
<desc>Speed 14.5 km/h Distance 17.18 km</desc>
<time>2011-09-29T10:52:49.63</time>
<name>3114</name>
</trkpt>
<trkpt lat="41.690170" lon="-0.618138">
<ele>498.0</ele>
<speed>13.4</speed>
<course>9.0</course>
<desc>Speed 13.4 km/h Distance 17.18 km</desc>
<time>2011-09-29T10:52:50.63</time>
<name>3115</name>
</trkpt>
<trkpt lat="41.690202" lon="-0.618132">
<ele>498.0</ele>
<speed>12.6</speed>
<course>10.6</course>
<desc>Speed 12.6 km/h Distance 17.18 km</desc>
<time>2011-09-29T10:52:51.87</time>
<name>3116</name>
</trkpt>
<trkpt lat="41.690235" lon="-0.618123">
<ele>498.0</ele>
<speed>13.0</speed>
<course>4.1</course>
<desc>Speed 13.0 km/h Distance 17.19 km</desc>
<time>2011-09-29T10:52:52.63</time>
<name>3117</name>
</trkpt>
<trkpt lat="41.690270" lon="-0.618120">
<ele>498.0</ele>
<speed>13.9</speed>
<course>5.4</course>
<desc>Speed 13.9 km/h Distance 17.19 km</desc>
<time>2011-09-29T10:52:53.63</time>
<name>3118</name>
</trkpt>
<trkpt lat="41.690308" lon="-0.618115">
<ele>498.0</ele>
<speed>14.8</speed>
<course>11.4</course>
<desc>Speed 14.8 km/h Distance 17.20 km</desc>
<time>2011-09-29T10:52:54.66</time>
<name>3119</name>
</trkpt>
<trkpt lat="41.690345" lon="-0.618105">
<ele>497.5</ele>
<speed>14.7</speed>
<course>5.7</course>
<desc>Speed 14.7 km/h Distance 17.20 km</desc>
<time>2011-09-29T10:52:55.63</time>
<name>3120</name>
</trkpt>
<trkpt lat="41.690383" lon="-0.618100">
<ele>497.5</ele>
<speed>15.1</speed>
<course>5.1</course>
<desc>Speed 15.1 km/h Distance 17.20 km</desc>
<time>2011-09-29T10:52:56.63</time>
<name>3121</name>
</trkpt>
<trkpt lat="41.690425" lon="-0.618095">
<ele>497.0</ele>
<speed>16.5</speed>
<course>4.8</course>
<desc>Speed 16.5 km/h Distance 17.21 km</desc>
<time>2011-09-29T10:52:57.62</time>
<name>3122</name>
</trkpt>
<trkpt lat="41.690470" lon="-0.618090">
<ele>497.0</ele>
<speed>17.6</speed>
<course>10.6</course>
<desc>Speed 17.6 km/h Distance 17.21 km</desc>
<time>2011-09-29T10:52:58.63</time>
<name>3123</name>
</trkpt>
<trkpt lat="41.690517" lon="-0.618078">
<ele>496.5</ele>
<speed>18.9</speed>
<course>8.5</course>
<desc>Speed 18.9 km/h Distance 17.22 km</desc>
<time>2011-09-29T10:52:59.63</time>
<name>3124</name>
</trkpt>
<trkpt lat="41.690567" lon="-0.618068">
<ele>496.5</ele>
<speed>19.9</speed>
<course>4.1</course>
<desc>Speed 19.9 km/h Distance 17.22 km</desc>
<time>2011-09-29T10:53:00.63</time>
<name>3125</name>
</trkpt>
<trkpt lat="41.690618" lon="-0.618063">
<ele>496.0</ele>
<speed>20.7</speed>
<course>5.2</course>
<desc>Speed 20.7 km/h Distance 17.23 km</desc>
<time>2011-09-29T10:53:01.63</time>
<name>3126</name>
</trkpt>
<trkpt lat="41.690673" lon="-0.618057">
<ele>496.0</ele>
<speed>21.9</speed>
<course>9.7</course>
<desc>Speed 21.9 km/h Distance 17.24 km</desc>
<time>2011-09-29T10:53:02.62</time>
<name>3127</name>
</trkpt>
<trkpt lat="41.690732" lon="-0.618043">
<ele>495.5</ele>
<speed>23.4</speed>
<course>7.6</course>
<desc>Speed 23.4 km/h Distance 17.24 km</desc>
<time>2011-09-29T10:53:04.40</time>
<name>3128</name>
</trkpt>
<trkpt lat="41.690928" lon="-0.618008">
<ele>494.0</ele>
<speed>28.0</speed>
<course>6.8</course>
<desc>Speed 28.0 km/h Distance 17.27 km</desc>
<time>2011-09-29T10:53:06.62</time>
<name>3129</name>
</trkpt>
<trkpt lat="41.691002" lon="-0.617997">
<ele>493.5</ele>
<speed>29.3</speed>
<course>8.3</course>
<desc>Speed 29.3 km/h Distance 17.27 km</desc>
<time>2011-09-29T10:53:07.62</time>
<name>3130</name>
</trkpt>
<trkpt lat="41.691078" lon="-0.617982">
<ele>493.0</ele>
<speed>30.3</speed>
<course>7.2</course>
<desc>Speed 30.3 km/h Distance 17.28 km</desc>
<time>2011-09-29T10:53:08.62</time>
<name>3131</name>
</trkpt>
<trkpt lat="41.691157" lon="-0.617968">
<ele>492.0</ele>
<speed>31.4</speed>
<course>7.2</course>
<desc>Speed 31.4 km/h Distance 17.29 km</desc>
<time>2011-09-29T10:53:09.63</time>
<name>3132</name>
</trkpt>
<trkpt lat="41.691325" lon="-0.617940">
<ele>490.5</ele>
<speed>34.8</speed>
<course>7.1</course>
<desc>Speed 34.8 km/h Distance 17.31 km</desc>
<time>2011-09-29T10:53:11.62</time>
<name>3133</name>
</trkpt>
<trkpt lat="41.691415" lon="-0.617925">
<ele>490.0</ele>
<speed>36.2</speed>
<course>7.3</course>
<desc>Speed 36.2 km/h Distance 17.32 km</desc>
<time>2011-09-29T10:53:12.62</time>
<name>3134</name>
</trkpt>
<trkpt lat="41.691698" lon="-0.617877">
<ele>488.0</ele>
<speed>38.6</speed>
<course>8.1</course>
<desc>Speed 38.6 km/h Distance 17.35 km</desc>
<time>2011-09-29T10:53:15.62</time>
<name>3135</name>
</trkpt>
<trkpt lat="41.691795" lon="-0.617858">
<ele>487.5</ele>
<speed>38.7</speed>
<course>6.7</course>
<desc>Speed 38.7 km/h Distance 17.36 km</desc>
<time>2011-09-29T10:53:16.62</time>
<name>3136</name>
</trkpt>
<trkpt lat="41.691890" lon="-0.617843">
<ele>487.5</ele>
<speed>38.7</speed>
<course>8.1</course>
<desc>Speed 38.7 km/h Distance 17.37 km</desc>
<time>2011-09-29T10:53:17.62</time>
<name>3137</name>
</trkpt>
<trkpt lat="41.691987" lon="-0.617825">
<ele>487.0</ele>
<speed>38.9</speed>
<course>8.1</course>
<desc>Speed 38.9 km/h Distance 17.38 km</desc>
<time>2011-09-29T10:53:18.62</time>
<name>3138</name>
</trkpt>
<trkpt lat="41.692083" lon="-0.617807">
<ele>486.5</ele>
<speed>39.0</speed>
<course>6.5</course>
<desc>Speed 39.0 km/h Distance 17.40 km</desc>
<time>2011-09-29T10:53:19.62</time>
<name>3139</name>
</trkpt>
<trkpt lat="41.692182" lon="-0.617792">
<ele>486.0</ele>
<speed>39.4</speed>
<course>7.2</course>
<desc>Speed 39.4 km/h Distance 17.41 km</desc>
<time>2011-09-29T10:53:20.61</time>
<name>3140</name>
</trkpt>
<trkpt lat="41.692280" lon="-0.617775">
<ele>485.5</ele>
<speed>39.3</speed>
<course>6.5</course>
<desc>Speed 39.3 km/h Distance 17.42 km</desc>
<time>2011-09-29T10:53:21.62</time>
<name>3141</name>
</trkpt>
<trkpt lat="41.692378" lon="-0.617760">
<ele>485.0</ele>
<speed>39.1</speed>
<course>5.8</course>
<desc>Speed 39.1 km/h Distance 17.43 km</desc>
<time>2011-09-29T10:53:22.61</time>
<name>3142</name>
</trkpt>
<trkpt lat="41.692477" lon="-0.617747">
<ele>484.5</ele>
<speed>39.1</speed>
<course>7.3</course>
<desc>Speed 39.1 km/h Distance 17.44 km</desc>
<time>2011-09-29T10:53:23.89</time>
<name>3143</name>
</trkpt>
<trkpt lat="41.692672" lon="-0.617713">
<ele>484.0</ele>
<speed>39.2</speed>
<course>7.9</course>
<desc>Speed 39.2 km/h Distance 17.46 km</desc>
<time>2011-09-29T10:53:25.61</time>
<name>3144</name>
</trkpt>
<trkpt lat="41.692770" lon="-0.617695">
<ele>483.5</ele>
<speed>39.2</speed>
<course>7.9</course>
<desc>Speed 39.2 km/h Distance 17.47 km</desc>
<time>2011-09-29T10:53:26.61</time>
<name>3145</name>
</trkpt>
<trkpt lat="41.692967" lon="-0.617658">
<ele>482.5</ele>
<speed>39.3</speed>
<course>6.5</course>
<desc>Speed 39.3 km/h Distance 17.49 km</desc>
<time>2011-09-29T10:53:28.61</time>
<name>3146</name>
</trkpt>
<trkpt lat="41.693065" lon="-0.617643">
<ele>482.0</ele>
<speed>39.3</speed>
<course>8.8</course>
<desc>Speed 39.3 km/h Distance 17.51 km</desc>
<time>2011-09-29T10:53:29.61</time>
<name>3147</name>
</trkpt>
<trkpt lat="41.693162" lon="-0.617623">
<ele>482.0</ele>
<speed>39.1</speed>
<course>7.4</course>
<desc>Speed 39.1 km/h Distance 17.52 km</desc>
<time>2011-09-29T10:53:30.83</time>
<name>3148</name>
</trkpt>
<trkpt lat="41.693353" lon="-0.617590">
<ele>481.0</ele>
<speed>38.5</speed>
<course>8.9</course>
<desc>Speed 38.5 km/h Distance 17.54 km</desc>
<time>2011-09-29T10:53:32.61</time>
<name>3149</name>
</trkpt>
<trkpt lat="41.693448" lon="-0.617570">
<ele>481.0</ele>
<speed>38.2</speed>
<course>8.0</course>
<desc>Speed 38.2 km/h Distance 17.55 km</desc>
<time>2011-09-29T10:53:33.65</time>
<name>3150</name>
</trkpt>
<trkpt lat="41.693635" lon="-0.617535">
<ele>480.5</ele>
<speed>37.5</speed>
<course>6.8</course>
<desc>Speed 37.5 km/h Distance 17.57 km</desc>
<time>2011-09-29T10:53:35.61</time>
<name>3151</name>
</trkpt>
<trkpt lat="41.693728" lon="-0.617520">
<ele>480.0</ele>
<speed>37.6</speed>
<course>7.6</course>
<desc>Speed 37.6 km/h Distance 17.58 km</desc>
<time>2011-09-29T10:53:36.61</time>
<name>3152</name>
</trkpt>
<trkpt lat="41.693822" lon="-0.617503">
<ele>479.5</ele>
<speed>37.5</speed>
<course>6.7</course>
<desc>Speed 37.5 km/h Distance 17.59 km</desc>
<time>2011-09-29T10:53:37.60</time>
<name>3153</name>
</trkpt>
<trkpt lat="41.693917" lon="-0.617488">
<ele>479.5</ele>
<speed>37.4</speed>
<course>7.1</course>
<desc>Speed 37.4 km/h Distance 17.60 km</desc>
<time>2011-09-29T10:53:38.60</time>
<name>3154</name>
</trkpt>
<trkpt lat="41.694197" lon="-0.617442">
<ele>478.5</ele>
<speed>37.5</speed>
<course>5.4</course>
<desc>Speed 37.5 km/h Distance 17.63 km</desc>
<time>2011-09-29T10:53:41.60</time>
<name>3155</name>
</trkpt>
<trkpt lat="41.694475" lon="-0.617407">
<ele>477.5</ele>
<speed>37.0</speed>
<course>6.8</course>
<desc>Speed 37.0 km/h Distance 17.66 km</desc>
<time>2011-09-29T10:53:44.60</time>
<name>3156</name>
</trkpt>
<trkpt lat="41.694568" lon="-0.617392">
<ele>477.5</ele>
<speed>37.1</speed>
<course>7.0</course>
<desc>Speed 37.1 km/h Distance 17.67 km</desc>
<time>2011-09-29T10:53:45.60</time>
<name>3157</name>
</trkpt>
<trkpt lat="41.694660" lon="-0.617377">
<ele>477.0</ele>
<speed>36.5</speed>
<course>5.5</course>
<desc>Speed 36.5 km/h Distance 17.68 km</desc>
<time>2011-09-29T10:53:46.59</time>
<name>3158</name>
</trkpt>
<trkpt lat="41.694750" lon="-0.617365">
<ele>477.0</ele>
<speed>36.1</speed>
<course>7.1</course>
<desc>Speed 36.1 km/h Distance 17.69 km</desc>
<time>2011-09-29T10:53:47.59</time>
<name>3159</name>
</trkpt>
<trkpt lat="41.694840" lon="-0.617350">
<ele>477.0</ele>
<speed>35.8</speed>
<course>6.4</course>
<desc>Speed 35.8 km/h Distance 17.70 km</desc>
<time>2011-09-29T10:53:48.59</time>
<name>3160</name>
</trkpt>
<trkpt lat="41.694928" lon="-0.617337">
<ele>476.5</ele>
<speed>35.2</speed>
<course>5.7</course>
<desc>Speed 35.2 km/h Distance 17.71 km</desc>
<time>2011-09-29T10:53:49.59</time>
<name>3161</name>
</trkpt>
<trkpt lat="41.695015" lon="-0.617325">
<ele>476.5</ele>
<speed>34.6</speed>
<course>6.7</course>
<desc>Speed 34.6 km/h Distance 17.72 km</desc>
<time>2011-09-29T10:53:50.59</time>
<name>3162</name>
</trkpt>
<trkpt lat="41.695100" lon="-0.617312">
<ele>476.5</ele>
<speed>33.9</speed>
<course>7.4</course>
<desc>Speed 33.9 km/h Distance 17.73 km</desc>
<time>2011-09-29T10:53:51.59</time>
<name>3163</name>
</trkpt>
<trkpt lat="41.695340" lon="-0.617270">
<ele>477.0</ele>
<speed>31.5</speed>
<course>7.4</course>
<desc>Speed 31.5 km/h Distance 17.76 km</desc>
<time>2011-09-29T10:53:54.59</time>
<name>3164</name>
</trkpt>
<trkpt lat="41.695417" lon="-0.617257">
<ele>477.0</ele>
<speed>30.7</speed>
<course>6.6</course>
<desc>Speed 30.7 km/h Distance 17.77 km</desc>
<time>2011-09-29T10:53:55.59</time>
<name>3165</name>
</trkpt>
<trkpt lat="41.695492" lon="-0.617245">
<ele>477.0</ele>
<speed>30.0</speed>
<course>6.1</course>
<desc>Speed 30.0 km/h Distance 17.78 km</desc>
<time>2011-09-29T10:53:56.58</time>
<name>3166</name>
</trkpt>
<trkpt lat="41.695562" lon="-0.617235">
<ele>477.0</ele>
<speed>27.9</speed>
<course>10.8</course>
<desc>Speed 27.9 km/h Distance 17.79 km</desc>
<time>2011-09-29T10:53:57.58</time>
<name>3167</name>
</trkpt>
<trkpt lat="41.695627" lon="-0.617218">
<ele>477.0</ele>
<speed>26.7</speed>
<course>8.3</course>
<desc>Speed 26.7 km/h Distance 17.79 km</desc>
<time>2011-09-29T10:53:58.59</time>
<name>3168</name>
</trkpt>
<trkpt lat="41.695687" lon="-0.617207">
<ele>477.0</ele>
<speed>23.6</speed>
<course>13.1</course>
<desc>Speed 23.6 km/h Distance 17.80 km</desc>
<time>2011-09-29T10:53:59.58</time>
<name>3169</name>
</trkpt>
<trkpt lat="41.695740" lon="-0.617190">
<ele>477.0</ele>
<speed>21.9</speed>
<course>10.6</course>
<desc>Speed 21.9 km/h Distance 17.81 km</desc>
<time>2011-09-29T10:54:00.58</time>
<name>3170</name>
</trkpt>
<trkpt lat="41.695793" lon="-0.617177">
<ele>477.0</ele>
<speed>21.0</speed>
<course>8.4</course>
<desc>Speed 21.0 km/h Distance 17.81 km</desc>
<time>2011-09-29T10:54:01.58</time>
<name>3171</name>
</trkpt>
<trkpt lat="41.695843" lon="-0.617167">
<ele>477.0</ele>
<speed>20.2</speed>
<course>11.3</course>
<desc>Speed 20.2 km/h Distance 17.82 km</desc>
<time>2011-09-29T10:54:02.71</time>
<name>3172</name>
</trkpt>
<trkpt lat="41.695937" lon="-0.617142">
<ele>477.5</ele>
<speed>18.4</speed>
<course>11.4</course>
<desc>Speed 18.4 km/h Distance 17.83 km</desc>
<time>2011-09-29T10:54:04.58</time>
<name>3173</name>
</trkpt>
<trkpt lat="41.695980" lon="-0.617130">
<ele>477.5</ele>
<speed>17.7</speed>
<course>11.8</course>
<desc>Speed 17.7 km/h Distance 17.83 km</desc>
<time>2011-09-29T10:54:05.58</time>
<name>3174</name>
</trkpt>
<trkpt lat="41.696022" lon="-0.617118">
<ele>477.5</ele>
<speed>17.0</speed>
<course>8.8</course>
<desc>Speed 17.0 km/h Distance 17.84 km</desc>
<time>2011-09-29T10:54:06.57</time>
<name>3175</name>
</trkpt>
<trkpt lat="41.696062" lon="-0.617110">
<ele>478.0</ele>
<speed>16.0</speed>
<course>11.1</course>
<desc>Speed 16.0 km/h Distance 17.84 km</desc>
<time>2011-09-29T10:54:07.57</time>
<name>3176</name>
</trkpt>
<trkpt lat="41.696100" lon="-0.617100">
<ele>478.0</ele>
<speed>15.4</speed>
<course>9.7</course>
<desc>Speed 15.4 km/h Distance 17.85 km</desc>
<time>2011-09-29T10:54:08.57</time>
<name>3177</name>
</trkpt>
<trkpt lat="41.696137" lon="-0.617092">
<ele>478.0</ele>
<speed>14.8</speed>
<course>7.7</course>
<desc>Speed 14.8 km/h Distance 17.85 km</desc>
<time>2011-09-29T10:54:09.65</time>
<name>3178</name>
</trkpt>
<trkpt lat="41.696210" lon="-0.617078">
<ele>478.5</ele>
<speed>14.4</speed>
<course>0.0</course>
<desc>Speed 14.4 km/h Distance 17.86 km</desc>
<time>2011-09-29T10:54:11.57</time>
<name>3179</name>
</trkpt>
<trkpt lat="41.696245" lon="-0.617078">
<ele>478.5</ele>
<speed>13.7</speed>
<course>4.3</course>
<desc>Speed 13.7 km/h Distance 17.86 km</desc>
<time>2011-09-29T10:54:12.57</time>
<name>3180</name>
</trkpt>
<trkpt lat="41.696278" lon="-0.617075">
<ele>478.5</ele>
<speed>13.4</speed>
<course>2.3</course>
<desc>Speed 13.4 km/h Distance 17.87 km</desc>
<time>2011-09-29T10:54:13.57</time>
<name>3181</name>
</trkpt>
<trkpt lat="41.696310" lon="-0.617073">
<ele>478.5</ele>
<speed>12.6</speed>
<course>2.5</course>
<desc>Speed 12.6 km/h Distance 17.87 km</desc>
<time>2011-09-29T10:54:14.57</time>
<name>3182</name>
</trkpt>
<trkpt lat="41.696340" lon="-0.617072">
<ele>479.0</ele>
<speed>12.3</speed>
<course>357.7</course>
<desc>Speed 12.3 km/h Distance 17.87 km</desc>
<time>2011-09-29T10:54:15.56</time>
<name>3183</name>
</trkpt>
<trkpt lat="41.696372" lon="-0.617073">
<ele>479.0</ele>
<speed>12.0</speed>
<course>352.9</course>
<desc>Speed 12.0 km/h Distance 17.88 km</desc>
<time>2011-09-29T10:54:16.57</time>
<name>3184</name>
</trkpt>
<trkpt lat="41.696402" lon="-0.617078">
<ele>479.0</ele>
<speed>11.9</speed>
<course>345.2</course>
<desc>Speed 11.9 km/h Distance 17.88 km</desc>
<time>2011-09-29T10:54:17.56</time>
<name>3185</name>
</trkpt>
<trkpt lat="41.696430" lon="-0.617088">
<ele>479.5</ele>
<speed>12.1</speed>
<course>346.1</course>
<desc>Speed 12.1 km/h Distance 17.88 km</desc>
<time>2011-09-29T10:54:18.56</time>
<name>3186</name>
</trkpt>
<trkpt lat="41.696460" lon="-0.617098">
<ele>479.5</ele>
<speed>12.1</speed>
<course>335.5</course>
<desc>Speed 12.1 km/h Distance 17.89 km</desc>
<time>2011-09-29T10:54:19.56</time>
<name>3187</name>
</trkpt>
<trkpt lat="41.696490" lon="-0.617117">
<ele>479.5</ele>
<speed>12.7</speed>
<course>325.0</course>
<desc>Speed 12.7 km/h Distance 17.89 km</desc>
<time>2011-09-29T10:54:20.56</time>
<name>3188</name>
</trkpt>
<trkpt lat="41.696517" lon="-0.617142">
<ele>479.5</ele>
<speed>13.4</speed>
<course>319.1</course>
<desc>Speed 13.4 km/h Distance 17.89 km</desc>
<time>2011-09-29T10:54:22.08</time>
<name>3189</name>
</trkpt>
<trkpt lat="41.696568" lon="-0.617202">
<ele>479.5</ele>
<speed>13.3</speed>
<course>308.8</course>
<desc>Speed 13.3 km/h Distance 17.90 km</desc>
<time>2011-09-29T10:54:23.56</time>
<name>3190</name>
</trkpt>
<trkpt lat="41.696588" lon="-0.617235">
<ele>479.5</ele>
<speed>12.9</speed>
<course>306.4</course>
<desc>Speed 12.9 km/h Distance 17.91 km</desc>
<time>2011-09-29T10:54:24.55</time>
<name>3191</name>
</trkpt>
<trkpt lat="41.696607" lon="-0.617268">
<ele>479.5</ele>
<speed>12.3</speed>
<course>306.4</course>
<desc>Speed 12.3 km/h Distance 17.91 km</desc>
<time>2011-09-29T10:54:25.55</time>
<name>3192</name>
</trkpt>
<trkpt lat="41.696625" lon="-0.617302">
<ele>479.5</ele>
<speed>12.6</speed>
<course>310.9</course>
<desc>Speed 12.6 km/h Distance 17.91 km</desc>
<time>2011-09-29T10:54:26.56</time>
<name>3193</name>
</trkpt>
<trkpt lat="41.696643" lon="-0.617330">
<ele>479.5</ele>
<speed>11.2</speed>
<course>318.5</course>
<desc>Speed 11.2 km/h Distance 17.92 km</desc>
<time>2011-09-29T10:54:27.55</time>
<name>3194</name>
</trkpt>
<trkpt lat="41.696662" lon="-0.617352">
<ele>479.5</ele>
<speed>9.0</speed>
<course>309.9</course>
<desc>Speed 9.0 km/h Distance 17.92 km</desc>
<time>2011-09-29T10:54:28.64</time>
<name>3195</name>
</trkpt>
<trkpt lat="41.696720" lon="-0.617445">
<ele>479.5</ele>
<speed>13.5</speed>
<course>308.4</course>
<desc>Speed 13.5 km/h Distance 17.93 km</desc>
<time>2011-09-29T10:54:31.55</time>
<name>3196</name>
</trkpt>
<trkpt lat="41.696742" lon="-0.617482">
<ele>479.0</ele>
<speed>13.9</speed>
<course>323.3</course>
<desc>Speed 13.9 km/h Distance 17.93 km</desc>
<time>2011-09-29T10:54:32.89</time>
<name>3197</name>
</trkpt>
<trkpt lat="41.696800" lon="-0.617540">
<ele>479.0</ele>
<speed>14.1</speed>
<course>326.6</course>
<desc>Speed 14.1 km/h Distance 17.94 km</desc>
<time>2011-09-29T10:54:34.55</time>
<name>3198</name>
</trkpt>
<trkpt lat="41.696828" lon="-0.617565">
<ele>479.0</ele>
<speed>13.8</speed>
<course>323.3</course>
<desc>Speed 13.8 km/h Distance 17.94 km</desc>
<time>2011-09-29T10:54:35.55</time>
<name>3199</name>
</trkpt>
<trkpt lat="41.696855" lon="-0.617592">
<ele>479.0</ele>
<speed>13.4</speed>
<course>337.5</course>
<desc>Speed 13.4 km/h Distance 17.95 km</desc>
<time>2011-09-29T10:54:36.55</time>
<name>3200</name>
</trkpt>
<trkpt lat="41.696885" lon="-0.617608">
<ele>479.0</ele>
<speed>12.5</speed>
<course>350.7</course>
<desc>Speed 12.5 km/h Distance 17.95 km</desc>
<time>2011-09-29T10:54:37.54</time>
<name>3201</name>
</trkpt>
<trkpt lat="41.696915" lon="-0.617615">
<ele>479.0</ele>
<speed>11.8</speed>
<course>355.3</course>
<desc>Speed 11.8 km/h Distance 17.95 km</desc>
<time>2011-09-29T10:54:38.54</time>
<name>3202</name>
</trkpt>
<trkpt lat="41.696945" lon="-0.617618">
<ele>479.5</ele>
<speed>11.6</speed>
<course>4.7</course>
<desc>Speed 11.6 km/h Distance 17.96 km</desc>
<time>2011-09-29T10:54:39.54</time>
<name>3203</name>
</trkpt>
<trkpt lat="41.696975" lon="-0.617615">
<ele>479.5</ele>
<speed>11.8</speed>
<course>13.9</course>
<desc>Speed 11.8 km/h Distance 17.96 km</desc>
<time>2011-09-29T10:54:40.54</time>
<name>3204</name>
</trkpt>
<trkpt lat="41.697005" lon="-0.617605">
<ele>479.5</ele>
<speed>12.0</speed>
<course>9.3</course>
<desc>Speed 12.0 km/h Distance 17.96 km</desc>
<time>2011-09-29T10:54:41.54</time>
<name>3205</name>
</trkpt>
<trkpt lat="41.697035" lon="-0.617598">
<ele>479.5</ele>
<speed>12.1</speed>
<course>8.7</course>
<desc>Speed 12.1 km/h Distance 17.97 km</desc>
<time>2011-09-29T10:54:43.04</time>
<name>3206</name>
</trkpt>
<trkpt lat="41.697100" lon="-0.617585">
<ele>480.0</ele>
<speed>12.6</speed>
<course>17.1</course>
<desc>Speed 12.6 km/h Distance 17.98 km</desc>
<time>2011-09-29T10:54:44.54</time>
<name>3207</name>
</trkpt>
<trkpt lat="41.697128" lon="-0.617573">
<ele>480.0</ele>
<speed>12.2</speed>
<course>29.8</course>
<desc>Speed 12.2 km/h Distance 17.98 km</desc>
<time>2011-09-29T10:54:45.54</time>
<name>3208</name>
</trkpt>
<trkpt lat="41.697157" lon="-0.617552">
<ele>480.0</ele>
<speed>12.7</speed>
<course>38.6</course>
<desc>Speed 12.7 km/h Distance 17.98 km</desc>
<time>2011-09-29T10:54:46.54</time>
<name>3209</name>
</trkpt>
<trkpt lat="41.697182" lon="-0.617525">
<ele>480.0</ele>
<speed>12.2</speed>
<course>36.8</course>
<desc>Speed 12.2 km/h Distance 17.99 km</desc>
<time>2011-09-29T10:54:47.54</time>
<name>3210</name>
</trkpt>
<trkpt lat="41.697207" lon="-0.617500">
<ele>480.0</ele>
<speed>12.5</speed>
<course>35.0</course>
<desc>Speed 12.5 km/h Distance 17.99 km</desc>
<time>2011-09-29T10:54:48.54</time>
<name>3211</name>
</trkpt>
<trkpt lat="41.697233" lon="-0.617475">
<ele>480.5</ele>
<speed>12.5</speed>
<course>42.6</course>
<desc>Speed 12.5 km/h Distance 17.99 km</desc>
<time>2011-09-29T10:54:49.54</time>
<name>3212</name>
</trkpt>
<trkpt lat="41.697255" lon="-0.617448">
<ele>480.0</ele>
<speed>11.8</speed>
<course>36.7</course>
<desc>Speed 11.8 km/h Distance 18.00 km</desc>
<time>2011-09-29T10:54:50.54</time>
<name>3213</name>
</trkpt>
<trkpt lat="41.697278" lon="-0.617425">
<ele>480.5</ele>
<speed>11.4</speed>
<course>34.7</course>
<desc>Speed 11.4 km/h Distance 18.00 km</desc>
<time>2011-09-29T10:54:51.54</time>
<name>3214</name>
</trkpt>
<trkpt lat="41.697302" lon="-0.617403">
<ele>480.5</ele>
<speed>11.3</speed>
<course>47.4</course>
<desc>Speed 11.3 km/h Distance 18.00 km</desc>
<time>2011-09-29T10:54:52.81</time>
<name>3215</name>
</trkpt>
<trkpt lat="41.697342" lon="-0.617345">
<ele>480.5</ele>
<speed>11.4</speed>
<course>51.8</course>
<desc>Speed 11.4 km/h Distance 18.01 km</desc>
<time>2011-09-29T10:54:54.54</time>
<name>3216</name>
</trkpt>
<trkpt lat="41.697358" lon="-0.617317">
<ele>480.5</ele>
<speed>10.9</speed>
<course>51.8</course>
<desc>Speed 10.9 km/h Distance 18.01 km</desc>
<time>2011-09-29T10:54:55.54</time>
<name>3217</name>
</trkpt>
<trkpt lat="41.697375" lon="-0.617288">
<ele>480.5</ele>
<speed>10.9</speed>
<course>52.2</course>
<desc>Speed 10.9 km/h Distance 18.02 km</desc>
<time>2011-09-29T10:54:56.53</time>
<name>3218</name>
</trkpt>
<trkpt lat="41.697393" lon="-0.617257">
<ele>480.5</ele>
<speed>11.7</speed>
<course>57.5</course>
<desc>Speed 11.7 km/h Distance 18.02 km</desc>
<time>2011-09-29T10:54:57.53</time>
<name>3219</name>
</trkpt>
<trkpt lat="41.697410" lon="-0.617222">
<ele>480.5</ele>
<speed>12.2</speed>
<course>64.0</course>
<desc>Speed 12.2 km/h Distance 18.02 km</desc>
<time>2011-09-29T10:54:58.53</time>
<name>3220</name>
</trkpt>
<trkpt lat="41.697423" lon="-0.617185">
<ele>481.0</ele>
<speed>12.5</speed>
<course>78.5</course>
<desc>Speed 12.5 km/h Distance 18.03 km</desc>
<time>2011-09-29T10:54:59.73</time>
<name>3221</name>
</trkpt>
<trkpt lat="41.697435" lon="-0.617108">
<ele>481.0</ele>
<speed>11.5</speed>
<course>76.9</course>
<desc>Speed 11.5 km/h Distance 18.03 km</desc>
<time>2011-09-29T10:55:01.53</time>
<name>3222</name>
</trkpt>
<trkpt lat="41.697442" lon="-0.617070">
<ele>481.0</ele>
<speed>11.6</speed>
<course>61.0</course>
<desc>Speed 11.6 km/h Distance 18.04 km</desc>
<time>2011-09-29T10:55:02.91</time>
<name>3223</name>
</trkpt>
<trkpt lat="41.697470" lon="-0.617002">
<ele>481.0</ele>
<speed>11.7</speed>
<course>61.3</course>
<desc>Speed 11.7 km/h Distance 18.04 km</desc>
<time>2011-09-29T10:55:04.53</time>
<name>3224</name>
</trkpt>
<trkpt lat="41.697485" lon="-0.616965">
<ele>480.5</ele>
<speed>12.1</speed>
<course>60.2</course>
<desc>Speed 12.1 km/h Distance 18.05 km</desc>
<time>2011-09-29T10:55:05.53</time>
<name>3225</name>
</trkpt>
<trkpt lat="41.697500" lon="-0.616930">
<ele>480.5</ele>
<speed>12.1</speed>
<course>70.7</course>
<desc>Speed 12.1 km/h Distance 18.05 km</desc>
<time>2011-09-29T10:55:06.53</time>
<name>3226</name>
</trkpt>
<trkpt lat="41.697510" lon="-0.616892">
<ele>480.5</ele>
<speed>12.1</speed>
<course>73.8</course>
<desc>Speed 12.1 km/h Distance 18.05 km</desc>
<time>2011-09-29T10:55:07.53</time>
<name>3227</name>
</trkpt>
<trkpt lat="41.697518" lon="-0.616853">
<ele>480.5</ele>
<speed>12.0</speed>
<course>73.8</course>
<desc>Speed 12.0 km/h Distance 18.06 km</desc>
<time>2011-09-29T10:55:08.53</time>
<name>3228</name>
</trkpt>
<trkpt lat="41.697527" lon="-0.616815">
<ele>480.5</ele>
<speed>12.2</speed>
<course>65.0</course>
<desc>Speed 12.2 km/h Distance 18.06 km</desc>
<time>2011-09-29T10:55:09.53</time>
<name>3229</name>
</trkpt>
<trkpt lat="41.697540" lon="-0.616777">
<ele>480.5</ele>
<speed>12.2</speed>
<course>64.0</course>
<desc>Speed 12.2 km/h Distance 18.06 km</desc>
<time>2011-09-29T10:55:10.52</time>
<name>3230</name>
</trkpt>
<trkpt lat="41.697553" lon="-0.616740">
<ele>480.5</ele>
<speed>12.2</speed>
<course>62.6</course>
<desc>Speed 12.2 km/h Distance 18.07 km</desc>
<time>2011-09-29T10:55:12.27</time>
<name>3231</name>
</trkpt>
<trkpt lat="41.697602" lon="-0.616615">
<ele>480.5</ele>
<speed>14.7</speed>
<course>57.3</course>
<desc>Speed 14.7 km/h Distance 18.08 km</desc>
<time>2011-09-29T10:55:14.53</time>
<name>3232</name>
</trkpt>
<trkpt lat="41.697622" lon="-0.616573">
<ele>480.5</ele>
<speed>14.4</speed>
<course>56.2</course>
<desc>Speed 14.4 km/h Distance 18.08 km</desc>
<time>2011-09-29T10:55:15.52</time>
<name>3233</name>
</trkpt>
<trkpt lat="41.697642" lon="-0.616533">
<ele>480.5</ele>
<speed>14.6</speed>
<course>52.9</course>
<desc>Speed 14.6 km/h Distance 18.09 km</desc>
<time>2011-09-29T10:55:16.52</time>
<name>3234</name>
</trkpt>
<trkpt lat="41.697663" lon="-0.616495">
<ele>480.5</ele>
<speed>14.2</speed>
<course>50.4</course>
<desc>Speed 14.2 km/h Distance 18.09 km</desc>
<time>2011-09-29T10:55:17.52</time>
<name>3235</name>
</trkpt>
<trkpt lat="41.697685" lon="-0.616460">
<ele>480.5</ele>
<speed>13.4</speed>
<course>41.9</course>
<desc>Speed 13.4 km/h Distance 18.09 km</desc>
<time>2011-09-29T10:55:18.52</time>
<name>3236</name>
</trkpt>
<trkpt lat="41.697710" lon="-0.616430">
<ele>481.0</ele>
<speed>13.4</speed>
<course>38.3</course>
<desc>Speed 13.4 km/h Distance 18.10 km</desc>
<time>2011-09-29T10:55:19.53</time>
<name>3237</name>
</trkpt>
<trkpt lat="41.697738" lon="-0.616400">
<ele>481.0</ele>
<speed>14.1</speed>
<course>40.0</course>
<desc>Speed 14.1 km/h Distance 18.10 km</desc>
<time>2011-09-29T10:55:20.52</time>
<name>3238</name>
</trkpt>
<trkpt lat="41.697765" lon="-0.616370">
<ele>481.0</ele>
<speed>14.0</speed>
<course>36.8</course>
<desc>Speed 14.0 km/h Distance 18.10 km</desc>
<time>2011-09-29T10:55:22.01</time>
<name>3239</name>
</trkpt>
<trkpt lat="41.697822" lon="-0.616313">
<ele>480.5</ele>
<speed>13.8</speed>
<course>27.6</course>
<desc>Speed 13.8 km/h Distance 18.11 km</desc>
<time>2011-09-29T10:55:23.52</time>
<name>3240</name>
</trkpt>
<trkpt lat="41.697855" lon="-0.616290">
<ele>480.5</ele>
<speed>14.6</speed>
<course>25.9</course>
<desc>Speed 14.6 km/h Distance 18.12 km</desc>
<time>2011-09-29T10:55:24.52</time>
<name>3241</name>
</trkpt>
<trkpt lat="41.697888" lon="-0.616268">
<ele>480.5</ele>
<speed>14.5</speed>
<course>27.1</course>
<desc>Speed 14.5 km/h Distance 18.12 km</desc>
<time>2011-09-29T10:55:25.52</time>
<name>3242</name>
</trkpt>
<trkpt lat="41.697920" lon="-0.616247">
<ele>480.5</ele>
<speed>14.3</speed>
<course>25.9</course>
<desc>Speed 14.3 km/h Distance 18.12 km</desc>
<time>2011-09-29T10:55:26.52</time>
<name>3243</name>
</trkpt>
<trkpt lat="41.697953" lon="-0.616225">
<ele>480.5</ele>
<speed>14.5</speed>
<course>27.6</course>
<desc>Speed 14.5 km/h Distance 18.13 km</desc>
<time>2011-09-29T10:55:27.52</time>
<name>3244</name>
</trkpt>
<trkpt lat="41.697987" lon="-0.616202">
<ele>480.5</ele>
<speed>14.8</speed>
<course>29.3</course>
<desc>Speed 14.8 km/h Distance 18.13 km</desc>
<time>2011-09-29T10:55:28.52</time>
<name>3245</name>
</trkpt>
<trkpt lat="41.698020" lon="-0.616177">
<ele>480.5</ele>
<speed>15.2</speed>
<course>24.8</course>
<desc>Speed 15.2 km/h Distance 18.14 km</desc>
<time>2011-09-29T10:55:29.51</time>
<name>3246</name>
</trkpt>
<trkpt lat="41.698055" lon="-0.616155">
<ele>480.5</ele>
<speed>15.3</speed>
<course>22.1</course>
<desc>Speed 15.3 km/h Distance 18.14 km</desc>
<time>2011-09-29T10:55:30.51</time>
<name>3247</name>
</trkpt>
<trkpt lat="41.698092" lon="-0.616135">
<ele>480.5</ele>
<speed>15.2</speed>
<course>22.7</course>
<desc>Speed 15.2 km/h Distance 18.15 km</desc>
<time>2011-09-29T10:55:31.76</time>
<name>3248</name>
</trkpt>
<trkpt lat="41.698160" lon="-0.616097">
<ele>480.5</ele>
<speed>14.4</speed>
<course>21.4</course>
<desc>Speed 14.4 km/h Distance 18.15 km</desc>
<time>2011-09-29T10:55:33.51</time>
<name>3249</name>
</trkpt>
<trkpt lat="41.698195" lon="-0.616078">
<ele>480.5</ele>
<speed>14.2</speed>
<course>17.7</course>
<desc>Speed 14.2 km/h Distance 18.16 km</desc>
<time>2011-09-29T10:55:34.51</time>
<name>3250</name>
</trkpt>
<trkpt lat="41.698230" lon="-0.616063">
<ele>480.5</ele>
<speed>14.7</speed>
<course>17.7</course>
<desc>Speed 14.7 km/h Distance 18.16 km</desc>
<time>2011-09-29T10:55:35.51</time>
<name>3251</name>
</trkpt>
<trkpt lat="41.698265" lon="-0.616048">
<ele>480.5</ele>
<speed>14.5</speed>
<course>19.7</course>
<desc>Speed 14.5 km/h Distance 18.17 km</desc>
<time>2011-09-29T10:55:36.51</time>
<name>3252</name>
</trkpt>
<trkpt lat="41.698303" lon="-0.616030">
<ele>480.5</ele>
<speed>15.6</speed>
<course>19.0</course>
<desc>Speed 15.6 km/h Distance 18.17 km</desc>
<time>2011-09-29T10:55:37.51</time>
<name>3253</name>
</trkpt>
<trkpt lat="41.698347" lon="-0.616010">
<ele>480.5</ele>
<speed>17.9</speed>
<course>19.4</course>
<desc>Speed 17.9 km/h Distance 18.18 km</desc>
<time>2011-09-29T10:55:38.70</time>
<name>3254</name>
</trkpt>
<trkpt lat="41.698438" lon="-0.615967">
<ele>480.5</ele>
<speed>19.3</speed>
<course>19.1</course>
<desc>Speed 19.3 km/h Distance 18.19 km</desc>
<time>2011-09-29T10:55:40.51</time>
<name>3255</name>
</trkpt>
<trkpt lat="41.698485" lon="-0.615945">
<ele>480.5</ele>
<speed>19.5</speed>
<course>15.4</course>
<desc>Speed 19.5 km/h Distance 18.19 km</desc>
<time>2011-09-29T10:55:41.51</time>
<name>3256</name>
</trkpt>
<trkpt lat="41.698530" lon="-0.615928">
<ele>480.5</ele>
<speed>18.3</speed>
<course>18.2</course>
<desc>Speed 18.3 km/h Distance 18.20 km</desc>
<time>2011-09-29T10:55:42.51</time>
<name>3257</name>
</trkpt>
<trkpt lat="41.698572" lon="-0.615910">
<ele>480.5</ele>
<speed>17.1</speed>
<course>17.3</course>
<desc>Speed 17.1 km/h Distance 18.20 km</desc>
<time>2011-09-29T10:55:43.51</time>
<name>3258</name>
</trkpt>
<trkpt lat="41.698612" lon="-0.615893">
<ele>480.5</ele>
<speed>16.4</speed>
<course>17.9</course>
<desc>Speed 16.4 km/h Distance 18.21 km</desc>
<time>2011-09-29T10:55:44.50</time>
<name>3259</name>
</trkpt>
<trkpt lat="41.698650" lon="-0.615877">
<ele>480.5</ele>
<speed>15.9</speed>
<course>17.9</course>
<desc>Speed 15.9 km/h Distance 18.21 km</desc>
<time>2011-09-29T10:55:45.50</time>
<name>3260</name>
</trkpt>
<trkpt lat="41.698688" lon="-0.615860">
<ele>480.5</ele>
<speed>16.1</speed>
<course>14.6</course>
<desc>Speed 16.1 km/h Distance 18.22 km</desc>
<time>2011-09-29T10:55:46.50</time>
<name>3261</name>
</trkpt>
<trkpt lat="41.698727" lon="-0.615847">
<ele>480.5</ele>
<speed>15.7</speed>
<course>22.1</course>
<desc>Speed 15.7 km/h Distance 18.22 km</desc>
<time>2011-09-29T10:55:47.50</time>
<name>3262</name>
</trkpt>
<trkpt lat="41.698763" lon="-0.615827">
<ele>480.5</ele>
<speed>15.8</speed>
<course>17.5</course>
<desc>Speed 15.8 km/h Distance 18.23 km</desc>
<time>2011-09-29T10:55:48.50</time>
<name>3263</name>
</trkpt>
<trkpt lat="41.698807" lon="-0.615808">
<ele>480.5</ele>
<speed>17.5</speed>
<course>16.6</course>
<desc>Speed 17.5 km/h Distance 18.23 km</desc>
<time>2011-09-29T10:55:49.50</time>
<name>3264</name>
</trkpt>
<trkpt lat="41.698848" lon="-0.615792">
<ele>480.5</ele>
<speed>17.6</speed>
<course>17.5</course>
<desc>Speed 17.6 km/h Distance 18.24 km</desc>
<time>2011-09-29T10:55:51.24</time>
<name>3265</name>
</trkpt>
<trkpt lat="41.698975" lon="-0.615738">
<ele>481.0</ele>
<speed>18.0</speed>
<course>17.6</course>
<desc>Speed 18.0 km/h Distance 18.25 km</desc>
<time>2011-09-29T10:55:53.50</time>
<name>3266</name>
</trkpt>
<trkpt lat="41.699018" lon="-0.615720">
<ele>481.0</ele>
<speed>18.1</speed>
<course>17.5</course>
<desc>Speed 18.1 km/h Distance 18.25 km</desc>
<time>2011-09-29T10:55:54.50</time>
<name>3267</name>
</trkpt>
<trkpt lat="41.699062" lon="-0.615702">
<ele>481.0</ele>
<speed>18.1</speed>
<course>14.0</course>
<desc>Speed 18.1 km/h Distance 18.26 km</desc>
<time>2011-09-29T10:55:55.50</time>
<name>3268</name>
</trkpt>
<trkpt lat="41.699107" lon="-0.615687">
<ele>481.0</ele>
<speed>18.2</speed>
<course>14.0</course>
<desc>Speed 18.2 km/h Distance 18.27 km</desc>
<time>2011-09-29T10:55:56.50</time>
<name>3269</name>
</trkpt>
<trkpt lat="41.699152" lon="-0.615672">
<ele>481.0</ele>
<speed>18.4</speed>
<course>15.4</course>
<desc>Speed 18.4 km/h Distance 18.27 km</desc>
<time>2011-09-29T10:55:57.49</time>
<name>3270</name>
</trkpt>
<trkpt lat="41.699197" lon="-0.615655">
<ele>481.0</ele>
<speed>18.3</speed>
<course>15.5</course>
<desc>Speed 18.3 km/h Distance 18.28 km</desc>
<time>2011-09-29T10:55:58.49</time>
<name>3271</name>
</trkpt>
<trkpt lat="41.699242" lon="-0.615638">
<ele>481.5</ele>
<speed>18.9</speed>
<course>14.9</course>
<desc>Speed 18.9 km/h Distance 18.28 km</desc>
<time>2011-09-29T10:55:59.49</time>
<name>3272</name>
</trkpt>
<trkpt lat="41.699288" lon="-0.615622">
<ele>481.5</ele>
<speed>18.9</speed>
<course>15.9</course>
<desc>Speed 18.9 km/h Distance 18.29 km</desc>
<time>2011-09-29T10:56:00.96</time>
<name>3273</name>
</trkpt>
<trkpt lat="41.699380" lon="-0.615587">
<ele>481.5</ele>
<speed>19.3</speed>
<course>16.3</course>
<desc>Speed 19.3 km/h Distance 18.30 km</desc>
<time>2011-09-29T10:56:02.49</time>
<name>3274</name>
</trkpt>
<trkpt lat="41.699427" lon="-0.615568">
<ele>481.5</ele>
<speed>19.6</speed>
<course>15.8</course>
<desc>Speed 19.6 km/h Distance 18.30 km</desc>
<time>2011-09-29T10:56:03.49</time>
<name>3275</name>
</trkpt>
<trkpt lat="41.699475" lon="-0.615550">
<ele>481.5</ele>
<speed>19.5</speed>
<course>14.9</course>
<desc>Speed 19.5 km/h Distance 18.31 km</desc>
<time>2011-09-29T10:56:04.49</time>
<name>3276</name>
</trkpt>
<trkpt lat="41.699522" lon="-0.615533">
<ele>481.5</ele>
<speed>19.5</speed>
<course>15.8</course>
<desc>Speed 19.5 km/h Distance 18.31 km</desc>
<time>2011-09-29T10:56:05.49</time>
<name>3277</name>
</trkpt>
<trkpt lat="41.699570" lon="-0.615515">
<ele>481.5</ele>
<speed>19.3</speed>
<course>14.9</course>
<desc>Speed 19.3 km/h Distance 18.32 km</desc>
<time>2011-09-29T10:56:06.49</time>
<name>3278</name>
</trkpt>
<trkpt lat="41.699617" lon="-0.615498">
<ele>481.5</ele>
<speed>19.3</speed>
<course>16.3</course>
<desc>Speed 19.3 km/h Distance 18.32 km</desc>
<time>2011-09-29T10:56:07.49</time>
<name>3279</name>
</trkpt>
<trkpt lat="41.699710" lon="-0.615462">
<ele>481.5</ele>
<speed>19.1</speed>
<course>18.4</course>
<desc>Speed 19.1 km/h Distance 18.33 km</desc>
<time>2011-09-29T10:56:09.50</time>
<name>3280</name>
</trkpt>
<trkpt lat="41.699755" lon="-0.615442">
<ele>481.5</ele>
<speed>18.7</speed>
<course>17.2</course>
<desc>Speed 18.7 km/h Distance 18.34 km</desc>
<time>2011-09-29T10:56:10.68</time>
<name>3281</name>
</trkpt>
<trkpt lat="41.699843" lon="-0.615405">
<ele>482.0</ele>
<speed>18.4</speed>
<course>17.5</course>
<desc>Speed 18.4 km/h Distance 18.35 km</desc>
<time>2011-09-29T10:56:12.49</time>
<name>3282</name>
</trkpt>
<trkpt lat="41.699887" lon="-0.615387">
<ele>482.0</ele>
<speed>18.4</speed>
<course>18.3</course>
<desc>Speed 18.4 km/h Distance 18.36 km</desc>
<time>2011-09-29T10:56:13.49</time>
<name>3283</name>
</trkpt>
<trkpt lat="41.699932" lon="-0.615367">
<ele>482.0</ele>
<speed>18.6</speed>
<course>17.5</course>
<desc>Speed 18.6 km/h Distance 18.36 km</desc>
<time>2011-09-29T10:56:14.49</time>
<name>3284</name>
</trkpt>
<trkpt lat="41.699975" lon="-0.615348">
<ele>482.0</ele>
<speed>18.4</speed>
<course>15.4</course>
<desc>Speed 18.4 km/h Distance 18.37 km</desc>
<time>2011-09-29T10:56:15.48</time>
<name>3285</name>
</trkpt>
<trkpt lat="41.700020" lon="-0.615332">
<ele>482.0</ele>
<speed>17.9</speed>
<course>15.1</course>
<desc>Speed 17.9 km/h Distance 18.37 km</desc>
<time>2011-09-29T10:56:16.48</time>
<name>3286</name>
</trkpt>
<trkpt lat="41.700062" lon="-0.615317">
<ele>482.5</ele>
<speed>17.6</speed>
<course>15.4</course>
<desc>Speed 17.6 km/h Distance 18.38 km</desc>
<time>2011-09-29T10:56:17.61</time>
<name>3287</name>
</trkpt>
<trkpt lat="41.700107" lon="-0.615300">
<ele>482.5</ele>
<speed>17.9</speed>
<course>18.2</course>
<desc>Speed 17.9 km/h Distance 18.38 km</desc>
<time>2011-09-29T10:56:18.48</time>
<name>3288</name>
</trkpt>
<trkpt lat="41.700148" lon="-0.615282">
<ele>482.5</ele>
<speed>17.9</speed>
<course>16.0</course>
<desc>Speed 17.9 km/h Distance 18.39 km</desc>
<time>2011-09-29T10:56:19.48</time>
<name>3289</name>
</trkpt>
<trkpt lat="41.700192" lon="-0.615265">
<ele>482.5</ele>
<speed>18.1</speed>
<course>16.9</course>
<desc>Speed 18.1 km/h Distance 18.39 km</desc>
<time>2011-09-29T10:56:20.50</time>
<name>3290</name>
</trkpt>
<trkpt lat="41.700237" lon="-0.615247">
<ele>482.5</ele>
<speed>18.1</speed>
<course>16.0</course>
<desc>Speed 18.1 km/h Distance 18.40 km</desc>
<time>2011-09-29T10:56:21.48</time>
<name>3291</name>
</trkpt>
<trkpt lat="41.700280" lon="-0.615230">
<ele>482.5</ele>
<speed>17.9</speed>
<course>14.5</course>
<desc>Speed 17.9 km/h Distance 18.40 km</desc>
<time>2011-09-29T10:56:22.48</time>
<name>3292</name>
</trkpt>
<trkpt lat="41.700323" lon="-0.615215">
<ele>482.5</ele>
<speed>17.8</speed>
<course>17.6</course>
<desc>Speed 17.8 km/h Distance 18.41 km</desc>
<time>2011-09-29T10:56:23.48</time>
<name>3293</name>
</trkpt>
<trkpt lat="41.700367" lon="-0.615197">
<ele>482.0</ele>
<speed>17.6</speed>
<course>16.6</course>
<desc>Speed 17.6 km/h Distance 18.41 km</desc>
<time>2011-09-29T10:56:24.48</time>
<name>3294</name>
</trkpt>
<trkpt lat="41.700408" lon="-0.615180">
<ele>482.5</ele>
<speed>17.5</speed>
<course>14.5</course>
<desc>Speed 17.5 km/h Distance 18.42 km</desc>
<time>2011-09-29T10:56:25.48</time>
<name>3295</name>
</trkpt>
<trkpt lat="41.700452" lon="-0.615165">
<ele>482.5</ele>
<speed>17.4</speed>
<course>15.1</course>
<desc>Speed 17.4 km/h Distance 18.42 km</desc>
<time>2011-09-29T10:56:26.48</time>
<name>3296</name>
</trkpt>
<trkpt lat="41.700493" lon="-0.615150">
<ele>482.5</ele>
<speed>17.7</speed>
<course>16.0</course>
<desc>Speed 17.7 km/h Distance 18.43 km</desc>
<time>2011-09-29T10:56:27.48</time>
<name>3297</name>
</trkpt>
<trkpt lat="41.700537" lon="-0.615133">
<ele>482.5</ele>
<speed>17.6</speed>
<course>16.0</course>
<desc>Speed 17.6 km/h Distance 18.43 km</desc>
<time>2011-09-29T10:56:28.48</time>
<name>3298</name>
</trkpt>
<trkpt lat="41.700580" lon="-0.615117">
<ele>482.0</ele>
<speed>17.5</speed>
<course>16.3</course>
<desc>Speed 17.5 km/h Distance 18.44 km</desc>
<time>2011-09-29T10:56:30.15</time>
<name>3299</name>
</trkpt>
<trkpt lat="41.700665" lon="-0.615083">
<ele>482.0</ele>
<speed>17.3</speed>
<course>16.6</course>
<desc>Speed 17.3 km/h Distance 18.45 km</desc>
<time>2011-09-29T10:56:31.48</time>
<name>3300</name>
</trkpt>
<trkpt lat="41.700707" lon="-0.615067">
<ele>482.0</ele>
<speed>17.4</speed>
<course>14.5</course>
<desc>Speed 17.4 km/h Distance 18.45 km</desc>
<time>2011-09-29T10:56:32.47</time>
<name>3301</name>
</trkpt>
<trkpt lat="41.700750" lon="-0.615052">
<ele>482.0</ele>
<speed>17.4</speed>
<course>12.9</course>
<desc>Speed 17.4 km/h Distance 18.46 km</desc>
<time>2011-09-29T10:56:33.47</time>
<name>3302</name>
</trkpt>
<trkpt lat="41.700793" lon="-0.615038">
<ele>482.0</ele>
<speed>17.4</speed>
<course>18.2</course>
<desc>Speed 17.4 km/h Distance 18.46 km</desc>
<time>2011-09-29T10:56:34.47</time>
<name>3303</name>
</trkpt>
<trkpt lat="41.700835" lon="-0.615020">
<ele>482.0</ele>
<speed>17.5</speed>
<course>14.5</course>
<desc>Speed 17.5 km/h Distance 18.47 km</desc>
<time>2011-09-29T10:56:35.48</time>
<name>3304</name>
</trkpt>
<trkpt lat="41.700878" lon="-0.615005">
<ele>482.0</ele>
<speed>17.8</speed>
<course>16.0</course>
<desc>Speed 17.8 km/h Distance 18.47 km</desc>
<time>2011-09-29T10:56:36.47</time>
<name>3305</name>
</trkpt>
<trkpt lat="41.700922" lon="-0.614988">
<ele>482.0</ele>
<speed>17.9</speed>
<course>15.4</course>
<desc>Speed 17.9 km/h Distance 18.48 km</desc>
<time>2011-09-29T10:56:37.47</time>
<name>3306</name>
</trkpt>
<trkpt lat="41.700967" lon="-0.614972">
<ele>482.0</ele>
<speed>18.0</speed>
<course>14.0</course>
<desc>Speed 18.0 km/h Distance 18.48 km</desc>
<time>2011-09-29T10:56:38.47</time>
<name>3307</name>
</trkpt>
<trkpt lat="41.701012" lon="-0.614957">
<ele>482.0</ele>
<speed>18.2</speed>
<course>15.7</course>
<desc>Speed 18.2 km/h Distance 18.49 km</desc>
<time>2011-09-29T10:56:39.89</time>
<name>3308</name>
</trkpt>
<trkpt lat="41.701100" lon="-0.614923">
<ele>482.0</ele>
<speed>18.4</speed>
<course>15.4</course>
<desc>Speed 18.4 km/h Distance 18.50 km</desc>
<time>2011-09-29T10:56:41.47</time>
<name>3309</name>
</trkpt>
<trkpt lat="41.701145" lon="-0.614907">
<ele>482.5</ele>
<speed>18.4</speed>
<course>15.4</course>
<desc>Speed 18.4 km/h Distance 18.50 km</desc>
<time>2011-09-29T10:56:42.47</time>
<name>3310</name>
</trkpt>
<trkpt lat="41.701190" lon="-0.614890">
<ele>482.5</ele>
<speed>18.6</speed>
<course>15.4</course>
<desc>Speed 18.6 km/h Distance 18.51 km</desc>
<time>2011-09-29T10:56:43.47</time>
<name>3311</name>
</trkpt>
<trkpt lat="41.701235" lon="-0.614873">
<ele>482.5</ele>
<speed>18.4</speed>
<course>15.4</course>
<desc>Speed 18.4 km/h Distance 18.51 km</desc>
<time>2011-09-29T10:56:44.47</time>
<name>3312</name>
</trkpt>
<trkpt lat="41.701280" lon="-0.614857">
<ele>482.5</ele>
<speed>18.4</speed>
<course>16.9</course>
<desc>Speed 18.4 km/h Distance 18.52 km</desc>
<time>2011-09-29T10:56:45.47</time>
<name>3313</name>
</trkpt>
<trkpt lat="41.701325" lon="-0.614838">
<ele>482.5</ele>
<speed>18.6</speed>
<course>14.5</course>
<desc>Speed 18.6 km/h Distance 18.52 km</desc>
<time>2011-09-29T10:56:46.83</time>
<name>3314</name>
</trkpt>
<trkpt lat="41.701417" lon="-0.614807">
<ele>483.0</ele>
<speed>18.6</speed>
<course>14.0</course>
<desc>Speed 18.6 km/h Distance 18.53 km</desc>
<time>2011-09-29T10:56:48.46</time>
<name>3315</name>
</trkpt>
<trkpt lat="41.701462" lon="-0.614792">
<ele>483.0</ele>
<speed>18.3</speed>
<course>16.0</course>
<desc>Speed 18.3 km/h Distance 18.54 km</desc>
<time>2011-09-29T10:56:49.64</time>
<name>3316</name>
</trkpt>
<trkpt lat="41.701505" lon="-0.614775">
<ele>483.0</ele>
<speed>17.9</speed>
<course>16.0</course>
<desc>Speed 17.9 km/h Distance 18.54 km</desc>
<time>2011-09-29T10:56:50.46</time>
<name>3317</name>
</trkpt>
<trkpt lat="41.701548" lon="-0.614758">
<ele>483.0</ele>
<speed>18.2</speed>
<course>16.9</course>
<desc>Speed 18.2 km/h Distance 18.55 km</desc>
<time>2011-09-29T10:56:51.46</time>
<name>3318</name>
</trkpt>
<trkpt lat="41.701593" lon="-0.614740">
<ele>483.0</ele>
<speed>18.1</speed>
<course>18.2</course>
<desc>Speed 18.1 km/h Distance 18.55 km</desc>
<time>2011-09-29T10:56:52.46</time>
<name>3319</name>
</trkpt>
<trkpt lat="41.701635" lon="-0.614722">
<ele>483.5</ele>
<speed>17.9</speed>
<course>11.4</course>
<desc>Speed 17.9 km/h Distance 18.56 km</desc>
<time>2011-09-29T10:56:53.46</time>
<name>3320</name>
</trkpt>
<trkpt lat="41.701678" lon="-0.614710">
<ele>483.5</ele>
<speed>17.4</speed>
<course>12.5</course>
<desc>Speed 17.4 km/h Distance 18.56 km</desc>
<time>2011-09-29T10:56:54.46</time>
<name>3321</name>
</trkpt>
<trkpt lat="41.701723" lon="-0.614697">
<ele>483.5</ele>
<speed>18.0</speed>
<course>12.9</course>
<desc>Speed 18.0 km/h Distance 18.57 km</desc>
<time>2011-09-29T10:56:55.46</time>
<name>3322</name>
</trkpt>
<trkpt lat="41.701767" lon="-0.614683">
<ele>483.5</ele>
<speed>17.9</speed>
<course>14.0</course>
<desc>Speed 17.9 km/h Distance 18.57 km</desc>
<time>2011-09-29T10:56:56.57</time>
<name>3323</name>
</trkpt>
<trkpt lat="41.701812" lon="-0.614668">
<ele>483.5</ele>
<speed>18.1</speed>
<course>12.9</course>
<desc>Speed 18.1 km/h Distance 18.58 km</desc>
<time>2011-09-29T10:56:57.46</time>
<name>3324</name>
</trkpt>
<trkpt lat="41.701855" lon="-0.614655">
<ele>484.0</ele>
<speed>17.9</speed>
<course>14.5</course>
<desc>Speed 17.9 km/h Distance 18.58 km</desc>
<time>2011-09-29T10:56:58.46</time>
<name>3325</name>
</trkpt>
<trkpt lat="41.701898" lon="-0.614640">
<ele>484.0</ele>
<speed>17.5</speed>
<course>13.5</course>
<desc>Speed 17.5 km/h Distance 18.59 km</desc>
<time>2011-09-29T10:56:59.46</time>
<name>3326</name>
</trkpt>
<trkpt lat="41.701940" lon="-0.614627">
<ele>484.0</ele>
<speed>17.2</speed>
<course>13.5</course>
<desc>Speed 17.2 km/h Distance 18.59 km</desc>
<time>2011-09-29T10:57:00.46</time>
<name>3327</name>
</trkpt>
<trkpt lat="41.701982" lon="-0.614613">
<ele>484.0</ele>
<speed>17.4</speed>
<course>12.9</course>
<desc>Speed 17.4 km/h Distance 18.60 km</desc>
<time>2011-09-29T10:57:01.46</time>
<name>3328</name>
</trkpt>
<trkpt lat="41.702025" lon="-0.614600">
<ele>484.0</ele>
<speed>17.6</speed>
<course>13.9</course>
<desc>Speed 17.6 km/h Distance 18.60 km</desc>
<time>2011-09-29T10:57:02.45</time>
<name>3329</name>
</trkpt>
<trkpt lat="41.702070" lon="-0.614585">
<ele>484.0</ele>
<speed>17.8</speed>
<course>10.9</course>
<desc>Speed 17.8 km/h Distance 18.61 km</desc>
<time>2011-09-29T10:57:03.45</time>
<name>3330</name>
</trkpt>
<trkpt lat="41.702115" lon="-0.614573">
<ele>484.0</ele>
<speed>17.9</speed>
<course>10.9</course>
<desc>Speed 17.9 km/h Distance 18.61 km</desc>
<time>2011-09-29T10:57:04.45</time>
<name>3331</name>
</trkpt>
<trkpt lat="41.702160" lon="-0.614562">
<ele>484.0</ele>
<speed>18.7</speed>
<course>10.6</course>
<desc>Speed 18.7 km/h Distance 18.62 km</desc>
<time>2011-09-29T10:57:05.45</time>
<name>3332</name>
</trkpt>
<trkpt lat="41.702207" lon="-0.614550">
<ele>484.0</ele>
<speed>18.8</speed>
<course>10.2</course>
<desc>Speed 18.8 km/h Distance 18.62 km</desc>
<time>2011-09-29T10:57:06.45</time>
<name>3333</name>
</trkpt>
<trkpt lat="41.702255" lon="-0.614538">
<ele>484.0</ele>
<speed>19.0</speed>
<course>12.0</course>
<desc>Speed 19.0 km/h Distance 18.63 km</desc>
<time>2011-09-29T10:57:07.45</time>
<name>3334</name>
</trkpt>
<trkpt lat="41.702302" lon="-0.614525">
<ele>484.5</ele>
<speed>19.0</speed>
<course>10.3</course>
<desc>Speed 19.0 km/h Distance 18.63 km</desc>
<time>2011-09-29T10:57:09.10</time>
<name>3335</name>
</trkpt>
<trkpt lat="41.702445" lon="-0.614490">
<ele>484.0</ele>
<speed>19.5</speed>
<course>10.6</course>
<desc>Speed 19.5 km/h Distance 18.65 km</desc>
<time>2011-09-29T10:57:11.45</time>
<name>3336</name>
</trkpt>
<trkpt lat="41.702492" lon="-0.614478">
<ele>484.5</ele>
<speed>19.1</speed>
<course>9.4</course>
<desc>Speed 19.1 km/h Distance 18.66 km</desc>
<time>2011-09-29T10:57:12.45</time>
<name>3337</name>
</trkpt>
<trkpt lat="41.702537" lon="-0.614468">
<ele>484.5</ele>
<speed>18.2</speed>
<course>9.7</course>
<desc>Speed 18.2 km/h Distance 18.66 km</desc>
<time>2011-09-29T10:57:13.45</time>
<name>3338</name>
</trkpt>
<trkpt lat="41.702580" lon="-0.614458">
<ele>484.5</ele>
<speed>17.2</speed>
<course>10.1</course>
<desc>Speed 17.2 km/h Distance 18.67 km</desc>
<time>2011-09-29T10:57:14.45</time>
<name>3339</name>
</trkpt>
<trkpt lat="41.702622" lon="-0.614448">
<ele>484.5</ele>
<speed>16.7</speed>
<course>11.4</course>
<desc>Speed 16.7 km/h Distance 18.67 km</desc>
<time>2011-09-29T10:57:15.45</time>
<name>3340</name>
</trkpt>
<trkpt lat="41.702665" lon="-0.614437">
<ele>484.5</ele>
<speed>17.4</speed>
<course>11.4</course>
<desc>Speed 17.4 km/h Distance 18.68 km</desc>
<time>2011-09-29T10:57:16.45</time>
<name>3341</name>
</trkpt>
<trkpt lat="41.702708" lon="-0.614425">
<ele>485.0</ele>
<speed>17.6</speed>
<course>7.8</course>
<desc>Speed 17.6 km/h Distance 18.68 km</desc>
<time>2011-09-29T10:57:17.44</time>
<name>3342</name>
</trkpt>
<trkpt lat="41.702753" lon="-0.614417">
<ele>484.5</ele>
<speed>17.9</speed>
<course>10.6</course>
<desc>Speed 17.9 km/h Distance 18.69 km</desc>
<time>2011-09-29T10:57:18.84</time>
<name>3343</name>
</trkpt>
<trkpt lat="41.702840" lon="-0.614395">
<ele>485.0</ele>
<speed>17.7</speed>
<course>10.9</course>
<desc>Speed 17.7 km/h Distance 18.69 km</desc>
<time>2011-09-29T10:57:20.44</time>
<name>3344</name>
</trkpt>
<trkpt lat="41.702885" lon="-0.614383">
<ele>485.0</ele>
<speed>18.2</speed>
<course>10.9</course>
<desc>Speed 18.2 km/h Distance 18.70 km</desc>
<time>2011-09-29T10:57:21.44</time>
<name>3345</name>
</trkpt>
<trkpt lat="41.702930" lon="-0.614372">
<ele>485.0</ele>
<speed>17.9</speed>
<course>10.9</course>
<desc>Speed 17.9 km/h Distance 18.71 km</desc>
<time>2011-09-29T10:57:22.44</time>
<name>3346</name>
</trkpt>
<trkpt lat="41.702975" lon="-0.614360">
<ele>485.0</ele>
<speed>17.9</speed>
<course>7.9</course>
<desc>Speed 17.9 km/h Distance 18.71 km</desc>
<time>2011-09-29T10:57:23.44</time>
<name>3347</name>
</trkpt>
<trkpt lat="41.703020" lon="-0.614352">
<ele>485.0</ele>
<speed>18.2</speed>
<course>7.9</course>
<desc>Speed 18.2 km/h Distance 18.72 km</desc>
<time>2011-09-29T10:57:24.44</time>
<name>3348</name>
</trkpt>
<trkpt lat="41.703065" lon="-0.614343">
<ele>485.0</ele>
<speed>18.1</speed>
<course>10.4</course>
<desc>Speed 18.1 km/h Distance 18.72 km</desc>
<time>2011-09-29T10:57:25.77</time>
<name>3349</name>
</trkpt>
<trkpt lat="41.703153" lon="-0.614322">
<ele>485.0</ele>
<speed>17.6</speed>
<course>6.5</course>
<desc>Speed 17.6 km/h Distance 18.73 km</desc>
<time>2011-09-29T10:57:27.45</time>
<name>3350</name>
</trkpt>
<trkpt lat="41.703197" lon="-0.614315">
<ele>485.0</ele>
<speed>17.6</speed>
<course>11.4</course>
<desc>Speed 17.6 km/h Distance 18.74 km</desc>
<time>2011-09-29T10:57:28.57</time>
<name>3351</name>
</trkpt>
<trkpt lat="41.703240" lon="-0.614303">
<ele>485.0</ele>
<speed>17.2</speed>
<course>8.8</course>
<desc>Speed 17.2 km/h Distance 18.74 km</desc>
<time>2011-09-29T10:57:29.44</time>
<name>3352</name>
</trkpt>
<trkpt lat="41.703280" lon="-0.614295">
<ele>485.0</ele>
<speed>16.1</speed>
<course>6.0</course>
<desc>Speed 16.1 km/h Distance 18.74 km</desc>
<time>2011-09-29T10:57:30.44</time>
<name>3353</name>
</trkpt>
<trkpt lat="41.703315" lon="-0.614290">
<ele>485.0</ele>
<speed>14.1</speed>
<course>3.8</course>
<desc>Speed 14.1 km/h Distance 18.75 km</desc>
<time>2011-09-29T10:57:31.43</time>
<name>3354</name>
</trkpt>
<trkpt lat="41.703350" lon="-0.614287">
<ele>485.0</ele>
<speed>13.3</speed>
<course>358.1</course>
<desc>Speed 13.3 km/h Distance 18.75 km</desc>
<time>2011-09-29T10:57:32.43</time>
<name>3355</name>
</trkpt>
<trkpt lat="41.703380" lon="-0.614288">
<ele>485.0</ele>
<speed>12.2</speed>
<course>348.3</course>
<desc>Speed 12.2 km/h Distance 18.76 km</desc>
<time>2011-09-29T10:57:33.43</time>
<name>3356</name>
</trkpt>
<trkpt lat="41.703410" lon="-0.614297">
<ele>485.0</ele>
<speed>11.6</speed>
<course>334.3</course>
<desc>Speed 11.6 km/h Distance 18.76 km</desc>
<time>2011-09-29T10:57:34.44</time>
<name>3357</name>
</trkpt>
<trkpt lat="41.703433" lon="-0.614312">
<ele>485.5</ele>
<speed>10.5</speed>
<course>323.3</course>
<desc>Speed 10.5 km/h Distance 18.76 km</desc>
<time>2011-09-29T10:57:35.51</time>
<name>3358</name>
</trkpt>
<trkpt lat="41.703455" lon="-0.614333">
<ele>485.5</ele>
<speed>10.5</speed>
<course>319.0</course>
<desc>Speed 10.5 km/h Distance 18.77 km</desc>
<time>2011-09-29T10:57:36.43</time>
<name>3359</name>
</trkpt>
<trkpt lat="41.703475" lon="-0.614357">
<ele>485.5</ele>
<speed>10.3</speed>
<course>308.9</course>
<desc>Speed 10.3 km/h Distance 18.77 km</desc>
<time>2011-09-29T10:57:37.43</time>
<name>3360</name>
</trkpt>
<trkpt lat="41.703485" lon="-0.614373">
<ele>485.5</ele>
<speed>6.4</speed>
<course>270.0</course>
<desc>Speed 6.4 km/h Distance 18.77 km</desc>
<time>2011-09-29T10:57:38.43</time>
<name>3361</name>
</trkpt>
<trkpt lat="41.703485" lon="-0.614375">
<ele>485.0</ele>
<speed>1.2</speed>
<course>12.6</course>
<desc>Speed 1.2 km/h Distance 18.77 km</desc>
<time>2011-09-29T10:57:39.43</time>
<name>3362</name>
</trkpt>
<trkpt lat="41.703487" lon="-0.614373">
<ele>486.0</ele>
<speed>1.4</speed>
<course>160.1</course>
<desc>Speed 1.4 km/h Distance 18.77 km</desc>
<time>2011-09-29T10:57:40.43</time>
<name>3363</name>
</trkpt>
<trkpt lat="41.703480" lon="-0.614370">
<ele>486.5</ele>
<speed>1.2</speed>
<course>349.7</course>
<desc>Speed 1.2 km/h Distance 18.77 km</desc>
<time>2011-09-29T10:57:41.43</time>
<name>3364</name>
</trkpt>
<trkpt lat="41.703487" lon="-0.614372">
<ele>486.0</ele>
<speed>2.5</speed>
<course>326.8</course>
<desc>Speed 2.5 km/h Distance 18.77 km</desc>
<time>2011-09-29T10:57:43.13</time>
<name>3365</name>
</trkpt>
<trkpt lat="41.703500" lon="-0.614383">
<ele>486.5</ele>
<speed>6.4</speed>
<course>306.6</course>
<desc>Speed 6.4 km/h Distance 18.77 km</desc>
<time>2011-09-29T10:57:44.13</time>
<name>3366</name>
</trkpt>
<trkpt lat="41.703508" lon="-0.614398">
<ele>486.5</ele>
<speed>5.8</speed>
<course>298.2</course>
<desc>Speed 5.8 km/h Distance 18.77 km</desc>
<time>2011-09-29T10:57:45.13</time>
<name>3367</name>
</trkpt>
<trkpt lat="41.703518" lon="-0.614423">
<ele>486.5</ele>
<speed>8.4</speed>
<course>297.5</course>
<desc>Speed 8.4 km/h Distance 18.78 km</desc>
<time>2011-09-29T10:57:46.20</time>
<name>3368</name>
</trkpt>
<trkpt lat="41.703530" lon="-0.614453">
<ele>486.0</ele>
<speed>10.4</speed>
<course>290.1</course>
<desc>Speed 10.4 km/h Distance 18.78 km</desc>
<time>2011-09-29T10:57:47.12</time>
<name>3369</name>
</trkpt>
<trkpt lat="41.703540" lon="-0.614490">
<ele>486.0</ele>
<speed>11.5</speed>
<course>285.6</course>
<desc>Speed 11.5 km/h Distance 18.78 km</desc>
<time>2011-09-29T10:57:48.12</time>
<name>3370</name>
</trkpt>
<trkpt lat="41.703548" lon="-0.614530">
<ele>486.0</ele>
<speed>12.3</speed>
<course>279.1</course>
<desc>Speed 12.3 km/h Distance 18.79 km</desc>
<time>2011-09-29T10:57:49.13</time>
<name>3371</name>
</trkpt>
<trkpt lat="41.703553" lon="-0.614572">
<ele>486.0</ele>
<speed>12.7</speed>
<course>281.6</course>
<desc>Speed 12.7 km/h Distance 18.79 km</desc>
<time>2011-09-29T10:57:50.12</time>
<name>3372</name>
</trkpt>
<trkpt lat="41.703560" lon="-0.614615">
<ele>486.0</ele>
<speed>13.2</speed>
<course>277.9</course>
<desc>Speed 13.2 km/h Distance 18.79 km</desc>
<time>2011-09-29T10:57:51.12</time>
<name>3373</name>
</trkpt>
<trkpt lat="41.703565" lon="-0.614663">
<ele>486.0</ele>
<speed>14.3</speed>
<course>275.1</course>
<desc>Speed 14.3 km/h Distance 18.80 km</desc>
<time>2011-09-29T10:57:52.12</time>
<name>3374</name>
</trkpt>
<trkpt lat="41.703568" lon="-0.614713">
<ele>486.0</ele>
<speed>15.1</speed>
<course>277.4</course>
<desc>Speed 15.1 km/h Distance 18.80 km</desc>
<time>2011-09-29T10:57:53.12</time>
<name>3375</name>
</trkpt>
<trkpt lat="41.703573" lon="-0.614765">
<ele>486.0</ele>
<speed>15.5</speed>
<course>274.8</course>
<desc>Speed 15.5 km/h Distance 18.81 km</desc>
<time>2011-09-29T10:57:54.12</time>
<name>3376</name>
</trkpt>
<trkpt lat="41.703577" lon="-0.614818">
<ele>486.0</ele>
<speed>16.0</speed>
<course>279.0</course>
<desc>Speed 16.0 km/h Distance 18.81 km</desc>
<time>2011-09-29T10:57:55.11</time>
<name>3377</name>
</trkpt>
<trkpt lat="41.703583" lon="-0.614875">
<ele>486.0</ele>
<speed>16.9</speed>
<course>279.0</course>
<desc>Speed 16.9 km/h Distance 18.82 km</desc>
<time>2011-09-29T10:57:56.11</time>
<name>3378</name>
</trkpt>
<trkpt lat="41.703590" lon="-0.614932">
<ele>485.5</ele>
<speed>17.6</speed>
<course>276.2</course>
<desc>Speed 17.6 km/h Distance 18.82 km</desc>
<time>2011-09-29T10:57:57.11</time>
<name>3379</name>
</trkpt>
<trkpt lat="41.703595" lon="-0.614993">
<ele>485.5</ele>
<speed>18.3</speed>
<course>278.2</course>
<desc>Speed 18.3 km/h Distance 18.83 km</desc>
<time>2011-09-29T10:57:58.11</time>
<name>3380</name>
</trkpt>
<trkpt lat="41.703602" lon="-0.615055">
<ele>485.5</ele>
<speed>19.0</speed>
<course>279.7</course>
<desc>Speed 19.0 km/h Distance 18.83 km</desc>
<time>2011-09-29T10:57:59.12</time>
<name>3381</name>
</trkpt>
<trkpt lat="41.703610" lon="-0.615120">
<ele>485.5</ele>
<speed>19.5</speed>
<course>277.8</course>
<desc>Speed 19.5 km/h Distance 18.84 km</desc>
<time>2011-09-29T10:58:00.11</time>
<name>3382</name>
</trkpt>
<trkpt lat="41.703617" lon="-0.615185">
<ele>485.5</ele>
<speed>19.8</speed>
<course>277.4</course>
<desc>Speed 19.8 km/h Distance 18.84 km</desc>
<time>2011-09-29T10:58:01.11</time>
<name>3383</name>
</trkpt>
<trkpt lat="41.703623" lon="-0.615253">
<ele>485.5</ele>
<speed>20.4</speed>
<course>271.9</course>
<desc>Speed 20.4 km/h Distance 18.85 km</desc>
<time>2011-09-29T10:58:02.11</time>
<name>3384</name>
</trkpt>
<trkpt lat="41.703625" lon="-0.615320">
<ele>485.5</ele>
<speed>20.3</speed>
<course>275.7</course>
<desc>Speed 20.3 km/h Distance 18.85 km</desc>
<time>2011-09-29T10:58:03.11</time>
<name>3385</name>
</trkpt>
<trkpt lat="41.703630" lon="-0.615387">
<ele>485.0</ele>
<speed>20.2</speed>
<course>270.0</course>
<desc>Speed 20.2 km/h Distance 18.86 km</desc>
<time>2011-09-29T10:58:04.11</time>
<name>3386</name>
</trkpt>
<trkpt lat="41.703630" lon="-0.615453">
<ele>485.0</ele>
<speed>19.9</speed>
<course>279.7</course>
<desc>Speed 19.9 km/h Distance 18.86 km</desc>
<time>2011-09-29T10:58:05.11</time>
<name>3387</name>
</trkpt>
<trkpt lat="41.703638" lon="-0.615518">
<ele>485.0</ele>
<speed>19.6</speed>
<course>276.9</course>
<desc>Speed 19.6 km/h Distance 18.87 km</desc>
<time>2011-09-29T10:58:06.68</time>
<name>3388</name>
</trkpt>
<trkpt lat="41.703650" lon="-0.615647">
<ele>484.5</ele>
<speed>19.3</speed>
<course>278.0</course>
<desc>Speed 19.3 km/h Distance 18.88 km</desc>
<time>2011-09-29T10:58:08.11</time>
<name>3389</name>
</trkpt>
<trkpt lat="41.703657" lon="-0.615710">
<ele>484.5</ele>
<speed>19.1</speed>
<course>276.0</course>
<desc>Speed 19.1 km/h Distance 18.89 km</desc>
<time>2011-09-29T10:58:09.11</time>
<name>3390</name>
</trkpt>
<trkpt lat="41.703662" lon="-0.615773">
<ele>484.0</ele>
<speed>19.0</speed>
<course>278.2</course>
<desc>Speed 19.0 km/h Distance 18.89 km</desc>
<time>2011-09-29T10:58:10.11</time>
<name>3391</name>
</trkpt>
<trkpt lat="41.703668" lon="-0.615835">
<ele>484.0</ele>
<speed>18.7</speed>
<course>278.2</course>
<desc>Speed 18.7 km/h Distance 18.90 km</desc>
<time>2011-09-29T10:58:11.11</time>
<name>3392</name>
</trkpt>
<trkpt lat="41.703675" lon="-0.615897">
<ele>484.0</ele>
<speed>19.0</speed>
<course>273.9</course>
<desc>Speed 19.0 km/h Distance 18.90 km</desc>
<time>2011-09-29T10:58:12.11</time>
<name>3393</name>
</trkpt>
<trkpt lat="41.703678" lon="-0.615962">
<ele>484.0</ele>
<speed>19.4</speed>
<course>279.7</course>
<desc>Speed 19.4 km/h Distance 18.91 km</desc>
<time>2011-09-29T10:58:13.11</time>
<name>3394</name>
</trkpt>
<trkpt lat="41.703687" lon="-0.616027">
<ele>484.0</ele>
<speed>19.9</speed>
<course>281.1</course>
<desc>Speed 19.9 km/h Distance 18.91 km</desc>
<time>2011-09-29T10:58:14.10</time>
<name>3395</name>
</trkpt>
<trkpt lat="41.703697" lon="-0.616095">
<ele>484.0</ele>
<speed>20.7</speed>
<course>277.4</course>
<desc>Speed 20.7 km/h Distance 18.92 km</desc>
<time>2011-09-29T10:58:15.11</time>
<name>3396</name>
</trkpt>
<trkpt lat="41.703703" lon="-0.616163">
<ele>484.0</ele>
<speed>20.9</speed>
<course>276.4</course>
<desc>Speed 20.9 km/h Distance 18.92 km</desc>
<time>2011-09-29T10:58:16.44</time>
<name>3397</name>
</trkpt>
<trkpt lat="41.703715" lon="-0.616303">
<ele>484.0</ele>
<speed>20.9</speed>
<course>277.4</course>
<desc>Speed 20.9 km/h Distance 18.94 km</desc>
<time>2011-09-29T10:58:18.10</time>
<name>3398</name>
</trkpt>
<trkpt lat="41.703722" lon="-0.616372">
<ele>483.5</ele>
<speed>20.7</speed>
<course>277.1</course>
<desc>Speed 20.7 km/h Distance 18.94 km</desc>
<time>2011-09-29T10:58:19.10</time>
<name>3399</name>
</trkpt>
<trkpt lat="41.703728" lon="-0.616443">
<ele>483.5</ele>
<speed>21.5</speed>
<course>280.1</course>
<desc>Speed 21.5 km/h Distance 18.95 km</desc>
<time>2011-09-29T10:58:20.10</time>
<name>3400</name>
</trkpt>
<trkpt lat="41.703738" lon="-0.616518">
<ele>483.5</ele>
<speed>22.5</speed>
<course>278.5</course>
<desc>Speed 22.5 km/h Distance 18.95 km</desc>
<time>2011-09-29T10:58:21.10</time>
<name>3401</name>
</trkpt>
<trkpt lat="41.703747" lon="-0.616593">
<ele>483.5</ele>
<speed>23.0</speed>
<course>278.1</course>
<desc>Speed 23.0 km/h Distance 18.96 km</desc>
<time>2011-09-29T10:58:22.09</time>
<name>3402</name>
</trkpt>
<trkpt lat="41.703755" lon="-0.616672">
<ele>483.5</ele>
<speed>23.5</speed>
<course>277.9</course>
<desc>Speed 23.5 km/h Distance 18.97 km</desc>
<time>2011-09-29T10:58:23.40</time>
<name>3403</name>
</trkpt>
<trkpt lat="41.703772" lon="-0.616832">
<ele>483.5</ele>
<speed>24.6</speed>
<course>277.6</course>
<desc>Speed 24.6 km/h Distance 18.98 km</desc>
<time>2011-09-29T10:58:25.10</time>
<name>3404</name>
</trkpt>
<trkpt lat="41.703780" lon="-0.616915">
<ele>483.5</ele>
<speed>25.1</speed>
<course>279.0</course>
<desc>Speed 25.1 km/h Distance 18.99 km</desc>
<time>2011-09-29T10:58:26.19</time>
<name>3405</name>
</trkpt>
<trkpt lat="41.703790" lon="-0.617000">
<ele>483.5</ele>
<speed>25.6</speed>
<course>277.5</course>
<desc>Speed 25.6 km/h Distance 18.99 km</desc>
<time>2011-09-29T10:58:27.10</time>
<name>3406</name>
</trkpt>
<trkpt lat="41.703798" lon="-0.617085">
<ele>483.5</ele>
<speed>25.8</speed>
<course>277.5</course>
<desc>Speed 25.8 km/h Distance 19.00 km</desc>
<time>2011-09-29T10:58:28.10</time>
<name>3407</name>
</trkpt>
<trkpt lat="41.703807" lon="-0.617170">
<ele>483.5</ele>
<speed>25.8</speed>
<course>276.0</course>
<desc>Speed 25.8 km/h Distance 19.01 km</desc>
<time>2011-09-29T10:58:29.10</time>
<name>3408</name>
</trkpt>
<trkpt lat="41.703813" lon="-0.617255">
<ele>483.5</ele>
<speed>25.5</speed>
<course>277.6</course>
<desc>Speed 25.5 km/h Distance 19.02 km</desc>
<time>2011-09-29T10:58:30.09</time>
<name>3409</name>
</trkpt>
<trkpt lat="41.703822" lon="-0.617338">
<ele>483.5</ele>
<speed>25.3</speed>
<course>277.5</course>
<desc>Speed 25.3 km/h Distance 19.02 km</desc>
<time>2011-09-29T10:58:31.09</time>
<name>3410</name>
</trkpt>
<trkpt lat="41.703830" lon="-0.617423">
<ele>483.5</ele>
<speed>25.2</speed>
<course>279.1</course>
<desc>Speed 25.2 km/h Distance 19.03 km</desc>
<time>2011-09-29T10:58:32.09</time>
<name>3411</name>
</trkpt>
<trkpt lat="41.703840" lon="-0.617507">
<ele>483.5</ele>
<speed>25.5</speed>
<course>276.1</course>
<desc>Speed 25.5 km/h Distance 19.04 km</desc>
<time>2011-09-29T10:58:33.16</time>
<name>3412</name>
</trkpt>
<trkpt lat="41.703847" lon="-0.617590">
<ele>483.5</ele>
<speed>25.2</speed>
<course>276.0</course>
<desc>Speed 25.2 km/h Distance 19.04 km</desc>
<time>2011-09-29T10:58:34.09</time>
<name>3413</name>
</trkpt>
<trkpt lat="41.703853" lon="-0.617675">
<ele>483.5</ele>
<speed>25.4</speed>
<course>277.6</course>
<desc>Speed 25.4 km/h Distance 19.05 km</desc>
<time>2011-09-29T10:58:35.09</time>
<name>3414</name>
</trkpt>
<trkpt lat="41.703862" lon="-0.617758">
<ele>483.5</ele>
<speed>25.3</speed>
<course>277.6</course>
<desc>Speed 25.3 km/h Distance 19.06 km</desc>
<time>2011-09-29T10:58:36.09</time>
<name>3415</name>
</trkpt>
<trkpt lat="41.703870" lon="-0.617842">
<ele>483.5</ele>
<speed>25.3</speed>
<course>277.6</course>
<desc>Speed 25.3 km/h Distance 19.06 km</desc>
<time>2011-09-29T10:58:37.09</time>
<name>3416</name>
</trkpt>
<trkpt lat="41.703878" lon="-0.617925">
<ele>483.5</ele>
<speed>25.2</speed>
<course>276.0</course>
<desc>Speed 25.2 km/h Distance 19.07 km</desc>
<time>2011-09-29T10:58:38.09</time>
<name>3417</name>
</trkpt>
<trkpt lat="41.703885" lon="-0.618010">
<ele>483.0</ele>
<speed>25.3</speed>
<course>279.3</course>
<desc>Speed 25.3 km/h Distance 19.08 km</desc>
<time>2011-09-29T10:58:39.09</time>
<name>3418</name>
</trkpt>
<trkpt lat="41.703895" lon="-0.618092">
<ele>483.0</ele>
<speed>25.2</speed>
<course>279.1</course>
<desc>Speed 25.2 km/h Distance 19.09 km</desc>
<time>2011-09-29T10:58:40.09</time>
<name>3419</name>
</trkpt>
<trkpt lat="41.703905" lon="-0.618175">
<ele>483.0</ele>
<speed>25.1</speed>
<course>276.2</course>
<desc>Speed 25.1 km/h Distance 19.09 km</desc>
<time>2011-09-29T10:58:41.09</time>
<name>3420</name>
</trkpt>
<trkpt lat="41.703912" lon="-0.618257">
<ele>483.0</ele>
<speed>24.7</speed>
<course>277.8</course>
<desc>Speed 24.7 km/h Distance 19.10 km</desc>
<time>2011-09-29T10:58:42.09</time>
<name>3421</name>
</trkpt>
<trkpt lat="41.703920" lon="-0.618338">
<ele>483.0</ele>
<speed>24.6</speed>
<course>279.5</course>
<desc>Speed 24.6 km/h Distance 19.11 km</desc>
<time>2011-09-29T10:58:43.09</time>
<name>3422</name>
</trkpt>
<trkpt lat="41.703930" lon="-0.618418">
<ele>482.5</ele>
<speed>24.5</speed>
<course>277.8</course>
<desc>Speed 24.5 km/h Distance 19.11 km</desc>
<time>2011-09-29T10:58:44.09</time>
<name>3423</name>
</trkpt>
<trkpt lat="41.703938" lon="-0.618500">
<ele>482.5</ele>
<speed>24.4</speed>
<course>277.3</course>
<desc>Speed 24.4 km/h Distance 19.12 km</desc>
<time>2011-09-29T10:58:45.69</time>
<name>3424</name>
</trkpt>
<trkpt lat="41.703962" lon="-0.618743">
<ele>482.0</ele>
<speed>24.6</speed>
<course>276.2</course>
<desc>Speed 24.6 km/h Distance 19.14 km</desc>
<time>2011-09-29T10:58:48.09</time>
<name>3425</name>
</trkpt>
<trkpt lat="41.703975" lon="-0.618907">
<ele>481.5</ele>
<speed>24.6</speed>
<course>276.2</course>
<desc>Speed 24.6 km/h Distance 19.15 km</desc>
<time>2011-09-29T10:58:50.08</time>
<name>3426</name>
</trkpt>
<trkpt lat="41.703988" lon="-0.619070">
<ele>481.5</ele>
<speed>24.7</speed>
<course>276.1</course>
<desc>Speed 24.7 km/h Distance 19.17 km</desc>
<time>2011-09-29T10:58:52.08</time>
<name>3427</name>
</trkpt>
<trkpt lat="41.703995" lon="-0.619153">
<ele>481.0</ele>
<speed>25.0</speed>
<course>277.6</course>
<desc>Speed 25.0 km/h Distance 19.17 km</desc>
<time>2011-09-29T10:58:53.08</time>
<name>3428</name>
</trkpt>
<trkpt lat="41.704003" lon="-0.619237">
<ele>481.0</ele>
<speed>24.9</speed>
<course>277.6</course>
<desc>Speed 24.9 km/h Distance 19.18 km</desc>
<time>2011-09-29T10:58:54.08</time>
<name>3429</name>
</trkpt>
<trkpt lat="41.704020" lon="-0.619405">
<ele>481.0</ele>
<speed>25.7</speed>
<course>278.8</course>
<desc>Speed 25.7 km/h Distance 19.20 km</desc>
<time>2011-09-29T10:58:56.08</time>
<name>3430</name>
</trkpt>
<trkpt lat="41.704030" lon="-0.619492">
<ele>480.5</ele>
<speed>26.4</speed>
<course>278.6</course>
<desc>Speed 26.4 km/h Distance 19.20 km</desc>
<time>2011-09-29T10:58:57.08</time>
<name>3431</name>
</trkpt>
<trkpt lat="41.704040" lon="-0.619580">
<ele>480.5</ele>
<speed>26.9</speed>
<course>277.1</course>
<desc>Speed 26.9 km/h Distance 19.21 km</desc>
<time>2011-09-29T10:58:58.08</time>
<name>3432</name>
</trkpt>
<trkpt lat="41.704048" lon="-0.619670">
<ele>480.0</ele>
<speed>27.0</speed>
<course>278.5</course>
<desc>Speed 27.0 km/h Distance 19.22 km</desc>
<time>2011-09-29T10:58:59.08</time>
<name>3433</name>
</trkpt>
<trkpt lat="41.704058" lon="-0.619760">
<ele>480.0</ele>
<speed>27.1</speed>
<course>278.6</course>
<desc>Speed 27.1 km/h Distance 19.23 km</desc>
<time>2011-09-29T10:59:00.08</time>
<name>3434</name>
</trkpt>
<trkpt lat="41.704068" lon="-0.619848">
<ele>480.0</ele>
<speed>27.1</speed>
<course>277.1</course>
<desc>Speed 27.1 km/h Distance 19.23 km</desc>
<time>2011-09-29T10:59:01.08</time>
<name>3435</name>
</trkpt>
<trkpt lat="41.704077" lon="-0.619938">
<ele>479.5</ele>
<speed>27.1</speed>
<course>277.8</course>
<desc>Speed 27.1 km/h Distance 19.24 km</desc>
<time>2011-09-29T10:59:02.38</time>
<name>3436</name>
</trkpt>
<trkpt lat="41.704095" lon="-0.620117">
<ele>479.5</ele>
<speed>26.9</speed>
<course>277.2</course>
<desc>Speed 26.9 km/h Distance 19.26 km</desc>
<time>2011-09-29T10:59:04.08</time>
<name>3437</name>
</trkpt>
<trkpt lat="41.704103" lon="-0.620205">
<ele>479.0</ele>
<speed>26.8</speed>
<course>276.5</course>
<desc>Speed 26.8 km/h Distance 19.26 km</desc>
<time>2011-09-29T10:59:05.18</time>
<name>3438</name>
</trkpt>
<trkpt lat="41.704118" lon="-0.620382">
<ele>479.0</ele>
<speed>26.6</speed>
<course>277.2</course>
<desc>Speed 26.6 km/h Distance 19.28 km</desc>
<time>2011-09-29T10:59:07.08</time>
<name>3439</name>
</trkpt>
<trkpt lat="41.704127" lon="-0.620470">
<ele>478.5</ele>
<speed>26.6</speed>
<course>278.5</course>
<desc>Speed 26.6 km/h Distance 19.28 km</desc>
<time>2011-09-29T10:59:08.07</time>
<name>3440</name>
</trkpt>
<trkpt lat="41.704137" lon="-0.620560">
<ele>478.5</ele>
<speed>27.1</speed>
<course>278.5</course>
<desc>Speed 27.1 km/h Distance 19.29 km</desc>
<time>2011-09-29T10:59:09.08</time>
<name>3441</name>
</trkpt>
<trkpt lat="41.704147" lon="-0.620650">
<ele>478.5</ele>
<speed>27.4</speed>
<course>277.1</course>
<desc>Speed 27.4 km/h Distance 19.30 km</desc>
<time>2011-09-29T10:59:10.07</time>
<name>3442</name>
</trkpt>
<trkpt lat="41.704155" lon="-0.620740">
<ele>478.5</ele>
<speed>27.5</speed>
<course>277.1</course>
<desc>Speed 27.5 km/h Distance 19.31 km</desc>
<time>2011-09-29T10:59:11.07</time>
<name>3443</name>
</trkpt>
<trkpt lat="41.704163" lon="-0.620830">
<ele>478.5</ele>
<speed>27.2</speed>
<course>277.8</course>
<desc>Speed 27.2 km/h Distance 19.32 km</desc>
<time>2011-09-29T10:59:12.11</time>
<name>3444</name>
</trkpt>
<trkpt lat="41.704182" lon="-0.621008">
<ele>478.0</ele>
<speed>26.9</speed>
<course>277.2</course>
<desc>Speed 26.9 km/h Distance 19.33 km</desc>
<time>2011-09-29T10:59:14.07</time>
<name>3445</name>
</trkpt>
<trkpt lat="41.704190" lon="-0.621097">
<ele>478.0</ele>
<speed>26.7</speed>
<course>275.8</course>
<desc>Speed 26.7 km/h Distance 19.34 km</desc>
<time>2011-09-29T10:59:15.07</time>
<name>3446</name>
</trkpt>
<trkpt lat="41.704197" lon="-0.621185">
<ele>478.0</ele>
<speed>26.7</speed>
<course>277.2</course>
<desc>Speed 26.7 km/h Distance 19.34 km</desc>
<time>2011-09-29T10:59:16.07</time>
<name>3447</name>
</trkpt>
<trkpt lat="41.704205" lon="-0.621273">
<ele>478.0</ele>
<speed>26.9</speed>
<course>278.5</course>
<desc>Speed 26.9 km/h Distance 19.35 km</desc>
<time>2011-09-29T10:59:17.07</time>
<name>3448</name>
</trkpt>
<trkpt lat="41.704215" lon="-0.621363">
<ele>478.0</ele>
<speed>27.0</speed>
<course>275.7</course>
<desc>Speed 27.0 km/h Distance 19.36 km</desc>
<time>2011-09-29T10:59:18.07</time>
<name>3449</name>
</trkpt>
<trkpt lat="41.704222" lon="-0.621453">
<ele>477.5</ele>
<speed>27.4</speed>
<course>278.5</course>
<desc>Speed 27.4 km/h Distance 19.37 km</desc>
<time>2011-09-29T10:59:19.07</time>
<name>3450</name>
</trkpt>
<trkpt lat="41.704232" lon="-0.621543">
<ele>477.5</ele>
<speed>27.4</speed>
<course>276.9</course>
<desc>Speed 27.4 km/h Distance 19.37 km</desc>
<time>2011-09-29T10:59:20.06</time>
<name>3451</name>
</trkpt>
<trkpt lat="41.704240" lon="-0.621635">
<ele>477.5</ele>
<speed>27.4</speed>
<course>278.5</course>
<desc>Speed 27.4 km/h Distance 19.38 km</desc>
<time>2011-09-29T10:59:21.07</time>
<name>3452</name>
</trkpt>
<trkpt lat="41.704250" lon="-0.621725">
<ele>477.0</ele>
<speed>27.4</speed>
<course>278.5</course>
<desc>Speed 27.4 km/h Distance 19.39 km</desc>
<time>2011-09-29T10:59:22.06</time>
<name>3453</name>
</trkpt>
<trkpt lat="41.704260" lon="-0.621815">
<ele>477.0</ele>
<speed>27.3</speed>
<course>274.2</course>
<desc>Speed 27.3 km/h Distance 19.40 km</desc>
<time>2011-09-29T10:59:23.06</time>
<name>3454</name>
</trkpt>
<trkpt lat="41.704265" lon="-0.621907">
<ele>477.0</ele>
<speed>27.3</speed>
<course>278.9</course>
<desc>Speed 27.3 km/h Distance 19.41 km</desc>
<time>2011-09-29T10:59:24.65</time>
<name>3455</name>
</trkpt>
<trkpt lat="41.704297" lon="-0.622177">
<ele>477.0</ele>
<speed>27.4</speed>
<course>276.9</course>
<desc>Speed 27.4 km/h Distance 19.43 km</desc>
<time>2011-09-29T10:59:27.06</time>
<name>3456</name>
</trkpt>
<trkpt lat="41.704305" lon="-0.622268">
<ele>477.0</ele>
<speed>27.6</speed>
<course>276.9</course>
<desc>Speed 27.6 km/h Distance 19.44 km</desc>
<time>2011-09-29T10:59:28.07</time>
<name>3457</name>
</trkpt>
<trkpt lat="41.704313" lon="-0.622360">
<ele>477.0</ele>
<speed>27.5</speed>
<course>277.1</course>
<desc>Speed 27.5 km/h Distance 19.44 km</desc>
<time>2011-09-29T10:59:29.06</time>
<name>3458</name>
</trkpt>
<trkpt lat="41.704322" lon="-0.622450">
<ele>477.0</ele>
<speed>27.4</speed>
<course>276.9</course>
<desc>Speed 27.4 km/h Distance 19.45 km</desc>
<time>2011-09-29T10:59:30.06</time>
<name>3459</name>
</trkpt>
<trkpt lat="41.704330" lon="-0.622542">
<ele>477.0</ele>
<speed>27.3</speed>
<course>276.9</course>
<desc>Speed 27.3 km/h Distance 19.46 km</desc>
<time>2011-09-29T10:59:31.06</time>
<name>3460</name>
</trkpt>
<trkpt lat="41.704338" lon="-0.622633">
<ele>476.5</ele>
<speed>27.5</speed>
<course>276.9</course>
<desc>Speed 27.5 km/h Distance 19.47 km</desc>
<time>2011-09-29T10:59:32.06</time>
<name>3461</name>
</trkpt>
<trkpt lat="41.704347" lon="-0.622725">
<ele>476.5</ele>
<speed>27.6</speed>
<course>275.6</course>
<desc>Speed 27.6 km/h Distance 19.47 km</desc>
<time>2011-09-29T10:59:33.06</time>
<name>3462</name>
</trkpt>
<trkpt lat="41.704353" lon="-0.622817">
<ele>476.5</ele>
<speed>27.8</speed>
<course>277.6</course>
<desc>Speed 27.8 km/h Distance 19.48 km</desc>
<time>2011-09-29T10:59:34.37</time>
<name>3463</name>
</trkpt>
<trkpt lat="41.704372" lon="-0.623002">
<ele>476.5</ele>
<speed>28.0</speed>
<course>278.2</course>
<desc>Speed 28.0 km/h Distance 19.50 km</desc>
<time>2011-09-29T10:59:36.06</time>
<name>3464</name>
</trkpt>
<trkpt lat="41.704382" lon="-0.623095">
<ele>476.5</ele>
<speed>28.1</speed>
<course>278.2</course>
<desc>Speed 28.1 km/h Distance 19.50 km</desc>
<time>2011-09-29T10:59:37.05</time>
<name>3465</name>
</trkpt>
<trkpt lat="41.704392" lon="-0.623188">
<ele>476.0</ele>
<speed>28.2</speed>
<course>276.8</course>
<desc>Speed 28.2 km/h Distance 19.51 km</desc>
<time>2011-09-29T10:59:38.05</time>
<name>3466</name>
</trkpt>
<trkpt lat="41.704400" lon="-0.623282">
<ele>476.0</ele>
<speed>28.5</speed>
<course>276.7</course>
<desc>Speed 28.5 km/h Distance 19.52 km</desc>
<time>2011-09-29T10:59:39.06</time>
<name>3467</name>
</trkpt>
<trkpt lat="41.704408" lon="-0.623377">
<ele>476.0</ele>
<speed>28.7</speed>
<course>278.0</course>
<desc>Speed 28.7 km/h Distance 19.53 km</desc>
<time>2011-09-29T10:59:40.06</time>
<name>3468</name>
</trkpt>
<trkpt lat="41.704428" lon="-0.623568">
<ele>475.5</ele>
<speed>28.8</speed>
<course>279.3</course>
<desc>Speed 28.8 km/h Distance 19.54 km</desc>
<time>2011-09-29T10:59:42.05</time>
<name>3469</name>
</trkpt>
<trkpt lat="41.704440" lon="-0.623663">
<ele>475.5</ele>
<speed>28.9</speed>
<course>276.6</course>
<desc>Speed 28.9 km/h Distance 19.55 km</desc>
<time>2011-09-29T10:59:43.05</time>
<name>3470</name>
</trkpt>
<trkpt lat="41.704448" lon="-0.623760">
<ele>475.5</ele>
<speed>28.9</speed>
<course>276.6</course>
<desc>Speed 28.9 km/h Distance 19.56 km</desc>
<time>2011-09-29T10:59:44.05</time>
<name>3471</name>
</trkpt>
<trkpt lat="41.704457" lon="-0.623857">
<ele>475.5</ele>
<speed>28.9</speed>
<course>278.0</course>
<desc>Speed 28.9 km/h Distance 19.57 km</desc>
<time>2011-09-29T10:59:45.06</time>
<name>3472</name>
</trkpt>
<trkpt lat="41.704467" lon="-0.623952">
<ele>475.5</ele>
<speed>28.9</speed>
<course>278.0</course>
<desc>Speed 28.9 km/h Distance 19.58 km</desc>
<time>2011-09-29T10:59:46.22</time>
<name>3473</name>
</trkpt>
<trkpt lat="41.704487" lon="-0.624143">
<ele>475.0</ele>
<speed>28.8</speed>
<course>276.7</course>
<desc>Speed 28.8 km/h Distance 19.59 km</desc>
<time>2011-09-29T10:59:48.05</time>
<name>3474</name>
</trkpt>
<trkpt lat="41.704495" lon="-0.624238">
<ele>475.0</ele>
<speed>28.8</speed>
<course>277.9</course>
<desc>Speed 28.8 km/h Distance 19.60 km</desc>
<time>2011-09-29T10:59:49.04</time>
<name>3475</name>
</trkpt>
<trkpt lat="41.704505" lon="-0.624335">
<ele>475.0</ele>
<speed>29.0</speed>
<course>276.7</course>
<desc>Speed 29.0 km/h Distance 19.61 km</desc>
<time>2011-09-29T10:59:50.04</time>
<name>3476</name>
</trkpt>
<trkpt lat="41.704513" lon="-0.624430">
<ele>475.0</ele>
<speed>29.0</speed>
<course>277.8</course>
<desc>Speed 29.0 km/h Distance 19.62 km</desc>
<time>2011-09-29T10:59:51.04</time>
<name>3477</name>
</trkpt>
<trkpt lat="41.704523" lon="-0.624528">
<ele>475.0</ele>
<speed>29.3</speed>
<course>277.9</course>
<desc>Speed 29.3 km/h Distance 19.63 km</desc>
<time>2011-09-29T10:59:52.04</time>
<name>3478</name>
</trkpt>
<trkpt lat="41.704533" lon="-0.624625">
<ele>475.0</ele>
<speed>29.3</speed>
<course>277.4</course>
<desc>Speed 29.3 km/h Distance 19.63 km</desc>
<time>2011-09-29T10:59:53.71</time>
<name>3479</name>
</trkpt>
<trkpt lat="41.704562" lon="-0.624917">
<ele>474.5</ele>
<speed>29.5</speed>
<course>275.3</course>
<desc>Speed 29.5 km/h Distance 19.66 km</desc>
<time>2011-09-29T10:59:56.04</time>
<name>3480</name>
</trkpt>
<trkpt lat="41.704568" lon="-0.625013">
<ele>474.5</ele>
<speed>29.3</speed>
<course>276.6</course>
<desc>Speed 29.3 km/h Distance 19.67 km</desc>
<time>2011-09-29T10:59:57.04</time>
<name>3481</name>
</trkpt>
<trkpt lat="41.704577" lon="-0.625110">
<ele>474.5</ele>
<speed>29.0</speed>
<course>276.6</course>
<desc>Speed 29.0 km/h Distance 19.67 km</desc>
<time>2011-09-29T10:59:58.04</time>
<name>3482</name>
</trkpt>
<trkpt lat="41.704585" lon="-0.625207">
<ele>474.5</ele>
<speed>29.1</speed>
<course>278.0</course>
<desc>Speed 29.1 km/h Distance 19.68 km</desc>
<time>2011-09-29T10:59:59.03</time>
<name>3483</name>
</trkpt>
<trkpt lat="41.704595" lon="-0.625302">
<ele>474.0</ele>
<speed>28.8</speed>
<course>278.0</course>
<desc>Speed 28.8 km/h Distance 19.69 km</desc>
<time>2011-09-29T11:00:00.04</time>
<name>3484</name>
</trkpt>
<trkpt lat="41.704605" lon="-0.625397">
<ele>474.0</ele>
<speed>28.8</speed>
<course>277.9</course>
<desc>Speed 28.8 km/h Distance 19.70 km</desc>
<time>2011-09-29T11:00:01.04</time>
<name>3485</name>
</trkpt>
<trkpt lat="41.704615" lon="-0.625493">
<ele>474.0</ele>
<speed>28.9</speed>
<course>276.7</course>
<desc>Speed 28.9 km/h Distance 19.71 km</desc>
<time>2011-09-29T11:00:02.03</time>
<name>3486</name>
</trkpt>
<trkpt lat="41.704623" lon="-0.625588">
<ele>474.0</ele>
<speed>29.1</speed>
<course>278.5</course>
<desc>Speed 29.1 km/h Distance 19.71 km</desc>
<time>2011-09-29T11:00:03.46</time>
<name>3487</name>
</trkpt>
<trkpt lat="41.704645" lon="-0.625782">
<ele>473.5</ele>
<speed>29.2</speed>
<course>276.6</course>
<desc>Speed 29.2 km/h Distance 19.73 km</desc>
<time>2011-09-29T11:00:05.03</time>
<name>3488</name>
</trkpt>
<trkpt lat="41.704653" lon="-0.625878">
<ele>473.5</ele>
<speed>29.2</speed>
<course>277.9</course>
<desc>Speed 29.2 km/h Distance 19.74 km</desc>
<time>2011-09-29T11:00:06.03</time>
<name>3489</name>
</trkpt>
<trkpt lat="41.704663" lon="-0.625975">
<ele>473.5</ele>
<speed>29.1</speed>
<course>277.9</course>
<desc>Speed 29.1 km/h Distance 19.75 km</desc>
<time>2011-09-29T11:00:07.03</time>
<name>3490</name>
</trkpt>
<trkpt lat="41.704673" lon="-0.626072">
<ele>473.5</ele>
<speed>29.2</speed>
<course>277.9</course>
<desc>Speed 29.2 km/h Distance 19.75 km</desc>
<time>2011-09-29T11:00:08.03</time>
<name>3491</name>
</trkpt>
<trkpt lat="41.704683" lon="-0.626168">
<ele>473.0</ele>
<speed>29.3</speed>
<course>276.6</course>
<desc>Speed 29.3 km/h Distance 19.76 km</desc>
<time>2011-09-29T11:00:09.03</time>
<name>3492</name>
</trkpt>
<trkpt lat="41.704692" lon="-0.626265">
<ele>473.0</ele>
<speed>29.1</speed>
<course>277.3</course>
<desc>Speed 29.1 km/h Distance 19.77 km</desc>
<time>2011-09-29T11:00:10.39</time>
<name>3493</name>
</trkpt>
<trkpt lat="41.704710" lon="-0.626457">
<ele>473.0</ele>
<speed>28.9</speed>
<course>278.0</course>
<desc>Speed 28.9 km/h Distance 19.79 km</desc>
<time>2011-09-29T11:00:12.03</time>
<name>3494</name>
</trkpt>
<trkpt lat="41.704720" lon="-0.626552">
<ele>473.0</ele>
<speed>29.0</speed>
<course>277.2</course>
<desc>Speed 29.0 km/h Distance 19.79 km</desc>
<time>2011-09-29T11:00:13.20</time>
<name>3495</name>
</trkpt>
<trkpt lat="41.704738" lon="-0.626745">
<ele>472.5</ele>
<speed>29.1</speed>
<course>277.9</course>
<desc>Speed 29.1 km/h Distance 19.81 km</desc>
<time>2011-09-29T11:00:15.03</time>
<name>3496</name>
</trkpt>
<trkpt lat="41.704748" lon="-0.626842">
<ele>472.5</ele>
<speed>29.2</speed>
<course>277.9</course>
<desc>Speed 29.2 km/h Distance 19.82 km</desc>
<time>2011-09-29T11:00:16.02</time>
<name>3497</name>
</trkpt>
<trkpt lat="41.704758" lon="-0.626938">
<ele>472.5</ele>
<speed>29.3</speed>
<course>277.9</course>
<desc>Speed 29.3 km/h Distance 19.83 km</desc>
<time>2011-09-29T11:00:17.02</time>
<name>3498</name>
</trkpt>
<trkpt lat="41.704768" lon="-0.627035">
<ele>472.5</ele>
<speed>29.2</speed>
<course>276.5</course>
<desc>Speed 29.2 km/h Distance 19.84 km</desc>
<time>2011-09-29T11:00:18.03</time>
<name>3499</name>
</trkpt>
<trkpt lat="41.704777" lon="-0.627133">
<ele>472.5</ele>
<speed>29.4</speed>
<course>276.6</course>
<desc>Speed 29.4 km/h Distance 19.84 km</desc>
<time>2011-09-29T11:00:19.02</time>
<name>3500</name>
</trkpt>
<trkpt lat="41.704785" lon="-0.627230">
<ele>472.0</ele>
<speed>29.3</speed>
<course>276.6</course>
<desc>Speed 29.3 km/h Distance 19.85 km</desc>
<time>2011-09-29T11:00:20.13</time>
<name>3501</name>
</trkpt>
<trkpt lat="41.704793" lon="-0.627327">
<ele>472.0</ele>
<speed>29.3</speed>
<course>279.0</course>
<desc>Speed 29.3 km/h Distance 19.86 km</desc>
<time>2011-09-29T11:00:21.03</time>
<name>3502</name>
</trkpt>
<trkpt lat="41.704805" lon="-0.627425">
<ele>472.0</ele>
<speed>29.4</speed>
<course>277.8</course>
<desc>Speed 29.4 km/h Distance 19.87 km</desc>
<time>2011-09-29T11:00:22.02</time>
<name>3503</name>
</trkpt>
<trkpt lat="41.704815" lon="-0.627523">
<ele>472.0</ele>
<speed>29.5</speed>
<course>277.9</course>
<desc>Speed 29.5 km/h Distance 19.88 km</desc>
<time>2011-09-29T11:00:23.02</time>
<name>3504</name>
</trkpt>
<trkpt lat="41.704825" lon="-0.627620">
<ele>472.0</ele>
<speed>29.4</speed>
<course>279.0</course>
<desc>Speed 29.4 km/h Distance 19.88 km</desc>
<time>2011-09-29T11:00:24.02</time>
<name>3505</name>
</trkpt>
<trkpt lat="41.704837" lon="-0.627718">
<ele>472.0</ele>
<speed>29.5</speed>
<course>277.9</course>
<desc>Speed 29.5 km/h Distance 19.89 km</desc>
<time>2011-09-29T11:00:25.02</time>
<name>3506</name>
</trkpt>
<trkpt lat="41.704847" lon="-0.627815">
<ele>471.5</ele>
<speed>29.6</speed>
<course>276.5</course>
<desc>Speed 29.6 km/h Distance 19.90 km</desc>
<time>2011-09-29T11:00:26.02</time>
<name>3507</name>
</trkpt>
<trkpt lat="41.704855" lon="-0.627913">
<ele>471.5</ele>
<speed>29.4</speed>
<course>277.9</course>
<desc>Speed 29.4 km/h Distance 19.91 km</desc>
<time>2011-09-29T11:00:27.02</time>
<name>3508</name>
</trkpt>
<trkpt lat="41.704865" lon="-0.628010">
<ele>471.5</ele>
<speed>29.4</speed>
<course>279.2</course>
<desc>Speed 29.4 km/h Distance 19.92 km</desc>
<time>2011-09-29T11:00:28.02</time>
<name>3509</name>
</trkpt>
<trkpt lat="41.704877" lon="-0.628107">
<ele>471.5</ele>
<speed>29.4</speed>
<course>276.6</course>
<desc>Speed 29.4 km/h Distance 19.93 km</desc>
<time>2011-09-29T11:00:29.02</time>
<name>3510</name>
</trkpt>
<trkpt lat="41.704885" lon="-0.628203">
<ele>471.5</ele>
<speed>29.1</speed>
<course>276.6</course>
<desc>Speed 29.1 km/h Distance 19.93 km</desc>
<time>2011-09-29T11:00:30.02</time>
<name>3511</name>
</trkpt>
<trkpt lat="41.704893" lon="-0.628300">
<ele>471.5</ele>
<speed>28.9</speed>
<course>278.0</course>
<desc>Speed 28.9 km/h Distance 19.94 km</desc>
<time>2011-09-29T11:00:31.02</time>
<name>3512</name>
</trkpt>
<trkpt lat="41.704903" lon="-0.628395">
<ele>471.5</ele>
<speed>28.8</speed>
<course>278.0</course>
<desc>Speed 28.8 km/h Distance 19.95 km</desc>
<time>2011-09-29T11:00:32.66</time>
<name>3513</name>
</trkpt>
<trkpt lat="41.704933" lon="-0.628682">
<ele>471.5</ele>
<speed>29.0</speed>
<course>277.9</course>
<desc>Speed 29.0 km/h Distance 19.97 km</desc>
<time>2011-09-29T11:00:35.01</time>
<name>3514</name>
</trkpt>
<trkpt lat="41.704943" lon="-0.628778">
<ele>471.5</ele>
<speed>29.2</speed>
<course>277.9</course>
<desc>Speed 29.2 km/h Distance 19.98 km</desc>
<time>2011-09-29T11:00:36.01</time>
<name>3515</name>
</trkpt>
<trkpt lat="41.704953" lon="-0.628875">
<ele>471.5</ele>
<speed>29.2</speed>
<course>276.6</course>
<desc>Speed 29.2 km/h Distance 19.99 km</desc>
<time>2011-09-29T11:00:37.01</time>
<name>3516</name>
</trkpt>
<trkpt lat="41.704962" lon="-0.628972">
<ele>471.0</ele>
<speed>29.2</speed>
<course>279.3</course>
<desc>Speed 29.2 km/h Distance 20.00 km</desc>
<time>2011-09-29T11:00:38.01</time>
<name>3517</name>
</trkpt>
<trkpt lat="41.704973" lon="-0.629067">
<ele>471.0</ele>
<speed>29.2</speed>
<course>277.9</course>
<desc>Speed 29.2 km/h Distance 20.01 km</desc>
<time>2011-09-29T11:00:39.01</time>
<name>3518</name>
</trkpt>
<trkpt lat="41.704983" lon="-0.629163">
<ele>471.0</ele>
<speed>29.2</speed>
<course>277.9</course>
<desc>Speed 29.2 km/h Distance 20.01 km</desc>
<time>2011-09-29T11:00:40.01</time>
<name>3519</name>
</trkpt>
<trkpt lat="41.704993" lon="-0.629260">
<ele>471.0</ele>
<speed>29.2</speed>
<course>276.5</course>
<desc>Speed 29.2 km/h Distance 20.02 km</desc>
<time>2011-09-29T11:00:41.01</time>
<name>3520</name>
</trkpt>
<trkpt lat="41.705002" lon="-0.629358">
<ele>471.0</ele>
<speed>29.4</speed>
<course>277.8</course>
<desc>Speed 29.4 km/h Distance 20.03 km</desc>
<time>2011-09-29T11:00:42.43</time>
<name>3521</name>
</trkpt>
<trkpt lat="41.705022" lon="-0.629553">
<ele>471.0</ele>
<speed>29.6</speed>
<course>277.8</course>
<desc>Speed 29.6 km/h Distance 20.05 km</desc>
<time>2011-09-29T11:00:44.01</time>
<name>3522</name>
</trkpt>
<trkpt lat="41.705032" lon="-0.629652">
<ele>471.0</ele>
<speed>29.4</speed>
<course>276.6</course>
<desc>Speed 29.4 km/h Distance 20.05 km</desc>
<time>2011-09-29T11:00:45.01</time>
<name>3523</name>
</trkpt>
<trkpt lat="41.705040" lon="-0.629748">
<ele>470.5</ele>
<speed>29.3</speed>
<course>277.9</course>
<desc>Speed 29.3 km/h Distance 20.06 km</desc>
<time>2011-09-29T11:00:46.01</time>
<name>3524</name>
</trkpt>
<trkpt lat="41.705050" lon="-0.629845">
<ele>470.5</ele>
<speed>29.1</speed>
<course>276.7</course>
<desc>Speed 29.1 km/h Distance 20.07 km</desc>
<time>2011-09-29T11:00:47.01</time>
<name>3525</name>
</trkpt>
<trkpt lat="41.705058" lon="-0.629940">
<ele>470.5</ele>
<speed>28.9</speed>
<course>276.7</course>
<desc>Speed 28.9 km/h Distance 20.08 km</desc>
<time>2011-09-29T11:00:48.01</time>
<name>3526</name>
</trkpt>
<trkpt lat="41.705067" lon="-0.630035">
<ele>470.5</ele>
<speed>28.7</speed>
<course>276.8</course>
<desc>Speed 28.7 km/h Distance 20.09 km</desc>
<time>2011-09-29T11:00:49.37</time>
<name>3527</name>
</trkpt>
<trkpt lat="41.705083" lon="-0.630223">
<ele>470.5</ele>
<speed>28.3</speed>
<course>279.5</course>
<desc>Speed 28.3 km/h Distance 20.10 km</desc>
<time>2011-09-29T11:00:51.01</time>
<name>3528</name>
</trkpt>
<trkpt lat="41.705095" lon="-0.630317">
<ele>470.5</ele>
<speed>28.4</speed>
<course>278.0</course>
<desc>Speed 28.4 km/h Distance 20.11 km</desc>
<time>2011-09-29T11:00:52.17</time>
<name>3529</name>
</trkpt>
<trkpt lat="41.705105" lon="-0.630412">
<ele>470.5</ele>
<speed>28.4</speed>
<course>276.8</course>
<desc>Speed 28.4 km/h Distance 20.12 km</desc>
<time>2011-09-29T11:00:53.00</time>
<name>3530</name>
</trkpt>
<trkpt lat="41.705113" lon="-0.630505">
<ele>470.5</ele>
<speed>28.5</speed>
<course>277.9</course>
<desc>Speed 28.5 km/h Distance 20.13 km</desc>
<time>2011-09-29T11:00:54.00</time>
<name>3531</name>
</trkpt>
<trkpt lat="41.705123" lon="-0.630602">
<ele>470.5</ele>
<speed>28.7</speed>
<course>278.0</course>
<desc>Speed 28.7 km/h Distance 20.13 km</desc>
<time>2011-09-29T11:00:55.00</time>
<name>3532</name>
</trkpt>
<trkpt lat="41.705133" lon="-0.630697">
<ele>470.0</ele>
<speed>28.7</speed>
<course>279.3</course>
<desc>Speed 28.7 km/h Distance 20.14 km</desc>
<time>2011-09-29T11:00:56.00</time>
<name>3533</name>
</trkpt>
<trkpt lat="41.705145" lon="-0.630792">
<ele>470.0</ele>
<speed>28.8</speed>
<course>275.4</course>
<desc>Speed 28.8 km/h Distance 20.15 km</desc>
<time>2011-09-29T11:00:57.00</time>
<name>3534</name>
</trkpt>
<trkpt lat="41.705152" lon="-0.630887">
<ele>470.0</ele>
<speed>29.0</speed>
<course>276.5</course>
<desc>Speed 29.0 km/h Distance 20.16 km</desc>
<time>2011-09-29T11:00:58.00</time>
<name>3535</name>
</trkpt>
<trkpt lat="41.705160" lon="-0.630985">
<ele>470.0</ele>
<speed>29.2</speed>
<course>276.6</course>
<desc>Speed 29.2 km/h Distance 20.17 km</desc>
<time>2011-09-29T11:00:59.09</time>
<name>3536</name>
</trkpt>
<trkpt lat="41.705168" lon="-0.631082">
<ele>469.5</ele>
<speed>29.2</speed>
<course>277.9</course>
<desc>Speed 29.2 km/h Distance 20.17 km</desc>
<time>2011-09-29T11:01:00.00</time>
<name>3537</name>
</trkpt>
<trkpt lat="41.705178" lon="-0.631178">
<ele>469.5</ele>
<speed>29.4</speed>
<course>276.6</course>
<desc>Speed 29.4 km/h Distance 20.18 km</desc>
<time>2011-09-29T11:01:01.00</time>
<name>3538</name>
</trkpt>
<trkpt lat="41.705187" lon="-0.631275">
<ele>469.5</ele>
<speed>29.3</speed>
<course>276.6</course>
<desc>Speed 29.3 km/h Distance 20.19 km</desc>
<time>2011-09-29T11:01:02.00</time>
<name>3539</name>
</trkpt>
<trkpt lat="41.705195" lon="-0.631372">
<ele>469.5</ele>
<speed>28.9</speed>
<course>276.6</course>
<desc>Speed 28.9 km/h Distance 20.20 km</desc>
<time>2011-09-29T11:01:03.00</time>
<name>3540</name>
</trkpt>
<trkpt lat="41.705203" lon="-0.631468">
<ele>469.5</ele>
<speed>28.9</speed>
<course>278.0</course>
<desc>Speed 28.9 km/h Distance 20.21 km</desc>
<time>2011-09-29T11:01:03.99</time>
<name>3541</name>
</trkpt>
<trkpt lat="41.705213" lon="-0.631563">
<ele>469.5</ele>
<speed>28.8</speed>
<course>276.7</course>
<desc>Speed 28.8 km/h Distance 20.21 km</desc>
<time>2011-09-29T11:01:04.99</time>
<name>3542</name>
</trkpt>
<trkpt lat="41.705222" lon="-0.631658">
<ele>469.5</ele>
<speed>28.8</speed>
<course>278.0</course>
<desc>Speed 28.8 km/h Distance 20.22 km</desc>
<time>2011-09-29T11:01:06.00</time>
<name>3543</name>
</trkpt>
<trkpt lat="41.705232" lon="-0.631753">
<ele>469.5</ele>
<speed>28.8</speed>
<course>276.7</course>
<desc>Speed 28.8 km/h Distance 20.23 km</desc>
<time>2011-09-29T11:01:06.99</time>
<name>3544</name>
</trkpt>
<trkpt lat="41.705240" lon="-0.631848">
<ele>469.5</ele>
<speed>28.7</speed>
<course>278.0</course>
<desc>Speed 28.7 km/h Distance 20.24 km</desc>
<time>2011-09-29T11:01:07.99</time>
<name>3545</name>
</trkpt>
<trkpt lat="41.705250" lon="-0.631943">
<ele>469.5</ele>
<speed>28.8</speed>
<course>277.9</course>
<desc>Speed 28.8 km/h Distance 20.25 km</desc>
<time>2011-09-29T11:01:08.99</time>
<name>3546</name>
</trkpt>
<trkpt lat="41.705260" lon="-0.632040">
<ele>469.0</ele>
<speed>29.0</speed>
<course>276.5</course>
<desc>Speed 29.0 km/h Distance 20.25 km</desc>
<time>2011-09-29T11:01:09.99</time>
<name>3547</name>
</trkpt>
<trkpt lat="41.705268" lon="-0.632138">
<ele>469.0</ele>
<speed>29.4</speed>
<course>277.4</course>
<desc>Speed 29.4 km/h Distance 20.26 km</desc>
<time>2011-09-29T11:01:11.63</time>
<name>3548</name>
</trkpt>
<trkpt lat="41.705297" lon="-0.632430">
<ele>469.0</ele>
<speed>29.6</speed>
<course>277.8</course>
<desc>Speed 29.6 km/h Distance 20.29 km</desc>
<time>2011-09-29T11:01:13.99</time>
<name>3549</name>
</trkpt>
<trkpt lat="41.705307" lon="-0.632528">
<ele>469.0</ele>
<speed>29.5</speed>
<course>276.5</course>
<desc>Speed 29.5 km/h Distance 20.30 km</desc>
<time>2011-09-29T11:01:14.99</time>
<name>3550</name>
</trkpt>
<trkpt lat="41.705315" lon="-0.632627">
<ele>468.5</ele>
<speed>29.4</speed>
<course>277.9</course>
<desc>Speed 29.4 km/h Distance 20.30 km</desc>
<time>2011-09-29T11:01:15.99</time>
<name>3551</name>
</trkpt>
<trkpt lat="41.705325" lon="-0.632723">
<ele>468.5</ele>
<speed>29.3</speed>
<course>277.9</course>
<desc>Speed 29.3 km/h Distance 20.31 km</desc>
<time>2011-09-29T11:01:16.99</time>
<name>3552</name>
</trkpt>
<trkpt lat="41.705335" lon="-0.632820">
<ele>468.5</ele>
<speed>29.4</speed>
<course>277.8</course>
<desc>Speed 29.4 km/h Distance 20.32 km</desc>
<time>2011-09-29T11:01:17.99</time>
<name>3553</name>
</trkpt>
<trkpt lat="41.705345" lon="-0.632918">
<ele>468.5</ele>
<speed>29.6</speed>
<course>276.5</course>
<desc>Speed 29.6 km/h Distance 20.33 km</desc>
<time>2011-09-29T11:01:18.98</time>
<name>3554</name>
</trkpt>
<trkpt lat="41.705353" lon="-0.633017">
<ele>468.5</ele>
<speed>29.6</speed>
<course>277.9</course>
<desc>Speed 29.6 km/h Distance 20.34 km</desc>
<time>2011-09-29T11:01:19.98</time>
<name>3555</name>
</trkpt>
<trkpt lat="41.705363" lon="-0.633113">
<ele>468.0</ele>
<speed>29.4</speed>
<course>277.9</course>
<desc>Speed 29.4 km/h Distance 20.34 km</desc>
<time>2011-09-29T11:01:21.37</time>
<name>3556</name>
</trkpt>
<trkpt lat="41.705383" lon="-0.633307">
<ele>468.0</ele>
<speed>29.2</speed>
<course>277.9</course>
<desc>Speed 29.2 km/h Distance 20.36 km</desc>
<time>2011-09-29T11:01:22.98</time>
<name>3557</name>
</trkpt>
<trkpt lat="41.705393" lon="-0.633403">
<ele>468.0</ele>
<speed>29.2</speed>
<course>277.8</course>
<desc>Speed 29.2 km/h Distance 20.37 km</desc>
<time>2011-09-29T11:01:23.98</time>
<name>3558</name>
</trkpt>
<trkpt lat="41.705403" lon="-0.633502">
<ele>468.0</ele>
<speed>29.4</speed>
<course>276.6</course>
<desc>Speed 29.4 km/h Distance 20.38 km</desc>
<time>2011-09-29T11:01:24.98</time>
<name>3559</name>
</trkpt>
<trkpt lat="41.705412" lon="-0.633598">
<ele>467.5</ele>
<speed>29.5</speed>
<course>277.9</course>
<desc>Speed 29.5 km/h Distance 20.39 km</desc>
<time>2011-09-29T11:01:25.98</time>
<name>3560</name>
</trkpt>
<trkpt lat="41.705422" lon="-0.633695">
<ele>467.5</ele>
<speed>29.3</speed>
<course>276.5</course>
<desc>Speed 29.3 km/h Distance 20.39 km</desc>
<time>2011-09-29T11:01:26.98</time>
<name>3561</name>
</trkpt>
<trkpt lat="41.705430" lon="-0.633793">
<ele>467.5</ele>
<speed>29.2</speed>
<course>277.2</course>
<desc>Speed 29.2 km/h Distance 20.40 km</desc>
<time>2011-09-29T11:01:28.31</time>
<name>3562</name>
</trkpt>
<trkpt lat="41.705448" lon="-0.633987">
<ele>467.5</ele>
<speed>29.2</speed>
<course>279.3</course>
<desc>Speed 29.2 km/h Distance 20.42 km</desc>
<time>2011-09-29T11:01:29.98</time>
<name>3563</name>
</trkpt>
<trkpt lat="41.705460" lon="-0.634082">
<ele>467.5</ele>
<speed>29.2</speed>
<course>276.5</course>
<desc>Speed 29.2 km/h Distance 20.43 km</desc>
<time>2011-09-29T11:01:31.11</time>
<name>3564</name>
</trkpt>
<trkpt lat="41.705468" lon="-0.634180">
<ele>467.5</ele>
<speed>29.3</speed>
<course>276.6</course>
<desc>Speed 29.3 km/h Distance 20.43 km</desc>
<time>2011-09-29T11:01:31.98</time>
<name>3565</name>
</trkpt>
<trkpt lat="41.705477" lon="-0.634277">
<ele>467.5</ele>
<speed>29.2</speed>
<course>276.6</course>
<desc>Speed 29.2 km/h Distance 20.44 km</desc>
<time>2011-09-29T11:01:32.98</time>
<name>3566</name>
</trkpt>
<trkpt lat="41.705485" lon="-0.634373">
<ele>467.5</ele>
<speed>29.1</speed>
<course>277.9</course>
<desc>Speed 29.1 km/h Distance 20.45 km</desc>
<time>2011-09-29T11:01:33.97</time>
<name>3567</name>
</trkpt>
<trkpt lat="41.705495" lon="-0.634470">
<ele>467.5</ele>
<speed>29.0</speed>
<course>276.5</course>
<desc>Speed 29.0 km/h Distance 20.46 km</desc>
<time>2011-09-29T11:01:34.97</time>
<name>3568</name>
</trkpt>
<trkpt lat="41.705503" lon="-0.634568">
<ele>467.5</ele>
<speed>29.3</speed>
<course>277.9</course>
<desc>Speed 29.3 km/h Distance 20.47 km</desc>
<time>2011-09-29T11:01:35.98</time>
<name>3569</name>
</trkpt>
<trkpt lat="41.705513" lon="-0.634665">
<ele>467.5</ele>
<speed>29.4</speed>
<course>277.8</course>
<desc>Speed 29.4 km/h Distance 20.47 km</desc>
<time>2011-09-29T11:01:36.97</time>
<name>3570</name>
</trkpt>
<trkpt lat="41.705523" lon="-0.634763">
<ele>467.5</ele>
<speed>29.6</speed>
<course>277.6</course>
<desc>Speed 29.6 km/h Distance 20.48 km</desc>
<time>2011-09-29T11:01:38.05</time>
<name>3571</name>
</trkpt>
<trkpt lat="41.705533" lon="-0.634863">
<ele>467.5</ele>
<speed>29.8</speed>
<course>276.5</course>
<desc>Speed 29.8 km/h Distance 20.49 km</desc>
<time>2011-09-29T11:01:38.97</time>
<name>3572</name>
</trkpt>
<trkpt lat="41.705542" lon="-0.634962">
<ele>467.5</ele>
<speed>29.9</speed>
<course>277.6</course>
<desc>Speed 29.9 km/h Distance 20.50 km</desc>
<time>2011-09-29T11:01:39.97</time>
<name>3573</name>
</trkpt>
<trkpt lat="41.705552" lon="-0.635062">
<ele>467.5</ele>
<speed>30.0</speed>
<course>276.5</course>
<desc>Speed 30.0 km/h Distance 20.51 km</desc>
<time>2011-09-29T11:01:40.97</time>
<name>3574</name>
</trkpt>
<trkpt lat="41.705560" lon="-0.635160">
<ele>467.5</ele>
<speed>29.8</speed>
<course>276.4</course>
<desc>Speed 29.8 km/h Distance 20.52 km</desc>
<time>2011-09-29T11:01:41.97</time>
<name>3575</name>
</trkpt>
<trkpt lat="41.705568" lon="-0.635260">
<ele>467.5</ele>
<speed>30.0</speed>
<course>277.6</course>
<desc>Speed 30.0 km/h Distance 20.52 km</desc>
<time>2011-09-29T11:01:42.97</time>
<name>3576</name>
</trkpt>
<trkpt lat="41.705578" lon="-0.635360">
<ele>467.5</ele>
<speed>30.1</speed>
<course>277.6</course>
<desc>Speed 30.1 km/h Distance 20.53 km</desc>
<time>2011-09-29T11:01:43.97</time>
<name>3577</name>
</trkpt>
<trkpt lat="41.705588" lon="-0.635460">
<ele>467.5</ele>
<speed>29.9</speed>
<course>276.5</course>
<desc>Speed 29.9 km/h Distance 20.54 km</desc>
<time>2011-09-29T11:01:44.97</time>
<name>3578</name>
</trkpt>
<trkpt lat="41.705597" lon="-0.635558">
<ele>467.5</ele>
<speed>29.7</speed>
<course>277.8</course>
<desc>Speed 29.7 km/h Distance 20.55 km</desc>
<time>2011-09-29T11:01:45.97</time>
<name>3579</name>
</trkpt>
<trkpt lat="41.705607" lon="-0.635657">
<ele>467.5</ele>
<speed>29.6</speed>
<course>277.8</course>
<desc>Speed 29.6 km/h Distance 20.56 km</desc>
<time>2011-09-29T11:01:46.97</time>
<name>3580</name>
</trkpt>
<trkpt lat="41.705617" lon="-0.635755">
<ele>467.5</ele>
<speed>29.7</speed>
<course>276.5</course>
<desc>Speed 29.7 km/h Distance 20.57 km</desc>
<time>2011-09-29T11:01:47.97</time>
<name>3581</name>
</trkpt>
<trkpt lat="41.705625" lon="-0.635853">
<ele>467.5</ele>
<speed>29.6</speed>
<course>276.5</course>
<desc>Speed 29.6 km/h Distance 20.57 km</desc>
<time>2011-09-29T11:01:48.96</time>
<name>3582</name>
</trkpt>
<trkpt lat="41.705633" lon="-0.635952">
<ele>467.5</ele>
<speed>29.7</speed>
<course>277.8</course>
<desc>Speed 29.7 km/h Distance 20.58 km</desc>
<time>2011-09-29T11:01:50.11</time>
<name>3583</name>
</trkpt>
<trkpt lat="41.705643" lon="-0.636050">
<ele>467.5</ele>
<speed>29.8</speed>
<course>277.8</course>
<desc>Speed 29.8 km/h Distance 20.59 km</desc>
<time>2011-09-29T11:01:50.98</time>
<name>3584</name>
</trkpt>
<trkpt lat="41.705653" lon="-0.636148">
<ele>467.5</ele>
<speed>29.6</speed>
<course>277.6</course>
<desc>Speed 29.6 km/h Distance 20.60 km</desc>
<time>2011-09-29T11:01:51.96</time>
<name>3585</name>
</trkpt>
<trkpt lat="41.705663" lon="-0.636248">
<ele>467.5</ele>
<speed>29.9</speed>
<course>276.4</course>
<desc>Speed 29.9 km/h Distance 20.61 km</desc>
<time>2011-09-29T11:01:52.96</time>
<name>3586</name>
</trkpt>
<trkpt lat="41.705672" lon="-0.636348">
<ele>467.0</ele>
<speed>30.2</speed>
<course>277.6</course>
<desc>Speed 30.2 km/h Distance 20.62 km</desc>
<time>2011-09-29T11:01:53.96</time>
<name>3587</name>
</trkpt>
<trkpt lat="41.705682" lon="-0.636448">
<ele>467.0</ele>
<speed>30.1</speed>
<course>277.6</course>
<desc>Speed 30.1 km/h Distance 20.62 km</desc>
<time>2011-09-29T11:01:54.96</time>
<name>3588</name>
</trkpt>
<trkpt lat="41.705692" lon="-0.636548">
<ele>467.0</ele>
<speed>30.1</speed>
<course>277.8</course>
<desc>Speed 30.1 km/h Distance 20.63 km</desc>
<time>2011-09-29T11:01:55.96</time>
<name>3589</name>
</trkpt>
<trkpt lat="41.705702" lon="-0.636647">
<ele>467.0</ele>
<speed>30.2</speed>
<course>277.6</course>
<desc>Speed 30.2 km/h Distance 20.64 km</desc>
<time>2011-09-29T11:01:56.96</time>
<name>3590</name>
</trkpt>
<trkpt lat="41.705712" lon="-0.636747">
<ele>467.0</ele>
<speed>30.2</speed>
<course>277.6</course>
<desc>Speed 30.2 km/h Distance 20.65 km</desc>
<time>2011-09-29T11:01:57.95</time>
<name>3591</name>
</trkpt>
<trkpt lat="41.705722" lon="-0.636847">
<ele>466.5</ele>
<speed>30.0</speed>
<course>277.8</course>
<desc>Speed 30.0 km/h Distance 20.66 km</desc>
<time>2011-09-29T11:01:58.95</time>
<name>3592</name>
</trkpt>
<trkpt lat="41.705752" lon="-0.637142">
<ele>466.0</ele>
<speed>29.8</speed>
<course>277.5</course>
<desc>Speed 29.8 km/h Distance 20.68 km</desc>
<time>2011-09-29T11:02:01.95</time>
<name>3593</name>
</trkpt>
<trkpt lat="41.705762" lon="-0.637243">
<ele>466.0</ele>
<speed>30.3</speed>
<course>278.9</course>
<desc>Speed 30.3 km/h Distance 20.69 km</desc>
<time>2011-09-29T11:02:02.95</time>
<name>3594</name>
</trkpt>
<trkpt lat="41.705773" lon="-0.637343">
<ele>466.0</ele>
<speed>30.3</speed>
<course>276.3</course>
<desc>Speed 30.3 km/h Distance 20.70 km</desc>
<time>2011-09-29T11:02:03.95</time>
<name>3595</name>
</trkpt>
<trkpt lat="41.705782" lon="-0.637445">
<ele>466.0</ele>
<speed>30.5</speed>
<course>277.6</course>
<desc>Speed 30.5 km/h Distance 20.71 km</desc>
<time>2011-09-29T11:02:04.95</time>
<name>3596</name>
</trkpt>
<trkpt lat="41.705792" lon="-0.637545">
<ele>466.0</ele>
<speed>30.2</speed>
<course>277.8</course>
<desc>Speed 30.2 km/h Distance 20.72 km</desc>
<time>2011-09-29T11:02:05.95</time>
<name>3597</name>
</trkpt>
<trkpt lat="41.705802" lon="-0.637643">
<ele>466.0</ele>
<speed>29.8</speed>
<course>277.9</course>
<desc>Speed 29.8 km/h Distance 20.72 km</desc>
<time>2011-09-29T11:02:06.95</time>
<name>3598</name>
</trkpt>
<trkpt lat="41.705812" lon="-0.637740">
<ele>466.0</ele>
<speed>29.6</speed>
<course>279.2</course>
<desc>Speed 29.6 km/h Distance 20.73 km</desc>
<time>2011-09-29T11:02:07.95</time>
<name>3599</name>
</trkpt>
<trkpt lat="41.705823" lon="-0.637837">
<ele>466.0</ele>
<speed>29.2</speed>
<course>275.2</course>
<desc>Speed 29.2 km/h Distance 20.74 km</desc>
<time>2011-09-29T11:02:08.95</time>
<name>3600</name>
</trkpt>
<trkpt lat="41.705830" lon="-0.637935">
<ele>466.0</ele>
<speed>29.2</speed>
<course>277.1</course>
<desc>Speed 29.2 km/h Distance 20.75 km</desc>
<time>2011-09-29T11:02:10.49</time>
<name>3601</name>
</trkpt>
<trkpt lat="41.705857" lon="-0.638223">
<ele>466.0</ele>
<speed>28.8</speed>
<course>278.2</course>
<desc>Speed 28.8 km/h Distance 20.77 km</desc>
<time>2011-09-29T11:02:12.94</time>
<name>3602</name>
</trkpt>
<trkpt lat="41.705867" lon="-0.638317">
<ele>466.0</ele>
<speed>28.5</speed>
<course>275.5</course>
<desc>Speed 28.5 km/h Distance 20.78 km</desc>
<time>2011-09-29T11:02:13.94</time>
<name>3603</name>
</trkpt>
<trkpt lat="41.705873" lon="-0.638410">
<ele>466.5</ele>
<speed>27.9</speed>
<course>278.3</course>
<desc>Speed 27.9 km/h Distance 20.79 km</desc>
<time>2011-09-29T11:02:14.95</time>
<name>3604</name>
</trkpt>
<trkpt lat="41.705883" lon="-0.638502">
<ele>466.5</ele>
<speed>27.6</speed>
<course>278.5</course>
<desc>Speed 27.6 km/h Distance 20.80 km</desc>
<time>2011-09-29T11:02:15.94</time>
<name>3605</name>
</trkpt>
<trkpt lat="41.705893" lon="-0.638592">
<ele>466.5</ele>
<speed>27.3</speed>
<course>277.1</course>
<desc>Speed 27.3 km/h Distance 20.80 km</desc>
<time>2011-09-29T11:02:16.94</time>
<name>3606</name>
</trkpt>
<trkpt lat="41.705902" lon="-0.638682">
<ele>466.5</ele>
<speed>27.1</speed>
<course>277.2</course>
<desc>Speed 27.1 km/h Distance 20.81 km</desc>
<time>2011-09-29T11:02:17.94</time>
<name>3607</name>
</trkpt>
<trkpt lat="41.705910" lon="-0.638770">
<ele>466.5</ele>
<speed>27.0</speed>
<course>277.2</course>
<desc>Speed 27.0 km/h Distance 20.82 km</desc>
<time>2011-09-29T11:02:18.94</time>
<name>3608</name>
</trkpt>
<trkpt lat="41.705918" lon="-0.638858">
<ele>466.5</ele>
<speed>26.7</speed>
<course>278.5</course>
<desc>Speed 26.7 km/h Distance 20.83 km</desc>
<time>2011-09-29T11:02:20.22</time>
<name>3609</name>
</trkpt>
<trkpt lat="41.705938" lon="-0.639037">
<ele>466.5</ele>
<speed>27.1</speed>
<course>275.6</course>
<desc>Speed 27.1 km/h Distance 20.84 km</desc>
<time>2011-09-29T11:02:21.94</time>
<name>3610</name>
</trkpt>
<trkpt lat="41.705945" lon="-0.639128">
<ele>466.5</ele>
<speed>27.7</speed>
<course>276.8</course>
<desc>Speed 27.7 km/h Distance 20.85 km</desc>
<time>2011-09-29T11:02:22.94</time>
<name>3611</name>
</trkpt>
<trkpt lat="41.705953" lon="-0.639222">
<ele>466.5</ele>
<speed>28.1</speed>
<course>278.0</course>
<desc>Speed 28.1 km/h Distance 20.86 km</desc>
<time>2011-09-29T11:02:23.94</time>
<name>3612</name>
</trkpt>
<trkpt lat="41.705963" lon="-0.639317">
<ele>466.5</ele>
<speed>28.4</speed>
<course>276.7</course>
<desc>Speed 28.4 km/h Distance 20.86 km</desc>
<time>2011-09-29T11:02:24.94</time>
<name>3613</name>
</trkpt>
<trkpt lat="41.705972" lon="-0.639412">
<ele>466.5</ele>
<speed>28.7</speed>
<course>276.6</course>
<desc>Speed 28.7 km/h Distance 20.87 km</desc>
<time>2011-09-29T11:02:25.93</time>
<name>3614</name>
</trkpt>
<trkpt lat="41.705980" lon="-0.639508">
<ele>466.5</ele>
<speed>29.2</speed>
<course>277.9</course>
<desc>Speed 29.2 km/h Distance 20.88 km</desc>
<time>2011-09-29T11:02:27.17</time>
<name>3615</name>
</trkpt>
<trkpt lat="41.706000" lon="-0.639702">
<ele>466.5</ele>
<speed>29.1</speed>
<course>277.9</course>
<desc>Speed 29.1 km/h Distance 20.90 km</desc>
<time>2011-09-29T11:02:28.93</time>
<name>3616</name>
</trkpt>
<trkpt lat="41.706010" lon="-0.639798">
<ele>466.5</ele>
<speed>29.2</speed>
<course>277.9</course>
<desc>Speed 29.2 km/h Distance 20.91 km</desc>
<time>2011-09-29T11:02:29.97</time>
<name>3617</name>
</trkpt>
<trkpt lat="41.706020" lon="-0.639895">
<ele>466.5</ele>
<speed>29.2</speed>
<course>276.5</course>
<desc>Speed 29.2 km/h Distance 20.91 km</desc>
<time>2011-09-29T11:02:30.93</time>
<name>3618</name>
</trkpt>
<trkpt lat="41.706028" lon="-0.639993">
<ele>466.0</ele>
<speed>29.4</speed>
<course>277.9</course>
<desc>Speed 29.4 km/h Distance 20.92 km</desc>
<time>2011-09-29T11:02:31.93</time>
<name>3619</name>
</trkpt>
<trkpt lat="41.706038" lon="-0.640090">
<ele>466.0</ele>
<speed>29.4</speed>
<course>276.5</course>
<desc>Speed 29.4 km/h Distance 20.93 km</desc>
<time>2011-09-29T11:02:32.93</time>
<name>3620</name>
</trkpt>
<trkpt lat="41.706047" lon="-0.640188">
<ele>466.0</ele>
<speed>29.7</speed>
<course>277.8</course>
<desc>Speed 29.7 km/h Distance 20.94 km</desc>
<time>2011-09-29T11:02:33.93</time>
<name>3621</name>
</trkpt>
<trkpt lat="41.706057" lon="-0.640287">
<ele>466.0</ele>
<speed>29.8</speed>
<course>277.6</course>
<desc>Speed 29.8 km/h Distance 20.95 km</desc>
<time>2011-09-29T11:02:34.93</time>
<name>3622</name>
</trkpt>
<trkpt lat="41.706067" lon="-0.640387">
<ele>466.0</ele>
<speed>30.0</speed>
<course>277.8</course>
<desc>Speed 30.0 km/h Distance 20.95 km</desc>
<time>2011-09-29T11:02:35.93</time>
<name>3623</name>
</trkpt>
<trkpt lat="41.706077" lon="-0.640485">
<ele>466.0</ele>
<speed>29.9</speed>
<course>276.4</course>
<desc>Speed 29.9 km/h Distance 20.96 km</desc>
<time>2011-09-29T11:02:36.93</time>
<name>3624</name>
</trkpt>
<trkpt lat="41.706085" lon="-0.640585">
<ele>466.0</ele>
<speed>29.8</speed>
<course>277.8</course>
<desc>Speed 29.8 km/h Distance 20.97 km</desc>
<time>2011-09-29T11:02:37.93</time>
<name>3625</name>
</trkpt>
<trkpt lat="41.706115" lon="-0.640878">
<ele>466.0</ele>
<speed>29.5</speed>
<course>277.8</course>
<desc>Speed 29.5 km/h Distance 21.00 km</desc>
<time>2011-09-29T11:02:40.93</time>
<name>3626</name>
</trkpt>
<trkpt lat="41.706125" lon="-0.640977">
<ele>466.0</ele>
<speed>29.6</speed>
<course>277.8</course>
<desc>Speed 29.6 km/h Distance 21.00 km</desc>
<time>2011-09-29T11:02:41.93</time>
<name>3627</name>
</trkpt>
<trkpt lat="41.706135" lon="-0.641075">
<ele>466.0</ele>
<speed>29.9</speed>
<course>276.4</course>
<desc>Speed 29.9 km/h Distance 21.01 km</desc>
<time>2011-09-29T11:02:42.93</time>
<name>3628</name>
</trkpt>
<trkpt lat="41.706143" lon="-0.641175">
<ele>466.0</ele>
<speed>29.8</speed>
<course>277.8</course>
<desc>Speed 29.8 km/h Distance 21.02 km</desc>
<time>2011-09-29T11:02:43.94</time>
<name>3629</name>
</trkpt>
<trkpt lat="41.706153" lon="-0.641273">
<ele>466.0</ele>
<speed>29.8</speed>
<course>277.8</course>
<desc>Speed 29.8 km/h Distance 21.03 km</desc>
<time>2011-09-29T11:02:44.95</time>
<name>3630</name>
</trkpt>
<trkpt lat="41.706163" lon="-0.641372">
<ele>466.0</ele>
<speed>29.9</speed>
<course>277.8</course>
<desc>Speed 29.9 km/h Distance 21.04 km</desc>
<time>2011-09-29T11:02:45.92</time>
<name>3631</name>
</trkpt>
<trkpt lat="41.706173" lon="-0.641470">
<ele>466.0</ele>
<speed>29.6</speed>
<course>276.6</course>
<desc>Speed 29.6 km/h Distance 21.05 km</desc>
<time>2011-09-29T11:02:46.92</time>
<name>3632</name>
</trkpt>
<trkpt lat="41.706182" lon="-0.641567">
<ele>466.0</ele>
<speed>29.4</speed>
<course>277.9</course>
<desc>Speed 29.4 km/h Distance 21.05 km</desc>
<time>2011-09-29T11:02:47.92</time>
<name>3633</name>
</trkpt>
<trkpt lat="41.706192" lon="-0.641663">
<ele>466.0</ele>
<speed>29.1</speed>
<course>277.5</course>
<desc>Speed 29.1 km/h Distance 21.06 km</desc>
<time>2011-09-29T11:02:49.48</time>
<name>3634</name>
</trkpt>
<trkpt lat="41.706220" lon="-0.641952">
<ele>466.0</ele>
<speed>29.0</speed>
<course>278.0</course>
<desc>Speed 29.0 km/h Distance 21.09 km</desc>
<time>2011-09-29T11:02:51.91</time>
<name>3635</name>
</trkpt>
<trkpt lat="41.706230" lon="-0.642047">
<ele>466.0</ele>
<speed>28.9</speed>
<course>277.9</course>
<desc>Speed 28.9 km/h Distance 21.09 km</desc>
<time>2011-09-29T11:02:52.91</time>
<name>3636</name>
</trkpt>
<trkpt lat="41.706240" lon="-0.642143">
<ele>466.0</ele>
<speed>29.1</speed>
<course>278.0</course>
<desc>Speed 29.1 km/h Distance 21.10 km</desc>
<time>2011-09-29T11:02:53.91</time>
<name>3637</name>
</trkpt>
<trkpt lat="41.706250" lon="-0.642238">
<ele>466.0</ele>
<speed>28.9</speed>
<course>279.2</course>
<desc>Speed 28.9 km/h Distance 21.11 km</desc>
<time>2011-09-29T11:02:54.91</time>
<name>3638</name>
</trkpt>
<trkpt lat="41.706262" lon="-0.642335">
<ele>466.0</ele>
<speed>28.8</speed>
<course>276.7</course>
<desc>Speed 28.8 km/h Distance 21.12 km</desc>
<time>2011-09-29T11:02:55.91</time>
<name>3639</name>
</trkpt>
<trkpt lat="41.706270" lon="-0.642430">
<ele>466.0</ele>
<speed>28.7</speed>
<course>275.4</course>
<desc>Speed 28.7 km/h Distance 21.13 km</desc>
<time>2011-09-29T11:02:56.91</time>
<name>3640</name>
</trkpt>
<trkpt lat="41.706277" lon="-0.642525">
<ele>466.0</ele>
<speed>28.7</speed>
<course>276.7</course>
<desc>Speed 28.7 km/h Distance 21.13 km</desc>
<time>2011-09-29T11:02:57.91</time>
<name>3641</name>
</trkpt>
<trkpt lat="41.706285" lon="-0.642620">
<ele>466.0</ele>
<speed>28.9</speed>
<course>278.0</course>
<desc>Speed 28.9 km/h Distance 21.14 km</desc>
<time>2011-09-29T11:02:59.19</time>
<name>3642</name>
</trkpt>
<trkpt lat="41.706305" lon="-0.642812">
<ele>466.0</ele>
<speed>28.8</speed>
<course>276.6</course>
<desc>Speed 28.8 km/h Distance 21.16 km</desc>
<time>2011-09-29T11:03:00.91</time>
<name>3643</name>
</trkpt>
<trkpt lat="41.706313" lon="-0.642908">
<ele>465.5</ele>
<speed>28.9</speed>
<course>278.2</course>
<desc>Speed 28.9 km/h Distance 21.17 km</desc>
<time>2011-09-29T11:03:01.91</time>
<name>3644</name>
</trkpt>
<trkpt lat="41.706323" lon="-0.643002">
<ele>466.0</ele>
<speed>28.6</speed>
<course>276.8</course>
<desc>Speed 28.6 km/h Distance 21.17 km</desc>
<time>2011-09-29T11:03:02.91</time>
<name>3645</name>
</trkpt>
<trkpt lat="41.706332" lon="-0.643095">
<ele>466.0</ele>
<speed>28.3</speed>
<course>276.8</course>
<desc>Speed 28.3 km/h Distance 21.18 km</desc>
<time>2011-09-29T11:03:03.90</time>
<name>3646</name>
</trkpt>
<trkpt lat="41.706340" lon="-0.643188">
<ele>466.0</ele>
<speed>28.2</speed>
<course>276.8</course>
<desc>Speed 28.2 km/h Distance 21.19 km</desc>
<time>2011-09-29T11:03:04.90</time>
<name>3647</name>
</trkpt>
<trkpt lat="41.706348" lon="-0.643282">
<ele>466.0</ele>
<speed>28.1</speed>
<course>277.0</course>
<desc>Speed 28.1 km/h Distance 21.20 km</desc>
<time>2011-09-29T11:03:06.12</time>
<name>3648</name>
</trkpt>
<trkpt lat="41.706365" lon="-0.643463">
<ele>466.0</ele>
<speed>27.2</speed>
<course>280.0</course>
<desc>Speed 27.2 km/h Distance 21.21 km</desc>
<time>2011-09-29T11:03:07.90</time>
<name>3649</name>
</trkpt>
<trkpt lat="41.706377" lon="-0.643552">
<ele>466.0</ele>
<speed>26.7</speed>
<course>277.3</course>
<desc>Speed 26.7 km/h Distance 21.22 km</desc>
<time>2011-09-29T11:03:08.94</time>
<name>3650</name>
</trkpt>
<trkpt lat="41.706385" lon="-0.643638">
<ele>466.0</ele>
<speed>26.5</speed>
<course>279.0</course>
<desc>Speed 26.5 km/h Distance 21.23 km</desc>
<time>2011-09-29T11:03:09.90</time>
<name>3651</name>
</trkpt>
<trkpt lat="41.706395" lon="-0.643723">
<ele>466.5</ele>
<speed>25.9</speed>
<course>276.0</course>
<desc>Speed 25.9 km/h Distance 21.23 km</desc>
<time>2011-09-29T11:03:10.90</time>
<name>3652</name>
</trkpt>
<trkpt lat="41.706402" lon="-0.643808">
<ele>466.5</ele>
<speed>25.6</speed>
<course>277.5</course>
<desc>Speed 25.6 km/h Distance 21.24 km</desc>
<time>2011-09-29T11:03:11.90</time>
<name>3653</name>
</trkpt>
<trkpt lat="41.706410" lon="-0.643893">
<ele>466.5</ele>
<speed>25.7</speed>
<course>276.0</course>
<desc>Speed 25.7 km/h Distance 21.25 km</desc>
<time>2011-09-29T11:03:12.90</time>
<name>3654</name>
</trkpt>
<trkpt lat="41.706417" lon="-0.643978">
<ele>466.5</ele>
<speed>25.7</speed>
<course>274.6</course>
<desc>Speed 25.7 km/h Distance 21.26 km</desc>
<time>2011-09-29T11:03:13.90</time>
<name>3655</name>
</trkpt>
<trkpt lat="41.706422" lon="-0.644062">
<ele>467.0</ele>
<speed>25.4</speed>
<course>277.6</course>
<desc>Speed 25.4 km/h Distance 21.26 km</desc>
<time>2011-09-29T11:03:14.90</time>
<name>3656</name>
</trkpt>
<trkpt lat="41.706430" lon="-0.644145">
<ele>467.0</ele>
<speed>25.1</speed>
<course>277.6</course>
<desc>Speed 25.1 km/h Distance 21.27 km</desc>
<time>2011-09-29T11:03:15.90</time>
<name>3657</name>
</trkpt>
<trkpt lat="41.706438" lon="-0.644228">
<ele>467.5</ele>
<speed>25.0</speed>
<course>279.5</course>
<desc>Speed 25.0 km/h Distance 21.28 km</desc>
<time>2011-09-29T11:03:16.90</time>
<name>3658</name>
</trkpt>
<trkpt lat="41.706448" lon="-0.644308">
<ele>467.5</ele>
<speed>24.4</speed>
<course>277.2</course>
<desc>Speed 24.4 km/h Distance 21.28 km</desc>
<time>2011-09-29T11:03:18.65</time>
<name>3659</name>
</trkpt>
<trkpt lat="41.706470" lon="-0.644538">
<ele>468.5</ele>
<speed>23.3</speed>
<course>276.6</course>
<desc>Speed 23.3 km/h Distance 21.30 km</desc>
<time>2011-09-29T11:03:20.89</time>
<name>3660</name>
</trkpt>
<trkpt lat="41.706477" lon="-0.644615">
<ele>469.0</ele>
<speed>23.3</speed>
<course>278.1</course>
<desc>Speed 23.3 km/h Distance 21.31 km</desc>
<time>2011-09-29T11:03:21.89</time>
<name>3661</name>
</trkpt>
<trkpt lat="41.706485" lon="-0.644693">
<ele>469.0</ele>
<speed>23.4</speed>
<course>278.5</course>
<desc>Speed 23.4 km/h Distance 21.32 km</desc>
<time>2011-09-29T11:03:22.89</time>
<name>3662</name>
</trkpt>
<trkpt lat="41.706493" lon="-0.644768">
<ele>469.5</ele>
<speed>22.9</speed>
<course>278.7</course>
<desc>Speed 22.9 km/h Distance 21.32 km</desc>
<time>2011-09-29T11:03:23.89</time>
<name>3663</name>
</trkpt>
<trkpt lat="41.706502" lon="-0.644842">
<ele>470.0</ele>
<speed>22.0</speed>
<course>275.6</course>
<desc>Speed 22.0 km/h Distance 21.33 km</desc>
<time>2011-09-29T11:03:24.89</time>
<name>3664</name>
</trkpt>
<trkpt lat="41.706507" lon="-0.644910">
<ele>470.0</ele>
<speed>21.1</speed>
<course>277.1</course>
<desc>Speed 21.1 km/h Distance 21.33 km</desc>
<time>2011-09-29T11:03:25.89</time>
<name>3665</name>
</trkpt>
<trkpt lat="41.706513" lon="-0.644982">
<ele>470.0</ele>
<speed>21.6</speed>
<course>278.7</course>
<desc>Speed 21.6 km/h Distance 21.34 km</desc>
<time>2011-09-29T11:03:26.89</time>
<name>3666</name>
</trkpt>
<trkpt lat="41.706522" lon="-0.645055">
<ele>470.5</ele>
<speed>22.0</speed>
<course>276.6</course>
<desc>Speed 22.0 km/h Distance 21.35 km</desc>
<time>2011-09-29T11:03:28.39</time>
<name>3667</name>
</trkpt>
<trkpt lat="41.706535" lon="-0.645208">
<ele>471.0</ele>
<speed>23.9</speed>
<course>277.9</course>
<desc>Speed 23.9 km/h Distance 21.36 km</desc>
<time>2011-09-29T11:03:29.89</time>
<name>3668</name>
</trkpt>
<trkpt lat="41.706543" lon="-0.645288">
<ele>471.5</ele>
<speed>24.0</speed>
<course>276.5</course>
<desc>Speed 24.0 km/h Distance 21.37 km</desc>
<time>2011-09-29T11:03:30.89</time>
<name>3669</name>
</trkpt>
<trkpt lat="41.706550" lon="-0.645367">
<ele>471.5</ele>
<speed>23.8</speed>
<course>279.7</course>
<desc>Speed 23.8 km/h Distance 21.37 km</desc>
<time>2011-09-29T11:03:31.89</time>
<name>3670</name>
</trkpt>
<trkpt lat="41.706560" lon="-0.645445">
<ele>472.0</ele>
<speed>23.4</speed>
<course>278.5</course>
<desc>Speed 23.4 km/h Distance 21.38 km</desc>
<time>2011-09-29T11:03:32.89</time>
<name>3671</name>
</trkpt>
<trkpt lat="41.706568" lon="-0.645520">
<ele>472.0</ele>
<speed>23.1</speed>
<course>276.6</course>
<desc>Speed 23.1 km/h Distance 21.38 km</desc>
<time>2011-09-29T11:03:33.88</time>
<name>3672</name>
</trkpt>
<trkpt lat="41.706575" lon="-0.645597">
<ele>472.5</ele>
<speed>22.6</speed>
<course>275.1</course>
<desc>Speed 22.6 km/h Distance 21.39 km</desc>
<time>2011-09-29T11:03:34.88</time>
<name>3673</name>
</trkpt>
<trkpt lat="41.706580" lon="-0.645672">
<ele>472.5</ele>
<speed>22.8</speed>
<course>276.6</course>
<desc>Speed 22.8 km/h Distance 21.40 km</desc>
<time>2011-09-29T11:03:35.88</time>
<name>3674</name>
</trkpt>
<trkpt lat="41.706587" lon="-0.645748">
<ele>473.0</ele>
<speed>22.8</speed>
<course>276.8</course>
<desc>Speed 22.8 km/h Distance 21.40 km</desc>
<time>2011-09-29T11:03:36.88</time>
<name>3675</name>
</trkpt>
<trkpt lat="41.706593" lon="-0.645823">
<ele>473.0</ele>
<speed>22.8</speed>
<course>279.2</course>
<desc>Speed 22.8 km/h Distance 21.41 km</desc>
<time>2011-09-29T11:03:38.11</time>
<name>3676</name>
</trkpt>
<trkpt lat="41.706612" lon="-0.645975">
<ele>473.0</ele>
<speed>23.2</speed>
<course>276.5</course>
<desc>Speed 23.2 km/h Distance 21.42 km</desc>
<time>2011-09-29T11:03:39.88</time>
<name>3677</name>
</trkpt>
<trkpt lat="41.706618" lon="-0.646053">
<ele>473.5</ele>
<speed>23.3</speed>
<course>278.3</course>
<desc>Speed 23.3 km/h Distance 21.43 km</desc>
<time>2011-09-29T11:03:40.88</time>
<name>3678</name>
</trkpt>
<trkpt lat="41.706627" lon="-0.646130">
<ele>473.5</ele>
<speed>23.4</speed>
<course>276.4</course>
<desc>Speed 23.4 km/h Distance 21.44 km</desc>
<time>2011-09-29T11:03:41.88</time>
<name>3679</name>
</trkpt>
<trkpt lat="41.706633" lon="-0.646210">
<ele>473.5</ele>
<speed>23.8</speed>
<course>277.9</course>
<desc>Speed 23.8 km/h Distance 21.44 km</desc>
<time>2011-09-29T11:03:42.88</time>
<name>3680</name>
</trkpt>
<trkpt lat="41.706642" lon="-0.646290">
<ele>473.5</ele>
<speed>24.1</speed>
<course>276.2</course>
<desc>Speed 24.1 km/h Distance 21.45 km</desc>
<time>2011-09-29T11:03:43.88</time>
<name>3681</name>
</trkpt>
<trkpt lat="41.706648" lon="-0.646372">
<ele>473.5</ele>
<speed>24.3</speed>
<course>277.8</course>
<desc>Speed 24.3 km/h Distance 21.46 km</desc>
<time>2011-09-29T11:03:45.05</time>
<name>3682</name>
</trkpt>
<trkpt lat="41.706657" lon="-0.646453">
<ele>473.5</ele>
<speed>24.6</speed>
<course>277.5</course>
<desc>Speed 24.6 km/h Distance 21.46 km</desc>
<time>2011-09-29T11:03:45.88</time>
<name>3683</name>
</trkpt>
<trkpt lat="41.706665" lon="-0.646538">
<ele>473.5</ele>
<speed>25.1</speed>
<course>277.8</course>
<desc>Speed 25.1 km/h Distance 21.47 km</desc>
<time>2011-09-29T11:03:46.88</time>
<name>3684</name>
</trkpt>
<trkpt lat="41.706673" lon="-0.646620">
<ele>473.5</ele>
<speed>24.9</speed>
<course>277.8</course>
<desc>Speed 24.9 km/h Distance 21.48 km</desc>
<time>2011-09-29T11:03:47.90</time>
<name>3685</name>
</trkpt>
<trkpt lat="41.706682" lon="-0.646702">
<ele>473.5</ele>
<speed>24.5</speed>
<course>276.4</course>
<desc>Speed 24.5 km/h Distance 21.48 km</desc>
<time>2011-09-29T11:03:48.87</time>
<name>3686</name>
</trkpt>
<trkpt lat="41.706688" lon="-0.646782">
<ele>473.5</ele>
<speed>24.4</speed>
<course>276.2</course>
<desc>Speed 24.4 km/h Distance 21.49 km</desc>
<time>2011-09-29T11:03:49.88</time>
<name>3687</name>
</trkpt>
<trkpt lat="41.706695" lon="-0.646863">
<ele>474.0</ele>
<speed>24.2</speed>
<course>277.9</course>
<desc>Speed 24.2 km/h Distance 21.50 km</desc>
<time>2011-09-29T11:03:50.88</time>
<name>3688</name>
</trkpt>
<trkpt lat="41.706703" lon="-0.646943">
<ele>474.0</ele>
<speed>24.1</speed>
<course>277.8</course>
<desc>Speed 24.1 km/h Distance 21.50 km</desc>
<time>2011-09-29T11:03:51.87</time>
<name>3689</name>
</trkpt>
<trkpt lat="41.706712" lon="-0.647025">
<ele>474.0</ele>
<speed>24.4</speed>
<course>276.2</course>
<desc>Speed 24.4 km/h Distance 21.51 km</desc>
<time>2011-09-29T11:03:52.87</time>
<name>3690</name>
</trkpt>
<trkpt lat="41.706718" lon="-0.647107">
<ele>474.0</ele>
<speed>24.8</speed>
<course>279.1</course>
<desc>Speed 24.8 km/h Distance 21.52 km</desc>
<time>2011-09-29T11:03:53.87</time>
<name>3691</name>
</trkpt>
<trkpt lat="41.706728" lon="-0.647190">
<ele>474.0</ele>
<speed>24.8</speed>
<course>277.8</course>
<desc>Speed 24.8 km/h Distance 21.52 km</desc>
<time>2011-09-29T11:03:54.87</time>
<name>3692</name>
</trkpt>
<trkpt lat="41.706737" lon="-0.647272">
<ele>474.0</ele>
<speed>24.9</speed>
<course>277.6</course>
<desc>Speed 24.9 km/h Distance 21.53 km</desc>
<time>2011-09-29T11:03:55.87</time>
<name>3693</name>
</trkpt>
<trkpt lat="41.706745" lon="-0.647355">
<ele>474.5</ele>
<speed>25.1</speed>
<course>276.7</course>
<desc>Speed 25.1 km/h Distance 21.54 km</desc>
<time>2011-09-29T11:03:57.59</time>
<name>3694</name>
</trkpt>
<trkpt lat="41.706767" lon="-0.647602">
<ele>474.5</ele>
<speed>24.4</speed>
<course>276.4</course>
<desc>Speed 24.4 km/h Distance 21.56 km</desc>
<time>2011-09-29T11:03:59.87</time>
<name>3695</name>
</trkpt>
<trkpt lat="41.706773" lon="-0.647682">
<ele>475.0</ele>
<speed>24.2</speed>
<course>276.2</course>
<desc>Speed 24.2 km/h Distance 21.57 km</desc>
<time>2011-09-29T11:04:00.87</time>
<name>3696</name>
</trkpt>
<trkpt lat="41.706780" lon="-0.647763">
<ele>475.0</ele>
<speed>24.3</speed>
<course>277.9</course>
<desc>Speed 24.3 km/h Distance 21.57 km</desc>
<time>2011-09-29T11:04:01.87</time>
<name>3697</name>
</trkpt>
<trkpt lat="41.706788" lon="-0.647843">
<ele>475.0</ele>
<speed>24.4</speed>
<course>281.1</course>
<desc>Speed 24.4 km/h Distance 21.58 km</desc>
<time>2011-09-29T11:04:02.87</time>
<name>3698</name>
</trkpt>
<trkpt lat="41.706800" lon="-0.647923">
<ele>475.0</ele>
<speed>24.2</speed>
<course>279.5</course>
<desc>Speed 24.2 km/h Distance 21.59 km</desc>
<time>2011-09-29T11:04:03.87</time>
<name>3699</name>
</trkpt>
<trkpt lat="41.706810" lon="-0.648003">
<ele>475.0</ele>
<speed>24.3</speed>
<course>284.1</course>
<desc>Speed 24.3 km/h Distance 21.59 km</desc>
<time>2011-09-29T11:04:04.86</time>
<name>3700</name>
</trkpt>
<trkpt lat="41.706825" lon="-0.648083">
<ele>475.0</ele>
<speed>24.6</speed>
<course>285.6</course>
<desc>Speed 24.6 km/h Distance 21.60 km</desc>
<time>2011-09-29T11:04:05.86</time>
<name>3701</name>
</trkpt>
<trkpt lat="41.706842" lon="-0.648163">
<ele>475.5</ele>
<speed>24.8</speed>
<course>294.5</course>
<desc>Speed 24.8 km/h Distance 21.61 km</desc>
<time>2011-09-29T11:04:07.34</time>
<name>3702</name>
</trkpt>
<trkpt lat="41.706893" lon="-0.648315">
<ele>475.5</ele>
<speed>25.0</speed>
<course>300.0</course>
<desc>Speed 25.0 km/h Distance 21.62 km</desc>
<time>2011-09-29T11:04:08.86</time>
<name>3703</name>
</trkpt>
<trkpt lat="41.706925" lon="-0.648388">
<ele>475.5</ele>
<speed>25.3</speed>
<course>300.6</course>
<desc>Speed 25.3 km/h Distance 21.63 km</desc>
<time>2011-09-29T11:04:09.86</time>
<name>3704</name>
</trkpt>
<trkpt lat="41.706957" lon="-0.648460">
<ele>475.5</ele>
<speed>25.2</speed>
<course>305.1</course>
<desc>Speed 25.2 km/h Distance 21.63 km</desc>
<time>2011-09-29T11:04:10.86</time>
<name>3705</name>
</trkpt>
<trkpt lat="41.706993" lon="-0.648530">
<ele>476.0</ele>
<speed>24.9</speed>
<course>309.0</course>
<desc>Speed 24.9 km/h Distance 21.64 km</desc>
<time>2011-09-29T11:04:11.86</time>
<name>3706</name>
</trkpt>
<trkpt lat="41.707032" lon="-0.648593">
<ele>476.0</ele>
<speed>24.6</speed>
<course>311.0</course>
<desc>Speed 24.6 km/h Distance 21.65 km</desc>
<time>2011-09-29T11:04:12.86</time>
<name>3707</name>
</trkpt>
<trkpt lat="41.707072" lon="-0.648655">
<ele>476.5</ele>
<speed>24.4</speed>
<course>312.9</course>
<desc>Speed 24.4 km/h Distance 21.66 km</desc>
<time>2011-09-29T11:04:13.86</time>
<name>3708</name>
</trkpt>
<trkpt lat="41.707113" lon="-0.648715">
<ele>476.5</ele>
<speed>24.3</speed>
<course>311.8</course>
<desc>Speed 24.3 km/h Distance 21.66 km</desc>
<time>2011-09-29T11:04:14.86</time>
<name>3709</name>
</trkpt>
<trkpt lat="41.707153" lon="-0.648775">
<ele>477.0</ele>
<speed>24.0</speed>
<course>313.7</course>
<desc>Speed 24.0 km/h Distance 21.67 km</desc>
<time>2011-09-29T11:04:15.86</time>
<name>3710</name>
</trkpt>
<trkpt lat="41.707195" lon="-0.648833">
<ele>477.0</ele>
<speed>24.1</speed>
<course>312.8</course>
<desc>Speed 24.1 km/h Distance 21.68 km</desc>
<time>2011-09-29T11:04:17.06</time>
<name>3711</name>
</trkpt>
<trkpt lat="41.707277" lon="-0.648952">
<ele>477.5</ele>
<speed>23.9</speed>
<course>313.4</course>
<desc>Speed 23.9 km/h Distance 21.69 km</desc>
<time>2011-09-29T11:04:18.85</time>
<name>3712</name>
</trkpt>
<trkpt lat="41.707317" lon="-0.649008">
<ele>477.5</ele>
<speed>23.2</speed>
<course>313.4</course>
<desc>Speed 23.2 km/h Distance 21.70 km</desc>
<time>2011-09-29T11:04:19.85</time>
<name>3713</name>
</trkpt>
<trkpt lat="41.707357" lon="-0.649065">
<ele>477.5</ele>
<speed>23.1</speed>
<course>313.4</course>
<desc>Speed 23.1 km/h Distance 21.70 km</desc>
<time>2011-09-29T11:04:20.86</time>
<name>3714</name>
</trkpt>
<trkpt lat="41.707397" lon="-0.649122">
<ele>478.0</ele>
<speed>23.1</speed>
<course>310.9</course>
<desc>Speed 23.1 km/h Distance 21.71 km</desc>
<time>2011-09-29T11:04:21.85</time>
<name>3715</name>
</trkpt>
<trkpt lat="41.707433" lon="-0.649178">
<ele>478.0</ele>
<speed>22.8</speed>
<course>312.2</course>
<desc>Speed 22.8 km/h Distance 21.71 km</desc>
<time>2011-09-29T11:04:22.85</time>
<name>3716</name>
</trkpt>
<trkpt lat="41.707472" lon="-0.649235">
<ele>478.0</ele>
<speed>22.4</speed>
<course>311.8</course>
<desc>Speed 22.4 km/h Distance 21.72 km</desc>
<time>2011-09-29T11:04:24.01</time>
<name>3717</name>
</trkpt>
<trkpt lat="41.707508" lon="-0.649290">
<ele>478.5</ele>
<speed>22.2</speed>
<course>311.8</course>
<desc>Speed 22.2 km/h Distance 21.73 km</desc>
<time>2011-09-29T11:04:24.85</time>
<name>3718</name>
</trkpt>
<trkpt lat="41.707545" lon="-0.649345">
<ele>478.5</ele>
<speed>21.9</speed>
<course>311.3</course>
<desc>Speed 21.9 km/h Distance 21.73 km</desc>
<time>2011-09-29T11:04:25.85</time>
<name>3719</name>
</trkpt>
<trkpt lat="41.707580" lon="-0.649398">
<ele>478.5</ele>
<speed>21.4</speed>
<course>309.1</course>
<desc>Speed 21.4 km/h Distance 21.74 km</desc>
<time>2011-09-29T11:04:26.85</time>
<name>3720</name>
</trkpt>
<trkpt lat="41.707613" lon="-0.649453">
<ele>479.0</ele>
<speed>21.2</speed>
<course>313.5</course>
<desc>Speed 21.2 km/h Distance 21.74 km</desc>
<time>2011-09-29T11:04:27.86</time>
<name>3721</name>
</trkpt>
<trkpt lat="41.707650" lon="-0.649505">
<ele>479.0</ele>
<speed>21.3</speed>
<course>314.8</course>
<desc>Speed 21.3 km/h Distance 21.75 km</desc>
<time>2011-09-29T11:04:28.85</time>
<name>3722</name>
</trkpt>
<trkpt lat="41.707688" lon="-0.649557">
<ele>479.0</ele>
<speed>21.5</speed>
<course>314.8</course>
<desc>Speed 21.5 km/h Distance 21.76 km</desc>
<time>2011-09-29T11:04:29.85</time>
<name>3723</name>
</trkpt>
<trkpt lat="41.707727" lon="-0.649608">
<ele>479.5</ele>
<speed>21.5</speed>
<course>311.3</course>
<desc>Speed 21.5 km/h Distance 21.76 km</desc>
<time>2011-09-29T11:04:30.85</time>
<name>3724</name>
</trkpt>
<trkpt lat="41.707762" lon="-0.649662">
<ele>479.5</ele>
<speed>21.5</speed>
<course>310.4</course>
<desc>Speed 21.5 km/h Distance 21.77 km</desc>
<time>2011-09-29T11:04:31.85</time>
<name>3725</name>
</trkpt>
<trkpt lat="41.707797" lon="-0.649717">
<ele>480.0</ele>
<speed>21.2</speed>
<course>313.5</course>
<desc>Speed 21.2 km/h Distance 21.77 km</desc>
<time>2011-09-29T11:04:32.85</time>
<name>3726</name>
</trkpt>
<trkpt lat="41.707833" lon="-0.649768">
<ele>480.0</ele>
<speed>21.3</speed>
<course>313.6</course>
<desc>Speed 21.3 km/h Distance 21.78 km</desc>
<time>2011-09-29T11:04:33.84</time>
<name>3727</name>
</trkpt>
<trkpt lat="41.707870" lon="-0.649820">
<ele>480.0</ele>
<speed>21.2</speed>
<course>314.5</course>
<desc>Speed 21.2 km/h Distance 21.79 km</desc>
<time>2011-09-29T11:04:34.84</time>
<name>3728</name>
</trkpt>
<trkpt lat="41.707907" lon="-0.649870">
<ele>480.0</ele>
<speed>20.6</speed>
<course>311.3</course>
<desc>Speed 20.6 km/h Distance 21.79 km</desc>
<time>2011-09-29T11:04:36.54</time>
<name>3729</name>
</trkpt>
<trkpt lat="41.708008" lon="-0.650025">
<ele>480.5</ele>
<speed>20.5</speed>
<course>313.2</course>
<desc>Speed 20.5 km/h Distance 21.81 km</desc>
<time>2011-09-29T11:04:38.84</time>
<name>3730</name>
</trkpt>
<trkpt lat="41.708043" lon="-0.650075">
<ele>481.0</ele>
<speed>20.2</speed>
<course>311.8</course>
<desc>Speed 20.2 km/h Distance 21.82 km</desc>
<time>2011-09-29T11:04:39.84</time>
<name>3731</name>
</trkpt>
<trkpt lat="41.708077" lon="-0.650125">
<ele>481.0</ele>
<speed>19.9</speed>
<course>310.3</course>
<desc>Speed 19.9 km/h Distance 21.82 km</desc>
<time>2011-09-29T11:04:40.84</time>
<name>3732</name>
</trkpt>
<trkpt lat="41.708108" lon="-0.650175">
<ele>481.0</ele>
<speed>19.7</speed>
<course>312.2</course>
<desc>Speed 19.7 km/h Distance 21.83 km</desc>
<time>2011-09-29T11:04:41.84</time>
<name>3733</name>
</trkpt>
<trkpt lat="41.708143" lon="-0.650227">
<ele>481.5</ele>
<speed>20.2</speed>
<course>313.2</course>
<desc>Speed 20.2 km/h Distance 21.83 km</desc>
<time>2011-09-29T11:04:42.84</time>
<name>3734</name>
</trkpt>
<trkpt lat="41.708178" lon="-0.650277">
<ele>481.5</ele>
<speed>20.2</speed>
<course>310.3</course>
<desc>Speed 20.2 km/h Distance 21.84 km</desc>
<time>2011-09-29T11:04:43.84</time>
<name>3735</name>
</trkpt>
<trkpt lat="41.708210" lon="-0.650327">
<ele>482.0</ele>
<speed>19.5</speed>
<course>310.3</course>
<desc>Speed 19.5 km/h Distance 21.84 km</desc>
<time>2011-09-29T11:04:44.84</time>
<name>3736</name>
</trkpt>
<trkpt lat="41.708242" lon="-0.650377">
<ele>482.0</ele>
<speed>19.5</speed>
<course>312.0</course>
<desc>Speed 19.5 km/h Distance 21.85 km</desc>
<time>2011-09-29T11:04:46.27</time>
<name>3737</name>
</trkpt>
<trkpt lat="41.708307" lon="-0.650473">
<ele>482.5</ele>
<speed>19.4</speed>
<course>311.3</course>
<desc>Speed 19.4 km/h Distance 21.86 km</desc>
<time>2011-09-29T11:04:47.84</time>
<name>3738</name>
</trkpt>
<trkpt lat="41.708338" lon="-0.650522">
<ele>482.5</ele>
<speed>19.2</speed>
<course>313.7</course>
<desc>Speed 19.2 km/h Distance 21.86 km</desc>
<time>2011-09-29T11:04:48.84</time>
<name>3739</name>
</trkpt>
<trkpt lat="41.708372" lon="-0.650568">
<ele>483.0</ele>
<speed>19.0</speed>
<course>312.3</course>
<desc>Speed 19.0 km/h Distance 21.87 km</desc>
<time>2011-09-29T11:04:49.83</time>
<name>3740</name>
</trkpt>
<trkpt lat="41.708403" lon="-0.650615">
<ele>483.0</ele>
<speed>19.2</speed>
<course>313.7</course>
<desc>Speed 19.2 km/h Distance 21.88 km</desc>
<time>2011-09-29T11:04:50.83</time>
<name>3741</name>
</trkpt>
<trkpt lat="41.708437" lon="-0.650662">
<ele>483.5</ele>
<speed>19.4</speed>
<course>313.7</course>
<desc>Speed 19.4 km/h Distance 21.88 km</desc>
<time>2011-09-29T11:04:51.84</time>
<name>3742</name>
</trkpt>
<trkpt lat="41.708470" lon="-0.650708">
<ele>483.5</ele>
<speed>19.2</speed>
<course>311.3</course>
<desc>Speed 19.2 km/h Distance 21.89 km</desc>
<time>2011-09-29T11:04:53.21</time>
<name>3743</name>
</trkpt>
<trkpt lat="41.708533" lon="-0.650805">
<ele>484.0</ele>
<speed>19.4</speed>
<course>313.7</course>
<desc>Speed 19.4 km/h Distance 21.90 km</desc>
<time>2011-09-29T11:04:54.83</time>
<name>3744</name>
</trkpt>
<trkpt lat="41.708567" lon="-0.650852">
<ele>484.0</ele>
<speed>19.1</speed>
<course>311.3</course>
<desc>Speed 19.1 km/h Distance 21.90 km</desc>
<time>2011-09-29T11:04:56.01</time>
<name>3745</name>
</trkpt>
<trkpt lat="41.708598" lon="-0.650900">
<ele>484.0</ele>
<speed>19.1</speed>
<course>313.7</course>
<desc>Speed 19.1 km/h Distance 21.91 km</desc>
<time>2011-09-29T11:04:56.83</time>
<name>3746</name>
</trkpt>
<trkpt lat="41.708632" lon="-0.650947">
<ele>484.5</ele>
<speed>19.1</speed>
<course>309.7</course>
<desc>Speed 19.1 km/h Distance 21.91 km</desc>
<time>2011-09-29T11:04:57.83</time>
<name>3747</name>
</trkpt>
<trkpt lat="41.708662" lon="-0.650995">
<ele>484.5</ele>
<speed>18.6</speed>
<course>312.3</course>
<desc>Speed 18.6 km/h Distance 21.92 km</desc>
<time>2011-09-29T11:04:58.83</time>
<name>3748</name>
</trkpt>
<trkpt lat="41.708693" lon="-0.651042">
<ele>484.5</ele>
<speed>18.9</speed>
<course>311.3</course>
<desc>Speed 18.9 km/h Distance 21.92 km</desc>
<time>2011-09-29T11:04:59.83</time>
<name>3749</name>
</trkpt>
<trkpt lat="41.708725" lon="-0.651090">
<ele>485.0</ele>
<speed>18.9</speed>
<course>311.3</course>
<desc>Speed 18.9 km/h Distance 21.93 km</desc>
<time>2011-09-29T11:05:00.83</time>
<name>3750</name>
</trkpt>
<trkpt lat="41.708757" lon="-0.651138">
<ele>485.0</ele>
<speed>18.9</speed>
<course>314.8</course>
<desc>Speed 18.9 km/h Distance 21.93 km</desc>
<time>2011-09-29T11:05:01.83</time>
<name>3751</name>
</trkpt>
<trkpt lat="41.708790" lon="-0.651183">
<ele>485.5</ele>
<speed>18.8</speed>
<course>313.3</course>
<desc>Speed 18.8 km/h Distance 21.94 km</desc>
<time>2011-09-29T11:05:02.95</time>
<name>3752</name>
</trkpt>
<trkpt lat="41.708822" lon="-0.651228">
<ele>485.5</ele>
<speed>18.9</speed>
<course>313.7</course>
<desc>Speed 18.9 km/h Distance 21.94 km</desc>
<time>2011-09-29T11:05:03.83</time>
<name>3753</name>
</trkpt>
<trkpt lat="41.708855" lon="-0.651275">
<ele>485.5</ele>
<speed>18.9</speed>
<course>308.8</course>
<desc>Speed 18.9 km/h Distance 21.95 km</desc>
<time>2011-09-29T11:05:04.83</time>
<name>3754</name>
</trkpt>
<trkpt lat="41.708885" lon="-0.651325">
<ele>485.5</ele>
<speed>19.3</speed>
<course>312.7</course>
<desc>Speed 19.3 km/h Distance 21.96 km</desc>
<time>2011-09-29T11:05:05.85</time>
<name>3755</name>
</trkpt>
<trkpt lat="41.708918" lon="-0.651373">
<ele>486.0</ele>
<speed>19.3</speed>
<course>313.7</course>
<desc>Speed 19.3 km/h Distance 21.96 km</desc>
<time>2011-09-29T11:05:06.82</time>
<name>3756</name>
</trkpt>
<trkpt lat="41.708952" lon="-0.651420">
<ele>486.0</ele>
<speed>19.0</speed>
<course>313.3</course>
<desc>Speed 19.0 km/h Distance 21.97 km</desc>
<time>2011-09-29T11:05:07.82</time>
<name>3757</name>
</trkpt>
<trkpt lat="41.708983" lon="-0.651465">
<ele>486.0</ele>
<speed>18.6</speed>
<course>313.3</course>
<desc>Speed 18.6 km/h Distance 21.97 km</desc>
<time>2011-09-29T11:05:08.82</time>
<name>3758</name>
</trkpt>
<trkpt lat="41.709015" lon="-0.651510">
<ele>486.5</ele>
<speed>18.5</speed>
<course>309.1</course>
<desc>Speed 18.5 km/h Distance 21.98 km</desc>
<time>2011-09-29T11:05:09.82</time>
<name>3759</name>
</trkpt>
<trkpt lat="41.709043" lon="-0.651557">
<ele>486.5</ele>
<speed>17.8</speed>
<course>312.8</course>
<desc>Speed 17.8 km/h Distance 21.98 km</desc>
<time>2011-09-29T11:05:10.82</time>
<name>3760</name>
</trkpt>
<trkpt lat="41.709073" lon="-0.651600">
<ele>486.5</ele>
<speed>17.5</speed>
<course>310.1</course>
<desc>Speed 17.5 km/h Distance 21.99 km</desc>
<time>2011-09-29T11:05:11.82</time>
<name>3761</name>
</trkpt>
<trkpt lat="41.709102" lon="-0.651645">
<ele>486.5</ele>
<speed>17.9</speed>
<course>312.3</course>
<desc>Speed 17.9 km/h Distance 21.99 km</desc>
<time>2011-09-29T11:05:12.82</time>
<name>3762</name>
</trkpt>
<trkpt lat="41.709133" lon="-0.651692">
<ele>487.0</ele>
<speed>18.5</speed>
<course>312.3</course>
<desc>Speed 18.5 km/h Distance 22.00 km</desc>
<time>2011-09-29T11:05:13.82</time>
<name>3763</name>
</trkpt>
<trkpt lat="41.709165" lon="-0.651738">
<ele>487.0</ele>
<speed>18.8</speed>
<course>312.4</course>
<desc>Speed 18.8 km/h Distance 22.00 km</desc>
<time>2011-09-29T11:05:15.49</time>
<name>3764</name>
</trkpt>
<trkpt lat="41.709262" lon="-0.651880">
<ele>487.5</ele>
<speed>19.1</speed>
<course>312.7</course>
<desc>Speed 19.1 km/h Distance 22.02 km</desc>
<time>2011-09-29T11:05:17.82</time>
<name>3765</name>
</trkpt>
<trkpt lat="41.709295" lon="-0.651928">
<ele>487.5</ele>
<speed>19.4</speed>
<course>309.7</course>
<desc>Speed 19.4 km/h Distance 22.02 km</desc>
<time>2011-09-29T11:05:18.82</time>
<name>3766</name>
</trkpt>
<trkpt lat="41.709325" lon="-0.651977">
<ele>488.0</ele>
<speed>19.1</speed>
<course>311.3</course>
<desc>Speed 19.1 km/h Distance 22.03 km</desc>
<time>2011-09-29T11:05:19.82</time>
<name>3767</name>
</trkpt>
<trkpt lat="41.709357" lon="-0.652025">
<ele>488.0</ele>
<speed>19.0</speed>
<course>312.3</course>
<desc>Speed 19.0 km/h Distance 22.03 km</desc>
<time>2011-09-29T11:05:20.82</time>
<name>3768</name>
</trkpt>
<trkpt lat="41.709388" lon="-0.652072">
<ele>488.0</ele>
<speed>18.7</speed>
<course>311.8</course>
<desc>Speed 18.7 km/h Distance 22.04 km</desc>
<time>2011-09-29T11:05:21.82</time>
<name>3769</name>
</trkpt>
<trkpt lat="41.709418" lon="-0.652117">
<ele>488.5</ele>
<speed>18.3</speed>
<course>312.8</course>
<desc>Speed 18.3 km/h Distance 22.04 km</desc>
<time>2011-09-29T11:05:22.82</time>
<name>3770</name>
</trkpt>
<trkpt lat="41.709448" lon="-0.652160">
<ele>488.5</ele>
<speed>17.6</speed>
<course>312.3</course>
<desc>Speed 17.6 km/h Distance 22.05 km</desc>
<time>2011-09-29T11:05:23.82</time>
<name>3771</name>
</trkpt>
<trkpt lat="41.709477" lon="-0.652202">
<ele>488.5</ele>
<speed>16.3</speed>
<course>311.2</course>
<desc>Speed 16.3 km/h Distance 22.05 km</desc>
<time>2011-09-29T11:05:25.23</time>
<name>3772</name>
</trkpt>
<trkpt lat="41.709533" lon="-0.652288">
<ele>489.5</ele>
<speed>17.7</speed>
<course>312.8</course>
<desc>Speed 17.7 km/h Distance 22.06 km</desc>
<time>2011-09-29T11:05:26.82</time>
<name>3773</name>
</trkpt>
<trkpt lat="41.709563" lon="-0.652332">
<ele>489.5</ele>
<speed>17.7</speed>
<course>314.0</course>
<desc>Speed 17.7 km/h Distance 22.07 km</desc>
<time>2011-09-29T11:05:27.82</time>
<name>3774</name>
</trkpt>
<trkpt lat="41.709593" lon="-0.652373">
<ele>489.5</ele>
<speed>17.6</speed>
<course>312.8</course>
<desc>Speed 17.6 km/h Distance 22.07 km</desc>
<time>2011-09-29T11:05:28.81</time>
<name>3775</name>
</trkpt>
<trkpt lat="41.709623" lon="-0.652417">
<ele>489.5</ele>
<speed>17.0</speed>
<course>309.9</course>
<desc>Speed 17.0 km/h Distance 22.08 km</desc>
<time>2011-09-29T11:05:29.81</time>
<name>3776</name>
</trkpt>
<trkpt lat="41.709648" lon="-0.652457">
<ele>489.5</ele>
<speed>15.6</speed>
<course>313.5</course>
<desc>Speed 15.6 km/h Distance 22.08 km</desc>
<time>2011-09-29T11:05:30.81</time>
<name>3777</name>
</trkpt>
<trkpt lat="41.709677" lon="-0.652497">
<ele>490.0</ele>
<speed>16.5</speed>
<course>312.9</course>
<desc>Speed 16.5 km/h Distance 22.09 km</desc>
<time>2011-09-29T11:05:32.16</time>
<name>3778</name>
</trkpt>
<trkpt lat="41.709733" lon="-0.652578">
<ele>490.5</ele>
<speed>16.1</speed>
<course>313.5</course>
<desc>Speed 16.1 km/h Distance 22.10 km</desc>
<time>2011-09-29T11:05:33.81</time>
<name>3779</name>
</trkpt>
<trkpt lat="41.709762" lon="-0.652618">
<ele>490.5</ele>
<speed>16.2</speed>
<course>310.6</course>
<desc>Speed 16.2 km/h Distance 22.10 km</desc>
<time>2011-09-29T11:05:34.96</time>
<name>3780</name>
</trkpt>
<trkpt lat="41.709788" lon="-0.652660">
<ele>491.0</ele>
<speed>16.2</speed>
<course>314.7</course>
<desc>Speed 16.2 km/h Distance 22.10 km</desc>
<time>2011-09-29T11:05:35.81</time>
<name>3781</name>
</trkpt>
<trkpt lat="41.709817" lon="-0.652698">
<ele>491.0</ele>
<speed>16.0</speed>
<course>311.8</course>
<desc>Speed 16.0 km/h Distance 22.11 km</desc>
<time>2011-09-29T11:05:36.81</time>
<name>3782</name>
</trkpt>
<trkpt lat="41.709843" lon="-0.652738">
<ele>491.5</ele>
<speed>15.8</speed>
<course>315.6</course>
<desc>Speed 15.8 km/h Distance 22.11 km</desc>
<time>2011-09-29T11:05:37.81</time>
<name>3783</name>
</trkpt>
<trkpt lat="41.709870" lon="-0.652773">
<ele>491.5</ele>
<speed>14.7</speed>
<course>315.6</course>
<desc>Speed 14.7 km/h Distance 22.12 km</desc>
<time>2011-09-29T11:05:38.81</time>
<name>3784</name>
</trkpt>
<trkpt lat="41.709897" lon="-0.652808">
<ele>492.0</ele>
<speed>15.1</speed>
<course>316.0</course>
<desc>Speed 15.1 km/h Distance 22.12 km</desc>
<time>2011-09-29T11:05:39.81</time>
<name>3785</name>
</trkpt>
<trkpt lat="41.709925" lon="-0.652845">
<ele>492.0</ele>
<speed>15.7</speed>
<course>313.5</course>
<desc>Speed 15.7 km/h Distance 22.13 km</desc>
<time>2011-09-29T11:05:40.81</time>
<name>3786</name>
</trkpt>
<trkpt lat="41.709953" lon="-0.652885">
<ele>492.5</ele>
<speed>16.3</speed>
<course>308.8</course>
<desc>Speed 16.3 km/h Distance 22.13 km</desc>
<time>2011-09-29T11:05:41.90</time>
<name>3787</name>
</trkpt>
<trkpt lat="41.709978" lon="-0.652927">
<ele>493.0</ele>
<speed>16.4</speed>
<course>310.6</course>
<desc>Speed 16.4 km/h Distance 22.14 km</desc>
<time>2011-09-29T11:05:42.80</time>
<name>3788</name>
</trkpt>
<trkpt lat="41.710005" lon="-0.652968">
<ele>493.0</ele>
<speed>16.4</speed>
<course>312.3</course>
<desc>Speed 16.4 km/h Distance 22.14 km</desc>
<time>2011-09-29T11:05:43.80</time>
<name>3789</name>
</trkpt>
<trkpt lat="41.710033" lon="-0.653010">
<ele>493.5</ele>
<speed>16.4</speed>
<course>313.5</course>
<desc>Speed 16.4 km/h Distance 22.14 km</desc>
<time>2011-09-29T11:05:44.83</time>
<name>3790</name>
</trkpt>
<trkpt lat="41.710062" lon="-0.653050">
<ele>493.5</ele>
<speed>16.8</speed>
<course>315.1</course>
<desc>Speed 16.8 km/h Distance 22.15 km</desc>
<time>2011-09-29T11:05:45.80</time>
<name>3791</name>
</trkpt>
<trkpt lat="41.710092" lon="-0.653090">
<ele>494.0</ele>
<speed>17.1</speed>
<course>312.8</course>
<desc>Speed 17.1 km/h Distance 22.15 km</desc>
<time>2011-09-29T11:05:46.80</time>
<name>3792</name>
</trkpt>
<trkpt lat="41.710122" lon="-0.653133">
<ele>494.0</ele>
<speed>17.4</speed>
<course>311.8</course>
<desc>Speed 17.4 km/h Distance 22.16 km</desc>
<time>2011-09-29T11:05:47.80</time>
<name>3793</name>
</trkpt>
<trkpt lat="41.710152" lon="-0.653178">
<ele>494.5</ele>
<speed>17.9</speed>
<course>311.8</course>
<desc>Speed 17.9 km/h Distance 22.16 km</desc>
<time>2011-09-29T11:05:48.80</time>
<name>3794</name>
</trkpt>
<trkpt lat="41.710182" lon="-0.653223">
<ele>494.5</ele>
<speed>17.8</speed>
<course>312.8</course>
<desc>Speed 17.8 km/h Distance 22.17 km</desc>
<time>2011-09-29T11:05:49.80</time>
<name>3795</name>
</trkpt>
<trkpt lat="41.710212" lon="-0.653267">
<ele>495.0</ele>
<speed>18.1</speed>
<course>314.8</course>
<desc>Speed 18.1 km/h Distance 22.17 km</desc>
<time>2011-09-29T11:05:50.80</time>
<name>3796</name>
</trkpt>
<trkpt lat="41.710245" lon="-0.653312">
<ele>495.0</ele>
<speed>18.5</speed>
<course>313.7</course>
<desc>Speed 18.5 km/h Distance 22.18 km</desc>
<time>2011-09-29T11:05:51.80</time>
<name>3797</name>
</trkpt>
<trkpt lat="41.710278" lon="-0.653358">
<ele>495.0</ele>
<speed>19.2</speed>
<course>310.7</course>
<desc>Speed 19.2 km/h Distance 22.18 km</desc>
<time>2011-09-29T11:05:52.80</time>
<name>3798</name>
</trkpt>
<trkpt lat="41.710308" lon="-0.653405">
<ele>495.5</ele>
<speed>18.1</speed>
<course>312.8</course>
<desc>Speed 18.1 km/h Distance 22.19 km</desc>
<time>2011-09-29T11:05:54.43</time>
<name>3799</name>
</trkpt>
<trkpt lat="41.710372" lon="-0.653497">
<ele>495.5</ele>
<speed>19.0</speed>
<course>310.3</course>
<desc>Speed 19.0 km/h Distance 22.20 km</desc>
<time>2011-09-29T11:05:55.80</time>
<name>3800</name>
</trkpt>
<trkpt lat="41.710403" lon="-0.653547">
<ele>495.5</ele>
<speed>19.1</speed>
<course>309.7</course>
<desc>Speed 19.1 km/h Distance 22.21 km</desc>
<time>2011-09-29T11:05:56.80</time>
<name>3801</name>
</trkpt>
<trkpt lat="41.710433" lon="-0.653595">
<ele>495.5</ele>
<speed>19.2</speed>
<course>310.3</course>
<desc>Speed 19.2 km/h Distance 22.21 km</desc>
<time>2011-09-29T11:05:57.79</time>
<name>3802</name>
</trkpt>
<trkpt lat="41.710465" lon="-0.653645">
<ele>495.5</ele>
<speed>19.3</speed>
<course>307.9</course>
<desc>Speed 19.3 km/h Distance 22.22 km</desc>
<time>2011-09-29T11:05:58.79</time>
<name>3803</name>
</trkpt>
<trkpt lat="41.710495" lon="-0.653697">
<ele>496.0</ele>
<speed>19.4</speed>
<course>306.3</course>
<desc>Speed 19.4 km/h Distance 22.22 km</desc>
<time>2011-09-29T11:05:59.79</time>
<name>3804</name>
</trkpt>
<trkpt lat="41.710523" lon="-0.653748">
<ele>496.0</ele>
<speed>19.3</speed>
<course>307.0</course>
<desc>Speed 19.3 km/h Distance 22.23 km</desc>
<time>2011-09-29T11:06:00.79</time>
<name>3805</name>
</trkpt>
<trkpt lat="41.710553" lon="-0.653802">
<ele>496.0</ele>
<speed>19.4</speed>
<course>305.4</course>
<desc>Speed 19.4 km/h Distance 22.23 km</desc>
<time>2011-09-29T11:06:01.79</time>
<name>3806</name>
</trkpt>
<trkpt lat="41.710582" lon="-0.653855">
<ele>496.5</ele>
<speed>19.7</speed>
<course>303.0</course>
<desc>Speed 19.7 km/h Distance 22.24 km</desc>
<time>2011-09-29T11:06:02.79</time>
<name>3807</name>
</trkpt>
<trkpt lat="41.710608" lon="-0.653910">
<ele>496.5</ele>
<speed>19.7</speed>
<course>301.8</course>
<desc>Speed 19.7 km/h Distance 22.24 km</desc>
<time>2011-09-29T11:06:04.16</time>
<name>3808</name>
</trkpt>
<trkpt lat="41.710660" lon="-0.654022">
<ele>496.5</ele>
<speed>19.7</speed>
<course>299.9</course>
<desc>Speed 19.7 km/h Distance 22.25 km</desc>
<time>2011-09-29T11:06:05.79</time>
<name>3809</name>
</trkpt>
<trkpt lat="41.710685" lon="-0.654080">
<ele>496.5</ele>
<speed>19.8</speed>
<course>298.9</course>
<desc>Speed 19.8 km/h Distance 22.26 km</desc>
<time>2011-09-29T11:06:06.79</time>
<name>3810</name>
</trkpt>
<trkpt lat="41.710708" lon="-0.654137">
<ele>496.5</ele>
<speed>19.7</speed>
<course>298.2</course>
<desc>Speed 19.7 km/h Distance 22.27 km</desc>
<time>2011-09-29T11:06:07.79</time>
<name>3811</name>
</trkpt>
<trkpt lat="41.710732" lon="-0.654195">
<ele>496.5</ele>
<speed>19.3</speed>
<course>297.1</course>
<desc>Speed 19.3 km/h Distance 22.27 km</desc>
<time>2011-09-29T11:06:08.80</time>
<name>3812</name>
</trkpt>
<trkpt lat="41.710753" lon="-0.654252">
<ele>496.5</ele>
<speed>19.1</speed>
<course>297.8</course>
<desc>Speed 19.1 km/h Distance 22.28 km</desc>
<time>2011-09-29T11:06:09.79</time>
<name>3813</name>
</trkpt>
<trkpt lat="41.710775" lon="-0.654307">
<ele>496.5</ele>
<speed>18.4</speed>
<course>292.8</course>
<desc>Speed 18.4 km/h Distance 22.28 km</desc>
<time>2011-09-29T11:06:11.09</time>
<name>3814</name>
</trkpt>
<trkpt lat="41.710812" lon="-0.654423">
<ele>496.5</ele>
<speed>19.7</speed>
<course>292.4</course>
<desc>Speed 19.7 km/h Distance 22.29 km</desc>
<time>2011-09-29T11:06:12.78</time>
<name>3815</name>
</trkpt>
<trkpt lat="41.710832" lon="-0.654488">
<ele>496.5</ele>
<speed>20.7</speed>
<course>286.4</course>
<desc>Speed 20.7 km/h Distance 22.30 km</desc>
<time>2011-09-29T11:06:13.90</time>
<name>3816</name>
</trkpt>
<trkpt lat="41.710847" lon="-0.654557">
<ele>496.5</ele>
<speed>21.3</speed>
<course>288.1</course>
<desc>Speed 21.3 km/h Distance 22.30 km</desc>
<time>2011-09-29T11:06:14.78</time>
<name>3817</name>
</trkpt>
<trkpt lat="41.710863" lon="-0.654625">
<ele>496.5</ele>
<speed>21.7</speed>
<course>287.7</course>
<desc>Speed 21.7 km/h Distance 22.31 km</desc>
<time>2011-09-29T11:06:15.79</time>
<name>3818</name>
</trkpt>
<trkpt lat="41.710880" lon="-0.654695">
<ele>496.5</ele>
<speed>21.9</speed>
<course>285.7</course>
<desc>Speed 21.9 km/h Distance 22.32 km</desc>
<time>2011-09-29T11:06:16.78</time>
<name>3819</name>
</trkpt>
<trkpt lat="41.710895" lon="-0.654767">
<ele>496.5</ele>
<speed>22.0</speed>
<course>282.3</course>
<desc>Speed 22.0 km/h Distance 22.32 km</desc>
<time>2011-09-29T11:06:17.78</time>
<name>3820</name>
</trkpt>
<trkpt lat="41.710907" lon="-0.654838">
<ele>496.5</ele>
<speed>21.9</speed>
<course>280.6</course>
<desc>Speed 21.9 km/h Distance 22.33 km</desc>
<time>2011-09-29T11:06:18.78</time>
<name>3821</name>
</trkpt>
<trkpt lat="41.710917" lon="-0.654910">
<ele>496.0</ele>
<speed>22.2</speed>
<course>282.0</course>
<desc>Speed 22.2 km/h Distance 22.33 km</desc>
<time>2011-09-29T11:06:19.78</time>
<name>3822</name>
</trkpt>
<trkpt lat="41.710928" lon="-0.654983">
<ele>496.0</ele>
<speed>22.3</speed>
<course>279.9</course>
<desc>Speed 22.3 km/h Distance 22.34 km</desc>
<time>2011-09-29T11:06:20.82</time>
<name>3823</name>
</trkpt>
<trkpt lat="41.710938" lon="-0.655060">
<ele>496.0</ele>
<speed>22.9</speed>
<course>281.8</course>
<desc>Speed 22.9 km/h Distance 22.35 km</desc>
<time>2011-09-29T11:06:21.78</time>
<name>3824</name>
</trkpt>
<trkpt lat="41.710950" lon="-0.655135">
<ele>495.5</ele>
<speed>23.1</speed>
<course>279.7</course>
<desc>Speed 23.1 km/h Distance 22.35 km</desc>
<time>2011-09-29T11:06:22.78</time>
<name>3825</name>
</trkpt>
<trkpt lat="41.710960" lon="-0.655213">
<ele>495.5</ele>
<speed>23.6</speed>
<course>277.9</course>
<desc>Speed 23.6 km/h Distance 22.36 km</desc>
<time>2011-09-29T11:06:23.78</time>
<name>3826</name>
</trkpt>
<trkpt lat="41.710968" lon="-0.655293">
<ele>495.5</ele>
<speed>24.0</speed>
<course>279.3</course>
<desc>Speed 24.0 km/h Distance 22.37 km</desc>
<time>2011-09-29T11:06:24.78</time>
<name>3827</name>
</trkpt>
<trkpt lat="41.710978" lon="-0.655375">
<ele>495.5</ele>
<speed>24.8</speed>
<course>277.6</course>
<desc>Speed 24.8 km/h Distance 22.37 km</desc>
<time>2011-09-29T11:06:25.78</time>
<name>3828</name>
</trkpt>
<trkpt lat="41.710987" lon="-0.655458">
<ele>495.0</ele>
<speed>25.4</speed>
<course>279.0</course>
<desc>Speed 25.4 km/h Distance 22.38 km</desc>
<time>2011-09-29T11:06:26.78</time>
<name>3829</name>
</trkpt>
<trkpt lat="41.710997" lon="-0.655543">
<ele>495.0</ele>
<speed>25.6</speed>
<course>278.6</course>
<desc>Speed 25.6 km/h Distance 22.39 km</desc>
<time>2011-09-29T11:06:27.78</time>
<name>3830</name>
</trkpt>
<trkpt lat="41.711007" lon="-0.655632">
<ele>495.0</ele>
<speed>26.2</speed>
<course>278.6</course>
<desc>Speed 26.2 km/h Distance 22.39 km</desc>
<time>2011-09-29T11:06:28.77</time>
<name>3831</name>
</trkpt>
<trkpt lat="41.711017" lon="-0.655720">
<ele>494.5</ele>
<speed>26.7</speed>
<course>275.7</course>
<desc>Speed 26.7 km/h Distance 22.40 km</desc>
<time>2011-09-29T11:06:29.77</time>
<name>3832</name>
</trkpt>
<trkpt lat="41.711023" lon="-0.655810">
<ele>494.5</ele>
<speed>27.3</speed>
<course>276.9</course>
<desc>Speed 27.3 km/h Distance 22.41 km</desc>
<time>2011-09-29T11:06:30.77</time>
<name>3833</name>
</trkpt>
<trkpt lat="41.711032" lon="-0.655902">
<ele>494.0</ele>
<speed>27.6</speed>
<course>275.5</course>
<desc>Speed 27.6 km/h Distance 22.42 km</desc>
<time>2011-09-29T11:06:31.77</time>
<name>3834</name>
</trkpt>
<trkpt lat="41.711038" lon="-0.655995">
<ele>493.5</ele>
<speed>27.8</speed>
<course>278.0</course>
<desc>Speed 27.8 km/h Distance 22.43 km</desc>
<time>2011-09-29T11:06:33.38</time>
<name>3835</name>
</trkpt>
<trkpt lat="41.711068" lon="-0.656280">
<ele>492.5</ele>
<speed>28.8</speed>
<course>280.6</course>
<desc>Speed 28.8 km/h Distance 22.45 km</desc>
<time>2011-09-29T11:06:35.77</time>
<name>3836</name>
</trkpt>
<trkpt lat="41.711082" lon="-0.656375">
<ele>492.5</ele>
<speed>29.2</speed>
<course>279.2</course>
<desc>Speed 29.2 km/h Distance 22.46 km</desc>
<time>2011-09-29T11:06:36.77</time>
<name>3837</name>
</trkpt>
<trkpt lat="41.711093" lon="-0.656472">
<ele>492.0</ele>
<speed>29.3</speed>
<course>277.8</course>
<desc>Speed 29.3 km/h Distance 22.47 km</desc>
<time>2011-09-29T11:06:37.77</time>
<name>3838</name>
</trkpt>
<trkpt lat="41.711103" lon="-0.656570">
<ele>492.0</ele>
<speed>29.4</speed>
<course>276.5</course>
<desc>Speed 29.4 km/h Distance 22.47 km</desc>
<time>2011-09-29T11:06:38.77</time>
<name>3839</name>
</trkpt>
<trkpt lat="41.711112" lon="-0.656668">
<ele>491.5</ele>
<speed>29.8</speed>
<course>278.9</course>
<desc>Speed 29.8 km/h Distance 22.48 km</desc>
<time>2011-09-29T11:06:39.76</time>
<name>3840</name>
</trkpt>
<trkpt lat="41.711123" lon="-0.656768">
<ele>491.0</ele>
<speed>30.2</speed>
<course>278.7</course>
<desc>Speed 30.2 km/h Distance 22.49 km</desc>
<time>2011-09-29T11:06:40.76</time>
<name>3841</name>
</trkpt>
<trkpt lat="41.711135" lon="-0.656870">
<ele>491.0</ele>
<speed>30.6</speed>
<course>278.7</course>
<desc>Speed 30.6 km/h Distance 22.50 km</desc>
<time>2011-09-29T11:06:41.77</time>
<name>3842</name>
</trkpt>
<trkpt lat="41.711147" lon="-0.656972">
<ele>490.5</ele>
<speed>31.1</speed>
<course>277.3</course>
<desc>Speed 31.1 km/h Distance 22.51 km</desc>
<time>2011-09-29T11:06:43.14</time>
<name>3843</name>
</trkpt>
<trkpt lat="41.711167" lon="-0.657180">
<ele>490.0</ele>
<speed>31.5</speed>
<course>279.7</course>
<desc>Speed 31.5 km/h Distance 22.52 km</desc>
<time>2011-09-29T11:06:44.76</time>
<name>3844</name>
</trkpt>
<trkpt lat="41.711180" lon="-0.657285">
<ele>490.0</ele>
<speed>31.7</speed>
<course>278.5</course>
<desc>Speed 31.7 km/h Distance 22.53 km</desc>
<time>2011-09-29T11:06:45.76</time>
<name>3845</name>
</trkpt>
<trkpt lat="41.711192" lon="-0.657390">
<ele>489.5</ele>
<speed>31.8</speed>
<course>278.3</course>
<desc>Speed 31.8 km/h Distance 22.54 km</desc>
<time>2011-09-29T11:06:46.76</time>
<name>3846</name>
</trkpt>
<trkpt lat="41.711203" lon="-0.657497">
<ele>489.5</ele>
<speed>31.9</speed>
<course>277.3</course>
<desc>Speed 31.9 km/h Distance 22.55 km</desc>
<time>2011-09-29T11:06:47.76</time>
<name>3847</name>
</trkpt>
<trkpt lat="41.711213" lon="-0.657602">
<ele>489.5</ele>
<speed>31.7</speed>
<course>277.5</course>
<desc>Speed 31.7 km/h Distance 22.56 km</desc>
<time>2011-09-29T11:06:48.76</time>
<name>3848</name>
</trkpt>
<trkpt lat="41.711223" lon="-0.657703">
<ele>489.5</ele>
<speed>30.9</speed>
<course>278.2</course>
<desc>Speed 30.9 km/h Distance 22.57 km</desc>
<time>2011-09-29T11:06:50.08</time>
<name>3849</name>
</trkpt>
<trkpt lat="41.711245" lon="-0.657905">
<ele>489.0</ele>
<speed>30.5</speed>
<course>277.5</course>
<desc>Speed 30.5 km/h Distance 22.59 km</desc>
<time>2011-09-29T11:06:51.76</time>
<name>3850</name>
</trkpt>
<trkpt lat="41.711255" lon="-0.658007">
<ele>489.0</ele>
<speed>30.6</speed>
<course>275.0</course>
<desc>Speed 30.6 km/h Distance 22.59 km</desc>
<time>2011-09-29T11:06:52.89</time>
<name>3851</name>
</trkpt>
<trkpt lat="41.711262" lon="-0.658108">
<ele>489.0</ele>
<speed>30.7</speed>
<course>277.6</course>
<desc>Speed 30.7 km/h Distance 22.60 km</desc>
<time>2011-09-29T11:06:53.76</time>
<name>3852</name>
</trkpt>
<trkpt lat="41.711272" lon="-0.658208">
<ele>489.0</ele>
<speed>30.6</speed>
<course>280.0</course>
<desc>Speed 30.6 km/h Distance 22.61 km</desc>
<time>2011-09-29T11:06:54.75</time>
<name>3853</name>
</trkpt>
<trkpt lat="41.711285" lon="-0.658310">
<ele>488.5</ele>
<speed>30.9</speed>
<course>277.3</course>
<desc>Speed 30.9 km/h Distance 22.62 km</desc>
<time>2011-09-29T11:06:55.75</time>
<name>3854</name>
</trkpt>
<trkpt lat="41.711295" lon="-0.658415">
<ele>488.5</ele>
<speed>31.2</speed>
<course>274.9</course>
<desc>Speed 31.2 km/h Distance 22.63 km</desc>
<time>2011-09-29T11:06:56.75</time>
<name>3855</name>
</trkpt>
<trkpt lat="41.711302" lon="-0.658518">
<ele>488.5</ele>
<speed>31.5</speed>
<course>277.3</course>
<desc>Speed 31.5 km/h Distance 22.64 km</desc>
<time>2011-09-29T11:06:57.75</time>
<name>3856</name>
</trkpt>
<trkpt lat="41.711312" lon="-0.658623">
<ele>488.0</ele>
<speed>31.4</speed>
<course>276.2</course>
<desc>Speed 31.4 km/h Distance 22.65 km</desc>
<time>2011-09-29T11:06:58.75</time>
<name>3857</name>
</trkpt>
<trkpt lat="41.711320" lon="-0.658727">
<ele>488.0</ele>
<speed>31.5</speed>
<course>278.5</course>
<desc>Speed 31.5 km/h Distance 22.65 km</desc>
<time>2011-09-29T11:07:00.19</time>
<name>3858</name>
</trkpt>
<trkpt lat="41.711343" lon="-0.658935">
<ele>487.5</ele>
<speed>31.4</speed>
<course>278.7</course>
<desc>Speed 31.4 km/h Distance 22.67 km</desc>
<time>2011-09-29T11:07:01.74</time>
<name>3859</name>
</trkpt>
<trkpt lat="41.711355" lon="-0.659037">
<ele>487.5</ele>
<speed>31.2</speed>
<course>277.4</course>
<desc>Speed 31.2 km/h Distance 22.68 km</desc>
<time>2011-09-29T11:07:03.00</time>
<name>3860</name>
</trkpt>
<trkpt lat="41.711375" lon="-0.659243">
<ele>487.0</ele>
<speed>31.1</speed>
<course>276.3</course>
<desc>Speed 31.1 km/h Distance 22.70 km</desc>
<time>2011-09-29T11:07:04.74</time>
<name>3861</name>
</trkpt>
<trkpt lat="41.711383" lon="-0.659345">
<ele>487.0</ele>
<speed>30.5</speed>
<course>276.3</course>
<desc>Speed 30.5 km/h Distance 22.71 km</desc>
<time>2011-09-29T11:07:05.75</time>
<name>3862</name>
</trkpt>
<trkpt lat="41.711392" lon="-0.659447">
<ele>487.0</ele>
<speed>30.5</speed>
<course>280.1</course>
<desc>Speed 30.5 km/h Distance 22.71 km</desc>
<time>2011-09-29T11:07:06.74</time>
<name>3863</name>
</trkpt>
<trkpt lat="41.711405" lon="-0.659547">
<ele>487.0</ele>
<speed>30.6</speed>
<course>277.5</course>
<desc>Speed 30.6 km/h Distance 22.72 km</desc>
<time>2011-09-29T11:07:07.74</time>
<name>3864</name>
</trkpt>
<trkpt lat="41.711415" lon="-0.659648">
<ele>487.0</ele>
<speed>30.7</speed>
<course>277.4</course>
<desc>Speed 30.7 km/h Distance 22.73 km</desc>
<time>2011-09-29T11:07:08.74</time>
<name>3865</name>
</trkpt>
<trkpt lat="41.711425" lon="-0.659752">
<ele>487.0</ele>
<speed>30.9</speed>
<course>276.8</course>
<desc>Speed 30.9 km/h Distance 22.74 km</desc>
<time>2011-09-29T11:07:09.93</time>
<name>3866</name>
</trkpt>
<trkpt lat="41.711443" lon="-0.659957">
<ele>486.5</ele>
<speed>31.0</speed>
<course>277.5</course>
<desc>Speed 31.0 km/h Distance 22.76 km</desc>
<time>2011-09-29T11:07:11.74</time>
<name>3867</name>
</trkpt>
<trkpt lat="41.711453" lon="-0.660058">
<ele>486.5</ele>
<speed>30.8</speed>
<course>278.7</course>
<desc>Speed 30.8 km/h Distance 22.77 km</desc>
<time>2011-09-29T11:07:12.93</time>
<name>3868</name>
</trkpt>
<trkpt lat="41.711465" lon="-0.660160">
<ele>486.0</ele>
<speed>30.7</speed>
<course>276.4</course>
<desc>Speed 30.7 km/h Distance 22.77 km</desc>
<time>2011-09-29T11:07:13.81</time>
<name>3869</name>
</trkpt>
<trkpt lat="41.711473" lon="-0.660260">
<ele>486.0</ele>
<speed>30.3</speed>
<course>277.6</course>
<desc>Speed 30.3 km/h Distance 22.78 km</desc>
<time>2011-09-29T11:07:14.74</time>
<name>3870</name>
</trkpt>
<trkpt lat="41.711483" lon="-0.660360">
<ele>486.0</ele>
<speed>30.0</speed>
<course>278.9</course>
<desc>Speed 30.0 km/h Distance 22.79 km</desc>
<time>2011-09-29T11:07:15.74</time>
<name>3871</name>
</trkpt>
<trkpt lat="41.711495" lon="-0.660460">
<ele>486.0</ele>
<speed>30.3</speed>
<course>276.4</course>
<desc>Speed 30.3 km/h Distance 22.80 km</desc>
<time>2011-09-29T11:07:16.74</time>
<name>3872</name>
</trkpt>
<trkpt lat="41.711503" lon="-0.660560">
<ele>486.0</ele>
<speed>30.4</speed>
<course>276.3</course>
<desc>Speed 30.4 km/h Distance 22.81 km</desc>
<time>2011-09-29T11:07:17.73</time>
<name>3873</name>
</trkpt>
<trkpt lat="41.711512" lon="-0.660662">
<ele>486.0</ele>
<speed>30.6</speed>
<course>277.5</course>
<desc>Speed 30.6 km/h Distance 22.82 km</desc>
<time>2011-09-29T11:07:18.73</time>
<name>3874</name>
</trkpt>
<trkpt lat="41.711522" lon="-0.660763">
<ele>486.0</ele>
<speed>30.7</speed>
<course>277.5</course>
<desc>Speed 30.7 km/h Distance 22.83 km</desc>
<time>2011-09-29T11:07:19.74</time>
<name>3875</name>
</trkpt>
<trkpt lat="41.711532" lon="-0.660865">
<ele>486.0</ele>
<speed>30.7</speed>
<course>277.5</course>
<desc>Speed 30.7 km/h Distance 22.83 km</desc>
<time>2011-09-29T11:07:20.74</time>
<name>3876</name>
</trkpt>
<trkpt lat="41.711552" lon="-0.661068">
<ele>486.0</ele>
<speed>30.5</speed>
<course>276.5</course>
<desc>Speed 30.5 km/h Distance 22.85 km</desc>
<time>2011-09-29T11:07:22.73</time>
<name>3877</name>
</trkpt>
<trkpt lat="41.711560" lon="-0.661167">
<ele>486.0</ele>
<speed>29.9</speed>
<course>276.5</course>
<desc>Speed 29.9 km/h Distance 22.86 km</desc>
<time>2011-09-29T11:07:23.74</time>
<name>3878</name>
</trkpt>
<trkpt lat="41.711568" lon="-0.661265">
<ele>486.0</ele>
<speed>29.4</speed>
<course>276.6</course>
<desc>Speed 29.4 km/h Distance 22.87 km</desc>
<time>2011-09-29T11:07:24.73</time>
<name>3879</name>
</trkpt>
<trkpt lat="41.711577" lon="-0.661362">
<ele>486.0</ele>
<speed>29.2</speed>
<course>276.6</course>
<desc>Speed 29.2 km/h Distance 22.88 km</desc>
<time>2011-09-29T11:07:25.73</time>
<name>3880</name>
</trkpt>
<trkpt lat="41.711585" lon="-0.661458">
<ele>486.0</ele>
<speed>29.0</speed>
<course>278.0</course>
<desc>Speed 29.0 km/h Distance 22.88 km</desc>
<time>2011-09-29T11:07:26.73</time>
<name>3881</name>
</trkpt>
<trkpt lat="41.711595" lon="-0.661553">
<ele>486.0</ele>
<speed>28.8</speed>
<course>278.0</course>
<desc>Speed 28.8 km/h Distance 22.89 km</desc>
<time>2011-09-29T11:07:27.74</time>
<name>3882</name>
</trkpt>
<trkpt lat="41.711605" lon="-0.661648">
<ele>486.0</ele>
<speed>28.5</speed>
<course>279.5</course>
<desc>Speed 28.5 km/h Distance 22.90 km</desc>
<time>2011-09-29T11:07:28.73</time>
<name>3883</name>
</trkpt>
<trkpt lat="41.711617" lon="-0.661742">
<ele>485.5</ele>
<speed>28.2</speed>
<course>282.4</course>
<desc>Speed 28.2 km/h Distance 22.91 km</desc>
<time>2011-09-29T11:07:29.73</time>
<name>3884</name>
</trkpt>
<trkpt lat="41.711632" lon="-0.661833">
<ele>485.5</ele>
<speed>28.0</speed>
<course>278.2</course>
<desc>Speed 28.0 km/h Distance 22.91 km</desc>
<time>2011-09-29T11:07:30.73</time>
<name>3885</name>
</trkpt>
<trkpt lat="41.711642" lon="-0.661927">
<ele>485.5</ele>
<speed>28.2</speed>
<course>277.2</course>
<desc>Speed 28.2 km/h Distance 22.92 km</desc>
<time>2011-09-29T11:07:32.23</time>
<name>3886</name>
</trkpt>
<trkpt lat="41.711660" lon="-0.662120">
<ele>484.5</ele>
<speed>29.4</speed>
<course>276.4</course>
<desc>Speed 29.4 km/h Distance 22.94 km</desc>
<time>2011-09-29T11:07:33.73</time>
<name>3887</name>
</trkpt>
<trkpt lat="41.711668" lon="-0.662220">
<ele>484.0</ele>
<speed>30.2</speed>
<course>277.4</course>
<desc>Speed 30.2 km/h Distance 22.95 km</desc>
<time>2011-09-29T11:07:34.73</time>
<name>3888</name>
</trkpt>
<trkpt lat="41.711678" lon="-0.662323">
<ele>483.5</ele>
<speed>31.1</speed>
<course>277.2</course>
<desc>Speed 31.1 km/h Distance 22.96 km</desc>
<time>2011-09-29T11:07:35.73</time>
<name>3889</name>
</trkpt>
<trkpt lat="41.711688" lon="-0.662430">
<ele>483.5</ele>
<speed>32.0</speed>
<course>278.3</course>
<desc>Speed 32.0 km/h Distance 22.96 km</desc>
<time>2011-09-29T11:07:36.72</time>
<name>3890</name>
</trkpt>
<trkpt lat="41.711700" lon="-0.662537">
<ele>483.0</ele>
<speed>32.4</speed>
<course>277.0</course>
<desc>Speed 32.4 km/h Distance 22.97 km</desc>
<time>2011-09-29T11:07:37.72</time>
<name>3891</name>
</trkpt>
<trkpt lat="41.711710" lon="-0.662645">
<ele>483.0</ele>
<speed>32.9</speed>
<course>276.8</course>
<desc>Speed 32.9 km/h Distance 22.98 km</desc>
<time>2011-09-29T11:07:38.73</time>
<name>3892</name>
</trkpt>
<trkpt lat="41.711720" lon="-0.662757">
<ele>482.5</ele>
<speed>33.3</speed>
<course>278.1</course>
<desc>Speed 33.3 km/h Distance 22.99 km</desc>
<time>2011-09-29T11:07:39.72</time>
<name>3893</name>
</trkpt>
<trkpt lat="41.711732" lon="-0.662867">
<ele>482.0</ele>
<speed>33.5</speed>
<course>279.1</course>
<desc>Speed 33.5 km/h Distance 23.00 km</desc>
<time>2011-09-29T11:07:40.72</time>
<name>3894</name>
</trkpt>
<trkpt lat="41.711745" lon="-0.662978">
<ele>482.0</ele>
<speed>33.8</speed>
<course>277.9</course>
<desc>Speed 33.8 km/h Distance 23.01 km</desc>
<time>2011-09-29T11:07:41.96</time>
<name>3895</name>
</trkpt>
<trkpt lat="41.711768" lon="-0.663205">
<ele>481.5</ele>
<speed>34.3</speed>
<course>278.8</course>
<desc>Speed 34.3 km/h Distance 23.03 km</desc>
<time>2011-09-29T11:07:43.72</time>
<name>3896</name>
</trkpt>
<trkpt lat="41.711782" lon="-0.663320">
<ele>481.0</ele>
<speed>34.6</speed>
<course>279.9</course>
<desc>Speed 34.6 km/h Distance 23.04 km</desc>
<time>2011-09-29T11:07:44.72</time>
<name>3897</name>
</trkpt>
<trkpt lat="41.711797" lon="-0.663435">
<ele>480.5</ele>
<speed>35.1</speed>
<course>279.8</course>
<desc>Speed 35.1 km/h Distance 23.05 km</desc>
<time>2011-09-29T11:07:45.72</time>
<name>3898</name>
</trkpt>
<trkpt lat="41.711812" lon="-0.663552">
<ele>480.5</ele>
<speed>35.2</speed>
<course>277.6</course>
<desc>Speed 35.2 km/h Distance 23.06 km</desc>
<time>2011-09-29T11:07:46.72</time>
<name>3899</name>
</trkpt>
<trkpt lat="41.711823" lon="-0.663668">
<ele>480.0</ele>
<speed>35.4</speed>
<course>277.5</course>
<desc>Speed 35.4 km/h Distance 23.07 km</desc>
<time>2011-09-29T11:07:47.72</time>
<name>3900</name>
</trkpt>
<trkpt lat="41.711835" lon="-0.663787">
<ele>479.5</ele>
<speed>35.7</speed>
<course>277.5</course>
<desc>Speed 35.7 km/h Distance 23.08 km</desc>
<time>2011-09-29T11:07:48.90</time>
<name>3901</name>
</trkpt>
<trkpt lat="41.711858" lon="-0.664025">
<ele>478.5</ele>
<speed>36.1</speed>
<course>276.4</course>
<desc>Speed 36.1 km/h Distance 23.10 km</desc>
<time>2011-09-29T11:07:50.72</time>
<name>3902</name>
</trkpt>
<trkpt lat="41.711868" lon="-0.664145">
<ele>478.5</ele>
<speed>36.1</speed>
<course>277.4</course>
<desc>Speed 36.1 km/h Distance 23.11 km</desc>
<time>2011-09-29T11:07:51.71</time>
<name>3903</name>
</trkpt>
<trkpt lat="41.711880" lon="-0.664265">
<ele>478.0</ele>
<speed>36.1</speed>
<course>277.4</course>
<desc>Speed 36.1 km/h Distance 23.12 km</desc>
<time>2011-09-29T11:07:52.71</time>
<name>3904</name>
</trkpt>
<trkpt lat="41.711892" lon="-0.664385">
<ele>477.5</ele>
<speed>36.4</speed>
<course>277.3</course>
<desc>Speed 36.4 km/h Distance 23.13 km</desc>
<time>2011-09-29T11:07:53.71</time>
<name>3905</name>
</trkpt>
<trkpt lat="41.711903" lon="-0.664507">
<ele>477.0</ele>
<speed>36.6</speed>
<course>277.2</course>
<desc>Speed 36.6 km/h Distance 23.14 km</desc>
<time>2011-09-29T11:07:54.71</time>
<name>3906</name>
</trkpt>
<trkpt lat="41.711915" lon="-0.664630">
<ele>476.5</ele>
<speed>37.2</speed>
<course>277.3</course>
<desc>Speed 37.2 km/h Distance 23.15 km</desc>
<time>2011-09-29T11:07:55.71</time>
<name>3907</name>
</trkpt>
<trkpt lat="41.711938" lon="-0.664875">
<ele>476.0</ele>
<speed>37.2</speed>
<course>279.1</course>
<desc>Speed 37.2 km/h Distance 23.17 km</desc>
<time>2011-09-29T11:07:58.71</time>
<name>3908</name>
</trkpt>
<trkpt lat="41.711953" lon="-0.665000">
<ele>475.5</ele>
<speed>37.7</speed>
<course>278.1</course>
<desc>Speed 37.7 km/h Distance 23.18 km</desc>
<time>2011-09-29T11:07:59.72</time>
<name>3909</name>
</trkpt>
<trkpt lat="41.711967" lon="-0.665125">
<ele>475.0</ele>
<speed>38.1</speed>
<course>277.9</course>
<desc>Speed 38.1 km/h Distance 23.19 km</desc>
<time>2011-09-29T11:08:00.71</time>
<name>3910</name>
</trkpt>
<trkpt lat="41.711980" lon="-0.665253">
<ele>474.5</ele>
<speed>38.3</speed>
<course>276.0</course>
<desc>Speed 38.3 km/h Distance 23.20 km</desc>
<time>2011-09-29T11:08:01.71</time>
<name>3911</name>
</trkpt>
<trkpt lat="41.711990" lon="-0.665382">
<ele>474.0</ele>
<speed>39.0</speed>
<course>276.9</course>
<desc>Speed 39.0 km/h Distance 23.21 km</desc>
<time>2011-09-29T11:08:02.71</time>
<name>3912</name>
</trkpt>
<trkpt lat="41.712002" lon="-0.665512">
<ele>474.0</ele>
<speed>39.2</speed>
<course>277.7</course>
<desc>Speed 39.2 km/h Distance 23.22 km</desc>
<time>2011-09-29T11:08:03.71</time>
<name>3913</name>
</trkpt>
<trkpt lat="41.712015" lon="-0.665643">
<ele>473.5</ele>
<speed>39.6</speed>
<course>277.7</course>
<desc>Speed 39.6 km/h Distance 23.23 km</desc>
<time>2011-09-29T11:08:04.70</time>
<name>3914</name>
</trkpt>
<trkpt lat="41.712028" lon="-0.665775">
<ele>473.0</ele>
<speed>39.8</speed>
<course>278.1</course>
<desc>Speed 39.8 km/h Distance 23.25 km</desc>
<time>2011-09-29T11:08:05.70</time>
<name>3915</name>
</trkpt>
<trkpt lat="41.712057" lon="-0.666042">
<ele>472.5</ele>
<speed>40.5</speed>
<course>277.5</course>
<desc>Speed 40.5 km/h Distance 23.27 km</desc>
<time>2011-09-29T11:08:07.70</time>
<name>3916</name>
</trkpt>
<trkpt lat="41.712070" lon="-0.666177">
<ele>472.0</ele>
<speed>40.9</speed>
<course>276.5</course>
<desc>Speed 40.9 km/h Distance 23.28 km</desc>
<time>2011-09-29T11:08:08.70</time>
<name>3917</name>
</trkpt>
<trkpt lat="41.712082" lon="-0.666313">
<ele>471.5</ele>
<speed>41.0</speed>
<course>276.5</course>
<desc>Speed 41.0 km/h Distance 23.29 km</desc>
<time>2011-09-29T11:08:09.70</time>
<name>3918</name>
</trkpt>
<trkpt lat="41.712093" lon="-0.666450">
<ele>471.0</ele>
<speed>40.9</speed>
<course>277.2</course>
<desc>Speed 40.9 km/h Distance 23.30 km</desc>
<time>2011-09-29T11:08:10.70</time>
<name>3919</name>
</trkpt>
<trkpt lat="41.712118" lon="-0.666717">
<ele>470.5</ele>
<speed>40.2</speed>
<course>277.6</course>
<desc>Speed 40.2 km/h Distance 23.32 km</desc>
<time>2011-09-29T11:08:12.70</time>
<name>3920</name>
</trkpt>
<trkpt lat="41.712132" lon="-0.666850">
<ele>470.0</ele>
<speed>40.1</speed>
<course>277.7</course>
<desc>Speed 40.1 km/h Distance 23.34 km</desc>
<time>2011-09-29T11:08:13.70</time>
<name>3921</name>
</trkpt>
<trkpt lat="41.712145" lon="-0.666982">
<ele>469.5</ele>
<speed>39.8</speed>
<course>275.7</course>
<desc>Speed 39.8 km/h Distance 23.35 km</desc>
<time>2011-09-29T11:08:14.70</time>
<name>3922</name>
</trkpt>
<trkpt lat="41.712155" lon="-0.667115">
<ele>469.0</ele>
<speed>39.7</speed>
<course>276.9</course>
<desc>Speed 39.7 km/h Distance 23.36 km</desc>
<time>2011-09-29T11:08:15.69</time>
<name>3923</name>
</trkpt>
<trkpt lat="41.712167" lon="-0.667245">
<ele>469.0</ele>
<speed>39.5</speed>
<course>278.8</course>
<desc>Speed 39.5 km/h Distance 23.37 km</desc>
<time>2011-09-29T11:08:16.69</time>
<name>3924</name>
</trkpt>
<trkpt lat="41.712182" lon="-0.667375">
<ele>468.5</ele>
<speed>39.3</speed>
<course>277.8</course>
<desc>Speed 39.3 km/h Distance 23.38 km</desc>
<time>2011-09-29T11:08:17.69</time>
<name>3925</name>
</trkpt>
<trkpt lat="41.712195" lon="-0.667505">
<ele>468.5</ele>
<speed>39.2</speed>
<course>278.8</course>
<desc>Speed 39.2 km/h Distance 23.39 km</desc>
<time>2011-09-29T11:08:18.69</time>
<name>3926</name>
</trkpt>
<trkpt lat="41.712210" lon="-0.667635">
<ele>468.0</ele>
<speed>39.1</speed>
<course>279.0</course>
<desc>Speed 39.1 km/h Distance 23.40 km</desc>
<time>2011-09-29T11:08:19.69</time>
<name>3927</name>
</trkpt>
<trkpt lat="41.712225" lon="-0.667762">
<ele>467.5</ele>
<speed>38.8</speed>
<course>278.9</course>
<desc>Speed 38.8 km/h Distance 23.41 km</desc>
<time>2011-09-29T11:08:20.69</time>
<name>3928</name>
</trkpt>
<trkpt lat="41.712240" lon="-0.667890">
<ele>467.5</ele>
<speed>38.6</speed>
<course>278.5</course>
<desc>Speed 38.6 km/h Distance 23.42 km</desc>
<time>2011-09-29T11:08:21.95</time>
<name>3929</name>
</trkpt>
<trkpt lat="41.712268" lon="-0.668143">
<ele>467.0</ele>
<speed>37.7</speed>
<course>277.2</course>
<desc>Speed 37.7 km/h Distance 23.44 km</desc>
<time>2011-09-29T11:08:23.69</time>
<name>3930</name>
</trkpt>
<trkpt lat="41.712280" lon="-0.668267">
<ele>467.0</ele>
<speed>37.5</speed>
<course>278.0</course>
<desc>Speed 37.5 km/h Distance 23.45 km</desc>
<time>2011-09-29T11:08:24.69</time>
<name>3931</name>
</trkpt>
<trkpt lat="41.712293" lon="-0.668393">
<ele>467.0</ele>
<speed>37.9</speed>
<course>279.1</course>
<desc>Speed 37.9 km/h Distance 23.47 km</desc>
<time>2011-09-29T11:08:25.68</time>
<name>3932</name>
</trkpt>
<trkpt lat="41.712308" lon="-0.668518">
<ele>467.0</ele>
<speed>38.0</speed>
<course>278.0</course>
<desc>Speed 38.0 km/h Distance 23.48 km</desc>
<time>2011-09-29T11:08:26.69</time>
<name>3933</name>
</trkpt>
<trkpt lat="41.712322" lon="-0.668645">
<ele>467.0</ele>
<speed>37.7</speed>
<course>276.2</course>
<desc>Speed 37.7 km/h Distance 23.49 km</desc>
<time>2011-09-29T11:08:27.68</time>
<name>3934</name>
</trkpt>
<trkpt lat="41.712332" lon="-0.668768">
<ele>467.0</ele>
<speed>37.4</speed>
<course>277.5</course>
<desc>Speed 37.4 km/h Distance 23.50 km</desc>
<time>2011-09-29T11:08:28.89</time>
<name>3935</name>
</trkpt>
<trkpt lat="41.712357" lon="-0.669023">
<ele>467.0</ele>
<speed>38.6</speed>
<course>278.0</course>
<desc>Speed 38.6 km/h Distance 23.52 km</desc>
<time>2011-09-29T11:08:30.68</time>
<name>3936</name>
</trkpt>
<trkpt lat="41.712370" lon="-0.669150">
<ele>467.0</ele>
<speed>38.7</speed>
<course>276.9</course>
<desc>Speed 38.7 km/h Distance 23.53 km</desc>
<time>2011-09-29T11:08:31.70</time>
<name>3937</name>
</trkpt>
<trkpt lat="41.712382" lon="-0.669278">
<ele>466.5</ele>
<speed>38.4</speed>
<course>278.0</course>
<desc>Speed 38.4 km/h Distance 23.54 km</desc>
<time>2011-09-29T11:08:32.68</time>
<name>3938</name>
</trkpt>
<trkpt lat="41.712395" lon="-0.669405">
<ele>466.5</ele>
<speed>38.3</speed>
<course>276.9</course>
<desc>Speed 38.3 km/h Distance 23.55 km</desc>
<time>2011-09-29T11:08:33.69</time>
<name>3939</name>
</trkpt>
<trkpt lat="41.712407" lon="-0.669533">
<ele>466.5</ele>
<speed>38.5</speed>
<course>276.0</course>
<desc>Speed 38.5 km/h Distance 23.56 km</desc>
<time>2011-09-29T11:08:34.68</time>
<name>3940</name>
</trkpt>
<trkpt lat="41.712417" lon="-0.669660">
<ele>466.0</ele>
<speed>38.4</speed>
<course>277.0</course>
<desc>Speed 38.4 km/h Distance 23.57 km</desc>
<time>2011-09-29T11:08:35.67</time>
<name>3941</name>
</trkpt>
<trkpt lat="41.712428" lon="-0.669787">
<ele>466.0</ele>
<speed>38.3</speed>
<course>278.0</course>
<desc>Speed 38.3 km/h Distance 23.58 km</desc>
<time>2011-09-29T11:08:36.68</time>
<name>3942</name>
</trkpt>
<trkpt lat="41.712442" lon="-0.669913">
<ele>466.0</ele>
<speed>38.3</speed>
<course>276.9</course>
<desc>Speed 38.3 km/h Distance 23.59 km</desc>
<time>2011-09-29T11:08:37.67</time>
<name>3943</name>
</trkpt>
<trkpt lat="41.712453" lon="-0.670042">
<ele>465.5</ele>
<speed>38.4</speed>
<course>277.9</course>
<desc>Speed 38.4 km/h Distance 23.60 km</desc>
<time>2011-09-29T11:08:38.68</time>
<name>3944</name>
</trkpt>
<trkpt lat="41.712467" lon="-0.670170">
<ele>465.5</ele>
<speed>38.7</speed>
<course>279.0</course>
<desc>Speed 38.7 km/h Distance 23.61 km</desc>
<time>2011-09-29T11:08:39.67</time>
<name>3945</name>
</trkpt>
<trkpt lat="41.712482" lon="-0.670297">
<ele>465.0</ele>
<speed>38.7</speed>
<course>278.9</course>
<desc>Speed 38.7 km/h Distance 23.62 km</desc>
<time>2011-09-29T11:08:40.67</time>
<name>3946</name>
</trkpt>
<trkpt lat="41.712497" lon="-0.670425">
<ele>465.0</ele>
<speed>38.6</speed>
<course>277.9</course>
<desc>Speed 38.6 km/h Distance 23.64 km</desc>
<time>2011-09-29T11:08:41.67</time>
<name>3947</name>
</trkpt>
<trkpt lat="41.712510" lon="-0.670553">
<ele>465.0</ele>
<speed>38.9</speed>
<course>276.9</course>
<desc>Speed 38.9 km/h Distance 23.65 km</desc>
<time>2011-09-29T11:08:42.67</time>
<name>3948</name>
</trkpt>
<trkpt lat="41.712522" lon="-0.670683">
<ele>465.0</ele>
<speed>39.0</speed>
<course>276.0</course>
<desc>Speed 39.0 km/h Distance 23.66 km</desc>
<time>2011-09-29T11:08:43.67</time>
<name>3949</name>
</trkpt>
<trkpt lat="41.712532" lon="-0.670812">
<ele>465.0</ele>
<speed>38.8</speed>
<course>277.9</course>
<desc>Speed 38.8 km/h Distance 23.67 km</desc>
<time>2011-09-29T11:08:44.67</time>
<name>3950</name>
</trkpt>
<trkpt lat="41.712545" lon="-0.670940">
<ele>465.0</ele>
<speed>38.8</speed>
<course>277.9</course>
<desc>Speed 38.8 km/h Distance 23.68 km</desc>
<time>2011-09-29T11:08:45.67</time>
<name>3951</name>
</trkpt>
<trkpt lat="41.712558" lon="-0.671068">
<ele>465.0</ele>
<speed>38.8</speed>
<course>276.9</course>
<desc>Speed 38.8 km/h Distance 23.69 km</desc>
<time>2011-09-29T11:08:46.67</time>
<name>3952</name>
</trkpt>
<trkpt lat="41.712570" lon="-0.671197">
<ele>465.0</ele>
<speed>38.6</speed>
<course>277.0</course>
<desc>Speed 38.6 km/h Distance 23.70 km</desc>
<time>2011-09-29T11:08:47.67</time>
<name>3953</name>
</trkpt>
<trkpt lat="41.712582" lon="-0.671323">
<ele>465.0</ele>
<speed>38.4</speed>
<course>277.0</course>
<desc>Speed 38.4 km/h Distance 23.71 km</desc>
<time>2011-09-29T11:08:48.67</time>
<name>3954</name>
</trkpt>
<trkpt lat="41.712593" lon="-0.671450">
<ele>465.0</ele>
<speed>38.4</speed>
<course>278.0</course>
<desc>Speed 38.4 km/h Distance 23.72 km</desc>
<time>2011-09-29T11:08:49.67</time>
<name>3955</name>
</trkpt>
<trkpt lat="41.712620" lon="-0.671705">
<ele>465.0</ele>
<speed>38.4</speed>
<course>277.1</course>
<desc>Speed 38.4 km/h Distance 23.74 km</desc>
<time>2011-09-29T11:08:51.66</time>
<name>3956</name>
</trkpt>
<trkpt lat="41.712632" lon="-0.671830">
<ele>465.0</ele>
<speed>37.9</speed>
<course>277.2</course>
<desc>Speed 37.9 km/h Distance 23.75 km</desc>
<time>2011-09-29T11:08:52.67</time>
<name>3957</name>
</trkpt>
<trkpt lat="41.712643" lon="-0.671953">
<ele>465.0</ele>
<speed>37.0</speed>
<course>278.5</course>
<desc>Speed 37.0 km/h Distance 23.76 km</desc>
<time>2011-09-29T11:08:53.66</time>
<name>3958</name>
</trkpt>
<trkpt lat="41.712657" lon="-0.672073">
<ele>465.0</ele>
<speed>36.4</speed>
<course>279.6</course>
<desc>Speed 36.4 km/h Distance 23.77 km</desc>
<time>2011-09-29T11:08:54.66</time>
<name>3959</name>
</trkpt>
<trkpt lat="41.712672" lon="-0.672192">
<ele>465.0</ele>
<speed>35.9</speed>
<course>278.7</course>
<desc>Speed 35.9 km/h Distance 23.78 km</desc>
<time>2011-09-29T11:08:55.66</time>
<name>3960</name>
</trkpt>
<trkpt lat="41.712685" lon="-0.672308">
<ele>465.0</ele>
<speed>35.4</speed>
<course>277.5</course>
<desc>Speed 35.4 km/h Distance 23.79 km</desc>
<time>2011-09-29T11:08:56.66</time>
<name>3961</name>
</trkpt>
<trkpt lat="41.712697" lon="-0.672427">
<ele>464.5</ele>
<speed>35.5</speed>
<course>277.6</course>
<desc>Speed 35.5 km/h Distance 23.80 km</desc>
<time>2011-09-29T11:08:57.66</time>
<name>3962</name>
</trkpt>
<trkpt lat="41.712708" lon="-0.672543">
<ele>464.5</ele>
<speed>35.6</speed>
<course>276.6</course>
<desc>Speed 35.6 km/h Distance 23.81 km</desc>
<time>2011-09-29T11:08:58.66</time>
<name>3963</name>
</trkpt>
<trkpt lat="41.712718" lon="-0.672660">
<ele>464.5</ele>
<speed>35.1</speed>
<course>277.7</course>
<desc>Speed 35.1 km/h Distance 23.82 km</desc>
<time>2011-09-29T11:08:59.66</time>
<name>3964</name>
</trkpt>
<trkpt lat="41.712730" lon="-0.672775">
<ele>464.5</ele>
<speed>34.8</speed>
<course>277.7</course>
<desc>Speed 34.8 km/h Distance 23.83 km</desc>
<time>2011-09-29T11:09:00.96</time>
<name>3965</name>
</trkpt>
<trkpt lat="41.712753" lon="-0.673007">
<ele>464.5</ele>
<speed>34.6</speed>
<course>276.7</course>
<desc>Speed 34.6 km/h Distance 23.85 km</desc>
<time>2011-09-29T11:09:02.66</time>
<name>3966</name>
</trkpt>
<trkpt lat="41.712763" lon="-0.673120">
<ele>464.5</ele>
<speed>34.6</speed>
<course>277.9</course>
<desc>Speed 34.6 km/h Distance 23.86 km</desc>
<time>2011-09-29T11:09:03.66</time>
<name>3967</name>
</trkpt>
<trkpt lat="41.712775" lon="-0.673233">
<ele>464.5</ele>
<speed>34.2</speed>
<course>276.8</course>
<desc>Speed 34.2 km/h Distance 23.87 km</desc>
<time>2011-09-29T11:09:04.65</time>
<name>3968</name>
</trkpt>
<trkpt lat="41.712785" lon="-0.673345">
<ele>464.5</ele>
<speed>33.8</speed>
<course>276.8</course>
<desc>Speed 33.8 km/h Distance 23.88 km</desc>
<time>2011-09-29T11:09:05.65</time>
<name>3969</name>
</trkpt>
<trkpt lat="41.712795" lon="-0.673457">
<ele>464.5</ele>
<speed>33.3</speed>
<course>278.2</course>
<desc>Speed 33.3 km/h Distance 23.89 km</desc>
<time>2011-09-29T11:09:06.66</time>
<name>3970</name>
</trkpt>
<trkpt lat="41.712807" lon="-0.673565">
<ele>464.5</ele>
<speed>33.2</speed>
<course>279.4</course>
<desc>Speed 33.2 km/h Distance 23.90 km</desc>
<time>2011-09-29T11:09:07.90</time>
<name>3971</name>
</trkpt>
<trkpt lat="41.712833" lon="-0.673780">
<ele>464.5</ele>
<speed>32.3</speed>
<course>278.3</course>
<desc>Speed 32.3 km/h Distance 23.92 km</desc>
<time>2011-09-29T11:09:09.65</time>
<name>3972</name>
</trkpt>
<trkpt lat="41.712845" lon="-0.673887">
<ele>464.5</ele>
<speed>32.1</speed>
<course>277.3</course>
<desc>Speed 32.1 km/h Distance 23.93 km</desc>
<time>2011-09-29T11:09:10.69</time>
<name>3973</name>
</trkpt>
<trkpt lat="41.712855" lon="-0.673992">
<ele>464.5</ele>
<speed>31.9</speed>
<course>276.0</course>
<desc>Speed 31.9 km/h Distance 23.93 km</desc>
<time>2011-09-29T11:09:11.65</time>
<name>3974</name>
</trkpt>
<trkpt lat="41.712863" lon="-0.674098">
<ele>464.5</ele>
<speed>31.8</speed>
<course>278.6</course>
<desc>Speed 31.8 km/h Distance 23.94 km</desc>
<time>2011-09-29T11:09:12.65</time>
<name>3975</name>
</trkpt>
<trkpt lat="41.712875" lon="-0.674202">
<ele>464.5</ele>
<speed>31.4</speed>
<course>277.4</course>
<desc>Speed 31.4 km/h Distance 23.95 km</desc>
<time>2011-09-29T11:09:13.65</time>
<name>3976</name>
</trkpt>
<trkpt lat="41.712895" lon="-0.674408">
<ele>464.5</ele>
<speed>31.1</speed>
<course>276.4</course>
<desc>Speed 31.1 km/h Distance 23.97 km</desc>
<time>2011-09-29T11:09:15.65</time>
<name>3977</name>
</trkpt>
<trkpt lat="41.712903" lon="-0.674508">
<ele>464.5</ele>
<speed>30.0</speed>
<course>276.6</course>
<desc>Speed 30.0 km/h Distance 23.98 km</desc>
<time>2011-09-29T11:09:16.65</time>
<name>3978</name>
</trkpt>
<trkpt lat="41.712912" lon="-0.674605">
<ele>465.0</ele>
<speed>29.1</speed>
<course>279.5</course>
<desc>Speed 29.1 km/h Distance 23.99 km</desc>
<time>2011-09-29T11:09:17.65</time>
<name>3979</name>
</trkpt>
<trkpt lat="41.712923" lon="-0.674698">
<ele>465.0</ele>
<speed>28.6</speed>
<course>279.5</course>
<desc>Speed 28.6 km/h Distance 23.99 km</desc>
<time>2011-09-29T11:09:18.65</time>
<name>3980</name>
</trkpt>
<trkpt lat="41.712935" lon="-0.674792">
<ele>464.5</ele>
<speed>28.3</speed>
<course>279.3</course>
<desc>Speed 28.3 km/h Distance 24.00 km</desc>
<time>2011-09-29T11:09:19.65</time>
<name>3981</name>
</trkpt>
<trkpt lat="41.712947" lon="-0.674887">
<ele>464.5</ele>
<speed>28.9</speed>
<course>276.6</course>
<desc>Speed 28.9 km/h Distance 24.01 km</desc>
<time>2011-09-29T11:09:20.65</time>
<name>3982</name>
</trkpt>
<trkpt lat="41.712955" lon="-0.674983">
<ele>464.5</ele>
<speed>29.1</speed>
<course>273.9</course>
<desc>Speed 29.1 km/h Distance 24.02 km</desc>
<time>2011-09-29T11:09:21.65</time>
<name>3983</name>
</trkpt>
<trkpt lat="41.712960" lon="-0.675082">
<ele>464.5</ele>
<speed>29.7</speed>
<course>277.5</course>
<desc>Speed 29.7 km/h Distance 24.03 km</desc>
<time>2011-09-29T11:09:22.64</time>
<name>3984</name>
</trkpt>
<trkpt lat="41.712970" lon="-0.675183">
<ele>464.5</ele>
<speed>30.6</speed>
<course>276.2</course>
<desc>Speed 30.6 km/h Distance 24.03 km</desc>
<time>2011-09-29T11:09:23.64</time>
<name>3985</name>
</trkpt>
<trkpt lat="41.712978" lon="-0.675287">
<ele>464.5</ele>
<speed>31.0</speed>
<course>276.3</course>
<desc>Speed 31.0 km/h Distance 24.04 km</desc>
<time>2011-09-29T11:09:24.64</time>
<name>3986</name>
</trkpt>
<trkpt lat="41.712987" lon="-0.675388">
<ele>464.5</ele>
<speed>30.8</speed>
<course>276.3</course>
<desc>Speed 30.8 km/h Distance 24.05 km</desc>
<time>2011-09-29T11:09:25.64</time>
<name>3987</name>
</trkpt>
<trkpt lat="41.712995" lon="-0.675490">
<ele>464.5</ele>
<speed>30.5</speed>
<course>277.6</course>
<desc>Speed 30.5 km/h Distance 24.06 km</desc>
<time>2011-09-29T11:09:26.64</time>
<name>3988</name>
</trkpt>
<trkpt lat="41.713005" lon="-0.675590">
<ele>464.5</ele>
<speed>30.3</speed>
<course>277.6</course>
<desc>Speed 30.3 km/h Distance 24.07 km</desc>
<time>2011-09-29T11:09:27.64</time>
<name>3989</name>
</trkpt>
<trkpt lat="41.713015" lon="-0.675690">
<ele>464.5</ele>
<speed>30.0</speed>
<course>276.5</course>
<desc>Speed 30.0 km/h Distance 24.08 km</desc>
<time>2011-09-29T11:09:28.65</time>
<name>3990</name>
</trkpt>
<trkpt lat="41.713023" lon="-0.675788">
<ele>464.5</ele>
<speed>29.8</speed>
<course>277.4</course>
<desc>Speed 29.8 km/h Distance 24.09 km</desc>
<time>2011-09-29T11:09:30.18</time>
<name>3991</name>
</trkpt>
<trkpt lat="41.713052" lon="-0.676082">
<ele>464.5</ele>
<speed>29.4</speed>
<course>276.5</course>
<desc>Speed 29.4 km/h Distance 24.11 km</desc>
<time>2011-09-29T11:09:32.64</time>
<name>3992</name>
</trkpt>
<trkpt lat="41.713060" lon="-0.676180">
<ele>464.5</ele>
<speed>29.5</speed>
<course>277.9</course>
<desc>Speed 29.5 km/h Distance 24.12 km</desc>
<time>2011-09-29T11:09:33.64</time>
<name>3993</name>
</trkpt>
<trkpt lat="41.713070" lon="-0.676277">
<ele>464.0</ele>
<speed>29.5</speed>
<course>279.2</course>
<desc>Speed 29.5 km/h Distance 24.13 km</desc>
<time>2011-09-29T11:09:34.64</time>
<name>3994</name>
</trkpt>
<trkpt lat="41.713082" lon="-0.676373">
<ele>464.0</ele>
<speed>29.3</speed>
<course>277.9</course>
<desc>Speed 29.3 km/h Distance 24.13 km</desc>
<time>2011-09-29T11:09:35.64</time>
<name>3995</name>
</trkpt>
<trkpt lat="41.713092" lon="-0.676470">
<ele>464.0</ele>
<speed>29.3</speed>
<course>276.6</course>
<desc>Speed 29.3 km/h Distance 24.14 km</desc>
<time>2011-09-29T11:09:36.64</time>
<name>3996</name>
</trkpt>
<trkpt lat="41.713100" lon="-0.676567">
<ele>464.0</ele>
<speed>29.2</speed>
<course>278.0</course>
<desc>Speed 29.2 km/h Distance 24.15 km</desc>
<time>2011-09-29T11:09:37.63</time>
<name>3997</name>
</trkpt>
<trkpt lat="41.713110" lon="-0.676662">
<ele>464.0</ele>
<speed>28.7</speed>
<course>276.7</course>
<desc>Speed 28.7 km/h Distance 24.16 km</desc>
<time>2011-09-29T11:09:38.63</time>
<name>3998</name>
</trkpt>
<trkpt lat="41.713118" lon="-0.676757">
<ele>463.5</ele>
<speed>28.2</speed>
<course>276.9</course>
<desc>Speed 28.2 km/h Distance 24.17 km</desc>
<time>2011-09-29T11:09:39.92</time>
<name>3999</name>
</trkpt>
<trkpt lat="41.713135" lon="-0.676940">
<ele>463.5</ele>
<speed>27.5</speed>
<course>278.6</course>
<desc>Speed 27.5 km/h Distance 24.18 km</desc>
<time>2011-09-29T11:09:41.63</time>
<name>4000</name>
</trkpt>
<trkpt lat="41.713145" lon="-0.677028">
<ele>463.5</ele>
<speed>26.8</speed>
<course>281.6</course>
<desc>Speed 26.8 km/h Distance 24.19 km</desc>
<time>2011-09-29T11:09:42.63</time>
<name>4001</name>
</trkpt>
<trkpt lat="41.713158" lon="-0.677115">
<ele>463.5</ele>
<speed>26.7</speed>
<course>278.6</course>
<desc>Speed 26.7 km/h Distance 24.20 km</desc>
<time>2011-09-29T11:09:43.63</time>
<name>4002</name>
</trkpt>
<trkpt lat="41.713168" lon="-0.677203">
<ele>463.5</ele>
<speed>26.7</speed>
<course>275.8</course>
<desc>Speed 26.7 km/h Distance 24.20 km</desc>
<time>2011-09-29T11:09:44.63</time>
<name>4003</name>
</trkpt>
<trkpt lat="41.713175" lon="-0.677292">
<ele>463.5</ele>
<speed>26.6</speed>
<course>275.9</course>
<desc>Speed 26.6 km/h Distance 24.21 km</desc>
<time>2011-09-29T11:09:45.63</time>
<name>4004</name>
</trkpt>
<trkpt lat="41.713182" lon="-0.677378">
<ele>463.5</ele>
<speed>26.1</speed>
<course>278.9</course>
<desc>Speed 26.1 km/h Distance 24.22 km</desc>
<time>2011-09-29T11:09:46.85</time>
<name>4005</name>
</trkpt>
<trkpt lat="41.713202" lon="-0.677550">
<ele>463.0</ele>
<speed>26.0</speed>
<course>279.0</course>
<desc>Speed 26.0 km/h Distance 24.23 km</desc>
<time>2011-09-29T11:09:48.63</time>
<name>4006</name>
</trkpt>
<trkpt lat="41.713212" lon="-0.677635">
<ele>463.0</ele>
<speed>25.7</speed>
<course>277.5</course>
<desc>Speed 25.7 km/h Distance 24.24 km</desc>
<time>2011-09-29T11:09:49.65</time>
<name>4007</name>
</trkpt>
<trkpt lat="41.713220" lon="-0.677720">
<ele>463.0</ele>
<speed>25.6</speed>
<course>276.1</course>
<desc>Speed 25.6 km/h Distance 24.25 km</desc>
<time>2011-09-29T11:09:50.63</time>
<name>4008</name>
</trkpt>
<trkpt lat="41.713227" lon="-0.677803">
<ele>463.0</ele>
<speed>25.5</speed>
<course>276.1</course>
<desc>Speed 25.5 km/h Distance 24.25 km</desc>
<time>2011-09-29T11:09:51.63</time>
<name>4009</name>
</trkpt>
<trkpt lat="41.713233" lon="-0.677887">
<ele>463.0</ele>
<speed>25.2</speed>
<course>277.6</course>
<desc>Speed 25.2 km/h Distance 24.26 km</desc>
<time>2011-09-29T11:09:52.63</time>
<name>4010</name>
</trkpt>
<trkpt lat="41.713242" lon="-0.677970">
<ele>463.0</ele>
<speed>25.1</speed>
<course>277.6</course>
<desc>Speed 25.1 km/h Distance 24.27 km</desc>
<time>2011-09-29T11:09:53.62</time>
<name>4011</name>
</trkpt>
<trkpt lat="41.713250" lon="-0.678053">
<ele>462.5</ele>
<speed>25.3</speed>
<course>277.3</course>
<desc>Speed 25.3 km/h Distance 24.28 km</desc>
<time>2011-09-29T11:09:54.63</time>
<name>4012</name>
</trkpt>
<trkpt lat="41.713258" lon="-0.678140">
<ele>462.0</ele>
<speed>26.3</speed>
<course>278.5</course>
<desc>Speed 26.3 km/h Distance 24.28 km</desc>
<time>2011-09-29T11:09:55.62</time>
<name>4013</name>
</trkpt>
<trkpt lat="41.713268" lon="-0.678230">
<ele>462.0</ele>
<speed>26.9</speed>
<course>277.1</course>
<desc>Speed 26.9 km/h Distance 24.29 km</desc>
<time>2011-09-29T11:09:56.62</time>
<name>4014</name>
</trkpt>
<trkpt lat="41.713277" lon="-0.678320">
<ele>461.5</ele>
<speed>27.5</speed>
<course>276.9</course>
<desc>Speed 27.5 km/h Distance 24.30 km</desc>
<time>2011-09-29T11:09:57.62</time>
<name>4015</name>
</trkpt>
<trkpt lat="41.713285" lon="-0.678412">
<ele>461.0</ele>
<speed>27.9</speed>
<course>277.1</course>
<desc>Speed 27.9 km/h Distance 24.31 km</desc>
<time>2011-09-29T11:09:59.38</time>
<name>4016</name>
</trkpt>
<trkpt lat="41.713312" lon="-0.678697">
<ele>460.0</ele>
<speed>28.9</speed>
<course>277.9</course>
<desc>Speed 28.9 km/h Distance 24.33 km</desc>
<time>2011-09-29T11:10:01.62</time>
<name>4017</name>
</trkpt>
<trkpt lat="41.713322" lon="-0.678793">
<ele>460.0</ele>
<speed>29.3</speed>
<course>280.5</course>
<desc>Speed 29.3 km/h Distance 24.34 km</desc>
<time>2011-09-29T11:10:02.62</time>
<name>4018</name>
</trkpt>
<trkpt lat="41.713335" lon="-0.678890">
<ele>459.5</ele>
<speed>29.4</speed>
<course>277.6</course>
<desc>Speed 29.4 km/h Distance 24.35 km</desc>
<time>2011-09-29T11:10:03.62</time>
<name>4019</name>
</trkpt>
<trkpt lat="41.713345" lon="-0.678990">
<ele>459.5</ele>
<speed>30.1</speed>
<course>278.7</course>
<desc>Speed 30.1 km/h Distance 24.35 km</desc>
<time>2011-09-29T11:10:04.62</time>
<name>4020</name>
</trkpt>
<trkpt lat="41.713357" lon="-0.679092">
<ele>459.0</ele>
<speed>30.6</speed>
<course>277.5</course>
<desc>Speed 30.6 km/h Distance 24.36 km</desc>
<time>2011-09-29T11:10:05.61</time>
<name>4021</name>
</trkpt>
<trkpt lat="41.713367" lon="-0.679193">
<ele>459.0</ele>
<speed>30.7</speed>
<course>277.5</course>
<desc>Speed 30.7 km/h Distance 24.37 km</desc>
<time>2011-09-29T11:10:06.62</time>
<name>4022</name>
</trkpt>
<trkpt lat="41.713377" lon="-0.679295">
<ele>458.5</ele>
<speed>30.7</speed>
<course>277.5</course>
<desc>Speed 30.7 km/h Distance 24.38 km</desc>
<time>2011-09-29T11:10:07.62</time>
<name>4023</name>
</trkpt>
<trkpt lat="41.713387" lon="-0.679397">
<ele>458.5</ele>
<speed>30.7</speed>
<course>276.9</course>
<desc>Speed 30.7 km/h Distance 24.39 km</desc>
<time>2011-09-29T11:10:09.12</time>
<name>4024</name>
</trkpt>
<trkpt lat="41.713405" lon="-0.679600">
<ele>458.0</ele>
<speed>30.4</speed>
<course>275.0</course>
<desc>Speed 30.4 km/h Distance 24.40 km</desc>
<time>2011-09-29T11:10:10.61</time>
<name>4025</name>
</trkpt>
<trkpt lat="41.713412" lon="-0.679702">
<ele>458.0</ele>
<speed>30.3</speed>
<course>276.4</course>
<desc>Speed 30.3 km/h Distance 24.41 km</desc>
<time>2011-09-29T11:10:11.61</time>
<name>4026</name>
</trkpt>
<trkpt lat="41.713420" lon="-0.679802">
<ele>458.0</ele>
<speed>30.3</speed>
<course>280.1</course>
<desc>Speed 30.3 km/h Distance 24.42 km</desc>
<time>2011-09-29T11:10:12.61</time>
<name>4027</name>
</trkpt>
<trkpt lat="41.713433" lon="-0.679902">
<ele>457.5</ele>
<speed>30.1</speed>
<course>280.3</course>
<desc>Speed 30.1 km/h Distance 24.43 km</desc>
<time>2011-09-29T11:10:13.61</time>
<name>4028</name>
</trkpt>
<trkpt lat="41.713447" lon="-0.680000">
<ele>457.5</ele>
<speed>30.0</speed>
<course>276.4</course>
<desc>Speed 30.0 km/h Distance 24.44 km</desc>
<time>2011-09-29T11:10:14.61</time>
<name>4029</name>
</trkpt>
<trkpt lat="41.713455" lon="-0.680100">
<ele>457.5</ele>
<speed>30.1</speed>
<course>276.4</course>
<desc>Speed 30.1 km/h Distance 24.45 km</desc>
<time>2011-09-29T11:10:15.61</time>
<name>4030</name>
</trkpt>
<trkpt lat="41.713463" lon="-0.680200">
<ele>457.5</ele>
<speed>29.8</speed>
<course>275.2</course>
<desc>Speed 29.8 km/h Distance 24.46 km</desc>
<time>2011-09-29T11:10:16.61</time>
<name>4031</name>
</trkpt>
<trkpt lat="41.713470" lon="-0.680298">
<ele>457.5</ele>
<speed>29.6</speed>
<course>279.3</course>
<desc>Speed 29.6 km/h Distance 24.46 km</desc>
<time>2011-09-29T11:10:17.61</time>
<name>4032</name>
</trkpt>
<trkpt lat="41.713482" lon="-0.680393">
<ele>457.0</ele>
<speed>29.0</speed>
<course>278.0</course>
<desc>Speed 29.0 km/h Distance 24.47 km</desc>
<time>2011-09-29T11:10:18.85</time>
<name>4033</name>
</trkpt>
<trkpt lat="41.713502" lon="-0.680583">
<ele>457.0</ele>
<speed>28.8</speed>
<course>276.7</course>
<desc>Speed 28.8 km/h Distance 24.49 km</desc>
<time>2011-09-29T11:10:20.61</time>
<name>4034</name>
</trkpt>
<trkpt lat="41.713510" lon="-0.680678">
<ele>457.0</ele>
<speed>28.9</speed>
<course>279.2</course>
<desc>Speed 28.9 km/h Distance 24.50 km</desc>
<time>2011-09-29T11:10:21.61</time>
<name>4035</name>
</trkpt>
<trkpt lat="41.713522" lon="-0.680775">
<ele>457.0</ele>
<speed>29.1</speed>
<course>279.3</course>
<desc>Speed 29.1 km/h Distance 24.50 km</desc>
<time>2011-09-29T11:10:22.61</time>
<name>4036</name>
</trkpt>
<trkpt lat="41.713533" lon="-0.680870">
<ele>457.5</ele>
<speed>28.8</speed>
<course>276.8</course>
<desc>Speed 28.8 km/h Distance 24.51 km</desc>
<time>2011-09-29T11:10:23.60</time>
<name>4037</name>
</trkpt>
<trkpt lat="41.713542" lon="-0.680963">
<ele>457.5</ele>
<speed>28.2</speed>
<course>276.9</course>
<desc>Speed 28.2 km/h Distance 24.52 km</desc>
<time>2011-09-29T11:10:24.61</time>
<name>4038</name>
</trkpt>
<trkpt lat="41.713550" lon="-0.681055">
<ele>457.5</ele>
<speed>27.5</speed>
<course>277.9</course>
<desc>Speed 27.5 km/h Distance 24.53 km</desc>
<time>2011-09-29T11:10:25.78</time>
<name>4039</name>
</trkpt>
<trkpt lat="41.713568" lon="-0.681232">
<ele>457.5</ele>
<speed>26.6</speed>
<course>277.5</course>
<desc>Speed 26.6 km/h Distance 24.54 km</desc>
<time>2011-09-29T11:10:27.60</time>
<name>4040</name>
</trkpt>
<trkpt lat="41.713577" lon="-0.681317">
<ele>457.5</ele>
<speed>25.8</speed>
<course>276.1</course>
<desc>Speed 25.8 km/h Distance 24.55 km</desc>
<time>2011-09-29T11:10:28.61</time>
<name>4041</name>
</trkpt>
<trkpt lat="41.713583" lon="-0.681400">
<ele>457.5</ele>
<speed>25.1</speed>
<course>277.8</course>
<desc>Speed 25.1 km/h Distance 24.56 km</desc>
<time>2011-09-29T11:10:29.60</time>
<name>4042</name>
</trkpt>
<trkpt lat="41.713592" lon="-0.681482">
<ele>457.5</ele>
<speed>24.6</speed>
<course>277.8</course>
<desc>Speed 24.6 km/h Distance 24.56 km</desc>
<time>2011-09-29T11:10:30.60</time>
<name>4043</name>
</trkpt>
<trkpt lat="41.713600" lon="-0.681563">
<ele>458.0</ele>
<speed>24.5</speed>
<course>277.9</course>
<desc>Speed 24.5 km/h Distance 24.57 km</desc>
<time>2011-09-29T11:10:31.60</time>
<name>4044</name>
</trkpt>
<trkpt lat="41.713608" lon="-0.681643">
<ele>458.0</ele>
<speed>24.5</speed>
<course>276.1</course>
<desc>Speed 24.5 km/h Distance 24.58 km</desc>
<time>2011-09-29T11:10:32.60</time>
<name>4045</name>
</trkpt>
<trkpt lat="41.713615" lon="-0.681727">
<ele>458.0</ele>
<speed>24.9</speed>
<course>277.6</course>
<desc>Speed 24.9 km/h Distance 24.58 km</desc>
<time>2011-09-29T11:10:33.60</time>
<name>4046</name>
</trkpt>
<trkpt lat="41.713623" lon="-0.681810">
<ele>458.0</ele>
<speed>25.5</speed>
<course>277.5</course>
<desc>Speed 25.5 km/h Distance 24.59 km</desc>
<time>2011-09-29T11:10:34.60</time>
<name>4047</name>
</trkpt>
<trkpt lat="41.713632" lon="-0.681895">
<ele>458.0</ele>
<speed>25.3</speed>
<course>277.5</course>
<desc>Speed 25.3 km/h Distance 24.60 km</desc>
<time>2011-09-29T11:10:35.60</time>
<name>4048</name>
</trkpt>
<trkpt lat="41.713640" lon="-0.681980">
<ele>457.5</ele>
<speed>25.4</speed>
<course>277.8</course>
<desc>Speed 25.4 km/h Distance 24.60 km</desc>
<time>2011-09-29T11:10:36.60</time>
<name>4049</name>
</trkpt>
<trkpt lat="41.713648" lon="-0.682062">
<ele>458.0</ele>
<speed>25.1</speed>
<course>278.2</course>
<desc>Speed 25.1 km/h Distance 24.61 km</desc>
<time>2011-09-29T11:10:38.35</time>
<name>4050</name>
</trkpt>
<trkpt lat="41.713675" lon="-0.682308">
<ele>458.0</ele>
<speed>25.1</speed>
<course>277.6</course>
<desc>Speed 25.1 km/h Distance 24.63 km</desc>
<time>2011-09-29T11:10:40.60</time>
<name>4051</name>
</trkpt>
<trkpt lat="41.713683" lon="-0.682392">
<ele>458.0</ele>
<speed>25.1</speed>
<course>278.8</course>
<desc>Speed 25.1 km/h Distance 24.64 km</desc>
<time>2011-09-29T11:10:41.59</time>
<name>4052</name>
</trkpt>
<trkpt lat="41.713693" lon="-0.682478">
<ele>457.5</ele>
<speed>25.7</speed>
<course>277.6</course>
<desc>Speed 25.7 km/h Distance 24.65 km</desc>
<time>2011-09-29T11:10:42.59</time>
<name>4053</name>
</trkpt>
<trkpt lat="41.713702" lon="-0.682562">
<ele>457.5</ele>
<speed>25.4</speed>
<course>277.6</course>
<desc>Speed 25.4 km/h Distance 24.65 km</desc>
<time>2011-09-29T11:10:43.59</time>
<name>4054</name>
</trkpt>
<trkpt lat="41.713710" lon="-0.682645">
<ele>457.5</ele>
<speed>25.3</speed>
<course>277.5</course>
<desc>Speed 25.3 km/h Distance 24.66 km</desc>
<time>2011-09-29T11:10:44.59</time>
<name>4055</name>
</trkpt>
<trkpt lat="41.713718" lon="-0.682730">
<ele>457.5</ele>
<speed>25.7</speed>
<course>277.3</course>
<desc>Speed 25.7 km/h Distance 24.67 km</desc>
<time>2011-09-29T11:10:45.59</time>
<name>4056</name>
</trkpt>
<trkpt lat="41.713727" lon="-0.682817">
<ele>458.0</ele>
<speed>26.2</speed>
<course>280.2</course>
<desc>Speed 26.2 km/h Distance 24.67 km</desc>
<time>2011-09-29T11:10:46.59</time>
<name>4057</name>
</trkpt>
<trkpt lat="41.713738" lon="-0.682903">
<ele>458.0</ele>
<speed>26.3</speed>
<course>279.1</course>
<desc>Speed 26.3 km/h Distance 24.68 km</desc>
<time>2011-09-29T11:10:48.08</time>
<name>4058</name>
</trkpt>
<trkpt lat="41.713772" lon="-0.683182">
<ele>457.5</ele>
<speed>28.2</speed>
<course>278.6</course>
<desc>Speed 28.2 km/h Distance 24.71 km</desc>
<time>2011-09-29T11:10:50.59</time>
<name>4059</name>
</trkpt>
<trkpt lat="41.713782" lon="-0.683270">
<ele>458.0</ele>
<speed>27.0</speed>
<course>277.1</course>
<desc>Speed 27.0 km/h Distance 24.71 km</desc>
<time>2011-09-29T11:10:51.59</time>
<name>4060</name>
</trkpt>
<trkpt lat="41.713790" lon="-0.683360">
<ele>458.0</ele>
<speed>27.0</speed>
<course>275.7</course>
<desc>Speed 27.0 km/h Distance 24.72 km</desc>
<time>2011-09-29T11:10:52.59</time>
<name>4061</name>
</trkpt>
<trkpt lat="41.713797" lon="-0.683450">
<ele>458.0</ele>
<speed>27.0</speed>
<course>278.6</course>
<desc>Speed 27.0 km/h Distance 24.73 km</desc>
<time>2011-09-29T11:10:53.59</time>
<name>4062</name>
</trkpt>
<trkpt lat="41.713807" lon="-0.683538">
<ele>458.0</ele>
<speed>27.0</speed>
<course>277.3</course>
<desc>Speed 27.0 km/h Distance 24.74 km</desc>
<time>2011-09-29T11:10:54.58</time>
<name>4063</name>
</trkpt>
<trkpt lat="41.713815" lon="-0.683625">
<ele>458.0</ele>
<speed>26.1</speed>
<course>277.5</course>
<desc>Speed 26.1 km/h Distance 24.74 km</desc>
<time>2011-09-29T11:10:55.59</time>
<name>4064</name>
</trkpt>
<trkpt lat="41.713823" lon="-0.683710">
<ele>458.0</ele>
<speed>25.7</speed>
<course>277.6</course>
<desc>Speed 25.7 km/h Distance 24.75 km</desc>
<time>2011-09-29T11:10:56.58</time>
<name>4065</name>
</trkpt>
<trkpt lat="41.713832" lon="-0.683793">
<ele>458.5</ele>
<speed>25.4</speed>
<course>275.3</course>
<desc>Speed 25.4 km/h Distance 24.76 km</desc>
<time>2011-09-29T11:10:57.82</time>
<name>4066</name>
</trkpt>
<trkpt lat="41.713843" lon="-0.683962">
<ele>458.5</ele>
<speed>25.2</speed>
<course>277.8</course>
<desc>Speed 25.2 km/h Distance 24.77 km</desc>
<time>2011-09-29T11:10:59.58</time>
<name>4067</name>
</trkpt>
<trkpt lat="41.713852" lon="-0.684043">
<ele>458.5</ele>
<speed>24.8</speed>
<course>277.5</course>
<desc>Speed 24.8 km/h Distance 24.78 km</desc>
<time>2011-09-29T11:11:00.58</time>
<name>4068</name>
</trkpt>
<trkpt lat="41.713860" lon="-0.684128">
<ele>458.5</ele>
<speed>25.3</speed>
<course>277.6</course>
<desc>Speed 25.3 km/h Distance 24.78 km</desc>
<time>2011-09-29T11:11:01.58</time>
<name>4069</name>
</trkpt>
<trkpt lat="41.713868" lon="-0.684212">
<ele>459.0</ele>
<speed>25.2</speed>
<course>277.6</course>
<desc>Speed 25.2 km/h Distance 24.79 km</desc>
<time>2011-09-29T11:11:02.58</time>
<name>4070</name>
</trkpt>
<trkpt lat="41.713877" lon="-0.684295">
<ele>459.0</ele>
<speed>25.1</speed>
<course>279.1</course>
<desc>Speed 25.1 km/h Distance 24.80 km</desc>
<time>2011-09-29T11:11:03.58</time>
<name>4071</name>
</trkpt>
<trkpt lat="41.713887" lon="-0.684378">
<ele>459.0</ele>
<speed>25.2</speed>
<course>279.2</course>
<desc>Speed 25.2 km/h Distance 24.81 km</desc>
<time>2011-09-29T11:11:04.75</time>
<name>4072</name>
</trkpt>
<trkpt lat="41.713907" lon="-0.684543">
<ele>459.0</ele>
<speed>25.0</speed>
<course>276.2</course>
<desc>Speed 25.0 km/h Distance 24.82 km</desc>
<time>2011-09-29T11:11:06.58</time>
<name>4073</name>
</trkpt>
<trkpt lat="41.713913" lon="-0.684625">
<ele>459.0</ele>
<speed>24.6</speed>
<course>277.9</course>
<desc>Speed 24.6 km/h Distance 24.83 km</desc>
<time>2011-09-29T11:11:07.60</time>
<name>4074</name>
</trkpt>
<trkpt lat="41.713922" lon="-0.684705">
<ele>459.0</ele>
<speed>24.3</speed>
<course>277.9</course>
<desc>Speed 24.3 km/h Distance 24.83 km</desc>
<time>2011-09-29T11:11:08.58</time>
<name>4075</name>
</trkpt>
<trkpt lat="41.713930" lon="-0.684785">
<ele>459.5</ele>
<speed>24.2</speed>
<course>277.9</course>
<desc>Speed 24.2 km/h Distance 24.84 km</desc>
<time>2011-09-29T11:11:09.58</time>
<name>4076</name>
</trkpt>
<trkpt lat="41.713938" lon="-0.684865">
<ele>459.5</ele>
<speed>24.3</speed>
<course>279.5</course>
<desc>Speed 24.3 km/h Distance 24.85 km</desc>
<time>2011-09-29T11:11:10.57</time>
<name>4077</name>
</trkpt>
<trkpt lat="41.713948" lon="-0.684945">
<ele>459.5</ele>
<speed>24.5</speed>
<course>277.8</course>
<desc>Speed 24.5 km/h Distance 24.85 km</desc>
<time>2011-09-29T11:11:11.57</time>
<name>4078</name>
</trkpt>
<trkpt lat="41.713957" lon="-0.685027">
<ele>460.0</ele>
<speed>24.4</speed>
<course>277.9</course>
<desc>Speed 24.4 km/h Distance 24.86 km</desc>
<time>2011-09-29T11:11:12.57</time>
<name>4079</name>
</trkpt>
<trkpt lat="41.713965" lon="-0.685107">
<ele>460.0</ele>
<speed>24.4</speed>
<course>276.2</course>
<desc>Speed 24.4 km/h Distance 24.87 km</desc>
<time>2011-09-29T11:11:13.57</time>
<name>4080</name>
</trkpt>
<trkpt lat="41.713972" lon="-0.685188">
<ele>460.0</ele>
<speed>24.5</speed>
<course>276.2</course>
<desc>Speed 24.5 km/h Distance 24.87 km</desc>
<time>2011-09-29T11:11:14.57</time>
<name>4081</name>
</trkpt>
<trkpt lat="41.713978" lon="-0.685270">
<ele>460.0</ele>
<speed>24.8</speed>
<course>277.8</course>
<desc>Speed 24.8 km/h Distance 24.88 km</desc>
<time>2011-09-29T11:11:15.57</time>
<name>4082</name>
</trkpt>
<trkpt lat="41.713987" lon="-0.685352">
<ele>460.5</ele>
<speed>24.7</speed>
<course>278.7</course>
<desc>Speed 24.7 km/h Distance 24.89 km</desc>
<time>2011-09-29T11:11:17.29</time>
<name>4083</name>
</trkpt>
<trkpt lat="41.714015" lon="-0.685598">
<ele>461.0</ele>
<speed>24.9</speed>
<course>277.6</course>
<desc>Speed 24.9 km/h Distance 24.91 km</desc>
<time>2011-09-29T11:11:19.57</time>
<name>4084</name>
</trkpt>
<trkpt lat="41.714023" lon="-0.685682">
<ele>461.0</ele>
<speed>24.7</speed>
<course>276.4</course>
<desc>Speed 24.7 km/h Distance 24.91 km</desc>
<time>2011-09-29T11:11:20.57</time>
<name>4085</name>
</trkpt>
<trkpt lat="41.714030" lon="-0.685762">
<ele>461.0</ele>
<speed>24.5</speed>
<course>277.9</course>
<desc>Speed 24.5 km/h Distance 24.92 km</desc>
<time>2011-09-29T11:11:21.57</time>
<name>4086</name>
</trkpt>
<trkpt lat="41.714038" lon="-0.685842">
<ele>461.0</ele>
<speed>23.9</speed>
<course>276.6</course>
<desc>Speed 23.9 km/h Distance 24.93 km</desc>
<time>2011-09-29T11:11:22.57</time>
<name>4087</name>
</trkpt>
<trkpt lat="41.714045" lon="-0.685918">
<ele>461.0</ele>
<speed>23.3</speed>
<course>276.8</course>
<desc>Speed 23.3 km/h Distance 24.93 km</desc>
<time>2011-09-29T11:11:23.57</time>
<name>4088</name>
</trkpt>
<trkpt lat="41.714052" lon="-0.685993">
<ele>461.5</ele>
<speed>22.5</speed>
<course>276.9</course>
<desc>Speed 22.5 km/h Distance 24.94 km</desc>
<time>2011-09-29T11:11:24.56</time>
<name>4089</name>
</trkpt>
<trkpt lat="41.714058" lon="-0.686067">
<ele>461.5</ele>
<speed>22.1</speed>
<course>280.4</course>
<desc>Speed 22.1 km/h Distance 24.95 km</desc>
<time>2011-09-29T11:11:25.57</time>
<name>4090</name>
</trkpt>
<trkpt lat="41.714068" lon="-0.686140">
<ele>461.5</ele>
<speed>22.6</speed>
<course>277.5</course>
<desc>Speed 22.6 km/h Distance 24.95 km</desc>
<time>2011-09-29T11:11:27.02</time>
<name>4091</name>
</trkpt>
<trkpt lat="41.714083" lon="-0.686292">
<ele>462.0</ele>
<speed>23.0</speed>
<course>276.8</course>
<desc>Speed 23.0 km/h Distance 24.97 km</desc>
<time>2011-09-29T11:11:28.57</time>
<name>4092</name>
</trkpt>
<trkpt lat="41.714090" lon="-0.686367">
<ele>462.0</ele>
<speed>22.9</speed>
<course>275.1</course>
<desc>Speed 22.9 km/h Distance 24.97 km</desc>
<time>2011-09-29T11:11:29.56</time>
<name>4093</name>
</trkpt>
<trkpt lat="41.714095" lon="-0.686442">
<ele>462.5</ele>
<speed>22.5</speed>
<course>276.8</course>
<desc>Speed 22.5 km/h Distance 24.98 km</desc>
<time>2011-09-29T11:11:30.56</time>
<name>4094</name>
</trkpt>
<trkpt lat="41.714102" lon="-0.686517">
<ele>462.5</ele>
<speed>22.3</speed>
<course>278.7</course>
<desc>Speed 22.3 km/h Distance 24.98 km</desc>
<time>2011-09-29T11:11:31.56</time>
<name>4095</name>
</trkpt>
<trkpt lat="41.714110" lon="-0.686590">
<ele>462.5</ele>
<speed>22.4</speed>
<course>276.8</course>
<desc>Speed 22.4 km/h Distance 24.99 km</desc>
<time>2011-09-29T11:11:32.56</time>
<name>4096</name>
</trkpt>
<trkpt lat="41.714117" lon="-0.686665">
<ele>462.5</ele>
<speed>22.8</speed>
<course>279.3</course>
<desc>Speed 22.8 km/h Distance 25.00 km</desc>
<time>2011-09-29T11:11:33.57</time>
<name>4097</name>
</trkpt>
<trkpt lat="41.714135" lon="-0.686815">
<ele>462.5</ele>
<speed>22.6</speed>
<course>278.5</course>
<desc>Speed 22.6 km/h Distance 25.01 km</desc>
<time>2011-09-29T11:11:35.56</time>
<name>4098</name>
</trkpt>
<trkpt lat="41.714143" lon="-0.686890">
<ele>462.5</ele>
<speed>22.4</speed>
<course>274.9</course>
<desc>Speed 22.4 km/h Distance 25.02 km</desc>
<time>2011-09-29T11:11:36.78</time>
<name>4099</name>
</trkpt>
<trkpt lat="41.714150" lon="-0.686995">
<ele>462.5</ele>
<speed>13.1</speed>
<course>202.8</course>
<desc>Speed 13.1 km/h Distance 25.02 km</desc>
<time>2011-09-29T11:11:38.56</time>
<name>4100</name>
</trkpt>
<trkpt lat="41.714123" lon="-0.687010">
<ele>462.0</ele>
<speed>11.2</speed>
<course>190.6</course>
<desc>Speed 11.2 km/h Distance 25.03 km</desc>
<time>2011-09-29T11:11:39.56</time>
<name>4101</name>
</trkpt>
<trkpt lat="41.714097" lon="-0.687017">
<ele>462.0</ele>
<speed>11.3</speed>
<course>187.1</course>
<desc>Speed 11.3 km/h Distance 25.03 km</desc>
<time>2011-09-29T11:11:40.56</time>
<name>4102</name>
</trkpt>
<trkpt lat="41.714067" lon="-0.687022">
<ele>461.5</ele>
<speed>12.3</speed>
<course>180.0</course>
<desc>Speed 12.3 km/h Distance 25.03 km</desc>
<time>2011-09-29T11:11:41.55</time>
<name>4103</name>
</trkpt>
<trkpt lat="41.714037" lon="-0.687022">
<ele>461.5</ele>
<speed>11.8</speed>
<course>194.6</course>
<desc>Speed 11.8 km/h Distance 25.04 km</desc>
<time>2011-09-29T11:11:42.55</time>
<name>4104</name>
</trkpt>
<trkpt lat="41.714008" lon="-0.687032">
<ele>461.5</ele>
<speed>12.0</speed>
<course>199.8</course>
<desc>Speed 12.0 km/h Distance 25.04 km</desc>
<time>2011-09-29T11:11:43.71</time>
<name>4105</name>
</trkpt>
<trkpt lat="41.713957" lon="-0.687057">
<ele>462.0</ele>
<speed>10.8</speed>
<course>211.8</course>
<desc>Speed 10.8 km/h Distance 25.05 km</desc>
<time>2011-09-29T11:11:45.55</time>
<name>4106</name>
</trkpt>
<trkpt lat="41.713937" lon="-0.687073">
<ele>462.0</ele>
<speed>10.0</speed>
<course>214.4</course>
<desc>Speed 10.0 km/h Distance 25.05 km</desc>
<time>2011-09-29T11:11:46.55</time>
<name>4107</name>
</trkpt>
<trkpt lat="41.713917" lon="-0.687092">
<ele>462.5</ele>
<speed>9.8</speed>
<course>219.0</course>
<desc>Speed 9.8 km/h Distance 25.05 km</desc>
<time>2011-09-29T11:11:47.55</time>
<name>4108</name>
</trkpt>
<trkpt lat="41.713897" lon="-0.687113">
<ele>462.5</ele>
<speed>10.6</speed>
<course>226.6</course>
<desc>Speed 10.6 km/h Distance 25.06 km</desc>
<time>2011-09-29T11:11:48.55</time>
<name>4109</name>
</trkpt>
<trkpt lat="41.713877" lon="-0.687142">
<ele>463.0</ele>
<speed>11.6</speed>
<course>230.7</course>
<desc>Speed 11.6 km/h Distance 25.06 km</desc>
<time>2011-09-29T11:11:49.55</time>
<name>4110</name>
</trkpt>
<trkpt lat="41.713858" lon="-0.687172">
<ele>463.0</ele>
<speed>11.6</speed>
<course>225.9</course>
<desc>Speed 11.6 km/h Distance 25.06 km</desc>
<time>2011-09-29T11:11:50.55</time>
<name>4111</name>
</trkpt>
<trkpt lat="41.713837" lon="-0.687202">
<ele>463.5</ele>
<speed>13.0</speed>
<course>216.8</course>
<desc>Speed 13.0 km/h Distance 25.07 km</desc>
<time>2011-09-29T11:11:51.55</time>
<name>4112</name>
</trkpt>
<trkpt lat="41.713810" lon="-0.687228">
<ele>463.5</ele>
<speed>13.0</speed>
<course>215.0</course>
<desc>Speed 13.0 km/h Distance 25.07 km</desc>
<time>2011-09-29T11:11:52.55</time>
<name>4113</name>
</trkpt>
<trkpt lat="41.713783" lon="-0.687253">
<ele>464.0</ele>
<speed>13.4</speed>
<course>218.4</course>
<desc>Speed 13.4 km/h Distance 25.07 km</desc>
<time>2011-09-29T11:11:53.55</time>
<name>4114</name>
</trkpt>
<trkpt lat="41.713757" lon="-0.687282">
<ele>464.0</ele>
<speed>13.9</speed>
<course>213.8</course>
<desc>Speed 13.9 km/h Distance 25.08 km</desc>
<time>2011-09-29T11:11:54.55</time>
<name>4115</name>
</trkpt>
<trkpt lat="41.713725" lon="-0.687310">
<ele>464.5</ele>
<speed>15.0</speed>
<course>201.4</course>
<desc>Speed 15.0 km/h Distance 25.08 km</desc>
<time>2011-09-29T11:11:56.24</time>
<name>4116</name>
</trkpt>
<trkpt lat="41.713655" lon="-0.687347">
<ele>465.0</ele>
<speed>15.4</speed>
<course>197.0</course>
<desc>Speed 15.4 km/h Distance 25.09 km</desc>
<time>2011-09-29T11:11:57.54</time>
<name>4117</name>
</trkpt>
<trkpt lat="41.713618" lon="-0.687362">
<ele>465.0</ele>
<speed>15.8</speed>
<course>197.0</course>
<desc>Speed 15.8 km/h Distance 25.09 km</desc>
<time>2011-09-29T11:11:58.54</time>
<name>4118</name>
</trkpt>
<trkpt lat="41.713582" lon="-0.687377">
<ele>465.0</ele>
<speed>15.4</speed>
<course>193.4</course>
<desc>Speed 15.4 km/h Distance 25.10 km</desc>
<time>2011-09-29T11:11:59.54</time>
<name>4119</name>
</trkpt>
<trkpt lat="41.713545" lon="-0.687388">
<ele>465.0</ele>
<speed>15.6</speed>
<course>187.5</course>
<desc>Speed 15.6 km/h Distance 25.10 km</desc>
<time>2011-09-29T11:12:00.54</time>
<name>4120</name>
</trkpt>
<trkpt lat="41.713507" lon="-0.687395">
<ele>465.0</ele>
<speed>15.6</speed>
<course>191.0</course>
<desc>Speed 15.6 km/h Distance 25.11 km</desc>
<time>2011-09-29T11:12:01.54</time>
<name>4121</name>
</trkpt>
<trkpt lat="41.713468" lon="-0.687405">
<ele>465.5</ele>
<speed>15.7</speed>
<course>193.3</course>
<desc>Speed 15.7 km/h Distance 25.11 km</desc>
<time>2011-09-29T11:12:02.54</time>
<name>4122</name>
</trkpt>
<trkpt lat="41.713432" lon="-0.687417">
<ele>465.5</ele>
<speed>15.8</speed>
<course>191.0</course>
<desc>Speed 15.8 km/h Distance 25.11 km</desc>
<time>2011-09-29T11:12:03.54</time>
<name>4123</name>
</trkpt>
<trkpt lat="41.713393" lon="-0.687427">
<ele>465.5</ele>
<speed>15.9</speed>
<course>192.2</course>
<desc>Speed 15.9 km/h Distance 25.12 km</desc>
<time>2011-09-29T11:12:04.54</time>
<name>4124</name>
</trkpt>
<trkpt lat="41.713353" lon="-0.687438">
<ele>465.5</ele>
<speed>16.2</speed>
<course>192.6</course>
<desc>Speed 16.2 km/h Distance 25.12 km</desc>
<time>2011-09-29T11:12:05.98</time>
<name>4125</name>
</trkpt>
<trkpt lat="41.713270" lon="-0.687463">
<ele>465.5</ele>
<speed>17.6</speed>
<course>193.5</course>
<desc>Speed 17.6 km/h Distance 25.13 km</desc>
<time>2011-09-29T11:12:07.54</time>
<name>4126</name>
</trkpt>
<trkpt lat="41.713228" lon="-0.687477">
<ele>465.0</ele>
<speed>17.6</speed>
<course>189.7</course>
<desc>Speed 17.6 km/h Distance 25.14 km</desc>
<time>2011-09-29T11:12:08.54</time>
<name>4127</name>
</trkpt>
<trkpt lat="41.713185" lon="-0.687487">
<ele>465.5</ele>
<speed>17.9</speed>
<course>186.3</course>
<desc>Speed 17.9 km/h Distance 25.14 km</desc>
<time>2011-09-29T11:12:09.54</time>
<name>4128</name>
</trkpt>
<trkpt lat="41.713140" lon="-0.687493">
<ele>465.5</ele>
<speed>17.9</speed>
<course>188.4</course>
<desc>Speed 17.9 km/h Distance 25.15 km</desc>
<time>2011-09-29T11:12:10.54</time>
<name>4129</name>
</trkpt>
<trkpt lat="41.713098" lon="-0.687502">
<ele>465.5</ele>
<speed>17.7</speed>
<course>187.9</course>
<desc>Speed 17.7 km/h Distance 25.15 km</desc>
<time>2011-09-29T11:12:11.53</time>
<name>4130</name>
</trkpt>
<trkpt lat="41.713053" lon="-0.687510">
<ele>465.5</ele>
<speed>18.3</speed>
<course>187.7</course>
<desc>Speed 18.3 km/h Distance 25.16 km</desc>
<time>2011-09-29T11:12:12.94</time>
<name>4131</name>
</trkpt>
<trkpt lat="41.712962" lon="-0.687527">
<ele>465.5</ele>
<speed>19.0</speed>
<course>187.3</course>
<desc>Speed 19.0 km/h Distance 25.17 km</desc>
<time>2011-09-29T11:12:14.53</time>
<name>4132</name>
</trkpt>
<trkpt lat="41.712913" lon="-0.687535">
<ele>465.0</ele>
<speed>19.9</speed>
<course>188.5</course>
<desc>Speed 19.9 km/h Distance 25.17 km</desc>
<time>2011-09-29T11:12:15.74</time>
<name>4133</name>
</trkpt>
<trkpt lat="41.712813" lon="-0.687555">
<ele>465.0</ele>
<speed>20.4</speed>
<course>185.6</course>
<desc>Speed 20.4 km/h Distance 25.18 km</desc>
<time>2011-09-29T11:12:17.53</time>
<name>4134</name>
</trkpt>
<trkpt lat="41.712763" lon="-0.687562">
<ele>464.5</ele>
<speed>20.4</speed>
<course>188.5</course>
<desc>Speed 20.4 km/h Distance 25.19 km</desc>
<time>2011-09-29T11:12:18.53</time>
<name>4135</name>
</trkpt>
<trkpt lat="41.712713" lon="-0.687572">
<ele>464.5</ele>
<speed>20.5</speed>
<course>187.1</course>
<desc>Speed 20.5 km/h Distance 25.20 km</desc>
<time>2011-09-29T11:12:19.53</time>
<name>4136</name>
</trkpt>
<trkpt lat="41.712663" lon="-0.687580">
<ele>464.5</ele>
<speed>20.4</speed>
<course>188.5</course>
<desc>Speed 20.4 km/h Distance 25.20 km</desc>
<time>2011-09-29T11:12:20.53</time>
<name>4137</name>
</trkpt>
<trkpt lat="41.712613" lon="-0.687590">
<ele>464.5</ele>
<speed>20.3</speed>
<course>188.5</course>
<desc>Speed 20.3 km/h Distance 25.21 km</desc>
<time>2011-09-29T11:12:21.53</time>
<name>4138</name>
</trkpt>
<trkpt lat="41.712563" lon="-0.687600">
<ele>464.5</ele>
<speed>20.5</speed>
<course>185.5</course>
<desc>Speed 20.5 km/h Distance 25.21 km</desc>
<time>2011-09-29T11:12:22.67</time>
<name>4139</name>
</trkpt>
<trkpt lat="41.712512" lon="-0.687607">
<ele>464.0</ele>
<speed>20.8</speed>
<course>189.3</course>
<desc>Speed 20.8 km/h Distance 25.22 km</desc>
<time>2011-09-29T11:12:23.53</time>
<name>4140</name>
</trkpt>
<trkpt lat="41.712458" lon="-0.687618">
<ele>463.5</ele>
<speed>21.9</speed>
<course>189.0</course>
<desc>Speed 21.9 km/h Distance 25.22 km</desc>
<time>2011-09-29T11:12:24.53</time>
<name>4141</name>
</trkpt>
<trkpt lat="41.712403" lon="-0.687630">
<ele>463.5</ele>
<speed>22.5</speed>
<course>186.5</course>
<desc>Speed 22.5 km/h Distance 25.23 km</desc>
<time>2011-09-29T11:12:25.53</time>
<name>4142</name>
</trkpt>
<trkpt lat="41.712348" lon="-0.687638">
<ele>463.5</ele>
<speed>22.4</speed>
<course>181.2</course>
<desc>Speed 22.4 km/h Distance 25.24 km</desc>
<time>2011-09-29T11:12:26.52</time>
<name>4143</name>
</trkpt>
<trkpt lat="41.712295" lon="-0.687640">
<ele>463.5</ele>
<speed>21.8</speed>
<course>177.3</course>
<desc>Speed 21.8 km/h Distance 25.24 km</desc>
<time>2011-09-29T11:12:27.52</time>
<name>4144</name>
</trkpt>
<trkpt lat="41.712243" lon="-0.687637">
<ele>463.5</ele>
<speed>20.7</speed>
<course>166.5</course>
<desc>Speed 20.7 km/h Distance 25.25 km</desc>
<time>2011-09-29T11:12:28.53</time>
<name>4145</name>
</trkpt>
<trkpt lat="41.712197" lon="-0.687622">
<ele>464.0</ele>
<speed>19.2</speed>
<course>150.8</course>
<desc>Speed 19.2 km/h Distance 25.25 km</desc>
<time>2011-09-29T11:12:29.52</time>
<name>4146</name>
</trkpt>
<trkpt lat="41.712157" lon="-0.687592">
<ele>464.0</ele>
<speed>18.4</speed>
<course>143.2</course>
<desc>Speed 18.4 km/h Distance 25.26 km</desc>
<time>2011-09-29T11:12:30.53</time>
<name>4147</name>
</trkpt>
<trkpt lat="41.712122" lon="-0.687557">
<ele>464.5</ele>
<speed>17.6</speed>
<course>129.5</course>
<desc>Speed 17.6 km/h Distance 25.26 km</desc>
<time>2011-09-29T11:12:31.52</time>
<name>4148</name>
</trkpt>
<trkpt lat="41.712095" lon="-0.687513">
<ele>464.5</ele>
<speed>16.9</speed>
<course>120.1</course>
<desc>Speed 16.9 km/h Distance 25.27 km</desc>
<time>2011-09-29T11:12:32.52</time>
<name>4149</name>
</trkpt>
<trkpt lat="41.712073" lon="-0.687463">
<ele>464.5</ele>
<speed>17.2</speed>
<course>110.6</course>
<desc>Speed 17.2 km/h Distance 25.27 km</desc>
<time>2011-09-29T11:12:33.52</time>
<name>4150</name>
</trkpt>
<trkpt lat="41.712058" lon="-0.687410">
<ele>464.5</ele>
<speed>17.2</speed>
<course>105.5</course>
<desc>Speed 17.2 km/h Distance 25.28 km</desc>
<time>2011-09-29T11:12:35.23</time>
<name>4151</name>
</trkpt>
<trkpt lat="41.712022" lon="-0.687233">
<ele>464.5</ele>
<speed>19.3</speed>
<course>101.6</course>
<desc>Speed 19.3 km/h Distance 25.29 km</desc>
<time>2011-09-29T11:12:37.52</time>
<name>4152</name>
</trkpt>
<trkpt lat="41.712012" lon="-0.687168">
<ele>464.0</ele>
<speed>20.1</speed>
<course>102.9</course>
<desc>Speed 20.1 km/h Distance 25.30 km</desc>
<time>2011-09-29T11:12:38.52</time>
<name>4153</name>
</trkpt>
<trkpt lat="41.712000" lon="-0.687100">
<ele>464.0</ele>
<speed>20.6</speed>
<course>99.3</course>
<desc>Speed 20.6 km/h Distance 25.30 km</desc>
<time>2011-09-29T11:12:39.51</time>
<name>4154</name>
</trkpt>
<trkpt lat="41.711992" lon="-0.687032">
<ele>464.0</ele>
<speed>21.1</speed>
<course>97.3</course>
<desc>Speed 21.1 km/h Distance 25.31 km</desc>
<time>2011-09-29T11:12:40.52</time>
<name>4155</name>
</trkpt>
<trkpt lat="41.711985" lon="-0.686962">
<ele>464.0</ele>
<speed>21.3</speed>
<course>95.5</course>
<desc>Speed 21.3 km/h Distance 25.32 km</desc>
<time>2011-09-29T11:12:41.51</time>
<name>4156</name>
</trkpt>
<trkpt lat="41.711980" lon="-0.686892">
<ele>464.0</ele>
<speed>21.1</speed>
<course>95.6</course>
<desc>Speed 21.1 km/h Distance 25.32 km</desc>
<time>2011-09-29T11:12:42.51</time>
<name>4157</name>
</trkpt>
<trkpt lat="41.711975" lon="-0.686823">
<ele>464.0</ele>
<speed>20.7</speed>
<course>93.7</course>
<desc>Speed 20.7 km/h Distance 25.33 km</desc>
<time>2011-09-29T11:12:43.51</time>
<name>4158</name>
</trkpt>
<trkpt lat="41.711972" lon="-0.686755">
<ele>464.0</ele>
<speed>20.2</speed>
<course>95.0</course>
<desc>Speed 20.2 km/h Distance 25.33 km</desc>
<time>2011-09-29T11:12:44.96</time>
<name>4159</name>
</trkpt>
<trkpt lat="41.711963" lon="-0.686628">
<ele>464.5</ele>
<speed>18.5</speed>
<course>96.5</course>
<desc>Speed 18.5 km/h Distance 25.34 km</desc>
<time>2011-09-29T11:12:46.51</time>
<name>4160</name>
</trkpt>
<trkpt lat="41.711958" lon="-0.686570">
<ele>464.5</ele>
<speed>17.7</speed>
<course>94.5</course>
<desc>Speed 17.7 km/h Distance 25.35 km</desc>
<time>2011-09-29T11:12:47.51</time>
<name>4161</name>
</trkpt>
<trkpt lat="41.711955" lon="-0.686513">
<ele>465.0</ele>
<speed>17.4</speed>
<course>96.9</course>
<desc>Speed 17.4 km/h Distance 25.35 km</desc>
<time>2011-09-29T11:12:48.51</time>
<name>4162</name>
</trkpt>
<trkpt lat="41.711950" lon="-0.686458">
<ele>465.0</ele>
<speed>16.9</speed>
<course>99.2</course>
<desc>Speed 16.9 km/h Distance 25.36 km</desc>
<time>2011-09-29T11:12:49.51</time>
<name>4163</name>
</trkpt>
<trkpt lat="41.711943" lon="-0.686403">
<ele>465.5</ele>
<speed>16.5</speed>
<course>102.2</course>
<desc>Speed 16.5 km/h Distance 25.36 km</desc>
<time>2011-09-29T11:12:50.51</time>
<name>4164</name>
</trkpt>
<trkpt lat="41.711935" lon="-0.686352">
<ele>466.0</ele>
<speed>16.0</speed>
<course>106.3</course>
<desc>Speed 16.0 km/h Distance 25.37 km</desc>
<time>2011-09-29T11:12:51.90</time>
<name>4165</name>
</trkpt>
<trkpt lat="41.711915" lon="-0.686260">
<ele>467.5</ele>
<speed>13.8</speed>
<course>105.0</course>
<desc>Speed 13.8 km/h Distance 25.38 km</desc>
<time>2011-09-29T11:12:53.51</time>
<name>4166</name>
</trkpt>
<trkpt lat="41.711907" lon="-0.686218">
<ele>468.0</ele>
<speed>12.9</speed>
<course>107.1</course>
<desc>Speed 12.9 km/h Distance 25.38 km</desc>
<time>2011-09-29T11:12:54.71</time>
<name>4167</name>
</trkpt>
<trkpt lat="41.711888" lon="-0.686138">
<ele>468.5</ele>
<speed>12.6</speed>
<course>108.5</course>
<desc>Speed 12.6 km/h Distance 25.39 km</desc>
<time>2011-09-29T11:12:56.51</time>
<name>4168</name>
</trkpt>
<trkpt lat="41.711878" lon="-0.686098">
<ele>469.0</ele>
<speed>12.7</speed>
<course>108.5</course>
<desc>Speed 12.7 km/h Distance 25.39 km</desc>
<time>2011-09-29T11:12:57.51</time>
<name>4169</name>
</trkpt>
<trkpt lat="41.711868" lon="-0.686058">
<ele>469.5</ele>
<speed>12.7</speed>
<course>106.2</course>
<desc>Speed 12.7 km/h Distance 25.39 km</desc>
<time>2011-09-29T11:12:58.50</time>
<name>4170</name>
</trkpt>
<trkpt lat="41.711860" lon="-0.686020">
<ele>469.5</ele>
<speed>12.0</speed>
<course>114.1</course>
<desc>Speed 12.0 km/h Distance 25.40 km</desc>
<time>2011-09-29T11:12:59.50</time>
<name>4171</name>
</trkpt>
<trkpt lat="41.711848" lon="-0.685985">
<ele>470.0</ele>
<speed>12.0</speed>
<course>115.1</course>
<desc>Speed 12.0 km/h Distance 25.40 km</desc>
<time>2011-09-29T11:13:00.50</time>
<name>4172</name>
</trkpt>
<trkpt lat="41.711837" lon="-0.685952">
<ele>470.5</ele>
<speed>11.1</speed>
<course>107.7</course>
<desc>Speed 11.1 km/h Distance 25.40 km</desc>
<time>2011-09-29T11:13:01.64</time>
<name>4173</name>
</trkpt>
<trkpt lat="41.711828" lon="-0.685917">
<ele>470.5</ele>
<speed>11.2</speed>
<course>106.9</course>
<desc>Speed 11.2 km/h Distance 25.41 km</desc>
<time>2011-09-29T11:13:02.50</time>
<name>4174</name>
</trkpt>
<trkpt lat="41.711820" lon="-0.685880">
<ele>471.0</ele>
<speed>11.7</speed>
<course>112.2</course>
<desc>Speed 11.7 km/h Distance 25.41 km</desc>
<time>2011-09-29T11:13:03.50</time>
<name>4175</name>
</trkpt>
<trkpt lat="41.711808" lon="-0.685842">
<ele>471.5</ele>
<speed>12.6</speed>
<course>116.0</course>
<desc>Speed 12.6 km/h Distance 25.41 km</desc>
<time>2011-09-29T11:13:04.52</time>
<name>4176</name>
</trkpt>
<trkpt lat="41.711795" lon="-0.685805">
<ele>471.5</ele>
<speed>12.2</speed>
<course>117.0</course>
<desc>Speed 12.2 km/h Distance 25.42 km</desc>
<time>2011-09-29T11:13:05.50</time>
<name>4177</name>
</trkpt>
<trkpt lat="41.711782" lon="-0.685770">
<ele>472.0</ele>
<speed>11.8</speed>
<course>119.8</course>
<desc>Speed 11.8 km/h Distance 25.42 km</desc>
<time>2011-09-29T11:13:06.50</time>
<name>4178</name>
</trkpt>
<trkpt lat="41.711767" lon="-0.685735">
<ele>472.0</ele>
<speed>11.8</speed>
<course>114.1</course>
<desc>Speed 11.8 km/h Distance 25.42 km</desc>
<time>2011-09-29T11:13:07.50</time>
<name>4179</name>
</trkpt>
<trkpt lat="41.711755" lon="-0.685700">
<ele>472.5</ele>
<speed>11.8</speed>
<course>113.1</course>
<desc>Speed 11.8 km/h Distance 25.43 km</desc>
<time>2011-09-29T11:13:08.50</time>
<name>4180</name>
</trkpt>
<trkpt lat="41.711743" lon="-0.685663">
<ele>472.5</ele>
<speed>11.9</speed>
<course>123.8</course>
<desc>Speed 11.9 km/h Distance 25.43 km</desc>
<time>2011-09-29T11:13:09.50</time>
<name>4181</name>
</trkpt>
<trkpt lat="41.711727" lon="-0.685630">
<ele>473.0</ele>
<speed>11.7</speed>
<course>129.3</course>
<desc>Speed 11.7 km/h Distance 25.43 km</desc>
<time>2011-09-29T11:13:10.50</time>
<name>4182</name>
</trkpt>
<trkpt lat="41.711708" lon="-0.685600">
<ele>473.5</ele>
<speed>11.8</speed>
<course>129.3</course>
<desc>Speed 11.8 km/h Distance 25.44 km</desc>
<time>2011-09-29T11:13:11.49</time>
<name>4183</name>
</trkpt>
<trkpt lat="41.711690" lon="-0.685570">
<ele>473.5</ele>
<speed>11.5</speed>
<course>132.6</course>
<desc>Speed 11.5 km/h Distance 25.44 km</desc>
<time>2011-09-29T11:13:12.49</time>
<name>4184</name>
</trkpt>
<trkpt lat="41.711672" lon="-0.685543">
<ele>473.5</ele>
<speed>11.3</speed>
<course>137.2</course>
<desc>Speed 11.3 km/h Distance 25.44 km</desc>
<time>2011-09-29T11:13:14.18</time>
<name>4185</name>
</trkpt>
<trkpt lat="41.711630" lon="-0.685492">
<ele>474.0</ele>
<speed>11.4</speed>
<course>147.4</course>
<desc>Speed 11.4 km/h Distance 25.45 km</desc>
<time>2011-09-29T11:13:15.49</time>
<name>4186</name>
</trkpt>
<trkpt lat="41.711607" lon="-0.685472">
<ele>474.0</ele>
<speed>11.2</speed>
<course>157.3</course>
<desc>Speed 11.2 km/h Distance 25.45 km</desc>
<time>2011-09-29T11:13:16.49</time>
<name>4187</name>
</trkpt>
<trkpt lat="41.711580" lon="-0.685457">
<ele>474.0</ele>
<speed>11.6</speed>
<course>156.0</course>
<desc>Speed 11.6 km/h Distance 25.45 km</desc>
<time>2011-09-29T11:13:17.49</time>
<name>4188</name>
</trkpt>
<trkpt lat="41.711555" lon="-0.685442">
<ele>474.5</ele>
<speed>11.6</speed>
<course>157.2</course>
<desc>Speed 11.6 km/h Distance 25.46 km</desc>
<time>2011-09-29T11:13:18.49</time>
<name>4189</name>
</trkpt>
<trkpt lat="41.711528" lon="-0.685427">
<ele>474.5</ele>
<speed>11.7</speed>
<course>149.2</course>
<desc>Speed 11.7 km/h Distance 25.46 km</desc>
<time>2011-09-29T11:13:19.49</time>
<name>4190</name>
</trkpt>
<trkpt lat="41.711503" lon="-0.685407">
<ele>475.0</ele>
<speed>12.1</speed>
<course>152.9</course>
<desc>Speed 12.1 km/h Distance 25.46 km</desc>
<time>2011-09-29T11:13:20.49</time>
<name>4191</name>
</trkpt>
<trkpt lat="41.711477" lon="-0.685388">
<ele>475.0</ele>
<speed>11.7</speed>
<course>161.9</course>
<desc>Speed 11.7 km/h Distance 25.47 km</desc>
<time>2011-09-29T11:13:21.49</time>
<name>4192</name>
</trkpt>
<trkpt lat="41.711450" lon="-0.685377">
<ele>475.5</ele>
<speed>11.3</speed>
<course>175.0</course>
<desc>Speed 11.3 km/h Distance 25.47 km</desc>
<time>2011-09-29T11:13:22.49</time>
<name>4193</name>
</trkpt>
<trkpt lat="41.711423" lon="-0.685373">
<ele>475.5</ele>
<speed>11.2</speed>
<course>169.4</course>
<desc>Speed 11.2 km/h Distance 25.47 km</desc>
<time>2011-09-29T11:13:23.91</time>
<name>4194</name>
</trkpt>
<trkpt lat="41.711370" lon="-0.685360">
<ele>476.0</ele>
<speed>11.2</speed>
<course>172.6</course>
<desc>Speed 11.2 km/h Distance 25.48 km</desc>
<time>2011-09-29T11:13:25.49</time>
<name>4195</name>
</trkpt>
<trkpt lat="41.711342" lon="-0.685355">
<ele>476.0</ele>
<speed>11.5</speed>
<course>172.4</course>
<desc>Speed 11.5 km/h Distance 25.48 km</desc>
<time>2011-09-29T11:13:26.48</time>
<name>4196</name>
</trkpt>
<trkpt lat="41.711313" lon="-0.685350">
<ele>476.0</ele>
<speed>11.4</speed>
<course>163.4</course>
<desc>Speed 11.4 km/h Distance 25.49 km</desc>
<time>2011-09-29T11:13:27.49</time>
<name>4197</name>
</trkpt>
<trkpt lat="41.711288" lon="-0.685340">
<ele>476.5</ele>
<speed>11.1</speed>
<course>161.9</course>
<desc>Speed 11.1 km/h Distance 25.49 km</desc>
<time>2011-09-29T11:13:28.49</time>
<name>4198</name>
</trkpt>
<trkpt lat="41.711262" lon="-0.685328">
<ele>476.5</ele>
<speed>11.1</speed>
<course>178.6</course>
<desc>Speed 11.1 km/h Distance 25.49 km</desc>
<time>2011-09-29T11:13:29.48</time>
<name>4199</name>
</trkpt>
<trkpt lat="41.711233" lon="-0.685328">
<ele>477.0</ele>
<speed>11.0</speed>
<course>175.9</course>
<desc>Speed 11.0 km/h Distance 25.49 km</desc>
<time>2011-09-29T11:13:30.85</time>
<name>4200</name>
</trkpt>
<trkpt lat="41.711180" lon="-0.685323">
<ele>477.5</ele>
<speed>10.8</speed>
<course>172.6</course>
<desc>Speed 10.8 km/h Distance 25.50 km</desc>
<time>2011-09-29T11:13:32.48</time>
<name>4201</name>
</trkpt>
<trkpt lat="41.711152" lon="-0.685318">
<ele>477.5</ele>
<speed>11.1</speed>
<course>169.4</course>
<desc>Speed 11.1 km/h Distance 25.50 km</desc>
<time>2011-09-29T11:13:33.67</time>
<name>4202</name>
</trkpt>
<trkpt lat="41.711125" lon="-0.685312">
<ele>477.5</ele>
<speed>11.3</speed>
<course>165.2</course>
<desc>Speed 11.3 km/h Distance 25.51 km</desc>
<time>2011-09-29T11:13:34.48</time>
<name>4203</name>
</trkpt>
<trkpt lat="41.711097" lon="-0.685302">
<ele>477.5</ele>
<speed>11.7</speed>
<course>157.2</course>
<desc>Speed 11.7 km/h Distance 25.51 km</desc>
<time>2011-09-29T11:13:35.48</time>
<name>4204</name>
</trkpt>
<trkpt lat="41.711070" lon="-0.685287">
<ele>478.0</ele>
<speed>11.4</speed>
<course>158.2</course>
<desc>Speed 11.4 km/h Distance 25.51 km</desc>
<time>2011-09-29T11:13:36.48</time>
<name>4205</name>
</trkpt>
<trkpt lat="41.711045" lon="-0.685273">
<ele>478.0</ele>
<speed>11.4</speed>
<course>143.3</course>
<desc>Speed 11.4 km/h Distance 25.52 km</desc>
<time>2011-09-29T11:13:37.48</time>
<name>4206</name>
</trkpt>
<trkpt lat="41.711022" lon="-0.685250">
<ele>478.0</ele>
<speed>11.2</speed>
<course>143.3</course>
<desc>Speed 11.2 km/h Distance 25.52 km</desc>
<time>2011-09-29T11:13:38.48</time>
<name>4207</name>
</trkpt>
<trkpt lat="41.711000" lon="-0.685228">
<ele>478.0</ele>
<speed>11.4</speed>
<course>143.3</course>
<desc>Speed 11.4 km/h Distance 25.52 km</desc>
<time>2011-09-29T11:13:39.48</time>
<name>4208</name>
</trkpt>
<trkpt lat="41.710977" lon="-0.685205">
<ele>478.0</ele>
<speed>11.9</speed>
<course>134.1</course>
<desc>Speed 11.9 km/h Distance 25.53 km</desc>
<time>2011-09-29T11:13:40.60</time>
<name>4209</name>
</trkpt>
<trkpt lat="41.710955" lon="-0.685175">
<ele>478.0</ele>
<speed>12.3</speed>
<course>139.7</course>
<desc>Speed 12.3 km/h Distance 25.53 km</desc>
<time>2011-09-29T11:13:41.48</time>
<name>4210</name>
</trkpt>
<trkpt lat="41.710930" lon="-0.685147">
<ele>478.0</ele>
<speed>12.9</speed>
<course>134.6</course>
<desc>Speed 12.9 km/h Distance 25.53 km</desc>
<time>2011-09-29T11:13:42.47</time>
<name>4211</name>
</trkpt>
<trkpt lat="41.710907" lon="-0.685115">
<ele>478.0</ele>
<speed>13.4</speed>
<course>130.5</course>
<desc>Speed 13.4 km/h Distance 25.54 km</desc>
<time>2011-09-29T11:13:43.48</time>
<name>4212</name>
</trkpt>
<trkpt lat="41.710883" lon="-0.685078">
<ele>478.0</ele>
<speed>14.7</speed>
<course>125.8</course>
<desc>Speed 14.7 km/h Distance 25.54 km</desc>
<time>2011-09-29T11:13:44.47</time>
<name>4213</name>
</trkpt>
<trkpt lat="41.710860" lon="-0.685035">
<ele>478.0</ele>
<speed>15.5</speed>
<course>123.8</course>
<desc>Speed 15.5 km/h Distance 25.54 km</desc>
<time>2011-09-29T11:13:45.47</time>
<name>4214</name>
</trkpt>
<trkpt lat="41.710838" lon="-0.684992">
<ele>478.0</ele>
<speed>15.6</speed>
<course>122.8</course>
<desc>Speed 15.6 km/h Distance 25.55 km</desc>
<time>2011-09-29T11:13:46.47</time>
<name>4215</name>
</trkpt>
<trkpt lat="41.710817" lon="-0.684947">
<ele>478.0</ele>
<speed>16.1</speed>
<course>125.8</course>
<desc>Speed 16.1 km/h Distance 25.55 km</desc>
<time>2011-09-29T11:13:47.47</time>
<name>4216</name>
</trkpt>
<trkpt lat="41.710793" lon="-0.684903">
<ele>478.0</ele>
<speed>16.1</speed>
<course>124.8</course>
<desc>Speed 16.1 km/h Distance 25.56 km</desc>
<time>2011-09-29T11:13:48.47</time>
<name>4217</name>
</trkpt>
<trkpt lat="41.710770" lon="-0.684858">
<ele>478.0</ele>
<speed>16.3</speed>
<course>125.8</course>
<desc>Speed 16.3 km/h Distance 25.56 km</desc>
<time>2011-09-29T11:13:49.47</time>
<name>4218</name>
</trkpt>
<trkpt lat="41.710747" lon="-0.684815">
<ele>478.0</ele>
<speed>16.0</speed>
<course>129.9</course>
<desc>Speed 16.0 km/h Distance 25.57 km</desc>
<time>2011-09-29T11:13:50.47</time>
<name>4219</name>
</trkpt>
<trkpt lat="41.710722" lon="-0.684775">
<ele>478.0</ele>
<speed>15.8</speed>
<course>131.8</course>
<desc>Speed 15.8 km/h Distance 25.57 km</desc>
<time>2011-09-29T11:13:51.47</time>
<name>4220</name>
</trkpt>
<trkpt lat="41.710695" lon="-0.684735">
<ele>478.0</ele>
<speed>15.8</speed>
<course>134.9</course>
<desc>Speed 15.8 km/h Distance 25.58 km</desc>
<time>2011-09-29T11:13:53.17</time>
<name>4221</name>
</trkpt>
<trkpt lat="41.710642" lon="-0.684663">
<ele>478.5</ele>
<speed>15.1</speed>
<course>138.4</course>
<desc>Speed 15.1 km/h Distance 25.58 km</desc>
<time>2011-09-29T11:13:54.46</time>
<name>4222</name>
</trkpt>
<trkpt lat="41.710615" lon="-0.684632">
<ele>478.5</ele>
<speed>14.8</speed>
<course>140.1</course>
<desc>Speed 14.8 km/h Distance 25.59 km</desc>
<time>2011-09-29T11:13:55.47</time>
<name>4223</name>
</trkpt>
<trkpt lat="41.710587" lon="-0.684600">
<ele>479.0</ele>
<speed>14.9</speed>
<course>146.2</course>
<desc>Speed 14.9 km/h Distance 25.59 km</desc>
<time>2011-09-29T11:13:56.46</time>
<name>4224</name>
</trkpt>
<trkpt lat="41.710555" lon="-0.684572">
<ele>479.0</ele>
<speed>15.2</speed>
<course>147.8</course>
<desc>Speed 15.2 km/h Distance 25.60 km</desc>
<time>2011-09-29T11:13:57.46</time>
<name>4225</name>
</trkpt>
<trkpt lat="41.710523" lon="-0.684545">
<ele>479.0</ele>
<speed>15.1</speed>
<course>152.4</course>
<desc>Speed 15.1 km/h Distance 25.60 km</desc>
<time>2011-09-29T11:13:58.46</time>
<name>4226</name>
</trkpt>
<trkpt lat="41.710490" lon="-0.684522">
<ele>479.5</ele>
<speed>15.1</speed>
<course>157.6</course>
<desc>Speed 15.1 km/h Distance 25.60 km</desc>
<time>2011-09-29T11:13:59.48</time>
<name>4227</name>
</trkpt>
<trkpt lat="41.710457" lon="-0.684503">
<ele>479.5</ele>
<speed>14.7</speed>
<course>164.0</course>
<desc>Speed 14.7 km/h Distance 25.61 km</desc>
<time>2011-09-29T11:14:00.46</time>
<name>4228</name>
</trkpt>
<trkpt lat="41.710422" lon="-0.684490">
<ele>479.5</ele>
<speed>14.6</speed>
<course>160.5</course>
<desc>Speed 14.6 km/h Distance 25.61 km</desc>
<time>2011-09-29T11:14:01.46</time>
<name>4229</name>
</trkpt>
<trkpt lat="41.710387" lon="-0.684473">
<ele>480.0</ele>
<speed>14.8</speed>
<course>171.5</course>
<desc>Speed 14.8 km/h Distance 25.62 km</desc>
<time>2011-09-29T11:14:02.90</time>
<name>4230</name>
</trkpt>
<trkpt lat="41.710320" lon="-0.684460">
<ele>480.0</ele>
<speed>13.0</speed>
<course>168.3</course>
<desc>Speed 13.0 km/h Distance 25.62 km</desc>
<time>2011-09-29T11:14:04.46</time>
<name>4231</name>
</trkpt>
<trkpt lat="41.710290" lon="-0.684452">
<ele>480.0</ele>
<speed>12.6</speed>
<course>169.0</course>
<desc>Speed 12.6 km/h Distance 25.63 km</desc>
<time>2011-09-29T11:14:05.46</time>
<name>4232</name>
</trkpt>
<trkpt lat="41.710258" lon="-0.684443">
<ele>480.0</ele>
<speed>12.9</speed>
<course>173.4</course>
<desc>Speed 12.9 km/h Distance 25.63 km</desc>
<time>2011-09-29T11:14:06.46</time>
<name>4233</name>
</trkpt>
<trkpt lat="41.710227" lon="-0.684438">
<ele>479.5</ele>
<speed>13.0</speed>
<course>173.1</course>
<desc>Speed 13.0 km/h Distance 25.64 km</desc>
<time>2011-09-29T11:14:07.46</time>
<name>4234</name>
</trkpt>
<trkpt lat="41.710197" lon="-0.684433">
<ele>479.5</ele>
<speed>12.2</speed>
<course>177.5</course>
<desc>Speed 12.2 km/h Distance 25.64 km</desc>
<time>2011-09-29T11:14:08.46</time>
<name>4235</name>
</trkpt>
<trkpt lat="41.710167" lon="-0.684432">
<ele>479.0</ele>
<speed>12.5</speed>
<course>174.2</course>
<desc>Speed 12.5 km/h Distance 25.64 km</desc>
<time>2011-09-29T11:14:09.83</time>
<name>4236</name>
</trkpt>
<trkpt lat="41.710105" lon="-0.684423">
<ele>478.5</ele>
<speed>12.7</speed>
<course>175.9</course>
<desc>Speed 12.7 km/h Distance 25.65 km</desc>
<time>2011-09-29T11:14:11.45</time>
<name>4237</name>
</trkpt>
<trkpt lat="41.710072" lon="-0.684420">
<ele>478.5</ele>
<speed>13.4</speed>
<course>178.1</course>
<desc>Speed 13.4 km/h Distance 25.65 km</desc>
<time>2011-09-29T11:14:12.63</time>
<name>4238</name>
</trkpt>
<trkpt lat="41.710038" lon="-0.684418">
<ele>478.0</ele>
<speed>13.6</speed>
<course>178.1</course>
<desc>Speed 13.6 km/h Distance 25.66 km</desc>
<time>2011-09-29T11:14:13.45</time>
<name>4239</name>
</trkpt>
<trkpt lat="41.710005" lon="-0.684417">
<ele>477.5</ele>
<speed>13.7</speed>
<course>172.0</course>
<desc>Speed 13.7 km/h Distance 25.66 km</desc>
<time>2011-09-29T11:14:14.45</time>
<name>4240</name>
</trkpt>
<trkpt lat="41.709970" lon="-0.684410">
<ele>477.5</ele>
<speed>14.0</speed>
<course>171.9</course>
<desc>Speed 14.0 km/h Distance 25.66 km</desc>
<time>2011-09-29T11:14:15.45</time>
<name>4241</name>
</trkpt>
<trkpt lat="41.709935" lon="-0.684403">
<ele>477.0</ele>
<speed>14.5</speed>
<course>172.6</course>
<desc>Speed 14.5 km/h Distance 25.67 km</desc>
<time>2011-09-29T11:14:16.45</time>
<name>4242</name>
</trkpt>
<trkpt lat="41.709897" lon="-0.684397">
<ele>477.0</ele>
<speed>15.2</speed>
<course>176.8</course>
<desc>Speed 15.2 km/h Distance 25.67 km</desc>
<time>2011-09-29T11:14:17.45</time>
<name>4243</name>
</trkpt>
<trkpt lat="41.709857" lon="-0.684393">
<ele>476.5</ele>
<speed>16.4</speed>
<course>171.8</course>
<desc>Speed 16.4 km/h Distance 25.68 km</desc>
<time>2011-09-29T11:14:18.45</time>
<name>4244</name>
</trkpt>
<trkpt lat="41.709813" lon="-0.684385">
<ele>476.5</ele>
<speed>17.2</speed>
<course>168.1</course>
<desc>Speed 17.2 km/h Distance 25.68 km</desc>
<time>2011-09-29T11:14:19.56</time>
<name>4245</name>
</trkpt>
<trkpt lat="41.709772" lon="-0.684373">
<ele>476.0</ele>
<speed>17.5</speed>
<course>161.8</course>
<desc>Speed 17.5 km/h Distance 25.69 km</desc>
<time>2011-09-29T11:14:20.45</time>
<name>4246</name>
</trkpt>
<trkpt lat="41.709730" lon="-0.684355">
<ele>476.0</ele>
<speed>17.5</speed>
<course>147.4</course>
<desc>Speed 17.5 km/h Distance 25.69 km</desc>
<time>2011-09-29T11:14:21.45</time>
<name>4247</name>
</trkpt>
<trkpt lat="41.709695" lon="-0.684325">
<ele>476.0</ele>
<speed>17.3</speed>
<course>134.7</course>
<desc>Speed 17.3 km/h Distance 25.70 km</desc>
<time>2011-09-29T11:14:22.46</time>
<name>4248</name>
</trkpt>
<trkpt lat="41.709667" lon="-0.684287">
<ele>476.0</ele>
<speed>16.1</speed>
<course>132.4</course>
<desc>Speed 16.1 km/h Distance 25.70 km</desc>
<time>2011-09-29T11:14:23.45</time>
<name>4249</name>
</trkpt>
<trkpt lat="41.709642" lon="-0.684250">
<ele>475.5</ele>
<speed>14.9</speed>
<course>128.4</course>
<desc>Speed 14.9 km/h Distance 25.70 km</desc>
<time>2011-09-29T11:14:24.44</time>
<name>4250</name>
</trkpt>
<trkpt lat="41.709620" lon="-0.684213">
<ele>475.5</ele>
<speed>14.2</speed>
<course>124.9</course>
<desc>Speed 14.2 km/h Distance 25.71 km</desc>
<time>2011-09-29T11:14:25.44</time>
<name>4251</name>
</trkpt>
<trkpt lat="41.709600" lon="-0.684175">
<ele>475.5</ele>
<speed>14.0</speed>
<course>107.8</course>
<desc>Speed 14.0 km/h Distance 25.71 km</desc>
<time>2011-09-29T11:14:26.44</time>
<name>4252</name>
</trkpt>
<trkpt lat="41.709590" lon="-0.684133">
<ele>475.5</ele>
<speed>12.9</speed>
<course>109.3</course>
<desc>Speed 12.9 km/h Distance 25.72 km</desc>
<time>2011-09-29T11:14:27.44</time>
<name>4253</name>
</trkpt>
<trkpt lat="41.709580" lon="-0.684095">
<ele>475.5</ele>
<speed>12.4</speed>
<course>111.3</course>
<desc>Speed 12.4 km/h Distance 25.72 km</desc>
<time>2011-09-29T11:14:28.45</time>
<name>4254</name>
</trkpt>
<trkpt lat="41.709568" lon="-0.684055">
<ele>475.5</ele>
<speed>13.1</speed>
<course>103.9</course>
<desc>Speed 13.1 km/h Distance 25.72 km</desc>
<time>2011-09-29T11:14:29.44</time>
<name>4255</name>
</trkpt>
<trkpt lat="41.709560" lon="-0.684010">
<ele>475.0</ele>
<speed>13.9</speed>
<course>95.5</course>
<desc>Speed 13.9 km/h Distance 25.73 km</desc>
<time>2011-09-29T11:14:30.44</time>
<name>4256</name>
</trkpt>
<trkpt lat="41.709557" lon="-0.683963">
<ele>474.5</ele>
<speed>14.3</speed>
<course>87.5</course>
<desc>Speed 14.3 km/h Distance 25.73 km</desc>
<time>2011-09-29T11:14:32.10</time>
<name>4257</name>
</trkpt>
<trkpt lat="41.709560" lon="-0.683862">
<ele>473.5</ele>
<speed>16.1</speed>
<course>83.5</course>
<desc>Speed 16.1 km/h Distance 25.74 km</desc>
<time>2011-09-29T11:14:33.44</time>
<name>4258</name>
</trkpt>
<trkpt lat="41.709565" lon="-0.683803">
<ele>473.0</ele>
<speed>17.9</speed>
<course>84.3</course>
<desc>Speed 17.9 km/h Distance 25.74 km</desc>
<time>2011-09-29T11:14:34.44</time>
<name>4259</name>
</trkpt>
<trkpt lat="41.709570" lon="-0.683737">
<ele>472.5</ele>
<speed>20.1</speed>
<course>84.7</course>
<desc>Speed 20.1 km/h Distance 25.75 km</desc>
<time>2011-09-29T11:14:35.44</time>
<name>4260</name>
</trkpt>
<trkpt lat="41.709575" lon="-0.683665">
<ele>472.0</ele>
<speed>21.5</speed>
<course>88.3</course>
<desc>Speed 21.5 km/h Distance 25.76 km</desc>
<time>2011-09-29T11:14:36.44</time>
<name>4261</name>
</trkpt>
<trkpt lat="41.709577" lon="-0.683588">
<ele>471.5</ele>
<speed>22.8</speed>
<course>85.3</course>
<desc>Speed 22.8 km/h Distance 25.76 km</desc>
<time>2011-09-29T11:14:37.44</time>
<name>4262</name>
</trkpt>
<trkpt lat="41.709582" lon="-0.683507">
<ele>470.5</ele>
<speed>24.5</speed>
<course>85.5</course>
<desc>Speed 24.5 km/h Distance 25.77 km</desc>
<time>2011-09-29T11:14:38.43</time>
<name>4263</name>
</trkpt>
<trkpt lat="41.709587" lon="-0.683422">
<ele>470.0</ele>
<speed>25.7</speed>
<course>82.4</course>
<desc>Speed 25.7 km/h Distance 25.78 km</desc>
<time>2011-09-29T11:14:39.43</time>
<name>4264</name>
</trkpt>
<trkpt lat="41.709595" lon="-0.683338">
<ele>469.5</ele>
<speed>25.1</speed>
<course>85.6</course>
<desc>Speed 25.1 km/h Distance 25.78 km</desc>
<time>2011-09-29T11:14:40.44</time>
<name>4265</name>
</trkpt>
<trkpt lat="41.709600" lon="-0.683252">
<ele>468.5</ele>
<speed>26.0</speed>
<course>87.9</course>
<desc>Speed 26.0 km/h Distance 25.79 km</desc>
<time>2011-09-29T11:14:41.83</time>
<name>4266</name>
</trkpt>
<trkpt lat="41.709605" lon="-0.683068">
<ele>467.5</ele>
<speed>28.0</speed>
<course>84.4</course>
<desc>Speed 28.0 km/h Distance 25.80 km</desc>
<time>2011-09-29T11:14:43.43</time>
<name>4267</name>
</trkpt>
<trkpt lat="41.709612" lon="-0.682977">
<ele>467.0</ele>
<speed>27.4</speed>
<course>83.2</course>
<desc>Speed 27.4 km/h Distance 25.81 km</desc>
<time>2011-09-29T11:14:44.43</time>
<name>4268</name>
</trkpt>
<trkpt lat="41.709620" lon="-0.682883">
<ele>466.0</ele>
<speed>28.2</speed>
<course>86.0</course>
<desc>Speed 28.2 km/h Distance 25.82 km</desc>
<time>2011-09-29T11:14:45.43</time>
<name>4269</name>
</trkpt>
<trkpt lat="41.709625" lon="-0.682788">
<ele>465.5</ele>
<speed>28.5</speed>
<course>86.0</course>
<desc>Speed 28.5 km/h Distance 25.83 km</desc>
<time>2011-09-29T11:14:46.43</time>
<name>4270</name>
</trkpt>
<trkpt lat="41.709630" lon="-0.682693">
<ele>465.5</ele>
<speed>28.7</speed>
<course>86.0</course>
<desc>Speed 28.7 km/h Distance 25.84 km</desc>
<time>2011-09-29T11:14:47.43</time>
<name>4271</name>
</trkpt>
<trkpt lat="41.709635" lon="-0.682597">
<ele>465.0</ele>
<speed>28.7</speed>
<course>86.6</course>
<desc>Speed 28.7 km/h Distance 25.84 km</desc>
<time>2011-09-29T11:14:48.77</time>
<name>4272</name>
</trkpt>
<trkpt lat="41.709643" lon="-0.682407">
<ele>464.5</ele>
<speed>28.4</speed>
<course>87.3</course>
<desc>Speed 28.4 km/h Distance 25.86 km</desc>
<time>2011-09-29T11:14:50.43</time>
<name>4273</name>
</trkpt>
<trkpt lat="41.709647" lon="-0.682313">
<ele>464.0</ele>
<speed>28.2</speed>
<course>87.3</course>
<desc>Speed 28.2 km/h Distance 25.87 km</desc>
<time>2011-09-29T11:14:51.57</time>
<name>4274</name>
</trkpt>
<trkpt lat="41.709650" lon="-0.682220">
<ele>464.0</ele>
<speed>27.6</speed>
<course>88.6</course>
<desc>Speed 27.6 km/h Distance 25.88 km</desc>
<time>2011-09-29T11:14:52.43</time>
<name>4275</name>
</trkpt>
<trkpt lat="41.709652" lon="-0.682130">
<ele>464.0</ele>
<speed>26.9</speed>
<course>88.5</course>
<desc>Speed 26.9 km/h Distance 25.88 km</desc>
<time>2011-09-29T11:14:53.42</time>
<name>4276</name>
</trkpt>
<trkpt lat="41.709653" lon="-0.682045">
<ele>464.0</ele>
<speed>25.7</speed>
<course>86.9</course>
<desc>Speed 25.7 km/h Distance 25.89 km</desc>
<time>2011-09-29T11:14:54.42</time>
<name>4277</name>
</trkpt>
<trkpt lat="41.709657" lon="-0.681963">
<ele>464.0</ele>
<speed>24.4</speed>
<course>86.7</course>
<desc>Speed 24.4 km/h Distance 25.90 km</desc>
<time>2011-09-29T11:14:55.43</time>
<name>4278</name>
</trkpt>
<trkpt lat="41.709660" lon="-0.681887">
<ele>464.0</ele>
<speed>23.0</speed>
<course>88.3</course>
<desc>Speed 23.0 km/h Distance 25.90 km</desc>
<time>2011-09-29T11:14:56.42</time>
<name>4279</name>
</trkpt>
<trkpt lat="41.709662" lon="-0.681813">
<ele>464.5</ele>
<speed>22.0</speed>
<course>88.2</course>
<desc>Speed 22.0 km/h Distance 25.91 km</desc>
<time>2011-09-29T11:14:57.42</time>
<name>4280</name>
</trkpt>
<trkpt lat="41.709663" lon="-0.681742">
<ele>464.5</ele>
<speed>21.4</speed>
<course>91.8</course>
<desc>Speed 21.4 km/h Distance 25.92 km</desc>
<time>2011-09-29T11:14:58.51</time>
<name>4281</name>
</trkpt>
<trkpt lat="41.709662" lon="-0.681670">
<ele>464.5</ele>
<speed>21.7</speed>
<course>88.3</course>
<desc>Speed 21.7 km/h Distance 25.92 km</desc>
<time>2011-09-29T11:14:59.42</time>
<name>4282</name>
</trkpt>
<trkpt lat="41.709663" lon="-0.681597">
<ele>464.5</ele>
<speed>21.8</speed>
<course>88.3</course>
<desc>Speed 21.8 km/h Distance 25.93 km</desc>
<time>2011-09-29T11:15:00.42</time>
<name>4283</name>
</trkpt>
<trkpt lat="41.709665" lon="-0.681522">
<ele>465.0</ele>
<speed>22.0</speed>
<course>88.2</course>
<desc>Speed 22.0 km/h Distance 25.93 km</desc>
<time>2011-09-29T11:15:01.42</time>
<name>4284</name>
</trkpt>
<trkpt lat="41.709667" lon="-0.681450">
<ele>465.0</ele>
<speed>21.9</speed>
<course>88.3</course>
<desc>Speed 21.9 km/h Distance 25.94 km</desc>
<time>2011-09-29T11:15:02.42</time>
<name>4285</name>
</trkpt>
<trkpt lat="41.709668" lon="-0.681377">
<ele>465.5</ele>
<speed>21.6</speed>
<course>91.9</course>
<desc>Speed 21.6 km/h Distance 25.95 km</desc>
<time>2011-09-29T11:15:03.42</time>
<name>4286</name>
</trkpt>
<trkpt lat="41.709667" lon="-0.681308">
<ele>465.5</ele>
<speed>20.4</speed>
<course>92.0</course>
<desc>Speed 20.4 km/h Distance 25.95 km</desc>
<time>2011-09-29T11:15:04.42</time>
<name>4287</name>
</trkpt>
<trkpt lat="41.709665" lon="-0.681243">
<ele>465.5</ele>
<speed>19.5</speed>
<course>92.1</course>
<desc>Speed 19.5 km/h Distance 25.96 km</desc>
<time>2011-09-29T11:15:05.42</time>
<name>4288</name>
</trkpt>
<trkpt lat="41.709663" lon="-0.681182">
<ele>466.0</ele>
<speed>18.4</speed>
<course>90.0</course>
<desc>Speed 18.4 km/h Distance 25.96 km</desc>
<time>2011-09-29T11:15:06.41</time>
<name>4289</name>
</trkpt>
<trkpt lat="41.709663" lon="-0.681123">
<ele>466.0</ele>
<speed>17.3</speed>
<course>94.5</course>
<desc>Speed 17.3 km/h Distance 25.97 km</desc>
<time>2011-09-29T11:15:07.42</time>
<name>4290</name>
</trkpt>
<trkpt lat="41.709660" lon="-0.681067">
<ele>466.0</ele>
<speed>16.8</speed>
<course>99.0</course>
<desc>Speed 16.8 km/h Distance 25.97 km</desc>
<time>2011-09-29T11:15:08.41</time>
<name>4291</name>
</trkpt>
<trkpt lat="41.709653" lon="-0.681010">
<ele>466.0</ele>
<speed>16.8</speed>
<course>92.3</course>
<desc>Speed 16.8 km/h Distance 25.98 km</desc>
<time>2011-09-29T11:15:09.41</time>
<name>4292</name>
</trkpt>
<trkpt lat="41.709652" lon="-0.680955">
<ele>466.5</ele>
<speed>16.8</speed>
<course>98.0</course>
<desc>Speed 16.8 km/h Distance 25.98 km</desc>
<time>2011-09-29T11:15:11.06</time>
<name>4293</name>
</trkpt>
<trkpt lat="41.709640" lon="-0.680843">
<ele>466.0</ele>
<speed>17.0</speed>
<course>101.1</course>
<desc>Speed 17.0 km/h Distance 25.99 km</desc>
<time>2011-09-29T11:15:12.41</time>
<name>4294</name>
</trkpt>
<trkpt lat="41.709632" lon="-0.680787">
<ele>466.0</ele>
<speed>17.2</speed>
<course>101.5</course>
<desc>Speed 17.2 km/h Distance 26.00 km</desc>
<time>2011-09-29T11:15:13.41</time>
<name>4295</name>
</trkpt>
<trkpt lat="41.709623" lon="-0.680732">
<ele>466.0</ele>
<speed>16.9</speed>
<course>103.7</course>
<desc>Speed 16.9 km/h Distance 26.00 km</desc>
<time>2011-09-29T11:15:14.41</time>
<name>4296</name>
</trkpt>
<trkpt lat="41.709613" lon="-0.680677">
<ele>466.0</ele>
<speed>16.9</speed>
<course>108.0</course>
<desc>Speed 16.9 km/h Distance 26.00 km</desc>
<time>2011-09-29T11:15:15.41</time>
<name>4297</name>
</trkpt>
<trkpt lat="41.709600" lon="-0.680622">
<ele>466.0</ele>
<speed>17.3</speed>
<course>107.5</course>
<desc>Speed 17.3 km/h Distance 26.01 km</desc>
<time>2011-09-29T11:15:16.41</time>
<name>4298</name>
</trkpt>
<trkpt lat="41.709587" lon="-0.680565">
<ele>466.0</ele>
<speed>17.9</speed>
<course>109.0</course>
<desc>Speed 17.9 km/h Distance 26.01 km</desc>
<time>2011-09-29T11:15:17.41</time>
<name>4299</name>
</trkpt>
<trkpt lat="41.709572" lon="-0.680507">
<ele>466.0</ele>
<speed>18.6</speed>
<course>108.0</course>
<desc>Speed 18.6 km/h Distance 26.02 km</desc>
<time>2011-09-29T11:15:18.40</time>
<name>4300</name>
</trkpt>
<trkpt lat="41.709557" lon="-0.680445">
<ele>466.0</ele>
<speed>18.9</speed>
<course>108.5</course>
<desc>Speed 18.9 km/h Distance 26.02 km</desc>
<time>2011-09-29T11:15:19.41</time>
<name>4301</name>
</trkpt>
<trkpt lat="41.709542" lon="-0.680385">
<ele>466.0</ele>
<speed>19.0</speed>
<course>110.7</course>
<desc>Speed 19.0 km/h Distance 26.03 km</desc>
<time>2011-09-29T11:15:20.79</time>
<name>4302</name>
</trkpt>
<trkpt lat="41.709508" lon="-0.680267">
<ele>466.0</ele>
<speed>19.0</speed>
<course>113.4</course>
<desc>Speed 19.0 km/h Distance 26.04 km</desc>
<time>2011-09-29T11:15:22.41</time>
<name>4303</name>
</trkpt>
<trkpt lat="41.709490" lon="-0.680210">
<ele>466.0</ele>
<speed>18.5</speed>
<course>114.7</course>
<desc>Speed 18.5 km/h Distance 26.05 km</desc>
<time>2011-09-29T11:15:23.40</time>
<name>4304</name>
</trkpt>
<trkpt lat="41.709472" lon="-0.680157">
<ele>466.5</ele>
<speed>17.5</speed>
<course>115.6</course>
<desc>Speed 17.5 km/h Distance 26.05 km</desc>
<time>2011-09-29T11:15:24.40</time>
<name>4305</name>
</trkpt>
<trkpt lat="41.709455" lon="-0.680110">
<ele>466.5</ele>
<speed>15.6</speed>
<course>119.5</course>
<desc>Speed 15.6 km/h Distance 26.05 km</desc>
<time>2011-09-29T11:15:25.40</time>
<name>4306</name>
</trkpt>
<trkpt lat="41.709437" lon="-0.680067">
<ele>466.5</ele>
<speed>15.0</speed>
<course>119.2</course>
<desc>Speed 15.0 km/h Distance 26.06 km</desc>
<time>2011-09-29T11:15:26.40</time>
<name>4307</name>
</trkpt>
<trkpt lat="41.709420" lon="-0.680027">
<ele>466.5</ele>
<speed>13.8</speed>
<course>114.1</course>
<desc>Speed 13.8 km/h Distance 26.06 km</desc>
<time>2011-09-29T11:15:27.72</time>
<name>4308</name>
</trkpt>
<trkpt lat="41.709408" lon="-0.679992">
<ele>466.5</ele>
<speed>11.9</speed>
<course>114.1</course>
<desc>Speed 11.9 km/h Distance 26.07 km</desc>
<time>2011-09-29T11:15:28.41</time>
<name>4309</name>
</trkpt>
<trkpt lat="41.709398" lon="-0.679962">
<ele>466.5</ele>
<speed>10.1</speed>
<course>119.4</course>
<desc>Speed 10.1 km/h Distance 26.07 km</desc>
<time>2011-09-29T11:15:29.40</time>
<name>4310</name>
</trkpt>
<trkpt lat="41.709385" lon="-0.679930">
<ele>467.0</ele>
<speed>10.8</speed>
<course>118.2</course>
<desc>Speed 10.8 km/h Distance 26.07 km</desc>
<time>2011-09-29T11:15:30.52</time>
<name>4311</name>
</trkpt>
<trkpt lat="41.709372" lon="-0.679897">
<ele>467.0</ele>
<speed>11.7</speed>
<course>116.0</course>
<desc>Speed 11.7 km/h Distance 26.07 km</desc>
<time>2011-09-29T11:15:31.40</time>
<name>4312</name>
</trkpt>
<trkpt lat="41.709358" lon="-0.679860">
<ele>467.0</ele>
<speed>12.1</speed>
<course>116.0</course>
<desc>Speed 12.1 km/h Distance 26.08 km</desc>
<time>2011-09-29T11:15:32.40</time>
<name>4313</name>
</trkpt>
<trkpt lat="41.709345" lon="-0.679823">
<ele>467.5</ele>
<speed>12.4</speed>
<course>117.0</course>
<desc>Speed 12.4 km/h Distance 26.08 km</desc>
<time>2011-09-29T11:15:33.40</time>
<name>4314</name>
</trkpt>
<trkpt lat="41.709332" lon="-0.679788">
<ele>467.5</ele>
<speed>12.0</speed>
<course>109.3</course>
<desc>Speed 12.0 km/h Distance 26.08 km</desc>
<time>2011-09-29T11:15:34.40</time>
<name>4315</name>
</trkpt>
<trkpt lat="41.709322" lon="-0.679750">
<ele>467.5</ele>
<speed>12.1</speed>
<course>121.1</course>
<desc>Speed 12.1 km/h Distance 26.09 km</desc>
<time>2011-09-29T11:15:35.39</time>
<name>4316</name>
</trkpt>
<trkpt lat="41.709307" lon="-0.679717">
<ele>467.5</ele>
<speed>12.0</speed>
<course>113.1</course>
<desc>Speed 12.0 km/h Distance 26.09 km</desc>
<time>2011-09-29T11:15:36.39</time>
<name>4317</name>
</trkpt>
<trkpt lat="41.709295" lon="-0.679680">
<ele>468.0</ele>
<speed>11.8</speed>
<course>113.1</course>
<desc>Speed 11.8 km/h Distance 26.09 km</desc>
<time>2011-09-29T11:15:37.45</time>
<name>4318</name>
</trkpt>
<trkpt lat="41.709283" lon="-0.679643">
<ele>468.0</ele>
<speed>12.1</speed>
<course>110.1</course>
<desc>Speed 12.1 km/h Distance 26.10 km</desc>
<time>2011-09-29T11:15:38.39</time>
<name>4319</name>
</trkpt>
<trkpt lat="41.709273" lon="-0.679607">
<ele>468.0</ele>
<speed>12.0</speed>
<course>112.2</course>
<desc>Speed 12.0 km/h Distance 26.10 km</desc>
<time>2011-09-29T11:15:39.39</time>
<name>4320</name>
</trkpt>
<trkpt lat="41.709262" lon="-0.679568">
<ele>468.0</ele>
<speed>12.4</speed>
<course>109.3</course>
<desc>Speed 12.4 km/h Distance 26.10 km</desc>
<time>2011-09-29T11:15:40.39</time>
<name>4321</name>
</trkpt>
<trkpt lat="41.709252" lon="-0.679530">
<ele>468.0</ele>
<speed>12.5</speed>
<course>108.5</course>
<desc>Speed 12.5 km/h Distance 26.11 km</desc>
<time>2011-09-29T11:15:41.40</time>
<name>4322</name>
</trkpt>
<trkpt lat="41.709242" lon="-0.679490">
<ele>468.0</ele>
<speed>12.4</speed>
<course>108.5</course>
<desc>Speed 12.4 km/h Distance 26.11 km</desc>
<time>2011-09-29T11:15:42.39</time>
<name>4323</name>
</trkpt>
<trkpt lat="41.709233" lon="-0.679457">
<ele>468.0</ele>
<speed>10.7</speed>
<course>103.3</course>
<desc>Speed 10.7 km/h Distance 26.11 km</desc>
<time>2011-09-29T11:15:43.39</time>
<name>4324</name>
</trkpt>
<trkpt lat="41.709228" lon="-0.679428">
<ele>468.0</ele>
<speed>9.0</speed>
<course>102.6</course>
<desc>Speed 9.0 km/h Distance 26.12 km</desc>
<time>2011-09-29T11:15:44.39</time>
<name>4325</name>
</trkpt>
<trkpt lat="41.709223" lon="-0.679398">
<ele>468.0</ele>
<speed>9.2</speed>
<course>106.9</course>
<desc>Speed 9.2 km/h Distance 26.12 km</desc>
<time>2011-09-29T11:15:45.39</time>
<name>4326</name>
</trkpt>
<trkpt lat="41.709215" lon="-0.679362">
<ele>468.0</ele>
<speed>11.6</speed>
<course>107.8</course>
<desc>Speed 11.6 km/h Distance 26.12 km</desc>
<time>2011-09-29T11:15:46.39</time>
<name>4327</name>
</trkpt>
<trkpt lat="41.709205" lon="-0.679320">
<ele>468.0</ele>
<speed>13.0</speed>
<course>100.5</course>
<desc>Speed 13.0 km/h Distance 26.13 km</desc>
<time>2011-09-29T11:15:47.39</time>
<name>4328</name>
</trkpt>
<trkpt lat="41.709198" lon="-0.679272">
<ele>468.0</ele>
<speed>14.4</speed>
<course>101.4</course>
<desc>Speed 14.4 km/h Distance 26.13 km</desc>
<time>2011-09-29T11:15:48.92</time>
<name>4329</name>
</trkpt>
<trkpt lat="41.709183" lon="-0.679172">
<ele>468.5</ele>
<speed>15.6</speed>
<course>99.2</course>
<desc>Speed 15.6 km/h Distance 26.14 km</desc>
<time>2011-09-29T11:15:50.39</time>
<name>4330</name>
</trkpt>
<trkpt lat="41.709177" lon="-0.679117">
<ele>468.5</ele>
<speed>16.2</speed>
<course>101.5</course>
<desc>Speed 16.2 km/h Distance 26.14 km</desc>
<time>2011-09-29T11:15:52.33</time>
<name>4331</name>
</trkpt>
<trkpt lat="41.709152" lon="-0.678952">
<ele>468.5</ele>
<speed>17.1</speed>
<course>96.7</course>
<desc>Speed 17.1 km/h Distance 26.16 km</desc>
<time>2011-09-29T11:15:54.38</time>
<name>4332</name>
</trkpt>
<trkpt lat="41.709147" lon="-0.678895">
<ele>469.0</ele>
<speed>17.3</speed>
<course>99.0</course>
<desc>Speed 17.3 km/h Distance 26.16 km</desc>
<time>2011-09-29T11:15:55.38</time>
<name>4333</name>
</trkpt>
<trkpt lat="41.709140" lon="-0.678838">
<ele>469.0</ele>
<speed>17.3</speed>
<course>96.5</course>
<desc>Speed 17.3 km/h Distance 26.17 km</desc>
<time>2011-09-29T11:15:56.38</time>
<name>4334</name>
</trkpt>
<trkpt lat="41.709135" lon="-0.678780">
<ele>469.0</ele>
<speed>17.5</speed>
<course>98.7</course>
<desc>Speed 17.5 km/h Distance 26.17 km</desc>
<time>2011-09-29T11:15:57.38</time>
<name>4335</name>
</trkpt>
<trkpt lat="41.709128" lon="-0.678722">
<ele>469.0</ele>
<speed>17.8</speed>
<course>100.8</course>
<desc>Speed 17.8 km/h Distance 26.18 km</desc>
<time>2011-09-29T11:15:58.38</time>
<name>4336</name>
</trkpt>
<trkpt lat="41.709120" lon="-0.678663">
<ele>469.0</ele>
<speed>17.7</speed>
<course>97.3</course>
<desc>Speed 17.7 km/h Distance 26.18 km</desc>
<time>2011-09-29T11:15:59.77</time>
<name>4337</name>
</trkpt>
<trkpt lat="41.709108" lon="-0.678542">
<ele>469.0</ele>
<speed>18.5</speed>
<course>98.2</course>
<desc>Speed 18.5 km/h Distance 26.19 km</desc>
<time>2011-09-29T11:16:01.38</time>
<name>4338</name>
</trkpt>
<trkpt lat="41.709102" lon="-0.678480">
<ele>469.0</ele>
<speed>18.5</speed>
<course>98.5</course>
<desc>Speed 18.5 km/h Distance 26.20 km</desc>
<time>2011-09-29T11:16:02.38</time>
<name>4339</name>
</trkpt>
<trkpt lat="41.709095" lon="-0.678420">
<ele>469.5</ele>
<speed>18.2</speed>
<course>98.5</course>
<desc>Speed 18.2 km/h Distance 26.20 km</desc>
<time>2011-09-29T11:16:03.38</time>
<name>4340</name>
</trkpt>
<trkpt lat="41.709088" lon="-0.678360">
<ele>469.5</ele>
<speed>18.1</speed>
<course>96.4</course>
<desc>Speed 18.1 km/h Distance 26.21 km</desc>
<time>2011-09-29T11:16:04.37</time>
<name>4341</name>
</trkpt>
<trkpt lat="41.709083" lon="-0.678300">
<ele>469.5</ele>
<speed>17.9</speed>
<course>94.3</course>
<desc>Speed 17.9 km/h Distance 26.21 km</desc>
<time>2011-09-29T11:16:05.37</time>
<name>4342</name>
</trkpt>
<trkpt lat="41.709080" lon="-0.678240">
<ele>470.0</ele>
<speed>18.0</speed>
<course>97.7</course>
<desc>Speed 18.0 km/h Distance 26.22 km</desc>
<time>2011-09-29T11:16:06.70</time>
<name>4343</name>
</trkpt>
<trkpt lat="41.709068" lon="-0.678125">
<ele>470.0</ele>
<speed>17.2</speed>
<course>96.7</course>
<desc>Speed 17.2 km/h Distance 26.23 km</desc>
<time>2011-09-29T11:16:08.37</time>
<name>4344</name>
</trkpt>
<trkpt lat="41.709063" lon="-0.678068">
<ele>470.0</ele>
<speed>17.0</speed>
<course>94.5</course>
<desc>Speed 17.0 km/h Distance 26.23 km</desc>
<time>2011-09-29T11:16:09.51</time>
<name>4345</name>
</trkpt>
<trkpt lat="41.709060" lon="-0.678012">
<ele>470.5</ele>
<speed>16.7</speed>
<course>94.5</course>
<desc>Speed 16.7 km/h Distance 26.24 km</desc>
<time>2011-09-29T11:16:10.37</time>
<name>4346</name>
</trkpt>
<trkpt lat="41.709057" lon="-0.677955">
<ele>470.5</ele>
<speed>16.7</speed>
<course>94.5</course>
<desc>Speed 16.7 km/h Distance 26.24 km</desc>
<time>2011-09-29T11:16:11.37</time>
<name>4347</name>
</trkpt>
<trkpt lat="41.709053" lon="-0.677898">
<ele>470.5</ele>
<speed>17.0</speed>
<course>96.7</course>
<desc>Speed 17.0 km/h Distance 26.25 km</desc>
<time>2011-09-29T11:16:12.36</time>
<name>4348</name>
</trkpt>
<trkpt lat="41.709048" lon="-0.677842">
<ele>471.0</ele>
<speed>17.0</speed>
<course>94.6</course>
<desc>Speed 17.0 km/h Distance 26.25 km</desc>
<time>2011-09-29T11:16:13.36</time>
<name>4349</name>
</trkpt>
<trkpt lat="41.709045" lon="-0.677787">
<ele>471.0</ele>
<speed>17.0</speed>
<course>99.2</course>
<desc>Speed 17.0 km/h Distance 26.26 km</desc>
<time>2011-09-29T11:16:14.36</time>
<name>4350</name>
</trkpt>
<trkpt lat="41.709038" lon="-0.677732">
<ele>471.0</ele>
<speed>16.5</speed>
<course>94.8</course>
<desc>Speed 16.5 km/h Distance 26.26 km</desc>
<time>2011-09-29T11:16:15.36</time>
<name>4351</name>
</trkpt>
<trkpt lat="41.709035" lon="-0.677678">
<ele>471.5</ele>
<speed>16.0</speed>
<course>92.5</course>
<desc>Speed 16.0 km/h Distance 26.26 km</desc>
<time>2011-09-29T11:16:16.45</time>
<name>4352</name>
</trkpt>
<trkpt lat="41.709033" lon="-0.677627">
<ele>472.0</ele>
<speed>15.4</speed>
<course>95.3</course>
<desc>Speed 15.4 km/h Distance 26.27 km</desc>
<time>2011-09-29T11:16:17.36</time>
<name>4353</name>
</trkpt>
<trkpt lat="41.709030" lon="-0.677578">
<ele>472.0</ele>
<speed>14.5</speed>
<course>95.5</course>
<desc>Speed 14.5 km/h Distance 26.27 km</desc>
<time>2011-09-29T11:16:18.36</time>
<name>4354</name>
</trkpt>
<trkpt lat="41.709027" lon="-0.677532">
<ele>472.5</ele>
<speed>13.8</speed>
<course>98.2</course>
<desc>Speed 13.8 km/h Distance 26.28 km</desc>
<time>2011-09-29T11:16:19.36</time>
<name>4355</name>
</trkpt>
<trkpt lat="41.709022" lon="-0.677485">
<ele>472.5</ele>
<speed>14.1</speed>
<course>98.2</course>
<desc>Speed 14.1 km/h Distance 26.28 km</desc>
<time>2011-09-29T11:16:20.36</time>
<name>4356</name>
</trkpt>
<trkpt lat="41.709017" lon="-0.677438">
<ele>473.0</ele>
<speed>14.0</speed>
<course>98.8</course>
<desc>Speed 14.0 km/h Distance 26.28 km</desc>
<time>2011-09-29T11:16:21.36</time>
<name>4357</name>
</trkpt>
<trkpt lat="41.709012" lon="-0.677395">
<ele>473.0</ele>
<speed>13.2</speed>
<course>98.5</course>
<desc>Speed 13.2 km/h Distance 26.29 km</desc>
<time>2011-09-29T11:16:22.36</time>
<name>4358</name>
</trkpt>
<trkpt lat="41.709007" lon="-0.677350">
<ele>473.5</ele>
<speed>13.5</speed>
<course>107.2</course>
<desc>Speed 13.5 km/h Distance 26.29 km</desc>
<time>2011-09-29T11:16:23.36</time>
<name>4359</name>
</trkpt>
<trkpt lat="41.708997" lon="-0.677307">
<ele>473.5</ele>
<speed>13.5</speed>
<course>115.0</course>
<desc>Speed 13.5 km/h Distance 26.30 km</desc>
<time>2011-09-29T11:16:24.35</time>
<name>4360</name>
</trkpt>
<trkpt lat="41.708983" lon="-0.677268">
<ele>474.0</ele>
<speed>12.6</speed>
<course>123.8</course>
<desc>Speed 12.6 km/h Distance 26.30 km</desc>
<time>2011-09-29T11:16:25.35</time>
<name>4361</name>
</trkpt>
<trkpt lat="41.708967" lon="-0.677235">
<ele>474.0</ele>
<speed>11.8</speed>
<course>129.3</course>
<desc>Speed 11.8 km/h Distance 26.30 km</desc>
<time>2011-09-29T11:16:26.35</time>
<name>4362</name>
</trkpt>
<trkpt lat="41.708948" lon="-0.677205">
<ele>474.5</ele>
<speed>11.7</speed>
<course>136.2</course>
<desc>Speed 11.7 km/h Distance 26.31 km</desc>
<time>2011-09-29T11:16:27.35</time>
<name>4363</name>
</trkpt>
<trkpt lat="41.708925" lon="-0.677175">
<ele>475.0</ele>
<speed>12.7</speed>
<course>140.8</course>
<desc>Speed 12.7 km/h Distance 26.31 km</desc>
<time>2011-09-29T11:16:29.00</time>
<name>4364</name>
</trkpt>
<trkpt lat="41.708872" lon="-0.677117">
<ele>475.0</ele>
<speed>14.3</speed>
<course>140.0</course>
<desc>Speed 14.3 km/h Distance 26.32 km</desc>
<time>2011-09-29T11:16:30.35</time>
<name>4365</name>
</trkpt>
<trkpt lat="41.708845" lon="-0.677087">
<ele>475.0</ele>
<speed>14.3</speed>
<course>135.1</course>
<desc>Speed 14.3 km/h Distance 26.32 km</desc>
<time>2011-09-29T11:16:31.35</time>
<name>4366</name>
</trkpt>
<trkpt lat="41.708820" lon="-0.677053">
<ele>475.0</ele>
<speed>14.1</speed>
<course>127.1</course>
<desc>Speed 14.1 km/h Distance 26.32 km</desc>
<time>2011-09-29T11:16:32.35</time>
<name>4367</name>
</trkpt>
<trkpt lat="41.708798" lon="-0.677015">
<ele>475.0</ele>
<speed>14.4</speed>
<course>122.7</course>
<desc>Speed 14.4 km/h Distance 26.33 km</desc>
<time>2011-09-29T11:16:33.35</time>
<name>4368</name>
</trkpt>
<trkpt lat="41.708778" lon="-0.676973">
<ele>475.5</ele>
<speed>14.7</speed>
<course>122.7</course>
<desc>Speed 14.7 km/h Distance 26.33 km</desc>
<time>2011-09-29T11:16:34.35</time>
<name>4369</name>
</trkpt>
<trkpt lat="41.708758" lon="-0.676932">
<ele>475.5</ele>
<speed>14.7</speed>
<course>118.2</course>
<desc>Speed 14.7 km/h Distance 26.34 km</desc>
<time>2011-09-29T11:16:35.35</time>
<name>4370</name>
</trkpt>
<trkpt lat="41.708742" lon="-0.676890">
<ele>476.0</ele>
<speed>14.3</speed>
<course>113.2</course>
<desc>Speed 14.3 km/h Distance 26.34 km</desc>
<time>2011-09-29T11:16:36.34</time>
<name>4371</name>
</trkpt>
<trkpt lat="41.708728" lon="-0.676848">
<ele>476.0</ele>
<speed>13.7</speed>
<course>104.4</course>
<desc>Speed 13.7 km/h Distance 26.34 km</desc>
<time>2011-09-29T11:16:37.35</time>
<name>4372</name>
</trkpt>
<trkpt lat="41.708720" lon="-0.676805">
<ele>476.0</ele>
<speed>13.2</speed>
<course>105.5</course>
<desc>Speed 13.2 km/h Distance 26.35 km</desc>
<time>2011-09-29T11:16:38.77</time>
<name>4373</name>
</trkpt>
<trkpt lat="41.708702" lon="-0.676717">
<ele>476.5</ele>
<speed>13.8</speed>
<course>103.5</course>
<desc>Speed 13.8 km/h Distance 26.36 km</desc>
<time>2011-09-29T11:16:40.34</time>
<name>4374</name>
</trkpt>
<trkpt lat="41.708693" lon="-0.676670">
<ele>476.5</ele>
<speed>14.4</speed>
<course>100.5</course>
<desc>Speed 14.4 km/h Distance 26.36 km</desc>
<time>2011-09-29T11:16:41.34</time>
<name>4375</name>
</trkpt>
<trkpt lat="41.708687" lon="-0.676622">
<ele>476.5</ele>
<speed>14.9</speed>
<course>100.5</course>
<desc>Speed 14.9 km/h Distance 26.36 km</desc>
<time>2011-09-29T11:16:42.34</time>
<name>4376</name>
</trkpt>
<trkpt lat="41.708680" lon="-0.676573">
<ele>476.5</ele>
<speed>15.0</speed>
<course>100.5</course>
<desc>Speed 15.0 km/h Distance 26.37 km</desc>
<time>2011-09-29T11:16:43.34</time>
<name>4377</name>
</trkpt>
<trkpt lat="41.708673" lon="-0.676525">
<ele>476.5</ele>
<speed>15.0</speed>
<course>92.6</course>
<desc>Speed 15.0 km/h Distance 26.37 km</desc>
<time>2011-09-29T11:16:44.34</time>
<name>4378</name>
</trkpt>
<trkpt lat="41.708672" lon="-0.676475">
<ele>476.5</ele>
<speed>15.0</speed>
<course>96.5</course>
<desc>Speed 15.0 km/h Distance 26.38 km</desc>
<time>2011-09-29T11:16:45.71</time>
<name>4379</name>
</trkpt>
<trkpt lat="41.708663" lon="-0.676377">
<ele>477.0</ele>
<speed>14.5</speed>
<course>97.9</course>
<desc>Speed 14.5 km/h Distance 26.38 km</desc>
<time>2011-09-29T11:16:47.34</time>
<name>4380</name>
</trkpt>
<trkpt lat="41.708658" lon="-0.676328">
<ele>477.0</ele>
<speed>14.6</speed>
<course>98.2</course>
<desc>Speed 14.6 km/h Distance 26.39 km</desc>
<time>2011-09-29T11:16:48.51</time>
<name>4381</name>
</trkpt>
<trkpt lat="41.708653" lon="-0.676282">
<ele>477.5</ele>
<speed>14.4</speed>
<course>95.5</course>
<desc>Speed 14.4 km/h Distance 26.39 km</desc>
<time>2011-09-29T11:16:49.34</time>
<name>4382</name>
</trkpt>
<trkpt lat="41.708650" lon="-0.676235">
<ele>477.5</ele>
<speed>14.0</speed>
<course>92.7</course>
<desc>Speed 14.0 km/h Distance 26.40 km</desc>
<time>2011-09-29T11:16:50.33</time>
<name>4383</name>
</trkpt>
<trkpt lat="41.708648" lon="-0.676188">
<ele>477.5</ele>
<speed>13.9</speed>
<course>92.7</course>
<desc>Speed 13.9 km/h Distance 26.40 km</desc>
<time>2011-09-29T11:16:51.33</time>
<name>4384</name>
</trkpt>
<trkpt lat="41.708647" lon="-0.676142">
<ele>477.5</ele>
<speed>14.0</speed>
<course>92.8</course>
<desc>Speed 14.0 km/h Distance 26.40 km</desc>
<time>2011-09-29T11:16:52.33</time>
<name>4385</name>
</trkpt>
<trkpt lat="41.708645" lon="-0.676097">
<ele>478.0</ele>
<speed>13.8</speed>
<course>92.8</course>
<desc>Speed 13.8 km/h Distance 26.41 km</desc>
<time>2011-09-29T11:16:53.33</time>
<name>4386</name>
</trkpt>
<trkpt lat="41.708643" lon="-0.676052">
<ele>478.0</ele>
<speed>13.4</speed>
<course>90.0</course>
<desc>Speed 13.4 km/h Distance 26.41 km</desc>
<time>2011-09-29T11:16:54.33</time>
<name>4387</name>
</trkpt>
<trkpt lat="41.708643" lon="-0.676008">
<ele>478.5</ele>
<speed>12.8</speed>
<course>87.1</course>
<desc>Speed 12.8 km/h Distance 26.42 km</desc>
<time>2011-09-29T11:16:55.44</time>
<name>4388</name>
</trkpt>
<trkpt lat="41.708645" lon="-0.675965">
<ele>478.5</ele>
<speed>12.9</speed>
<course>90.0</course>
<desc>Speed 12.9 km/h Distance 26.42 km</desc>
<time>2011-09-29T11:16:56.33</time>
<name>4389</name>
</trkpt>
<trkpt lat="41.708645" lon="-0.675923">
<ele>478.5</ele>
<speed>12.8</speed>
<course>90.0</course>
<desc>Speed 12.8 km/h Distance 26.42 km</desc>
<time>2011-09-29T11:16:57.33</time>
<name>4390</name>
</trkpt>
<trkpt lat="41.708645" lon="-0.675882">
<ele>478.5</ele>
<speed>12.5</speed>
<course>87.1</course>
<desc>Speed 12.5 km/h Distance 26.43 km</desc>
<time>2011-09-29T11:16:58.33</time>
<name>4391</name>
</trkpt>
<trkpt lat="41.708647" lon="-0.675838">
<ele>479.0</ele>
<speed>12.6</speed>
<course>90.0</course>
<desc>Speed 12.6 km/h Distance 26.43 km</desc>
<time>2011-09-29T11:16:59.33</time>
<name>4392</name>
</trkpt>
<trkpt lat="41.708647" lon="-0.675797">
<ele>479.0</ele>
<speed>12.6</speed>
<course>87.1</course>
<desc>Speed 12.6 km/h Distance 26.43 km</desc>
<time>2011-09-29T11:17:00.33</time>
<name>4393</name>
</trkpt>
<trkpt lat="41.708648" lon="-0.675753">
<ele>479.0</ele>
<speed>13.0</speed>
<course>90.0</course>
<desc>Speed 13.0 km/h Distance 26.44 km</desc>
<time>2011-09-29T11:17:01.33</time>
<name>4394</name>
</trkpt>
<trkpt lat="41.708648" lon="-0.675710">
<ele>479.5</ele>
<speed>12.7</speed>
<course>86.9</course>
<desc>Speed 12.7 km/h Distance 26.44 km</desc>
<time>2011-09-29T11:17:02.32</time>
<name>4395</name>
</trkpt>
<trkpt lat="41.708650" lon="-0.675668">
<ele>479.5</ele>
<speed>12.7</speed>
<course>83.9</course>
<desc>Speed 12.7 km/h Distance 26.44 km</desc>
<time>2011-09-29T11:17:03.32</time>
<name>4396</name>
</trkpt>
<trkpt lat="41.708653" lon="-0.675627">
<ele>479.5</ele>
<speed>12.4</speed>
<course>80.9</course>
<desc>Speed 12.4 km/h Distance 26.45 km</desc>
<time>2011-09-29T11:17:04.32</time>
<name>4397</name>
</trkpt>
<trkpt lat="41.708658" lon="-0.675585">
<ele>480.0</ele>
<speed>12.6</speed>
<course>87.1</course>
<desc>Speed 12.6 km/h Distance 26.45 km</desc>
<time>2011-09-29T11:17:05.33</time>
<name>4398</name>
</trkpt>
<trkpt lat="41.708660" lon="-0.675542">
<ele>480.0</ele>
<speed>12.6</speed>
<course>83.9</course>
<desc>Speed 12.6 km/h Distance 26.45 km</desc>
<time>2011-09-29T11:17:06.32</time>
<name>4399</name>
</trkpt>
<trkpt lat="41.708663" lon="-0.675500">
<ele>480.0</ele>
<speed>12.7</speed>
<course>79.2</course>
<desc>Speed 12.7 km/h Distance 26.46 km</desc>
<time>2011-09-29T11:17:07.98</time>
<name>4400</name>
</trkpt>
<trkpt lat="41.708675" lon="-0.675418">
<ele>480.5</ele>
<speed>12.2</speed>
<course>86.9</course>
<desc>Speed 12.2 km/h Distance 26.46 km</desc>
<time>2011-09-29T11:17:09.32</time>
<name>4401</name>
</trkpt>
<trkpt lat="41.708677" lon="-0.675377">
<ele>481.0</ele>
<speed>12.5</speed>
<course>83.9</course>
<desc>Speed 12.5 km/h Distance 26.47 km</desc>
<time>2011-09-29T11:17:10.32</time>
<name>4402</name>
</trkpt>
<trkpt lat="41.708680" lon="-0.675335">
<ele>481.0</ele>
<speed>12.3</speed>
<course>77.4</course>
<desc>Speed 12.3 km/h Distance 26.47 km</desc>
<time>2011-09-29T11:17:11.32</time>
<name>4403</name>
</trkpt>
<trkpt lat="41.708687" lon="-0.675295">
<ele>481.5</ele>
<speed>12.1</speed>
<course>80.5</course>
<desc>Speed 12.1 km/h Distance 26.47 km</desc>
<time>2011-09-29T11:17:12.32</time>
<name>4404</name>
</trkpt>
<trkpt lat="41.708692" lon="-0.675255">
<ele>481.5</ele>
<speed>12.2</speed>
<course>77.4</course>
<desc>Speed 12.2 km/h Distance 26.48 km</desc>
<time>2011-09-29T11:17:13.32</time>
<name>4405</name>
</trkpt>
<trkpt lat="41.708698" lon="-0.675215">
<ele>481.5</ele>
<speed>12.1</speed>
<course>83.6</course>
<desc>Speed 12.1 km/h Distance 26.48 km</desc>
<time>2011-09-29T11:17:14.32</time>
<name>4406</name>
</trkpt>
<trkpt lat="41.708702" lon="-0.675175">
<ele>481.5</ele>
<speed>12.4</speed>
<course>90.0</course>
<desc>Speed 12.4 km/h Distance 26.48 km</desc>
<time>2011-09-29T11:17:15.32</time>
<name>4407</name>
</trkpt>
<trkpt lat="41.708702" lon="-0.675130">
<ele>481.5</ele>
<speed>13.2</speed>
<course>92.6</course>
<desc>Speed 13.2 km/h Distance 26.49 km</desc>
<time>2011-09-29T11:17:16.32</time>
<name>4408</name>
</trkpt>
<trkpt lat="41.708700" lon="-0.675080">
<ele>480.5</ele>
<speed>15.1</speed>
<course>102.8</course>
<desc>Speed 15.1 km/h Distance 26.49 km</desc>
<time>2011-09-29T11:17:17.71</time>
<name>4409</name>
</trkpt>
<trkpt lat="41.708680" lon="-0.674962">
<ele>481.0</ele>
<speed>17.7</speed>
<course>110.3</course>
<desc>Speed 17.7 km/h Distance 26.50 km</desc>
<time>2011-09-29T11:17:19.31</time>
<name>4410</name>
</trkpt>
<trkpt lat="41.708667" lon="-0.674913">
<ele>481.0</ele>
<speed>16.1</speed>
<course>112.6</course>
<desc>Speed 16.1 km/h Distance 26.51 km</desc>
<time>2011-09-29T11:17:20.31</time>
<name>4411</name>
</trkpt>
<trkpt lat="41.708652" lon="-0.674865">
<ele>481.5</ele>
<speed>15.3</speed>
<course>113.3</course>
<desc>Speed 15.3 km/h Distance 26.51 km</desc>
<time>2011-09-29T11:17:21.31</time>
<name>4412</name>
</trkpt>
<trkpt lat="41.708637" lon="-0.674818">
<ele>481.5</ele>
<speed>15.2</speed>
<course>115.6</course>
<desc>Speed 15.2 km/h Distance 26.52 km</desc>
<time>2011-09-29T11:17:22.31</time>
<name>4413</name>
</trkpt>
<trkpt lat="41.708620" lon="-0.674772">
<ele>481.5</ele>
<speed>15.4</speed>
<course>110.3</course>
<desc>Speed 15.4 km/h Distance 26.52 km</desc>
<time>2011-09-29T11:17:23.31</time>
<name>4414</name>
</trkpt>
<trkpt lat="41.708607" lon="-0.674723">
<ele>481.5</ele>
<speed>15.9</speed>
<course>110.0</course>
<desc>Speed 15.9 km/h Distance 26.52 km</desc>
<time>2011-09-29T11:17:24.64</time>
<name>4415</name>
</trkpt>
<trkpt lat="41.708580" lon="-0.674625">
<ele>481.5</ele>
<speed>15.6</speed>
<course>105.0</course>
<desc>Speed 15.6 km/h Distance 26.53 km</desc>
<time>2011-09-29T11:17:26.31</time>
<name>4416</name>
</trkpt>
<trkpt lat="41.708570" lon="-0.674575">
<ele>482.0</ele>
<speed>15.8</speed>
<course>102.2</course>
<desc>Speed 15.8 km/h Distance 26.54 km</desc>
<time>2011-09-29T11:17:27.44</time>
<name>4417</name>
</trkpt>
<trkpt lat="41.708562" lon="-0.674523">
<ele>482.0</ele>
<speed>15.7</speed>
<course>97.4</course>
<desc>Speed 15.7 km/h Distance 26.54 km</desc>
<time>2011-09-29T11:17:28.32</time>
<name>4418</name>
</trkpt>
<trkpt lat="41.708557" lon="-0.674472">
<ele>482.0</ele>
<speed>15.5</speed>
<course>87.4</course>
<desc>Speed 15.5 km/h Distance 26.55 km</desc>
<time>2011-09-29T11:17:29.31</time>
<name>4419</name>
</trkpt>
<trkpt lat="41.708558" lon="-0.674422">
<ele>482.0</ele>
<speed>14.9</speed>
<course>81.8</course>
<desc>Speed 14.9 km/h Distance 26.55 km</desc>
<time>2011-09-29T11:17:30.31</time>
<name>4420</name>
</trkpt>
<trkpt lat="41.708563" lon="-0.674375">
<ele>482.0</ele>
<speed>14.3</speed>
<course>81.8</course>
<desc>Speed 14.3 km/h Distance 26.55 km</desc>
<time>2011-09-29T11:17:31.31</time>
<name>4421</name>
</trkpt>
<trkpt lat="41.708568" lon="-0.674328">
<ele>482.0</ele>
<speed>14.0</speed>
<course>79.2</course>
<desc>Speed 14.0 km/h Distance 26.56 km</desc>
<time>2011-09-29T11:17:32.31</time>
<name>4422</name>
</trkpt>
<trkpt lat="41.708575" lon="-0.674282">
<ele>482.5</ele>
<speed>14.2</speed>
<course>92.6</course>
<desc>Speed 14.2 km/h Distance 26.56 km</desc>
<time>2011-09-29T11:17:33.31</time>
<name>4423</name>
</trkpt>
<trkpt lat="41.708573" lon="-0.674233">
<ele>482.0</ele>
<speed>14.6</speed>
<course>100.1</course>
<desc>Speed 14.6 km/h Distance 26.57 km</desc>
<time>2011-09-29T11:17:34.38</time>
<name>4424</name>
</trkpt>
<trkpt lat="41.708567" lon="-0.674183">
<ele>482.0</ele>
<speed>15.6</speed>
<course>106.8</course>
<desc>Speed 15.6 km/h Distance 26.57 km</desc>
<time>2011-09-29T11:17:35.30</time>
<name>4425</name>
</trkpt>
<trkpt lat="41.708555" lon="-0.674132">
<ele>482.0</ele>
<speed>16.3</speed>
<course>115.4</course>
<desc>Speed 16.3 km/h Distance 26.57 km</desc>
<time>2011-09-29T11:17:36.31</time>
<name>4426</name>
</trkpt>
<trkpt lat="41.708537" lon="-0.674080">
<ele>482.0</ele>
<speed>17.0</speed>
<course>123.8</course>
<desc>Speed 17.0 km/h Distance 26.58 km</desc>
<time>2011-09-29T11:17:37.31</time>
<name>4427</name>
</trkpt>
<trkpt lat="41.708513" lon="-0.674033">
<ele>481.5</ele>
<speed>17.5</speed>
<course>134.4</course>
<desc>Speed 17.5 km/h Distance 26.58 km</desc>
<time>2011-09-29T11:17:38.31</time>
<name>4428</name>
</trkpt>
<trkpt lat="41.708482" lon="-0.673990">
<ele>481.5</ele>
<speed>18.1</speed>
<course>140.6</course>
<desc>Speed 18.1 km/h Distance 26.59 km</desc>
<time>2011-09-29T11:17:39.31</time>
<name>4429</name>
</trkpt>
<trkpt lat="41.708448" lon="-0.673953">
<ele>481.0</ele>
<speed>17.9</speed>
<course>141.9</course>
<desc>Speed 17.9 km/h Distance 26.59 km</desc>
<time>2011-09-29T11:17:40.31</time>
<name>4430</name>
</trkpt>
<trkpt lat="41.708417" lon="-0.673920">
<ele>481.5</ele>
<speed>16.7</speed>
<course>141.8</course>
<desc>Speed 16.7 km/h Distance 26.60 km</desc>
<time>2011-09-29T11:17:41.31</time>
<name>4431</name>
</trkpt>
<trkpt lat="41.708387" lon="-0.673888">
<ele>481.5</ele>
<speed>15.3</speed>
<course>139.5</course>
<desc>Speed 15.3 km/h Distance 26.60 km</desc>
<time>2011-09-29T11:17:42.30</time>
<name>4432</name>
</trkpt>
<trkpt lat="41.708363" lon="-0.673862">
<ele>481.5</ele>
<speed>12.7</speed>
<course>145.6</course>
<desc>Speed 12.7 km/h Distance 26.61 km</desc>
<time>2011-09-29T11:17:43.30</time>
<name>4433</name>
</trkpt>
<trkpt lat="41.708343" lon="-0.673843">
<ele>481.5</ele>
<speed>10.1</speed>
<course>143.2</course>
<desc>Speed 10.1 km/h Distance 26.61 km</desc>
<time>2011-09-29T11:17:44.30</time>
<name>4434</name>
</trkpt>
<trkpt lat="41.708327" lon="-0.673827">
<ele>482.0</ele>
<speed>8.7</speed>
<course>137.6</course>
<desc>Speed 8.7 km/h Distance 26.61 km</desc>
<time>2011-09-29T11:17:45.30</time>
<name>4435</name>
</trkpt>
<trkpt lat="41.708312" lon="-0.673808">
<ele>482.0</ele>
<speed>8.4</speed>
<course>144.6</course>
<desc>Speed 8.4 km/h Distance 26.61 km</desc>
<time>2011-09-29T11:17:46.91</time>
<name>4436</name>
</trkpt>
<trkpt lat="41.708277" lon="-0.673775">
<ele>482.5</ele>
<speed>9.1</speed>
<course>153.4</course>
<desc>Speed 9.1 km/h Distance 26.62 km</desc>
<time>2011-09-29T11:17:48.30</time>
<name>4437</name>
</trkpt>
<trkpt lat="41.708257" lon="-0.673762">
<ele>482.5</ele>
<speed>9.5</speed>
<course>150.8</course>
<desc>Speed 9.5 km/h Distance 26.62 km</desc>
<time>2011-09-29T11:17:49.30</time>
<name>4438</name>
</trkpt>
<trkpt lat="41.708237" lon="-0.673747">
<ele>482.5</ele>
<speed>9.2</speed>
<course>143.3</course>
<desc>Speed 9.2 km/h Distance 26.62 km</desc>
<time>2011-09-29T11:17:50.30</time>
<name>4439</name>
</trkpt>
<trkpt lat="41.708218" lon="-0.673728">
<ele>483.0</ele>
<speed>8.7</speed>
<course>146.2</course>
<desc>Speed 8.7 km/h Distance 26.63 km</desc>
<time>2011-09-29T11:17:51.30</time>
<name>4440</name>
</trkpt>
<trkpt lat="41.708202" lon="-0.673713">
<ele>483.0</ele>
<speed>8.6</speed>
<course>140.8</course>
<desc>Speed 8.6 km/h Distance 26.63 km</desc>
<time>2011-09-29T11:17:52.29</time>
<name>4441</name>
</trkpt>
<trkpt lat="41.708183" lon="-0.673693">
<ele>483.5</ele>
<speed>9.5</speed>
<course>148.1</course>
<desc>Speed 9.5 km/h Distance 26.63 km</desc>
<time>2011-09-29T11:17:53.30</time>
<name>4442</name>
</trkpt>
<trkpt lat="41.708163" lon="-0.673677">
<ele>483.5</ele>
<speed>9.4</speed>
<course>140.8</course>
<desc>Speed 9.4 km/h Distance 26.63 km</desc>
<time>2011-09-29T11:17:54.29</time>
<name>4443</name>
</trkpt>
<trkpt lat="41.708145" lon="-0.673657">
<ele>484.0</ele>
<speed>9.7</speed>
<course>140.8</course>
<desc>Speed 9.7 km/h Distance 26.64 km</desc>
<time>2011-09-29T11:17:55.30</time>
<name>4444</name>
</trkpt>
<trkpt lat="41.708127" lon="-0.673637">
<ele>484.0</ele>
<speed>9.2</speed>
<course>145.8</course>
<desc>Speed 9.2 km/h Distance 26.64 km</desc>
<time>2011-09-29T11:17:56.68</time>
<name>4445</name>
</trkpt>
<trkpt lat="41.708090" lon="-0.673603">
<ele>484.5</ele>
<speed>9.5</speed>
<course>140.9</course>
<desc>Speed 9.5 km/h Distance 26.64 km</desc>
<time>2011-09-29T11:17:58.29</time>
<name>4446</name>
</trkpt>
<trkpt lat="41.708072" lon="-0.673583">
<ele>484.5</ele>
<speed>9.5</speed>
<course>143.3</course>
<desc>Speed 9.5 km/h Distance 26.65 km</desc>
<time>2011-09-29T11:17:59.29</time>
<name>4447</name>
</trkpt>
<trkpt lat="41.708052" lon="-0.673563">
<ele>484.5</ele>
<speed>10.0</speed>
<course>136.5</course>
<desc>Speed 10.0 km/h Distance 26.65 km</desc>
<time>2011-09-29T11:18:00.29</time>
<name>4448</name>
</trkpt>
<trkpt lat="41.708033" lon="-0.673540">
<ele>485.0</ele>
<speed>10.3</speed>
<course>131.8</course>
<desc>Speed 10.3 km/h Distance 26.65 km</desc>
<time>2011-09-29T11:18:01.29</time>
<name>4449</name>
</trkpt>
<trkpt lat="41.708017" lon="-0.673515">
<ele>485.0</ele>
<speed>10.2</speed>
<course>129.9</course>
<desc>Speed 10.2 km/h Distance 26.65 km</desc>
<time>2011-09-29T11:18:02.29</time>
<name>4450</name>
</trkpt>
<trkpt lat="41.708000" lon="-0.673488">
<ele>485.5</ele>
<speed>10.3</speed>
<course>123.8</course>
<desc>Speed 10.3 km/h Distance 26.66 km</desc>
<time>2011-09-29T11:18:03.62</time>
<name>4451</name>
</trkpt>
<trkpt lat="41.707987" lon="-0.673462">
<ele>485.5</ele>
<speed>10.0</speed>
<course>129.9</course>
<desc>Speed 10.0 km/h Distance 26.66 km</desc>
<time>2011-09-29T11:18:04.29</time>
<name>4452</name>
</trkpt>
<trkpt lat="41.707970" lon="-0.673435">
<ele>485.5</ele>
<speed>9.9</speed>
<course>130.7</course>
<desc>Speed 9.9 km/h Distance 26.66 km</desc>
<time>2011-09-29T11:18:05.29</time>
<name>4453</name>
</trkpt>
<trkpt lat="41.707955" lon="-0.673412">
<ele>486.0</ele>
<speed>9.9</speed>
<course>127.0</course>
<desc>Speed 9.9 km/h Distance 26.67 km</desc>
<time>2011-09-29T11:18:06.46</time>
<name>4454</name>
</trkpt>
<trkpt lat="41.707940" lon="-0.673385">
<ele>486.0</ele>
<speed>9.7</speed>
<course>133.7</course>
<desc>Speed 9.7 km/h Distance 26.67 km</desc>
<time>2011-09-29T11:18:07.29</time>
<name>4455</name>
</trkpt>
<trkpt lat="41.707923" lon="-0.673362">
<ele>486.0</ele>
<speed>9.8</speed>
<course>133.7</course>
<desc>Speed 9.8 km/h Distance 26.67 km</desc>
<time>2011-09-29T11:18:08.29</time>
<name>4456</name>
</trkpt>
<trkpt lat="41.707907" lon="-0.673338">
<ele>486.0</ele>
<speed>9.6</speed>
<course>135.9</course>
<desc>Speed 9.6 km/h Distance 26.67 km</desc>
<time>2011-09-29T11:18:09.29</time>
<name>4457</name>
</trkpt>
<trkpt lat="41.707890" lon="-0.673317">
<ele>486.0</ele>
<speed>9.5</speed>
<course>140.8</course>
<desc>Speed 9.5 km/h Distance 26.68 km</desc>
<time>2011-09-29T11:18:10.29</time>
<name>4458</name>
</trkpt>
<trkpt lat="41.707872" lon="-0.673297">
<ele>486.0</ele>
<speed>9.4</speed>
<course>150.8</course>
<desc>Speed 9.4 km/h Distance 26.68 km</desc>
<time>2011-09-29T11:18:11.50</time>
<name>4459</name>
</trkpt>
<trkpt lat="41.707852" lon="-0.673282">
<ele>486.0</ele>
<speed>9.6</speed>
<course>152.7</course>
<desc>Speed 9.6 km/h Distance 26.68 km</desc>
<time>2011-09-29T11:18:12.29</time>
<name>4460</name>
</trkpt>
<trkpt lat="41.707830" lon="-0.673267">
<ele>486.0</ele>
<speed>10.0</speed>
<course>168.6</course>
<desc>Speed 10.0 km/h Distance 26.68 km</desc>
<time>2011-09-29T11:18:13.39</time>
<name>4461</name>
</trkpt>
<trkpt lat="41.707805" lon="-0.673260">
<ele>486.0</ele>
<speed>10.0</speed>
<course>171.4</course>
<desc>Speed 10.0 km/h Distance 26.69 km</desc>
<time>2011-09-29T11:18:14.28</time>
<name>4462</name>
</trkpt>
<trkpt lat="41.707780" lon="-0.673255">
<ele>486.0</ele>
<speed>10.3</speed>
<course>174.6</course>
<desc>Speed 10.3 km/h Distance 26.69 km</desc>
<time>2011-09-29T11:18:15.29</time>
<name>4463</name>
</trkpt>
<trkpt lat="41.707755" lon="-0.673252">
<ele>486.0</ele>
<speed>10.5</speed>
<course>180.0</course>
<desc>Speed 10.5 km/h Distance 26.69 km</desc>
<time>2011-09-29T11:18:16.30</time>
<name>4464</name>
</trkpt>
<trkpt lat="41.707735" lon="-0.673252">
<ele>486.0</ele>
<speed>8.4</speed>
<course>270.0</course>
<desc>Speed 8.4 km/h Distance 26.69 km</desc>
<time>2011-09-29T11:18:17.28</time>
<name>4465</name>
</trkpt>
<trkpt lat="41.707735" lon="-0.673260">
<ele>485.5</ele>
<speed>2.2</speed>
<course>29.8</course>
<desc>Speed 2.2 km/h Distance 26.70 km</desc>
<time>2011-09-29T11:18:19.28</time>
<name>4466</name>
</trkpt>
<trkpt lat="41.707757" lon="-0.673243">
<ele>487.5</ele>
<speed>1.3</speed>
<course>25.4</course>
<desc>Speed 1.3 km/h Distance 26.70 km</desc>
<time>2011-09-29T11:18:20.28</time>
<name>4467</name>
</trkpt>
<trkpt lat="41.707762" lon="-0.673240">
<ele>487.5</ele>
<speed>2.1</speed>
<course>322.8</course>
<desc>Speed 2.1 km/h Distance 26.70 km</desc>
<time>2011-09-29T11:18:21.28</time>
<name>4468</name>
</trkpt>
<trkpt lat="41.707767" lon="-0.673245">
<ele>487.0</ele>
<speed>2.7</speed>
<course>303.5</course>
<desc>Speed 2.7 km/h Distance 26.70 km</desc>
<time>2011-09-29T11:18:22.47</time>
<name>4469</name>
</trkpt>
<trkpt lat="41.707770" lon="-0.673252">
<ele>487.0</ele>
<speed>2.6</speed>
<course>213.5</course>
<desc>Speed 2.6 km/h Distance 26.70 km</desc>
<time>2011-09-29T11:18:23.27</time>
<name>4470</name>
</trkpt>
<trkpt lat="41.707755" lon="-0.673265">
<ele>486.5</ele>
<speed>7.2</speed>
<course>228.0</course>
<desc>Speed 7.2 km/h Distance 26.70 km</desc>
<time>2011-09-29T11:18:24.27</time>
<name>4471</name>
</trkpt>
<trkpt lat="41.707748" lon="-0.673275">
<ele>487.0</ele>
<speed>3.6</speed>
<course>251.5</course>
<desc>Speed 3.6 km/h Distance 26.70 km</desc>
<time>2011-09-29T11:18:25.27</time>
<name>4472</name>
</trkpt>
<trkpt lat="41.707747" lon="-0.673282">
<ele>488.0</ele>
<speed>2.3</speed>
<course>243.3</course>
<desc>Speed 2.3 km/h Distance 26.70 km</desc>
<time>2011-09-29T11:18:26.28</time>
<name>4473</name>
</trkpt>
<trkpt lat="41.707742" lon="-0.673295">
<ele>488.0</ele>
<speed>4.6</speed>
<course>270.0</course>
<desc>Speed 4.6 km/h Distance 26.71 km</desc>
<time>2011-09-29T11:18:27.27</time>
<name>4474</name>
</trkpt>
<trkpt lat="41.707742" lon="-0.673310">
<ele>488.5</ele>
<speed>4.5</speed>
<course>259.2</course>
<desc>Speed 4.5 km/h Distance 26.71 km</desc>
<time>2011-09-29T11:18:28.27</time>
<name>4475</name>
</trkpt>
<trkpt lat="41.707740" lon="-0.673322">
<ele>489.0</ele>
<speed>3.7</speed>
<course>270.0</course>
<desc>Speed 3.7 km/h Distance 26.71 km</desc>
<time>2011-09-29T11:18:29.40</time>
<name>4476</name>
</trkpt>
<trkpt lat="41.707740" lon="-0.673332">
<ele>489.5</ele>
<speed>2.5</speed>
<course>216.6</course>
<desc>Speed 2.5 km/h Distance 26.71 km</desc>
<time>2011-09-29T11:18:30.28</time>
<name>4477</name>
</trkpt>
<trkpt lat="41.707728" lon="-0.673343">
<ele>489.5</ele>
<speed>5.7</speed>
<course>226.1</course>
<desc>Speed 5.7 km/h Distance 26.71 km</desc>
<time>2011-09-29T11:18:31.27</time>
<name>4478</name>
</trkpt>
<trkpt lat="41.707720" lon="-0.673355">
<ele>489.0</ele>
<speed>4.6</speed>
<course>216.4</course>
<desc>Speed 4.6 km/h Distance 26.71 km</desc>
<time>2011-09-29T11:18:32.27</time>
<name>4479</name>
</trkpt>
<trkpt lat="41.707715" lon="-0.673360">
<ele>489.0</ele>
<speed>2.5</speed>
<course>203.0</course>
<desc>Speed 2.5 km/h Distance 26.71 km</desc>
<time>2011-09-29T11:18:33.27</time>
<name>4480</name>
</trkpt>
<trkpt lat="41.707712" lon="-0.673362">
<ele>489.0</ele>
<speed>1.6</speed>
<course>236.1</course>
<desc>Speed 1.6 km/h Distance 26.71 km</desc>
<time>2011-09-29T11:18:34.27</time>
<name>4481</name>
</trkpt>
<trkpt lat="41.707707" lon="-0.673372">
<ele>489.5</ele>
<speed>3.0</speed>
<course>221.9</course>
<desc>Speed 3.0 km/h Distance 26.71 km</desc>
<time>2011-09-29T11:18:35.27</time>
<name>4482</name>
</trkpt>
<trkpt lat="41.707698" lon="-0.673382">
<ele>489.0</ele>
<speed>3.7</speed>
<course>251.5</course>
<desc>Speed 3.7 km/h Distance 26.71 km</desc>
<time>2011-09-29T11:18:36.27</time>
<name>4483</name>
</trkpt>
<trkpt lat="41.707697" lon="-0.673388">
<ele>489.0</ele>
<speed>2.0</speed>
<course>192.6</course>
<desc>Speed 2.0 km/h Distance 26.72 km</desc>
<time>2011-09-29T11:18:37.27</time>
<name>4484</name>
</trkpt>
<trkpt lat="41.707680" lon="-0.673393">
<ele>488.0</ele>
<speed>4.2</speed>
<course>202.6</course>
<desc>Speed 4.2 km/h Distance 26.72 km</desc>
<time>2011-09-29T11:18:38.26</time>
<name>4485</name>
</trkpt>
<trkpt lat="41.707665" lon="-0.673402">
<ele>489.0</ele>
<speed>4.2</speed>
<course>228.0</course>
<desc>Speed 4.2 km/h Distance 26.72 km</desc>
<time>2011-09-29T11:18:39.52</time>
<name>4486</name>
</trkpt>
<trkpt lat="41.707662" lon="-0.673407">
<ele>489.5</ele>
<speed>1.8</speed>
<course>228.3</course>
<desc>Speed 1.8 km/h Distance 26.72 km</desc>
<time>2011-09-29T11:18:40.52</time>
<name>4487</name>
</trkpt>
<trkpt lat="41.707655" lon="-0.673417">
<ele>489.5</ele>
<speed>4.2</speed>
<course>236.1</course>
<desc>Speed 4.2 km/h Distance 26.72 km</desc>
<time>2011-09-29T11:18:41.52</time>
<name>4488</name>
</trkpt>
<trkpt lat="41.707652" lon="-0.673423">
<ele>489.5</ele>
<speed>3.0</speed>
<course>210.4</course>
<desc>Speed 3.0 km/h Distance 26.72 km</desc>
<time>2011-09-29T11:18:42.52</time>
<name>4489</name>
</trkpt>
<trkpt lat="41.707643" lon="-0.673430">
<ele>489.5</ele>
<speed>3.7</speed>
<course>216.4</course>
<desc>Speed 3.7 km/h Distance 26.72 km</desc>
<time>2011-09-29T11:18:43.51</time>
<name>4490</name>
</trkpt>
<trkpt lat="41.707637" lon="-0.673437">
<ele>489.5</ele>
<speed>3.7</speed>
<course>216.9</course>
<desc>Speed 3.7 km/h Distance 26.72 km</desc>
<time>2011-09-29T11:18:44.51</time>
<name>4491</name>
</trkpt>
<trkpt lat="41.707628" lon="-0.673445">
<ele>489.0</ele>
<speed>4.6</speed>
<course>343.2</course>
<desc>Speed 4.6 km/h Distance 26.72 km</desc>
<time>2011-09-29T11:18:45.51</time>
<name>4492</name>
</trkpt>
<trkpt lat="41.707637" lon="-0.673448">
<ele>489.0</ele>
<speed>2.4</speed>
<course>262.4</course>
<desc>Speed 2.4 km/h Distance 26.73 km</desc>
<time>2011-09-29T11:18:46.51</time>
<name>4493</name>
</trkpt>
<trkpt lat="41.707635" lon="-0.673465">
<ele>489.0</ele>
<speed>5.5</speed>
<course>253.4</course>
<desc>Speed 5.5 km/h Distance 26.73 km</desc>
<time>2011-09-29T11:18:46.97</time>
<name>4494</name>
</trkpt>
<trkpt lat="41.707632" lon="-0.673480">
<ele>489.0</ele>
<speed>5.5</speed>
<course>330.8</course>
<desc>Speed 5.5 km/h Distance 26.73 km</desc>
<time>2011-09-29T11:18:47.96</time>
<name>4495</name>
</trkpt>
<trkpt lat="41.707633" lon="-0.673482">
<ele>489.0</ele>
<speed>1.8</speed>
<course>172.6</course>
<desc>Speed 1.8 km/h Distance 26.73 km</desc>
<time>2011-09-29T11:18:48.97</time>
<name>4496</name>
</trkpt>
<trkpt lat="41.707627" lon="-0.673480">
<ele>489.0</ele>
<speed>2.3</speed>
<course>198.4</course>
<desc>Speed 2.3 km/h Distance 26.73 km</desc>
<time>2011-09-29T11:18:49.96</time>
<name>4497</name>
</trkpt>
<trkpt lat="41.707612" lon="-0.673487">
<ele>489.0</ele>
<speed>5.7</speed>
<course>197.3</course>
<desc>Speed 5.7 km/h Distance 26.73 km</desc>
<time>2011-09-29T11:18:50.96</time>
<name>4498</name>
</trkpt>
<trkpt lat="41.707592" lon="-0.673495">
<ele>489.0</ele>
<speed>5.7</speed>
<course>203.9</course>
<desc>Speed 5.7 km/h Distance 26.73 km</desc>
<time>2011-09-29T11:18:51.96</time>
<name>4499</name>
</trkpt>
<trkpt lat="41.707583" lon="-0.673500">
<ele>489.0</ele>
<speed>5.7</speed>
<course>337.0</course>
<desc>Speed 5.7 km/h Distance 26.73 km</desc>
<time>2011-09-29T11:18:52.97</time>
<name>4500</name>
</trkpt>
<trkpt lat="41.707587" lon="-0.673502">
<ele>489.0</ele>
<speed>5.7</speed>
<course>192.6</course>
<desc>Speed 5.7 km/h Distance 26.73 km</desc>
<time>2011-09-29T11:18:54.26</time>
<name>4501</name>
</trkpt>
<trkpt lat="41.707582" lon="-0.673503">
<ele>489.0</ele>
<speed>1.1</speed>
<course>110.9</course>
<desc>Speed 1.1 km/h Distance 26.74 km</desc>
<time>2011-09-29T11:18:54.96</time>
<name>4502</name>
</trkpt>
<trkpt lat="41.707578" lon="-0.673492">
<ele>489.0</ele>
<speed>4.5</speed>
<course>77.4</course>
<desc>Speed 4.5 km/h Distance 26.74 km</desc>
<time>2011-09-29T11:18:55.96</time>
<name>4503</name>
</trkpt>
<trkpt lat="41.707580" lon="-0.673482">
<ele>489.0</ele>
<speed>4.5</speed>
<course>348.8</course>
<desc>Speed 4.5 km/h Distance 26.74 km</desc>
<time>2011-09-29T11:18:56.96</time>
<name>4504</name>
</trkpt>
<trkpt lat="41.707592" lon="-0.673485">
<ele>489.0</ele>
<speed>1.8</speed>
<course>198.8</course>
<desc>Speed 1.8 km/h Distance 26.74 km</desc>
<time>2011-09-29T11:18:57.96</time>
<name>4505</name>
</trkpt>
<trkpt lat="41.707585" lon="-0.673488">
<ele>489.0</ele>
<speed>1.8</speed>
<course>30.8</course>
<desc>Speed 1.8 km/h Distance 26.74 km</desc>
<time>2011-09-29T11:18:58.96</time>
<name>4506</name>
</trkpt>
<trkpt lat="41.707593" lon="-0.673482">
<ele>489.0</ele>
<speed>1.8</speed>
<course>118.1</course>
<desc>Speed 1.8 km/h Distance 26.74 km</desc>
<time>2011-09-29T11:18:59.96</time>
<name>4507</name>
</trkpt>
<trkpt lat="41.707587" lon="-0.673465">
<ele>489.0</ele>
<speed>6.2</speed>
<course>48.3</course>
<desc>Speed 6.2 km/h Distance 26.74 km</desc>
<time>2011-09-29T11:19:01.23</time>
<name>4508</name>
</trkpt>
<trkpt lat="41.707593" lon="-0.673455">
<ele>489.0</ele>
<speed>6.2</speed>
<course>258.4</course>
<desc>Speed 6.2 km/h Distance 26.74 km</desc>
<time>2011-09-29T11:19:01.96</time>
<name>4509</name>
</trkpt>
<trkpt lat="41.707590" lon="-0.673477">
<ele>489.0</ele>
<speed>6.5</speed>
<course>36.8</course>
<desc>Speed 6.5 km/h Distance 26.74 km</desc>
<time>2011-09-29T11:19:02.95</time>
<name>4510</name>
</trkpt>
<trkpt lat="41.707603" lon="-0.673463">
<ele>489.0</ele>
<speed>1.8</speed>
<course>173.4</course>
<desc>Speed 1.8 km/h Distance 26.75 km</desc>
<time>2011-09-29T11:19:04.03</time>
<name>4511</name>
</trkpt>
<trkpt lat="41.707593" lon="-0.673462">
<ele>489.0</ele>
<speed>3.8</speed>
<course>94.0</course>
<desc>Speed 3.8 km/h Distance 26.75 km</desc>
<time>2011-09-29T11:19:05.01</time>
<name>4512</name>
</trkpt>
<trkpt lat="41.707592" lon="-0.673430">
<ele>489.0</ele>
<speed>9.1</speed>
<course>71.5</course>
<desc>Speed 9.1 km/h Distance 26.75 km</desc>
<time>2011-09-29T11:19:06.01</time>
<name>4513</name>
</trkpt>
<trkpt lat="41.707593" lon="-0.673423">
<ele>488.5</ele>
<speed>5.2</speed>
<course>123.5</course>
<desc>Speed 5.2 km/h Distance 26.75 km</desc>
<time>2011-09-29T11:19:08.00</time>
<name>4514</name>
</trkpt>
<trkpt lat="41.707590" lon="-0.673417">
<ele>488.5</ele>
<speed>2.7</speed>
<course>99.5</course>
<desc>Speed 2.7 km/h Distance 26.75 km</desc>
<time>2011-09-29T11:19:08.94</time>
<name>4515</name>
</trkpt>
<trkpt lat="41.707588" lon="-0.673403">
<ele>488.5</ele>
<speed>4.2</speed>
<course>43.3</course>
<desc>Speed 4.2 km/h Distance 26.75 km</desc>
<time>2011-09-29T11:19:09.94</time>
<name>4516</name>
</trkpt>
<trkpt lat="41.707595" lon="-0.673395">
<ele>488.5</ele>
<speed>3.7</speed>
<course>351.3</course>
<desc>Speed 3.7 km/h Distance 26.75 km</desc>
<time>2011-09-29T11:19:10.95</time>
<name>4517</name>
</trkpt>
<trkpt lat="41.707612" lon="-0.673398">
<ele>489.0</ele>
<speed>4.9</speed>
<course>324.9</course>
<desc>Speed 4.9 km/h Distance 26.76 km</desc>
<time>2011-09-29T11:19:11.93</time>
<name>4518</name>
</trkpt>
<trkpt lat="41.707640" lon="-0.673425">
<ele>489.0</ele>
<speed>3.0</speed>
<course>351.2</course>
<desc>Speed 3.0 km/h Distance 26.76 km</desc>
<time>2011-09-29T11:19:13.94</time>
<name>4519</name>
</trkpt>
<trkpt lat="41.707655" lon="-0.673428">
<ele>489.0</ele>
<speed>1.5</speed>
<course>12.6</course>
<desc>Speed 1.5 km/h Distance 26.76 km</desc>
<time>2011-09-29T11:19:14.94</time>
<name>4520</name>
</trkpt>
<trkpt lat="41.707662" lon="-0.673427">
<ele>489.5</ele>
<speed>1.3</speed>
<course>32.6</course>
<desc>Speed 1.3 km/h Distance 26.76 km</desc>
<time>2011-09-29T11:19:15.93</time>
<name>4521</name>
</trkpt>
<trkpt lat="41.707673" lon="-0.673417">
<ele>490.5</ele>
<speed>4.6</speed>
<course>43.0</course>
<desc>Speed 4.6 km/h Distance 26.76 km</desc>
<time>2011-09-29T11:19:16.93</time>
<name>4522</name>
</trkpt>
<trkpt lat="41.707700" lon="-0.673383">
<ele>492.0</ele>
<speed>3.7</speed>
<course>25.0</course>
<desc>Speed 3.7 km/h Distance 26.77 km</desc>
<time>2011-09-29T11:19:19.58</time>
<name>4523</name>
</trkpt>
<trkpt lat="41.707713" lon="-0.673375">
<ele>491.5</ele>
<speed>7.3</speed>
<course>233.3</course>
<desc>Speed 7.3 km/h Distance 26.77 km</desc>
<time>2011-09-29T11:19:20.93</time>
<name>4524</name>
</trkpt>
<trkpt lat="41.707705" lon="-0.673390">
<ele>488.5</ele>
<speed>1.9</speed>
<course>215.5</course>
<desc>Speed 1.9 km/h Distance 26.77 km</desc>
<time>2011-09-29T11:19:21.93</time>
<name>4525</name>
</trkpt>
<trkpt lat="41.707702" lon="-0.673393">
<ele>486.0</ele>
<speed>3.9</speed>
<course>56.2</course>
<desc>Speed 3.9 km/h Distance 26.77 km</desc>
<time>2011-09-29T11:19:22.93</time>
<name>4526</name>
</trkpt>
<trkpt lat="41.707708" lon="-0.673380">
<ele>486.5</ele>
<speed>3.9</speed>
<course>80.5</course>
<desc>Speed 3.9 km/h Distance 26.77 km</desc>
<time>2011-09-29T11:19:23.93</time>
<name>4527</name>
</trkpt>
<trkpt lat="41.707710" lon="-0.673367">
<ele>487.0</ele>
<speed>3.9</speed>
<course>75.0</course>
<desc>Speed 3.9 km/h Distance 26.77 km</desc>
<time>2011-09-29T11:19:24.92</time>
<name>4528</name>
</trkpt>
<trkpt lat="41.707713" lon="-0.673350">
<ele>487.5</ele>
<speed>3.9</speed>
<course>44.9</course>
<desc>Speed 3.9 km/h Distance 26.78 km</desc>
<time>2011-09-29T11:19:25.92</time>
<name>4529</name>
</trkpt>
<trkpt lat="41.707723" lon="-0.673337">
<ele>487.0</ele>
<speed>3.2</speed>
<course>81.5</course>
<desc>Speed 3.2 km/h Distance 26.78 km</desc>
<time>2011-09-29T11:19:26.92</time>
<name>4530</name>
</trkpt>
<trkpt lat="41.707725" lon="-0.673322">
<ele>486.5</ele>
<speed>3.9</speed>
<course>61.7</course>
<desc>Speed 3.9 km/h Distance 26.78 km</desc>
<time>2011-09-29T11:19:27.92</time>
<name>4531</name>
</trkpt>
<trkpt lat="41.707728" lon="-0.673313">
<ele>487.0</ele>
<speed>1.6</speed>
<course>114.2</course>
<desc>Speed 1.6 km/h Distance 26.78 km</desc>
<time>2011-09-29T11:19:28.91</time>
<name>4532</name>
</trkpt>
<trkpt lat="41.707725" lon="-0.673303">
<ele>488.0</ele>
<speed>1.8</speed>
<course>150.8</course>
<desc>Speed 1.8 km/h Distance 26.78 km</desc>
<time>2011-09-29T11:19:29.95</time>
<name>4533</name>
</trkpt>
<trkpt lat="41.707718" lon="-0.673298">
<ele>488.0</ele>
<speed>2.6</speed>
<course>25.4</course>
<desc>Speed 2.6 km/h Distance 26.78 km</desc>
<time>2011-09-29T11:19:31.01</time>
<name>4534</name>
</trkpt>
<trkpt lat="41.707723" lon="-0.673295">
<ele>488.0</ele>
<speed>2.1</speed>
<course>157.0</course>
<desc>Speed 2.1 km/h Distance 26.78 km</desc>
<time>2011-09-29T11:19:31.94</time>
<name>4535</name>
</trkpt>
<trkpt lat="41.707720" lon="-0.673293">
<ele>487.5</ele>
<speed>2.3</speed>
<course>216.7</course>
<desc>Speed 2.3 km/h Distance 26.78 km</desc>
<time>2011-09-29T11:19:32.94</time>
<name>4536</name>
</trkpt>
<trkpt lat="41.707705" lon="-0.673308">
<ele>486.5</ele>
<speed>7.8</speed>
<course>220.4</course>
<desc>Speed 7.8 km/h Distance 26.78 km</desc>
<time>2011-09-29T11:19:33.93</time>
<name>4537</name>
</trkpt>
<trkpt lat="41.707693" lon="-0.673322">
<ele>485.5</ele>
<speed>5.7</speed>
<course>4.4</course>
<desc>Speed 5.7 km/h Distance 26.79 km</desc>
<time>2011-09-29T11:19:35.10</time>
<name>4538</name>
</trkpt>
<trkpt lat="41.707703" lon="-0.673320">
<ele>485.5</ele>
<speed>3.9</speed>
<course>51.9</course>
<desc>Speed 3.9 km/h Distance 26.79 km</desc>
<time>2011-09-29T11:19:36.15</time>
<name>4539</name>
</trkpt>
<trkpt lat="41.707705" lon="-0.673317">
<ele>485.5</ele>
<speed>2.2</speed>
<course>35.7</course>
<desc>Speed 2.2 km/h Distance 26.79 km</desc>
<time>2011-09-29T11:19:36.92</time>
<name>4540</name>
</trkpt>
<trkpt lat="41.707710" lon="-0.673312">
<ele>486.0</ele>
<speed>1.2</speed>
<course>90.0</course>
<desc>Speed 1.2 km/h Distance 26.79 km</desc>
<time>2011-09-29T11:19:37.92</time>
<name>4541</name>
</trkpt>
<trkpt lat="41.707710" lon="-0.673290">
<ele>486.0</ele>
<speed>6.9</speed>
<course>69.9</course>
<desc>Speed 6.9 km/h Distance 26.79 km</desc>
<time>2011-09-29T11:19:38.92</time>
<name>4542</name>
</trkpt>
<trkpt lat="41.707715" lon="-0.673272">
<ele>485.5</ele>
<speed>7.1</speed>
<course>257.4</course>
<desc>Speed 7.1 km/h Distance 26.79 km</desc>
<time>2011-09-29T11:19:40.05</time>
<name>4543</name>
</trkpt>
<trkpt lat="41.707712" lon="-0.673292">
<ele>485.5</ele>
<speed>6.4</speed>
<course>3.1</course>
<desc>Speed 6.4 km/h Distance 26.79 km</desc>
<time>2011-09-29T11:19:41.25</time>
<name>4544</name>
</trkpt>
<trkpt lat="41.707737" lon="-0.673290">
<ele>485.0</ele>
<speed>2.6</speed>
<course>175.3</course>
<desc>Speed 2.6 km/h Distance 26.80 km</desc>
<time>2011-09-29T11:19:42.92</time>
<name>4545</name>
</trkpt>
<trkpt lat="41.707725" lon="-0.673288">
<ele>485.5</ele>
<speed>1.1</speed>
<course>36.6</course>
<desc>Speed 1.1 km/h Distance 26.80 km</desc>
<time>2011-09-29T11:19:43.92</time>
<name>4546</name>
</trkpt>
<trkpt lat="41.707733" lon="-0.673280">
<ele>485.5</ele>
<speed>2.8</speed>
<course>287.7</course>
<desc>Speed 2.8 km/h Distance 26.80 km</desc>
<time>2011-09-29T11:19:44.97</time>
<name>4547</name>
</trkpt>
<trkpt lat="41.707742" lon="-0.673315">
<ele>485.5</ele>
<speed>2.8</speed>
<course>55.7</course>
<desc>Speed 2.8 km/h Distance 26.80 km</desc>
<time>2011-09-29T11:19:46.90</time>
<name>4548</name>
</trkpt>
<trkpt lat="41.707745" lon="-0.673308">
<ele>486.5</ele>
<speed>1.3</speed>
<course>1.2</course>
<desc>Speed 1.3 km/h Distance 26.80 km</desc>
<time>2011-09-29T11:19:48.97</time>
<name>4549</name>
</trkpt>
<trkpt lat="41.707752" lon="-0.673308">
<ele>487.0</ele>
<speed>1.3</speed>
<course>41.9</course>
<desc>Speed 1.3 km/h Distance 26.80 km</desc>
<time>2011-09-29T11:19:50.80</time>
<name>4550</name>
</trkpt>
<trkpt lat="41.707760" lon="-0.673298">
<ele>486.5</ele>
<speed>2.3</speed>
<course>123.8</course>
<desc>Speed 2.3 km/h Distance 26.80 km</desc>
<time>2011-09-29T11:19:51.80</time>
<name>4551</name>
</trkpt>
<trkpt lat="41.707735" lon="-0.673248">
<ele>491.5</ele>
<speed>1.3</speed>
<course>90.0</course>
<desc>Speed 1.3 km/h Distance 26.81 km</desc>
<time>2011-09-29T11:19:53.85</time>
<name>4552</name>
</trkpt>
<trkpt lat="41.707735" lon="-0.673220">
<ele>493.0</ele>
<speed>1.2</speed>
<course>59.3</course>
<desc>Speed 1.2 km/h Distance 26.81 km</desc>
<time>2011-09-29T11:19:55.86</time>
<name>4553</name>
</trkpt>
<trkpt lat="41.707742" lon="-0.673205">
<ele>493.0</ele>
<speed>3.4</speed>
<course>7.4</course>
<desc>Speed 3.4 km/h Distance 26.81 km</desc>
<time>2011-09-29T11:19:57.85</time>
<name>4554</name>
</trkpt>
<trkpt lat="41.707748" lon="-0.673203">
<ele>493.0</ele>
<speed>2.7</speed>
<course>332.1</course>
<desc>Speed 2.7 km/h Distance 26.81 km</desc>
<time>2011-09-29T11:19:58.85</time>
<name>4555</name>
</trkpt>
<trkpt lat="41.707760" lon="-0.673212">
<ele>491.5</ele>
<speed>4.1</speed>
<course>342.4</course>
<desc>Speed 4.1 km/h Distance 26.81 km</desc>
<time>2011-09-29T11:19:59.97</time>
<name>4556</name>
</trkpt>
<trkpt lat="41.707783" lon="-0.673222">
<ele>491.5</ele>
<speed>6.3</speed>
<course>344.8</course>
<desc>Speed 6.3 km/h Distance 26.82 km</desc>
<time>2011-09-29T11:20:01.97</time>
<name>4557</name>
</trkpt>
<trkpt lat="41.707797" lon="-0.673227">
<ele>491.5</ele>
<speed>5.4</speed>
<course>341.8</course>
<desc>Speed 5.4 km/h Distance 26.82 km</desc>
<time>2011-09-29T11:20:03.05</time>
<name>4558</name>
</trkpt>
<trkpt lat="41.707812" lon="-0.673233">
<ele>491.5</ele>
<speed>5.9</speed>
<course>336.1</course>
<desc>Speed 5.9 km/h Distance 26.82 km</desc>
<time>2011-09-29T11:20:03.97</time>
<name>4559</name>
</trkpt>
<trkpt lat="41.707828" lon="-0.673243">
<ele>491.5</ele>
<speed>7.3</speed>
<course>339.7</course>
<desc>Speed 7.3 km/h Distance 26.82 km</desc>
<time>2011-09-29T11:20:04.97</time>
<name>4560</name>
</trkpt>
<trkpt lat="41.707848" lon="-0.673253">
<ele>491.0</ele>
<speed>8.4</speed>
<course>335.3</course>
<desc>Speed 8.4 km/h Distance 26.82 km</desc>
<time>2011-09-29T11:20:05.97</time>
<name>4561</name>
</trkpt>
<trkpt lat="41.707870" lon="-0.673267">
<ele>491.0</ele>
<speed>8.9</speed>
<course>342.2</course>
<desc>Speed 8.9 km/h Distance 26.83 km</desc>
<time>2011-09-29T11:20:06.97</time>
<name>4562</name>
</trkpt>
<trkpt lat="41.707893" lon="-0.673277">
<ele>491.0</ele>
<speed>9.7</speed>
<course>343.4</course>
<desc>Speed 9.7 km/h Distance 26.83 km</desc>
<time>2011-09-29T11:20:07.96</time>
<name>4563</name>
</trkpt>
<trkpt lat="41.707918" lon="-0.673287">
<ele>491.0</ele>
<speed>10.3</speed>
<course>346.8</course>
<desc>Speed 10.3 km/h Distance 26.83 km</desc>
<time>2011-09-29T11:20:09.03</time>
<name>4564</name>
</trkpt>
<trkpt lat="41.707945" lon="-0.673295">
<ele>491.0</ele>
<speed>11.1</speed>
<course>348.9</course>
<desc>Speed 11.1 km/h Distance 26.84 km</desc>
<time>2011-09-29T11:20:09.96</time>
<name>4565</name>
</trkpt>
<trkpt lat="41.707977" lon="-0.673303">
<ele>491.0</ele>
<speed>12.2</speed>
<course>348.6</course>
<desc>Speed 12.2 km/h Distance 26.84 km</desc>
<time>2011-09-29T11:20:10.97</time>
<name>4566</name>
</trkpt>
<trkpt lat="41.708002" lon="-0.673310">
<ele>490.5</ele>
<speed>9.8</speed>
<course>348.1</course>
<desc>Speed 9.8 km/h Distance 26.84 km</desc>
<time>2011-09-29T11:20:12.11</time>
<name>4567</name>
</trkpt>
<trkpt lat="41.708013" lon="-0.673313">
<ele>490.5</ele>
<speed>4.9</speed>
<course>254.9</course>
<desc>Speed 4.9 km/h Distance 26.84 km</desc>
<time>2011-09-29T11:20:12.96</time>
<name>4568</name>
</trkpt>
<trkpt lat="41.708012" lon="-0.673322">
<ele>490.5</ele>
<speed>2.8</speed>
<course>241.7</course>
<desc>Speed 2.8 km/h Distance 26.84 km</desc>
<time>2011-09-29T11:20:13.96</time>
<name>4569</name>
</trkpt>
<trkpt lat="41.708008" lon="-0.673330">
<ele>490.0</ele>
<speed>2.8</speed>
<course>231.4</course>
<desc>Speed 2.8 km/h Distance 26.85 km</desc>
<time>2011-09-29T11:20:14.97</time>
<name>4570</name>
</trkpt>
<trkpt lat="41.708003" lon="-0.673338">
<ele>490.0</ele>
<speed>3.5</speed>
<course>90.0</course>
<desc>Speed 3.5 km/h Distance 26.85 km</desc>
<time>2011-09-29T11:20:15.95</time>
<name>4571</name>
</trkpt>
<trkpt lat="41.708003" lon="-0.673333">
<ele>490.0</ele>
<speed>1.3</speed>
<course>199.9</course>
<desc>Speed 1.3 km/h Distance 26.85 km</desc>
<time>2011-09-29T11:20:16.96</time>
<name>4572</name>
</trkpt>
<trkpt lat="41.707997" lon="-0.673337">
<ele>490.5</ele>
<speed>3.6</speed>
<course>206.3</course>
<desc>Speed 3.6 km/h Distance 26.85 km</desc>
<time>2011-09-29T11:20:17.96</time>
<name>4573</name>
</trkpt>
<trkpt lat="41.707982" lon="-0.673347">
<ele>490.5</ele>
<speed>7.0</speed>
<course>192.6</course>
<desc>Speed 7.0 km/h Distance 26.85 km</desc>
<time>2011-09-29T11:20:18.96</time>
<name>4574</name>
</trkpt>
<trkpt lat="41.707965" lon="-0.673352">
<ele>491.0</ele>
<speed>6.7</speed>
<course>210.2</course>
<desc>Speed 6.7 km/h Distance 26.85 km</desc>
<time>2011-09-29T11:20:19.97</time>
<name>4575</name>
</trkpt>
<trkpt lat="41.707950" lon="-0.673363">
<ele>491.0</ele>
<speed>6.9</speed>
<course>254.0</course>
<desc>Speed 6.9 km/h Distance 26.85 km</desc>
<time>2011-09-29T11:20:20.96</time>
<name>4576</name>
</trkpt>
<trkpt lat="41.707945" lon="-0.673387">
<ele>491.0</ele>
<speed>7.7</speed>
<course>296.2</course>
<desc>Speed 7.7 km/h Distance 26.86 km</desc>
<time>2011-09-29T11:20:22.41</time>
<name>4577</name>
</trkpt>
<trkpt lat="41.707963" lon="-0.673437">
<ele>491.0</ele>
<speed>9.5</speed>
<course>325.3</course>
<desc>Speed 9.5 km/h Distance 26.86 km</desc>
<time>2011-09-29T11:20:23.96</time>
<name>4578</name>
</trkpt>
<trkpt lat="41.707987" lon="-0.673458">
<ele>491.0</ele>
<speed>11.0</speed>
<course>321.4</course>
<desc>Speed 11.0 km/h Distance 26.86 km</desc>
<time>2011-09-29T11:20:24.96</time>
<name>4579</name>
</trkpt>
<trkpt lat="41.708012" lon="-0.673485">
<ele>490.5</ele>
<speed>12.7</speed>
<course>320.2</course>
<desc>Speed 12.7 km/h Distance 26.87 km</desc>
<time>2011-09-29T11:20:25.96</time>
<name>4580</name>
</trkpt>
<trkpt lat="41.708040" lon="-0.673517">
<ele>490.0</ele>
<speed>14.6</speed>
<course>319.2</course>
<desc>Speed 14.6 km/h Distance 26.87 km</desc>
<time>2011-09-29T11:20:26.95</time>
<name>4581</name>
</trkpt>
<trkpt lat="41.708072" lon="-0.673553">
<ele>489.5</ele>
<speed>16.4</speed>
<course>320.7</course>
<desc>Speed 16.4 km/h Distance 26.88 km</desc>
<time>2011-09-29T11:20:27.95</time>
<name>4582</name>
</trkpt>
<trkpt lat="41.708107" lon="-0.673592">
<ele>489.0</ele>
<speed>18.0</speed>
<course>323.9</course>
<desc>Speed 18.0 km/h Distance 26.88 km</desc>
<time>2011-09-29T11:20:29.34</time>
<name>4583</name>
</trkpt>
<trkpt lat="41.708175" lon="-0.673658">
<ele>488.5</ele>
<speed>15.9</speed>
<course>321.7</course>
<desc>Speed 15.9 km/h Distance 26.89 km</desc>
<time>2011-09-29T11:20:30.95</time>
<name>4584</name>
</trkpt>
<trkpt lat="41.708203" lon="-0.673688">
<ele>488.0</ele>
<speed>14.5</speed>
<course>328.9</course>
<desc>Speed 14.5 km/h Distance 26.89 km</desc>
<time>2011-09-29T11:20:32.14</time>
<name>4585</name>
</trkpt>
<trkpt lat="41.708238" lon="-0.673717">
<ele>487.5</ele>
<speed>16.3</speed>
<course>324.7</course>
<desc>Speed 16.3 km/h Distance 26.90 km</desc>
<time>2011-09-29T11:20:32.95</time>
<name>4586</name>
</trkpt>
<trkpt lat="41.708272" lon="-0.673748">
<ele>487.0</ele>
<speed>15.6</speed>
<course>325.0</course>
<desc>Speed 15.6 km/h Distance 26.90 km</desc>
<time>2011-09-29T11:20:33.95</time>
<name>4587</name>
</trkpt>
<trkpt lat="41.708298" lon="-0.673773">
<ele>486.5</ele>
<speed>12.7</speed>
<course>323.3</course>
<desc>Speed 12.7 km/h Distance 26.91 km</desc>
<time>2011-09-29T11:20:34.95</time>
<name>4588</name>
</trkpt>
<trkpt lat="41.708317" lon="-0.673792">
<ele>486.0</ele>
<speed>9.4</speed>
<course>336.9</course>
<desc>Speed 9.4 km/h Distance 26.91 km</desc>
<time>2011-09-29T11:20:35.95</time>
<name>4589</name>
</trkpt>
<trkpt lat="41.708340" lon="-0.673805">
<ele>485.5</ele>
<speed>9.7</speed>
<course>323.4</course>
<desc>Speed 9.7 km/h Distance 26.91 km</desc>
<time>2011-09-29T11:20:36.95</time>
<name>4590</name>
</trkpt>
<trkpt lat="41.708357" lon="-0.673822">
<ele>485.5</ele>
<speed>8.6</speed>
<course>319.0</course>
<desc>Speed 8.6 km/h Distance 26.91 km</desc>
<time>2011-09-29T11:20:37.95</time>
<name>4591</name>
</trkpt>
<trkpt lat="41.708377" lon="-0.673845">
<ele>485.5</ele>
<speed>10.6</speed>
<course>321.5</course>
<desc>Speed 10.6 km/h Distance 26.92 km</desc>
<time>2011-09-29T11:20:39.13</time>
<name>4592</name>
</trkpt>
<trkpt lat="41.708402" lon="-0.673872">
<ele>485.0</ele>
<speed>12.3</speed>
<course>326.4</course>
<desc>Speed 12.3 km/h Distance 26.92 km</desc>
<time>2011-09-29T11:20:39.95</time>
<name>4593</name>
</trkpt>
<trkpt lat="41.708432" lon="-0.673898">
<ele>485.0</ele>
<speed>13.8</speed>
<course>321.7</course>
<desc>Speed 13.8 km/h Distance 26.92 km</desc>
<time>2011-09-29T11:20:40.95</time>
<name>4594</name>
</trkpt>
<trkpt lat="41.708460" lon="-0.673928">
<ele>485.0</ele>
<speed>14.9</speed>
<course>319.2</course>
<desc>Speed 14.9 km/h Distance 26.93 km</desc>
<time>2011-09-29T11:20:41.96</time>
<name>4595</name>
</trkpt>
<trkpt lat="41.708492" lon="-0.673965">
<ele>484.5</ele>
<speed>16.1</speed>
<course>317.9</course>
<desc>Speed 16.1 km/h Distance 26.93 km</desc>
<time>2011-09-29T11:20:42.95</time>
<name>4596</name>
</trkpt>
<trkpt lat="41.708523" lon="-0.674003">
<ele>484.5</ele>
<speed>17.0</speed>
<course>307.4</course>
<desc>Speed 17.0 km/h Distance 26.94 km</desc>
<time>2011-09-29T11:20:43.95</time>
<name>4597</name>
</trkpt>
<trkpt lat="41.708550" lon="-0.674050">
<ele>484.5</ele>
<speed>17.2</speed>
<course>296.2</course>
<desc>Speed 17.2 km/h Distance 26.94 km</desc>
<time>2011-09-29T11:20:44.94</time>
<name>4598</name>
</trkpt>
<trkpt lat="41.708568" lon="-0.674100">
<ele>484.5</ele>
<speed>16.7</speed>
<course>281.8</course>
<desc>Speed 16.7 km/h Distance 26.95 km</desc>
<time>2011-09-29T11:20:45.95</time>
<name>4599</name>
</trkpt>
<trkpt lat="41.708577" lon="-0.674153">
<ele>484.5</ele>
<speed>16.5</speed>
<course>276.7</course>
<desc>Speed 16.5 km/h Distance 26.95 km</desc>
<time>2011-09-29T11:20:46.94</time>
<name>4600</name>
</trkpt>
<trkpt lat="41.708582" lon="-0.674210">
<ele>485.0</ele>
<speed>16.7</speed>
<course>270.0</course>
<desc>Speed 16.7 km/h Distance 26.96 km</desc>
<time>2011-09-29T11:20:47.94</time>
<name>4601</name>
</trkpt>
<trkpt lat="41.708582" lon="-0.674268">
<ele>484.5</ele>
<speed>17.4</speed>
<course>265.6</course>
<desc>Speed 17.4 km/h Distance 26.96 km</desc>
<time>2011-09-29T11:20:48.94</time>
<name>4602</name>
</trkpt>
<trkpt lat="41.708578" lon="-0.674327">
<ele>484.5</ele>
<speed>17.6</speed>
<course>261.5</course>
<desc>Speed 17.6 km/h Distance 26.97 km</desc>
<time>2011-09-29T11:20:49.94</time>
<name>4603</name>
</trkpt>
<trkpt lat="41.708572" lon="-0.674387">
<ele>484.5</ele>
<speed>18.4</speed>
<course>273.2</course>
<desc>Speed 18.4 km/h Distance 26.97 km</desc>
<time>2011-09-29T11:20:51.66</time>
<name>4604</name>
</trkpt>
<trkpt lat="41.708580" lon="-0.674583">
<ele>484.0</ele>
<speed>20.1</speed>
<course>286.2</course>
<desc>Speed 20.1 km/h Distance 26.99 km</desc>
<time>2011-09-29T11:20:53.94</time>
<name>4605</name>
</trkpt>
<trkpt lat="41.708593" lon="-0.674645">
<ele>484.0</ele>
<speed>19.6</speed>
<course>293.4</course>
<desc>Speed 19.6 km/h Distance 26.99 km</desc>
<time>2011-09-29T11:20:54.94</time>
<name>4606</name>
</trkpt>
<trkpt lat="41.708612" lon="-0.674702">
<ele>484.0</ele>
<speed>18.4</speed>
<course>290.1</course>
<desc>Speed 18.4 km/h Distance 27.00 km</desc>
<time>2011-09-29T11:20:55.94</time>
<name>4607</name>
</trkpt>
<trkpt lat="41.708627" lon="-0.674757">
<ele>483.5</ele>
<speed>17.7</speed>
<course>294.7</course>
<desc>Speed 17.7 km/h Distance 27.00 km</desc>
<time>2011-09-29T11:20:56.93</time>
<name>4608</name>
</trkpt>
<trkpt lat="41.708645" lon="-0.674810">
<ele>483.5</ele>
<speed>17.5</speed>
<course>292.7</course>
<desc>Speed 17.5 km/h Distance 27.01 km</desc>
<time>2011-09-29T11:20:57.93</time>
<name>4609</name>
</trkpt>
<trkpt lat="41.708662" lon="-0.674863">
<ele>483.5</ele>
<speed>17.0</speed>
<course>292.1</course>
<desc>Speed 17.0 km/h Distance 27.01 km</desc>
<time>2011-09-29T11:20:58.93</time>
<name>4610</name>
</trkpt>
<trkpt lat="41.708678" lon="-0.674918">
<ele>483.0</ele>
<speed>17.6</speed>
<course>289.0</course>
<desc>Speed 17.6 km/h Distance 27.02 km</desc>
<time>2011-09-29T11:20:59.94</time>
<name>4611</name>
</trkpt>
<trkpt lat="41.708693" lon="-0.674977">
<ele>483.0</ele>
<speed>18.8</speed>
<course>282.1</course>
<desc>Speed 18.8 km/h Distance 27.02 km</desc>
<time>2011-09-29T11:21:01.44</time>
<name>4612</name>
</trkpt>
<trkpt lat="41.708713" lon="-0.675102">
<ele>483.0</ele>
<speed>18.3</speed>
<course>272.7</course>
<desc>Speed 18.3 km/h Distance 27.03 km</desc>
<time>2011-09-29T11:21:02.93</time>
<name>4613</name>
</trkpt>
<trkpt lat="41.708715" lon="-0.675148">
<ele>483.5</ele>
<speed>13.8</speed>
<course>267.1</course>
<desc>Speed 13.8 km/h Distance 27.04 km</desc>
<time>2011-09-29T11:21:03.93</time>
<name>4614</name>
</trkpt>
<trkpt lat="41.708713" lon="-0.675192">
<ele>484.0</ele>
<speed>13.0</speed>
<course>257.9</course>
<desc>Speed 13.0 km/h Distance 27.04 km</desc>
<time>2011-09-29T11:21:04.93</time>
<name>4615</name>
</trkpt>
<trkpt lat="41.708707" lon="-0.675233">
<ele>484.0</ele>
<speed>13.2</speed>
<course>258.8</course>
<desc>Speed 13.2 km/h Distance 27.04 km</desc>
<time>2011-09-29T11:21:05.93</time>
<name>4616</name>
</trkpt>
<trkpt lat="41.708700" lon="-0.675278">
<ele>483.5</ele>
<speed>13.6</speed>
<course>261.8</course>
<desc>Speed 13.6 km/h Distance 27.05 km</desc>
<time>2011-09-29T11:21:06.93</time>
<name>4617</name>
</trkpt>
<trkpt lat="41.708695" lon="-0.675325">
<ele>483.5</ele>
<speed>14.4</speed>
<course>260.2</course>
<desc>Speed 14.4 km/h Distance 27.05 km</desc>
<time>2011-09-29T11:21:07.93</time>
<name>4618</name>
</trkpt>
<trkpt lat="41.708688" lon="-0.675377">
<ele>483.0</ele>
<speed>15.6</speed>
<course>260.8</course>
<desc>Speed 15.6 km/h Distance 27.06 km</desc>
<time>2011-09-29T11:21:08.93</time>
<name>4619</name>
</trkpt>
<trkpt lat="41.708682" lon="-0.675432">
<ele>483.0</ele>
<speed>17.0</speed>
<course>261.8</course>
<desc>Speed 17.0 km/h Distance 27.06 km</desc>
<time>2011-09-29T11:21:09.93</time>
<name>4620</name>
</trkpt>
<trkpt lat="41.708675" lon="-0.675493">
<ele>482.5</ele>
<speed>18.5</speed>
<course>263.2</course>
<desc>Speed 18.5 km/h Distance 27.07 km</desc>
<time>2011-09-29T11:21:11.16</time>
<name>4621</name>
</trkpt>
<trkpt lat="41.708663" lon="-0.675625">
<ele>482.0</ele>
<speed>20.6</speed>
<course>264.7</course>
<desc>Speed 20.6 km/h Distance 27.08 km</desc>
<time>2011-09-29T11:21:12.92</time>
<name>4622</name>
</trkpt>
<trkpt lat="41.708658" lon="-0.675697">
<ele>481.5</ele>
<speed>21.7</speed>
<course>266.6</course>
<desc>Speed 21.7 km/h Distance 27.08 km</desc>
<time>2011-09-29T11:21:13.92</time>
<name>4623</name>
</trkpt>
<trkpt lat="41.708655" lon="-0.675772">
<ele>481.5</ele>
<speed>22.5</speed>
<course>271.6</course>
<desc>Speed 22.5 km/h Distance 27.09 km</desc>
<time>2011-09-29T11:21:14.93</time>
<name>4624</name>
</trkpt>
<trkpt lat="41.708657" lon="-0.675850">
<ele>481.0</ele>
<speed>23.2</speed>
<course>268.4</course>
<desc>Speed 23.2 km/h Distance 27.10 km</desc>
<time>2011-09-29T11:21:15.92</time>
<name>4625</name>
</trkpt>
<trkpt lat="41.708655" lon="-0.675928">
<ele>481.0</ele>
<speed>23.5</speed>
<course>268.4</course>
<desc>Speed 23.5 km/h Distance 27.10 km</desc>
<time>2011-09-29T11:21:16.92</time>
<name>4626</name>
</trkpt>
<trkpt lat="41.708653" lon="-0.676008">
<ele>480.5</ele>
<speed>23.9</speed>
<course>271.6</course>
<desc>Speed 23.9 km/h Distance 27.11 km</desc>
<time>2011-09-29T11:21:18.09</time>
<name>4627</name>
</trkpt>
<trkpt lat="41.708655" lon="-0.676090">
<ele>480.0</ele>
<speed>24.4</speed>
<course>273.1</course>
<desc>Speed 24.4 km/h Distance 27.12 km</desc>
<time>2011-09-29T11:21:18.92</time>
<name>4628</name>
</trkpt>
<trkpt lat="41.708658" lon="-0.676172">
<ele>480.0</ele>
<speed>24.7</speed>
<course>274.7</course>
<desc>Speed 24.7 km/h Distance 27.12 km</desc>
<time>2011-09-29T11:21:19.93</time>
<name>4629</name>
</trkpt>
<trkpt lat="41.708663" lon="-0.676253">
<ele>479.5</ele>
<speed>24.6</speed>
<course>276.1</course>
<desc>Speed 24.6 km/h Distance 27.13 km</desc>
<time>2011-09-29T11:21:20.93</time>
<name>4630</name>
</trkpt>
<trkpt lat="41.708670" lon="-0.676337">
<ele>479.5</ele>
<speed>24.9</speed>
<course>277.5</course>
<desc>Speed 24.9 km/h Distance 27.14 km</desc>
<time>2011-09-29T11:21:21.92</time>
<name>4631</name>
</trkpt>
<trkpt lat="41.708678" lon="-0.676422">
<ele>479.0</ele>
<speed>25.8</speed>
<course>275.8</course>
<desc>Speed 25.8 km/h Distance 27.14 km</desc>
<time>2011-09-29T11:21:22.92</time>
<name>4632</name>
</trkpt>
<trkpt lat="41.708685" lon="-0.676510">
<ele>478.5</ele>
<speed>26.7</speed>
<course>278.6</course>
<desc>Speed 26.7 km/h Distance 27.15 km</desc>
<time>2011-09-29T11:21:23.92</time>
<name>4633</name>
</trkpt>
<trkpt lat="41.708695" lon="-0.676598">
<ele>478.5</ele>
<speed>26.9</speed>
<course>282.8</course>
<desc>Speed 26.9 km/h Distance 27.16 km</desc>
<time>2011-09-29T11:21:24.92</time>
<name>4634</name>
</trkpt>
<trkpt lat="41.708710" lon="-0.676687">
<ele>478.0</ele>
<speed>27.0</speed>
<course>285.8</course>
<desc>Speed 27.0 km/h Distance 27.17 km</desc>
<time>2011-09-29T11:21:25.92</time>
<name>4635</name>
</trkpt>
<trkpt lat="41.708728" lon="-0.676773">
<ele>478.0</ele>
<speed>26.7</speed>
<course>289.2</course>
<desc>Speed 26.7 km/h Distance 27.17 km</desc>
<time>2011-09-29T11:21:26.92</time>
<name>4636</name>
</trkpt>
<trkpt lat="41.708750" lon="-0.676857">
<ele>478.0</ele>
<speed>26.6</speed>
<course>292.8</course>
<desc>Speed 26.6 km/h Distance 27.18 km</desc>
<time>2011-09-29T11:21:27.92</time>
<name>4637</name>
</trkpt>
<trkpt lat="41.708777" lon="-0.676942">
<ele>477.5</ele>
<speed>27.3</speed>
<course>306.2</course>
<desc>Speed 27.3 km/h Distance 27.19 km</desc>
<time>2011-09-29T11:21:28.91</time>
<name>4638</name>
</trkpt>
<trkpt lat="41.708817" lon="-0.677015">
<ele>477.5</ele>
<speed>27.3</speed>
<course>315.6</course>
<desc>Speed 27.3 km/h Distance 27.20 km</desc>
<time>2011-09-29T11:21:30.63</time>
<name>4639</name>
</trkpt>
<trkpt lat="41.708957" lon="-0.677198">
<ele>477.0</ele>
<speed>25.5</speed>
<course>302.0</course>
<desc>Speed 25.5 km/h Distance 27.22 km</desc>
<time>2011-09-29T11:21:32.91</time>
<name>4640</name>
</trkpt>
<trkpt lat="41.708992" lon="-0.677273">
<ele>476.5</ele>
<speed>26.6</speed>
<course>289.8</course>
<desc>Speed 26.6 km/h Distance 27.23 km</desc>
<time>2011-09-29T11:21:33.91</time>
<name>4641</name>
</trkpt>
<trkpt lat="41.709015" lon="-0.677360">
<ele>476.0</ele>
<speed>27.9</speed>
<course>279.2</course>
<desc>Speed 27.9 km/h Distance 27.23 km</desc>
<time>2011-09-29T11:21:34.91</time>
<name>4642</name>
</trkpt>
<trkpt lat="41.709027" lon="-0.677457">
<ele>475.5</ele>
<speed>28.9</speed>
<course>276.5</course>
<desc>Speed 28.9 km/h Distance 27.24 km</desc>
<time>2011-09-29T11:21:35.91</time>
<name>4643</name>
</trkpt>
<trkpt lat="41.709035" lon="-0.677555">
<ele>475.0</ele>
<speed>30.0</speed>
<course>273.7</course>
<desc>Speed 30.0 km/h Distance 27.25 km</desc>
<time>2011-09-29T11:21:36.91</time>
<name>4644</name>
</trkpt>
<trkpt lat="41.709040" lon="-0.677658">
<ele>474.0</ele>
<speed>30.9</speed>
<course>276.1</course>
<desc>Speed 30.9 km/h Distance 27.26 km</desc>
<time>2011-09-29T11:21:37.91</time>
<name>4645</name>
</trkpt>
<trkpt lat="41.709048" lon="-0.677763">
<ele>474.0</ele>
<speed>31.5</speed>
<course>276.1</course>
<desc>Speed 31.5 km/h Distance 27.27 km</desc>
<time>2011-09-29T11:21:38.91</time>
<name>4646</name>
</trkpt>
<trkpt lat="41.709057" lon="-0.677868">
<ele>473.5</ele>
<speed>31.8</speed>
<course>275.5</course>
<desc>Speed 31.8 km/h Distance 27.28 km</desc>
<time>2011-09-29T11:21:40.37</time>
<name>4647</name>
</trkpt>
<trkpt lat="41.709072" lon="-0.678078">
<ele>473.0</ele>
<speed>31.6</speed>
<course>276.1</course>
<desc>Speed 31.6 km/h Distance 27.29 km</desc>
<time>2011-09-29T11:21:41.91</time>
<name>4648</name>
</trkpt>
<trkpt lat="41.709080" lon="-0.678183">
<ele>472.5</ele>
<speed>31.3</speed>
<course>276.2</course>
<desc>Speed 31.3 km/h Distance 27.30 km</desc>
<time>2011-09-29T11:21:42.90</time>
<name>4649</name>
</trkpt>
<trkpt lat="41.709088" lon="-0.678287">
<ele>472.5</ele>
<speed>31.2</speed>
<course>277.5</course>
<desc>Speed 31.2 km/h Distance 27.31 km</desc>
<time>2011-09-29T11:21:43.90</time>
<name>4650</name>
</trkpt>
<trkpt lat="41.709098" lon="-0.678388">
<ele>472.5</ele>
<speed>31.0</speed>
<course>277.5</course>
<desc>Speed 31.0 km/h Distance 27.32 km</desc>
<time>2011-09-29T11:21:44.90</time>
<name>4651</name>
</trkpt>
<trkpt lat="41.709108" lon="-0.678490">
<ele>472.0</ele>
<speed>30.5</speed>
<course>279.0</course>
<desc>Speed 30.5 km/h Distance 27.33 km</desc>
<time>2011-09-29T11:21:45.90</time>
<name>4652</name>
</trkpt>
<trkpt lat="41.709120" lon="-0.678588">
<ele>472.0</ele>
<speed>30.0</speed>
<course>277.8</course>
<desc>Speed 30.0 km/h Distance 27.34 km</desc>
<time>2011-09-29T11:21:46.90</time>
<name>4653</name>
</trkpt>
<trkpt lat="41.709130" lon="-0.678687">
<ele>472.0</ele>
<speed>29.6</speed>
<course>278.1</course>
<desc>Speed 29.6 km/h Distance 27.34 km</desc>
<time>2011-09-29T11:21:47.90</time>
<name>4654</name>
</trkpt>
<trkpt lat="41.709160" lon="-0.678970">
<ele>471.5</ele>
<speed>28.0</speed>
<course>279.7</course>
<desc>Speed 28.0 km/h Distance 27.37 km</desc>
<time>2011-09-29T11:21:51.07</time>
<name>4655</name>
</trkpt>
<trkpt lat="41.709172" lon="-0.679062">
<ele>471.5</ele>
<speed>27.7</speed>
<course>279.9</course>
<desc>Speed 27.7 km/h Distance 27.38 km</desc>
<time>2011-09-29T11:21:51.90</time>
<name>4656</name>
</trkpt>
<trkpt lat="41.709183" lon="-0.679152">
<ele>471.5</ele>
<speed>27.5</speed>
<course>282.8</course>
<desc>Speed 27.5 km/h Distance 27.38 km</desc>
<time>2011-09-29T11:21:52.90</time>
<name>4657</name>
</trkpt>
<trkpt lat="41.709198" lon="-0.679240">
<ele>471.0</ele>
<speed>27.1</speed>
<course>284.4</course>
<desc>Speed 27.1 km/h Distance 27.39 km</desc>
<time>2011-09-29T11:21:53.90</time>
<name>4658</name>
</trkpt>
<trkpt lat="41.709215" lon="-0.679327">
<ele>471.0</ele>
<speed>26.9</speed>
<course>282.8</course>
<desc>Speed 26.9 km/h Distance 27.40 km</desc>
<time>2011-09-29T11:21:54.90</time>
<name>4659</name>
</trkpt>
<trkpt lat="41.709230" lon="-0.679415">
<ele>471.0</ele>
<speed>27.0</speed>
<course>285.8</course>
<desc>Speed 27.0 km/h Distance 27.41 km</desc>
<time>2011-09-29T11:21:55.90</time>
<name>4660</name>
</trkpt>
<trkpt lat="41.709248" lon="-0.679502">
<ele>471.0</ele>
<speed>27.0</speed>
<course>291.1</course>
<desc>Speed 27.0 km/h Distance 27.41 km</desc>
<time>2011-09-29T11:21:57.00</time>
<name>4661</name>
</trkpt>
<trkpt lat="41.709273" lon="-0.679588">
<ele>470.5</ele>
<speed>27.4</speed>
<course>292.8</course>
<desc>Speed 27.4 km/h Distance 27.42 km</desc>
<time>2011-09-29T11:21:57.90</time>
<name>4662</name>
</trkpt>
<trkpt lat="41.709300" lon="-0.679673">
<ele>470.0</ele>
<speed>27.8</speed>
<course>293.6</course>
<desc>Speed 27.8 km/h Distance 27.43 km</desc>
<time>2011-09-29T11:21:58.90</time>
<name>4663</name>
</trkpt>
<trkpt lat="41.709328" lon="-0.679760">
<ele>470.0</ele>
<speed>28.3</speed>
<course>294.1</course>
<desc>Speed 28.3 km/h Distance 27.44 km</desc>
<time>2011-09-29T11:21:59.90</time>
<name>4664</name>
</trkpt>
<trkpt lat="41.709358" lon="-0.679850">
<ele>469.5</ele>
<speed>28.9</speed>
<course>295.7</course>
<desc>Speed 28.9 km/h Distance 27.44 km</desc>
<time>2011-09-29T11:22:00.89</time>
<name>4665</name>
</trkpt>
<trkpt lat="41.709390" lon="-0.679938">
<ele>469.0</ele>
<speed>29.3</speed>
<course>298.0</course>
<desc>Speed 29.3 km/h Distance 27.45 km</desc>
<time>2011-09-29T11:22:01.89</time>
<name>4666</name>
</trkpt>
<trkpt lat="41.709425" lon="-0.680027">
<ele>469.0</ele>
<speed>29.7</speed>
<course>296.8</course>
<desc>Speed 29.7 km/h Distance 27.46 km</desc>
<time>2011-09-29T11:22:03.00</time>
<name>4667</name>
</trkpt>
<trkpt lat="41.709458" lon="-0.680115">
<ele>468.5</ele>
<speed>29.8</speed>
<course>294.1</course>
<desc>Speed 29.8 km/h Distance 27.47 km</desc>
<time>2011-09-29T11:22:03.89</time>
<name>4668</name>
</trkpt>
<trkpt lat="41.709488" lon="-0.680205">
<ele>468.5</ele>
<speed>29.4</speed>
<course>292.0</course>
<desc>Speed 29.4 km/h Distance 27.48 km</desc>
<time>2011-09-29T11:22:04.89</time>
<name>4669</name>
</trkpt>
<trkpt lat="41.709515" lon="-0.680293">
<ele>468.5</ele>
<speed>28.7</speed>
<course>293.7</course>
<desc>Speed 28.7 km/h Distance 27.49 km</desc>
<time>2011-09-29T11:22:05.89</time>
<name>4670</name>
</trkpt>
<trkpt lat="41.709543" lon="-0.680380">
<ele>468.5</ele>
<speed>27.9</speed>
<course>290.6</course>
<desc>Speed 27.9 km/h Distance 27.49 km</desc>
<time>2011-09-29T11:22:06.89</time>
<name>4671</name>
</trkpt>
<trkpt lat="41.709567" lon="-0.680463">
<ele>468.5</ele>
<speed>26.9</speed>
<course>285.0</course>
<desc>Speed 26.9 km/h Distance 27.50 km</desc>
<time>2011-09-29T11:22:07.89</time>
<name>4672</name>
</trkpt>
<trkpt lat="41.709583" lon="-0.680547">
<ele>468.5</ele>
<speed>25.6</speed>
<course>285.9</course>
<desc>Speed 25.6 km/h Distance 27.51 km</desc>
<time>2011-09-29T11:22:09.00</time>
<name>4673</name>
</trkpt>
<trkpt lat="41.709600" lon="-0.680625">
<ele>468.5</ele>
<speed>24.4</speed>
<course>283.7</course>
<desc>Speed 24.4 km/h Distance 27.51 km</desc>
<time>2011-09-29T11:22:09.89</time>
<name>4674</name>
</trkpt>
<trkpt lat="41.709613" lon="-0.680698">
<ele>468.5</ele>
<speed>23.1</speed>
<course>282.0</course>
<desc>Speed 23.1 km/h Distance 27.52 km</desc>
<time>2011-09-29T11:22:10.88</time>
<name>4675</name>
</trkpt>
<trkpt lat="41.709625" lon="-0.680772">
<ele>468.5</ele>
<speed>22.2</speed>
<course>278.9</course>
<desc>Speed 22.2 km/h Distance 27.53 km</desc>
<time>2011-09-29T11:22:11.88</time>
<name>4676</name>
</trkpt>
<trkpt lat="41.709633" lon="-0.680843">
<ele>468.5</ele>
<speed>21.7</speed>
<course>279.1</course>
<desc>Speed 21.7 km/h Distance 27.53 km</desc>
<time>2011-09-29T11:22:12.88</time>
<name>4677</name>
</trkpt>
<trkpt lat="41.709642" lon="-0.680913">
<ele>468.5</ele>
<speed>21.5</speed>
<course>278.9</course>
<desc>Speed 21.5 km/h Distance 27.54 km</desc>
<time>2011-09-29T11:22:13.88</time>
<name>4678</name>
</trkpt>
<trkpt lat="41.709650" lon="-0.680985">
<ele>468.5</ele>
<speed>21.5</speed>
<course>277.3</course>
<desc>Speed 21.5 km/h Distance 27.55 km</desc>
<time>2011-09-29T11:22:14.99</time>
<name>4679</name>
</trkpt>
<trkpt lat="41.709657" lon="-0.681055">
<ele>468.5</ele>
<speed>21.2</speed>
<course>273.6</course>
<desc>Speed 21.2 km/h Distance 27.55 km</desc>
<time>2011-09-29T11:22:15.88</time>
<name>4680</name>
</trkpt>
<trkpt lat="41.709660" lon="-0.681127">
<ele>468.0</ele>
<speed>21.7</speed>
<course>271.6</course>
<desc>Speed 21.7 km/h Distance 27.56 km</desc>
<time>2011-09-29T11:22:16.88</time>
<name>4681</name>
</trkpt>
<trkpt lat="41.709662" lon="-0.681205">
<ele>468.0</ele>
<speed>23.1</speed>
<course>271.6</course>
<desc>Speed 23.1 km/h Distance 27.56 km</desc>
<time>2011-09-29T11:22:17.88</time>
<name>4682</name>
</trkpt>
<trkpt lat="41.709663" lon="-0.681285">
<ele>467.5</ele>
<speed>24.2</speed>
<course>270.8</course>
<desc>Speed 24.2 km/h Distance 27.57 km</desc>
<time>2011-09-29T11:22:19.35</time>
<name>4683</name>
</trkpt>
<trkpt lat="41.709665" lon="-0.681453">
<ele>466.5</ele>
<speed>25.5</speed>
<course>270.0</course>
<desc>Speed 25.5 km/h Distance 27.58 km</desc>
<time>2011-09-29T11:22:20.97</time>
<name>4684</name>
</trkpt>
<trkpt lat="41.709665" lon="-0.681543">
<ele>466.0</ele>
<speed>26.4</speed>
<course>267.1</course>
<desc>Speed 26.4 km/h Distance 27.59 km</desc>
<time>2011-09-29T11:22:21.89</time>
<name>4685</name>
</trkpt>
<trkpt lat="41.709662" lon="-0.681632">
<ele>466.0</ele>
<speed>26.6</speed>
<course>268.6</course>
<desc>Speed 26.6 km/h Distance 27.60 km</desc>
<time>2011-09-29T11:22:22.88</time>
<name>4686</name>
</trkpt>
<trkpt lat="41.709660" lon="-0.681720">
<ele>465.5</ele>
<speed>26.6</speed>
<course>270.0</course>
<desc>Speed 26.6 km/h Distance 27.61 km</desc>
<time>2011-09-29T11:22:23.87</time>
<name>4687</name>
</trkpt>
<trkpt lat="41.709660" lon="-0.681810">
<ele>465.5</ele>
<speed>26.6</speed>
<course>268.6</course>
<desc>Speed 26.6 km/h Distance 27.61 km</desc>
<time>2011-09-29T11:22:24.87</time>
<name>4688</name>
</trkpt>
<trkpt lat="41.709658" lon="-0.681898">
<ele>465.0</ele>
<speed>26.7</speed>
<course>267.1</course>
<desc>Speed 26.7 km/h Distance 27.62 km</desc>
<time>2011-09-29T11:22:25.88</time>
<name>4689</name>
</trkpt>
<trkpt lat="41.709655" lon="-0.681987">
<ele>465.0</ele>
<speed>26.6</speed>
<course>268.6</course>
<desc>Speed 26.6 km/h Distance 27.63 km</desc>
<time>2011-09-29T11:22:26.87</time>
<name>4690</name>
</trkpt>
<trkpt lat="41.709653" lon="-0.682075">
<ele>465.0</ele>
<speed>26.3</speed>
<course>265.5</course>
<desc>Speed 26.3 km/h Distance 27.64 km</desc>
<time>2011-09-29T11:22:27.87</time>
<name>4691</name>
</trkpt>
<trkpt lat="41.709648" lon="-0.682160">
<ele>465.0</ele>
<speed>25.8</speed>
<course>268.5</course>
<desc>Speed 25.8 km/h Distance 27.64 km</desc>
<time>2011-09-29T11:22:28.87</time>
<name>4692</name>
</trkpt>
<trkpt lat="41.709647" lon="-0.682243">
<ele>465.0</ele>
<speed>24.8</speed>
<course>268.3</course>
<desc>Speed 24.8 km/h Distance 27.65 km</desc>
<time>2011-09-29T11:22:30.37</time>
<name>4693</name>
</trkpt>
<trkpt lat="41.709643" lon="-0.682395">
<ele>465.0</ele>
<speed>22.2</speed>
<course>266.3</course>
<desc>Speed 22.2 km/h Distance 27.66 km</desc>
<time>2011-09-29T11:22:31.87</time>
<name>4694</name>
</trkpt>
<trkpt lat="41.709640" lon="-0.682465">
<ele>465.0</ele>
<speed>20.9</speed>
<course>264.3</course>
<desc>Speed 20.9 km/h Distance 27.67 km</desc>
<time>2011-09-29T11:22:32.87</time>
<name>4695</name>
</trkpt>
<trkpt lat="41.709635" lon="-0.682532">
<ele>465.0</ele>
<speed>19.9</speed>
<course>270.0</course>
<desc>Speed 19.9 km/h Distance 27.67 km</desc>
<time>2011-09-29T11:22:33.87</time>
<name>4696</name>
</trkpt>
<trkpt lat="41.709635" lon="-0.682597">
<ele>465.5</ele>
<speed>19.3</speed>
<course>267.9</course>
<desc>Speed 19.3 km/h Distance 27.68 km</desc>
<time>2011-09-29T11:22:34.87</time>
<name>4697</name>
</trkpt>
<trkpt lat="41.709633" lon="-0.682658">
<ele>465.5</ele>
<speed>18.6</speed>
<course>263.8</course>
<desc>Speed 18.6 km/h Distance 27.68 km</desc>
<time>2011-09-29T11:22:35.87</time>
<name>4698</name>
</trkpt>
<trkpt lat="41.709628" lon="-0.682720">
<ele>465.5</ele>
<speed>18.4</speed>
<course>265.5</course>
<desc>Speed 18.4 km/h Distance 27.69 km</desc>
<time>2011-09-29T11:22:36.87</time>
<name>4699</name>
</trkpt>
<trkpt lat="41.709625" lon="-0.682777">
<ele>466.0</ele>
<speed>17.4</speed>
<course>267.7</course>
<desc>Speed 17.4 km/h Distance 27.69 km</desc>
<time>2011-09-29T11:22:37.86</time>
<name>4700</name>
</trkpt>
<trkpt lat="41.709623" lon="-0.682833">
<ele>466.0</ele>
<speed>17.0</speed>
<course>263.1</course>
<desc>Speed 17.0 km/h Distance 27.70 km</desc>
<time>2011-09-29T11:22:38.87</time>
<name>4701</name>
</trkpt>
<trkpt lat="41.709618" lon="-0.682888">
<ele>466.5</ele>
<speed>16.3</speed>
<course>265.5</course>
<desc>Speed 16.3 km/h Distance 27.70 km</desc>
<time>2011-09-29T11:22:40.18</time>
<name>4702</name>
</trkpt>
<trkpt lat="41.709612" lon="-0.683002">
<ele>467.0</ele>
<speed>17.2</speed>
<course>265.4</course>
<desc>Speed 17.2 km/h Distance 27.71 km</desc>
<time>2011-09-29T11:22:41.86</time>
<name>4703</name>
</trkpt>
<trkpt lat="41.709608" lon="-0.683057">
<ele>467.0</ele>
<speed>16.3</speed>
<course>267.7</course>
<desc>Speed 16.3 km/h Distance 27.72 km</desc>
<time>2011-09-29T11:22:42.86</time>
<name>4704</name>
</trkpt>
<trkpt lat="41.709607" lon="-0.683112">
<ele>467.5</ele>
<speed>16.4</speed>
<course>265.5</course>
<desc>Speed 16.4 km/h Distance 27.72 km</desc>
<time>2011-09-29T11:22:43.86</time>
<name>4705</name>
</trkpt>
<trkpt lat="41.709603" lon="-0.683168">
<ele>467.5</ele>
<speed>17.4</speed>
<course>267.7</course>
<desc>Speed 17.4 km/h Distance 27.73 km</desc>
<time>2011-09-29T11:22:44.86</time>
<name>4706</name>
</trkpt>
<trkpt lat="41.709602" lon="-0.683225">
<ele>468.0</ele>
<speed>17.0</speed>
<course>272.4</course>
<desc>Speed 17.0 km/h Distance 27.73 km</desc>
<time>2011-09-29T11:22:45.86</time>
<name>4707</name>
</trkpt>
<trkpt lat="41.709603" lon="-0.683278">
<ele>468.5</ele>
<speed>15.7</speed>
<course>272.6</course>
<desc>Speed 15.7 km/h Distance 27.74 km</desc>
<time>2011-09-29T11:22:47.10</time>
<name>4708</name>
</trkpt>
<trkpt lat="41.709605" lon="-0.683328">
<ele>469.0</ele>
<speed>15.0</speed>
<course>267.4</course>
<desc>Speed 15.0 km/h Distance 27.74 km</desc>
<time>2011-09-29T11:22:47.86</time>
<name>4709</name>
</trkpt>
<trkpt lat="41.709603" lon="-0.683377">
<ele>469.0</ele>
<speed>14.8</speed>
<course>267.3</course>
<desc>Speed 14.8 km/h Distance 27.74 km</desc>
<time>2011-09-29T11:22:48.86</time>
<name>4710</name>
</trkpt>
<trkpt lat="41.709602" lon="-0.683423">
<ele>469.5</ele>
<speed>14.0</speed>
<course>264.1</course>
<desc>Speed 14.0 km/h Distance 27.75 km</desc>
<time>2011-09-29T11:22:49.91</time>
<name>4711</name>
</trkpt>
<trkpt lat="41.709598" lon="-0.683467">
<ele>470.0</ele>
<speed>13.2</speed>
<course>263.1</course>
<desc>Speed 13.2 km/h Distance 27.75 km</desc>
<time>2011-09-29T11:22:50.86</time>
<name>4712</name>
</trkpt>
<trkpt lat="41.709595" lon="-0.683503">
<ele>470.0</ele>
<speed>11.1</speed>
<course>262.4</course>
<desc>Speed 11.1 km/h Distance 27.76 km</desc>
<time>2011-09-29T11:22:51.86</time>
<name>4713</name>
</trkpt>
<trkpt lat="41.709592" lon="-0.683537">
<ele>470.0</ele>
<speed>10.0</speed>
<course>266.0</course>
<desc>Speed 10.0 km/h Distance 27.76 km</desc>
<time>2011-09-29T11:22:52.86</time>
<name>4714</name>
</trkpt>
<trkpt lat="41.709590" lon="-0.683568">
<ele>470.5</ele>
<speed>9.6</speed>
<course>265.7</course>
<desc>Speed 9.6 km/h Distance 27.76 km</desc>
<time>2011-09-29T11:22:53.85</time>
<name>4715</name>
</trkpt>
<trkpt lat="41.709588" lon="-0.683598">
<ele>470.5</ele>
<speed>9.1</speed>
<course>258.1</course>
<desc>Speed 9.1 km/h Distance 27.76 km</desc>
<time>2011-09-29T11:22:54.85</time>
<name>4716</name>
</trkpt>
<trkpt lat="41.709583" lon="-0.683630">
<ele>470.5</ele>
<speed>9.6</speed>
<course>253.4</course>
<desc>Speed 9.6 km/h Distance 27.77 km</desc>
<time>2011-09-29T11:22:55.85</time>
<name>4717</name>
</trkpt>
<trkpt lat="41.709577" lon="-0.683660">
<ele>471.0</ele>
<speed>9.4</speed>
<course>261.5</course>
<desc>Speed 9.4 km/h Distance 27.77 km</desc>
<time>2011-09-29T11:22:56.85</time>
<name>4718</name>
</trkpt>
<trkpt lat="41.709573" lon="-0.683690">
<ele>471.5</ele>
<speed>9.4</speed>
<course>266.0</course>
<desc>Speed 9.4 km/h Distance 27.77 km</desc>
<time>2011-09-29T11:22:57.85</time>
<name>4719</name>
</trkpt>
<trkpt lat="41.709572" lon="-0.683722">
<ele>471.5</ele>
<speed>9.6</speed>
<course>268.1</course>
<desc>Speed 9.6 km/h Distance 27.77 km</desc>
<time>2011-09-29T11:22:59.64</time>
<name>4720</name>
</trkpt>
<trkpt lat="41.709570" lon="-0.683788">
<ele>472.0</ele>
<speed>9.7</speed>
<course>265.7</course>
<desc>Speed 9.7 km/h Distance 27.78 km</desc>
<time>2011-09-29T11:23:00.85</time>
<name>4721</name>
</trkpt>
<trkpt lat="41.709568" lon="-0.683818">
<ele>472.0</ele>
<speed>9.5</speed>
<course>262.4</course>
<desc>Speed 9.5 km/h Distance 27.78 km</desc>
<time>2011-09-29T11:23:01.85</time>
<name>4722</name>
</trkpt>
<trkpt lat="41.709565" lon="-0.683852">
<ele>472.5</ele>
<speed>10.0</speed>
<course>263.4</course>
<desc>Speed 10.0 km/h Distance 27.78 km</desc>
<time>2011-09-29T11:23:02.85</time>
<name>4723</name>
</trkpt>
<trkpt lat="41.709562" lon="-0.683890">
<ele>473.0</ele>
<speed>11.3</speed>
<course>266.8</course>
<desc>Speed 11.3 km/h Distance 27.79 km</desc>
<time>2011-09-29T11:23:03.85</time>
<name>4724</name>
</trkpt>
<trkpt lat="41.709560" lon="-0.683930">
<ele>473.0</ele>
<speed>12.1</speed>
<course>270.0</course>
<desc>Speed 12.1 km/h Distance 27.79 km</desc>
<time>2011-09-29T11:23:04.85</time>
<name>4725</name>
</trkpt>
<trkpt lat="41.709560" lon="-0.683970">
<ele>473.0</ele>
<speed>12.1</speed>
<course>273.2</course>
<desc>Speed 12.1 km/h Distance 27.79 km</desc>
<time>2011-09-29T11:23:05.85</time>
<name>4726</name>
</trkpt>
<trkpt lat="41.709562" lon="-0.684010">
<ele>473.5</ele>
<speed>11.9</speed>
<course>279.5</course>
<desc>Speed 11.9 km/h Distance 27.80 km</desc>
<time>2011-09-29T11:23:06.85</time>
<name>4727</name>
</trkpt>
<trkpt lat="41.709567" lon="-0.684050">
<ele>473.0</ele>
<speed>12.2</speed>
<course>285.0</course>
<desc>Speed 12.2 km/h Distance 27.80 km</desc>
<time>2011-09-29T11:23:07.85</time>
<name>4728</name>
</trkpt>
<trkpt lat="41.709575" lon="-0.684092">
<ele>473.5</ele>
<speed>12.8</speed>
<course>294.5</course>
<desc>Speed 12.8 km/h Distance 27.80 km</desc>
<time>2011-09-29T11:23:09.38</time>
<name>4729</name>
</trkpt>
<trkpt lat="41.709602" lon="-0.684170">
<ele>473.5</ele>
<speed>12.9</speed>
<course>300.2</course>
<desc>Speed 12.9 km/h Distance 27.81 km</desc>
<time>2011-09-29T11:23:10.85</time>
<name>4730</name>
</trkpt>
<trkpt lat="41.709618" lon="-0.684208">
<ele>473.5</ele>
<speed>13.0</speed>
<course>300.2</course>
<desc>Speed 13.0 km/h Distance 27.82 km</desc>
<time>2011-09-29T11:23:11.84</time>
<name>4731</name>
</trkpt>
<trkpt lat="41.709635" lon="-0.684247">
<ele>473.5</ele>
<speed>13.5</speed>
<course>304.9</course>
<desc>Speed 13.5 km/h Distance 27.82 km</desc>
<time>2011-09-29T11:23:12.84</time>
<name>4732</name>
</trkpt>
<trkpt lat="41.709655" lon="-0.684285">
<ele>473.5</ele>
<speed>14.1</speed>
<course>323.2</course>
<desc>Speed 14.1 km/h Distance 27.82 km</desc>
<time>2011-09-29T11:23:13.84</time>
<name>4733</name>
</trkpt>
<trkpt lat="41.709683" lon="-0.684313">
<ele>473.5</ele>
<speed>13.9</speed>
<course>325.0</course>
<desc>Speed 13.9 km/h Distance 27.83 km</desc>
<time>2011-09-29T11:23:14.84</time>
<name>4734</name>
</trkpt>
<trkpt lat="41.709710" lon="-0.684338">
<ele>473.5</ele>
<speed>13.2</speed>
<course>332.3</course>
<desc>Speed 13.2 km/h Distance 27.83 km</desc>
<time>2011-09-29T11:23:15.84</time>
<name>4735</name>
</trkpt>
<trkpt lat="41.709738" lon="-0.684358">
<ele>473.5</ele>
<speed>12.1</speed>
<course>342.9</course>
<desc>Speed 12.1 km/h Distance 27.83 km</desc>
<time>2011-09-29T11:23:16.84</time>
<name>4736</name>
</trkpt>
<trkpt lat="41.709767" lon="-0.684370">
<ele>473.5</ele>
<speed>11.4</speed>
<course>335.3</course>
<desc>Speed 11.4 km/h Distance 27.84 km</desc>
<time>2011-09-29T11:23:17.84</time>
<name>4737</name>
</trkpt>
<trkpt lat="41.709788" lon="-0.684383">
<ele>474.0</ele>
<speed>9.8</speed>
<course>346.0</course>
<desc>Speed 9.8 km/h Distance 27.84 km</desc>
<time>2011-09-29T11:23:19.14</time>
<name>4738</name>
</trkpt>
<trkpt lat="41.709813" lon="-0.684392">
<ele>474.0</ele>
<speed>10.2</speed>
<course>346.0</course>
<desc>Speed 10.2 km/h Distance 27.84 km</desc>
<time>2011-09-29T11:23:19.84</time>
<name>4739</name>
</trkpt>
<trkpt lat="41.709843" lon="-0.684402">
<ele>474.0</ele>
<speed>11.7</speed>
<course>341.7</course>
<desc>Speed 11.7 km/h Distance 27.85 km</desc>
<time>2011-09-29T11:23:20.83</time>
<name>4740</name>
</trkpt>
<trkpt lat="41.709873" lon="-0.684415">
<ele>474.5</ele>
<speed>12.7</speed>
<course>346.7</course>
<desc>Speed 12.7 km/h Distance 27.85 km</desc>
<time>2011-09-29T11:23:21.83</time>
<name>4741</name>
</trkpt>
<trkpt lat="41.709905" lon="-0.684425">
<ele>474.5</ele>
<speed>12.7</speed>
<course>355.9</course>
<desc>Speed 12.7 km/h Distance 27.85 km</desc>
<time>2011-09-29T11:23:22.84</time>
<name>4742</name>
</trkpt>
<trkpt lat="41.709938" lon="-0.684428">
<ele>474.5</ele>
<speed>13.2</speed>
<course>352.0</course>
<desc>Speed 13.2 km/h Distance 27.86 km</desc>
<time>2011-09-29T11:23:23.83</time>
<name>4743</name>
</trkpt>
<trkpt lat="41.709973" lon="-0.684435">
<ele>475.0</ele>
<speed>13.6</speed>
<course>355.9</course>
<desc>Speed 13.6 km/h Distance 27.86 km</desc>
<time>2011-09-29T11:23:24.84</time>
<name>4744</name>
</trkpt>
<trkpt lat="41.710007" lon="-0.684438">
<ele>475.0</ele>
<speed>13.5</speed>
<course>357.7</course>
<desc>Speed 13.5 km/h Distance 27.86 km</desc>
<time>2011-09-29T11:23:26.05</time>
<name>4745</name>
</trkpt>
<trkpt lat="41.710038" lon="-0.684440">
<ele>475.0</ele>
<speed>12.6</speed>
<course>352.6</course>
<desc>Speed 12.6 km/h Distance 27.87 km</desc>
<time>2011-09-29T11:23:26.83</time>
<name>4746</name>
</trkpt>
<trkpt lat="41.710067" lon="-0.684445">
<ele>475.0</ele>
<speed>11.4</speed>
<course>355.3</course>
<desc>Speed 11.4 km/h Distance 27.87 km</desc>
<time>2011-09-29T11:23:27.83</time>
<name>4747</name>
</trkpt>
<trkpt lat="41.710097" lon="-0.684448">
<ele>475.5</ele>
<speed>11.3</speed>
<course>352.9</course>
<desc>Speed 11.3 km/h Distance 27.87 km</desc>
<time>2011-09-29T11:23:28.85</time>
<name>4748</name>
</trkpt>
<trkpt lat="41.710127" lon="-0.684453">
<ele>475.5</ele>
<speed>11.9</speed>
<course>352.9</course>
<desc>Speed 11.9 km/h Distance 27.88 km</desc>
<time>2011-09-29T11:23:29.83</time>
<name>4749</name>
</trkpt>
<trkpt lat="41.710157" lon="-0.684458">
<ele>475.5</ele>
<speed>11.9</speed>
<course>348.3</course>
<desc>Speed 11.9 km/h Distance 27.88 km</desc>
<time>2011-09-29T11:23:30.83</time>
<name>4750</name>
</trkpt>
<trkpt lat="41.710187" lon="-0.684467">
<ele>475.5</ele>
<speed>12.1</speed>
<course>345.2</course>
<desc>Speed 12.1 km/h Distance 27.88 km</desc>
<time>2011-09-29T11:23:31.83</time>
<name>4751</name>
</trkpt>
<trkpt lat="41.710215" lon="-0.684477">
<ele>475.5</ele>
<speed>12.0</speed>
<course>352.9</course>
<desc>Speed 12.0 km/h Distance 27.89 km</desc>
<time>2011-09-29T11:23:32.83</time>
<name>4752</name>
</trkpt>
<trkpt lat="41.710245" lon="-0.684482">
<ele>475.5</ele>
<speed>11.7</speed>
<course>2.8</course>
<desc>Speed 11.7 km/h Distance 27.89 km</desc>
<time>2011-09-29T11:23:33.83</time>
<name>4753</name>
</trkpt>
<trkpt lat="41.710273" lon="-0.684480">
<ele>475.5</ele>
<speed>11.3</speed>
<course>352.9</course>
<desc>Speed 11.3 km/h Distance 27.89 km</desc>
<time>2011-09-29T11:23:34.82</time>
<name>4754</name>
</trkpt>
<trkpt lat="41.710303" lon="-0.684485">
<ele>475.5</ele>
<speed>11.8</speed>
<course>340.6</course>
<desc>Speed 11.8 km/h Distance 27.90 km</desc>
<time>2011-09-29T11:23:35.82</time>
<name>4755</name>
</trkpt>
<trkpt lat="41.710332" lon="-0.684498">
<ele>475.5</ele>
<speed>11.9</speed>
<course>341.6</course>
<desc>Speed 11.9 km/h Distance 27.90 km</desc>
<time>2011-09-29T11:23:36.82</time>
<name>4756</name>
</trkpt>
<trkpt lat="41.710362" lon="-0.684512">
<ele>475.5</ele>
<speed>12.2</speed>
<course>344.4</course>
<desc>Speed 12.2 km/h Distance 27.90 km</desc>
<time>2011-09-29T11:23:38.58</time>
<name>4757</name>
</trkpt>
<trkpt lat="41.710460" lon="-0.684548">
<ele>475.5</ele>
<speed>14.0</speed>
<course>335.9</course>
<desc>Speed 14.0 km/h Distance 27.92 km</desc>
<time>2011-09-29T11:23:40.82</time>
<name>4758</name>
</trkpt>
<trkpt lat="41.710493" lon="-0.684568">
<ele>475.0</ele>
<speed>14.4</speed>
<course>330.7</course>
<desc>Speed 14.4 km/h Distance 27.92 km</desc>
<time>2011-09-29T11:23:41.82</time>
<name>4759</name>
</trkpt>
<trkpt lat="41.710527" lon="-0.684593">
<ele>475.0</ele>
<speed>14.7</speed>
<course>326.2</course>
<desc>Speed 14.7 km/h Distance 27.92 km</desc>
<time>2011-09-29T11:23:42.82</time>
<name>4760</name>
</trkpt>
<trkpt lat="41.710558" lon="-0.684622">
<ele>474.5</ele>
<speed>15.1</speed>
<course>326.2</course>
<desc>Speed 15.1 km/h Distance 27.93 km</desc>
<time>2011-09-29T11:23:43.81</time>
<name>4761</name>
</trkpt>
<trkpt lat="41.710590" lon="-0.684650">
<ele>474.5</ele>
<speed>15.2</speed>
<course>318.9</course>
<desc>Speed 15.2 km/h Distance 27.93 km</desc>
<time>2011-09-29T11:23:44.81</time>
<name>4762</name>
</trkpt>
<trkpt lat="41.710620" lon="-0.684685">
<ele>474.5</ele>
<speed>15.6</speed>
<course>316.4</course>
<desc>Speed 15.6 km/h Distance 27.94 km</desc>
<time>2011-09-29T11:23:45.81</time>
<name>4763</name>
</trkpt>
<trkpt lat="41.710650" lon="-0.684723">
<ele>474.0</ele>
<speed>16.4</speed>
<course>315.1</course>
<desc>Speed 16.4 km/h Distance 27.94 km</desc>
<time>2011-09-29T11:23:46.81</time>
<name>4764</name>
</trkpt>
<trkpt lat="41.710680" lon="-0.684763">
<ele>474.0</ele>
<speed>17.0</speed>
<course>310.7</course>
<desc>Speed 17.0 km/h Distance 27.95 km</desc>
<time>2011-09-29T11:23:48.35</time>
<name>4765</name>
</trkpt>
<trkpt lat="41.710737" lon="-0.684852">
<ele>473.5</ele>
<speed>17.4</speed>
<course>305.7</course>
<desc>Speed 17.4 km/h Distance 27.96 km</desc>
<time>2011-09-29T11:23:49.81</time>
<name>4766</name>
</trkpt>
<trkpt lat="41.710762" lon="-0.684898">
<ele>473.5</ele>
<speed>17.2</speed>
<course>303.8</course>
<desc>Speed 17.2 km/h Distance 27.96 km</desc>
<time>2011-09-29T11:23:50.81</time>
<name>4767</name>
</trkpt>
<trkpt lat="41.710785" lon="-0.684945">
<ele>473.5</ele>
<speed>16.5</speed>
<course>303.8</course>
<desc>Speed 16.5 km/h Distance 27.97 km</desc>
<time>2011-09-29T11:23:51.81</time>
<name>4768</name>
</trkpt>
<trkpt lat="41.710807" lon="-0.684988">
<ele>473.5</ele>
<speed>15.6</speed>
<course>309.2</course>
<desc>Speed 15.6 km/h Distance 27.97 km</desc>
<time>2011-09-29T11:23:52.81</time>
<name>4769</name>
</trkpt>
<trkpt lat="41.710830" lon="-0.685027">
<ele>474.0</ele>
<speed>14.8</speed>
<course>306.0</course>
<desc>Speed 14.8 km/h Distance 27.97 km</desc>
<time>2011-09-29T11:23:53.81</time>
<name>4770</name>
</trkpt>
<trkpt lat="41.710852" lon="-0.685067">
<ele>474.0</ele>
<speed>14.5</speed>
<course>306.0</course>
<desc>Speed 14.5 km/h Distance 27.98 km</desc>
<time>2011-09-29T11:23:54.81</time>
<name>4771</name>
</trkpt>
<trkpt lat="41.710873" lon="-0.685107">
<ele>474.0</ele>
<speed>14.8</speed>
<course>310.6</course>
<desc>Speed 14.8 km/h Distance 27.98 km</desc>
<time>2011-09-29T11:23:55.81</time>
<name>4772</name>
</trkpt>
<trkpt lat="41.710900" lon="-0.685148">
<ele>474.0</ele>
<speed>16.0</speed>
<course>313.0</course>
<desc>Speed 16.0 km/h Distance 27.99 km</desc>
<time>2011-09-29T11:23:56.81</time>
<name>4773</name>
</trkpt>
<trkpt lat="41.710927" lon="-0.685187">
<ele>474.0</ele>
<speed>15.6</speed>
<course>320.9</course>
<desc>Speed 15.6 km/h Distance 27.99 km</desc>
<time>2011-09-29T11:23:58.07</time>
<name>4774</name>
</trkpt>
<trkpt lat="41.711020" lon="-0.685288">
<ele>474.0</ele>
<speed>16.3</speed>
<course>334.6</course>
<desc>Speed 16.3 km/h Distance 28.00 km</desc>
<time>2011-09-29T11:24:00.81</time>
<name>4775</name>
</trkpt>
<trkpt lat="41.711093" lon="-0.685335">
<ele>474.0</ele>
<speed>15.8</speed>
<course>349.2</course>
<desc>Speed 15.8 km/h Distance 28.01 km</desc>
<time>2011-09-29T11:24:02.81</time>
<name>4776</name>
</trkpt>
<trkpt lat="41.711172" lon="-0.685355">
<ele>473.5</ele>
<speed>15.9</speed>
<course>356.1</course>
<desc>Speed 15.9 km/h Distance 28.02 km</desc>
<time>2011-09-29T11:24:05.01</time>
<name>4777</name>
</trkpt>
<trkpt lat="41.711262" lon="-0.685363">
<ele>472.5</ele>
<speed>18.6</speed>
<course>353.1</course>
<desc>Speed 18.6 km/h Distance 28.03 km</desc>
<time>2011-09-29T11:24:06.80</time>
<name>4778</name>
</trkpt>
<trkpt lat="41.711313" lon="-0.685372">
<ele>472.5</ele>
<speed>19.8</speed>
<course>350.7</course>
<desc>Speed 19.8 km/h Distance 28.04 km</desc>
<time>2011-09-29T11:24:07.82</time>
<name>4779</name>
</trkpt>
<trkpt lat="41.711420" lon="-0.685395">
<ele>472.0</ele>
<speed>21.8</speed>
<course>342.4</course>
<desc>Speed 21.8 km/h Distance 28.05 km</desc>
<time>2011-09-29T11:24:09.80</time>
<name>4780</name>
</trkpt>
<trkpt lat="41.711475" lon="-0.685418">
<ele>472.0</ele>
<speed>22.5</speed>
<course>336.6</course>
<desc>Speed 22.5 km/h Distance 28.06 km</desc>
<time>2011-09-29T11:24:10.80</time>
<name>4781</name>
</trkpt>
<trkpt lat="41.711527" lon="-0.685448">
<ele>471.5</ele>
<speed>21.5</speed>
<course>331.3</course>
<desc>Speed 21.5 km/h Distance 28.06 km</desc>
<time>2011-09-29T11:24:11.80</time>
<name>4782</name>
</trkpt>
<trkpt lat="41.711577" lon="-0.685485">
<ele>471.0</ele>
<speed>22.6</speed>
<course>324.2</course>
<desc>Speed 22.6 km/h Distance 28.07 km</desc>
<time>2011-09-29T11:24:12.80</time>
<name>4783</name>
</trkpt>
<trkpt lat="41.711627" lon="-0.685533">
<ele>471.0</ele>
<speed>24.1</speed>
<course>319.5</course>
<desc>Speed 24.1 km/h Distance 28.08 km</desc>
<time>2011-09-29T11:24:13.80</time>
<name>4784</name>
</trkpt>
<trkpt lat="41.711673" lon="-0.685587">
<ele>470.5</ele>
<speed>24.5</speed>
<course>310.1</course>
<desc>Speed 24.5 km/h Distance 28.08 km</desc>
<time>2011-09-29T11:24:14.79</time>
<name>4785</name>
</trkpt>
<trkpt lat="41.711710" lon="-0.685645">
<ele>470.5</ele>
<speed>22.5</speed>
<course>304.5</course>
<desc>Speed 22.5 km/h Distance 28.09 km</desc>
<time>2011-09-29T11:24:15.79</time>
<name>4786</name>
</trkpt>
<trkpt lat="41.711742" lon="-0.685707">
<ele>470.0</ele>
<speed>22.0</speed>
<course>293.6</course>
<desc>Speed 22.0 km/h Distance 28.10 km</desc>
<time>2011-09-29T11:24:17.57</time>
<name>4787</name>
</trkpt>
<trkpt lat="41.711812" lon="-0.685922">
<ele>468.5</ele>
<speed>25.3</speed>
<course>291.1</course>
<desc>Speed 25.3 km/h Distance 28.12 km</desc>
<time>2011-09-29T11:24:19.80</time>
<name>4788</name>
</trkpt>
<trkpt lat="41.711837" lon="-0.686008">
<ele>467.5</ele>
<speed>27.9</speed>
<course>289.7</course>
<desc>Speed 27.9 km/h Distance 28.12 km</desc>
<time>2011-09-29T11:24:20.79</time>
<name>4789</name>
</trkpt>
<trkpt lat="41.711862" lon="-0.686102">
<ele>467.0</ele>
<speed>30.0</speed>
<course>289.7</course>
<desc>Speed 30.0 km/h Distance 28.13 km</desc>
<time>2011-09-29T11:24:21.79</time>
<name>4790</name>
</trkpt>
<trkpt lat="41.711887" lon="-0.686195">
<ele>466.0</ele>
<speed>29.7</speed>
<course>286.3</course>
<desc>Speed 29.7 km/h Distance 28.14 km</desc>
<time>2011-09-29T11:24:22.79</time>
<name>4791</name>
</trkpt>
<trkpt lat="41.711907" lon="-0.686287">
<ele>465.0</ele>
<speed>28.4</speed>
<course>282.4</course>
<desc>Speed 28.4 km/h Distance 28.15 km</desc>
<time>2011-09-29T11:24:23.79</time>
<name>4792</name>
</trkpt>
<trkpt lat="41.711922" lon="-0.686378">
<ele>464.0</ele>
<speed>28.0</speed>
<course>279.3</course>
<desc>Speed 28.0 km/h Distance 28.16 km</desc>
<time>2011-09-29T11:24:24.79</time>
<name>4793</name>
</trkpt>
<trkpt lat="41.711933" lon="-0.686473">
<ele>463.5</ele>
<speed>28.7</speed>
<course>276.5</course>
<desc>Speed 28.7 km/h Distance 28.16 km</desc>
<time>2011-09-29T11:24:25.79</time>
<name>4794</name>
</trkpt>
<trkpt lat="41.711942" lon="-0.686572">
<ele>463.0</ele>
<speed>30.1</speed>
<course>275.0</course>
<desc>Speed 30.1 km/h Distance 28.17 km</desc>
<time>2011-09-29T11:24:27.29</time>
<name>4795</name>
</trkpt>
<trkpt lat="41.711955" lon="-0.686775">
<ele>462.5</ele>
<speed>30.5</speed>
<course>276.4</course>
<desc>Speed 30.5 km/h Distance 28.19 km</desc>
<time>2011-09-29T11:24:28.79</time>
<name>4796</name>
</trkpt>
<trkpt lat="41.711963" lon="-0.686875">
<ele>462.5</ele>
<speed>30.1</speed>
<course>276.6</course>
<desc>Speed 30.1 km/h Distance 28.20 km</desc>
<time>2011-09-29T11:24:29.78</time>
<name>4797</name>
</trkpt>
<trkpt lat="41.711972" lon="-0.686972">
<ele>462.5</ele>
<speed>29.2</speed>
<course>275.6</course>
<desc>Speed 29.2 km/h Distance 28.21 km</desc>
<time>2011-09-29T11:24:30.79</time>
<name>4798</name>
</trkpt>
<trkpt lat="41.711978" lon="-0.687063">
<ele>462.5</ele>
<speed>27.9</speed>
<course>278.8</course>
<desc>Speed 27.9 km/h Distance 28.21 km</desc>
<time>2011-09-29T11:24:31.78</time>
<name>4799</name>
</trkpt>
<trkpt lat="41.711988" lon="-0.687150">
<ele>463.0</ele>
<speed>26.1</speed>
<course>279.5</course>
<desc>Speed 26.1 km/h Distance 28.22 km</desc>
<time>2011-09-29T11:24:32.78</time>
<name>4800</name>
</trkpt>
<trkpt lat="41.711998" lon="-0.687230">
<ele>463.0</ele>
<speed>24.3</speed>
<course>282.3</course>
<desc>Speed 24.3 km/h Distance 28.23 km</desc>
<time>2011-09-29T11:24:33.78</time>
<name>4801</name>
</trkpt>
<trkpt lat="41.712010" lon="-0.687302">
<ele>463.5</ele>
<speed>22.2</speed>
<course>285.4</course>
<desc>Speed 22.2 km/h Distance 28.23 km</desc>
<time>2011-09-29T11:24:34.78</time>
<name>4802</name>
</trkpt>
<trkpt lat="41.712023" lon="-0.687367">
<ele>463.5</ele>
<speed>20.1</speed>
<course>289.0</course>
<desc>Speed 20.1 km/h Distance 28.24 km</desc>
<time>2011-09-29T11:24:35.78</time>
<name>4803</name>
</trkpt>
<trkpt lat="41.712038" lon="-0.687425">
<ele>464.0</ele>
<speed>18.5</speed>
<course>294.1</course>
<desc>Speed 18.5 km/h Distance 28.24 km</desc>
<time>2011-09-29T11:24:37.02</time>
<name>4804</name>
</trkpt>
<trkpt lat="41.712072" lon="-0.687525">
<ele>464.0</ele>
<speed>14.9</speed>
<course>307.1</course>
<desc>Speed 14.9 km/h Distance 28.25 km</desc>
<time>2011-09-29T11:24:38.78</time>
<name>4805</name>
</trkpt>
<trkpt lat="41.712093" lon="-0.687563">
<ele>464.0</ele>
<speed>14.3</speed>
<course>318.4</course>
<desc>Speed 14.3 km/h Distance 28.26 km</desc>
<time>2011-09-29T11:24:39.78</time>
<name>4806</name>
</trkpt>
<trkpt lat="41.712120" lon="-0.687595">
<ele>464.0</ele>
<speed>14.2</speed>
<course>326.4</course>
<desc>Speed 14.2 km/h Distance 28.26 km</desc>
<time>2011-09-29T11:24:40.78</time>
<name>4807</name>
</trkpt>
<trkpt lat="41.712150" lon="-0.687622">
<ele>463.5</ele>
<speed>14.4</speed>
<course>335.2</course>
<desc>Speed 14.4 km/h Distance 28.26 km</desc>
<time>2011-09-29T11:24:41.78</time>
<name>4808</name>
</trkpt>
<trkpt lat="41.712185" lon="-0.687643">
<ele>463.5</ele>
<speed>15.2</speed>
<course>341.3</course>
<desc>Speed 15.2 km/h Distance 28.27 km</desc>
<time>2011-09-29T11:24:42.78</time>
<name>4809</name>
</trkpt>
<trkpt lat="41.712222" lon="-0.687660">
<ele>463.5</ele>
<speed>15.0</speed>
<course>358.1</course>
<desc>Speed 15.0 km/h Distance 28.27 km</desc>
<time>2011-09-29T11:24:43.95</time>
<name>4810</name>
</trkpt>
<trkpt lat="41.712295" lon="-0.687663">
<ele>463.5</ele>
<speed>14.8</speed>
<course>3.5</course>
<desc>Speed 14.8 km/h Distance 28.28 km</desc>
<time>2011-09-29T11:24:45.78</time>
<name>4811</name>
</trkpt>
<trkpt lat="41.712335" lon="-0.687660">
<ele>463.5</ele>
<speed>15.2</speed>
<course>11.8</course>
<desc>Speed 15.2 km/h Distance 28.29 km</desc>
<time>2011-09-29T11:24:46.79</time>
<name>4812</name>
</trkpt>
<trkpt lat="41.712407" lon="-0.687640">
<ele>463.5</ele>
<speed>14.4</speed>
<course>15.8</course>
<desc>Speed 14.4 km/h Distance 28.29 km</desc>
<time>2011-09-29T11:24:48.77</time>
<name>4813</name>
</trkpt>
<trkpt lat="41.712442" lon="-0.687627">
<ele>464.0</ele>
<speed>14.3</speed>
<course>5.9</course>
<desc>Speed 14.3 km/h Distance 28.30 km</desc>
<time>2011-09-29T11:24:49.77</time>
<name>4814</name>
</trkpt>
<trkpt lat="41.712478" lon="-0.687622">
<ele>464.0</ele>
<speed>14.1</speed>
<course>10.1</course>
<desc>Speed 14.1 km/h Distance 28.30 km</desc>
<time>2011-09-29T11:24:50.77</time>
<name>4815</name>
</trkpt>
<trkpt lat="41.712513" lon="-0.687613">
<ele>464.5</ele>
<speed>14.0</speed>
<course>10.6</course>
<desc>Speed 14.0 km/h Distance 28.31 km</desc>
<time>2011-09-29T11:24:51.77</time>
<name>4816</name>
</trkpt>
<trkpt lat="41.712547" lon="-0.687605">
<ele>464.5</ele>
<speed>13.6</speed>
<course>6.1</course>
<desc>Speed 13.6 km/h Distance 28.31 km</desc>
<time>2011-09-29T11:24:52.77</time>
<name>4817</name>
</trkpt>
<trkpt lat="41.712582" lon="-0.687600">
<ele>464.5</ele>
<speed>13.8</speed>
<course>7.7</course>
<desc>Speed 13.8 km/h Distance 28.31 km</desc>
<time>2011-09-29T11:24:53.77</time>
<name>4818</name>
</trkpt>
<trkpt lat="41.712618" lon="-0.687593">
<ele>464.5</ele>
<speed>14.4</speed>
<course>7.7</course>
<desc>Speed 14.4 km/h Distance 28.32 km</desc>
<time>2011-09-29T11:24:54.77</time>
<name>4819</name>
</trkpt>
<trkpt lat="41.712655" lon="-0.687587">
<ele>465.0</ele>
<speed>14.8</speed>
<course>6.9</course>
<desc>Speed 14.8 km/h Distance 28.32 km</desc>
<time>2011-09-29T11:24:56.49</time>
<name>4820</name>
</trkpt>
<trkpt lat="41.712768" lon="-0.687568">
<ele>465.0</ele>
<speed>15.1</speed>
<course>5.4</course>
<desc>Speed 15.1 km/h Distance 28.33 km</desc>
<time>2011-09-29T11:24:58.77</time>
<name>4821</name>
</trkpt>
<trkpt lat="41.712807" lon="-0.687563">
<ele>465.0</ele>
<speed>15.1</speed>
<course>9.1</course>
<desc>Speed 15.1 km/h Distance 28.34 km</desc>
<time>2011-09-29T11:24:59.76</time>
<name>4822</name>
</trkpt>
<trkpt lat="41.712845" lon="-0.687555">
<ele>465.0</ele>
<speed>15.0</speed>
<course>11.4</course>
<desc>Speed 15.0 km/h Distance 28.34 km</desc>
<time>2011-09-29T11:25:00.76</time>
<name>4823</name>
</trkpt>
<trkpt lat="41.712882" lon="-0.687545">
<ele>465.0</ele>
<speed>14.9</speed>
<course>5.7</course>
<desc>Speed 14.9 km/h Distance 28.35 km</desc>
<time>2011-09-29T11:25:01.76</time>
<name>4824</name>
</trkpt>
<trkpt lat="41.712918" lon="-0.687540">
<ele>465.0</ele>
<speed>14.6</speed>
<course>7.4</course>
<desc>Speed 14.6 km/h Distance 28.35 km</desc>
<time>2011-09-29T11:25:02.76</time>
<name>4825</name>
</trkpt>
<trkpt lat="41.712957" lon="-0.687533">
<ele>465.5</ele>
<speed>14.9</speed>
<course>9.6</course>
<desc>Speed 14.9 km/h Distance 28.36 km</desc>
<time>2011-09-29T11:25:03.76</time>
<name>4826</name>
</trkpt>
<trkpt lat="41.712993" lon="-0.687525">
<ele>465.5</ele>
<speed>14.9</speed>
<course>5.4</course>
<desc>Speed 14.9 km/h Distance 28.36 km</desc>
<time>2011-09-29T11:25:04.76</time>
<name>4827</name>
</trkpt>
<trkpt lat="41.713032" lon="-0.687520">
<ele>465.0</ele>
<speed>15.4</speed>
<course>5.1</course>
<desc>Speed 15.4 km/h Distance 28.36 km</desc>
<time>2011-09-29T11:25:06.22</time>
<name>4828</name>
</trkpt>
<trkpt lat="41.713115" lon="-0.687510">
<ele>465.0</ele>
<speed>16.7</speed>
<course>9.7</course>
<desc>Speed 16.7 km/h Distance 28.37 km</desc>
<time>2011-09-29T11:25:07.76</time>
<name>4829</name>
</trkpt>
<trkpt lat="41.713158" lon="-0.687500">
<ele>465.0</ele>
<speed>17.1</speed>
<course>11.4</course>
<desc>Speed 17.1 km/h Distance 28.38 km</desc>
<time>2011-09-29T11:25:08.76</time>
<name>4830</name>
</trkpt>
<trkpt lat="41.713202" lon="-0.687488">
<ele>465.0</ele>
<speed>17.5</speed>
<course>8.5</course>
<desc>Speed 17.5 km/h Distance 28.38 km</desc>
<time>2011-09-29T11:25:09.76</time>
<name>4831</name>
</trkpt>
<trkpt lat="41.713243" lon="-0.687480">
<ele>465.0</ele>
<speed>16.8</speed>
<course>8.8</course>
<desc>Speed 16.8 km/h Distance 28.39 km</desc>
<time>2011-09-29T11:25:10.77</time>
<name>4832</name>
</trkpt>
<trkpt lat="41.713323" lon="-0.687463">
<ele>465.0</ele>
<speed>15.9</speed>
<course>11.9</course>
<desc>Speed 15.9 km/h Distance 28.40 km</desc>
<time>2011-09-29T11:25:12.76</time>
<name>4833</name>
</trkpt>
<trkpt lat="41.713400" lon="-0.687442">
<ele>465.5</ele>
<speed>15.2</speed>
<course>11.7</course>
<desc>Speed 15.2 km/h Distance 28.41 km</desc>
<time>2011-09-29T11:25:14.75</time>
<name>4834</name>
</trkpt>
<trkpt lat="41.713478" lon="-0.687420">
<ele>465.0</ele>
<speed>16.0</speed>
<course>14.0</course>
<desc>Speed 16.0 km/h Distance 28.41 km</desc>
<time>2011-09-29T11:25:16.75</time>
<name>4835</name>
</trkpt>
<trkpt lat="41.713518" lon="-0.687407">
<ele>464.5</ele>
<speed>16.4</speed>
<course>12.6</course>
<desc>Speed 16.4 km/h Distance 28.42 km</desc>
<time>2011-09-29T11:25:17.91</time>
<name>4836</name>
</trkpt>
<trkpt lat="41.713602" lon="-0.687382">
<ele>464.5</ele>
<speed>16.7</speed>
<course>20.1</course>
<desc>Speed 16.7 km/h Distance 28.43 km</desc>
<time>2011-09-29T11:25:19.75</time>
<name>4837</name>
</trkpt>
<trkpt lat="41.713683" lon="-0.687342">
<ele>464.0</ele>
<speed>17.5</speed>
<course>26.9</course>
<desc>Speed 17.5 km/h Distance 28.44 km</desc>
<time>2011-09-29T11:25:21.74</time>
<name>4838</name>
</trkpt>
<trkpt lat="41.713725" lon="-0.687313">
<ele>463.5</ele>
<speed>18.5</speed>
<course>31.9</course>
<desc>Speed 18.5 km/h Distance 28.44 km</desc>
<time>2011-09-29T11:25:22.74</time>
<name>4839</name>
</trkpt>
<trkpt lat="41.713765" lon="-0.687280">
<ele>463.5</ele>
<speed>18.8</speed>
<course>39.2</course>
<desc>Speed 18.8 km/h Distance 28.45 km</desc>
<time>2011-09-29T11:25:23.74</time>
<name>4840</name>
</trkpt>
<trkpt lat="41.713802" lon="-0.687240">
<ele>463.5</ele>
<speed>18.9</speed>
<course>41.4</course>
<desc>Speed 18.9 km/h Distance 28.45 km</desc>
<time>2011-09-29T11:25:24.74</time>
<name>4841</name>
</trkpt>
<trkpt lat="41.713838" lon="-0.687197">
<ele>463.0</ele>
<speed>19.4</speed>
<course>39.6</course>
<desc>Speed 19.4 km/h Distance 28.46 km</desc>
<time>2011-09-29T11:25:26.01</time>
<name>4842</name>
</trkpt>
<trkpt lat="41.713917" lon="-0.687110">
<ele>462.5</ele>
<speed>20.5</speed>
<course>32.3</course>
<desc>Speed 20.5 km/h Distance 28.47 km</desc>
<time>2011-09-29T11:25:27.74</time>
<name>4843</name>
</trkpt>
<trkpt lat="41.713960" lon="-0.687073">
<ele>462.0</ele>
<speed>20.7</speed>
<course>29.8</course>
<desc>Speed 20.7 km/h Distance 28.48 km</desc>
<time>2011-09-29T11:25:28.74</time>
<name>4844</name>
</trkpt>
<trkpt lat="41.714003" lon="-0.687040">
<ele>461.5</ele>
<speed>19.2</speed>
<course>26.0</course>
<desc>Speed 19.2 km/h Distance 28.48 km</desc>
<time>2011-09-29T11:25:29.74</time>
<name>4845</name>
</trkpt>
<trkpt lat="41.714047" lon="-0.687012">
<ele>461.5</ele>
<speed>19.2</speed>
<course>24.5</course>
<desc>Speed 19.2 km/h Distance 28.49 km</desc>
<time>2011-09-29T11:25:30.74</time>
<name>4846</name>
</trkpt>
<trkpt lat="41.714077" lon="-0.686993">
<ele>461.5</ele>
<speed>12.9</speed>
<course>21.9</course>
<desc>Speed 12.9 km/h Distance 28.49 km</desc>
<time>2011-09-29T11:25:31.74</time>
<name>4847</name>
</trkpt>
<trkpt lat="41.714098" lon="-0.686982">
<ele>462.0</ele>
<speed>9.1</speed>
<course>5.0</course>
<desc>Speed 9.1 km/h Distance 28.49 km</desc>
<time>2011-09-29T11:25:32.94</time>
<name>4848</name>
</trkpt>
<trkpt lat="41.714115" lon="-0.686980">
<ele>462.0</ele>
<speed>6.8</speed>
<course>0.0</course>
<desc>Speed 6.8 km/h Distance 28.50 km</desc>
<time>2011-09-29T11:25:33.73</time>
<name>4849</name>
</trkpt>
<trkpt lat="41.714133" lon="-0.686980">
<ele>462.0</ele>
<speed>7.1</speed>
<course>333.6</course>
<desc>Speed 7.1 km/h Distance 28.50 km</desc>
<time>2011-09-29T11:25:34.73</time>
<name>4850</name>
</trkpt>
<trkpt lat="41.714153" lon="-0.686993">
<ele>462.0</ele>
<speed>8.8</speed>
<course>302.5</course>
<desc>Speed 8.8 km/h Distance 28.50 km</desc>
<time>2011-09-29T11:25:35.74</time>
<name>4851</name>
</trkpt>
<trkpt lat="41.714170" lon="-0.687028">
<ele>462.0</ele>
<speed>12.0</speed>
<course>286.6</course>
<desc>Speed 12.0 km/h Distance 28.50 km</desc>
<time>2011-09-29T11:25:36.73</time>
<name>4852</name>
</trkpt>
<trkpt lat="41.714180" lon="-0.687073">
<ele>461.5</ele>
<speed>13.7</speed>
<course>279.8</course>
<desc>Speed 13.7 km/h Distance 28.51 km</desc>
<time>2011-09-29T11:25:37.73</time>
<name>4853</name>
</trkpt>
<trkpt lat="41.714187" lon="-0.687125">
<ele>461.5</ele>
<speed>15.5</speed>
<course>282.2</course>
<desc>Speed 15.5 km/h Distance 28.51 km</desc>
<time>2011-09-29T11:25:38.88</time>
<name>4854</name>
</trkpt>
<trkpt lat="41.714195" lon="-0.687177">
<ele>461.5</ele>
<speed>15.8</speed>
<course>286.8</course>
<desc>Speed 15.8 km/h Distance 28.52 km</desc>
<time>2011-09-29T11:25:39.73</time>
<name>4855</name>
</trkpt>
<trkpt lat="41.714207" lon="-0.687228">
<ele>462.0</ele>
<speed>16.1</speed>
<course>288.5</course>
<desc>Speed 16.1 km/h Distance 28.52 km</desc>
<time>2011-09-29T11:25:40.73</time>
<name>4856</name>
</trkpt>
<trkpt lat="41.714220" lon="-0.687282">
<ele>461.5</ele>
<speed>16.8</speed>
<course>285.4</course>
<desc>Speed 16.8 km/h Distance 28.53 km</desc>
<time>2011-09-29T11:25:41.73</time>
<name>4857</name>
</trkpt>
<trkpt lat="41.714232" lon="-0.687338">
<ele>461.5</ele>
<speed>17.4</speed>
<course>289.0</course>
<desc>Speed 17.4 km/h Distance 28.53 km</desc>
<time>2011-09-29T11:25:42.72</time>
<name>4858</name>
</trkpt>
<trkpt lat="41.714247" lon="-0.687397">
<ele>461.5</ele>
<speed>18.1</speed>
<course>288.0</course>
<desc>Speed 18.1 km/h Distance 28.54 km</desc>
<time>2011-09-29T11:25:43.73</time>
<name>4859</name>
</trkpt>
<trkpt lat="41.714262" lon="-0.687458">
<ele>461.5</ele>
<speed>18.9</speed>
<course>285.6</course>
<desc>Speed 18.9 km/h Distance 28.54 km</desc>
<time>2011-09-29T11:25:45.49</time>
<name>4860</name>
</trkpt>
<trkpt lat="41.714303" lon="-0.687658">
<ele>460.5</ele>
<speed>21.7</speed>
<course>287.3</course>
<desc>Speed 21.7 km/h Distance 28.56 km</desc>
<time>2011-09-29T11:25:47.72</time>
<name>4861</name>
</trkpt>
<trkpt lat="41.714320" lon="-0.687730">
<ele>460.5</ele>
<speed>22.4</speed>
<course>283.4</course>
<desc>Speed 22.4 km/h Distance 28.56 km</desc>
<time>2011-09-29T11:25:48.72</time>
<name>4862</name>
</trkpt>
<trkpt lat="41.714333" lon="-0.687805">
<ele>460.0</ele>
<speed>23.2</speed>
<course>284.4</course>
<desc>Speed 23.2 km/h Distance 28.57 km</desc>
<time>2011-09-29T11:25:49.72</time>
<name>4863</name>
</trkpt>
<trkpt lat="41.714348" lon="-0.687883">
<ele>460.0</ele>
<speed>23.9</speed>
<course>287.4</course>
<desc>Speed 23.9 km/h Distance 28.58 km</desc>
<time>2011-09-29T11:25:50.72</time>
<name>4864</name>
</trkpt>
<trkpt lat="41.714367" lon="-0.687962">
<ele>459.5</ele>
<speed>24.7</speed>
<course>285.3</course>
<desc>Speed 24.7 km/h Distance 28.58 km</desc>
<time>2011-09-29T11:25:51.72</time>
<name>4865</name>
</trkpt>
<trkpt lat="41.714383" lon="-0.688043">
<ele>459.5</ele>
<speed>25.6</speed>
<course>286.1</course>
<desc>Speed 25.6 km/h Distance 28.59 km</desc>
<time>2011-09-29T11:25:52.72</time>
<name>4866</name>
</trkpt>
<trkpt lat="41.714402" lon="-0.688128">
<ele>459.0</ele>
<speed>26.3</speed>
<course>285.8</course>
<desc>Speed 26.3 km/h Distance 28.60 km</desc>
<time>2011-09-29T11:25:53.72</time>
<name>4867</name>
</trkpt>
<trkpt lat="41.714420" lon="-0.688215">
<ele>458.5</ele>
<speed>27.1</speed>
<course>286.4</course>
<desc>Speed 27.1 km/h Distance 28.61 km</desc>
<time>2011-09-29T11:25:55.25</time>
<name>4868</name>
</trkpt>
<trkpt lat="41.714480" lon="-0.688488">
<ele>457.5</ele>
<speed>29.0</speed>
<course>285.7</course>
<desc>Speed 29.0 km/h Distance 28.63 km</desc>
<time>2011-09-29T11:25:57.72</time>
<name>4869</name>
</trkpt>
<trkpt lat="41.714500" lon="-0.688583">
<ele>457.0</ele>
<speed>29.4</speed>
<course>286.7</course>
<desc>Speed 29.4 km/h Distance 28.64 km</desc>
<time>2011-09-29T11:25:58.73</time>
<name>4870</name>
</trkpt>
<trkpt lat="41.714522" lon="-0.688680">
<ele>456.5</ele>
<speed>30.1</speed>
<course>281.4</course>
<desc>Speed 30.1 km/h Distance 28.65 km</desc>
<time>2011-09-29T11:25:59.72</time>
<name>4871</name>
</trkpt>
<trkpt lat="41.714537" lon="-0.688780">
<ele>456.5</ele>
<speed>30.7</speed>
<course>285.0</course>
<desc>Speed 30.7 km/h Distance 28.66 km</desc>
<time>2011-09-29T11:26:00.71</time>
<name>4872</name>
</trkpt>
<trkpt lat="41.714557" lon="-0.688880">
<ele>456.0</ele>
<speed>31.2</speed>
<course>286.8</course>
<desc>Speed 31.2 km/h Distance 28.66 km</desc>
<time>2011-09-29T11:26:01.72</time>
<name>4873</name>
</trkpt>
<trkpt lat="41.714580" lon="-0.688983">
<ele>455.5</ele>
<speed>32.0</speed>
<course>285.5</course>
<desc>Speed 32.0 km/h Distance 28.67 km</desc>
<time>2011-09-29T11:26:02.71</time>
<name>4874</name>
</trkpt>
<trkpt lat="41.714602" lon="-0.689088">
<ele>455.0</ele>
<speed>32.7</speed>
<course>285.2</course>
<desc>Speed 32.7 km/h Distance 28.68 km</desc>
<time>2011-09-29T11:26:03.74</time>
<name>4875</name>
</trkpt>
<trkpt lat="41.714623" lon="-0.689195">
<ele>454.5</ele>
<speed>33.3</speed>
<course>284.3</course>
<desc>Speed 33.3 km/h Distance 28.69 km</desc>
<time>2011-09-29T11:26:05.04</time>
<name>4876</name>
</trkpt>
<trkpt lat="41.714665" lon="-0.689413">
<ele>454.0</ele>
<speed>33.8</speed>
<course>289.3</course>
<desc>Speed 33.8 km/h Distance 28.71 km</desc>
<time>2011-09-29T11:26:06.71</time>
<name>4877</name>
</trkpt>
<trkpt lat="41.714693" lon="-0.689522">
<ele>454.0</ele>
<speed>34.2</speed>
<course>287.2</course>
<desc>Speed 34.2 km/h Distance 28.72 km</desc>
<time>2011-09-29T11:26:07.71</time>
<name>4878</name>
</trkpt>
<trkpt lat="41.714718" lon="-0.689630">
<ele>453.5</ele>
<speed>34.5</speed>
<course>286.7</course>
<desc>Speed 34.5 km/h Distance 28.73 km</desc>
<time>2011-09-29T11:26:08.71</time>
<name>4879</name>
</trkpt>
<trkpt lat="41.714743" lon="-0.689742">
<ele>453.0</ele>
<speed>34.6</speed>
<course>285.6</course>
<desc>Speed 34.6 km/h Distance 28.74 km</desc>
<time>2011-09-29T11:26:09.71</time>
<name>4880</name>
</trkpt>
<trkpt lat="41.714767" lon="-0.689853">
<ele>453.0</ele>
<speed>34.8</speed>
<course>286.9</course>
<desc>Speed 34.8 km/h Distance 28.75 km</desc>
<time>2011-09-29T11:26:10.71</time>
<name>4881</name>
</trkpt>
<trkpt lat="41.714792" lon="-0.689963">
<ele>452.5</ele>
<speed>34.8</speed>
<course>286.1</course>
<desc>Speed 34.8 km/h Distance 28.76 km</desc>
<time>2011-09-29T11:26:11.97</time>
<name>4882</name>
</trkpt>
<trkpt lat="41.714840" lon="-0.690188">
<ele>451.5</ele>
<speed>35.0</speed>
<course>286.5</course>
<desc>Speed 35.0 km/h Distance 28.78 km</desc>
<time>2011-09-29T11:26:13.71</time>
<name>4883</name>
</trkpt>
<trkpt lat="41.714865" lon="-0.690302">
<ele>451.5</ele>
<speed>35.3</speed>
<course>286.2</course>
<desc>Speed 35.3 km/h Distance 28.79 km</desc>
<time>2011-09-29T11:26:14.78</time>
<name>4884</name>
</trkpt>
<trkpt lat="41.714890" lon="-0.690417">
<ele>451.5</ele>
<speed>35.3</speed>
<course>287.5</course>
<desc>Speed 35.3 km/h Distance 28.80 km</desc>
<time>2011-09-29T11:26:15.71</time>
<name>4885</name>
</trkpt>
<trkpt lat="41.714917" lon="-0.690530">
<ele>451.0</ele>
<speed>35.6</speed>
<course>286.2</course>
<desc>Speed 35.6 km/h Distance 28.81 km</desc>
<time>2011-09-29T11:26:16.71</time>
<name>4886</name>
</trkpt>
<trkpt lat="41.714942" lon="-0.690645">
<ele>451.0</ele>
<speed>36.0</speed>
<course>286.0</course>
<desc>Speed 36.0 km/h Distance 28.82 km</desc>
<time>2011-09-29T11:26:17.71</time>
<name>4887</name>
</trkpt>
<trkpt lat="41.714967" lon="-0.690762">
<ele>450.5</ele>
<speed>36.1</speed>
<course>285.0</course>
<desc>Speed 36.1 km/h Distance 28.83 km</desc>
<time>2011-09-29T11:26:18.70</time>
<name>4888</name>
</trkpt>
<trkpt lat="41.714990" lon="-0.690878">
<ele>450.0</ele>
<speed>36.3</speed>
<course>286.0</course>
<desc>Speed 36.3 km/h Distance 28.84 km</desc>
<time>2011-09-29T11:26:19.71</time>
<name>4889</name>
</trkpt>
<trkpt lat="41.715015" lon="-0.690995">
<ele>450.0</ele>
<speed>36.3</speed>
<course>288.0</course>
<desc>Speed 36.3 km/h Distance 28.85 km</desc>
<time>2011-09-29T11:26:20.70</time>
<name>4890</name>
</trkpt>
<trkpt lat="41.715043" lon="-0.691112">
<ele>449.5</ele>
<speed>36.4</speed>
<course>285.0</course>
<desc>Speed 36.4 km/h Distance 28.86 km</desc>
<time>2011-09-29T11:26:21.72</time>
<name>4891</name>
</trkpt>
<trkpt lat="41.715067" lon="-0.691228">
<ele>449.5</ele>
<speed>36.4</speed>
<course>286.0</course>
<desc>Speed 36.4 km/h Distance 28.87 km</desc>
<time>2011-09-29T11:26:22.70</time>
<name>4892</name>
</trkpt>
<trkpt lat="41.715092" lon="-0.691345">
<ele>449.0</ele>
<speed>36.4</speed>
<course>285.0</course>
<desc>Speed 36.4 km/h Distance 28.88 km</desc>
<time>2011-09-29T11:26:23.70</time>
<name>4893</name>
</trkpt>
<trkpt lat="41.715115" lon="-0.691462">
<ele>448.5</ele>
<speed>36.4</speed>
<course>286.0</course>
<desc>Speed 36.4 km/h Distance 28.89 km</desc>
<time>2011-09-29T11:26:24.70</time>
<name>4894</name>
</trkpt>
<trkpt lat="41.715140" lon="-0.691578">
<ele>448.5</ele>
<speed>36.3</speed>
<course>285.0</course>
<desc>Speed 36.3 km/h Distance 28.90 km</desc>
<time>2011-09-29T11:26:25.70</time>
<name>4895</name>
</trkpt>
<trkpt lat="41.715163" lon="-0.691695">
<ele>448.0</ele>
<speed>36.3</speed>
<course>287.0</course>
<desc>Speed 36.3 km/h Distance 28.91 km</desc>
<time>2011-09-29T11:26:26.70</time>
<name>4896</name>
</trkpt>
<trkpt lat="41.715190" lon="-0.691812">
<ele>447.5</ele>
<speed>36.4</speed>
<course>285.8</course>
<desc>Speed 36.4 km/h Distance 28.92 km</desc>
<time>2011-09-29T11:26:27.70</time>
<name>4897</name>
</trkpt>
<trkpt lat="41.715215" lon="-0.691930">
<ele>447.5</ele>
<speed>36.6</speed>
<course>286.0</course>
<desc>Speed 36.6 km/h Distance 28.93 km</desc>
<time>2011-09-29T11:26:28.70</time>
<name>4898</name>
</trkpt>
<trkpt lat="41.715240" lon="-0.692047">
<ele>447.0</ele>
<speed>36.3</speed>
<course>287.3</course>
<desc>Speed 36.3 km/h Distance 28.94 km</desc>
<time>2011-09-29T11:26:29.70</time>
<name>4899</name>
</trkpt>
<trkpt lat="41.715267" lon="-0.692162">
<ele>447.0</ele>
<speed>35.9</speed>
<course>285.4</course>
<desc>Speed 35.9 km/h Distance 28.95 km</desc>
<time>2011-09-29T11:26:30.69</time>
<name>4900</name>
</trkpt>
<trkpt lat="41.715290" lon="-0.692275">
<ele>447.0</ele>
<speed>35.4</speed>
<course>286.7</course>
<desc>Speed 35.4 km/h Distance 28.96 km</desc>
<time>2011-09-29T11:26:31.69</time>
<name>4901</name>
</trkpt>
<trkpt lat="41.715315" lon="-0.692387">
<ele>447.0</ele>
<speed>34.8</speed>
<course>286.1</course>
<desc>Speed 34.8 km/h Distance 28.97 km</desc>
<time>2011-09-29T11:26:32.70</time>
<name>4902</name>
</trkpt>
<trkpt lat="41.715385" lon="-0.692712">
<ele>446.5</ele>
<speed>33.6</speed>
<course>285.6</course>
<desc>Speed 33.6 km/h Distance 29.00 km</desc>
<time>2011-09-29T11:26:35.69</time>
<name>4903</name>
</trkpt>
<trkpt lat="41.715408" lon="-0.692823">
<ele>446.0</ele>
<speed>34.5</speed>
<course>287.7</course>
<desc>Speed 34.5 km/h Distance 29.00 km</desc>
<time>2011-09-29T11:26:36.69</time>
<name>4904</name>
</trkpt>
<trkpt lat="41.715435" lon="-0.692935">
<ele>446.0</ele>
<speed>35.3</speed>
<course>286.5</course>
<desc>Speed 35.3 km/h Distance 29.01 km</desc>
<time>2011-09-29T11:26:37.69</time>
<name>4905</name>
</trkpt>
<trkpt lat="41.715460" lon="-0.693048">
<ele>446.0</ele>
<speed>35.3</speed>
<course>286.5</course>
<desc>Speed 35.3 km/h Distance 29.02 km</desc>
<time>2011-09-29T11:26:38.69</time>
<name>4906</name>
</trkpt>
<trkpt lat="41.715485" lon="-0.693162">
<ele>446.0</ele>
<speed>34.8</speed>
<course>285.6</course>
<desc>Speed 34.8 km/h Distance 29.03 km</desc>
<time>2011-09-29T11:26:39.69</time>
<name>4907</name>
</trkpt>
<trkpt lat="41.715508" lon="-0.693273">
<ele>446.0</ele>
<speed>34.8</speed>
<course>285.6</course>
<desc>Speed 34.8 km/h Distance 29.04 km</desc>
<time>2011-09-29T11:26:40.69</time>
<name>4908</name>
</trkpt>
<trkpt lat="41.715532" lon="-0.693385">
<ele>446.0</ele>
<speed>34.8</speed>
<course>286.9</course>
<desc>Speed 34.8 km/h Distance 29.05 km</desc>
<time>2011-09-29T11:26:41.69</time>
<name>4909</name>
</trkpt>
<trkpt lat="41.715557" lon="-0.693495">
<ele>446.0</ele>
<speed>34.5</speed>
<course>286.9</course>
<desc>Speed 34.5 km/h Distance 29.06 km</desc>
<time>2011-09-29T11:26:42.69</time>
<name>4910</name>
</trkpt>
<trkpt lat="41.715582" lon="-0.693605">
<ele>445.5</ele>
<speed>34.3</speed>
<course>286.0</course>
<desc>Speed 34.3 km/h Distance 29.07 km</desc>
<time>2011-09-29T11:26:44.02</time>
<name>4911</name>
</trkpt>
<trkpt lat="41.715628" lon="-0.693823">
<ele>445.5</ele>
<speed>33.9</speed>
<course>286.1</course>
<desc>Speed 33.9 km/h Distance 29.09 km</desc>
<time>2011-09-29T11:26:45.68</time>
<name>4912</name>
</trkpt>
<trkpt lat="41.715652" lon="-0.693932">
<ele>445.5</ele>
<speed>33.8</speed>
<course>286.1</course>
<desc>Speed 33.8 km/h Distance 29.10 km</desc>
<time>2011-09-29T11:26:46.70</time>
<name>4913</name>
</trkpt>
<trkpt lat="41.715675" lon="-0.694040">
<ele>445.5</ele>
<speed>33.4</speed>
<course>286.3</course>
<desc>Speed 33.4 km/h Distance 29.11 km</desc>
<time>2011-09-29T11:26:47.80</time>
<name>4914</name>
</trkpt>
<trkpt lat="41.715698" lon="-0.694147">
<ele>445.0</ele>
<speed>33.6</speed>
<course>287.2</course>
<desc>Speed 33.6 km/h Distance 29.12 km</desc>
<time>2011-09-29T11:26:48.68</time>
<name>4915</name>
</trkpt>
<trkpt lat="41.715723" lon="-0.694255">
<ele>445.0</ele>
<speed>33.8</speed>
<course>286.1</course>
<desc>Speed 33.8 km/h Distance 29.13 km</desc>
<time>2011-09-29T11:26:49.68</time>
<name>4916</name>
</trkpt>
<trkpt lat="41.715747" lon="-0.694363">
<ele>444.5</ele>
<speed>34.1</speed>
<course>287.6</course>
<desc>Speed 34.1 km/h Distance 29.14 km</desc>
<time>2011-09-29T11:26:50.97</time>
<name>4917</name>
</trkpt>
<trkpt lat="41.715798" lon="-0.694582">
<ele>444.5</ele>
<speed>33.9</speed>
<course>286.1</course>
<desc>Speed 33.9 km/h Distance 29.16 km</desc>
<time>2011-09-29T11:26:52.68</time>
<name>4918</name>
</trkpt>
<trkpt lat="41.715822" lon="-0.694690">
<ele>444.5</ele>
<speed>33.9</speed>
<course>286.9</course>
<desc>Speed 33.9 km/h Distance 29.17 km</desc>
<time>2011-09-29T11:26:53.77</time>
<name>4919</name>
</trkpt>
<trkpt lat="41.715847" lon="-0.694800">
<ele>444.5</ele>
<speed>33.9</speed>
<course>285.0</course>
<desc>Speed 33.9 km/h Distance 29.18 km</desc>
<time>2011-09-29T11:26:54.68</time>
<name>4920</name>
</trkpt>
<trkpt lat="41.715868" lon="-0.694908">
<ele>444.5</ele>
<speed>33.9</speed>
<course>284.8</course>
<desc>Speed 33.9 km/h Distance 29.19 km</desc>
<time>2011-09-29T11:26:55.68</time>
<name>4921</name>
</trkpt>
<trkpt lat="41.715890" lon="-0.695018">
<ele>444.5</ele>
<speed>33.6</speed>
<course>282.8</course>
<desc>Speed 33.6 km/h Distance 29.19 km</desc>
<time>2011-09-29T11:26:56.68</time>
<name>4922</name>
</trkpt>
<trkpt lat="41.715908" lon="-0.695127">
<ele>444.5</ele>
<speed>33.4</speed>
<course>280.4</course>
<desc>Speed 33.4 km/h Distance 29.20 km</desc>
<time>2011-09-29T11:26:57.67</time>
<name>4923</name>
</trkpt>
<trkpt lat="41.715923" lon="-0.695237">
<ele>444.5</ele>
<speed>33.4</speed>
<course>279.2</course>
<desc>Speed 33.4 km/h Distance 29.21 km</desc>
<time>2011-09-29T11:26:58.67</time>
<name>4924</name>
</trkpt>
<trkpt lat="41.715937" lon="-0.695347">
<ele>444.5</ele>
<speed>33.4</speed>
<course>275.7</course>
<desc>Speed 33.4 km/h Distance 29.22 km</desc>
<time>2011-09-29T11:26:59.67</time>
<name>4925</name>
</trkpt>
<trkpt lat="41.715945" lon="-0.695458">
<ele>444.5</ele>
<speed>33.6</speed>
<course>276.7</course>
<desc>Speed 33.6 km/h Distance 29.23 km</desc>
<time>2011-09-29T11:27:00.70</time>
<name>4926</name>
</trkpt>
<trkpt lat="41.715955" lon="-0.695572">
<ele>444.5</ele>
<speed>33.8</speed>
<course>275.8</course>
<desc>Speed 33.8 km/h Distance 29.24 km</desc>
<time>2011-09-29T11:27:01.67</time>
<name>4927</name>
</trkpt>
<trkpt lat="41.715963" lon="-0.695682">
<ele>444.0</ele>
<speed>33.5</speed>
<course>273.4</course>
<desc>Speed 33.5 km/h Distance 29.25 km</desc>
<time>2011-09-29T11:27:02.67</time>
<name>4928</name>
</trkpt>
<trkpt lat="41.715968" lon="-0.695793">
<ele>444.0</ele>
<speed>33.4</speed>
<course>273.4</course>
<desc>Speed 33.4 km/h Distance 29.26 km</desc>
<time>2011-09-29T11:27:03.67</time>
<name>4929</name>
</trkpt>
<trkpt lat="41.715973" lon="-0.695907">
<ele>444.0</ele>
<speed>33.5</speed>
<course>273.5</course>
<desc>Speed 33.5 km/h Distance 29.27 km</desc>
<time>2011-09-29T11:27:04.67</time>
<name>4930</name>
</trkpt>
<trkpt lat="41.715978" lon="-0.696017">
<ele>443.5</ele>
<speed>33.4</speed>
<course>274.6</course>
<desc>Speed 33.4 km/h Distance 29.28 km</desc>
<time>2011-09-29T11:27:05.67</time>
<name>4931</name>
</trkpt>
<trkpt lat="41.715985" lon="-0.696128">
<ele>443.5</ele>
<speed>33.3</speed>
<course>275.7</course>
<desc>Speed 33.3 km/h Distance 29.29 km</desc>
<time>2011-09-29T11:27:06.67</time>
<name>4932</name>
</trkpt>
<trkpt lat="41.715993" lon="-0.696240">
<ele>443.5</ele>
<speed>33.3</speed>
<course>273.5</course>
<desc>Speed 33.3 km/h Distance 29.30 km</desc>
<time>2011-09-29T11:27:07.67</time>
<name>4933</name>
</trkpt>
<trkpt lat="41.715998" lon="-0.696350">
<ele>443.5</ele>
<speed>33.4</speed>
<course>275.8</course>
<desc>Speed 33.4 km/h Distance 29.31 km</desc>
<time>2011-09-29T11:27:08.67</time>
<name>4934</name>
</trkpt>
<trkpt lat="41.716007" lon="-0.696460">
<ele>443.5</ele>
<speed>33.2</speed>
<course>274.6</course>
<desc>Speed 33.2 km/h Distance 29.32 km</desc>
<time>2011-09-29T11:27:09.66</time>
<name>4935</name>
</trkpt>
<trkpt lat="41.716013" lon="-0.696572">
<ele>443.0</ele>
<speed>33.1</speed>
<course>274.6</course>
<desc>Speed 33.1 km/h Distance 29.32 km</desc>
<time>2011-09-29T11:27:10.66</time>
<name>4936</name>
</trkpt>
<trkpt lat="41.716020" lon="-0.696682">
<ele>443.0</ele>
<speed>33.3</speed>
<course>274.6</course>
<desc>Speed 33.3 km/h Distance 29.33 km</desc>
<time>2011-09-29T11:27:11.67</time>
<name>4937</name>
</trkpt>
<trkpt lat="41.716040" lon="-0.697018">
<ele>442.0</ele>
<speed>34.1</speed>
<course>273.3</course>
<desc>Speed 34.1 km/h Distance 29.36 km</desc>
<time>2011-09-29T11:27:14.66</time>
<name>4938</name>
</trkpt>
<trkpt lat="41.716045" lon="-0.697133">
<ele>441.5</ele>
<speed>34.4</speed>
<course>274.4</course>
<desc>Speed 34.4 km/h Distance 29.37 km</desc>
<time>2011-09-29T11:27:15.66</time>
<name>4939</name>
</trkpt>
<trkpt lat="41.716052" lon="-0.697248">
<ele>441.0</ele>
<speed>34.6</speed>
<course>274.4</course>
<desc>Speed 34.6 km/h Distance 29.38 km</desc>
<time>2011-09-29T11:27:16.66</time>
<name>4940</name>
</trkpt>
<trkpt lat="41.716058" lon="-0.697365">
<ele>441.0</ele>
<speed>35.0</speed>
<course>274.3</course>
<desc>Speed 35.0 km/h Distance 29.39 km</desc>
<time>2011-09-29T11:27:17.66</time>
<name>4941</name>
</trkpt>
<trkpt lat="41.716065" lon="-0.697483">
<ele>440.5</ele>
<speed>35.2</speed>
<course>274.4</course>
<desc>Speed 35.2 km/h Distance 29.40 km</desc>
<time>2011-09-29T11:27:18.66</time>
<name>4942</name>
</trkpt>
<trkpt lat="41.716072" lon="-0.697600">
<ele>440.0</ele>
<speed>35.4</speed>
<course>275.3</course>
<desc>Speed 35.4 km/h Distance 29.41 km</desc>
<time>2011-09-29T11:27:19.67</time>
<name>4943</name>
</trkpt>
<trkpt lat="41.716080" lon="-0.697720">
<ele>440.0</ele>
<speed>35.7</speed>
<course>273.2</course>
<desc>Speed 35.7 km/h Distance 29.42 km</desc>
<time>2011-09-29T11:27:20.66</time>
<name>4944</name>
</trkpt>
<trkpt lat="41.716085" lon="-0.697838">
<ele>439.5</ele>
<speed>35.9</speed>
<course>273.2</course>
<desc>Speed 35.9 km/h Distance 29.43 km</desc>
<time>2011-09-29T11:27:21.66</time>
<name>4945</name>
</trkpt>
<trkpt lat="41.716090" lon="-0.697960">
<ele>439.0</ele>
<speed>36.4</speed>
<course>273.7</course>
<desc>Speed 36.4 km/h Distance 29.44 km</desc>
<time>2011-09-29T11:27:23.05</time>
<name>4946</name>
</trkpt>
<trkpt lat="41.716102" lon="-0.698203">
<ele>438.5</ele>
<speed>36.5</speed>
<course>276.3</course>
<desc>Speed 36.5 km/h Distance 29.46 km</desc>
<time>2011-09-29T11:27:24.66</time>
<name>4947</name>
</trkpt>
<trkpt lat="41.716112" lon="-0.698325">
<ele>438.0</ele>
<speed>36.6</speed>
<course>274.8</course>
<desc>Speed 36.6 km/h Distance 29.47 km</desc>
<time>2011-09-29T11:27:25.66</time>
<name>4948</name>
</trkpt>
<trkpt lat="41.716135" lon="-0.698695">
<ele>437.0</ele>
<speed>37.2</speed>
<course>275.2</course>
<desc>Speed 37.2 km/h Distance 29.50 km</desc>
<time>2011-09-29T11:27:28.66</time>
<name>4949</name>
</trkpt>
<trkpt lat="41.716143" lon="-0.698818">
<ele>437.0</ele>
<speed>37.3</speed>
<course>274.8</course>
<desc>Speed 37.3 km/h Distance 29.51 km</desc>
<time>2011-09-29T11:27:29.91</time>
<name>4950</name>
</trkpt>
<trkpt lat="41.716158" lon="-0.699057">
<ele>436.5</ele>
<speed>35.6</speed>
<course>273.3</course>
<desc>Speed 35.6 km/h Distance 29.53 km</desc>
<time>2011-09-29T11:27:31.65</time>
<name>4951</name>
</trkpt>
<trkpt lat="41.716163" lon="-0.699173">
<ele>436.5</ele>
<speed>34.8</speed>
<course>274.6</course>
<desc>Speed 34.8 km/h Distance 29.54 km</desc>
<time>2011-09-29T11:27:32.68</time>
<name>4952</name>
</trkpt>
<trkpt lat="41.716170" lon="-0.699285">
<ele>437.0</ele>
<speed>33.8</speed>
<course>273.5</course>
<desc>Speed 33.8 km/h Distance 29.55 km</desc>
<time>2011-09-29T11:27:33.65</time>
<name>4953</name>
</trkpt>
<trkpt lat="41.716175" lon="-0.699395">
<ele>437.0</ele>
<speed>32.7</speed>
<course>274.9</course>
<desc>Speed 32.7 km/h Distance 29.56 km</desc>
<time>2011-09-29T11:27:34.65</time>
<name>4954</name>
</trkpt>
<trkpt lat="41.716182" lon="-0.699500">
<ele>437.0</ele>
<speed>31.8</speed>
<course>272.4</course>
<desc>Speed 31.8 km/h Distance 29.57 km</desc>
<time>2011-09-29T11:27:35.65</time>
<name>4955</name>
</trkpt>
<trkpt lat="41.716185" lon="-0.699605">
<ele>437.0</ele>
<speed>31.2</speed>
<course>275.0</course>
<desc>Speed 31.2 km/h Distance 29.58 km</desc>
<time>2011-09-29T11:27:36.65</time>
<name>4956</name>
</trkpt>
<trkpt lat="41.716192" lon="-0.699707">
<ele>437.0</ele>
<speed>30.9</speed>
<course>275.0</course>
<desc>Speed 30.9 km/h Distance 29.59 km</desc>
<time>2011-09-29T11:27:37.65</time>
<name>4957</name>
</trkpt>
<trkpt lat="41.716198" lon="-0.699808">
<ele>437.0</ele>
<speed>30.5</speed>
<course>275.0</course>
<desc>Speed 30.5 km/h Distance 29.59 km</desc>
<time>2011-09-29T11:27:38.65</time>
<name>4958</name>
</trkpt>
<trkpt lat="41.716205" lon="-0.699910">
<ele>437.0</ele>
<speed>30.1</speed>
<course>273.8</course>
<desc>Speed 30.1 km/h Distance 29.60 km</desc>
<time>2011-09-29T11:27:39.65</time>
<name>4959</name>
</trkpt>
<trkpt lat="41.716210" lon="-0.700010">
<ele>437.0</ele>
<speed>30.0</speed>
<course>274.7</course>
<desc>Speed 30.0 km/h Distance 29.61 km</desc>
<time>2011-09-29T11:27:40.65</time>
<name>4960</name>
</trkpt>
<trkpt lat="41.716228" lon="-0.700307">
<ele>437.0</ele>
<speed>29.6</speed>
<course>275.2</course>
<desc>Speed 29.6 km/h Distance 29.64 km</desc>
<time>2011-09-29T11:27:43.64</time>
<name>4961</name>
</trkpt>
<trkpt lat="41.716235" lon="-0.700405">
<ele>437.0</ele>
<speed>29.4</speed>
<course>275.3</course>
<desc>Speed 29.4 km/h Distance 29.64 km</desc>
<time>2011-09-29T11:27:44.64</time>
<name>4962</name>
</trkpt>
<trkpt lat="41.716242" lon="-0.700502">
<ele>437.0</ele>
<speed>29.2</speed>
<course>273.9</course>
<desc>Speed 29.2 km/h Distance 29.65 km</desc>
<time>2011-09-29T11:27:45.96</time>
<name>4963</name>
</trkpt>
<trkpt lat="41.716252" lon="-0.700698">
<ele>437.5</ele>
<speed>29.6</speed>
<course>273.9</course>
<desc>Speed 29.6 km/h Distance 29.67 km</desc>
<time>2011-09-29T11:27:47.64</time>
<name>4964</name>
</trkpt>
<trkpt lat="41.716257" lon="-0.700797">
<ele>437.5</ele>
<speed>29.6</speed>
<course>275.2</course>
<desc>Speed 29.6 km/h Distance 29.68 km</desc>
<time>2011-09-29T11:27:48.65</time>
<name>4965</name>
</trkpt>
<trkpt lat="41.716263" lon="-0.700895">
<ele>437.5</ele>
<speed>29.6</speed>
<course>276.6</course>
<desc>Speed 29.6 km/h Distance 29.69 km</desc>
<time>2011-09-29T11:27:49.76</time>
<name>4966</name>
</trkpt>
<trkpt lat="41.716272" lon="-0.700992">
<ele>438.0</ele>
<speed>29.3</speed>
<course>274.0</course>
<desc>Speed 29.3 km/h Distance 29.69 km</desc>
<time>2011-09-29T11:27:50.64</time>
<name>4967</name>
</trkpt>
<trkpt lat="41.716277" lon="-0.701088">
<ele>438.0</ele>
<speed>29.0</speed>
<course>275.3</course>
<desc>Speed 29.0 km/h Distance 29.70 km</desc>
<time>2011-09-29T11:27:51.64</time>
<name>4968</name>
</trkpt>
<trkpt lat="41.716283" lon="-0.701185">
<ele>438.0</ele>
<speed>28.7</speed>
<course>274.0</course>
<desc>Speed 28.7 km/h Distance 29.71 km</desc>
<time>2011-09-29T11:27:52.64</time>
<name>4969</name>
</trkpt>
<trkpt lat="41.716288" lon="-0.701280">
<ele>438.5</ele>
<speed>28.5</speed>
<course>274.1</course>
<desc>Speed 28.5 km/h Distance 29.72 km</desc>
<time>2011-09-29T11:27:53.64</time>
<name>4970</name>
</trkpt>
<trkpt lat="41.716293" lon="-0.701373">
<ele>438.5</ele>
<speed>28.1</speed>
<course>274.1</course>
<desc>Speed 28.1 km/h Distance 29.73 km</desc>
<time>2011-09-29T11:27:54.64</time>
<name>4971</name>
</trkpt>
<trkpt lat="41.716298" lon="-0.701467">
<ele>438.5</ele>
<speed>27.7</speed>
<course>274.2</course>
<desc>Speed 27.7 km/h Distance 29.73 km</desc>
<time>2011-09-29T11:27:55.64</time>
<name>4972</name>
</trkpt>
<trkpt lat="41.716303" lon="-0.701558">
<ele>438.5</ele>
<speed>27.6</speed>
<course>274.3</course>
<desc>Speed 27.6 km/h Distance 29.74 km</desc>
<time>2011-09-29T11:27:56.64</time>
<name>4973</name>
</trkpt>
<trkpt lat="41.716308" lon="-0.701648">
<ele>438.5</ele>
<speed>27.3</speed>
<course>275.6</course>
<desc>Speed 27.3 km/h Distance 29.75 km</desc>
<time>2011-09-29T11:27:57.64</time>
<name>4974</name>
</trkpt>
<trkpt lat="41.716315" lon="-0.701740">
<ele>438.5</ele>
<speed>27.4</speed>
<course>275.7</course>
<desc>Speed 27.4 km/h Distance 29.76 km</desc>
<time>2011-09-29T11:27:58.64</time>
<name>4975</name>
</trkpt>
<trkpt lat="41.716322" lon="-0.701830">
<ele>438.5</ele>
<speed>27.4</speed>
<course>274.2</course>
<desc>Speed 27.4 km/h Distance 29.76 km</desc>
<time>2011-09-29T11:27:59.64</time>
<name>4976</name>
</trkpt>
<trkpt lat="41.716327" lon="-0.701922">
<ele>438.5</ele>
<speed>27.5</speed>
<course>275.6</course>
<desc>Speed 27.5 km/h Distance 29.77 km</desc>
<time>2011-09-29T11:28:00.64</time>
<name>4977</name>
</trkpt>
<trkpt lat="41.716333" lon="-0.702013">
<ele>439.0</ele>
<speed>27.4</speed>
<course>275.6</course>
<desc>Speed 27.4 km/h Distance 29.78 km</desc>
<time>2011-09-29T11:28:02.34</time>
<name>4978</name>
</trkpt>
<trkpt lat="41.716353" lon="-0.702287">
<ele>439.0</ele>
<speed>27.4</speed>
<course>274.3</course>
<desc>Speed 27.4 km/h Distance 29.80 km</desc>
<time>2011-09-29T11:28:04.63</time>
<name>4979</name>
</trkpt>
<trkpt lat="41.716358" lon="-0.702377">
<ele>439.0</ele>
<speed>27.0</speed>
<course>275.8</course>
<desc>Speed 27.0 km/h Distance 29.81 km</desc>
<time>2011-09-29T11:28:05.82</time>
<name>4980</name>
</trkpt>
<trkpt lat="41.716365" lon="-0.702465">
<ele>439.0</ele>
<speed>26.7</speed>
<course>272.9</course>
<desc>Speed 26.7 km/h Distance 29.82 km</desc>
<time>2011-09-29T11:28:06.63</time>
<name>4981</name>
</trkpt>
<trkpt lat="41.716368" lon="-0.702552">
<ele>439.0</ele>
<speed>25.9</speed>
<course>273.1</course>
<desc>Speed 25.9 km/h Distance 29.82 km</desc>
<time>2011-09-29T11:28:07.63</time>
<name>4982</name>
</trkpt>
<trkpt lat="41.716372" lon="-0.702633">
<ele>439.0</ele>
<speed>25.0</speed>
<course>277.9</course>
<desc>Speed 25.0 km/h Distance 29.83 km</desc>
<time>2011-09-29T11:28:08.63</time>
<name>4983</name>
</trkpt>
<trkpt lat="41.716380" lon="-0.702713">
<ele>439.0</ele>
<speed>23.7</speed>
<course>276.5</course>
<desc>Speed 23.7 km/h Distance 29.84 km</desc>
<time>2011-09-29T11:28:09.63</time>
<name>4984</name>
</trkpt>
<trkpt lat="41.716387" lon="-0.702792">
<ele>439.0</ele>
<speed>23.7</speed>
<course>273.3</course>
<desc>Speed 23.7 km/h Distance 29.84 km</desc>
<time>2011-09-29T11:28:10.63</time>
<name>4985</name>
</trkpt>
<trkpt lat="41.716390" lon="-0.702868">
<ele>439.0</ele>
<speed>23.0</speed>
<course>271.8</course>
<desc>Speed 23.0 km/h Distance 29.85 km</desc>
<time>2011-09-29T11:28:12.14</time>
<name>4986</name>
</trkpt>
<trkpt lat="41.716393" lon="-0.703013">
<ele>439.0</ele>
<speed>21.3</speed>
<course>279.5</course>
<desc>Speed 21.3 km/h Distance 29.86 km</desc>
<time>2011-09-29T11:28:13.63</time>
<name>4987</name>
</trkpt>
<trkpt lat="41.716402" lon="-0.703080">
<ele>439.0</ele>
<speed>20.4</speed>
<course>289.9</course>
<desc>Speed 20.4 km/h Distance 29.87 km</desc>
<time>2011-09-29T11:28:14.63</time>
<name>4988</name>
</trkpt>
<trkpt lat="41.716418" lon="-0.703142">
<ele>439.0</ele>
<speed>19.9</speed>
<course>299.6</course>
<desc>Speed 19.9 km/h Distance 29.87 km</desc>
<time>2011-09-29T11:28:15.63</time>
<name>4989</name>
</trkpt>
<trkpt lat="41.716442" lon="-0.703197">
<ele>439.0</ele>
<speed>19.1</speed>
<course>303.8</course>
<desc>Speed 19.1 km/h Distance 29.88 km</desc>
<time>2011-09-29T11:28:16.62</time>
<name>4990</name>
</trkpt>
<trkpt lat="41.716467" lon="-0.703247">
<ele>439.5</ele>
<speed>17.7</speed>
<course>305.8</course>
<desc>Speed 17.7 km/h Distance 29.88 km</desc>
<time>2011-09-29T11:28:17.63</time>
<name>4991</name>
</trkpt>
<trkpt lat="41.716490" lon="-0.703290">
<ele>439.5</ele>
<speed>16.1</speed>
<course>307.1</course>
<desc>Speed 16.1 km/h Distance 29.89 km</desc>
<time>2011-09-29T11:28:18.63</time>
<name>4992</name>
</trkpt>
<trkpt lat="41.716512" lon="-0.703328">
<ele>439.5</ele>
<speed>14.1</speed>
<course>301.3</course>
<desc>Speed 14.1 km/h Distance 29.89 km</desc>
<time>2011-09-29T11:28:19.63</time>
<name>4993</name>
</trkpt>
<trkpt lat="41.716528" lon="-0.703365">
<ele>440.0</ele>
<speed>12.9</speed>
<course>307.4</course>
<desc>Speed 12.9 km/h Distance 29.90 km</desc>
<time>2011-09-29T11:28:20.95</time>
<name>4994</name>
</trkpt>
<trkpt lat="41.716548" lon="-0.703400">
<ele>440.0</ele>
<speed>13.1</speed>
<course>315.1</course>
<desc>Speed 13.1 km/h Distance 29.90 km</desc>
<time>2011-09-29T11:28:21.86</time>
<name>4995</name>
</trkpt>
<trkpt lat="41.716568" lon="-0.703427">
<ele>440.0</ele>
<speed>11.2</speed>
<course>316.5</course>
<desc>Speed 11.2 km/h Distance 29.90 km</desc>
<time>2011-09-29T11:28:22.63</time>
<name>4996</name>
</trkpt>
<trkpt lat="41.716587" lon="-0.703450">
<ele>440.0</ele>
<speed>9.7</speed>
<course>317.7</course>
<desc>Speed 9.7 km/h Distance 29.90 km</desc>
<time>2011-09-29T11:28:23.62</time>
<name>4997</name>
</trkpt>
<trkpt lat="41.716602" lon="-0.703468">
<ele>440.5</ele>
<speed>8.1</speed>
<course>316.2</course>
<desc>Speed 8.1 km/h Distance 29.91 km</desc>
<time>2011-09-29T11:28:24.62</time>
<name>4998</name>
</trkpt>
<trkpt lat="41.716613" lon="-0.703483">
<ele>440.5</ele>
<speed>6.4</speed>
<course>298.2</course>
<desc>Speed 6.4 km/h Distance 29.91 km</desc>
<time>2011-09-29T11:28:25.62</time>
<name>4999</name>
</trkpt>
<trkpt lat="41.716620" lon="-0.703500">
<ele>440.5</ele>
<speed>6.0</speed>
<course>290.9</course>
<desc>Speed 6.0 km/h Distance 29.91 km</desc>
<time>2011-09-29T11:28:26.62</time>
<name>5000</name>
</trkpt>
<trkpt lat="41.716627" lon="-0.703523">
<ele>440.5</ele>
<speed>7.6</speed>
<course>282.6</course>
<desc>Speed 7.6 km/h Distance 29.91 km</desc>
<time>2011-09-29T11:28:27.62</time>
<name>5001</name>
</trkpt>
<trkpt lat="41.716633" lon="-0.703563">
<ele>440.5</ele>
<speed>12.4</speed>
<course>267.8</course>
<desc>Speed 12.4 km/h Distance 29.92 km</desc>
<time>2011-09-29T11:28:28.80</time>
<name>5002</name>
</trkpt>
<trkpt lat="41.716630" lon="-0.703678">
<ele>440.0</ele>
<speed>18.6</speed>
<course>250.6</course>
<desc>Speed 18.6 km/h Distance 29.93 km</desc>
<time>2011-09-29T11:28:30.62</time>
<name>5003</name>
</trkpt>
<trkpt lat="41.716613" lon="-0.703742">
<ele>440.0</ele>
<speed>20.2</speed>
<course>257.7</course>
<desc>Speed 20.2 km/h Distance 29.93 km</desc>
<time>2011-09-29T11:28:31.64</time>
<name>5004</name>
</trkpt>
<trkpt lat="41.716602" lon="-0.703813">
<ele>440.0</ele>
<speed>21.7</speed>
<course>254.7</course>
<desc>Speed 21.7 km/h Distance 29.94 km</desc>
<time>2011-09-29T11:28:32.62</time>
<name>5005</name>
</trkpt>
<trkpt lat="41.716587" lon="-0.703887">
<ele>440.0</ele>
<speed>23.0</speed>
<course>245.0</course>
<desc>Speed 23.0 km/h Distance 29.94 km</desc>
<time>2011-09-29T11:28:33.61</time>
<name>5006</name>
</trkpt>
<trkpt lat="41.716562" lon="-0.703958">
<ele>439.5</ele>
<speed>23.9</speed>
<course>245.0</course>
<desc>Speed 23.9 km/h Distance 29.95 km</desc>
<time>2011-09-29T11:28:34.61</time>
<name>5007</name>
</trkpt>
<trkpt lat="41.716535" lon="-0.704035">
<ele>439.5</ele>
<speed>25.2</speed>
<course>241.8</course>
<desc>Speed 25.2 km/h Distance 29.96 km</desc>
<time>2011-09-29T11:28:35.61</time>
<name>5008</name>
</trkpt>
<trkpt lat="41.716505" lon="-0.704110">
<ele>439.0</ele>
<speed>25.7</speed>
<course>245.5</course>
<desc>Speed 25.7 km/h Distance 29.96 km</desc>
<time>2011-09-29T11:28:36.61</time>
<name>5009</name>
</trkpt>
<trkpt lat="41.716478" lon="-0.704188">
<ele>439.0</ele>
<speed>25.8</speed>
<course>246.4</course>
<desc>Speed 25.8 km/h Distance 29.97 km</desc>
<time>2011-09-29T11:28:37.61</time>
<name>5010</name>
</trkpt>
<trkpt lat="41.716452" lon="-0.704270">
<ele>438.5</ele>
<speed>26.4</speed>
<course>244.6</course>
<desc>Speed 26.4 km/h Distance 29.98 km</desc>
<time>2011-09-29T11:28:38.61</time>
<name>5011</name>
</trkpt>
<trkpt lat="41.716423" lon="-0.704350">
<ele>438.5</ele>
<speed>26.6</speed>
<course>243.3</course>
<desc>Speed 26.6 km/h Distance 29.99 km</desc>
<time>2011-09-29T11:28:39.61</time>
<name>5012</name>
</trkpt>
<trkpt lat="41.716393" lon="-0.704430">
<ele>438.0</ele>
<speed>26.8</speed>
<course>244.4</course>
<desc>Speed 26.8 km/h Distance 29.99 km</desc>
<time>2011-09-29T11:28:41.34</time>
<name>5013</name>
</trkpt>
<trkpt lat="41.716305" lon="-0.704677">
<ele>437.5</ele>
<speed>27.7</speed>
<course>243.5</course>
<desc>Speed 27.7 km/h Distance 30.02 km</desc>
<time>2011-09-29T11:28:43.61</time>
<name>5014</name>
</trkpt>
<trkpt lat="41.716273" lon="-0.704762">
<ele>437.0</ele>
<speed>28.2</speed>
<course>244.7</course>
<desc>Speed 28.2 km/h Distance 30.02 km</desc>
<time>2011-09-29T11:28:44.61</time>
<name>5015</name>
</trkpt>
<trkpt lat="41.716243" lon="-0.704847">
<ele>437.0</ele>
<speed>28.5</speed>
<course>245.1</course>
<desc>Speed 28.5 km/h Distance 30.03 km</desc>
<time>2011-09-29T11:28:45.61</time>
<name>5016</name>
</trkpt>
<trkpt lat="41.716213" lon="-0.704933">
<ele>436.5</ele>
<speed>28.7</speed>
<course>247.1</course>
<desc>Speed 28.7 km/h Distance 30.04 km</desc>
<time>2011-09-29T11:28:46.61</time>
<name>5017</name>
</trkpt>
<trkpt lat="41.716185" lon="-0.705023">
<ele>436.5</ele>
<speed>29.2</speed>
<course>242.0</course>
<desc>Speed 29.2 km/h Distance 30.05 km</desc>
<time>2011-09-29T11:28:47.60</time>
<name>5018</name>
</trkpt>
<trkpt lat="41.716150" lon="-0.705112">
<ele>436.0</ele>
<speed>29.9</speed>
<course>240.9</course>
<desc>Speed 29.9 km/h Distance 30.06 km</desc>
<time>2011-09-29T11:28:48.61</time>
<name>5019</name>
</trkpt>
<trkpt lat="41.716113" lon="-0.705200">
<ele>436.0</ele>
<speed>30.3</speed>
<course>242.5</course>
<desc>Speed 30.3 km/h Distance 30.06 km</desc>
<time>2011-09-29T11:28:49.60</time>
<name>5020</name>
</trkpt>
<trkpt lat="41.716078" lon="-0.705290">
<ele>435.5</ele>
<speed>30.3</speed>
<course>244.6</course>
<desc>Speed 30.3 km/h Distance 30.07 km</desc>
<time>2011-09-29T11:28:51.08</time>
<name>5021</name>
</trkpt>
<trkpt lat="41.716012" lon="-0.705478">
<ele>435.0</ele>
<speed>31.6</speed>
<course>244.1</course>
<desc>Speed 31.6 km/h Distance 30.09 km</desc>
<time>2011-09-29T11:28:52.60</time>
<name>5022</name>
</trkpt>
<trkpt lat="41.715977" lon="-0.705575">
<ele>434.5</ele>
<speed>32.5</speed>
<course>244.5</course>
<desc>Speed 32.5 km/h Distance 30.10 km</desc>
<time>2011-09-29T11:28:53.60</time>
<name>5023</name>
</trkpt>
<trkpt lat="41.715942" lon="-0.705673">
<ele>434.0</ele>
<speed>32.9</speed>
<course>243.8</course>
<desc>Speed 32.9 km/h Distance 30.11 km</desc>
<time>2011-09-29T11:28:54.60</time>
<name>5024</name>
</trkpt>
<trkpt lat="41.715905" lon="-0.705773">
<ele>434.0</ele>
<speed>33.3</speed>
<course>243.8</course>
<desc>Speed 33.3 km/h Distance 30.12 km</desc>
<time>2011-09-29T11:28:55.60</time>
<name>5025</name>
</trkpt>
<trkpt lat="41.715868" lon="-0.705873">
<ele>433.5</ele>
<speed>33.3</speed>
<course>243.8</course>
<desc>Speed 33.3 km/h Distance 30.13 km</desc>
<time>2011-09-29T11:28:56.60</time>
<name>5026</name>
</trkpt>
<trkpt lat="41.715832" lon="-0.705973">
<ele>433.0</ele>
<speed>33.4</speed>
<course>244.9</course>
<desc>Speed 33.4 km/h Distance 30.14 km</desc>
<time>2011-09-29T11:28:57.60</time>
<name>5027</name>
</trkpt>
<trkpt lat="41.715797" lon="-0.706073">
<ele>432.5</ele>
<speed>33.4</speed>
<course>246.6</course>
<desc>Speed 33.4 km/h Distance 30.15 km</desc>
<time>2011-09-29T11:28:58.60</time>
<name>5028</name>
</trkpt>
<trkpt lat="41.715763" lon="-0.706177">
<ele>432.5</ele>
<speed>33.7</speed>
<course>248.0</course>
<desc>Speed 33.7 km/h Distance 30.15 km</desc>
<time>2011-09-29T11:28:59.60</time>
<name>5029</name>
</trkpt>
<trkpt lat="41.715732" lon="-0.706282">
<ele>432.0</ele>
<speed>34.1</speed>
<course>247.8</course>
<desc>Speed 34.1 km/h Distance 30.16 km</desc>
<time>2011-09-29T11:29:00.81</time>
<name>5030</name>
</trkpt>
<trkpt lat="41.715665" lon="-0.706500">
<ele>431.5</ele>
<speed>35.4</speed>
<course>248.9</course>
<desc>Speed 35.4 km/h Distance 30.18 km</desc>
<time>2011-09-29T11:29:02.59</time>
<name>5031</name>
</trkpt>
<trkpt lat="41.715633" lon="-0.706610">
<ele>431.0</ele>
<speed>35.9</speed>
<course>248.5</course>
<desc>Speed 35.9 km/h Distance 30.19 km</desc>
<time>2011-09-29T11:29:03.60</time>
<name>5032</name>
</trkpt>
<trkpt lat="41.715600" lon="-0.706723">
<ele>430.5</ele>
<speed>36.3</speed>
<course>249.8</course>
<desc>Speed 36.3 km/h Distance 30.20 km</desc>
<time>2011-09-29T11:29:04.59</time>
<name>5033</name>
</trkpt>
<trkpt lat="41.715568" lon="-0.706838">
<ele>430.5</ele>
<speed>36.8</speed>
<course>249.8</course>
<desc>Speed 36.8 km/h Distance 30.21 km</desc>
<time>2011-09-29T11:29:05.59</time>
<name>5034</name>
</trkpt>
<trkpt lat="41.715537" lon="-0.706953">
<ele>430.0</ele>
<speed>37.2</speed>
<course>251.0</course>
<desc>Speed 37.2 km/h Distance 30.22 km</desc>
<time>2011-09-29T11:29:06.60</time>
<name>5035</name>
</trkpt>
<trkpt lat="41.715507" lon="-0.707070">
<ele>430.0</ele>
<speed>37.0</speed>
<course>252.0</course>
<desc>Speed 37.0 km/h Distance 30.23 km</desc>
<time>2011-09-29T11:29:07.59</time>
<name>5036</name>
</trkpt>
<trkpt lat="41.715478" lon="-0.707187">
<ele>429.5</ele>
<speed>36.9</speed>
<course>253.3</course>
<desc>Speed 36.9 km/h Distance 30.24 km</desc>
<time>2011-09-29T11:29:08.59</time>
<name>5037</name>
</trkpt>
<trkpt lat="41.715425" lon="-0.707425">
<ele>429.0</ele>
<speed>37.3</speed>
<course>254.4</course>
<desc>Speed 37.3 km/h Distance 30.27 km</desc>
<time>2011-09-29T11:29:10.59</time>
<name>5038</name>
</trkpt>
<trkpt lat="41.715400" lon="-0.707545">
<ele>428.5</ele>
<speed>37.5</speed>
<course>254.6</course>
<desc>Speed 37.5 km/h Distance 30.28 km</desc>
<time>2011-09-29T11:29:11.59</time>
<name>5039</name>
</trkpt>
<trkpt lat="41.715375" lon="-0.707667">
<ele>428.0</ele>
<speed>37.7</speed>
<course>257.6</course>
<desc>Speed 37.7 km/h Distance 30.29 km</desc>
<time>2011-09-29T11:29:12.59</time>
<name>5040</name>
</trkpt>
<trkpt lat="41.715355" lon="-0.707788">
<ele>427.5</ele>
<speed>37.7</speed>
<course>256.8</course>
<desc>Speed 37.7 km/h Distance 30.30 km</desc>
<time>2011-09-29T11:29:13.59</time>
<name>5041</name>
</trkpt>
<trkpt lat="41.715333" lon="-0.707912">
<ele>427.5</ele>
<speed>37.9</speed>
<course>257.7</course>
<desc>Speed 37.9 km/h Distance 30.31 km</desc>
<time>2011-09-29T11:29:14.59</time>
<name>5042</name>
</trkpt>
<trkpt lat="41.715313" lon="-0.708035">
<ele>427.0</ele>
<speed>38.1</speed>
<course>259.0</course>
<desc>Speed 38.1 km/h Distance 30.32 km</desc>
<time>2011-09-29T11:29:15.59</time>
<name>5043</name>
</trkpt>
<trkpt lat="41.715295" lon="-0.708162">
<ele>426.5</ele>
<speed>38.6</speed>
<course>259.0</course>
<desc>Speed 38.6 km/h Distance 30.33 km</desc>
<time>2011-09-29T11:29:16.59</time>
<name>5044</name>
</trkpt>
<trkpt lat="41.715277" lon="-0.708288">
<ele>426.5</ele>
<speed>38.8</speed>
<course>260.0</course>
<desc>Speed 38.8 km/h Distance 30.34 km</desc>
<time>2011-09-29T11:29:17.59</time>
<name>5045</name>
</trkpt>
<trkpt lat="41.715260" lon="-0.708415">
<ele>426.0</ele>
<speed>38.7</speed>
<course>260.6</course>
<desc>Speed 38.7 km/h Distance 30.35 km</desc>
<time>2011-09-29T11:29:18.58</time>
<name>5046</name>
</trkpt>
<trkpt lat="41.715228" lon="-0.708670">
<ele>425.0</ele>
<speed>38.7</speed>
<course>262.1</course>
<desc>Speed 38.7 km/h Distance 30.37 km</desc>
<time>2011-09-29T11:29:20.58</time>
<name>5047</name>
</trkpt>
<trkpt lat="41.715215" lon="-0.708798">
<ele>425.0</ele>
<speed>38.7</speed>
<course>263.0</course>
<desc>Speed 38.7 km/h Distance 30.38 km</desc>
<time>2011-09-29T11:29:21.58</time>
<name>5048</name>
</trkpt>
<trkpt lat="41.715203" lon="-0.708925">
<ele>424.5</ele>
<speed>38.4</speed>
<course>264.0</course>
<desc>Speed 38.4 km/h Distance 30.39 km</desc>
<time>2011-09-29T11:29:22.58</time>
<name>5049</name>
</trkpt>
<trkpt lat="41.715193" lon="-0.709052">
<ele>424.0</ele>
<speed>38.0</speed>
<course>264.9</course>
<desc>Speed 38.0 km/h Distance 30.40 km</desc>
<time>2011-09-29T11:29:23.58</time>
<name>5050</name>
</trkpt>
<trkpt lat="41.715185" lon="-0.709177">
<ele>423.5</ele>
<speed>37.9</speed>
<course>263.9</course>
<desc>Speed 37.9 km/h Distance 30.41 km</desc>
<time>2011-09-29T11:29:24.58</time>
<name>5051</name>
</trkpt>
<trkpt lat="41.715175" lon="-0.709302">
<ele>423.0</ele>
<speed>37.7</speed>
<course>263.0</course>
<desc>Speed 37.7 km/h Distance 30.42 km</desc>
<time>2011-09-29T11:29:25.58</time>
<name>5052</name>
</trkpt>
<trkpt lat="41.715163" lon="-0.709428">
<ele>423.0</ele>
<speed>38.2</speed>
<course>263.0</course>
<desc>Speed 38.2 km/h Distance 30.43 km</desc>
<time>2011-09-29T11:29:26.85</time>
<name>5053</name>
</trkpt>
<trkpt lat="41.715140" lon="-0.709682">
<ele>422.0</ele>
<speed>38.4</speed>
<course>264.0</course>
<desc>Speed 38.4 km/h Distance 30.46 km</desc>
<time>2011-09-29T11:29:28.81</time>
<name>5054</name>
</trkpt>
<trkpt lat="41.715120" lon="-0.709938">
<ele>421.5</ele>
<speed>38.8</speed>
<course>261.0</course>
<desc>Speed 38.8 km/h Distance 30.48 km</desc>
<time>2011-09-29T11:29:30.58</time>
<name>5055</name>
</trkpt>
<trkpt lat="41.715105" lon="-0.710065">
<ele>421.0</ele>
<speed>38.5</speed>
<course>261.0</course>
<desc>Speed 38.5 km/h Distance 30.49 km</desc>
<time>2011-09-29T11:29:31.57</time>
<name>5056</name>
</trkpt>
<trkpt lat="41.715090" lon="-0.710192">
<ele>421.0</ele>
<speed>38.8</speed>
<course>260.1</course>
<desc>Speed 38.8 km/h Distance 30.50 km</desc>
<time>2011-09-29T11:29:32.57</time>
<name>5057</name>
</trkpt>
<trkpt lat="41.715073" lon="-0.710320">
<ele>420.5</ele>
<speed>38.7</speed>
<course>260.0</course>
<desc>Speed 38.7 km/h Distance 30.51 km</desc>
<time>2011-09-29T11:29:33.57</time>
<name>5058</name>
</trkpt>
<trkpt lat="41.715057" lon="-0.710447">
<ele>420.5</ele>
<speed>38.9</speed>
<course>259.0</course>
<desc>Speed 38.9 km/h Distance 30.52 km</desc>
<time>2011-09-29T11:29:34.57</time>
<name>5059</name>
</trkpt>
<trkpt lat="41.715038" lon="-0.710573">
<ele>420.0</ele>
<speed>38.7</speed>
<course>256.9</course>
<desc>Speed 38.7 km/h Distance 30.53 km</desc>
<time>2011-09-29T11:29:35.57</time>
<name>5060</name>
</trkpt>
<trkpt lat="41.715017" lon="-0.710698">
<ele>419.5</ele>
<speed>38.6</speed>
<course>256.9</course>
<desc>Speed 38.6 km/h Distance 30.54 km</desc>
<time>2011-09-29T11:29:36.65</time>
<name>5061</name>
</trkpt>
<trkpt lat="41.714995" lon="-0.710823">
<ele>419.0</ele>
<speed>38.6</speed>
<course>254.5</course>
<desc>Speed 38.6 km/h Distance 30.55 km</desc>
<time>2011-09-29T11:29:37.87</time>
<name>5062</name>
</trkpt>
<trkpt lat="41.714943" lon="-0.711073">
<ele>418.0</ele>
<speed>39.1</speed>
<course>252.2</course>
<desc>Speed 39.1 km/h Distance 30.57 km</desc>
<time>2011-09-29T11:29:39.57</time>
<name>5063</name>
</trkpt>
<trkpt lat="41.714913" lon="-0.711198">
<ele>418.0</ele>
<speed>39.5</speed>
<course>251.3</course>
<desc>Speed 39.5 km/h Distance 30.58 km</desc>
<time>2011-09-29T11:29:40.57</time>
<name>5064</name>
</trkpt>
<trkpt lat="41.714882" lon="-0.711323">
<ele>417.5</ele>
<speed>39.6</speed>
<course>249.4</course>
<desc>Speed 39.6 km/h Distance 30.60 km</desc>
<time>2011-09-29T11:29:41.57</time>
<name>5065</name>
</trkpt>
<trkpt lat="41.714847" lon="-0.711448">
<ele>417.0</ele>
<speed>39.5</speed>
<course>248.9</course>
<desc>Speed 39.5 km/h Distance 30.61 km</desc>
<time>2011-09-29T11:29:42.57</time>
<name>5066</name>
</trkpt>
<trkpt lat="41.714812" lon="-0.711570">
<ele>416.5</ele>
<speed>39.3</speed>
<course>246.8</course>
<desc>Speed 39.3 km/h Distance 30.62 km</desc>
<time>2011-09-29T11:29:43.57</time>
<name>5067</name>
</trkpt>
<trkpt lat="41.714773" lon="-0.711690">
<ele>416.5</ele>
<speed>39.2</speed>
<course>245.6</course>
<desc>Speed 39.2 km/h Distance 30.63 km</desc>
<time>2011-09-29T11:29:44.57</time>
<name>5068</name>
</trkpt>
<trkpt lat="41.714733" lon="-0.711808">
<ele>416.0</ele>
<speed>39.0</speed>
<course>243.8</course>
<desc>Speed 39.0 km/h Distance 30.64 km</desc>
<time>2011-09-29T11:29:45.56</time>
<name>5069</name>
</trkpt>
<trkpt lat="41.714692" lon="-0.711922">
<ele>416.0</ele>
<speed>38.3</speed>
<course>242.0</course>
<desc>Speed 38.3 km/h Distance 30.65 km</desc>
<time>2011-09-29T11:29:46.56</time>
<name>5070</name>
</trkpt>
<trkpt lat="41.714647" lon="-0.712035">
<ele>416.0</ele>
<speed>38.2</speed>
<course>240.6</course>
<desc>Speed 38.2 km/h Distance 30.66 km</desc>
<time>2011-09-29T11:29:47.57</time>
<name>5071</name>
</trkpt>
<trkpt lat="41.714555" lon="-0.712253">
<ele>416.0</ele>
<speed>37.4</speed>
<course>238.3</course>
<desc>Speed 37.4 km/h Distance 30.68 km</desc>
<time>2011-09-29T11:29:49.56</time>
<name>5072</name>
</trkpt>
<trkpt lat="41.714507" lon="-0.712358">
<ele>415.5</ele>
<speed>37.0</speed>
<course>236.0</course>
<desc>Speed 37.0 km/h Distance 30.69 km</desc>
<time>2011-09-29T11:29:50.76</time>
<name>5073</name>
</trkpt>
<trkpt lat="41.714405" lon="-0.712560">
<ele>415.5</ele>
<speed>36.3</speed>
<course>234.9</course>
<desc>Speed 36.3 km/h Distance 30.71 km</desc>
<time>2011-09-29T11:29:52.56</time>
<name>5074</name>
</trkpt>
<trkpt lat="41.714353" lon="-0.712658">
<ele>415.5</ele>
<speed>35.6</speed>
<course>232.6</course>
<desc>Speed 35.6 km/h Distance 30.72 km</desc>
<time>2011-09-29T11:29:53.56</time>
<name>5075</name>
</trkpt>
<trkpt lat="41.714300" lon="-0.712752">
<ele>415.5</ele>
<speed>35.5</speed>
<course>233.1</course>
<desc>Speed 35.5 km/h Distance 30.73 km</desc>
<time>2011-09-29T11:29:54.56</time>
<name>5076</name>
</trkpt>
<trkpt lat="41.714247" lon="-0.712847">
<ele>415.5</ele>
<speed>36.0</speed>
<course>231.9</course>
<desc>Speed 36.0 km/h Distance 30.74 km</desc>
<time>2011-09-29T11:29:55.56</time>
<name>5077</name>
</trkpt>
<trkpt lat="41.714190" lon="-0.712943">
<ele>415.5</ele>
<speed>36.6</speed>
<course>228.8</course>
<desc>Speed 36.6 km/h Distance 30.75 km</desc>
<time>2011-09-29T11:29:56.56</time>
<name>5078</name>
</trkpt>
<trkpt lat="41.714130" lon="-0.713035">
<ele>415.5</ele>
<speed>36.6</speed>
<course>228.6</course>
<desc>Speed 36.6 km/h Distance 30.76 km</desc>
<time>2011-09-29T11:29:57.56</time>
<name>5079</name>
</trkpt>
<trkpt lat="41.714012" lon="-0.713215">
<ele>415.5</ele>
<speed>35.6</speed>
<course>226.0</course>
<desc>Speed 35.6 km/h Distance 30.78 km</desc>
<time>2011-09-29T11:29:59.62</time>
<name>5080</name>
</trkpt>
<trkpt lat="41.713952" lon="-0.713298">
<ele>415.5</ele>
<speed>35.0</speed>
<course>223.5</course>
<desc>Speed 35.0 km/h Distance 30.79 km</desc>
<time>2011-09-29T11:30:00.55</time>
<name>5081</name>
</trkpt>
<trkpt lat="41.713890" lon="-0.713377">
<ele>415.5</ele>
<speed>34.1</speed>
<course>222.9</course>
<desc>Speed 34.1 km/h Distance 30.80 km</desc>
<time>2011-09-29T11:30:01.56</time>
<name>5082</name>
</trkpt>
<trkpt lat="41.713828" lon="-0.713453">
<ele>415.5</ele>
<speed>33.8</speed>
<course>225.1</course>
<desc>Speed 33.8 km/h Distance 30.81 km</desc>
<time>2011-09-29T11:30:02.56</time>
<name>5083</name>
</trkpt>
<trkpt lat="41.713770" lon="-0.713532">
<ele>415.0</ele>
<speed>33.6</speed>
<course>223.5</course>
<desc>Speed 33.6 km/h Distance 30.82 km</desc>
<time>2011-09-29T11:30:03.56</time>
<name>5084</name>
</trkpt>
<trkpt lat="41.713708" lon="-0.713610">
<ele>415.0</ele>
<speed>34.1</speed>
<course>220.2</course>
<desc>Speed 34.1 km/h Distance 30.83 km</desc>
<time>2011-09-29T11:30:04.55</time>
<name>5085</name>
</trkpt>
<trkpt lat="41.713645" lon="-0.713682">
<ele>415.0</ele>
<speed>34.0</speed>
<course>220.4</course>
<desc>Speed 34.0 km/h Distance 30.84 km</desc>
<time>2011-09-29T11:30:05.86</time>
<name>5086</name>
</trkpt>
<trkpt lat="41.713515" lon="-0.713830">
<ele>414.5</ele>
<speed>34.5</speed>
<course>220.7</course>
<desc>Speed 34.5 km/h Distance 30.86 km</desc>
<time>2011-09-29T11:30:07.55</time>
<name>5087</name>
</trkpt>
<trkpt lat="41.713450" lon="-0.713905">
<ele>414.5</ele>
<speed>34.6</speed>
<course>218.7</course>
<desc>Speed 34.6 km/h Distance 30.87 km</desc>
<time>2011-09-29T11:30:08.72</time>
<name>5088</name>
</trkpt>
<trkpt lat="41.713315" lon="-0.714050">
<ele>414.0</ele>
<speed>35.2</speed>
<course>219.4</course>
<desc>Speed 35.2 km/h Distance 30.89 km</desc>
<time>2011-09-29T11:30:10.55</time>
<name>5089</name>
</trkpt>
<trkpt lat="41.713248" lon="-0.714123">
<ele>414.0</ele>
<speed>34.6</speed>
<course>219.5</course>
<desc>Speed 34.6 km/h Distance 30.90 km</desc>
<time>2011-09-29T11:30:11.55</time>
<name>5090</name>
</trkpt>
<trkpt lat="41.713183" lon="-0.714195">
<ele>413.5</ele>
<speed>33.9</speed>
<course>219.5</course>
<desc>Speed 33.9 km/h Distance 30.90 km</desc>
<time>2011-09-29T11:30:12.55</time>
<name>5091</name>
</trkpt>
<trkpt lat="41.713120" lon="-0.714265">
<ele>413.5</ele>
<speed>33.3</speed>
<course>220.3</course>
<desc>Speed 33.3 km/h Distance 30.91 km</desc>
<time>2011-09-29T11:30:13.54</time>
<name>5092</name>
</trkpt>
<trkpt lat="41.713058" lon="-0.714335">
<ele>413.5</ele>
<speed>32.6</speed>
<course>221.1</course>
<desc>Speed 32.6 km/h Distance 30.92 km</desc>
<time>2011-09-29T11:30:14.55</time>
<name>5093</name>
</trkpt>
<trkpt lat="41.712998" lon="-0.714405">
<ele>413.5</ele>
<speed>32.3</speed>
<course>221.1</course>
<desc>Speed 32.3 km/h Distance 30.93 km</desc>
<time>2011-09-29T11:30:15.61</time>
<name>5094</name>
</trkpt>
<trkpt lat="41.712938" lon="-0.714475">
<ele>413.0</ele>
<speed>32.6</speed>
<course>220.9</course>
<desc>Speed 32.6 km/h Distance 30.94 km</desc>
<time>2011-09-29T11:30:16.54</time>
<name>5095</name>
</trkpt>
<trkpt lat="41.712877" lon="-0.714547">
<ele>413.0</ele>
<speed>32.7</speed>
<course>219.6</course>
<desc>Speed 32.7 km/h Distance 30.95 km</desc>
<time>2011-09-29T11:30:17.54</time>
<name>5096</name>
</trkpt>
<trkpt lat="41.712815" lon="-0.714615">
<ele>412.5</ele>
<speed>32.3</speed>
<course>220.4</course>
<desc>Speed 32.3 km/h Distance 30.96 km</desc>
<time>2011-09-29T11:30:18.54</time>
<name>5097</name>
</trkpt>
<trkpt lat="41.712755" lon="-0.714683">
<ele>412.5</ele>
<speed>32.1</speed>
<course>222.5</course>
<desc>Speed 32.1 km/h Distance 30.97 km</desc>
<time>2011-09-29T11:30:19.56</time>
<name>5098</name>
</trkpt>
<trkpt lat="41.712697" lon="-0.714755">
<ele>412.5</ele>
<speed>31.5</speed>
<course>221.2</course>
<desc>Speed 31.5 km/h Distance 30.98 km</desc>
<time>2011-09-29T11:30:20.55</time>
<name>5099</name>
</trkpt>
<trkpt lat="41.712638" lon="-0.714823">
<ele>412.5</ele>
<speed>31.1</speed>
<course>220.5</course>
<desc>Speed 31.1 km/h Distance 30.98 km</desc>
<time>2011-09-29T11:30:21.54</time>
<name>5100</name>
</trkpt>
<trkpt lat="41.712580" lon="-0.714890">
<ele>412.5</ele>
<speed>31.0</speed>
<course>221.9</course>
<desc>Speed 31.0 km/h Distance 30.99 km</desc>
<time>2011-09-29T11:30:22.54</time>
<name>5101</name>
</trkpt>
<trkpt lat="41.712522" lon="-0.714960">
<ele>412.0</ele>
<speed>31.6</speed>
<course>220.9</course>
<desc>Speed 31.6 km/h Distance 31.00 km</desc>
<time>2011-09-29T11:30:23.54</time>
<name>5102</name>
</trkpt>
<trkpt lat="41.712460" lon="-0.715032">
<ele>411.5</ele>
<speed>32.5</speed>
<course>221.7</course>
<desc>Speed 32.5 km/h Distance 31.01 km</desc>
<time>2011-09-29T11:30:24.54</time>
<name>5103</name>
</trkpt>
<trkpt lat="41.712400" lon="-0.715103">
<ele>411.5</ele>
<speed>32.9</speed>
<course>223.0</course>
<desc>Speed 32.9 km/h Distance 31.02 km</desc>
<time>2011-09-29T11:30:25.54</time>
<name>5104</name>
</trkpt>
<trkpt lat="41.712340" lon="-0.715178">
<ele>411.0</ele>
<speed>32.9</speed>
<course>223.1</course>
<desc>Speed 32.9 km/h Distance 31.03 km</desc>
<time>2011-09-29T11:30:26.54</time>
<name>5105</name>
</trkpt>
<trkpt lat="41.712222" lon="-0.715327">
<ele>410.5</ele>
<speed>32.9</speed>
<course>223.7</course>
<desc>Speed 32.9 km/h Distance 31.05 km</desc>
<time>2011-09-29T11:30:28.54</time>
<name>5106</name>
</trkpt>
<trkpt lat="41.712162" lon="-0.715403">
<ele>410.0</ele>
<speed>33.4</speed>
<course>222.9</course>
<desc>Speed 33.4 km/h Distance 31.06 km</desc>
<time>2011-09-29T11:30:29.53</time>
<name>5107</name>
</trkpt>
<trkpt lat="41.712100" lon="-0.715480">
<ele>410.0</ele>
<speed>33.6</speed>
<course>222.9</course>
<desc>Speed 33.6 km/h Distance 31.07 km</desc>
<time>2011-09-29T11:30:30.54</time>
<name>5108</name>
</trkpt>
<trkpt lat="41.712038" lon="-0.715557">
<ele>409.5</ele>
<speed>33.9</speed>
<course>223.5</course>
<desc>Speed 33.9 km/h Distance 31.08 km</desc>
<time>2011-09-29T11:30:31.53</time>
<name>5109</name>
</trkpt>
<trkpt lat="41.711977" lon="-0.715635">
<ele>409.0</ele>
<speed>34.7</speed>
<course>223.3</course>
<desc>Speed 34.7 km/h Distance 31.08 km</desc>
<time>2011-09-29T11:30:32.53</time>
<name>5110</name>
</trkpt>
<trkpt lat="41.711913" lon="-0.715715">
<ele>409.0</ele>
<speed>35.2</speed>
<course>225.6</course>
<desc>Speed 35.2 km/h Distance 31.09 km</desc>
<time>2011-09-29T11:30:33.53</time>
<name>5111</name>
</trkpt>
<trkpt lat="41.711850" lon="-0.715802">
<ele>408.0</ele>
<speed>36.1</speed>
<course>223.4</course>
<desc>Speed 36.1 km/h Distance 31.10 km</desc>
<time>2011-09-29T11:30:34.53</time>
<name>5112</name>
</trkpt>
<trkpt lat="41.711782" lon="-0.715888">
<ele>408.0</ele>
<speed>37.9</speed>
<course>225.2</course>
<desc>Speed 37.9 km/h Distance 31.11 km</desc>
<time>2011-09-29T11:30:35.53</time>
<name>5113</name>
</trkpt>
<trkpt lat="41.711715" lon="-0.715978">
<ele>407.5</ele>
<speed>38.2</speed>
<course>222.6</course>
<desc>Speed 38.2 km/h Distance 31.13 km</desc>
<time>2011-09-29T11:30:36.53</time>
<name>5114</name>
</trkpt>
<trkpt lat="41.711643" lon="-0.716067">
<ele>407.0</ele>
<speed>39.3</speed>
<course>224.0</course>
<desc>Speed 39.3 km/h Distance 31.14 km</desc>
<time>2011-09-29T11:30:37.88</time>
<name>5115</name>
</trkpt>
<trkpt lat="41.711502" lon="-0.716250">
<ele>406.5</ele>
<speed>39.6</speed>
<course>223.7</course>
<desc>Speed 39.6 km/h Distance 31.16 km</desc>
<time>2011-09-29T11:30:39.53</time>
<name>5116</name>
</trkpt>
<trkpt lat="41.711430" lon="-0.716342">
<ele>406.0</ele>
<speed>39.5</speed>
<course>224.3</course>
<desc>Speed 39.5 km/h Distance 31.17 km</desc>
<time>2011-09-29T11:30:40.53</time>
<name>5117</name>
</trkpt>
<trkpt lat="41.711360" lon="-0.716433">
<ele>405.5</ele>
<speed>39.9</speed>
<course>222.0</course>
<desc>Speed 39.9 km/h Distance 31.18 km</desc>
<time>2011-09-29T11:30:41.53</time>
<name>5118</name>
</trkpt>
<trkpt lat="41.711287" lon="-0.716522">
<ele>405.0</ele>
<speed>39.4</speed>
<course>222.5</course>
<desc>Speed 39.4 km/h Distance 31.19 km</desc>
<time>2011-09-29T11:30:42.53</time>
<name>5119</name>
</trkpt>
<trkpt lat="41.711213" lon="-0.716612">
<ele>404.5</ele>
<speed>40.3</speed>
<course>223.4</course>
<desc>Speed 40.3 km/h Distance 31.20 km</desc>
<time>2011-09-29T11:30:43.52</time>
<name>5120</name>
</trkpt>
<trkpt lat="41.711138" lon="-0.716707">
<ele>404.0</ele>
<speed>41.1</speed>
<course>225.8</course>
<desc>Speed 41.1 km/h Distance 31.21 km</desc>
<time>2011-09-29T11:30:44.82</time>
<name>5121</name>
</trkpt>
<trkpt lat="41.710997" lon="-0.716902">
<ele>403.0</ele>
<speed>40.9</speed>
<course>225.2</course>
<desc>Speed 40.9 km/h Distance 31.24 km</desc>
<time>2011-09-29T11:30:46.52</time>
<name>5122</name>
</trkpt>
<trkpt lat="41.710925" lon="-0.716998">
<ele>402.5</ele>
<speed>40.6</speed>
<course>225.4</course>
<desc>Speed 40.6 km/h Distance 31.25 km</desc>
<time>2011-09-29T11:30:47.63</time>
<name>5123</name>
</trkpt>
<trkpt lat="41.710855" lon="-0.717093">
<ele>402.0</ele>
<speed>40.3</speed>
<course>225.4</course>
<desc>Speed 40.3 km/h Distance 31.26 km</desc>
<time>2011-09-29T11:30:48.52</time>
<name>5124</name>
</trkpt>
<trkpt lat="41.710785" lon="-0.717188">
<ele>402.0</ele>
<speed>40.0</speed>
<course>225.6</course>
<desc>Speed 40.0 km/h Distance 31.27 km</desc>
<time>2011-09-29T11:30:49.52</time>
<name>5125</name>
</trkpt>
<trkpt lat="41.710717" lon="-0.717282">
<ele>401.0</ele>
<speed>39.6</speed>
<course>226.1</course>
<desc>Speed 39.6 km/h Distance 31.28 km</desc>
<time>2011-09-29T11:30:50.52</time>
<name>5126</name>
</trkpt>
<trkpt lat="41.710648" lon="-0.717377">
<ele>400.5</ele>
<speed>39.4</speed>
<course>227.5</course>
<desc>Speed 39.4 km/h Distance 31.29 km</desc>
<time>2011-09-29T11:30:51.52</time>
<name>5127</name>
</trkpt>
<trkpt lat="41.710583" lon="-0.717472">
<ele>400.5</ele>
<speed>38.8</speed>
<course>228.7</course>
<desc>Speed 38.8 km/h Distance 31.30 km</desc>
<time>2011-09-29T11:30:52.52</time>
<name>5128</name>
</trkpt>
<trkpt lat="41.710520" lon="-0.717568">
<ele>400.0</ele>
<speed>38.3</speed>
<course>229.5</course>
<desc>Speed 38.3 km/h Distance 31.31 km</desc>
<time>2011-09-29T11:30:53.52</time>
<name>5129</name>
</trkpt>
<trkpt lat="41.710458" lon="-0.717665">
<ele>400.0</ele>
<speed>38.2</speed>
<course>231.1</course>
<desc>Speed 38.2 km/h Distance 31.32 km</desc>
<time>2011-09-29T11:30:54.55</time>
<name>5130</name>
</trkpt>
<trkpt lat="41.710400" lon="-0.717762">
<ele>399.5</ele>
<speed>37.9</speed>
<course>233.3</course>
<desc>Speed 37.9 km/h Distance 31.33 km</desc>
<time>2011-09-29T11:30:55.51</time>
<name>5131</name>
</trkpt>
<trkpt lat="41.710343" lon="-0.717863">
<ele>399.5</ele>
<speed>37.7</speed>
<course>234.1</course>
<desc>Speed 37.7 km/h Distance 31.34 km</desc>
<time>2011-09-29T11:30:56.51</time>
<name>5132</name>
</trkpt>
<trkpt lat="41.710288" lon="-0.717965">
<ele>399.0</ele>
<speed>37.5</speed>
<course>235.3</course>
<desc>Speed 37.5 km/h Distance 31.35 km</desc>
<time>2011-09-29T11:30:57.51</time>
<name>5133</name>
</trkpt>
<trkpt lat="41.710237" lon="-0.718065">
<ele>399.0</ele>
<speed>36.8</speed>
<course>236.6</course>
<desc>Speed 36.8 km/h Distance 31.36 km</desc>
<time>2011-09-29T11:30:58.51</time>
<name>5134</name>
</trkpt>
<trkpt lat="41.710187" lon="-0.718167">
<ele>399.0</ele>
<speed>36.2</speed>
<course>238.0</course>
<desc>Speed 36.2 km/h Distance 31.37 km</desc>
<time>2011-09-29T11:30:59.51</time>
<name>5135</name>
</trkpt>
<trkpt lat="41.710140" lon="-0.718267">
<ele>398.5</ele>
<speed>35.7</speed>
<course>241.1</course>
<desc>Speed 35.7 km/h Distance 31.38 km</desc>
<time>2011-09-29T11:31:00.51</time>
<name>5136</name>
</trkpt>
<trkpt lat="41.710097" lon="-0.718372">
<ele>398.0</ele>
<speed>35.7</speed>
<course>241.1</course>
<desc>Speed 35.7 km/h Distance 31.39 km</desc>
<time>2011-09-29T11:31:01.51</time>
<name>5137</name>
</trkpt>
<trkpt lat="41.710053" lon="-0.718477">
<ele>398.0</ele>
<speed>35.9</speed>
<course>243.3</course>
<desc>Speed 35.9 km/h Distance 31.40 km</desc>
<time>2011-09-29T11:31:02.51</time>
<name>5138</name>
</trkpt>
<trkpt lat="41.710013" lon="-0.718583">
<ele>397.5</ele>
<speed>36.0</speed>
<course>245.0</course>
<desc>Speed 36.0 km/h Distance 31.41 km</desc>
<time>2011-09-29T11:31:03.51</time>
<name>5139</name>
</trkpt>
<trkpt lat="41.709975" lon="-0.718693">
<ele>397.0</ele>
<speed>36.4</speed>
<course>245.9</course>
<desc>Speed 36.4 km/h Distance 31.42 km</desc>
<time>2011-09-29T11:31:04.51</time>
<name>5140</name>
</trkpt>
<trkpt lat="41.709938" lon="-0.718803">
<ele>397.0</ele>
<speed>36.5</speed>
<course>247.7</course>
<desc>Speed 36.5 km/h Distance 31.43 km</desc>
<time>2011-09-29T11:31:05.51</time>
<name>5141</name>
</trkpt>
<trkpt lat="41.709870" lon="-0.719027">
<ele>396.0</ele>
<speed>36.2</speed>
<course>250.7</course>
<desc>Speed 36.2 km/h Distance 31.45 km</desc>
<time>2011-09-29T11:31:07.50</time>
<name>5142</name>
</trkpt>
<trkpt lat="41.709840" lon="-0.719142">
<ele>396.0</ele>
<speed>36.5</speed>
<course>252.7</course>
<desc>Speed 36.5 km/h Distance 31.46 km</desc>
<time>2011-09-29T11:31:08.51</time>
<name>5143</name>
</trkpt>
<trkpt lat="41.709813" lon="-0.719257">
<ele>395.5</ele>
<speed>36.4</speed>
<course>253.0</course>
<desc>Speed 36.4 km/h Distance 31.47 km</desc>
<time>2011-09-29T11:31:09.51</time>
<name>5144</name>
</trkpt>
<trkpt lat="41.709787" lon="-0.719373">
<ele>395.0</ele>
<speed>36.6</speed>
<course>254.2</course>
<desc>Speed 36.6 km/h Distance 31.49 km</desc>
<time>2011-09-29T11:31:10.50</time>
<name>5145</name>
</trkpt>
<trkpt lat="41.709762" lon="-0.719492">
<ele>395.0</ele>
<speed>37.2</speed>
<course>256.4</course>
<desc>Speed 37.2 km/h Distance 31.50 km</desc>
<time>2011-09-29T11:31:11.50</time>
<name>5146</name>
</trkpt>
<trkpt lat="41.709740" lon="-0.719612">
<ele>394.5</ele>
<speed>37.2</speed>
<course>257.6</course>
<desc>Speed 37.2 km/h Distance 31.51 km</desc>
<time>2011-09-29T11:31:12.50</time>
<name>5147</name>
</trkpt>
<trkpt lat="41.709720" lon="-0.719733">
<ele>394.0</ele>
<speed>37.2</speed>
<course>259.7</course>
<desc>Speed 37.2 km/h Distance 31.52 km</desc>
<time>2011-09-29T11:31:13.51</time>
<name>5148</name>
</trkpt>
<trkpt lat="41.709703" lon="-0.719857">
<ele>394.0</ele>
<speed>37.8</speed>
<course>261.9</course>
<desc>Speed 37.8 km/h Distance 31.53 km</desc>
<time>2011-09-29T11:31:14.50</time>
<name>5149</name>
</trkpt>
<trkpt lat="41.709690" lon="-0.719982">
<ele>393.5</ele>
<speed>37.6</speed>
<course>262.3</course>
<desc>Speed 37.6 km/h Distance 31.54 km</desc>
<time>2011-09-29T11:31:15.50</time>
<name>5150</name>
</trkpt>
<trkpt lat="41.709665" lon="-0.720228">
<ele>393.5</ele>
<speed>37.5</speed>
<course>264.9</course>
<desc>Speed 37.5 km/h Distance 31.56 km</desc>
<time>2011-09-29T11:31:17.50</time>
<name>5151</name>
</trkpt>
<trkpt lat="41.709657" lon="-0.720353">
<ele>393.0</ele>
<speed>37.4</speed>
<course>264.8</course>
<desc>Speed 37.4 km/h Distance 31.57 km</desc>
<time>2011-09-29T11:31:18.50</time>
<name>5152</name>
</trkpt>
<trkpt lat="41.709648" lon="-0.720475">
<ele>393.0</ele>
<speed>36.8</speed>
<course>266.8</course>
<desc>Speed 36.8 km/h Distance 31.58 km</desc>
<time>2011-09-29T11:31:19.51</time>
<name>5153</name>
</trkpt>
<trkpt lat="41.709643" lon="-0.720595">
<ele>392.5</ele>
<speed>36.4</speed>
<course>271.1</course>
<desc>Speed 36.4 km/h Distance 31.59 km</desc>
<time>2011-09-29T11:31:20.50</time>
<name>5154</name>
</trkpt>
<trkpt lat="41.709645" lon="-0.720715">
<ele>392.0</ele>
<speed>36.1</speed>
<course>273.2</course>
<desc>Speed 36.1 km/h Distance 31.60 km</desc>
<time>2011-09-29T11:31:21.58</time>
<name>5155</name>
</trkpt>
<trkpt lat="41.709655" lon="-0.720953">
<ele>391.0</ele>
<speed>35.6</speed>
<course>275.5</course>
<desc>Speed 35.6 km/h Distance 31.62 km</desc>
<time>2011-09-29T11:31:23.76</time>
<name>5156</name>
</trkpt>
<trkpt lat="41.709672" lon="-0.721185">
<ele>390.5</ele>
<speed>34.6</speed>
<course>276.6</course>
<desc>Speed 34.6 km/h Distance 31.64 km</desc>
<time>2011-09-29T11:31:25.49</time>
<name>5157</name>
</trkpt>
<trkpt lat="41.709682" lon="-0.721300">
<ele>390.0</ele>
<speed>34.7</speed>
<course>279.0</course>
<desc>Speed 34.7 km/h Distance 31.65 km</desc>
<time>2011-09-29T11:31:26.58</time>
<name>5158</name>
</trkpt>
<trkpt lat="41.709695" lon="-0.721413">
<ele>390.0</ele>
<speed>34.6</speed>
<course>277.7</course>
<desc>Speed 34.6 km/h Distance 31.66 km</desc>
<time>2011-09-29T11:31:27.50</time>
<name>5159</name>
</trkpt>
<trkpt lat="41.709707" lon="-0.721528">
<ele>389.5</ele>
<speed>34.7</speed>
<course>279.8</course>
<desc>Speed 34.7 km/h Distance 31.67 km</desc>
<time>2011-09-29T11:31:28.50</time>
<name>5160</name>
</trkpt>
<trkpt lat="41.709722" lon="-0.721645">
<ele>389.0</ele>
<speed>35.2</speed>
<course>279.6</course>
<desc>Speed 35.2 km/h Distance 31.68 km</desc>
<time>2011-09-29T11:31:29.49</time>
<name>5161</name>
</trkpt>
<trkpt lat="41.709737" lon="-0.721763">
<ele>388.5</ele>
<speed>35.9</speed>
<course>279.5</course>
<desc>Speed 35.9 km/h Distance 31.69 km</desc>
<time>2011-09-29T11:31:30.49</time>
<name>5162</name>
</trkpt>
<trkpt lat="41.709767" lon="-0.722003">
<ele>388.0</ele>
<speed>36.6</speed>
<course>279.4</course>
<desc>Speed 36.6 km/h Distance 31.71 km</desc>
<time>2011-09-29T11:31:32.49</time>
<name>5163</name>
</trkpt>
<trkpt lat="41.709782" lon="-0.722125">
<ele>387.5</ele>
<speed>36.9</speed>
<course>279.5</course>
<desc>Speed 36.9 km/h Distance 31.72 km</desc>
<time>2011-09-29T11:31:33.59</time>
<name>5164</name>
</trkpt>
<trkpt lat="41.709797" lon="-0.722245">
<ele>387.0</ele>
<speed>36.7</speed>
<course>280.5</course>
<desc>Speed 36.7 km/h Distance 31.73 km</desc>
<time>2011-09-29T11:31:34.49</time>
<name>5165</name>
</trkpt>
<trkpt lat="41.709813" lon="-0.722365">
<ele>386.5</ele>
<speed>36.4</speed>
<course>280.7</course>
<desc>Speed 36.4 km/h Distance 31.74 km</desc>
<time>2011-09-29T11:31:35.49</time>
<name>5166</name>
</trkpt>
<trkpt lat="41.709830" lon="-0.722483">
<ele>386.0</ele>
<speed>36.2</speed>
<course>278.6</course>
<desc>Speed 36.2 km/h Distance 31.75 km</desc>
<time>2011-09-29T11:31:36.50</time>
<name>5167</name>
</trkpt>
<trkpt lat="41.709843" lon="-0.722602">
<ele>385.5</ele>
<speed>36.2</speed>
<course>279.6</course>
<desc>Speed 36.2 km/h Distance 31.76 km</desc>
<time>2011-09-29T11:31:37.49</time>
<name>5168</name>
</trkpt>
<trkpt lat="41.709858" lon="-0.722720">
<ele>385.5</ele>
<speed>36.0</speed>
<course>279.6</course>
<desc>Speed 36.0 km/h Distance 31.77 km</desc>
<time>2011-09-29T11:31:38.49</time>
<name>5169</name>
</trkpt>
<trkpt lat="41.709873" lon="-0.722838">
<ele>385.0</ele>
<speed>35.9</speed>
<course>279.6</course>
<desc>Speed 35.9 km/h Distance 31.78 km</desc>
<time>2011-09-29T11:31:39.49</time>
<name>5170</name>
</trkpt>
<trkpt lat="41.709888" lon="-0.722957">
<ele>384.5</ele>
<speed>36.0</speed>
<course>279.8</course>
<desc>Speed 36.0 km/h Distance 31.79 km</desc>
<time>2011-09-29T11:31:40.49</time>
<name>5171</name>
</trkpt>
<trkpt lat="41.709903" lon="-0.723073">
<ele>384.0</ele>
<speed>35.9</speed>
<course>279.6</course>
<desc>Speed 35.9 km/h Distance 31.80 km</desc>
<time>2011-09-29T11:31:41.49</time>
<name>5172</name>
</trkpt>
<trkpt lat="41.709918" lon="-0.723192">
<ele>383.5</ele>
<speed>36.0</speed>
<course>279.6</course>
<desc>Speed 36.0 km/h Distance 31.81 km</desc>
<time>2011-09-29T11:31:42.48</time>
<name>5173</name>
</trkpt>
<trkpt lat="41.709933" lon="-0.723310">
<ele>383.0</ele>
<speed>36.1</speed>
<course>279.5</course>
<desc>Speed 36.1 km/h Distance 31.82 km</desc>
<time>2011-09-29T11:31:43.48</time>
<name>5174</name>
</trkpt>
<trkpt lat="41.709948" lon="-0.723430">
<ele>382.5</ele>
<speed>36.4</speed>
<course>279.5</course>
<desc>Speed 36.4 km/h Distance 31.83 km</desc>
<time>2011-09-29T11:31:44.48</time>
<name>5175</name>
</trkpt>
<trkpt lat="41.709978" lon="-0.723670">
<ele>381.5</ele>
<speed>36.9</speed>
<course>280.3</course>
<desc>Speed 36.9 km/h Distance 31.85 km</desc>
<time>2011-09-29T11:31:46.48</time>
<name>5176</name>
</trkpt>
<trkpt lat="41.709995" lon="-0.723793">
<ele>381.0</ele>
<speed>37.3</speed>
<course>279.4</course>
<desc>Speed 37.3 km/h Distance 31.86 km</desc>
<time>2011-09-29T11:31:47.48</time>
<name>5177</name>
</trkpt>
<trkpt lat="41.710010" lon="-0.723915">
<ele>380.5</ele>
<speed>37.2</speed>
<course>279.3</course>
<desc>Speed 37.2 km/h Distance 31.87 km</desc>
<time>2011-09-29T11:31:48.48</time>
<name>5178</name>
</trkpt>
<trkpt lat="41.710025" lon="-0.724038">
<ele>380.0</ele>
<speed>37.3</speed>
<course>279.4</course>
<desc>Speed 37.3 km/h Distance 31.88 km</desc>
<time>2011-09-29T11:31:49.48</time>
<name>5179</name>
</trkpt>
<trkpt lat="41.710040" lon="-0.724160">
<ele>379.5</ele>
<speed>37.4</speed>
<course>280.3</course>
<desc>Speed 37.4 km/h Distance 31.89 km</desc>
<time>2011-09-29T11:31:50.48</time>
<name>5180</name>
</trkpt>
<trkpt lat="41.710057" lon="-0.724283">
<ele>379.0</ele>
<speed>37.5</speed>
<course>280.1</course>
<desc>Speed 37.5 km/h Distance 31.90 km</desc>
<time>2011-09-29T11:31:51.48</time>
<name>5181</name>
</trkpt>
<trkpt lat="41.710073" lon="-0.724408">
<ele>378.5</ele>
<speed>38.0</speed>
<course>280.0</course>
<desc>Speed 38.0 km/h Distance 31.91 km</desc>
<time>2011-09-29T11:31:52.48</time>
<name>5182</name>
</trkpt>
<trkpt lat="41.710090" lon="-0.724535">
<ele>378.5</ele>
<speed>38.4</speed>
<course>280.0</course>
<desc>Speed 38.4 km/h Distance 31.92 km</desc>
<time>2011-09-29T11:31:53.48</time>
<name>5183</name>
</trkpt>
<trkpt lat="41.710107" lon="-0.724662">
<ele>378.0</ele>
<speed>38.9</speed>
<course>279.7</course>
<desc>Speed 38.9 km/h Distance 31.93 km</desc>
<time>2011-09-29T11:31:54.47</time>
<name>5184</name>
</trkpt>
<trkpt lat="41.710140" lon="-0.724922">
<ele>377.0</ele>
<speed>39.7</speed>
<course>279.5</course>
<desc>Speed 39.7 km/h Distance 31.95 km</desc>
<time>2011-09-29T11:31:56.47</time>
<name>5185</name>
</trkpt>
<trkpt lat="41.710157" lon="-0.725055">
<ele>376.5</ele>
<speed>40.5</speed>
<course>279.4</course>
<desc>Speed 40.5 km/h Distance 31.96 km</desc>
<time>2011-09-29T11:31:57.48</time>
<name>5186</name>
</trkpt>
<trkpt lat="41.710173" lon="-0.725190">
<ele>376.0</ele>
<speed>40.9</speed>
<course>280.3</course>
<desc>Speed 40.9 km/h Distance 31.97 km</desc>
<time>2011-09-29T11:31:58.47</time>
<name>5187</name>
</trkpt>
<trkpt lat="41.710192" lon="-0.725325">
<ele>375.5</ele>
<speed>41.0</speed>
<course>279.4</course>
<desc>Speed 41.0 km/h Distance 31.99 km</desc>
<time>2011-09-29T11:31:59.47</time>
<name>5188</name>
</trkpt>
<trkpt lat="41.710208" lon="-0.725460">
<ele>375.0</ele>
<speed>41.1</speed>
<course>278.4</course>
<desc>Speed 41.1 km/h Distance 32.00 km</desc>
<time>2011-09-29T11:32:00.47</time>
<name>5189</name>
</trkpt>
<trkpt lat="41.710223" lon="-0.725597">
<ele>374.5</ele>
<speed>41.3</speed>
<course>279.8</course>
<desc>Speed 41.3 km/h Distance 32.01 km</desc>
<time>2011-09-29T11:32:01.47</time>
<name>5190</name>
</trkpt>
<trkpt lat="41.710258" lon="-0.725868">
<ele>374.0</ele>
<speed>41.5</speed>
<course>278.4</course>
<desc>Speed 41.5 km/h Distance 32.03 km</desc>
<time>2011-09-29T11:32:03.47</time>
<name>5191</name>
</trkpt>
<trkpt lat="41.710273" lon="-0.726005">
<ele>373.5</ele>
<speed>41.4</speed>
<course>278.5</course>
<desc>Speed 41.4 km/h Distance 32.04 km</desc>
<time>2011-09-29T11:32:04.47</time>
<name>5192</name>
</trkpt>
<trkpt lat="41.710288" lon="-0.726140">
<ele>373.0</ele>
<speed>41.1</speed>
<course>277.2</course>
<desc>Speed 41.1 km/h Distance 32.05 km</desc>
<time>2011-09-29T11:32:05.65</time>
<name>5193</name>
</trkpt>
<trkpt lat="41.710313" lon="-0.726405">
<ele>372.5</ele>
<speed>39.5</speed>
<course>276.9</course>
<desc>Speed 39.5 km/h Distance 32.08 km</desc>
<time>2011-09-29T11:32:07.47</time>
<name>5194</name>
</trkpt>
<trkpt lat="41.710325" lon="-0.726533">
<ele>372.0</ele>
<speed>39.1</speed>
<course>276.0</course>
<desc>Speed 39.1 km/h Distance 32.09 km</desc>
<time>2011-09-29T11:32:08.46</time>
<name>5195</name>
</trkpt>
<trkpt lat="41.710335" lon="-0.726660">
<ele>372.0</ele>
<speed>38.1</speed>
<course>276.1</course>
<desc>Speed 38.1 km/h Distance 32.10 km</desc>
<time>2011-09-29T11:32:09.47</time>
<name>5196</name>
</trkpt>
<trkpt lat="41.710345" lon="-0.726785">
<ele>371.5</ele>
<speed>37.9</speed>
<course>275.2</course>
<desc>Speed 37.9 km/h Distance 32.11 km</desc>
<time>2011-09-29T11:32:10.46</time>
<name>5197</name>
</trkpt>
<trkpt lat="41.710353" lon="-0.726908">
<ele>371.5</ele>
<speed>36.9</speed>
<course>273.2</course>
<desc>Speed 36.9 km/h Distance 32.12 km</desc>
<time>2011-09-29T11:32:11.47</time>
<name>5198</name>
</trkpt>
<trkpt lat="41.710358" lon="-0.727028">
<ele>371.0</ele>
<speed>36.3</speed>
<course>273.2</course>
<desc>Speed 36.3 km/h Distance 32.13 km</desc>
<time>2011-09-29T11:32:12.58</time>
<name>5199</name>
</trkpt>
<trkpt lat="41.710363" lon="-0.727147">
<ele>371.0</ele>
<speed>35.5</speed>
<course>272.2</course>
<desc>Speed 35.5 km/h Distance 32.14 km</desc>
<time>2011-09-29T11:32:13.46</time>
<name>5200</name>
</trkpt>
<trkpt lat="41.710367" lon="-0.727263">
<ele>370.5</ele>
<speed>35.2</speed>
<course>267.9</course>
<desc>Speed 35.2 km/h Distance 32.15 km</desc>
<time>2011-09-29T11:32:14.46</time>
<name>5201</name>
</trkpt>
<trkpt lat="41.710363" lon="-0.727383">
<ele>370.5</ele>
<speed>36.1</speed>
<course>270.0</course>
<desc>Speed 36.1 km/h Distance 32.16 km</desc>
<time>2011-09-29T11:32:15.48</time>
<name>5202</name>
</trkpt>
<trkpt lat="41.710363" lon="-0.727508">
<ele>370.0</ele>
<speed>37.4</speed>
<course>269.0</course>
<desc>Speed 37.4 km/h Distance 32.17 km</desc>
<time>2011-09-29T11:32:16.46</time>
<name>5203</name>
</trkpt>
<trkpt lat="41.710362" lon="-0.727637">
<ele>370.0</ele>
<speed>38.4</speed>
<course>268.1</course>
<desc>Speed 38.4 km/h Distance 32.18 km</desc>
<time>2011-09-29T11:32:17.46</time>
<name>5204</name>
</trkpt>
<trkpt lat="41.710358" lon="-0.727770">
<ele>369.5</ele>
<speed>40.0</speed>
<course>265.2</course>
<desc>Speed 40.0 km/h Distance 32.19 km</desc>
<time>2011-09-29T11:32:18.46</time>
<name>5205</name>
</trkpt>
<trkpt lat="41.710350" lon="-0.727903">
<ele>369.0</ele>
<speed>40.6</speed>
<course>265.3</course>
<desc>Speed 40.6 km/h Distance 32.20 km</desc>
<time>2011-09-29T11:32:19.46</time>
<name>5206</name>
</trkpt>
<trkpt lat="41.710342" lon="-0.728040">
<ele>369.0</ele>
<speed>41.0</speed>
<course>264.4</course>
<desc>Speed 41.0 km/h Distance 32.21 km</desc>
<time>2011-09-29T11:32:20.46</time>
<name>5207</name>
</trkpt>
<trkpt lat="41.710332" lon="-0.728177">
<ele>368.5</ele>
<speed>41.1</speed>
<course>262.6</course>
<desc>Speed 41.1 km/h Distance 32.22 km</desc>
<time>2011-09-29T11:32:21.46</time>
<name>5208</name>
</trkpt>
<trkpt lat="41.710318" lon="-0.728313">
<ele>368.5</ele>
<speed>41.5</speed>
<course>261.6</course>
<desc>Speed 41.5 km/h Distance 32.24 km</desc>
<time>2011-09-29T11:32:22.46</time>
<name>5209</name>
</trkpt>
<trkpt lat="41.710303" lon="-0.728450">
<ele>368.0</ele>
<speed>41.6</speed>
<course>260.8</course>
<desc>Speed 41.6 km/h Distance 32.25 km</desc>
<time>2011-09-29T11:32:23.45</time>
<name>5210</name>
</trkpt>
<trkpt lat="41.710270" lon="-0.728725">
<ele>367.5</ele>
<speed>42.0</speed>
<course>258.2</course>
<desc>Speed 42.0 km/h Distance 32.27 km</desc>
<time>2011-09-29T11:32:25.45</time>
<name>5211</name>
</trkpt>
<trkpt lat="41.710248" lon="-0.728863">
<ele>367.5</ele>
<speed>41.9</speed>
<course>257.9</course>
<desc>Speed 41.9 km/h Distance 32.28 km</desc>
<time>2011-09-29T11:32:26.46</time>
<name>5212</name>
</trkpt>
<trkpt lat="41.710227" lon="-0.728998">
<ele>367.0</ele>
<speed>41.7</speed>
<course>255.9</course>
<desc>Speed 41.7 km/h Distance 32.29 km</desc>
<time>2011-09-29T11:32:27.45</time>
<name>5213</name>
</trkpt>
<trkpt lat="41.710202" lon="-0.729132">
<ele>367.0</ele>
<speed>41.4</speed>
<course>256.8</course>
<desc>Speed 41.4 km/h Distance 32.31 km</desc>
<time>2011-09-29T11:32:28.46</time>
<name>5214</name>
</trkpt>
<trkpt lat="41.710178" lon="-0.729265">
<ele>366.5</ele>
<speed>41.1</speed>
<course>254.8</course>
<desc>Speed 41.1 km/h Distance 32.32 km</desc>
<time>2011-09-29T11:32:29.45</time>
<name>5215</name>
</trkpt>
<trkpt lat="41.710152" lon="-0.729397">
<ele>366.0</ele>
<speed>40.9</speed>
<course>253.5</course>
<desc>Speed 40.9 km/h Distance 32.33 km</desc>
<time>2011-09-29T11:32:30.45</time>
<name>5216</name>
</trkpt>
<trkpt lat="41.710123" lon="-0.729525">
<ele>366.0</ele>
<speed>40.4</speed>
<course>251.7</course>
<desc>Speed 40.4 km/h Distance 32.34 km</desc>
<time>2011-09-29T11:32:31.45</time>
<name>5217</name>
</trkpt>
<trkpt lat="41.710092" lon="-0.729653">
<ele>365.5</ele>
<speed>40.1</speed>
<course>251.3</course>
<desc>Speed 40.1 km/h Distance 32.35 km</desc>
<time>2011-09-29T11:32:32.45</time>
<name>5218</name>
</trkpt>
<trkpt lat="41.710060" lon="-0.729778">
<ele>365.0</ele>
<speed>40.0</speed>
<course>249.3</course>
<desc>Speed 40.0 km/h Distance 32.36 km</desc>
<time>2011-09-29T11:32:33.45</time>
<name>5219</name>
</trkpt>
<trkpt lat="41.709990" lon="-0.730027">
<ele>364.5</ele>
<speed>39.8</speed>
<course>247.4</course>
<desc>Speed 39.8 km/h Distance 32.38 km</desc>
<time>2011-09-29T11:32:35.44</time>
<name>5220</name>
</trkpt>
<trkpt lat="41.709952" lon="-0.730150">
<ele>364.0</ele>
<speed>40.0</speed>
<course>246.8</course>
<desc>Speed 40.0 km/h Distance 32.39 km</desc>
<time>2011-09-29T11:32:36.45</time>
<name>5221</name>
</trkpt>
<trkpt lat="41.709912" lon="-0.730275">
<ele>364.0</ele>
<speed>40.6</speed>
<course>245.7</course>
<desc>Speed 40.6 km/h Distance 32.41 km</desc>
<time>2011-09-29T11:32:37.44</time>
<name>5222</name>
</trkpt>
<trkpt lat="41.709870" lon="-0.730398">
<ele>363.5</ele>
<speed>40.7</speed>
<course>245.7</course>
<desc>Speed 40.7 km/h Distance 32.42 km</desc>
<time>2011-09-29T11:32:38.44</time>
<name>5223</name>
</trkpt>
<trkpt lat="41.709828" lon="-0.730522">
<ele>363.0</ele>
<speed>40.9</speed>
<course>244.0</course>
<desc>Speed 40.9 km/h Distance 32.43 km</desc>
<time>2011-09-29T11:32:39.44</time>
<name>5224</name>
</trkpt>
<trkpt lat="41.709783" lon="-0.730645">
<ele>362.5</ele>
<speed>41.1</speed>
<course>242.0</course>
<desc>Speed 41.1 km/h Distance 32.44 km</desc>
<time>2011-09-29T11:32:40.44</time>
<name>5225</name>
</trkpt>
<trkpt lat="41.709687" lon="-0.730888">
<ele>362.0</ele>
<speed>41.5</speed>
<course>240.8</course>
<desc>Speed 41.5 km/h Distance 32.46 km</desc>
<time>2011-09-29T11:32:42.44</time>
<name>5226</name>
</trkpt>
<trkpt lat="41.709637" lon="-0.731008">
<ele>361.5</ele>
<speed>41.9</speed>
<course>239.2</course>
<desc>Speed 41.9 km/h Distance 32.47 km</desc>
<time>2011-09-29T11:32:43.44</time>
<name>5227</name>
</trkpt>
<trkpt lat="41.709583" lon="-0.731128">
<ele>361.0</ele>
<speed>41.7</speed>
<course>237.1</course>
<desc>Speed 41.7 km/h Distance 32.49 km</desc>
<time>2011-09-29T11:32:44.60</time>
<name>5228</name>
</trkpt>
<trkpt lat="41.709470" lon="-0.731363">
<ele>360.0</ele>
<speed>42.5</speed>
<course>236.9</course>
<desc>Speed 42.5 km/h Distance 32.51 km</desc>
<time>2011-09-29T11:32:46.44</time>
<name>5229</name>
</trkpt>
<trkpt lat="41.709412" lon="-0.731483">
<ele>360.0</ele>
<speed>42.7</speed>
<course>236.2</course>
<desc>Speed 42.7 km/h Distance 32.52 km</desc>
<time>2011-09-29T11:32:47.43</time>
<name>5230</name>
</trkpt>
<trkpt lat="41.709353" lon="-0.731600">
<ele>359.5</ele>
<speed>42.7</speed>
<course>235.5</course>
<desc>Speed 42.7 km/h Distance 32.53 km</desc>
<time>2011-09-29T11:32:48.44</time>
<name>5231</name>
</trkpt>
<trkpt lat="41.709292" lon="-0.731720">
<ele>359.0</ele>
<speed>43.2</speed>
<course>235.1</course>
<desc>Speed 43.2 km/h Distance 32.54 km</desc>
<time>2011-09-29T11:32:49.43</time>
<name>5232</name>
</trkpt>
<trkpt lat="41.709230" lon="-0.731838">
<ele>358.5</ele>
<speed>43.2</speed>
<course>234.7</course>
<desc>Speed 43.2 km/h Distance 32.56 km</desc>
<time>2011-09-29T11:32:50.43</time>
<name>5233</name>
</trkpt>
<trkpt lat="41.709168" lon="-0.731955">
<ele>357.5</ele>
<speed>43.1</speed>
<course>235.1</course>
<desc>Speed 43.1 km/h Distance 32.57 km</desc>
<time>2011-09-29T11:32:51.55</time>
<name>5234</name>
</trkpt>
<trkpt lat="41.709107" lon="-0.732073">
<ele>357.0</ele>
<speed>43.2</speed>
<course>232.0</course>
<desc>Speed 43.2 km/h Distance 32.58 km</desc>
<time>2011-09-29T11:32:52.45</time>
<name>5235</name>
</trkpt>
<trkpt lat="41.709037" lon="-0.732193">
<ele>357.0</ele>
<speed>45.7</speed>
<course>236.2</course>
<desc>Speed 45.7 km/h Distance 32.59 km</desc>
<time>2011-09-29T11:32:53.44</time>
<name>5236</name>
</trkpt>
<trkpt lat="41.708977" lon="-0.732313">
<ele>355.5</ele>
<speed>43.3</speed>
<course>235.1</course>
<desc>Speed 43.3 km/h Distance 32.61 km</desc>
<time>2011-09-29T11:32:54.46</time>
<name>5237</name>
</trkpt>
<trkpt lat="41.708913" lon="-0.732435">
<ele>355.0</ele>
<speed>44.5</speed>
<course>234.7</course>
<desc>Speed 44.5 km/h Distance 32.62 km</desc>
<time>2011-09-29T11:32:55.43</time>
<name>5238</name>
</trkpt>
<trkpt lat="41.708850" lon="-0.732555">
<ele>354.5</ele>
<speed>44.1</speed>
<course>234.0</course>
<desc>Speed 44.1 km/h Distance 32.63 km</desc>
<time>2011-09-29T11:32:56.44</time>
<name>5239</name>
</trkpt>
<trkpt lat="41.708785" lon="-0.732675">
<ele>354.0</ele>
<speed>44.4</speed>
<course>235.1</course>
<desc>Speed 44.4 km/h Distance 32.64 km</desc>
<time>2011-09-29T11:32:57.43</time>
<name>5240</name>
</trkpt>
<trkpt lat="41.708723" lon="-0.732793">
<ele>353.5</ele>
<speed>43.7</speed>
<course>234.4</course>
<desc>Speed 43.7 km/h Distance 32.65 km</desc>
<time>2011-09-29T11:32:58.43</time>
<name>5241</name>
</trkpt>
<trkpt lat="41.708660" lon="-0.732912">
<ele>353.5</ele>
<speed>43.3</speed>
<course>235.1</course>
<desc>Speed 43.3 km/h Distance 32.67 km</desc>
<time>2011-09-29T11:32:59.43</time>
<name>5242</name>
</trkpt>
<trkpt lat="41.708598" lon="-0.733030">
<ele>353.0</ele>
<speed>43.3</speed>
<course>235.8</course>
<desc>Speed 43.3 km/h Distance 32.68 km</desc>
<time>2011-09-29T11:33:00.43</time>
<name>5243</name>
</trkpt>
<trkpt lat="41.708538" lon="-0.733148">
<ele>353.0</ele>
<speed>43.1</speed>
<course>233.6</course>
<desc>Speed 43.1 km/h Distance 32.69 km</desc>
<time>2011-09-29T11:33:01.43</time>
<name>5244</name>
</trkpt>
<trkpt lat="41.708475" lon="-0.733263">
<ele>352.5</ele>
<speed>42.8</speed>
<course>235.3</course>
<desc>Speed 42.8 km/h Distance 32.70 km</desc>
<time>2011-09-29T11:33:02.42</time>
<name>5245</name>
</trkpt>
<trkpt lat="41.708295" lon="-0.733612">
<ele>352.5</ele>
<speed>42.0</speed>
<course>235.2</course>
<desc>Speed 42.0 km/h Distance 32.74 km</desc>
<time>2011-09-29T11:33:05.58</time>
<name>5246</name>
</trkpt>
<trkpt lat="41.708178" lon="-0.733837">
<ele>352.0</ele>
<speed>41.4</speed>
<course>235.8</course>
<desc>Speed 41.4 km/h Distance 32.76 km</desc>
<time>2011-09-29T11:33:07.42</time>
<name>5247</name>
</trkpt>
<trkpt lat="41.708120" lon="-0.733952">
<ele>352.0</ele>
<speed>42.0</speed>
<course>235.8</course>
<desc>Speed 42.0 km/h Distance 32.77 km</desc>
<time>2011-09-29T11:33:08.42</time>
<name>5248</name>
</trkpt>
<trkpt lat="41.708062" lon="-0.734067">
<ele>351.5</ele>
<speed>41.9</speed>
<course>235.8</course>
<desc>Speed 41.9 km/h Distance 32.78 km</desc>
<time>2011-09-29T11:33:09.42</time>
<name>5249</name>
</trkpt>
<trkpt lat="41.708003" lon="-0.734182">
<ele>351.5</ele>
<speed>41.4</speed>
<course>235.4</course>
<desc>Speed 41.4 km/h Distance 32.79 km</desc>
<time>2011-09-29T11:33:10.42</time>
<name>5250</name>
</trkpt>
<trkpt lat="41.707947" lon="-0.734292">
<ele>351.5</ele>
<speed>40.8</speed>
<course>235.0</course>
<desc>Speed 40.8 km/h Distance 32.81 km</desc>
<time>2011-09-29T11:33:11.42</time>
<name>5251</name>
</trkpt>
<trkpt lat="41.707888" lon="-0.734403">
<ele>351.5</ele>
<speed>40.5</speed>
<course>234.8</course>
<desc>Speed 40.5 km/h Distance 32.82 km</desc>
<time>2011-09-29T11:33:12.42</time>
<name>5252</name>
</trkpt>
<trkpt lat="41.707720" lon="-0.734723">
<ele>352.0</ele>
<speed>38.7</speed>
<course>233.7</course>
<desc>Speed 38.7 km/h Distance 32.85 km</desc>
<time>2011-09-29T11:33:15.41</time>
<name>5253</name>
</trkpt>
<trkpt lat="41.707663" lon="-0.734827">
<ele>352.5</ele>
<speed>38.3</speed>
<course>235.3</course>
<desc>Speed 38.3 km/h Distance 32.86 km</desc>
<time>2011-09-29T11:33:16.41</time>
<name>5254</name>
</trkpt>
<trkpt lat="41.707610" lon="-0.734930">
<ele>352.5</ele>
<speed>37.8</speed>
<course>234.9</course>
<desc>Speed 37.8 km/h Distance 32.87 km</desc>
<time>2011-09-29T11:33:17.41</time>
<name>5255</name>
</trkpt>
<trkpt lat="41.707557" lon="-0.735032">
<ele>353.0</ele>
<speed>37.6</speed>
<course>234.9</course>
<desc>Speed 37.6 km/h Distance 32.88 km</desc>
<time>2011-09-29T11:33:18.41</time>
<name>5256</name>
</trkpt>
<trkpt lat="41.707503" lon="-0.735133">
<ele>353.0</ele>
<speed>37.0</speed>
<course>234.9</course>
<desc>Speed 37.0 km/h Distance 32.89 km</desc>
<time>2011-09-29T11:33:19.42</time>
<name>5257</name>
</trkpt>
<trkpt lat="41.707452" lon="-0.735232">
<ele>353.0</ele>
<speed>36.6</speed>
<course>236.0</course>
<desc>Speed 36.6 km/h Distance 32.90 km</desc>
<time>2011-09-29T11:33:20.41</time>
<name>5258</name>
</trkpt>
<trkpt lat="41.707352" lon="-0.735430">
<ele>353.0</ele>
<speed>35.7</speed>
<course>234.8</course>
<desc>Speed 35.7 km/h Distance 32.92 km</desc>
<time>2011-09-29T11:33:22.41</time>
<name>5259</name>
</trkpt>
<trkpt lat="41.707302" lon="-0.735525">
<ele>353.0</ele>
<speed>35.3</speed>
<course>235.7</course>
<desc>Speed 35.3 km/h Distance 32.93 km</desc>
<time>2011-09-29T11:33:23.61</time>
<name>5260</name>
</trkpt>
<trkpt lat="41.707203" lon="-0.735718">
<ele>353.0</ele>
<speed>35.1</speed>
<course>235.7</course>
<desc>Speed 35.1 km/h Distance 32.95 km</desc>
<time>2011-09-29T11:33:25.40</time>
<name>5261</name>
</trkpt>
<trkpt lat="41.707155" lon="-0.735813">
<ele>353.5</ele>
<speed>35.1</speed>
<course>234.4</course>
<desc>Speed 35.1 km/h Distance 32.96 km</desc>
<time>2011-09-29T11:33:26.40</time>
<name>5262</name>
</trkpt>
<trkpt lat="41.707103" lon="-0.735910">
<ele>353.5</ele>
<speed>35.2</speed>
<course>234.8</course>
<desc>Speed 35.2 km/h Distance 32.97 km</desc>
<time>2011-09-29T11:33:27.40</time>
<name>5263</name>
</trkpt>
<trkpt lat="41.707053" lon="-0.736005">
<ele>353.5</ele>
<speed>35.2</speed>
<course>234.8</course>
<desc>Speed 35.2 km/h Distance 32.98 km</desc>
<time>2011-09-29T11:33:28.40</time>
<name>5264</name>
</trkpt>
<trkpt lat="41.707003" lon="-0.736100">
<ele>353.5</ele>
<speed>35.2</speed>
<course>236.2</course>
<desc>Speed 35.2 km/h Distance 32.99 km</desc>
<time>2011-09-29T11:33:29.40</time>
<name>5265</name>
</trkpt>
<trkpt lat="41.706955" lon="-0.736197">
<ele>353.5</ele>
<speed>35.1</speed>
<course>235.0</course>
<desc>Speed 35.1 km/h Distance 33.00 km</desc>
<time>2011-09-29T11:33:30.55</time>
<name>5266</name>
</trkpt>
<trkpt lat="41.706857" lon="-0.736385">
<ele>353.5</ele>
<speed>34.8</speed>
<course>235.7</course>
<desc>Speed 34.8 km/h Distance 33.02 km</desc>
<time>2011-09-29T11:33:32.40</time>
<name>5267</name>
</trkpt>
<trkpt lat="41.706808" lon="-0.736480">
<ele>353.5</ele>
<speed>34.6</speed>
<course>235.3</course>
<desc>Speed 34.6 km/h Distance 33.03 km</desc>
<time>2011-09-29T11:33:33.40</time>
<name>5268</name>
</trkpt>
<trkpt lat="41.706760" lon="-0.736573">
<ele>353.5</ele>
<speed>34.3</speed>
<course>235.3</course>
<desc>Speed 34.3 km/h Distance 33.04 km</desc>
<time>2011-09-29T11:33:34.40</time>
<name>5269</name>
</trkpt>
<trkpt lat="41.706712" lon="-0.736667">
<ele>353.5</ele>
<speed>33.9</speed>
<course>234.8</course>
<desc>Speed 33.9 km/h Distance 33.05 km</desc>
<time>2011-09-29T11:33:35.40</time>
<name>5270</name>
</trkpt>
<trkpt lat="41.706663" lon="-0.736758">
<ele>353.5</ele>
<speed>33.9</speed>
<course>236.7</course>
<desc>Speed 33.9 km/h Distance 33.06 km</desc>
<time>2011-09-29T11:33:36.40</time>
<name>5271</name>
</trkpt>
<trkpt lat="41.706618" lon="-0.736850">
<ele>353.5</ele>
<speed>33.4</speed>
<course>234.7</course>
<desc>Speed 33.4 km/h Distance 33.06 km</desc>
<time>2011-09-29T11:33:37.39</time>
<name>5272</name>
</trkpt>
<trkpt lat="41.706572" lon="-0.736938">
<ele>353.5</ele>
<speed>33.0</speed>
<course>236.2</course>
<desc>Speed 33.0 km/h Distance 33.07 km</desc>
<time>2011-09-29T11:33:38.39</time>
<name>5273</name>
</trkpt>
<trkpt lat="41.706527" lon="-0.737028">
<ele>353.5</ele>
<speed>32.5</speed>
<course>236.7</course>
<desc>Speed 32.5 km/h Distance 33.08 km</desc>
<time>2011-09-29T11:33:39.39</time>
<name>5274</name>
</trkpt>
<trkpt lat="41.706483" lon="-0.737117">
<ele>353.5</ele>
<speed>32.0</speed>
<course>237.2</course>
<desc>Speed 32.0 km/h Distance 33.09 km</desc>
<time>2011-09-29T11:33:40.39</time>
<name>5275</name>
</trkpt>
<trkpt lat="41.706442" lon="-0.737203">
<ele>353.5</ele>
<speed>31.5</speed>
<course>234.1</course>
<desc>Speed 31.5 km/h Distance 33.10 km</desc>
<time>2011-09-29T11:33:41.39</time>
<name>5276</name>
</trkpt>
<trkpt lat="41.706307" lon="-0.737453">
<ele>354.0</ele>
<speed>31.0</speed>
<course>237.2</course>
<desc>Speed 31.0 km/h Distance 33.13 km</desc>
<time>2011-09-29T11:33:44.39</time>
<name>5277</name>
</trkpt>
<trkpt lat="41.706265" lon="-0.737540">
<ele>354.0</ele>
<speed>31.1</speed>
<course>237.7</course>
<desc>Speed 31.1 km/h Distance 33.13 km</desc>
<time>2011-09-29T11:33:45.39</time>
<name>5278</name>
</trkpt>
<trkpt lat="41.706223" lon="-0.737628">
<ele>354.0</ele>
<speed>31.4</speed>
<course>237.2</course>
<desc>Speed 31.4 km/h Distance 33.14 km</desc>
<time>2011-09-29T11:33:46.39</time>
<name>5279</name>
</trkpt>
<trkpt lat="41.706180" lon="-0.737718">
<ele>354.0</ele>
<speed>31.9</speed>
<course>237.7</course>
<desc>Speed 31.9 km/h Distance 33.15 km</desc>
<time>2011-09-29T11:33:47.39</time>
<name>5280</name>
</trkpt>
<trkpt lat="41.706137" lon="-0.737810">
<ele>354.0</ele>
<speed>32.2</speed>
<course>237.7</course>
<desc>Speed 32.2 km/h Distance 33.16 km</desc>
<time>2011-09-29T11:33:48.40</time>
<name>5281</name>
</trkpt>
<trkpt lat="41.706093" lon="-0.737902">
<ele>354.0</ele>
<speed>32.5</speed>
<course>240.1</course>
<desc>Speed 32.5 km/h Distance 33.17 km</desc>
<time>2011-09-29T11:33:49.38</time>
<name>5282</name>
</trkpt>
<trkpt lat="41.706053" lon="-0.737995">
<ele>354.0</ele>
<speed>32.5</speed>
<course>239.1</course>
<desc>Speed 32.5 km/h Distance 33.18 km</desc>
<time>2011-09-29T11:33:50.38</time>
<name>5283</name>
</trkpt>
<trkpt lat="41.706012" lon="-0.738088">
<ele>354.0</ele>
<speed>32.5</speed>
<course>240.1</course>
<desc>Speed 32.5 km/h Distance 33.19 km</desc>
<time>2011-09-29T11:33:51.39</time>
<name>5284</name>
</trkpt>
<trkpt lat="41.705972" lon="-0.738182">
<ele>354.0</ele>
<speed>32.3</speed>
<course>241.4</course>
<desc>Speed 32.3 km/h Distance 33.20 km</desc>
<time>2011-09-29T11:33:52.84</time>
<name>5285</name>
</trkpt>
<trkpt lat="41.705895" lon="-0.738370">
<ele>353.5</ele>
<speed>32.4</speed>
<course>242.0</course>
<desc>Speed 32.4 km/h Distance 33.21 km</desc>
<time>2011-09-29T11:33:54.39</time>
<name>5286</name>
</trkpt>
<trkpt lat="41.705857" lon="-0.738467">
<ele>353.5</ele>
<speed>32.8</speed>
<course>242.4</course>
<desc>Speed 32.8 km/h Distance 33.22 km</desc>
<time>2011-09-29T11:33:55.38</time>
<name>5287</name>
</trkpt>
<trkpt lat="41.705818" lon="-0.738565">
<ele>353.5</ele>
<speed>33.0</speed>
<course>243.8</course>
<desc>Speed 33.0 km/h Distance 33.23 km</desc>
<time>2011-09-29T11:33:56.38</time>
<name>5288</name>
</trkpt>
<trkpt lat="41.705782" lon="-0.738665">
<ele>353.5</ele>
<speed>33.4</speed>
<course>243.8</course>
<desc>Speed 33.4 km/h Distance 33.24 km</desc>
<time>2011-09-29T11:33:57.39</time>
<name>5289</name>
</trkpt>
<trkpt lat="41.705745" lon="-0.738765">
<ele>353.5</ele>
<speed>33.5</speed>
<course>244.9</course>
<desc>Speed 33.5 km/h Distance 33.25 km</desc>
<time>2011-09-29T11:33:58.38</time>
<name>5290</name>
</trkpt>
<trkpt lat="41.705710" lon="-0.738865">
<ele>353.5</ele>
<speed>33.4</speed>
<course>245.2</course>
<desc>Speed 33.4 km/h Distance 33.26 km</desc>
<time>2011-09-29T11:33:59.38</time>
<name>5291</name>
</trkpt>
<trkpt lat="41.705640" lon="-0.739068">
<ele>353.5</ele>
<speed>33.8</speed>
<course>247.0</course>
<desc>Speed 33.8 km/h Distance 33.28 km</desc>
<time>2011-09-29T11:34:01.38</time>
<name>5292</name>
</trkpt>
<trkpt lat="41.705607" lon="-0.739173">
<ele>353.5</ele>
<speed>34.3</speed>
<course>248.2</course>
<desc>Speed 34.3 km/h Distance 33.29 km</desc>
<time>2011-09-29T11:34:02.59</time>
<name>5293</name>
</trkpt>
<trkpt lat="41.705543" lon="-0.739385">
<ele>354.0</ele>
<speed>34.5</speed>
<course>248.3</course>
<desc>Speed 34.5 km/h Distance 33.31 km</desc>
<time>2011-09-29T11:34:04.38</time>
<name>5294</name>
</trkpt>
<trkpt lat="41.705512" lon="-0.739492">
<ele>353.5</ele>
<speed>34.5</speed>
<course>249.7</course>
<desc>Speed 34.5 km/h Distance 33.32 km</desc>
<time>2011-09-29T11:34:05.37</time>
<name>5295</name>
</trkpt>
<trkpt lat="41.705482" lon="-0.739600">
<ele>353.5</ele>
<speed>34.7</speed>
<course>248.6</course>
<desc>Speed 34.7 km/h Distance 33.33 km</desc>
<time>2011-09-29T11:34:06.37</time>
<name>5296</name>
</trkpt>
<trkpt lat="41.705450" lon="-0.739708">
<ele>353.0</ele>
<speed>35.0</speed>
<course>249.7</course>
<desc>Speed 35.0 km/h Distance 33.34 km</desc>
<time>2011-09-29T11:34:07.38</time>
<name>5297</name>
</trkpt>
<trkpt lat="41.705420" lon="-0.739817">
<ele>353.0</ele>
<speed>34.7</speed>
<course>251.0</course>
<desc>Speed 34.7 km/h Distance 33.35 km</desc>
<time>2011-09-29T11:34:08.37</time>
<name>5298</name>
</trkpt>
<trkpt lat="41.705392" lon="-0.739927">
<ele>353.0</ele>
<speed>34.8</speed>
<course>250.2</course>
<desc>Speed 34.8 km/h Distance 33.36 km</desc>
<time>2011-09-29T11:34:09.53</time>
<name>5299</name>
</trkpt>
<trkpt lat="41.705333" lon="-0.740143">
<ele>352.5</ele>
<speed>34.6</speed>
<course>249.4</course>
<desc>Speed 34.6 km/h Distance 33.37 km</desc>
<time>2011-09-29T11:34:11.37</time>
<name>5300</name>
</trkpt>
<trkpt lat="41.705303" lon="-0.740250">
<ele>352.5</ele>
<speed>34.6</speed>
<course>249.7</course>
<desc>Speed 34.6 km/h Distance 33.38 km</desc>
<time>2011-09-29T11:34:12.38</time>
<name>5301</name>
</trkpt>
<trkpt lat="41.705273" lon="-0.740358">
<ele>352.5</ele>
<speed>34.7</speed>
<course>248.6</course>
<desc>Speed 34.7 km/h Distance 33.39 km</desc>
<time>2011-09-29T11:34:13.37</time>
<name>5302</name>
</trkpt>
<trkpt lat="41.705242" lon="-0.740467">
<ele>352.0</ele>
<speed>34.7</speed>
<course>249.7</course>
<desc>Speed 34.7 km/h Distance 33.40 km</desc>
<time>2011-09-29T11:34:14.37</time>
<name>5303</name>
</trkpt>
<trkpt lat="41.705212" lon="-0.740575">
<ele>352.0</ele>
<speed>34.8</speed>
<course>249.4</course>
<desc>Speed 34.8 km/h Distance 33.41 km</desc>
<time>2011-09-29T11:34:15.37</time>
<name>5304</name>
</trkpt>
<trkpt lat="41.705182" lon="-0.740682">
<ele>352.0</ele>
<speed>34.4</speed>
<course>248.0</course>
<desc>Speed 34.4 km/h Distance 33.42 km</desc>
<time>2011-09-29T11:34:16.37</time>
<name>5305</name>
</trkpt>
<trkpt lat="41.705150" lon="-0.740787">
<ele>351.5</ele>
<speed>34.1</speed>
<course>248.0</course>
<desc>Speed 34.1 km/h Distance 33.43 km</desc>
<time>2011-09-29T11:34:17.36</time>
<name>5306</name>
</trkpt>
<trkpt lat="41.705118" lon="-0.740892">
<ele>351.0</ele>
<speed>34.1</speed>
<course>244.2</course>
<desc>Speed 34.1 km/h Distance 33.44 km</desc>
<time>2011-09-29T11:34:18.37</time>
<name>5307</name>
</trkpt>
<trkpt lat="41.705082" lon="-0.740993">
<ele>351.0</ele>
<speed>34.3</speed>
<course>244.6</course>
<desc>Speed 34.3 km/h Distance 33.45 km</desc>
<time>2011-09-29T11:34:19.37</time>
<name>5308</name>
</trkpt>
<trkpt lat="41.705045" lon="-0.741097">
<ele>351.0</ele>
<speed>34.5</speed>
<course>243.4</course>
<desc>Speed 34.5 km/h Distance 33.46 km</desc>
<time>2011-09-29T11:34:20.36</time>
<name>5309</name>
</trkpt>
<trkpt lat="41.704932" lon="-0.741400">
<ele>350.0</ele>
<speed>33.2</speed>
<course>241.6</course>
<desc>Speed 33.2 km/h Distance 33.49 km</desc>
<time>2011-09-29T11:34:23.36</time>
<name>5310</name>
</trkpt>
<trkpt lat="41.704893" lon="-0.741495">
<ele>350.0</ele>
<speed>32.6</speed>
<course>239.1</course>
<desc>Speed 32.6 km/h Distance 33.50 km</desc>
<time>2011-09-29T11:34:24.36</time>
<name>5311</name>
</trkpt>
<trkpt lat="41.704852" lon="-0.741588">
<ele>349.5</ele>
<speed>32.6</speed>
<course>236.7</course>
<desc>Speed 32.6 km/h Distance 33.51 km</desc>
<time>2011-09-29T11:34:25.36</time>
<name>5312</name>
</trkpt>
<trkpt lat="41.704807" lon="-0.741680">
<ele>349.0</ele>
<speed>32.8</speed>
<course>236.2</course>
<desc>Speed 32.8 km/h Distance 33.52 km</desc>
<time>2011-09-29T11:34:26.37</time>
<name>5313</name>
</trkpt>
<trkpt lat="41.704762" lon="-0.741770">
<ele>349.0</ele>
<speed>32.9</speed>
<course>235.2</course>
<desc>Speed 32.9 km/h Distance 33.52 km</desc>
<time>2011-09-29T11:34:27.36</time>
<name>5314</name>
</trkpt>
<trkpt lat="41.704715" lon="-0.741860">
<ele>348.5</ele>
<speed>32.7</speed>
<course>232.3</course>
<desc>Speed 32.7 km/h Distance 33.53 km</desc>
<time>2011-09-29T11:34:28.36</time>
<name>5315</name>
</trkpt>
<trkpt lat="41.704665" lon="-0.741947">
<ele>348.5</ele>
<speed>32.8</speed>
<course>234.8</course>
<desc>Speed 32.8 km/h Distance 33.54 km</desc>
<time>2011-09-29T11:34:29.36</time>
<name>5316</name>
</trkpt>
<trkpt lat="41.704617" lon="-0.742038">
<ele>348.0</ele>
<speed>33.8</speed>
<course>230.0</course>
<desc>Speed 33.8 km/h Distance 33.55 km</desc>
<time>2011-09-29T11:34:30.36</time>
<name>5317</name>
</trkpt>
<trkpt lat="41.704443" lon="-0.742315">
<ele>347.0</ele>
<speed>38.0</speed>
<course>226.3</course>
<desc>Speed 38.0 km/h Distance 33.58 km</desc>
<time>2011-09-29T11:34:33.36</time>
<name>5318</name>
</trkpt>
<trkpt lat="41.704377" lon="-0.742408">
<ele>346.5</ele>
<speed>38.6</speed>
<course>227.5</course>
<desc>Speed 38.6 km/h Distance 33.59 km</desc>
<time>2011-09-29T11:34:34.35</time>
<name>5319</name>
</trkpt>
<trkpt lat="41.704312" lon="-0.742503">
<ele>346.0</ele>
<speed>38.6</speed>
<course>225.2</course>
<desc>Speed 38.6 km/h Distance 33.60 km</desc>
<time>2011-09-29T11:34:35.36</time>
<name>5320</name>
</trkpt>
<trkpt lat="41.704245" lon="-0.742593">
<ele>345.5</ele>
<speed>38.3</speed>
<course>225.2</course>
<desc>Speed 38.3 km/h Distance 33.61 km</desc>
<time>2011-09-29T11:34:36.36</time>
<name>5321</name>
</trkpt>
<trkpt lat="41.704178" lon="-0.742683">
<ele>345.0</ele>
<speed>38.2</speed>
<course>224.7</course>
<desc>Speed 38.2 km/h Distance 33.62 km</desc>
<time>2011-09-29T11:34:37.35</time>
<name>5322</name>
</trkpt>
<trkpt lat="41.704112" lon="-0.742772">
<ele>344.5</ele>
<speed>37.9</speed>
<course>222.9</course>
<desc>Speed 37.9 km/h Distance 33.64 km</desc>
<time>2011-09-29T11:34:38.35</time>
<name>5323</name>
</trkpt>
<trkpt lat="41.704043" lon="-0.742857">
<ele>344.5</ele>
<speed>37.8</speed>
<course>221.1</course>
<desc>Speed 37.8 km/h Distance 33.65 km</desc>
<time>2011-09-29T11:34:39.35</time>
<name>5324</name>
</trkpt>
<trkpt lat="41.703973" lon="-0.742938">
<ele>344.0</ele>
<speed>37.5</speed>
<course>217.2</course>
<desc>Speed 37.5 km/h Distance 33.66 km</desc>
<time>2011-09-29T11:34:40.35</time>
<name>5325</name>
</trkpt>
<trkpt lat="41.703752" lon="-0.743163">
<ele>342.5</ele>
<speed>37.2</speed>
<course>215.5</course>
<desc>Speed 37.2 km/h Distance 33.69 km</desc>
<time>2011-09-29T11:34:43.35</time>
<name>5326</name>
</trkpt>
<trkpt lat="41.703677" lon="-0.743235">
<ele>342.0</ele>
<speed>37.3</speed>
<course>213.7</course>
<desc>Speed 37.3 km/h Distance 33.70 km</desc>
<time>2011-09-29T11:34:44.35</time>
<name>5327</name>
</trkpt>
<trkpt lat="41.703598" lon="-0.743305">
<ele>341.5</ele>
<speed>37.9</speed>
<course>212.5</course>
<desc>Speed 37.9 km/h Distance 33.71 km</desc>
<time>2011-09-29T11:34:45.35</time>
<name>5328</name>
</trkpt>
<trkpt lat="41.703518" lon="-0.743373">
<ele>341.0</ele>
<speed>38.0</speed>
<course>211.9</course>
<desc>Speed 38.0 km/h Distance 33.72 km</desc>
<time>2011-09-29T11:34:46.34</time>
<name>5329</name>
</trkpt>
<trkpt lat="41.703438" lon="-0.743440">
<ele>340.5</ele>
<speed>38.2</speed>
<course>211.9</course>
<desc>Speed 38.2 km/h Distance 33.73 km</desc>
<time>2011-09-29T11:34:47.34</time>
<name>5330</name>
</trkpt>
<trkpt lat="41.703358" lon="-0.743507">
<ele>340.0</ele>
<speed>38.2</speed>
<course>212.5</course>
<desc>Speed 38.2 km/h Distance 33.74 km</desc>
<time>2011-09-29T11:34:48.34</time>
<name>5331</name>
</trkpt>
<trkpt lat="41.703278" lon="-0.743575">
<ele>340.0</ele>
<speed>38.1</speed>
<course>211.9</course>
<desc>Speed 38.1 km/h Distance 33.75 km</desc>
<time>2011-09-29T11:34:49.34</time>
<name>5332</name>
</trkpt>
<trkpt lat="41.703198" lon="-0.743642">
<ele>339.5</ele>
<speed>38.1</speed>
<course>211.5</course>
<desc>Speed 38.1 km/h Distance 33.76 km</desc>
<time>2011-09-29T11:34:50.34</time>
<name>5333</name>
</trkpt>
<trkpt lat="41.702957" lon="-0.743840">
<ele>338.5</ele>
<speed>38.2</speed>
<course>211.9</course>
<desc>Speed 38.2 km/h Distance 33.79 km</desc>
<time>2011-09-29T11:34:53.34</time>
<name>5334</name>
</trkpt>
<trkpt lat="41.702877" lon="-0.743907">
<ele>338.0</ele>
<speed>37.8</speed>
<course>213.6</course>
<desc>Speed 37.8 km/h Distance 33.80 km</desc>
<time>2011-09-29T11:34:54.34</time>
<name>5335</name>
</trkpt>
<trkpt lat="41.702800" lon="-0.743975">
<ele>338.0</ele>
<speed>37.6</speed>
<course>213.1</course>
<desc>Speed 37.6 km/h Distance 33.81 km</desc>
<time>2011-09-29T11:34:55.34</time>
<name>5336</name>
</trkpt>
<trkpt lat="41.702722" lon="-0.744043">
<ele>337.5</ele>
<speed>37.2</speed>
<course>214.9</course>
<desc>Speed 37.2 km/h Distance 33.82 km</desc>
<time>2011-09-29T11:34:56.34</time>
<name>5337</name>
</trkpt>
<trkpt lat="41.702647" lon="-0.744113">
<ele>337.5</ele>
<speed>36.6</speed>
<course>216.3</course>
<desc>Speed 36.6 km/h Distance 33.83 km</desc>
<time>2011-09-29T11:34:57.34</time>
<name>5338</name>
</trkpt>
<trkpt lat="41.702432" lon="-0.744325">
<ele>337.0</ele>
<speed>36.0</speed>
<course>218.0</course>
<desc>Speed 36.0 km/h Distance 33.86 km</desc>
<time>2011-09-29T11:35:00.34</time>
<name>5339</name>
</trkpt>
<trkpt lat="41.702362" lon="-0.744398">
<ele>337.0</ele>
<speed>35.6</speed>
<course>219.3</course>
<desc>Speed 35.6 km/h Distance 33.87 km</desc>
<time>2011-09-29T11:35:01.46</time>
<name>5340</name>
</trkpt>
<trkpt lat="41.702293" lon="-0.744473">
<ele>337.0</ele>
<speed>35.5</speed>
<course>220.6</course>
<desc>Speed 35.5 km/h Distance 33.88 km</desc>
<time>2011-09-29T11:35:02.33</time>
<name>5341</name>
</trkpt>
<trkpt lat="41.702227" lon="-0.744550">
<ele>336.5</ele>
<speed>35.6</speed>
<course>220.6</course>
<desc>Speed 35.6 km/h Distance 33.89 km</desc>
<time>2011-09-29T11:35:03.33</time>
<name>5342</name>
</trkpt>
<trkpt lat="41.702160" lon="-0.744627">
<ele>336.5</ele>
<speed>35.7</speed>
<course>223.2</course>
<desc>Speed 35.7 km/h Distance 33.90 km</desc>
<time>2011-09-29T11:35:04.34</time>
<name>5343</name>
</trkpt>
<trkpt lat="41.702095" lon="-0.744708">
<ele>336.0</ele>
<speed>35.9</speed>
<course>225.1</course>
<desc>Speed 35.9 km/h Distance 33.91 km</desc>
<time>2011-09-29T11:35:05.33</time>
<name>5344</name>
</trkpt>
<trkpt lat="41.702032" lon="-0.744793">
<ele>336.0</ele>
<speed>36.0</speed>
<course>225.1</course>
<desc>Speed 36.0 km/h Distance 33.92 km</desc>
<time>2011-09-29T11:35:06.33</time>
<name>5345</name>
</trkpt>
<trkpt lat="41.701968" lon="-0.744878">
<ele>336.0</ele>
<speed>36.0</speed>
<course>226.4</course>
<desc>Speed 36.0 km/h Distance 33.93 km</desc>
<time>2011-09-29T11:35:07.33</time>
<name>5346</name>
</trkpt>
<trkpt lat="41.701907" lon="-0.744965">
<ele>335.5</ele>
<speed>36.0</speed>
<course>226.4</course>
<desc>Speed 36.0 km/h Distance 33.94 km</desc>
<time>2011-09-29T11:35:08.40</time>
<name>5347</name>
</trkpt>
<trkpt lat="41.701845" lon="-0.745052">
<ele>335.5</ele>
<speed>36.0</speed>
<course>229.0</course>
<desc>Speed 36.0 km/h Distance 33.95 km</desc>
<time>2011-09-29T11:35:09.33</time>
<name>5348</name>
</trkpt>
<trkpt lat="41.701787" lon="-0.745142">
<ele>335.5</ele>
<speed>35.9</speed>
<course>230.9</course>
<desc>Speed 35.9 km/h Distance 33.96 km</desc>
<time>2011-09-29T11:35:10.33</time>
<name>5349</name>
</trkpt>
<trkpt lat="41.701730" lon="-0.745235">
<ele>335.0</ele>
<speed>35.8</speed>
<course>230.4</course>
<desc>Speed 35.8 km/h Distance 33.97 km</desc>
<time>2011-09-29T11:35:11.33</time>
<name>5350</name>
</trkpt>
<trkpt lat="41.701673" lon="-0.745327">
<ele>335.0</ele>
<speed>35.7</speed>
<course>231.7</course>
<desc>Speed 35.7 km/h Distance 33.98 km</desc>
<time>2011-09-29T11:35:12.33</time>
<name>5351</name>
</trkpt>
<trkpt lat="41.701618" lon="-0.745420">
<ele>335.0</ele>
<speed>36.1</speed>
<course>233.2</course>
<desc>Speed 36.1 km/h Distance 33.99 km</desc>
<time>2011-09-29T11:35:13.33</time>
<name>5352</name>
</trkpt>
<trkpt lat="41.701563" lon="-0.745518">
<ele>334.5</ele>
<speed>36.3</speed>
<course>234.9</course>
<desc>Speed 36.3 km/h Distance 34.00 km</desc>
<time>2011-09-29T11:35:14.33</time>
<name>5353</name>
</trkpt>
<trkpt lat="41.701512" lon="-0.745617">
<ele>334.5</ele>
<speed>36.4</speed>
<course>235.3</course>
<desc>Speed 36.4 km/h Distance 34.01 km</desc>
<time>2011-09-29T11:35:15.32</time>
<name>5354</name>
</trkpt>
<trkpt lat="41.701460" lon="-0.745717">
<ele>334.0</ele>
<speed>36.5</speed>
<course>237.1</course>
<desc>Speed 36.5 km/h Distance 34.02 km</desc>
<time>2011-09-29T11:35:16.33</time>
<name>5355</name>
</trkpt>
<trkpt lat="41.701410" lon="-0.745820">
<ele>334.0</ele>
<speed>36.9</speed>
<course>237.1</course>
<desc>Speed 36.9 km/h Distance 34.03 km</desc>
<time>2011-09-29T11:35:17.32</time>
<name>5356</name>
</trkpt>
<trkpt lat="41.701360" lon="-0.745923">
<ele>333.5</ele>
<speed>37.0</speed>
<course>238.3</course>
<desc>Speed 37.0 km/h Distance 34.04 km</desc>
<time>2011-09-29T11:35:18.33</time>
<name>5357</name>
</trkpt>
<trkpt lat="41.701312" lon="-0.746028">
<ele>333.5</ele>
<speed>37.2</speed>
<course>241.9</course>
<desc>Speed 37.2 km/h Distance 34.05 km</desc>
<time>2011-09-29T11:35:19.33</time>
<name>5358</name>
</trkpt>
<trkpt lat="41.701178" lon="-0.746363">
<ele>332.5</ele>
<speed>38.1</speed>
<course>243.8</course>
<desc>Speed 38.1 km/h Distance 34.08 km</desc>
<time>2011-09-29T11:35:22.32</time>
<name>5359</name>
</trkpt>
<trkpt lat="41.701137" lon="-0.746477">
<ele>332.0</ele>
<speed>38.1</speed>
<course>245.3</course>
<desc>Speed 38.1 km/h Distance 34.09 km</desc>
<time>2011-09-29T11:35:23.32</time>
<name>5360</name>
</trkpt>
<trkpt lat="41.701097" lon="-0.746593">
<ele>332.0</ele>
<speed>38.4</speed>
<course>246.5</course>
<desc>Speed 38.4 km/h Distance 34.11 km</desc>
<time>2011-09-29T11:35:24.32</time>
<name>5361</name>
</trkpt>
<trkpt lat="41.701058" lon="-0.746712">
<ele>331.5</ele>
<speed>39.0</speed>
<course>247.7</course>
<desc>Speed 39.0 km/h Distance 34.12 km</desc>
<time>2011-09-29T11:35:25.32</time>
<name>5362</name>
</trkpt>
<trkpt lat="41.701022" lon="-0.746832">
<ele>331.0</ele>
<speed>39.2</speed>
<course>248.9</course>
<desc>Speed 39.2 km/h Distance 34.13 km</desc>
<time>2011-09-29T11:35:26.32</time>
<name>5363</name>
</trkpt>
<trkpt lat="41.700987" lon="-0.746953">
<ele>331.0</ele>
<speed>39.2</speed>
<course>248.9</course>
<desc>Speed 39.2 km/h Distance 34.14 km</desc>
<time>2011-09-29T11:35:27.32</time>
<name>5364</name>
</trkpt>
<trkpt lat="41.700952" lon="-0.747075">
<ele>330.5</ele>
<speed>39.4</speed>
<course>249.2</course>
<desc>Speed 39.4 km/h Distance 34.15 km</desc>
<time>2011-09-29T11:35:28.32</time>
<name>5365</name>
</trkpt>
<trkpt lat="41.700917" lon="-0.747198">
<ele>330.0</ele>
<speed>39.4</speed>
<course>249.4</course>
<desc>Speed 39.4 km/h Distance 34.16 km</desc>
<time>2011-09-29T11:35:29.32</time>
<name>5366</name>
</trkpt>
<trkpt lat="41.700813" lon="-0.747567">
<ele>329.0</ele>
<speed>39.3</speed>
<course>250.1</course>
<desc>Speed 39.3 km/h Distance 34.19 km</desc>
<time>2011-09-29T11:35:32.31</time>
<name>5367</name>
</trkpt>
<trkpt lat="41.700780" lon="-0.747690">
<ele>328.5</ele>
<speed>39.3</speed>
<course>250.1</course>
<desc>Speed 39.3 km/h Distance 34.20 km</desc>
<time>2011-09-29T11:35:33.32</time>
<name>5368</name>
</trkpt>
<trkpt lat="41.700747" lon="-0.747813">
<ele>328.5</ele>
<speed>39.4</speed>
<course>248.9</course>
<desc>Speed 39.4 km/h Distance 34.21 km</desc>
<time>2011-09-29T11:35:34.31</time>
<name>5369</name>
</trkpt>
<trkpt lat="41.700712" lon="-0.747935">
<ele>328.5</ele>
<speed>39.3</speed>
<course>248.9</course>
<desc>Speed 39.3 km/h Distance 34.22 km</desc>
<time>2011-09-29T11:35:35.32</time>
<name>5370</name>
</trkpt>
<trkpt lat="41.700677" lon="-0.748057">
<ele>328.0</ele>
<speed>39.2</speed>
<course>249.8</course>
<desc>Speed 39.2 km/h Distance 34.24 km</desc>
<time>2011-09-29T11:35:36.31</time>
<name>5371</name>
</trkpt>
<trkpt lat="41.700643" lon="-0.748178">
<ele>328.0</ele>
<speed>39.1</speed>
<course>248.8</course>
<desc>Speed 39.1 km/h Distance 34.25 km</desc>
<time>2011-09-29T11:35:37.31</time>
<name>5372</name>
</trkpt>
<trkpt lat="41.700573" lon="-0.748420">
<ele>327.5</ele>
<speed>38.8</speed>
<course>248.7</course>
<desc>Speed 38.8 km/h Distance 34.27 km</desc>
<time>2011-09-29T11:35:39.31</time>
<name>5373</name>
</trkpt>
<trkpt lat="41.700538" lon="-0.748540">
<ele>327.5</ele>
<speed>38.9</speed>
<course>247.6</course>
<desc>Speed 38.9 km/h Distance 34.28 km</desc>
<time>2011-09-29T11:35:40.52</time>
<name>5374</name>
</trkpt>
<trkpt lat="41.700465" lon="-0.748778">
<ele>327.5</ele>
<speed>38.7</speed>
<course>247.5</course>
<desc>Speed 38.7 km/h Distance 34.30 km</desc>
<time>2011-09-29T11:35:42.31</time>
<name>5375</name>
</trkpt>
<trkpt lat="41.700428" lon="-0.748897">
<ele>327.5</ele>
<speed>38.7</speed>
<course>245.3</course>
<desc>Speed 38.7 km/h Distance 34.31 km</desc>
<time>2011-09-29T11:35:43.31</time>
<name>5376</name>
</trkpt>
<trkpt lat="41.700388" lon="-0.749013">
<ele>327.5</ele>
<speed>38.4</speed>
<course>245.3</course>
<desc>Speed 38.4 km/h Distance 34.32 km</desc>
<time>2011-09-29T11:35:44.31</time>
<name>5377</name>
</trkpt>
<trkpt lat="41.700348" lon="-0.749130">
<ele>327.0</ele>
<speed>38.4</speed>
<course>243.8</course>
<desc>Speed 38.4 km/h Distance 34.33 km</desc>
<time>2011-09-29T11:35:45.31</time>
<name>5378</name>
</trkpt>
<trkpt lat="41.700307" lon="-0.749243">
<ele>327.5</ele>
<speed>38.2</speed>
<course>242.9</course>
<desc>Speed 38.2 km/h Distance 34.34 km</desc>
<time>2011-09-29T11:35:46.31</time>
<name>5379</name>
</trkpt>
<trkpt lat="41.700263" lon="-0.749357">
<ele>327.0</ele>
<speed>38.1</speed>
<course>242.5</course>
<desc>Speed 38.1 km/h Distance 34.35 km</desc>
<time>2011-09-29T11:35:47.46</time>
<name>5380</name>
</trkpt>
<trkpt lat="41.700177" lon="-0.749580">
<ele>327.0</ele>
<speed>37.7</speed>
<course>242.2</course>
<desc>Speed 37.7 km/h Distance 34.37 km</desc>
<time>2011-09-29T11:35:49.31</time>
<name>5381</name>
</trkpt>
<trkpt lat="41.700133" lon="-0.749690">
<ele>327.0</ele>
<speed>37.4</speed>
<course>240.9</course>
<desc>Speed 37.4 km/h Distance 34.38 km</desc>
<time>2011-09-29T11:35:50.30</time>
<name>5382</name>
</trkpt>
<trkpt lat="41.700088" lon="-0.749798">
<ele>327.0</ele>
<speed>37.2</speed>
<course>242.2</course>
<desc>Speed 37.2 km/h Distance 34.39 km</desc>
<time>2011-09-29T11:35:51.30</time>
<name>5383</name>
</trkpt>
<trkpt lat="41.700045" lon="-0.749908">
<ele>326.5</ele>
<speed>36.9</speed>
<course>242.2</course>
<desc>Speed 36.9 km/h Distance 34.40 km</desc>
<time>2011-09-29T11:35:52.30</time>
<name>5384</name>
</trkpt>
<trkpt lat="41.700002" lon="-0.750018">
<ele>326.5</ele>
<speed>37.5</speed>
<course>240.4</course>
<desc>Speed 37.5 km/h Distance 34.42 km</desc>
<time>2011-09-29T11:35:53.30</time>
<name>5385</name>
</trkpt>
<trkpt lat="41.699955" lon="-0.750128">
<ele>326.0</ele>
<speed>37.7</speed>
<course>240.4</course>
<desc>Speed 37.7 km/h Distance 34.43 km</desc>
<time>2011-09-29T11:35:54.30</time>
<name>5386</name>
</trkpt>
<trkpt lat="41.699908" lon="-0.750238">
<ele>326.0</ele>
<speed>37.8</speed>
<course>240.4</course>
<desc>Speed 37.8 km/h Distance 34.44 km</desc>
<time>2011-09-29T11:35:55.30</time>
<name>5387</name>
</trkpt>
<trkpt lat="41.699815" lon="-0.750458">
<ele>325.5</ele>
<speed>38.4</speed>
<course>241.1</course>
<desc>Speed 38.4 km/h Distance 34.46 km</desc>
<time>2011-09-29T11:35:57.30</time>
<name>5388</name>
</trkpt>
<trkpt lat="41.699768" lon="-0.750572">
<ele>325.5</ele>
<speed>38.8</speed>
<course>240.1</course>
<desc>Speed 38.8 km/h Distance 34.47 km</desc>
<time>2011-09-29T11:35:58.30</time>
<name>5389</name>
</trkpt>
<trkpt lat="41.699627" lon="-0.750902">
<ele>325.5</ele>
<speed>37.5</speed>
<course>241.3</course>
<desc>Speed 37.5 km/h Distance 34.50 km</desc>
<time>2011-09-29T11:36:01.30</time>
<name>5390</name>
</trkpt>
<trkpt lat="41.699582" lon="-0.751012">
<ele>325.5</ele>
<speed>37.6</speed>
<course>238.7</course>
<desc>Speed 37.6 km/h Distance 34.51 km</desc>
<time>2011-09-29T11:36:02.29</time>
<name>5391</name>
</trkpt>
<trkpt lat="41.699533" lon="-0.751118">
<ele>325.5</ele>
<speed>37.5</speed>
<course>239.6</course>
<desc>Speed 37.5 km/h Distance 34.52 km</desc>
<time>2011-09-29T11:36:03.29</time>
<name>5392</name>
</trkpt>
<trkpt lat="41.699487" lon="-0.751225">
<ele>325.5</ele>
<speed>37.3</speed>
<course>239.2</course>
<desc>Speed 37.3 km/h Distance 34.53 km</desc>
<time>2011-09-29T11:36:04.30</time>
<name>5393</name>
</trkpt>
<trkpt lat="41.699440" lon="-0.751330">
<ele>325.5</ele>
<speed>36.6</speed>
<course>238.0</course>
<desc>Speed 36.6 km/h Distance 34.54 km</desc>
<time>2011-09-29T11:36:05.29</time>
<name>5394</name>
</trkpt>
<trkpt lat="41.699393" lon="-0.751430">
<ele>326.0</ele>
<speed>35.7</speed>
<course>235.7</course>
<desc>Speed 35.7 km/h Distance 34.55 km</desc>
<time>2011-09-29T11:36:06.29</time>
<name>5395</name>
</trkpt>
<trkpt lat="41.699343" lon="-0.751528">
<ele>326.0</ele>
<speed>35.3</speed>
<course>237.1</course>
<desc>Speed 35.3 km/h Distance 34.56 km</desc>
<time>2011-09-29T11:36:07.29</time>
<name>5396</name>
</trkpt>
<trkpt lat="41.699297" lon="-0.751625">
<ele>326.0</ele>
<speed>34.8</speed>
<course>234.8</course>
<desc>Speed 34.8 km/h Distance 34.57 km</desc>
<time>2011-09-29T11:36:08.29</time>
<name>5397</name>
</trkpt>
<trkpt lat="41.699152" lon="-0.751900">
<ele>326.5</ele>
<speed>33.6</speed>
<course>231.9</course>
<desc>Speed 33.6 km/h Distance 34.60 km</desc>
<time>2011-09-29T11:36:11.29</time>
<name>5398</name>
</trkpt>
<trkpt lat="41.699100" lon="-0.751988">
<ele>326.5</ele>
<speed>33.6</speed>
<course>231.4</course>
<desc>Speed 33.6 km/h Distance 34.61 km</desc>
<time>2011-09-29T11:36:12.29</time>
<name>5399</name>
</trkpt>
<trkpt lat="41.699048" lon="-0.752075">
<ele>326.5</ele>
<speed>33.3</speed>
<course>229.4</course>
<desc>Speed 33.3 km/h Distance 34.62 km</desc>
<time>2011-09-29T11:36:13.29</time>
<name>5400</name>
</trkpt>
<trkpt lat="41.698995" lon="-0.752158">
<ele>326.5</ele>
<speed>32.9</speed>
<course>227.4</course>
<desc>Speed 32.9 km/h Distance 34.63 km</desc>
<time>2011-09-29T11:36:14.29</time>
<name>5401</name>
</trkpt>
<trkpt lat="41.698940" lon="-0.752238">
<ele>326.5</ele>
<speed>32.9</speed>
<course>228.0</course>
<desc>Speed 32.9 km/h Distance 34.63 km</desc>
<time>2011-09-29T11:36:15.29</time>
<name>5402</name>
</trkpt>
<trkpt lat="41.698885" lon="-0.752320">
<ele>326.5</ele>
<speed>33.0</speed>
<course>225.6</course>
<desc>Speed 33.0 km/h Distance 34.64 km</desc>
<time>2011-09-29T11:36:16.67</time>
<name>5403</name>
</trkpt>
<trkpt lat="41.698772" lon="-0.752475">
<ele>326.5</ele>
<speed>32.9</speed>
<course>225.1</course>
<desc>Speed 32.9 km/h Distance 34.66 km</desc>
<time>2011-09-29T11:36:18.29</time>
<name>5404</name>
</trkpt>
<trkpt lat="41.698713" lon="-0.752553">
<ele>326.5</ele>
<speed>33.1</speed>
<course>221.8</course>
<desc>Speed 33.1 km/h Distance 34.67 km</desc>
<time>2011-09-29T11:36:19.48</time>
<name>5405</name>
</trkpt>
<trkpt lat="41.698595" lon="-0.752695">
<ele>327.0</ele>
<speed>31.6</speed>
<course>219.7</course>
<desc>Speed 31.6 km/h Distance 34.69 km</desc>
<time>2011-09-29T11:36:21.28</time>
<name>5406</name>
</trkpt>
<trkpt lat="41.698535" lon="-0.752762">
<ele>327.0</ele>
<speed>31.2</speed>
<course>219.8</course>
<desc>Speed 31.2 km/h Distance 34.70 km</desc>
<time>2011-09-29T11:36:22.28</time>
<name>5407</name>
</trkpt>
<trkpt lat="41.698477" lon="-0.752827">
<ele>327.0</ele>
<speed>30.9</speed>
<course>218.2</course>
<desc>Speed 30.9 km/h Distance 34.71 km</desc>
<time>2011-09-29T11:36:23.28</time>
<name>5408</name>
</trkpt>
<trkpt lat="41.698417" lon="-0.752890">
<ele>327.0</ele>
<speed>30.6</speed>
<course>216.7</course>
<desc>Speed 30.6 km/h Distance 34.71 km</desc>
<time>2011-09-29T11:36:24.28</time>
<name>5409</name>
</trkpt>
<trkpt lat="41.698357" lon="-0.752950">
<ele>327.5</ele>
<speed>30.3</speed>
<course>216.8</course>
<desc>Speed 30.3 km/h Distance 34.72 km</desc>
<time>2011-09-29T11:36:25.28</time>
<name>5410</name>
</trkpt>
<trkpt lat="41.698297" lon="-0.753010">
<ele>327.5</ele>
<speed>30.2</speed>
<course>216.0</course>
<desc>Speed 30.2 km/h Distance 34.73 km</desc>
<time>2011-09-29T11:36:26.40</time>
<name>5411</name>
</trkpt>
<trkpt lat="41.698237" lon="-0.753068">
<ele>327.5</ele>
<speed>29.7</speed>
<course>214.4</course>
<desc>Speed 29.7 km/h Distance 34.74 km</desc>
<time>2011-09-29T11:36:27.28</time>
<name>5412</name>
</trkpt>
<trkpt lat="41.698177" lon="-0.753123">
<ele>328.0</ele>
<speed>29.8</speed>
<course>216.0</course>
<desc>Speed 29.8 km/h Distance 34.75 km</desc>
<time>2011-09-29T11:36:28.28</time>
<name>5413</name>
</trkpt>
<trkpt lat="41.698117" lon="-0.753182">
<ele>328.0</ele>
<speed>29.7</speed>
<course>213.7</course>
<desc>Speed 29.7 km/h Distance 34.76 km</desc>
<time>2011-09-29T11:36:29.29</time>
<name>5414</name>
</trkpt>
<trkpt lat="41.698055" lon="-0.753237">
<ele>328.0</ele>
<speed>29.5</speed>
<course>213.6</course>
<desc>Speed 29.5 km/h Distance 34.76 km</desc>
<time>2011-09-29T11:36:30.28</time>
<name>5415</name>
</trkpt>
<trkpt lat="41.697995" lon="-0.753290">
<ele>328.0</ele>
<speed>29.6</speed>
<course>210.5</course>
<desc>Speed 29.6 km/h Distance 34.77 km</desc>
<time>2011-09-29T11:36:31.28</time>
<name>5416</name>
</trkpt>
<trkpt lat="41.697932" lon="-0.753340">
<ele>328.5</ele>
<speed>29.7</speed>
<course>211.4</course>
<desc>Speed 29.7 km/h Distance 34.78 km</desc>
<time>2011-09-29T11:36:32.27</time>
<name>5417</name>
</trkpt>
<trkpt lat="41.697868" lon="-0.753392">
<ele>328.5</ele>
<speed>29.8</speed>
<course>215.2</course>
<desc>Speed 29.8 km/h Distance 34.79 km</desc>
<time>2011-09-29T11:36:33.28</time>
<name>5418</name>
</trkpt>
<trkpt lat="41.697808" lon="-0.753448">
<ele>328.5</ele>
<speed>29.6</speed>
<course>214.4</course>
<desc>Speed 29.6 km/h Distance 34.80 km</desc>
<time>2011-09-29T11:36:34.27</time>
<name>5419</name>
</trkpt>
<trkpt lat="41.697748" lon="-0.753503">
<ele>328.5</ele>
<speed>29.3</speed>
<course>214.4</course>
<desc>Speed 29.3 km/h Distance 34.80 km</desc>
<time>2011-09-29T11:36:35.27</time>
<name>5420</name>
</trkpt>
<trkpt lat="41.697688" lon="-0.753558">
<ele>328.5</ele>
<speed>29.2</speed>
<course>212.7</course>
<desc>Speed 29.2 km/h Distance 34.81 km</desc>
<time>2011-09-29T11:36:36.27</time>
<name>5421</name>
</trkpt>
<trkpt lat="41.697628" lon="-0.753610">
<ele>329.0</ele>
<speed>28.9</speed>
<course>212.7</course>
<desc>Speed 28.9 km/h Distance 34.82 km</desc>
<time>2011-09-29T11:36:37.28</time>
<name>5422</name>
</trkpt>
<trkpt lat="41.697568" lon="-0.753662">
<ele>329.0</ele>
<speed>28.9</speed>
<course>213.5</course>
<desc>Speed 28.9 km/h Distance 34.83 km</desc>
<time>2011-09-29T11:36:39.05</time>
<name>5423</name>
</trkpt>
<trkpt lat="41.697392" lon="-0.753818">
<ele>329.0</ele>
<speed>27.8</speed>
<course>213.4</course>
<desc>Speed 27.8 km/h Distance 34.85 km</desc>
<time>2011-09-29T11:36:41.27</time>
<name>5424</name>
</trkpt>
<trkpt lat="41.697335" lon="-0.753868">
<ele>329.0</ele>
<speed>27.3</speed>
<course>214.2</course>
<desc>Speed 27.3 km/h Distance 34.86 km</desc>
<time>2011-09-29T11:36:42.27</time>
<name>5425</name>
</trkpt>
<trkpt lat="41.697280" lon="-0.753918">
<ele>329.0</ele>
<speed>27.0</speed>
<course>215.0</course>
<desc>Speed 27.0 km/h Distance 34.87 km</desc>
<time>2011-09-29T11:36:43.27</time>
<name>5426</name>
</trkpt>
<trkpt lat="41.697227" lon="-0.753968">
<ele>329.0</ele>
<speed>26.3</speed>
<course>214.9</course>
<desc>Speed 26.3 km/h Distance 34.87 km</desc>
<time>2011-09-29T11:36:44.27</time>
<name>5427</name>
</trkpt>
<trkpt lat="41.697177" lon="-0.754015">
<ele>329.0</ele>
<speed>25.3</speed>
<course>212.1</course>
<desc>Speed 25.3 km/h Distance 34.88 km</desc>
<time>2011-09-29T11:36:45.27</time>
<name>5428</name>
</trkpt>
<trkpt lat="41.697125" lon="-0.754058">
<ele>329.0</ele>
<speed>24.4</speed>
<course>214.9</course>
<desc>Speed 24.4 km/h Distance 34.89 km</desc>
<time>2011-09-29T11:36:46.27</time>
<name>5429</name>
</trkpt>
<trkpt lat="41.697075" lon="-0.754105">
<ele>329.5</ele>
<speed>24.6</speed>
<course>214.9</course>
<desc>Speed 24.6 km/h Distance 34.89 km</desc>
<time>2011-09-29T11:36:47.26</time>
<name>5430</name>
</trkpt>
<trkpt lat="41.697025" lon="-0.754152">
<ele>329.5</ele>
<speed>24.8</speed>
<course>216.3</course>
<desc>Speed 24.8 km/h Distance 34.90 km</desc>
<time>2011-09-29T11:36:48.90</time>
<name>5431</name>
</trkpt>
<trkpt lat="41.696923" lon="-0.754252">
<ele>329.5</ele>
<speed>26.0</speed>
<course>216.7</course>
<desc>Speed 26.0 km/h Distance 34.92 km</desc>
<time>2011-09-29T11:36:51.26</time>
<name>5432</name>
</trkpt>
<trkpt lat="41.696873" lon="-0.754302">
<ele>329.5</ele>
<speed>25.3</speed>
<course>213.0</course>
<desc>Speed 25.3 km/h Distance 34.92 km</desc>
<time>2011-09-29T11:36:52.27</time>
<name>5433</name>
</trkpt>
<trkpt lat="41.696822" lon="-0.754347">
<ele>329.5</ele>
<speed>24.8</speed>
<course>218.6</course>
<desc>Speed 24.8 km/h Distance 34.93 km</desc>
<time>2011-09-29T11:36:53.26</time>
<name>5434</name>
</trkpt>
<trkpt lat="41.696775" lon="-0.754397">
<ele>329.5</ele>
<speed>24.4</speed>
<course>215.8</course>
<desc>Speed 24.4 km/h Distance 34.94 km</desc>
<time>2011-09-29T11:36:54.26</time>
<name>5435</name>
</trkpt>
<trkpt lat="41.696725" lon="-0.754445">
<ele>329.5</ele>
<speed>24.4</speed>
<course>216.8</course>
<desc>Speed 24.4 km/h Distance 34.94 km</desc>
<time>2011-09-29T11:36:55.26</time>
<name>5436</name>
</trkpt>
<trkpt lat="41.696677" lon="-0.754493">
<ele>329.5</ele>
<speed>24.7</speed>
<course>216.7</course>
<desc>Speed 24.7 km/h Distance 34.95 km</desc>
<time>2011-09-29T11:36:56.26</time>
<name>5437</name>
</trkpt>
<trkpt lat="41.696627" lon="-0.754543">
<ele>329.5</ele>
<speed>25.1</speed>
<course>216.7</course>
<desc>Speed 25.1 km/h Distance 34.96 km</desc>
<time>2011-09-29T11:36:57.26</time>
<name>5438</name>
</trkpt>
<trkpt lat="41.696577" lon="-0.754593">
<ele>329.5</ele>
<speed>25.3</speed>
<course>217.6</course>
<desc>Speed 25.3 km/h Distance 34.96 km</desc>
<time>2011-09-29T11:36:58.26</time>
<name>5439</name>
</trkpt>
<trkpt lat="41.696527" lon="-0.754645">
<ele>329.5</ele>
<speed>25.7</speed>
<course>217.6</course>
<desc>Speed 25.7 km/h Distance 34.97 km</desc>
<time>2011-09-29T11:36:59.67</time>
<name>5440</name>
</trkpt>
<trkpt lat="41.696423" lon="-0.754752">
<ele>329.5</ele>
<speed>26.6</speed>
<course>216.7</course>
<desc>Speed 26.6 km/h Distance 34.99 km</desc>
<time>2011-09-29T11:37:01.25</time>
<name>5441</name>
</trkpt>
<trkpt lat="41.696370" lon="-0.754805">
<ele>329.5</ele>
<speed>26.6</speed>
<course>218.5</course>
<desc>Speed 26.6 km/h Distance 34.99 km</desc>
<time>2011-09-29T11:37:02.26</time>
<name>5442</name>
</trkpt>
<trkpt lat="41.696318" lon="-0.754860">
<ele>329.5</ele>
<speed>26.9</speed>
<course>218.4</course>
<desc>Speed 26.9 km/h Distance 35.00 km</desc>
<time>2011-09-29T11:37:03.25</time>
<name>5443</name>
</trkpt>
<trkpt lat="41.696265" lon="-0.754917">
<ele>329.5</ele>
<speed>27.4</speed>
<course>217.6</course>
<desc>Speed 27.4 km/h Distance 35.01 km</desc>
<time>2011-09-29T11:37:04.25</time>
<name>5444</name>
</trkpt>
<trkpt lat="41.696210" lon="-0.754973">
<ele>329.5</ele>
<speed>28.0</speed>
<course>218.4</course>
<desc>Speed 28.0 km/h Distance 35.02 km</desc>
<time>2011-09-29T11:37:05.25</time>
<name>5445</name>
</trkpt>
<trkpt lat="41.696155" lon="-0.755032">
<ele>329.5</ele>
<speed>28.1</speed>
<course>218.8</course>
<desc>Speed 28.1 km/h Distance 35.02 km</desc>
<time>2011-09-29T11:37:06.61</time>
<name>5446</name>
</trkpt>
<trkpt lat="41.696045" lon="-0.755150">
<ele>329.5</ele>
<speed>28.5</speed>
<course>220.7</course>
<desc>Speed 28.5 km/h Distance 35.04 km</desc>
<time>2011-09-29T11:37:08.24</time>
<name>5447</name>
</trkpt>
<trkpt lat="41.695990" lon="-0.755213">
<ele>329.0</ele>
<speed>28.9</speed>
<course>219.5</course>
<desc>Speed 28.9 km/h Distance 35.05 km</desc>
<time>2011-09-29T11:37:09.43</time>
<name>5448</name>
</trkpt>
<trkpt lat="41.695878" lon="-0.755337">
<ele>329.0</ele>
<speed>29.1</speed>
<course>219.2</course>
<desc>Speed 29.1 km/h Distance 35.06 km</desc>
<time>2011-09-29T11:37:11.25</time>
<name>5449</name>
</trkpt>
<trkpt lat="41.695823" lon="-0.755397">
<ele>329.0</ele>
<speed>29.1</speed>
<course>220.7</course>
<desc>Speed 29.1 km/h Distance 35.07 km</desc>
<time>2011-09-29T11:37:12.24</time>
<name>5450</name>
</trkpt>
<trkpt lat="41.695768" lon="-0.755460">
<ele>329.0</ele>
<speed>29.2</speed>
<course>220.7</course>
<desc>Speed 29.2 km/h Distance 35.08 km</desc>
<time>2011-09-29T11:37:13.25</time>
<name>5451</name>
</trkpt>
<trkpt lat="41.695713" lon="-0.755523">
<ele>329.0</ele>
<speed>28.8</speed>
<course>219.2</course>
<desc>Speed 28.8 km/h Distance 35.09 km</desc>
<time>2011-09-29T11:37:14.25</time>
<name>5452</name>
</trkpt>
<trkpt lat="41.695658" lon="-0.755583">
<ele>329.0</ele>
<speed>28.8</speed>
<course>220.8</course>
<desc>Speed 28.8 km/h Distance 35.09 km</desc>
<time>2011-09-29T11:37:15.25</time>
<name>5453</name>
</trkpt>
<trkpt lat="41.695605" lon="-0.755645">
<ele>329.0</ele>
<speed>28.4</speed>
<course>220.0</course>
<desc>Speed 28.4 km/h Distance 35.10 km</desc>
<time>2011-09-29T11:37:16.38</time>
<name>5454</name>
</trkpt>
<trkpt lat="41.695552" lon="-0.755705">
<ele>329.0</ele>
<speed>28.2</speed>
<course>220.8</course>
<desc>Speed 28.2 km/h Distance 35.11 km</desc>
<time>2011-09-29T11:37:17.24</time>
<name>5455</name>
</trkpt>
<trkpt lat="41.695498" lon="-0.755767">
<ele>329.0</ele>
<speed>27.9</speed>
<course>221.7</course>
<desc>Speed 27.9 km/h Distance 35.12 km</desc>
<time>2011-09-29T11:37:18.24</time>
<name>5456</name>
</trkpt>
<trkpt lat="41.695447" lon="-0.755828">
<ele>329.0</ele>
<speed>28.0</speed>
<course>222.5</course>
<desc>Speed 28.0 km/h Distance 35.13 km</desc>
<time>2011-09-29T11:37:19.26</time>
<name>5457</name>
</trkpt>
<trkpt lat="41.695395" lon="-0.755892">
<ele>329.5</ele>
<speed>28.2</speed>
<course>220.8</course>
<desc>Speed 28.2 km/h Distance 35.13 km</desc>
<time>2011-09-29T11:37:20.25</time>
<name>5458</name>
</trkpt>
<trkpt lat="41.695342" lon="-0.755953">
<ele>329.0</ele>
<speed>28.4</speed>
<course>220.8</course>
<desc>Speed 28.4 km/h Distance 35.14 km</desc>
<time>2011-09-29T11:37:21.24</time>
<name>5459</name>
</trkpt>
<trkpt lat="41.695288" lon="-0.756015">
<ele>329.0</ele>
<speed>28.4</speed>
<course>220.8</course>
<desc>Speed 28.4 km/h Distance 35.15 km</desc>
<time>2011-09-29T11:37:22.24</time>
<name>5460</name>
</trkpt>
<trkpt lat="41.695235" lon="-0.756077">
<ele>329.0</ele>
<speed>28.2</speed>
<course>221.7</course>
<desc>Speed 28.2 km/h Distance 35.16 km</desc>
<time>2011-09-29T11:37:23.24</time>
<name>5461</name>
</trkpt>
<trkpt lat="41.695183" lon="-0.756138">
<ele>329.0</ele>
<speed>28.1</speed>
<course>223.2</course>
<desc>Speed 28.1 km/h Distance 35.17 km</desc>
<time>2011-09-29T11:37:24.24</time>
<name>5462</name>
</trkpt>
<trkpt lat="41.695132" lon="-0.756203">
<ele>329.0</ele>
<speed>28.5</speed>
<course>221.6</course>
<desc>Speed 28.5 km/h Distance 35.17 km</desc>
<time>2011-09-29T11:37:25.24</time>
<name>5463</name>
</trkpt>
<trkpt lat="41.695078" lon="-0.756267">
<ele>329.0</ele>
<speed>28.8</speed>
<course>223.2</course>
<desc>Speed 28.8 km/h Distance 35.18 km</desc>
<time>2011-09-29T11:37:26.24</time>
<name>5464</name>
</trkpt>
<trkpt lat="41.695027" lon="-0.756332">
<ele>329.0</ele>
<speed>28.8</speed>
<course>221.9</course>
<desc>Speed 28.8 km/h Distance 35.19 km</desc>
<time>2011-09-29T11:37:27.24</time>
<name>5465</name>
</trkpt>
<trkpt lat="41.694870" lon="-0.756520">
<ele>328.5</ele>
<speed>28.4</speed>
<course>220.8</course>
<desc>Speed 28.4 km/h Distance 35.21 km</desc>
<time>2011-09-29T11:37:30.23</time>
<name>5466</name>
</trkpt>
<trkpt lat="41.694817" lon="-0.756582">
<ele>328.5</ele>
<speed>28.7</speed>
<course>223.2</course>
<desc>Speed 28.7 km/h Distance 35.22 km</desc>
<time>2011-09-29T11:37:31.23</time>
<name>5467</name>
</trkpt>
<trkpt lat="41.694765" lon="-0.756647">
<ele>328.0</ele>
<speed>28.7</speed>
<course>221.6</course>
<desc>Speed 28.7 km/h Distance 35.23 km</desc>
<time>2011-09-29T11:37:32.23</time>
<name>5468</name>
</trkpt>
<trkpt lat="41.694712" lon="-0.756710">
<ele>328.0</ele>
<speed>28.9</speed>
<course>220.7</course>
<desc>Speed 28.9 km/h Distance 35.24 km</desc>
<time>2011-09-29T11:37:33.23</time>
<name>5469</name>
</trkpt>
<trkpt lat="41.694657" lon="-0.756773">
<ele>328.0</ele>
<speed>29.3</speed>
<course>222.3</course>
<desc>Speed 29.3 km/h Distance 35.24 km</desc>
<time>2011-09-29T11:37:34.23</time>
<name>5470</name>
</trkpt>
<trkpt lat="41.694603" lon="-0.756838">
<ele>328.0</ele>
<speed>29.3</speed>
<course>223.0</course>
<desc>Speed 29.3 km/h Distance 35.25 km</desc>
<time>2011-09-29T11:37:35.23</time>
<name>5471</name>
</trkpt>
<trkpt lat="41.694550" lon="-0.756905">
<ele>327.5</ele>
<speed>29.4</speed>
<course>222.3</course>
<desc>Speed 29.4 km/h Distance 35.26 km</desc>
<time>2011-09-29T11:37:36.23</time>
<name>5472</name>
</trkpt>
<trkpt lat="41.694497" lon="-0.756970">
<ele>327.5</ele>
<speed>29.6</speed>
<course>220.6</course>
<desc>Speed 29.6 km/h Distance 35.27 km</desc>
<time>2011-09-29T11:37:37.23</time>
<name>5473</name>
</trkpt>
<trkpt lat="41.694440" lon="-0.757035">
<ele>327.5</ele>
<speed>29.7</speed>
<course>222.1</course>
<desc>Speed 29.7 km/h Distance 35.28 km</desc>
<time>2011-09-29T11:37:38.90</time>
<name>5474</name>
</trkpt>
<trkpt lat="41.694275" lon="-0.757235">
<ele>327.5</ele>
<speed>29.7</speed>
<course>223.9</course>
<desc>Speed 29.7 km/h Distance 35.30 km</desc>
<time>2011-09-29T11:37:41.23</time>
<name>5475</name>
</trkpt>
<trkpt lat="41.694223" lon="-0.757302">
<ele>327.5</ele>
<speed>29.4</speed>
<course>223.7</course>
<desc>Speed 29.4 km/h Distance 35.31 km</desc>
<time>2011-09-29T11:37:42.23</time>
<name>5476</name>
</trkpt>
<trkpt lat="41.694170" lon="-0.757370">
<ele>327.5</ele>
<speed>29.2</speed>
<course>225.6</course>
<desc>Speed 29.2 km/h Distance 35.32 km</desc>
<time>2011-09-29T11:37:43.23</time>
<name>5477</name>
</trkpt>
<trkpt lat="41.694120" lon="-0.757438">
<ele>327.5</ele>
<speed>29.1</speed>
<course>224.6</course>
<desc>Speed 29.1 km/h Distance 35.33 km</desc>
<time>2011-09-29T11:37:44.22</time>
<name>5478</name>
</trkpt>
<trkpt lat="41.694068" lon="-0.757507">
<ele>327.5</ele>
<speed>29.0</speed>
<course>226.5</course>
<desc>Speed 29.0 km/h Distance 35.33 km</desc>
<time>2011-09-29T11:37:45.22</time>
<name>5479</name>
</trkpt>
<trkpt lat="41.694020" lon="-0.757575">
<ele>327.5</ele>
<speed>28.5</speed>
<course>227.2</course>
<desc>Speed 28.5 km/h Distance 35.34 km</desc>
<time>2011-09-29T11:37:46.22</time>
<name>5480</name>
</trkpt>
<trkpt lat="41.693972" lon="-0.757645">
<ele>327.0</ele>
<speed>28.5</speed>
<course>230.6</course>
<desc>Speed 28.5 km/h Distance 35.35 km</desc>
<time>2011-09-29T11:37:47.22</time>
<name>5481</name>
</trkpt>
<trkpt lat="41.693927" lon="-0.757718">
<ele>327.0</ele>
<speed>28.8</speed>
<course>231.0</course>
<desc>Speed 28.8 km/h Distance 35.36 km</desc>
<time>2011-09-29T11:37:48.69</time>
<name>5482</name>
</trkpt>
<trkpt lat="41.693835" lon="-0.757870">
<ele>327.0</ele>
<speed>29.3</speed>
<course>232.4</course>
<desc>Speed 29.3 km/h Distance 35.37 km</desc>
<time>2011-09-29T11:37:50.22</time>
<name>5483</name>
</trkpt>
<trkpt lat="41.693790" lon="-0.757948">
<ele>326.5</ele>
<speed>29.8</speed>
<course>231.4</course>
<desc>Speed 29.8 km/h Distance 35.38 km</desc>
<time>2011-09-29T11:37:51.22</time>
<name>5484</name>
</trkpt>
<trkpt lat="41.693743" lon="-0.758027">
<ele>326.5</ele>
<speed>30.1</speed>
<course>234.6</course>
<desc>Speed 30.1 km/h Distance 35.39 km</desc>
<time>2011-09-29T11:37:52.22</time>
<name>5485</name>
</trkpt>
<trkpt lat="41.693700" lon="-0.758108">
<ele>326.5</ele>
<speed>30.0</speed>
<course>234.6</course>
<desc>Speed 30.0 km/h Distance 35.40 km</desc>
<time>2011-09-29T11:37:53.22</time>
<name>5486</name>
</trkpt>
<trkpt lat="41.693657" lon="-0.758190">
<ele>326.5</ele>
<speed>30.0</speed>
<course>237.8</course>
<desc>Speed 30.0 km/h Distance 35.41 km</desc>
<time>2011-09-29T11:37:54.22</time>
<name>5487</name>
</trkpt>
<trkpt lat="41.693617" lon="-0.758275">
<ele>326.0</ele>
<speed>30.2</speed>
<course>238.3</course>
<desc>Speed 30.2 km/h Distance 35.41 km</desc>
<time>2011-09-29T11:37:55.22</time>
<name>5488</name>
</trkpt>
<trkpt lat="41.693577" lon="-0.758362">
<ele>326.0</ele>
<speed>30.6</speed>
<course>237.2</course>
<desc>Speed 30.6 km/h Distance 35.42 km</desc>
<time>2011-09-29T11:37:56.22</time>
<name>5489</name>
</trkpt>
<trkpt lat="41.693535" lon="-0.758448">
<ele>326.0</ele>
<speed>31.1</speed>
<course>239.2</course>
<desc>Speed 31.1 km/h Distance 35.43 km</desc>
<time>2011-09-29T11:37:57.22</time>
<name>5490</name>
</trkpt>
<trkpt lat="41.693495" lon="-0.758538">
<ele>325.5</ele>
<speed>31.2</speed>
<course>239.2</course>
<desc>Speed 31.2 km/h Distance 35.44 km</desc>
<time>2011-09-29T11:37:58.49</time>
<name>5491</name>
</trkpt>
<trkpt lat="41.693415" lon="-0.758718">
<ele>325.0</ele>
<speed>31.6</speed>
<course>241.2</course>
<desc>Speed 31.6 km/h Distance 35.46 km</desc>
<time>2011-09-29T11:38:00.22</time>
<name>5492</name>
</trkpt>
<trkpt lat="41.693377" lon="-0.758812">
<ele>325.0</ele>
<speed>31.8</speed>
<course>242.4</course>
<desc>Speed 31.8 km/h Distance 35.47 km</desc>
<time>2011-09-29T11:38:01.21</time>
<name>5493</name>
</trkpt>
<trkpt lat="41.693338" lon="-0.758910">
<ele>324.5</ele>
<speed>33.5</speed>
<course>242.8</course>
<desc>Speed 33.5 km/h Distance 35.48 km</desc>
<time>2011-09-29T11:38:02.21</time>
<name>5494</name>
</trkpt>
<trkpt lat="41.693300" lon="-0.759010">
<ele>324.5</ele>
<speed>33.8</speed>
<course>243.6</course>
<desc>Speed 33.8 km/h Distance 35.49 km</desc>
<time>2011-09-29T11:38:03.21</time>
<name>5495</name>
</trkpt>
<trkpt lat="41.693262" lon="-0.759113">
<ele>324.0</ele>
<speed>34.2</speed>
<course>244.2</course>
<desc>Speed 34.2 km/h Distance 35.50 km</desc>
<time>2011-09-29T11:38:04.21</time>
<name>5496</name>
</trkpt>
<trkpt lat="41.693225" lon="-0.759215">
<ele>323.5</ele>
<speed>34.2</speed>
<course>243.7</course>
<desc>Speed 34.2 km/h Distance 35.50 km</desc>
<time>2011-09-29T11:38:05.55</time>
<name>5497</name>
</trkpt>
<trkpt lat="41.693150" lon="-0.759418">
<ele>323.0</ele>
<speed>33.7</speed>
<course>242.4</course>
<desc>Speed 33.7 km/h Distance 35.52 km</desc>
<time>2011-09-29T11:38:07.21</time>
<name>5498</name>
</trkpt>
<trkpt lat="41.693112" lon="-0.759517">
<ele>322.5</ele>
<speed>33.4</speed>
<course>242.8</course>
<desc>Speed 33.4 km/h Distance 35.53 km</desc>
<time>2011-09-29T11:38:08.35</time>
<name>5499</name>
</trkpt>
<trkpt lat="41.693073" lon="-0.759617">
<ele>322.0</ele>
<speed>33.8</speed>
<course>242.2</course>
<desc>Speed 33.8 km/h Distance 35.54 km</desc>
<time>2011-09-29T11:38:09.21</time>
<name>5500</name>
</trkpt>
<trkpt lat="41.693033" lon="-0.759718">
<ele>321.5</ele>
<speed>34.1</speed>
<course>241.6</course>
<desc>Speed 34.1 km/h Distance 35.55 km</desc>
<time>2011-09-29T11:38:10.21</time>
<name>5501</name>
</trkpt>
<trkpt lat="41.692992" lon="-0.759822">
<ele>321.5</ele>
<speed>35.0</speed>
<course>242.0</course>
<desc>Speed 35.0 km/h Distance 35.56 km</desc>
<time>2011-09-29T11:38:11.20</time>
<name>5502</name>
</trkpt>
<trkpt lat="41.692950" lon="-0.759927">
<ele>321.0</ele>
<speed>35.9</speed>
<course>239.2</course>
<desc>Speed 35.9 km/h Distance 35.57 km</desc>
<time>2011-09-29T11:38:12.21</time>
<name>5503</name>
</trkpt>
<trkpt lat="41.692903" lon="-0.760032">
<ele>320.5</ele>
<speed>36.5</speed>
<course>238.3</course>
<desc>Speed 36.5 km/h Distance 35.58 km</desc>
<time>2011-09-29T11:38:13.20</time>
<name>5504</name>
</trkpt>
<trkpt lat="41.692855" lon="-0.760137">
<ele>320.0</ele>
<speed>36.9</speed>
<course>236.2</course>
<desc>Speed 36.9 km/h Distance 35.59 km</desc>
<time>2011-09-29T11:38:14.20</time>
<name>5505</name>
</trkpt>
<trkpt lat="41.692803" lon="-0.760240">
<ele>320.0</ele>
<speed>37.4</speed>
<course>235.6</course>
<desc>Speed 37.4 km/h Distance 35.60 km</desc>
<time>2011-09-29T11:38:15.38</time>
<name>5506</name>
</trkpt>
<trkpt lat="41.692697" lon="-0.760448">
<ele>319.0</ele>
<speed>38.2</speed>
<course>232.9</course>
<desc>Speed 38.2 km/h Distance 35.62 km</desc>
<time>2011-09-29T11:38:17.20</time>
<name>5507</name>
</trkpt>
<trkpt lat="41.692638" lon="-0.760552">
<ele>318.5</ele>
<speed>38.6</speed>
<course>233.2</course>
<desc>Speed 38.6 km/h Distance 35.63 km</desc>
<time>2011-09-29T11:38:18.20</time>
<name>5508</name>
</trkpt>
<trkpt lat="41.692583" lon="-0.760650">
<ele>318.5</ele>
<speed>36.9</speed>
<course>230.9</course>
<desc>Speed 36.9 km/h Distance 35.64 km</desc>
<time>2011-09-29T11:38:19.20</time>
<name>5509</name>
</trkpt>
<trkpt lat="41.692527" lon="-0.760743">
<ele>318.0</ele>
<speed>36.1</speed>
<course>231.4</course>
<desc>Speed 36.1 km/h Distance 35.65 km</desc>
<time>2011-09-29T11:38:20.20</time>
<name>5510</name>
</trkpt>
<trkpt lat="41.692470" lon="-0.760838">
<ele>317.5</ele>
<speed>36.6</speed>
<course>229.3</course>
<desc>Speed 36.6 km/h Distance 35.66 km</desc>
<time>2011-09-29T11:38:21.20</time>
<name>5511</name>
</trkpt>
<trkpt lat="41.692410" lon="-0.760932">
<ele>317.5</ele>
<speed>37.2</speed>
<course>229.0</course>
<desc>Speed 37.2 km/h Distance 35.67 km</desc>
<time>2011-09-29T11:38:22.20</time>
<name>5512</name>
</trkpt>
<trkpt lat="41.692348" lon="-0.761027">
<ele>317.0</ele>
<speed>37.7</speed>
<course>229.5</course>
<desc>Speed 37.7 km/h Distance 35.68 km</desc>
<time>2011-09-29T11:38:23.20</time>
<name>5513</name>
</trkpt>
<trkpt lat="41.692287" lon="-0.761123">
<ele>316.5</ele>
<speed>38.1</speed>
<course>232.8</course>
<desc>Speed 38.1 km/h Distance 35.70 km</desc>
<time>2011-09-29T11:38:24.20</time>
<name>5514</name>
</trkpt>
<trkpt lat="41.692230" lon="-0.761223">
<ele>316.0</ele>
<speed>38.2</speed>
<course>230.8</course>
<desc>Speed 38.2 km/h Distance 35.71 km</desc>
<time>2011-09-29T11:38:25.38</time>
<name>5515</name>
</trkpt>
<trkpt lat="41.692108" lon="-0.761423">
<ele>314.5</ele>
<speed>38.7</speed>
<course>230.4</course>
<desc>Speed 38.7 km/h Distance 35.73 km</desc>
<time>2011-09-29T11:38:27.20</time>
<name>5516</name>
</trkpt>
<trkpt lat="41.692047" lon="-0.761523">
<ele>314.0</ele>
<speed>38.8</speed>
<course>230.7</course>
<desc>Speed 38.8 km/h Distance 35.74 km</desc>
<time>2011-09-29T11:38:28.20</time>
<name>5517</name>
</trkpt>
<trkpt lat="41.691987" lon="-0.761622">
<ele>313.5</ele>
<speed>38.3</speed>
<course>232.5</course>
<desc>Speed 38.3 km/h Distance 35.75 km</desc>
<time>2011-09-29T11:38:29.19</time>
<name>5518</name>
</trkpt>
<trkpt lat="41.691928" lon="-0.761723">
<ele>313.0</ele>
<speed>38.2</speed>
<course>232.0</course>
<desc>Speed 38.2 km/h Distance 35.76 km</desc>
<time>2011-09-29T11:38:30.19</time>
<name>5519</name>
</trkpt>
<trkpt lat="41.691870" lon="-0.761823">
<ele>312.5</ele>
<speed>38.3</speed>
<course>233.3</course>
<desc>Speed 38.3 km/h Distance 35.77 km</desc>
<time>2011-09-29T11:38:31.19</time>
<name>5520</name>
</trkpt>
<trkpt lat="41.691813" lon="-0.761925">
<ele>312.0</ele>
<speed>38.4</speed>
<course>234.6</course>
<desc>Speed 38.4 km/h Distance 35.78 km</desc>
<time>2011-09-29T11:38:32.19</time>
<name>5521</name>
</trkpt>
<trkpt lat="41.691757" lon="-0.762032">
<ele>311.5</ele>
<speed>38.7</speed>
<course>235.0</course>
<desc>Speed 38.7 km/h Distance 35.79 km</desc>
<time>2011-09-29T11:38:33.19</time>
<name>5522</name>
</trkpt>
<trkpt lat="41.691702" lon="-0.762137">
<ele>311.0</ele>
<speed>38.9</speed>
<course>235.8</course>
<desc>Speed 38.9 km/h Distance 35.80 km</desc>
<time>2011-09-29T11:38:34.19</time>
<name>5523</name>
</trkpt>
<trkpt lat="41.691647" lon="-0.762245">
<ele>310.5</ele>
<speed>39.0</speed>
<course>238.4</course>
<desc>Speed 39.0 km/h Distance 35.81 km</desc>
<time>2011-09-29T11:38:35.50</time>
<name>5524</name>
</trkpt>
<trkpt lat="41.691545" lon="-0.762467">
<ele>309.5</ele>
<speed>39.2</speed>
<course>241.1</course>
<desc>Speed 39.2 km/h Distance 35.83 km</desc>
<time>2011-09-29T11:38:37.19</time>
<name>5525</name>
</trkpt>
<trkpt lat="41.691498" lon="-0.762580">
<ele>309.0</ele>
<speed>38.8</speed>
<course>242.7</course>
<desc>Speed 38.8 km/h Distance 35.84 km</desc>
<time>2011-09-29T11:38:38.30</time>
<name>5526</name>
</trkpt>
<trkpt lat="41.691453" lon="-0.762697">
<ele>309.0</ele>
<speed>39.0</speed>
<course>242.9</course>
<desc>Speed 39.0 km/h Distance 35.86 km</desc>
<time>2011-09-29T11:38:39.19</time>
<name>5527</name>
</trkpt>
<trkpt lat="41.691410" lon="-0.762810">
<ele>308.5</ele>
<speed>38.6</speed>
<course>243.2</course>
<desc>Speed 38.6 km/h Distance 35.87 km</desc>
<time>2011-09-29T11:38:40.19</time>
<name>5528</name>
</trkpt>
<trkpt lat="41.691367" lon="-0.762925">
<ele>308.0</ele>
<speed>38.6</speed>
<course>246.2</course>
<desc>Speed 38.6 km/h Distance 35.88 km</desc>
<time>2011-09-29T11:38:41.19</time>
<name>5529</name>
</trkpt>
<trkpt lat="41.691328" lon="-0.763042">
<ele>307.5</ele>
<speed>38.1</speed>
<course>248.1</course>
<desc>Speed 38.1 km/h Distance 35.89 km</desc>
<time>2011-09-29T11:38:42.19</time>
<name>5530</name>
</trkpt>
<trkpt lat="41.691293" lon="-0.763158">
<ele>307.5</ele>
<speed>38.1</speed>
<course>247.2</course>
<desc>Speed 38.1 km/h Distance 35.90 km</desc>
<time>2011-09-29T11:38:43.18</time>
<name>5531</name>
</trkpt>
<trkpt lat="41.691257" lon="-0.763275">
<ele>307.0</ele>
<speed>38.2</speed>
<course>249.3</course>
<desc>Speed 38.2 km/h Distance 35.91 km</desc>
<time>2011-09-29T11:38:44.18</time>
<name>5532</name>
</trkpt>
<trkpt lat="41.691223" lon="-0.763393">
<ele>307.0</ele>
<speed>38.1</speed>
<course>251.5</course>
<desc>Speed 38.1 km/h Distance 35.92 km</desc>
<time>2011-09-29T11:38:45.26</time>
<name>5533</name>
</trkpt>
<trkpt lat="41.691193" lon="-0.763513">
<ele>306.5</ele>
<speed>38.3</speed>
<course>251.7</course>
<desc>Speed 38.3 km/h Distance 35.93 km</desc>
<time>2011-09-29T11:38:46.18</time>
<name>5534</name>
</trkpt>
<trkpt lat="41.691163" lon="-0.763635">
<ele>306.5</ele>
<speed>38.1</speed>
<course>250.0</course>
<desc>Speed 38.1 km/h Distance 35.94 km</desc>
<time>2011-09-29T11:38:47.18</time>
<name>5535</name>
</trkpt>
<trkpt lat="41.691132" lon="-0.763752">
<ele>306.0</ele>
<speed>37.7</speed>
<course>252.2</course>
<desc>Speed 37.7 km/h Distance 35.95 km</desc>
<time>2011-09-29T11:38:48.18</time>
<name>5536</name>
</trkpt>
<trkpt lat="41.691103" lon="-0.763870">
<ele>306.0</ele>
<speed>37.4</speed>
<course>253.0</course>
<desc>Speed 37.4 km/h Distance 35.96 km</desc>
<time>2011-09-29T11:38:49.18</time>
<name>5537</name>
</trkpt>
<trkpt lat="41.691077" lon="-0.763987">
<ele>305.5</ele>
<speed>36.9</speed>
<course>253.0</course>
<desc>Speed 36.9 km/h Distance 35.97 km</desc>
<time>2011-09-29T11:38:50.18</time>
<name>5538</name>
</trkpt>
<trkpt lat="41.691050" lon="-0.764103">
<ele>305.5</ele>
<speed>36.5</speed>
<course>251.5</course>
<desc>Speed 36.5 km/h Distance 35.98 km</desc>
<time>2011-09-29T11:38:51.18</time>
<name>5539</name>
</trkpt>
<trkpt lat="41.691022" lon="-0.764217">
<ele>305.5</ele>
<speed>36.0</speed>
<course>252.3</course>
<desc>Speed 36.0 km/h Distance 35.99 km</desc>
<time>2011-09-29T11:38:52.18</time>
<name>5540</name>
</trkpt>
<trkpt lat="41.690995" lon="-0.764328">
<ele>305.0</ele>
<speed>35.5</speed>
<course>253.3</course>
<desc>Speed 35.5 km/h Distance 36.00 km</desc>
<time>2011-09-29T11:38:53.18</time>
<name>5541</name>
</trkpt>
<trkpt lat="41.690970" lon="-0.764440">
<ele>305.0</ele>
<speed>34.8</speed>
<course>252.8</course>
<desc>Speed 34.8 km/h Distance 36.01 km</desc>
<time>2011-09-29T11:38:54.18</time>
<name>5542</name>
</trkpt>
<trkpt lat="41.690945" lon="-0.764548">
<ele>305.0</ele>
<speed>34.3</speed>
<course>252.8</course>
<desc>Speed 34.3 km/h Distance 36.02 km</desc>
<time>2011-09-29T11:38:55.18</time>
<name>5543</name>
</trkpt>
<trkpt lat="41.690920" lon="-0.764657">
<ele>304.5</ele>
<speed>33.8</speed>
<course>252.8</course>
<desc>Speed 33.8 km/h Distance 36.03 km</desc>
<time>2011-09-29T11:38:56.18</time>
<name>5544</name>
</trkpt>
<trkpt lat="41.690847" lon="-0.764973">
<ele>304.5</ele>
<speed>33.3</speed>
<course>253.7</course>
<desc>Speed 33.3 km/h Distance 36.06 km</desc>
<time>2011-09-29T11:38:59.18</time>
<name>5545</name>
</trkpt>
<trkpt lat="41.690823" lon="-0.765080">
<ele>304.5</ele>
<speed>33.2</speed>
<course>253.7</course>
<desc>Speed 33.2 km/h Distance 36.07 km</desc>
<time>2011-09-29T11:39:00.18</time>
<name>5546</name>
</trkpt>
<trkpt lat="41.690800" lon="-0.765187">
<ele>304.5</ele>
<speed>33.3</speed>
<course>252.6</course>
<desc>Speed 33.3 km/h Distance 36.08 km</desc>
<time>2011-09-29T11:39:01.17</time>
<name>5547</name>
</trkpt>
<trkpt lat="41.690775" lon="-0.765293">
<ele>304.5</ele>
<speed>33.7</speed>
<course>250.7</course>
<desc>Speed 33.7 km/h Distance 36.08 km</desc>
<time>2011-09-29T11:39:02.18</time>
<name>5548</name>
</trkpt>
<trkpt lat="41.690747" lon="-0.765402">
<ele>304.5</ele>
<speed>34.2</speed>
<course>249.4</course>
<desc>Speed 34.2 km/h Distance 36.09 km</desc>
<time>2011-09-29T11:39:03.17</time>
<name>5549</name>
</trkpt>
<trkpt lat="41.690717" lon="-0.765508">
<ele>304.5</ele>
<speed>34.5</speed>
<course>249.7</course>
<desc>Speed 34.5 km/h Distance 36.10 km</desc>
<time>2011-09-29T11:39:04.17</time>
<name>5550</name>
</trkpt>
<trkpt lat="41.690687" lon="-0.765617">
<ele>304.5</ele>
<speed>34.4</speed>
<course>248.0</course>
<desc>Speed 34.4 km/h Distance 36.11 km</desc>
<time>2011-09-29T11:39:05.18</time>
<name>5551</name>
</trkpt>
<trkpt lat="41.690655" lon="-0.765722">
<ele>304.5</ele>
<speed>34.3</speed>
<course>244.8</course>
<desc>Speed 34.3 km/h Distance 36.12 km</desc>
<time>2011-09-29T11:39:06.17</time>
<name>5552</name>
</trkpt>
<trkpt lat="41.690548" lon="-0.766025">
<ele>304.0</ele>
<speed>33.0</speed>
<course>240.0</course>
<desc>Speed 33.0 km/h Distance 36.15 km</desc>
<time>2011-09-29T11:39:09.17</time>
<name>5553</name>
</trkpt>
<trkpt lat="41.690507" lon="-0.766122">
<ele>304.0</ele>
<speed>33.0</speed>
<course>238.7</course>
<desc>Speed 33.0 km/h Distance 36.16 km</desc>
<time>2011-09-29T11:39:10.17</time>
<name>5554</name>
</trkpt>
<trkpt lat="41.690465" lon="-0.766213">
<ele>303.5</ele>
<speed>32.6</speed>
<course>236.7</course>
<desc>Speed 32.6 km/h Distance 36.17 km</desc>
<time>2011-09-29T11:39:11.17</time>
<name>5555</name>
</trkpt>
<trkpt lat="41.690420" lon="-0.766305">
<ele>303.0</ele>
<speed>32.6</speed>
<course>237.2</course>
<desc>Speed 32.6 km/h Distance 36.18 km</desc>
<time>2011-09-29T11:39:12.17</time>
<name>5556</name>
</trkpt>
<trkpt lat="41.690377" lon="-0.766395">
<ele>303.0</ele>
<speed>32.4</speed>
<course>235.2</course>
<desc>Speed 32.4 km/h Distance 36.19 km</desc>
<time>2011-09-29T11:39:13.17</time>
<name>5557</name>
</trkpt>
<trkpt lat="41.690330" lon="-0.766485">
<ele>303.0</ele>
<speed>32.4</speed>
<course>234.2</course>
<desc>Speed 32.4 km/h Distance 36.20 km</desc>
<time>2011-09-29T11:39:14.17</time>
<name>5558</name>
</trkpt>
<trkpt lat="41.690283" lon="-0.766572">
<ele>302.5</ele>
<speed>32.3</speed>
<course>233.2</course>
<desc>Speed 32.3 km/h Distance 36.21 km</desc>
<time>2011-09-29T11:39:15.17</time>
<name>5559</name>
</trkpt>
<trkpt lat="41.690235" lon="-0.766658">
<ele>302.5</ele>
<speed>32.7</speed>
<course>232.8</course>
<desc>Speed 32.7 km/h Distance 36.21 km</desc>
<time>2011-09-29T11:39:16.17</time>
<name>5560</name>
</trkpt>
<trkpt lat="41.690185" lon="-0.766747">
<ele>302.0</ele>
<speed>33.5</speed>
<course>233.0</course>
<desc>Speed 33.5 km/h Distance 36.22 km</desc>
<time>2011-09-29T11:39:17.47</time>
<name>5561</name>
</trkpt>
<trkpt lat="41.690080" lon="-0.766933">
<ele>301.5</ele>
<speed>35.3</speed>
<course>231.7</course>
<desc>Speed 35.3 km/h Distance 36.24 km</desc>
<time>2011-09-29T11:39:19.16</time>
<name>5562</name>
</trkpt>
<trkpt lat="41.690025" lon="-0.767027">
<ele>301.0</ele>
<speed>35.5</speed>
<course>232.6</course>
<desc>Speed 35.5 km/h Distance 36.25 km</desc>
<time>2011-09-29T11:39:20.17</time>
<name>5563</name>
</trkpt>
<trkpt lat="41.689972" lon="-0.767120">
<ele>301.0</ele>
<speed>35.5</speed>
<course>233.1</course>
<desc>Speed 35.5 km/h Distance 36.26 km</desc>
<time>2011-09-29T11:39:21.16</time>
<name>5564</name>
</trkpt>
<trkpt lat="41.689918" lon="-0.767215">
<ele>300.5</ele>
<speed>35.5</speed>
<course>233.4</course>
<desc>Speed 35.5 km/h Distance 36.27 km</desc>
<time>2011-09-29T11:39:22.16</time>
<name>5565</name>
</trkpt>
<trkpt lat="41.689867" lon="-0.767308">
<ele>300.5</ele>
<speed>34.6</speed>
<course>233.0</course>
<desc>Speed 34.6 km/h Distance 36.28 km</desc>
<time>2011-09-29T11:39:23.16</time>
<name>5566</name>
</trkpt>
<trkpt lat="41.689815" lon="-0.767400">
<ele>300.5</ele>
<speed>34.3</speed>
<course>232.4</course>
<desc>Speed 34.3 km/h Distance 36.29 km</desc>
<time>2011-09-29T11:39:24.16</time>
<name>5567</name>
</trkpt>
<trkpt lat="41.689763" lon="-0.767490">
<ele>300.0</ele>
<speed>33.9</speed>
<course>234.7</course>
<desc>Speed 33.9 km/h Distance 36.30 km</desc>
<time>2011-09-29T11:39:25.16</time>
<name>5568</name>
</trkpt>
<trkpt lat="41.689717" lon="-0.767578">
<ele>300.5</ele>
<speed>32.8</speed>
<course>233.2</course>
<desc>Speed 32.8 km/h Distance 36.31 km</desc>
<time>2011-09-29T11:39:26.16</time>
<name>5569</name>
</trkpt>
<trkpt lat="41.689668" lon="-0.767665">
<ele>300.5</ele>
<speed>32.2</speed>
<course>233.4</course>
<desc>Speed 32.2 km/h Distance 36.32 km</desc>
<time>2011-09-29T11:39:27.37</time>
<name>5570</name>
</trkpt>
<trkpt lat="41.689575" lon="-0.767833">
<ele>300.0</ele>
<speed>31.4</speed>
<course>231.0</course>
<desc>Speed 31.4 km/h Distance 36.34 km</desc>
<time>2011-09-29T11:39:29.16</time>
<name>5571</name>
</trkpt>
<trkpt lat="41.689527" lon="-0.767913">
<ele>299.5</ele>
<speed>30.9</speed>
<course>229.9</course>
<desc>Speed 30.9 km/h Distance 36.34 km</desc>
<time>2011-09-29T11:39:30.16</time>
<name>5572</name>
</trkpt>
<trkpt lat="41.689482" lon="-0.767985">
<ele>298.5</ele>
<speed>28.4</speed>
<course>229.7</course>
<desc>Speed 28.4 km/h Distance 36.35 km</desc>
<time>2011-09-29T11:39:31.16</time>
<name>5573</name>
</trkpt>
<trkpt lat="41.689438" lon="-0.768053">
<ele>298.0</ele>
<speed>26.7</speed>
<course>223.6</course>
<desc>Speed 26.7 km/h Distance 36.36 km</desc>
<time>2011-09-29T11:39:32.16</time>
<name>5574</name>
</trkpt>
<trkpt lat="41.689390" lon="-0.768115">
<ele>298.0</ele>
<speed>27.2</speed>
<course>218.4</course>
<desc>Speed 27.2 km/h Distance 36.37 km</desc>
<time>2011-09-29T11:39:33.16</time>
<name>5575</name>
</trkpt>
<trkpt lat="41.689337" lon="-0.768172">
<ele>297.5</ele>
<speed>27.4</speed>
<course>212.9</course>
<desc>Speed 27.4 km/h Distance 36.38 km</desc>
<time>2011-09-29T11:39:34.35</time>
<name>5576</name>
</trkpt>
<trkpt lat="41.689225" lon="-0.768268">
<ele>296.5</ele>
<speed>27.1</speed>
<course>212.5</course>
<desc>Speed 27.1 km/h Distance 36.39 km</desc>
<time>2011-09-29T11:39:36.15</time>
<name>5577</name>
</trkpt>
<trkpt lat="41.689168" lon="-0.768317">
<ele>296.0</ele>
<speed>27.1</speed>
<course>208.3</course>
<desc>Speed 27.1 km/h Distance 36.40 km</desc>
<time>2011-09-29T11:39:37.17</time>
<name>5578</name>
</trkpt>
<trkpt lat="41.689108" lon="-0.768360">
<ele>295.5</ele>
<speed>27.9</speed>
<course>204.7</course>
<desc>Speed 27.9 km/h Distance 36.40 km</desc>
<time>2011-09-29T11:39:38.15</time>
<name>5579</name>
</trkpt>
<trkpt lat="41.689043" lon="-0.768400">
<ele>295.0</ele>
<speed>28.9</speed>
<course>200.9</course>
<desc>Speed 28.9 km/h Distance 36.41 km</desc>
<time>2011-09-29T11:39:39.15</time>
<name>5580</name>
</trkpt>
<trkpt lat="41.688975" lon="-0.768435">
<ele>294.0</ele>
<speed>29.6</speed>
<course>198.3</course>
<desc>Speed 29.6 km/h Distance 36.42 km</desc>
<time>2011-09-29T11:39:40.15</time>
<name>5581</name>
</trkpt>
<trkpt lat="41.688903" lon="-0.768467">
<ele>293.5</ele>
<speed>30.7</speed>
<course>191.9</course>
<desc>Speed 30.7 km/h Distance 36.43 km</desc>
<time>2011-09-29T11:39:41.15</time>
<name>5582</name>
</trkpt>
<trkpt lat="41.688827" lon="-0.768488">
<ele>292.5</ele>
<speed>31.8</speed>
<course>188.9</course>
<desc>Speed 31.8 km/h Distance 36.44 km</desc>
<time>2011-09-29T11:39:42.15</time>
<name>5583</name>
</trkpt>
<trkpt lat="41.688747" lon="-0.768505">
<ele>292.0</ele>
<speed>32.8</speed>
<course>186.8</course>
<desc>Speed 32.8 km/h Distance 36.45 km</desc>
<time>2011-09-29T11:39:43.15</time>
<name>5584</name>
</trkpt>
<trkpt lat="41.688663" lon="-0.768518">
<ele>291.0</ele>
<speed>33.9</speed>
<course>183.3</course>
<desc>Speed 33.9 km/h Distance 36.46 km</desc>
<time>2011-09-29T11:39:44.15</time>
<name>5585</name>
</trkpt>
<trkpt lat="41.688577" lon="-0.768525">
<ele>290.5</ele>
<speed>35.0</speed>
<course>176.4</course>
<desc>Speed 35.0 km/h Distance 36.47 km</desc>
<time>2011-09-29T11:39:45.15</time>
<name>5586</name>
</trkpt>
<trkpt lat="41.688300" lon="-0.768502">
<ele>288.0</ele>
<speed>37.8</speed>
<course>176.3</course>
<desc>Speed 37.8 km/h Distance 36.50 km</desc>
<time>2011-09-29T11:39:48.15</time>
<name>5587</name>
</trkpt>
<trkpt lat="41.688205" lon="-0.768493">
<ele>287.0</ele>
<speed>38.5</speed>
<course>180.8</course>
<desc>Speed 38.5 km/h Distance 36.51 km</desc>
<time>2011-09-29T11:39:49.15</time>
<name>5588</name>
</trkpt>
<trkpt lat="41.688107" lon="-0.768495">
<ele>286.5</ele>
<speed>39.3</speed>
<course>183.6</course>
<desc>Speed 39.3 km/h Distance 36.52 km</desc>
<time>2011-09-29T11:39:50.15</time>
<name>5589</name>
</trkpt>
<trkpt lat="41.688008" lon="-0.768503">
<ele>285.5</ele>
<speed>40.0</speed>
<course>189.2</course>
<desc>Speed 40.0 km/h Distance 36.53 km</desc>
<time>2011-09-29T11:39:51.15</time>
<name>5590</name>
</trkpt>
<trkpt lat="41.687908" lon="-0.768525">
<ele>285.0</ele>
<speed>40.4</speed>
<course>198.8</course>
<desc>Speed 40.4 km/h Distance 36.54 km</desc>
<time>2011-09-29T11:39:52.15</time>
<name>5591</name>
</trkpt>
<trkpt lat="41.687813" lon="-0.768568">
<ele>284.5</ele>
<speed>40.2</speed>
<course>206.3</course>
<desc>Speed 40.2 km/h Distance 36.55 km</desc>
<time>2011-09-29T11:39:53.15</time>
<name>5592</name>
</trkpt>
<trkpt lat="41.687725" lon="-0.768627">
<ele>284.0</ele>
<speed>40.2</speed>
<course>210.4</course>
<desc>Speed 40.2 km/h Distance 36.56 km</desc>
<time>2011-09-29T11:39:54.14</time>
<name>5593</name>
</trkpt>
<trkpt lat="41.687640" lon="-0.768693">
<ele>284.0</ele>
<speed>39.7</speed>
<course>216.0</course>
<desc>Speed 39.7 km/h Distance 36.57 km</desc>
<time>2011-09-29T11:39:55.14</time>
<name>5594</name>
</trkpt>
<trkpt lat="41.687407" lon="-0.768920">
<ele>283.5</ele>
<speed>38.1</speed>
<course>218.6</course>
<desc>Speed 38.1 km/h Distance 36.61 km</desc>
<time>2011-09-29T11:39:58.14</time>
<name>5595</name>
</trkpt>
<trkpt lat="41.687335" lon="-0.768997">
<ele>283.0</ele>
<speed>37.5</speed>
<course>217.4</course>
<desc>Speed 37.5 km/h Distance 36.62 km</desc>
<time>2011-09-29T11:39:59.15</time>
<name>5596</name>
</trkpt>
<trkpt lat="41.687262" lon="-0.769072">
<ele>283.0</ele>
<speed>37.0</speed>
<course>216.8</course>
<desc>Speed 37.0 km/h Distance 36.63 km</desc>
<time>2011-09-29T11:40:00.14</time>
<name>5597</name>
</trkpt>
<trkpt lat="41.687188" lon="-0.769145">
<ele>283.0</ele>
<speed>36.5</speed>
<course>216.8</course>
<desc>Speed 36.5 km/h Distance 36.64 km</desc>
<time>2011-09-29T11:40:01.14</time>
<name>5598</name>
</trkpt>
<trkpt lat="41.687118" lon="-0.769215">
<ele>282.5</ele>
<speed>35.4</speed>
<course>216.7</course>
<desc>Speed 35.4 km/h Distance 36.65 km</desc>
<time>2011-09-29T11:40:02.14</time>
<name>5599</name>
</trkpt>
<trkpt lat="41.687052" lon="-0.769282">
<ele>282.5</ele>
<speed>33.0</speed>
<course>215.3</course>
<desc>Speed 33.0 km/h Distance 36.66 km</desc>
<time>2011-09-29T11:40:03.14</time>
<name>5600</name>
</trkpt>
<trkpt lat="41.686987" lon="-0.769343">
<ele>282.5</ele>
<speed>32.1</speed>
<course>216.7</course>
<desc>Speed 32.1 km/h Distance 36.66 km</desc>
<time>2011-09-29T11:40:04.14</time>
<name>5601</name>
</trkpt>
<trkpt lat="41.686923" lon="-0.769407">
<ele>282.0</ele>
<speed>31.9</speed>
<course>214.8</course>
<desc>Speed 31.9 km/h Distance 36.67 km</desc>
<time>2011-09-29T11:40:05.14</time>
<name>5602</name>
</trkpt>
<trkpt lat="41.686733" lon="-0.769583">
<ele>281.5</ele>
<speed>30.9</speed>
<course>216.0</course>
<desc>Speed 30.9 km/h Distance 36.70 km</desc>
<time>2011-09-29T11:40:08.14</time>
<name>5603</name>
</trkpt>
<trkpt lat="41.686672" lon="-0.769643">
<ele>281.5</ele>
<speed>30.6</speed>
<course>215.3</course>
<desc>Speed 30.6 km/h Distance 36.71 km</desc>
<time>2011-09-29T11:40:09.14</time>
<name>5604</name>
</trkpt>
<trkpt lat="41.686608" lon="-0.769703">
<ele>281.5</ele>
<speed>30.9</speed>
<course>216.8</course>
<desc>Speed 30.9 km/h Distance 36.72 km</desc>
<time>2011-09-29T11:40:10.14</time>
<name>5605</name>
</trkpt>
<trkpt lat="41.686547" lon="-0.769765">
<ele>281.0</ele>
<speed>30.9</speed>
<course>216.7</course>
<desc>Speed 30.9 km/h Distance 36.72 km</desc>
<time>2011-09-29T11:40:11.14</time>
<name>5606</name>
</trkpt>
<trkpt lat="41.686483" lon="-0.769828">
<ele>280.5</ele>
<speed>31.9</speed>
<course>215.4</course>
<desc>Speed 31.9 km/h Distance 36.73 km</desc>
<time>2011-09-29T11:40:12.14</time>
<name>5607</name>
</trkpt>
<trkpt lat="41.686417" lon="-0.769892">
<ele>280.5</ele>
<speed>32.5</speed>
<course>216.0</course>
<desc>Speed 32.5 km/h Distance 36.74 km</desc>
<time>2011-09-29T11:40:13.14</time>
<name>5608</name>
</trkpt>
<trkpt lat="41.686352" lon="-0.769955">
<ele>280.0</ele>
<speed>32.3</speed>
<course>216.0</course>
<desc>Speed 32.3 km/h Distance 36.75 km</desc>
<time>2011-09-29T11:40:14.15</time>
<name>5609</name>
</trkpt>
<trkpt lat="41.686287" lon="-0.770018">
<ele>280.0</ele>
<speed>32.1</speed>
<course>216.0</course>
<desc>Speed 32.1 km/h Distance 36.76 km</desc>
<time>2011-09-29T11:40:15.13</time>
<name>5610</name>
</trkpt>
<trkpt lat="41.686222" lon="-0.770082">
<ele>280.0</ele>
<speed>32.4</speed>
<course>218.9</course>
<desc>Speed 32.4 km/h Distance 36.77 km</desc>
<time>2011-09-29T11:40:16.13</time>
<name>5611</name>
</trkpt>
<trkpt lat="41.686158" lon="-0.770150">
<ele>280.0</ele>
<speed>32.6</speed>
<course>221.0</course>
<desc>Speed 32.6 km/h Distance 36.78 km</desc>
<time>2011-09-29T11:40:17.14</time>
<name>5612</name>
</trkpt>
<trkpt lat="41.686097" lon="-0.770222">
<ele>280.0</ele>
<speed>32.6</speed>
<course>223.8</course>
<desc>Speed 32.6 km/h Distance 36.79 km</desc>
<time>2011-09-29T11:40:18.13</time>
<name>5613</name>
</trkpt>
<trkpt lat="41.686038" lon="-0.770297">
<ele>279.5</ele>
<speed>32.9</speed>
<course>225.7</course>
<desc>Speed 32.9 km/h Distance 36.80 km</desc>
<time>2011-09-29T11:40:19.13</time>
<name>5614</name>
</trkpt>
<trkpt lat="41.685980" lon="-0.770377">
<ele>279.0</ele>
<speed>33.4</speed>
<course>226.3</course>
<desc>Speed 33.4 km/h Distance 36.81 km</desc>
<time>2011-09-29T11:40:20.14</time>
<name>5615</name>
</trkpt>
<trkpt lat="41.685922" lon="-0.770458">
<ele>279.0</ele>
<speed>33.8</speed>
<course>225.7</course>
<desc>Speed 33.8 km/h Distance 36.82 km</desc>
<time>2011-09-29T11:40:21.13</time>
<name>5616</name>
</trkpt>
<trkpt lat="41.685863" lon="-0.770538">
<ele>278.5</ele>
<speed>33.9</speed>
<course>225.5</course>
<desc>Speed 33.9 km/h Distance 36.82 km</desc>
<time>2011-09-29T11:40:22.13</time>
<name>5617</name>
</trkpt>
<trkpt lat="41.685803" lon="-0.770620">
<ele>278.0</ele>
<speed>34.2</speed>
<course>224.7</course>
<desc>Speed 34.2 km/h Distance 36.83 km</desc>
<time>2011-09-29T11:40:23.13</time>
<name>5618</name>
</trkpt>
<trkpt lat="41.685742" lon="-0.770702">
<ele>278.0</ele>
<speed>34.5</speed>
<course>225.5</course>
<desc>Speed 34.5 km/h Distance 36.84 km</desc>
<time>2011-09-29T11:40:24.13</time>
<name>5619</name>
</trkpt>
<trkpt lat="41.685682" lon="-0.770783">
<ele>277.5</ele>
<speed>34.6</speed>
<course>226.3</course>
<desc>Speed 34.6 km/h Distance 36.85 km</desc>
<time>2011-09-29T11:40:25.13</time>
<name>5620</name>
</trkpt>
<trkpt lat="41.685507" lon="-0.771028">
<ele>277.0</ele>
<speed>33.7</speed>
<course>224.9</course>
<desc>Speed 33.7 km/h Distance 36.88 km</desc>
<time>2011-09-29T11:40:28.14</time>
<name>5621</name>
</trkpt>
<trkpt lat="41.685447" lon="-0.771108">
<ele>276.5</ele>
<speed>34.0</speed>
<course>227.1</course>
<desc>Speed 34.0 km/h Distance 36.89 km</desc>
<time>2011-09-29T11:40:29.13</time>
<name>5622</name>
</trkpt>
<trkpt lat="41.685390" lon="-0.771190">
<ele>276.5</ele>
<speed>33.4</speed>
<course>228.0</course>
<desc>Speed 33.4 km/h Distance 36.90 km</desc>
<time>2011-09-29T11:40:30.13</time>
<name>5623</name>
</trkpt>
<trkpt lat="41.685335" lon="-0.771272">
<ele>276.0</ele>
<speed>33.1</speed>
<course>229.4</course>
<desc>Speed 33.1 km/h Distance 36.91 km</desc>
<time>2011-09-29T11:40:31.13</time>
<name>5624</name>
</trkpt>
<trkpt lat="41.685282" lon="-0.771355">
<ele>276.0</ele>
<speed>32.7</speed>
<course>228.2</course>
<desc>Speed 32.7 km/h Distance 36.92 km</desc>
<time>2011-09-29T11:40:32.13</time>
<name>5625</name>
</trkpt>
<trkpt lat="41.685228" lon="-0.771435">
<ele>276.0</ele>
<speed>32.5</speed>
<course>227.4</course>
<desc>Speed 32.5 km/h Distance 36.93 km</desc>
<time>2011-09-29T11:40:33.13</time>
<name>5626</name>
</trkpt>
<trkpt lat="41.685173" lon="-0.771515">
<ele>276.0</ele>
<speed>32.5</speed>
<course>227.4</course>
<desc>Speed 32.5 km/h Distance 36.94 km</desc>
<time>2011-09-29T11:40:34.13</time>
<name>5627</name>
</trkpt>
<trkpt lat="41.685118" lon="-0.771595">
<ele>276.0</ele>
<speed>32.1</speed>
<course>229.6</course>
<desc>Speed 32.1 km/h Distance 36.95 km</desc>
<time>2011-09-29T11:40:35.13</time>
<name>5628</name>
</trkpt>
<trkpt lat="41.684965" lon="-0.771837">
<ele>275.5</ele>
<speed>31.8</speed>
<course>237.2</course>
<desc>Speed 31.8 km/h Distance 36.97 km</desc>
<time>2011-09-29T11:40:38.12</time>
<name>5629</name>
</trkpt>
<trkpt lat="41.684923" lon="-0.771923">
<ele>275.0</ele>
<speed>31.1</speed>
<course>236.2</course>
<desc>Speed 31.1 km/h Distance 36.98 km</desc>
<time>2011-09-29T11:40:39.12</time>
<name>5630</name>
</trkpt>
<trkpt lat="41.684882" lon="-0.772007">
<ele>274.5</ele>
<speed>30.3</speed>
<course>237.9</course>
<desc>Speed 30.3 km/h Distance 36.99 km</desc>
<time>2011-09-29T11:40:40.13</time>
<name>5631</name>
</trkpt>
<trkpt lat="41.684843" lon="-0.772088">
<ele>274.0</ele>
<speed>28.6</speed>
<course>236.2</course>
<desc>Speed 28.6 km/h Distance 37.00 km</desc>
<time>2011-09-29T11:40:41.12</time>
<name>5632</name>
</trkpt>
<trkpt lat="41.684805" lon="-0.772165">
<ele>274.0</ele>
<speed>27.8</speed>
<course>241.3</course>
<desc>Speed 27.8 km/h Distance 37.00 km</desc>
<time>2011-09-29T11:40:42.12</time>
<name>5633</name>
</trkpt>
<trkpt lat="41.684772" lon="-0.772247">
<ele>273.5</ele>
<speed>27.9</speed>
<course>240.8</course>
<desc>Speed 27.9 km/h Distance 37.01 km</desc>
<time>2011-09-29T11:40:43.12</time>
<name>5634</name>
</trkpt>
<trkpt lat="41.684738" lon="-0.772327">
<ele>273.5</ele>
<speed>27.8</speed>
<course>243.5</course>
<desc>Speed 27.8 km/h Distance 37.02 km</desc>
<time>2011-09-29T11:40:44.12</time>
<name>5635</name>
</trkpt>
<trkpt lat="41.684707" lon="-0.772412">
<ele>273.0</ele>
<speed>28.3</speed>
<course>245.5</course>
<desc>Speed 28.3 km/h Distance 37.03 km</desc>
<time>2011-09-29T11:40:45.15</time>
<name>5636</name>
</trkpt>
<trkpt lat="41.684677" lon="-0.772500">
<ele>272.0</ele>
<speed>29.4</speed>
<course>248.0</course>
<desc>Speed 29.4 km/h Distance 37.04 km</desc>
<time>2011-09-29T11:40:46.74</time>
<name>5637</name>
</trkpt>
<trkpt lat="41.684590" lon="-0.772787">
<ele>271.0</ele>
<speed>31.2</speed>
<course>252.6</course>
<desc>Speed 31.2 km/h Distance 37.06 km</desc>
<time>2011-09-29T11:40:49.12</time>
<name>5638</name>
</trkpt>
<trkpt lat="41.684567" lon="-0.772887">
<ele>270.5</ele>
<speed>31.9</speed>
<course>254.3</course>
<desc>Speed 31.9 km/h Distance 37.07 km</desc>
<time>2011-09-29T11:40:50.12</time>
<name>5639</name>
</trkpt>
<trkpt lat="41.684545" lon="-0.772990">
<ele>270.5</ele>
<speed>31.9</speed>
<course>252.6</course>
<desc>Speed 31.9 km/h Distance 37.08 km</desc>
<time>2011-09-29T11:40:51.12</time>
<name>5640</name>
</trkpt>
<trkpt lat="41.684522" lon="-0.773090">
<ele>270.5</ele>
<speed>31.8</speed>
<course>252.6</course>
<desc>Speed 31.8 km/h Distance 37.09 km</desc>
<time>2011-09-29T11:40:52.13</time>
<name>5641</name>
</trkpt>
<trkpt lat="41.684498" lon="-0.773190">
<ele>270.5</ele>
<speed>31.5</speed>
<course>255.0</course>
<desc>Speed 31.5 km/h Distance 37.10 km</desc>
<time>2011-09-29T11:40:53.12</time>
<name>5642</name>
</trkpt>
<trkpt lat="41.684478" lon="-0.773290">
<ele>270.0</ele>
<speed>31.0</speed>
<course>240.5</course>
<desc>Speed 31.0 km/h Distance 37.11 km</desc>
<time>2011-09-29T11:40:54.12</time>
<name>5643</name>
</trkpt>
<trkpt lat="41.684442" lon="-0.773377">
<ele>270.0</ele>
<speed>30.0</speed>
<course>252.4</course>
<desc>Speed 30.0 km/h Distance 37.11 km</desc>
<time>2011-09-29T11:40:55.12</time>
<name>5644</name>
</trkpt>
<trkpt lat="41.684418" lon="-0.773475">
<ele>270.0</ele>
<speed>30.9</speed>
<course>252.2</course>
<desc>Speed 30.9 km/h Distance 37.12 km</desc>
<time>2011-09-29T11:40:56.63</time>
<name>5645</name>
</trkpt>
<trkpt lat="41.684347" lon="-0.773773">
<ele>269.5</ele>
<speed>31.5</speed>
<course>251.8</course>
<desc>Speed 31.5 km/h Distance 37.15 km</desc>
<time>2011-09-29T11:40:59.12</time>
<name>5646</name>
</trkpt>
<trkpt lat="41.684323" lon="-0.773868">
<ele>269.0</ele>
<speed>29.7</speed>
<course>253.9</course>
<desc>Speed 29.7 km/h Distance 37.16 km</desc>
<time>2011-09-29T11:41:00.11</time>
<name>5647</name>
</trkpt>
<trkpt lat="41.684305" lon="-0.773953">
<ele>269.0</ele>
<speed>26.8</speed>
<course>251.5</course>
<desc>Speed 26.8 km/h Distance 37.16 km</desc>
<time>2011-09-29T11:41:01.11</time>
<name>5648</name>
</trkpt>
<trkpt lat="41.684285" lon="-0.774033">
<ele>268.5</ele>
<speed>25.3</speed>
<course>252.2</course>
<desc>Speed 25.3 km/h Distance 37.17 km</desc>
<time>2011-09-29T11:41:02.12</time>
<name>5649</name>
</trkpt>
<trkpt lat="41.684267" lon="-0.774110">
<ele>268.5</ele>
<speed>24.2</speed>
<course>250.7</course>
<desc>Speed 24.2 km/h Distance 37.18 km</desc>
<time>2011-09-29T11:41:03.11</time>
<name>5650</name>
</trkpt>
<trkpt lat="41.684247" lon="-0.774187">
<ele>268.0</ele>
<speed>24.3</speed>
<course>244.6</course>
<desc>Speed 24.3 km/h Distance 37.18 km</desc>
<time>2011-09-29T11:41:04.11</time>
<name>5651</name>
</trkpt>
<trkpt lat="41.684218" lon="-0.774267">
<ele>267.5</ele>
<speed>26.4</speed>
<course>246.4</course>
<desc>Speed 26.4 km/h Distance 37.19 km</desc>
<time>2011-09-29T11:41:05.11</time>
<name>5652</name>
</trkpt>
<trkpt lat="41.684192" lon="-0.774348">
<ele>267.5</ele>
<speed>27.1</speed>
<course>253.7</course>
<desc>Speed 27.1 km/h Distance 37.20 km</desc>
<time>2011-09-29T11:41:06.52</time>
<name>5653</name>
</trkpt>
<trkpt lat="41.684153" lon="-0.774523">
<ele>267.0</ele>
<speed>27.4</speed>
<course>251.8</course>
<desc>Speed 27.4 km/h Distance 37.21 km</desc>
<time>2011-09-29T11:41:08.11</time>
<name>5654</name>
</trkpt>
<trkpt lat="41.684132" lon="-0.774612">
<ele>267.0</ele>
<speed>27.5</speed>
<course>252.5</course>
<desc>Speed 27.5 km/h Distance 37.22 km</desc>
<time>2011-09-29T11:41:09.11</time>
<name>5655</name>
</trkpt>
<trkpt lat="41.684112" lon="-0.774697">
<ele>266.5</ele>
<speed>27.0</speed>
<course>249.3</course>
<desc>Speed 27.0 km/h Distance 37.23 km</desc>
<time>2011-09-29T11:41:10.11</time>
<name>5656</name>
</trkpt>
<trkpt lat="41.684090" lon="-0.774773">
<ele>266.0</ele>
<speed>24.6</speed>
<course>215.8</course>
<desc>Speed 24.6 km/h Distance 37.24 km</desc>
<time>2011-09-29T11:41:11.11</time>
<name>5657</name>
</trkpt>
<trkpt lat="41.684043" lon="-0.774818">
<ele>266.5</ele>
<speed>23.3</speed>
<course>204.5</course>
<desc>Speed 23.3 km/h Distance 37.24 km</desc>
<time>2011-09-29T11:41:12.11</time>
<name>5658</name>
</trkpt>
<trkpt lat="41.683975" lon="-0.774860">
<ele>264.5</ele>
<speed>14.4</speed>
<course>185.4</course>
<desc>Speed 14.4 km/h Distance 37.25 km</desc>
<time>2011-09-29T11:41:14.11</time>
<name>5659</name>
</trkpt>
<trkpt lat="41.683950" lon="-0.774863">
<ele>265.0</ele>
<speed>10.6</speed>
<course>153.6</course>
<desc>Speed 10.6 km/h Distance 37.25 km</desc>
<time>2011-09-29T11:41:15.11</time>
<name>5660</name>
</trkpt>
<trkpt lat="41.683930" lon="-0.774850">
<ele>266.0</ele>
<speed>9.4</speed>
<course>123.8</course>
<desc>Speed 9.4 km/h Distance 37.26 km</desc>
<time>2011-09-29T11:41:16.41</time>
<name>5661</name>
</trkpt>
<trkpt lat="41.683918" lon="-0.774827">
<ele>266.0</ele>
<speed>8.4</speed>
<course>127.4</course>
<desc>Speed 8.4 km/h Distance 37.26 km</desc>
<time>2011-09-29T11:41:17.11</time>
<name>5662</name>
</trkpt>
<trkpt lat="41.683905" lon="-0.774803">
<ele>267.0</ele>
<speed>9.3</speed>
<course>136.2</course>
<desc>Speed 9.3 km/h Distance 37.26 km</desc>
<time>2011-09-29T11:41:18.11</time>
<name>5663</name>
</trkpt>
<trkpt lat="41.683882" lon="-0.774773">
<ele>266.5</ele>
<speed>13.0</speed>
<course>134.6</course>
<desc>Speed 13.0 km/h Distance 37.26 km</desc>
<time>2011-09-29T11:41:19.11</time>
<name>5664</name>
</trkpt>
<trkpt lat="41.683858" lon="-0.774742">
<ele>267.0</ele>
<speed>13.6</speed>
<course>131.7</course>
<desc>Speed 13.6 km/h Distance 37.27 km</desc>
<time>2011-09-29T11:41:20.12</time>
<name>5665</name>
</trkpt>
<trkpt lat="41.683835" lon="-0.774707">
<ele>267.5</ele>
<speed>14.8</speed>
<course>131.1</course>
<desc>Speed 14.8 km/h Distance 37.27 km</desc>
<time>2011-09-29T11:41:21.11</time>
<name>5666</name>
</trkpt>
<trkpt lat="41.683810" lon="-0.774668">
<ele>267.5</ele>
<speed>15.4</speed>
<course>147.4</course>
<desc>Speed 15.4 km/h Distance 37.28 km</desc>
<time>2011-09-29T11:41:22.10</time>
<name>5667</name>
</trkpt>
<trkpt lat="41.683775" lon="-0.774638">
<ele>267.5</ele>
<speed>17.5</speed>
<course>137.0</course>
<desc>Speed 17.5 km/h Distance 37.28 km</desc>
<time>2011-09-29T11:41:23.45</time>
<name>5668</name>
</trkpt>
<trkpt lat="41.683722" lon="-0.774572">
<ele>267.5</ele>
<speed>15.0</speed>
<course>122.6</course>
<desc>Speed 15.0 km/h Distance 37.29 km</desc>
<time>2011-09-29T11:41:25.10</time>
<name>5669</name>
</trkpt>
<trkpt lat="41.683703" lon="-0.774533">
<ele>267.5</ele>
<speed>13.8</speed>
<course>130.2</course>
<desc>Speed 13.8 km/h Distance 37.29 km</desc>
<time>2011-09-29T11:41:26.26</time>
<name>5670</name>
</trkpt>
<trkpt lat="41.683683" lon="-0.774502">
<ele>267.0</ele>
<speed>13.4</speed>
<course>153.0</course>
<desc>Speed 13.4 km/h Distance 37.30 km</desc>
<time>2011-09-29T11:41:27.10</time>
<name>5671</name>
</trkpt>
<trkpt lat="41.683652" lon="-0.774480">
<ele>265.5</ele>
<speed>15.1</speed>
<course>180.0</course>
<desc>Speed 15.1 km/h Distance 37.30 km</desc>
<time>2011-09-29T11:41:28.10</time>
<name>5672</name>
</trkpt>
<trkpt lat="41.683615" lon="-0.774480">
<ele>265.5</ele>
<speed>15.6</speed>
<course>176.8</course>
<desc>Speed 15.6 km/h Distance 37.30 km</desc>
<time>2011-09-29T11:41:29.10</time>
<name>5673</name>
</trkpt>
<trkpt lat="41.683573" lon="-0.774477">
<ele>265.0</ele>
<speed>17.4</speed>
<course>178.8</course>
<desc>Speed 17.4 km/h Distance 37.31 km</desc>
<time>2011-09-29T11:41:30.10</time>
<name>5674</name>
</trkpt>
<trkpt lat="41.683533" lon="-0.774475">
<ele>265.0</ele>
<speed>16.5</speed>
<course>175.1</course>
<desc>Speed 16.5 km/h Distance 37.31 km</desc>
<time>2011-09-29T11:41:31.11</time>
<name>5675</name>
</trkpt>
<trkpt lat="41.683490" lon="-0.774470">
<ele>265.0</ele>
<speed>18.6</speed>
<course>176.9</course>
<desc>Speed 18.6 km/h Distance 37.32 km</desc>
<time>2011-09-29T11:41:32.10</time>
<name>5676</name>
</trkpt>
<trkpt lat="41.683445" lon="-0.774467">
<ele>265.0</ele>
<speed>19.0</speed>
<course>174.9</course>
<desc>Speed 19.0 km/h Distance 37.32 km</desc>
<time>2011-09-29T11:41:33.34</time>
<name>5677</name>
</trkpt>
<trkpt lat="41.683348" lon="-0.774455">
<ele>265.5</ele>
<speed>20.2</speed>
<course>173.0</course>
<desc>Speed 20.2 km/h Distance 37.33 km</desc>
<time>2011-09-29T11:41:35.09</time>
<name>5678</name>
</trkpt>
<trkpt lat="41.683298" lon="-0.774447">
<ele>265.5</ele>
<speed>20.6</speed>
<course>173.0</course>
<desc>Speed 20.6 km/h Distance 37.34 km</desc>
<time>2011-09-29T11:41:36.15</time>
<name>5679</name>
</trkpt>
<trkpt lat="41.683248" lon="-0.774438">
<ele>265.5</ele>
<speed>20.6</speed>
<course>173.4</course>
<desc>Speed 20.6 km/h Distance 37.35 km</desc>
<time>2011-09-29T11:41:37.10</time>
<name>5680</name>
</trkpt>
<trkpt lat="41.683195" lon="-0.774430">
<ele>265.5</ele>
<speed>22.0</speed>
<course>176.5</course>
<desc>Speed 22.0 km/h Distance 37.35 km</desc>
<time>2011-09-29T11:41:38.09</time>
<name>5681</name>
</trkpt>
<trkpt lat="41.683138" lon="-0.774425">
<ele>265.5</ele>
<speed>23.0</speed>
<course>174.1</course>
<desc>Speed 23.0 km/h Distance 37.36 km</desc>
<time>2011-09-29T11:41:39.09</time>
<name>5682</name>
</trkpt>
<trkpt lat="41.683078" lon="-0.774417">
<ele>265.0</ele>
<speed>24.6</speed>
<course>176.6</course>
<desc>Speed 24.6 km/h Distance 37.36 km</desc>
<time>2011-09-29T11:41:40.09</time>
<name>5683</name>
</trkpt>
<trkpt lat="41.683015" lon="-0.774412">
<ele>265.5</ele>
<speed>26.1</speed>
<course>177.9</course>
<desc>Speed 26.1 km/h Distance 37.37 km</desc>
<time>2011-09-29T11:41:41.10</time>
<name>5684</name>
</trkpt>
<trkpt lat="41.682952" lon="-0.774408">
<ele>265.5</ele>
<speed>27.0</speed>
<course>173.3</course>
<desc>Speed 27.0 km/h Distance 37.38 km</desc>
<time>2011-09-29T11:41:42.09</time>
<name>5685</name>
</trkpt>
<trkpt lat="41.682888" lon="-0.774398">
<ele>266.0</ele>
<speed>26.9</speed>
<course>172.7</course>
<desc>Speed 26.9 km/h Distance 37.39 km</desc>
<time>2011-09-29T11:41:43.40</time>
<name>5686</name>
</trkpt>
<trkpt lat="41.682762" lon="-0.774377">
<ele>266.5</ele>
<speed>27.0</speed>
<course>170.2</course>
<desc>Speed 27.0 km/h Distance 37.40 km</desc>
<time>2011-09-29T11:41:45.09</time>
<name>5687</name>
</trkpt>
<trkpt lat="41.682697" lon="-0.774362">
<ele>267.0</ele>
<speed>26.7</speed>
<course>168.4</course>
<desc>Speed 26.7 km/h Distance 37.41 km</desc>
<time>2011-09-29T11:41:46.21</time>
<name>5688</name>
</trkpt>
<trkpt lat="41.682630" lon="-0.774343">
<ele>267.0</ele>
<speed>27.5</speed>
<course>169.4</course>
<desc>Speed 27.5 km/h Distance 37.41 km</desc>
<time>2011-09-29T11:41:47.09</time>
<name>5689</name>
</trkpt>
<trkpt lat="41.682563" lon="-0.774327">
<ele>267.0</ele>
<speed>27.2</speed>
<course>173.3</course>
<desc>Speed 27.2 km/h Distance 37.42 km</desc>
<time>2011-09-29T11:41:48.09</time>
<name>5690</name>
</trkpt>
<trkpt lat="41.682500" lon="-0.774317">
<ele>265.5</ele>
<speed>25.6</speed>
<course>169.1</course>
<desc>Speed 25.6 km/h Distance 37.43 km</desc>
<time>2011-09-29T11:41:49.09</time>
<name>5691</name>
</trkpt>
<trkpt lat="41.682435" lon="-0.774300">
<ele>265.5</ele>
<speed>26.4</speed>
<course>167.4</course>
<desc>Speed 26.4 km/h Distance 37.44 km</desc>
<time>2011-09-29T11:41:50.08</time>
<name>5692</name>
</trkpt>
<trkpt lat="41.682368" lon="-0.774280">
<ele>265.5</ele>
<speed>27.4</speed>
<course>165.0</course>
<desc>Speed 27.4 km/h Distance 37.44 km</desc>
<time>2011-09-29T11:41:51.08</time>
<name>5693</name>
</trkpt>
<trkpt lat="41.682303" lon="-0.774257">
<ele>265.0</ele>
<speed>27.4</speed>
<course>169.7</course>
<desc>Speed 27.4 km/h Distance 37.45 km</desc>
<time>2011-09-29T11:41:52.09</time>
<name>5694</name>
</trkpt>
<trkpt lat="41.682235" lon="-0.774240">
<ele>265.0</ele>
<speed>27.8</speed>
<course>168.5</course>
<desc>Speed 27.8 km/h Distance 37.46 km</desc>
<time>2011-09-29T11:41:53.33</time>
<name>5695</name>
</trkpt>
<trkpt lat="41.682100" lon="-0.774203">
<ele>265.0</ele>
<speed>27.7</speed>
<course>168.7</course>
<desc>Speed 27.7 km/h Distance 37.47 km</desc>
<time>2011-09-29T11:41:55.09</time>
<name>5696</name>
</trkpt>
<trkpt lat="41.682032" lon="-0.774185">
<ele>265.0</ele>
<speed>27.5</speed>
<course>171.7</course>
<desc>Speed 27.5 km/h Distance 37.48 km</desc>
<time>2011-09-29T11:41:56.13</time>
<name>5697</name>
</trkpt>
<trkpt lat="41.681963" lon="-0.774172">
<ele>265.0</ele>
<speed>27.5</speed>
<course>175.8</course>
<desc>Speed 27.5 km/h Distance 37.49 km</desc>
<time>2011-09-29T11:41:57.08</time>
<name>5698</name>
</trkpt>
<trkpt lat="41.681895" lon="-0.774165">
<ele>265.0</ele>
<speed>27.8</speed>
<course>175.9</course>
<desc>Speed 27.8 km/h Distance 37.50 km</desc>
<time>2011-09-29T11:41:58.09</time>
<name>5699</name>
</trkpt>
<trkpt lat="41.681825" lon="-0.774158">
<ele>265.5</ele>
<speed>28.0</speed>
<course>178.1</course>
<desc>Speed 28.0 km/h Distance 37.51 km</desc>
<time>2011-09-29T11:41:59.08</time>
<name>5700</name>
</trkpt>
<trkpt lat="41.681753" lon="-0.774155">
<ele>265.5</ele>
<speed>28.8</speed>
<course>183.0</course>
<desc>Speed 28.8 km/h Distance 37.51 km</desc>
<time>2011-09-29T11:42:00.08</time>
<name>5701</name>
</trkpt>
<trkpt lat="41.681682" lon="-0.774160">
<ele>265.5</ele>
<speed>29.2</speed>
<course>186.1</course>
<desc>Speed 29.2 km/h Distance 37.52 km</desc>
<time>2011-09-29T11:42:01.08</time>
<name>5702</name>
</trkpt>
<trkpt lat="41.681612" lon="-0.774170">
<ele>265.5</ele>
<speed>28.7</speed>
<course>187.1</course>
<desc>Speed 28.7 km/h Distance 37.53 km</desc>
<time>2011-09-29T11:42:02.08</time>
<name>5703</name>
</trkpt>
<trkpt lat="41.681542" lon="-0.774182">
<ele>265.5</ele>
<speed>28.5</speed>
<course>188.9</course>
<desc>Speed 28.5 km/h Distance 37.54 km</desc>
<time>2011-09-29T11:42:03.16</time>
<name>5704</name>
</trkpt>
<trkpt lat="41.681470" lon="-0.774197">
<ele>265.0</ele>
<speed>29.1</speed>
<course>190.1</course>
<desc>Speed 29.1 km/h Distance 37.55 km</desc>
<time>2011-09-29T11:42:04.08</time>
<name>5705</name>
</trkpt>
<trkpt lat="41.681400" lon="-0.774213">
<ele>265.5</ele>
<speed>29.2</speed>
<course>188.7</course>
<desc>Speed 29.2 km/h Distance 37.55 km</desc>
<time>2011-09-29T11:42:05.08</time>
<name>5706</name>
</trkpt>
<trkpt lat="41.681327" lon="-0.774228">
<ele>265.0</ele>
<speed>29.8</speed>
<course>189.8</course>
<desc>Speed 29.8 km/h Distance 37.56 km</desc>
<time>2011-09-29T11:42:06.08</time>
<name>5707</name>
</trkpt>
<trkpt lat="41.681255" lon="-0.774245">
<ele>265.0</ele>
<speed>29.6</speed>
<course>189.9</course>
<desc>Speed 29.6 km/h Distance 37.57 km</desc>
<time>2011-09-29T11:42:07.08</time>
<name>5708</name>
</trkpt>
<trkpt lat="41.681183" lon="-0.774262">
<ele>265.0</ele>
<speed>28.8</speed>
<course>190.4</course>
<desc>Speed 28.8 km/h Distance 37.58 km</desc>
<time>2011-09-29T11:42:08.07</time>
<name>5709</name>
</trkpt>
<trkpt lat="41.681115" lon="-0.774278">
<ele>265.0</ele>
<speed>28.4</speed>
<course>191.6</course>
<desc>Speed 28.4 km/h Distance 37.59 km</desc>
<time>2011-09-29T11:42:09.09</time>
<name>5710</name>
</trkpt>
<trkpt lat="41.681048" lon="-0.774297">
<ele>265.0</ele>
<speed>27.4</speed>
<course>190.3</course>
<desc>Speed 27.4 km/h Distance 37.59 km</desc>
<time>2011-09-29T11:42:10.07</time>
<name>5711</name>
</trkpt>
<trkpt lat="41.680987" lon="-0.774312">
<ele>265.0</ele>
<speed>25.1</speed>
<course>190.5</course>
<desc>Speed 25.1 km/h Distance 37.60 km</desc>
<time>2011-09-29T11:42:11.08</time>
<name>5712</name>
</trkpt>
<trkpt lat="41.680927" lon="-0.774327">
<ele>265.0</ele>
<speed>24.9</speed>
<course>189.9</course>
<desc>Speed 24.9 km/h Distance 37.61 km</desc>
<time>2011-09-29T11:42:12.08</time>
<name>5713</name>
</trkpt>
<trkpt lat="41.680870" lon="-0.774340">
<ele>266.0</ele>
<speed>22.8</speed>
<course>192.2</course>
<desc>Speed 22.8 km/h Distance 37.61 km</desc>
<time>2011-09-29T11:42:13.13</time>
<name>5714</name>
</trkpt>
<trkpt lat="41.680818" lon="-0.774355">
<ele>265.5</ele>
<speed>21.9</speed>
<course>194.9</course>
<desc>Speed 21.9 km/h Distance 37.62 km</desc>
<time>2011-09-29T11:42:14.08</time>
<name>5715</name>
</trkpt>
<trkpt lat="41.680767" lon="-0.774373">
<ele>266.0</ele>
<speed>21.3</speed>
<course>196.9</course>
<desc>Speed 21.3 km/h Distance 37.63 km</desc>
<time>2011-09-29T11:42:15.07</time>
<name>5716</name>
</trkpt>
<trkpt lat="41.680713" lon="-0.774395">
<ele>266.0</ele>
<speed>22.1</speed>
<course>203.1</course>
<desc>Speed 22.1 km/h Distance 37.63 km</desc>
<time>2011-09-29T11:42:16.07</time>
<name>5717</name>
</trkpt>
<trkpt lat="41.680667" lon="-0.774422">
<ele>265.5</ele>
<speed>21.0</speed>
<course>197.2</course>
<desc>Speed 21.0 km/h Distance 37.64 km</desc>
<time>2011-09-29T11:42:17.08</time>
<name>5718</name>
</trkpt>
<trkpt lat="41.680618" lon="-0.774442">
<ele>265.5</ele>
<speed>20.4</speed>
<course>204.4</course>
<desc>Speed 20.4 km/h Distance 37.64 km</desc>
<time>2011-09-29T11:42:18.08</time>
<name>5719</name>
</trkpt>
<trkpt lat="41.680572" lon="-0.774470">
<ele>264.5</ele>
<speed>20.8</speed>
<course>201.1</course>
<desc>Speed 20.8 km/h Distance 37.65 km</desc>
<time>2011-09-29T11:42:19.07</time>
<name>5720</name>
</trkpt>
<trkpt lat="41.680523" lon="-0.774495">
<ele>264.5</ele>
<speed>21.0</speed>
<course>199.8</course>
<desc>Speed 21.0 km/h Distance 37.65 km</desc>
<time>2011-09-29T11:42:20.08</time>
<name>5721</name>
</trkpt>
<trkpt lat="41.680475" lon="-0.774518">
<ele>264.0</ele>
<speed>20.3</speed>
<course>162.4</course>
<desc>Speed 20.3 km/h Distance 37.66 km</desc>
<time>2011-09-29T11:42:21.07</time>
<name>5722</name>
</trkpt>
<trkpt lat="41.680408" lon="-0.774490">
<ele>264.5</ele>
<speed>14.9</speed>
<course>150.8</course>
<desc>Speed 14.9 km/h Distance 37.67 km</desc>
<time>2011-09-29T11:42:23.07</time>
<name>5723</name>
</trkpt>
<trkpt lat="41.680375" lon="-0.774465">
<ele>265.0</ele>
<speed>14.5</speed>
<course>160.5</course>
<desc>Speed 14.5 km/h Distance 37.67 km</desc>
<time>2011-09-29T11:42:24.07</time>
<name>5724</name>
</trkpt>
<trkpt lat="41.680343" lon="-0.774450">
<ele>265.0</ele>
<speed>13.0</speed>
<course>169.7</course>
<desc>Speed 13.0 km/h Distance 37.68 km</desc>
<time>2011-09-29T11:42:25.80</time>
<name>5725</name>
</trkpt>
<trkpt lat="41.680282" lon="-0.774435">
<ele>265.5</ele>
<speed>14.1</speed>
<course>170.3</course>
<desc>Speed 14.1 km/h Distance 37.68 km</desc>
<time>2011-09-29T11:42:27.06</time>
<name>5726</name>
</trkpt>
<trkpt lat="41.680238" lon="-0.774425">
<ele>265.5</ele>
<speed>17.2</speed>
<course>167.9</course>
<desc>Speed 17.2 km/h Distance 37.69 km</desc>
<time>2011-09-29T11:42:28.06</time>
<name>5727</name>
</trkpt>
<trkpt lat="41.680192" lon="-0.774412">
<ele>265.5</ele>
<speed>19.4</speed>
<course>173.5</course>
<desc>Speed 19.4 km/h Distance 37.69 km</desc>
<time>2011-09-29T11:42:29.07</time>
<name>5728</name>
</trkpt>
<trkpt lat="41.680137" lon="-0.774403">
<ele>265.5</ele>
<speed>22.6</speed>
<course>169.7</course>
<desc>Speed 22.6 km/h Distance 37.70 km</desc>
<time>2011-09-29T11:42:30.06</time>
<name>5729</name>
</trkpt>
<trkpt lat="41.680082" lon="-0.774390">
<ele>266.0</ele>
<speed>22.4</speed>
<course>171.0</course>
<desc>Speed 22.4 km/h Distance 37.71 km</desc>
<time>2011-09-29T11:42:31.06</time>
<name>5730</name>
</trkpt>
<trkpt lat="41.680027" lon="-0.774378">
<ele>266.5</ele>
<speed>23.0</speed>
<course>171.0</course>
<desc>Speed 23.0 km/h Distance 37.71 km</desc>
<time>2011-09-29T11:42:32.06</time>
<name>5731</name>
</trkpt>
<trkpt lat="41.679972" lon="-0.774367">
<ele>266.5</ele>
<speed>22.6</speed>
<course>172.1</course>
<desc>Speed 22.6 km/h Distance 37.72 km</desc>
<time>2011-09-29T11:42:33.06</time>
<name>5732</name>
</trkpt>
<trkpt lat="41.679918" lon="-0.774357">
<ele>266.5</ele>
<speed>22.9</speed>
<course>169.4</course>
<desc>Speed 22.9 km/h Distance 37.72 km</desc>
<time>2011-09-29T11:42:34.06</time>
<name>5733</name>
</trkpt>
<trkpt lat="41.679865" lon="-0.774343">
<ele>267.0</ele>
<speed>22.6</speed>
<course>173.7</course>
<desc>Speed 22.6 km/h Distance 37.73 km</desc>
<time>2011-09-29T11:42:35.63</time>
<name>5734</name>
</trkpt>
<trkpt lat="41.679752" lon="-0.774327">
<ele>267.0</ele>
<speed>22.9</speed>
<course>176.3</course>
<desc>Speed 22.9 km/h Distance 37.74 km</desc>
<time>2011-09-29T11:42:37.06</time>
<name>5735</name>
</trkpt>
<trkpt lat="41.679695" lon="-0.774322">
<ele>267.0</ele>
<speed>23.5</speed>
<course>175.1</course>
<desc>Speed 23.5 km/h Distance 37.75 km</desc>
<time>2011-09-29T11:42:38.06</time>
<name>5736</name>
</trkpt>
<trkpt lat="41.679637" lon="-0.774315">
<ele>267.0</ele>
<speed>24.0</speed>
<course>172.9</course>
<desc>Speed 24.0 km/h Distance 37.76 km</desc>
<time>2011-09-29T11:42:39.06</time>
<name>5737</name>
</trkpt>
<trkpt lat="41.679577" lon="-0.774305">
<ele>267.0</ele>
<speed>24.4</speed>
<course>174.1</course>
<desc>Speed 24.4 km/h Distance 37.76 km</desc>
<time>2011-09-29T11:42:40.06</time>
<name>5738</name>
</trkpt>
<trkpt lat="41.679517" lon="-0.774297">
<ele>267.5</ele>
<speed>24.5</speed>
<course>174.1</course>
<desc>Speed 24.5 km/h Distance 37.77 km</desc>
<time>2011-09-29T11:42:41.06</time>
<name>5739</name>
</trkpt>
<trkpt lat="41.679457" lon="-0.774288">
<ele>267.5</ele>
<speed>25.0</speed>
<course>175.3</course>
<desc>Speed 25.0 km/h Distance 37.78 km</desc>
<time>2011-09-29T11:42:42.05</time>
<name>5740</name>
</trkpt>
<trkpt lat="41.679395" lon="-0.774282">
<ele>267.5</ele>
<speed>25.1</speed>
<course>174.1</course>
<desc>Speed 25.1 km/h Distance 37.78 km</desc>
<time>2011-09-29T11:42:43.15</time>
<name>5741</name>
</trkpt>
<trkpt lat="41.679335" lon="-0.774273">
<ele>267.5</ele>
<speed>24.8</speed>
<course>175.4</course>
<desc>Speed 24.8 km/h Distance 37.79 km</desc>
<time>2011-09-29T11:42:44.05</time>
<name>5742</name>
</trkpt>
<trkpt lat="41.679273" lon="-0.774267">
<ele>267.5</ele>
<speed>25.1</speed>
<course>176.6</course>
<desc>Speed 25.1 km/h Distance 37.80 km</desc>
<time>2011-09-29T11:42:45.05</time>
<name>5743</name>
</trkpt>
<trkpt lat="41.679148" lon="-0.774257">
<ele>268.0</ele>
<speed>26.1</speed>
<course>176.6</course>
<desc>Speed 26.1 km/h Distance 37.81 km</desc>
<time>2011-09-29T11:42:47.05</time>
<name>5744</name>
</trkpt>
<trkpt lat="41.679085" lon="-0.774252">
<ele>267.5</ele>
<speed>26.4</speed>
<course>179.0</course>
<desc>Speed 26.4 km/h Distance 37.82 km</desc>
<time>2011-09-29T11:42:48.05</time>
<name>5745</name>
</trkpt>
<trkpt lat="41.679020" lon="-0.774250">
<ele>267.5</ele>
<speed>26.4</speed>
<course>178.1</course>
<desc>Speed 26.4 km/h Distance 37.82 km</desc>
<time>2011-09-29T11:42:49.05</time>
<name>5746</name>
</trkpt>
<trkpt lat="41.678953" lon="-0.774247">
<ele>267.5</ele>
<speed>26.8</speed>
<course>182.2</course>
<desc>Speed 26.8 km/h Distance 37.83 km</desc>
<time>2011-09-29T11:42:50.05</time>
<name>5747</name>
</trkpt>
<trkpt lat="41.678887" lon="-0.774250">
<ele>267.5</ele>
<speed>27.3</speed>
<course>182.0</course>
<desc>Speed 27.3 km/h Distance 37.84 km</desc>
<time>2011-09-29T11:42:51.05</time>
<name>5748</name>
</trkpt>
<trkpt lat="41.678818" lon="-0.774253">
<ele>267.5</ele>
<speed>27.6</speed>
<course>180.0</course>
<desc>Speed 27.6 km/h Distance 37.85 km</desc>
<time>2011-09-29T11:42:52.38</time>
<name>5749</name>
</trkpt>
<trkpt lat="41.678683" lon="-0.774253">
<ele>267.5</ele>
<speed>27.1</speed>
<course>178.8</course>
<desc>Speed 27.1 km/h Distance 37.86 km</desc>
<time>2011-09-29T11:42:54.05</time>
<name>5750</name>
</trkpt>
<trkpt lat="41.678617" lon="-0.774252">
<ele>267.5</ele>
<speed>26.9</speed>
<course>176.7</course>
<desc>Speed 26.9 km/h Distance 37.87 km</desc>
<time>2011-09-29T11:42:55.18</time>
<name>5751</name>
</trkpt>
<trkpt lat="41.678552" lon="-0.774247">
<ele>268.0</ele>
<speed>26.5</speed>
<course>175.5</course>
<desc>Speed 26.5 km/h Distance 37.88 km</desc>
<time>2011-09-29T11:42:56.04</time>
<name>5752</name>
</trkpt>
<trkpt lat="41.678488" lon="-0.774240">
<ele>268.0</ele>
<speed>26.3</speed>
<course>179.0</course>
<desc>Speed 26.3 km/h Distance 37.88 km</desc>
<time>2011-09-29T11:42:57.04</time>
<name>5753</name>
</trkpt>
<trkpt lat="41.678423" lon="-0.774238">
<ele>268.0</ele>
<speed>26.0</speed>
<course>179.0</course>
<desc>Speed 26.0 km/h Distance 37.89 km</desc>
<time>2011-09-29T11:42:58.04</time>
<name>5754</name>
</trkpt>
<trkpt lat="41.678358" lon="-0.774237">
<ele>268.5</ele>
<speed>26.2</speed>
<course>176.5</course>
<desc>Speed 26.2 km/h Distance 37.90 km</desc>
<time>2011-09-29T11:42:59.04</time>
<name>5755</name>
</trkpt>
<trkpt lat="41.678297" lon="-0.774232">
<ele>268.0</ele>
<speed>25.6</speed>
<course>174.5</course>
<desc>Speed 25.6 km/h Distance 37.90 km</desc>
<time>2011-09-29T11:43:00.04</time>
<name>5756</name>
</trkpt>
<trkpt lat="41.678232" lon="-0.774223">
<ele>268.0</ele>
<speed>25.8</speed>
<course>173.3</course>
<desc>Speed 25.8 km/h Distance 37.91 km</desc>
<time>2011-09-29T11:43:01.04</time>
<name>5757</name>
</trkpt>
<trkpt lat="41.678168" lon="-0.774213">
<ele>268.0</ele>
<speed>25.9</speed>
<course>173.0</course>
<desc>Speed 25.9 km/h Distance 37.92 km</desc>
<time>2011-09-29T11:43:02.04</time>
<name>5758</name>
</trkpt>
<trkpt lat="41.678108" lon="-0.774203">
<ele>268.0</ele>
<speed>25.2</speed>
<course>174.1</course>
<desc>Speed 25.2 km/h Distance 37.93 km</desc>
<time>2011-09-29T11:43:03.04</time>
<name>5759</name>
</trkpt>
<trkpt lat="41.678048" lon="-0.774195">
<ele>268.0</ele>
<speed>24.4</speed>
<course>174.0</course>
<desc>Speed 24.4 km/h Distance 37.93 km</desc>
<time>2011-09-29T11:43:04.04</time>
<name>5760</name>
</trkpt>
<trkpt lat="41.677990" lon="-0.774187">
<ele>268.5</ele>
<speed>23.3</speed>
<course>175.7</course>
<desc>Speed 23.3 km/h Distance 37.94 km</desc>
<time>2011-09-29T11:43:05.58</time>
<name>5761</name>
</trkpt>
<trkpt lat="41.677875" lon="-0.774175">
<ele>268.0</ele>
<speed>23.3</speed>
<course>174.1</course>
<desc>Speed 23.3 km/h Distance 37.95 km</desc>
<time>2011-09-29T11:43:07.04</time>
<name>5762</name>
</trkpt>
<trkpt lat="41.677815" lon="-0.774167">
<ele>268.0</ele>
<speed>24.6</speed>
<course>170.5</course>
<desc>Speed 24.6 km/h Distance 37.96 km</desc>
<time>2011-09-29T11:43:08.04</time>
<name>5763</name>
</trkpt>
<trkpt lat="41.677755" lon="-0.774153">
<ele>268.0</ele>
<speed>24.4</speed>
<course>171.7</course>
<desc>Speed 24.4 km/h Distance 37.97 km</desc>
<time>2011-09-29T11:43:09.04</time>
<name>5764</name>
</trkpt>
<trkpt lat="41.677695" lon="-0.774142">
<ele>268.0</ele>
<speed>24.7</speed>
<course>169.1</course>
<desc>Speed 24.7 km/h Distance 37.97 km</desc>
<time>2011-09-29T11:43:10.04</time>
<name>5765</name>
</trkpt>
<trkpt lat="41.677637" lon="-0.774127">
<ele>268.0</ele>
<speed>24.1</speed>
<course>171.5</course>
<desc>Speed 24.1 km/h Distance 37.98 km</desc>
<time>2011-09-29T11:43:11.04</time>
<name>5766</name>
</trkpt>
<trkpt lat="41.677578" lon="-0.774115">
<ele>268.0</ele>
<speed>24.3</speed>
<course>169.1</course>
<desc>Speed 24.3 km/h Distance 37.99 km</desc>
<time>2011-09-29T11:43:12.04</time>
<name>5767</name>
</trkpt>
<trkpt lat="41.677520" lon="-0.774100">
<ele>268.0</ele>
<speed>23.9</speed>
<course>169.4</course>
<desc>Speed 23.9 km/h Distance 37.99 km</desc>
<time>2011-09-29T11:43:13.03</time>
<name>5768</name>
</trkpt>
<trkpt lat="41.677460" lon="-0.774085">
<ele>268.0</ele>
<speed>24.9</speed>
<course>175.4</course>
<desc>Speed 24.9 km/h Distance 38.00 km</desc>
<time>2011-09-29T11:43:14.03</time>
<name>5769</name>
</trkpt>
<trkpt lat="41.677398" lon="-0.774078">
<ele>268.0</ele>
<speed>25.0</speed>
<course>173.7</course>
<desc>Speed 25.0 km/h Distance 38.01 km</desc>
<time>2011-09-29T11:43:15.42</time>
<name>5770</name>
</trkpt>
<trkpt lat="41.677275" lon="-0.774060">
<ele>268.5</ele>
<speed>24.6</speed>
<course>172.9</course>
<desc>Speed 24.6 km/h Distance 38.02 km</desc>
<time>2011-09-29T11:43:17.03</time>
<name>5771</name>
</trkpt>
<trkpt lat="41.677215" lon="-0.774050">
<ele>268.5</ele>
<speed>24.3</speed>
<course>172.5</course>
<desc>Speed 24.3 km/h Distance 38.03 km</desc>
<time>2011-09-29T11:43:18.03</time>
<name>5772</name>
</trkpt>
<trkpt lat="41.677158" lon="-0.774040">
<ele>268.5</ele>
<speed>23.4</speed>
<course>170.1</course>
<desc>Speed 23.4 km/h Distance 38.03 km</desc>
<time>2011-09-29T11:43:19.03</time>
<name>5773</name>
</trkpt>
<trkpt lat="41.677102" lon="-0.774027">
<ele>268.5</ele>
<speed>22.8</speed>
<course>167.8</course>
<desc>Speed 22.8 km/h Distance 38.04 km</desc>
<time>2011-09-29T11:43:20.04</time>
<name>5774</name>
</trkpt>
<trkpt lat="41.677050" lon="-0.774012">
<ele>268.5</ele>
<speed>21.5</speed>
<course>169.1</course>
<desc>Speed 21.5 km/h Distance 38.04 km</desc>
<time>2011-09-29T11:43:21.03</time>
<name>5775</name>
</trkpt>
<trkpt lat="41.676998" lon="-0.773998">
<ele>268.5</ele>
<speed>21.2</speed>
<course>175.0</course>
<desc>Speed 21.2 km/h Distance 38.05 km</desc>
<time>2011-09-29T11:43:22.36</time>
<name>5776</name>
</trkpt>
<trkpt lat="41.676898" lon="-0.773987">
<ele>269.0</ele>
<speed>20.2</speed>
<course>170.4</course>
<desc>Speed 20.2 km/h Distance 38.06 km</desc>
<time>2011-09-29T11:43:24.03</time>
<name>5777</name>
</trkpt>
<trkpt lat="41.676847" lon="-0.773975">
<ele>269.0</ele>
<speed>20.7</speed>
<course>174.3</course>
<desc>Speed 20.7 km/h Distance 38.07 km</desc>
<time>2011-09-29T11:43:25.16</time>
<name>5778</name>
</trkpt>
<trkpt lat="41.676797" lon="-0.773968">
<ele>269.0</ele>
<speed>20.6</speed>
<course>173.0</course>
<desc>Speed 20.6 km/h Distance 38.07 km</desc>
<time>2011-09-29T11:43:26.03</time>
<name>5779</name>
</trkpt>
<trkpt lat="41.676747" lon="-0.773960">
<ele>268.5</ele>
<speed>20.5</speed>
<course>169.1</course>
<desc>Speed 20.5 km/h Distance 38.08 km</desc>
<time>2011-09-29T11:43:27.03</time>
<name>5780</name>
</trkpt>
<trkpt lat="41.676695" lon="-0.773947">
<ele>268.5</ele>
<speed>21.0</speed>
<course>170.7</course>
<desc>Speed 21.0 km/h Distance 38.08 km</desc>
<time>2011-09-29T11:43:28.02</time>
<name>5781</name>
</trkpt>
<trkpt lat="41.676642" lon="-0.773935">
<ele>268.5</ele>
<speed>21.5</speed>
<course>173.1</course>
<desc>Speed 21.5 km/h Distance 38.09 km</desc>
<time>2011-09-29T11:43:29.02</time>
<name>5782</name>
</trkpt>
<trkpt lat="41.676590" lon="-0.773927">
<ele>268.5</ele>
<speed>21.6</speed>
<course>169.4</course>
<desc>Speed 21.6 km/h Distance 38.10 km</desc>
<time>2011-09-29T11:43:30.02</time>
<name>5783</name>
</trkpt>
<trkpt lat="41.676537" lon="-0.773913">
<ele>268.5</ele>
<speed>21.9</speed>
<course>169.4</course>
<desc>Speed 21.9 km/h Distance 38.10 km</desc>
<time>2011-09-29T11:43:31.03</time>
<name>5784</name>
</trkpt>
<trkpt lat="41.676483" lon="-0.773900">
<ele>268.5</ele>
<speed>21.8</speed>
<course>172.1</course>
<desc>Speed 21.8 km/h Distance 38.11 km</desc>
<time>2011-09-29T11:43:32.11</time>
<name>5785</name>
</trkpt>
<trkpt lat="41.676430" lon="-0.773890">
<ele>268.5</ele>
<speed>21.7</speed>
<course>171.8</course>
<desc>Speed 21.7 km/h Distance 38.11 km</desc>
<time>2011-09-29T11:43:33.02</time>
<name>5786</name>
</trkpt>
<trkpt lat="41.676378" lon="-0.773880">
<ele>268.0</ele>
<speed>21.5</speed>
<course>169.1</course>
<desc>Speed 21.5 km/h Distance 38.12 km</desc>
<time>2011-09-29T11:43:34.02</time>
<name>5787</name>
</trkpt>
<trkpt lat="41.676327" lon="-0.773867">
<ele>268.0</ele>
<speed>21.3</speed>
<course>167.8</course>
<desc>Speed 21.3 km/h Distance 38.13 km</desc>
<time>2011-09-29T11:43:35.02</time>
<name>5788</name>
</trkpt>
<trkpt lat="41.676275" lon="-0.773852">
<ele>268.0</ele>
<speed>21.2</speed>
<course>176.1</course>
<desc>Speed 21.2 km/h Distance 38.13 km</desc>
<time>2011-09-29T11:43:36.02</time>
<name>5789</name>
</trkpt>
<trkpt lat="41.676222" lon="-0.773847">
<ele>268.0</ele>
<speed>21.3</speed>
<course>173.1</course>
<desc>Speed 21.3 km/h Distance 38.14 km</desc>
<time>2011-09-29T11:43:37.02</time>
<name>5790</name>
</trkpt>
<trkpt lat="41.676170" lon="-0.773838">
<ele>267.5</ele>
<speed>21.4</speed>
<course>170.7</course>
<desc>Speed 21.4 km/h Distance 38.14 km</desc>
<time>2011-09-29T11:43:38.02</time>
<name>5791</name>
</trkpt>
<trkpt lat="41.676117" lon="-0.773827">
<ele>267.5</ele>
<speed>21.5</speed>
<course>169.1</course>
<desc>Speed 21.5 km/h Distance 38.15 km</desc>
<time>2011-09-29T11:43:39.02</time>
<name>5792</name>
</trkpt>
<trkpt lat="41.676065" lon="-0.773813">
<ele>267.5</ele>
<speed>21.2</speed>
<course>169.1</course>
<desc>Speed 21.2 km/h Distance 38.16 km</desc>
<time>2011-09-29T11:43:40.02</time>
<name>5793</name>
</trkpt>
<trkpt lat="41.676013" lon="-0.773800">
<ele>267.5</ele>
<speed>21.2</speed>
<course>165.2</course>
<desc>Speed 21.2 km/h Distance 38.16 km</desc>
<time>2011-09-29T11:43:41.02</time>
<name>5794</name>
</trkpt>
<trkpt lat="41.675962" lon="-0.773782">
<ele>267.5</ele>
<speed>21.0</speed>
<course>162.8</course>
<desc>Speed 21.0 km/h Distance 38.17 km</desc>
<time>2011-09-29T11:43:42.02</time>
<name>5795</name>
</trkpt>
<trkpt lat="41.675913" lon="-0.773762">
<ele>267.5</ele>
<speed>20.7</speed>
<course>158.9</course>
<desc>Speed 20.7 km/h Distance 38.17 km</desc>
<time>2011-09-29T11:43:43.02</time>
<name>5796</name>
</trkpt>
<trkpt lat="41.675865" lon="-0.773737">
<ele>267.5</ele>
<speed>20.9</speed>
<course>159.1</course>
<desc>Speed 20.9 km/h Distance 38.18 km</desc>
<time>2011-09-29T11:43:44.66</time>
<name>5797</name>
</trkpt>
<trkpt lat="41.675718" lon="-0.773662">
<ele>267.5</ele>
<speed>20.9</speed>
<course>156.9</course>
<desc>Speed 20.9 km/h Distance 38.20 km</desc>
<time>2011-09-29T11:43:47.01</time>
<name>5798</name>
</trkpt>
<trkpt lat="41.675672" lon="-0.773635">
<ele>268.0</ele>
<speed>20.6</speed>
<course>154.8</course>
<desc>Speed 20.6 km/h Distance 38.20 km</desc>
<time>2011-09-29T11:43:48.01</time>
<name>5799</name>
</trkpt>
<trkpt lat="41.675627" lon="-0.773607">
<ele>268.0</ele>
<speed>20.0</speed>
<course>156.1</course>
<desc>Speed 20.0 km/h Distance 38.21 km</desc>
<time>2011-09-29T11:43:49.01</time>
<name>5800</name>
</trkpt>
<trkpt lat="41.675582" lon="-0.773580">
<ele>268.0</ele>
<speed>19.8</speed>
<course>157.5</course>
<desc>Speed 19.8 km/h Distance 38.21 km</desc>
<time>2011-09-29T11:43:50.01</time>
<name>5801</name>
</trkpt>
<trkpt lat="41.675537" lon="-0.773555">
<ele>268.0</ele>
<speed>19.8</speed>
<course>158.8</course>
<desc>Speed 19.8 km/h Distance 38.22 km</desc>
<time>2011-09-29T11:43:51.01</time>
<name>5802</name>
</trkpt>
<trkpt lat="41.675492" lon="-0.773532">
<ele>268.5</ele>
<speed>19.3</speed>
<course>154.5</course>
<desc>Speed 19.3 km/h Distance 38.22 km</desc>
<time>2011-09-29T11:43:52.01</time>
<name>5803</name>
</trkpt>
<trkpt lat="41.675450" lon="-0.773505">
<ele>268.5</ele>
<speed>19.0</speed>
<course>156.7</course>
<desc>Speed 19.0 km/h Distance 38.23 km</desc>
<time>2011-09-29T11:43:53.01</time>
<name>5804</name>
</trkpt>
<trkpt lat="41.675407" lon="-0.773480">
<ele>268.5</ele>
<speed>18.6</speed>
<course>157.4</course>
<desc>Speed 18.6 km/h Distance 38.23 km</desc>
<time>2011-09-29T11:43:54.39</time>
<name>5805</name>
</trkpt>
<trkpt lat="41.675320" lon="-0.773432">
<ele>269.0</ele>
<speed>19.0</speed>
<course>158.1</course>
<desc>Speed 19.0 km/h Distance 38.24 km</desc>
<time>2011-09-29T11:43:56.01</time>
<name>5806</name>
</trkpt>
<trkpt lat="41.675277" lon="-0.773408">
<ele>269.0</ele>
<speed>19.1</speed>
<course>158.8</course>
<desc>Speed 19.1 km/h Distance 38.25 km</desc>
<time>2011-09-29T11:43:57.00</time>
<name>5807</name>
</trkpt>
<trkpt lat="41.675232" lon="-0.773385">
<ele>269.0</ele>
<speed>19.2</speed>
<course>163.1</course>
<desc>Speed 19.2 km/h Distance 38.26 km</desc>
<time>2011-09-29T11:43:58.01</time>
<name>5808</name>
</trkpt>
<trkpt lat="41.675187" lon="-0.773367">
<ele>269.5</ele>
<speed>18.9</speed>
<course>161.8</course>
<desc>Speed 18.9 km/h Distance 38.26 km</desc>
<time>2011-09-29T11:43:59.01</time>
<name>5809</name>
</trkpt>
<trkpt lat="41.675145" lon="-0.773348">
<ele>269.5</ele>
<speed>18.2</speed>
<course>161.0</course>
<desc>Speed 18.2 km/h Distance 38.27 km</desc>
<time>2011-09-29T11:44:00.00</time>
<name>5810</name>
</trkpt>
<trkpt lat="41.675102" lon="-0.773328">
<ele>269.5</ele>
<speed>18.5</speed>
<course>159.1</course>
<desc>Speed 18.5 km/h Distance 38.27 km</desc>
<time>2011-09-29T11:44:01.34</time>
<name>5811</name>
</trkpt>
<trkpt lat="41.675017" lon="-0.773285">
<ele>269.5</ele>
<speed>18.0</speed>
<course>161.1</course>
<desc>Speed 18.0 km/h Distance 38.28 km</desc>
<time>2011-09-29T11:44:03.00</time>
<name>5812</name>
</trkpt>
<trkpt lat="41.674977" lon="-0.773267">
<ele>269.5</ele>
<speed>17.1</speed>
<course>162.7</course>
<desc>Speed 17.1 km/h Distance 38.29 km</desc>
<time>2011-09-29T11:44:04.14</time>
<name>5813</name>
</trkpt>
<trkpt lat="41.674937" lon="-0.773250">
<ele>269.5</ele>
<speed>17.2</speed>
<course>163.6</course>
<desc>Speed 17.2 km/h Distance 38.29 km</desc>
<time>2011-09-29T11:44:05.00</time>
<name>5814</name>
</trkpt>
<trkpt lat="41.674890" lon="-0.773232">
<ele>269.5</ele>
<speed>19.3</speed>
<course>163.4</course>
<desc>Speed 19.3 km/h Distance 38.30 km</desc>
<time>2011-09-29T11:44:06.01</time>
<name>5815</name>
</trkpt>
<trkpt lat="41.674840" lon="-0.773212">
<ele>269.5</ele>
<speed>21.0</speed>
<course>162.6</course>
<desc>Speed 21.0 km/h Distance 38.30 km</desc>
<time>2011-09-29T11:44:07.00</time>
<name>5816</name>
</trkpt>
<trkpt lat="41.674788" lon="-0.773190">
<ele>269.5</ele>
<speed>21.3</speed>
<course>160.2</course>
<desc>Speed 21.3 km/h Distance 38.31 km</desc>
<time>2011-09-29T11:44:08.00</time>
<name>5817</name>
</trkpt>
<trkpt lat="41.674740" lon="-0.773167">
<ele>269.5</ele>
<speed>21.2</speed>
<course>165.6</course>
<desc>Speed 21.2 km/h Distance 38.31 km</desc>
<time>2011-09-29T11:44:09.00</time>
<name>5818</name>
</trkpt>
<trkpt lat="41.674687" lon="-0.773148">
<ele>269.5</ele>
<speed>21.7</speed>
<course>165.1</course>
<desc>Speed 21.7 km/h Distance 38.32 km</desc>
<time>2011-09-29T11:44:10.00</time>
<name>5819</name>
</trkpt>
<trkpt lat="41.674635" lon="-0.773130">
<ele>269.5</ele>
<speed>22.1</speed>
<course>161.9</course>
<desc>Speed 22.1 km/h Distance 38.32 km</desc>
<time>2011-09-29T11:44:11.08</time>
<name>5820</name>
</trkpt>
<trkpt lat="41.674582" lon="-0.773107">
<ele>269.5</ele>
<speed>22.2</speed>
<course>162.6</course>
<desc>Speed 22.2 km/h Distance 38.33 km</desc>
<time>2011-09-29T11:44:12.00</time>
<name>5821</name>
</trkpt>
<trkpt lat="41.674530" lon="-0.773085">
<ele>269.5</ele>
<speed>22.1</speed>
<course>163.9</course>
<desc>Speed 22.1 km/h Distance 38.34 km</desc>
<time>2011-09-29T11:44:12.99</time>
<name>5822</name>
</trkpt>
<trkpt lat="41.674478" lon="-0.773065">
<ele>269.5</ele>
<speed>21.9</speed>
<course>163.9</course>
<desc>Speed 21.9 km/h Distance 38.34 km</desc>
<time>2011-09-29T11:44:13.99</time>
<name>5823</name>
</trkpt>
<trkpt lat="41.674427" lon="-0.773045">
<ele>269.5</ele>
<speed>21.8</speed>
<course>163.4</course>
<desc>Speed 21.8 km/h Distance 38.35 km</desc>
<time>2011-09-29T11:44:15.00</time>
<name>5824</name>
</trkpt>
<trkpt lat="41.674377" lon="-0.773025">
<ele>269.5</ele>
<speed>21.4</speed>
<course>162.1</course>
<desc>Speed 21.4 km/h Distance 38.36 km</desc>
<time>2011-09-29T11:44:15.99</time>
<name>5825</name>
</trkpt>
<trkpt lat="41.674327" lon="-0.773003">
<ele>269.5</ele>
<speed>21.3</speed>
<course>162.1</course>
<desc>Speed 21.3 km/h Distance 38.36 km</desc>
<time>2011-09-29T11:44:16.99</time>
<name>5826</name>
</trkpt>
<trkpt lat="41.674277" lon="-0.772982">
<ele>269.5</ele>
<speed>21.0</speed>
<course>164.7</course>
<desc>Speed 21.0 km/h Distance 38.37 km</desc>
<time>2011-09-29T11:44:17.99</time>
<name>5827</name>
</trkpt>
<trkpt lat="41.674227" lon="-0.772963">
<ele>269.5</ele>
<speed>21.1</speed>
<course>163.4</course>
<desc>Speed 21.1 km/h Distance 38.37 km</desc>
<time>2011-09-29T11:44:18.99</time>
<name>5828</name>
</trkpt>
<trkpt lat="41.674177" lon="-0.772943">
<ele>269.5</ele>
<speed>21.3</speed>
<course>165.2</course>
<desc>Speed 21.3 km/h Distance 38.38 km</desc>
<time>2011-09-29T11:44:20.00</time>
<name>5829</name>
</trkpt>
<trkpt lat="41.674125" lon="-0.772925">
<ele>269.5</ele>
<speed>21.7</speed>
<course>163.4</course>
<desc>Speed 21.7 km/h Distance 38.38 km</desc>
<time>2011-09-29T11:44:20.99</time>
<name>5830</name>
</trkpt>
<trkpt lat="41.674075" lon="-0.772905">
<ele>269.5</ele>
<speed>21.1</speed>
<course>165.5</course>
<desc>Speed 21.1 km/h Distance 38.39 km</desc>
<time>2011-09-29T11:44:21.99</time>
<name>5831</name>
</trkpt>
<trkpt lat="41.674027" lon="-0.772888">
<ele>269.0</ele>
<speed>20.4</speed>
<course>162.3</course>
<desc>Speed 20.4 km/h Distance 38.40 km</desc>
<time>2011-09-29T11:44:23.61</time>
<name>5832</name>
</trkpt>
<trkpt lat="41.673933" lon="-0.772848">
<ele>269.5</ele>
<speed>19.8</speed>
<course>162.8</course>
<desc>Speed 19.8 km/h Distance 38.41 km</desc>
<time>2011-09-29T11:44:24.99</time>
<name>5833</name>
</trkpt>
<trkpt lat="41.673885" lon="-0.772828">
<ele>269.5</ele>
<speed>20.2</speed>
<course>164.2</course>
<desc>Speed 20.2 km/h Distance 38.41 km</desc>
<time>2011-09-29T11:44:25.99</time>
<name>5834</name>
</trkpt>
<trkpt lat="41.673837" lon="-0.772810">
<ele>269.5</ele>
<speed>20.4</speed>
<course>162.9</course>
<desc>Speed 20.4 km/h Distance 38.42 km</desc>
<time>2011-09-29T11:44:26.99</time>
<name>5835</name>
</trkpt>
<trkpt lat="41.673788" lon="-0.772790">
<ele>269.5</ele>
<speed>20.3</speed>
<course>158.9</course>
<desc>Speed 20.3 km/h Distance 38.42 km</desc>
<time>2011-09-29T11:44:27.99</time>
<name>5836</name>
</trkpt>
<trkpt lat="41.673740" lon="-0.772765">
<ele>269.5</ele>
<speed>20.4</speed>
<course>160.9</course>
<desc>Speed 20.4 km/h Distance 38.43 km</desc>
<time>2011-09-29T11:44:28.98</time>
<name>5837</name>
</trkpt>
<trkpt lat="41.673693" lon="-0.772743">
<ele>269.5</ele>
<speed>20.5</speed>
<course>164.7</course>
<desc>Speed 20.5 km/h Distance 38.43 km</desc>
<time>2011-09-29T11:44:29.98</time>
<name>5838</name>
</trkpt>
<trkpt lat="41.673643" lon="-0.772725">
<ele>269.5</ele>
<speed>20.5</speed>
<course>160.9</course>
<desc>Speed 20.5 km/h Distance 38.44 km</desc>
<time>2011-09-29T11:44:30.98</time>
<name>5839</name>
</trkpt>
<trkpt lat="41.673597" lon="-0.772703">
<ele>270.0</ele>
<speed>20.3</speed>
<course>162.1</course>
<desc>Speed 20.3 km/h Distance 38.45 km</desc>
<time>2011-09-29T11:44:31.98</time>
<name>5840</name>
</trkpt>
<trkpt lat="41.673547" lon="-0.772682">
<ele>270.0</ele>
<speed>20.6</speed>
<course>159.5</course>
<desc>Speed 20.6 km/h Distance 38.45 km</desc>
<time>2011-09-29T11:44:33.35</time>
<name>5841</name>
</trkpt>
<trkpt lat="41.673447" lon="-0.772632">
<ele>270.0</ele>
<speed>22.0</speed>
<course>159.5</course>
<desc>Speed 22.0 km/h Distance 38.46 km</desc>
<time>2011-09-29T11:44:34.98</time>
<name>5842</name>
</trkpt>
<trkpt lat="41.673393" lon="-0.772605">
<ele>270.0</ele>
<speed>22.7</speed>
<course>164.4</course>
<desc>Speed 22.7 km/h Distance 38.47 km</desc>
<time>2011-09-29T11:44:35.98</time>
<name>5843</name>
</trkpt>
<trkpt lat="41.673340" lon="-0.772585">
<ele>270.5</ele>
<speed>22.9</speed>
<course>164.4</course>
<desc>Speed 22.9 km/h Distance 38.48 km</desc>
<time>2011-09-29T11:44:36.98</time>
<name>5844</name>
</trkpt>
<trkpt lat="41.673287" lon="-0.772565">
<ele>270.5</ele>
<speed>22.5</speed>
<course>161.9</course>
<desc>Speed 22.5 km/h Distance 38.48 km</desc>
<time>2011-09-29T11:44:37.98</time>
<name>5845</name>
</trkpt>
<trkpt lat="41.673233" lon="-0.772542">
<ele>270.5</ele>
<speed>22.7</speed>
<course>160.7</course>
<desc>Speed 22.7 km/h Distance 38.49 km</desc>
<time>2011-09-29T11:44:38.98</time>
<name>5846</name>
</trkpt>
<trkpt lat="41.673180" lon="-0.772517">
<ele>270.5</ele>
<speed>22.4</speed>
<course>159.2</course>
<desc>Speed 22.4 km/h Distance 38.49 km</desc>
<time>2011-09-29T11:44:40.36</time>
<name>5847</name>
</trkpt>
<trkpt lat="41.673078" lon="-0.772465">
<ele>270.5</ele>
<speed>21.8</speed>
<course>153.1</course>
<desc>Speed 21.8 km/h Distance 38.51 km</desc>
<time>2011-09-29T11:44:41.97</time>
<name>5848</name>
</trkpt>
<trkpt lat="41.673032" lon="-0.772433">
<ele>271.0</ele>
<speed>21.2</speed>
<course>150.1</course>
<desc>Speed 21.2 km/h Distance 38.51 km</desc>
<time>2011-09-29T11:44:43.16</time>
<name>5849</name>
</trkpt>
<trkpt lat="41.672988" lon="-0.772400">
<ele>271.0</ele>
<speed>20.8</speed>
<course>145.4</course>
<desc>Speed 20.8 km/h Distance 38.52 km</desc>
<time>2011-09-29T11:44:43.97</time>
<name>5850</name>
</trkpt>
<trkpt lat="41.672945" lon="-0.772360">
<ele>271.0</ele>
<speed>20.7</speed>
<course>141.0</course>
<desc>Speed 20.7 km/h Distance 38.52 km</desc>
<time>2011-09-29T11:44:44.97</time>
<name>5851</name>
</trkpt>
<trkpt lat="41.672905" lon="-0.772317">
<ele>271.0</ele>
<speed>21.3</speed>
<course>139.1</course>
<desc>Speed 21.3 km/h Distance 38.53 km</desc>
<time>2011-09-29T11:44:45.97</time>
<name>5852</name>
</trkpt>
<trkpt lat="41.672863" lon="-0.772268">
<ele>271.0</ele>
<speed>22.0</speed>
<course>139.2</course>
<desc>Speed 22.0 km/h Distance 38.54 km</desc>
<time>2011-09-29T11:44:46.97</time>
<name>5853</name>
</trkpt>
<trkpt lat="41.672820" lon="-0.772218">
<ele>271.0</ele>
<speed>22.6</speed>
<course>137.2</course>
<desc>Speed 22.6 km/h Distance 38.54 km</desc>
<time>2011-09-29T11:44:47.97</time>
<name>5854</name>
</trkpt>
<trkpt lat="41.672778" lon="-0.772167">
<ele>271.0</ele>
<speed>22.5</speed>
<course>133.9</course>
<desc>Speed 22.5 km/h Distance 38.55 km</desc>
<time>2011-09-29T11:44:48.97</time>
<name>5855</name>
</trkpt>
<trkpt lat="41.672740" lon="-0.772113">
<ele>270.5</ele>
<speed>22.6</speed>
<course>134.2</course>
<desc>Speed 22.6 km/h Distance 38.55 km</desc>
<time>2011-09-29T11:44:50.13</time>
<name>5856</name>
</trkpt>
<trkpt lat="41.672700" lon="-0.772058">
<ele>271.0</ele>
<speed>22.8</speed>
<course>134.8</course>
<desc>Speed 22.8 km/h Distance 38.56 km</desc>
<time>2011-09-29T11:44:50.97</time>
<name>5857</name>
</trkpt>
<trkpt lat="41.672657" lon="-0.772000">
<ele>270.5</ele>
<speed>24.4</speed>
<course>134.0</course>
<desc>Speed 24.4 km/h Distance 38.57 km</desc>
<time>2011-09-29T11:44:51.97</time>
<name>5858</name>
</trkpt>
<trkpt lat="41.672613" lon="-0.771940">
<ele>270.5</ele>
<speed>25.2</speed>
<course>133.6</course>
<desc>Speed 25.2 km/h Distance 38.58 km</desc>
<time>2011-09-29T11:44:52.99</time>
<name>5859</name>
</trkpt>
<trkpt lat="41.672568" lon="-0.771877">
<ele>270.5</ele>
<speed>26.5</speed>
<course>139.6</course>
<desc>Speed 26.5 km/h Distance 38.58 km</desc>
<time>2011-09-29T11:44:53.97</time>
<name>5860</name>
</trkpt>
<trkpt lat="41.672520" lon="-0.771822">
<ele>270.5</ele>
<speed>26.0</speed>
<course>145.1</course>
<desc>Speed 26.0 km/h Distance 38.59 km</desc>
<time>2011-09-29T11:44:54.97</time>
<name>5861</name>
</trkpt>
<trkpt lat="41.672470" lon="-0.771775">
<ele>270.5</ele>
<speed>24.7</speed>
<course>143.2</course>
<desc>Speed 24.7 km/h Distance 38.60 km</desc>
<time>2011-09-29T11:44:55.97</time>
<name>5862</name>
</trkpt>
<trkpt lat="41.672422" lon="-0.771727">
<ele>270.0</ele>
<speed>23.8</speed>
<course>141.3</course>
<desc>Speed 23.8 km/h Distance 38.60 km</desc>
<time>2011-09-29T11:44:56.96</time>
<name>5863</name>
</trkpt>
<trkpt lat="41.672377" lon="-0.771678">
<ele>270.0</ele>
<speed>23.2</speed>
<course>144.2</course>
<desc>Speed 23.2 km/h Distance 38.61 km</desc>
<time>2011-09-29T11:44:57.97</time>
<name>5864</name>
</trkpt>
<trkpt lat="41.672330" lon="-0.771633">
<ele>270.5</ele>
<speed>23.4</speed>
<course>143.2</course>
<desc>Speed 23.4 km/h Distance 38.62 km</desc>
<time>2011-09-29T11:44:58.96</time>
<name>5865</name>
</trkpt>
<trkpt lat="41.672283" lon="-0.771587">
<ele>270.0</ele>
<speed>23.4</speed>
<course>143.2</course>
<desc>Speed 23.4 km/h Distance 38.62 km</desc>
<time>2011-09-29T11:44:59.96</time>
<name>5866</name>
</trkpt>
<trkpt lat="41.672237" lon="-0.771540">
<ele>270.0</ele>
<speed>23.2</speed>
<course>141.3</course>
<desc>Speed 23.2 km/h Distance 38.63 km</desc>
<time>2011-09-29T11:45:00.96</time>
<name>5867</name>
</trkpt>
<trkpt lat="41.672192" lon="-0.771492">
<ele>270.0</ele>
<speed>23.0</speed>
<course>143.2</course>
<desc>Speed 23.0 km/h Distance 38.64 km</desc>
<time>2011-09-29T11:45:02.71</time>
<name>5868</name>
</trkpt>
<trkpt lat="41.672057" lon="-0.771357">
<ele>270.0</ele>
<speed>22.7</speed>
<course>149.1</course>
<desc>Speed 22.7 km/h Distance 38.65 km</desc>
<time>2011-09-29T11:45:04.96</time>
<name>5869</name>
</trkpt>
<trkpt lat="41.672007" lon="-0.771317">
<ele>270.0</ele>
<speed>22.9</speed>
<course>153.1</course>
<desc>Speed 22.9 km/h Distance 38.66 km</desc>
<time>2011-09-29T11:45:05.96</time>
<name>5870</name>
</trkpt>
<trkpt lat="41.671955" lon="-0.771282">
<ele>270.0</ele>
<speed>23.1</speed>
<course>155.0</course>
<desc>Speed 23.1 km/h Distance 38.67 km</desc>
<time>2011-09-29T11:45:06.96</time>
<name>5871</name>
</trkpt>
<trkpt lat="41.671902" lon="-0.771248">
<ele>270.0</ele>
<speed>23.5</speed>
<course>155.0</course>
<desc>Speed 23.5 km/h Distance 38.67 km</desc>
<time>2011-09-29T11:45:07.96</time>
<name>5872</name>
</trkpt>
<trkpt lat="41.671848" lon="-0.771215">
<ele>270.0</ele>
<speed>23.5</speed>
<course>162.4</course>
<desc>Speed 23.5 km/h Distance 38.68 km</desc>
<time>2011-09-29T11:45:08.96</time>
<name>5873</name>
</trkpt>
<trkpt lat="41.671793" lon="-0.771192">
<ele>270.0</ele>
<speed>23.4</speed>
<course>167.9</course>
<desc>Speed 23.4 km/h Distance 38.69 km</desc>
<time>2011-09-29T11:45:09.96</time>
<name>5874</name>
</trkpt>
<trkpt lat="41.671735" lon="-0.771175">
<ele>270.0</ele>
<speed>24.2</speed>
<course>170.6</course>
<desc>Speed 24.2 km/h Distance 38.69 km</desc>
<time>2011-09-29T11:45:10.96</time>
<name>5875</name>
</trkpt>
<trkpt lat="41.671675" lon="-0.771162">
<ele>269.5</ele>
<speed>24.6</speed>
<course>173.5</course>
<desc>Speed 24.6 km/h Distance 38.70 km</desc>
<time>2011-09-29T11:45:12.44</time>
<name>5876</name>
</trkpt>
<trkpt lat="41.671555" lon="-0.771143">
<ele>269.5</ele>
<speed>24.4</speed>
<course>172.7</course>
<desc>Speed 24.4 km/h Distance 38.71 km</desc>
<time>2011-09-29T11:45:13.96</time>
<name>5877</name>
</trkpt>
<trkpt lat="41.671497" lon="-0.771133">
<ele>269.5</ele>
<speed>23.8</speed>
<course>170.3</course>
<desc>Speed 23.8 km/h Distance 38.72 km</desc>
<time>2011-09-29T11:45:14.95</time>
<name>5878</name>
</trkpt>
<trkpt lat="41.671438" lon="-0.771120">
<ele>269.5</ele>
<speed>23.5</speed>
<course>169.7</course>
<desc>Speed 23.5 km/h Distance 38.73 km</desc>
<time>2011-09-29T11:45:15.96</time>
<name>5879</name>
</trkpt>
<trkpt lat="41.671383" lon="-0.771107">
<ele>269.5</ele>
<speed>22.6</speed>
<course>168.2</course>
<desc>Speed 22.6 km/h Distance 38.73 km</desc>
<time>2011-09-29T11:45:16.96</time>
<name>5880</name>
</trkpt>
<trkpt lat="41.671330" lon="-0.771092">
<ele>269.5</ele>
<speed>21.6</speed>
<course>164.7</course>
<desc>Speed 21.6 km/h Distance 38.74 km</desc>
<time>2011-09-29T11:45:17.95</time>
<name>5881</name>
</trkpt>
<trkpt lat="41.671280" lon="-0.771073">
<ele>269.5</ele>
<speed>20.8</speed>
<course>167.8</course>
<desc>Speed 20.8 km/h Distance 38.74 km</desc>
<time>2011-09-29T11:45:18.95</time>
<name>5882</name>
</trkpt>
<trkpt lat="41.671228" lon="-0.771058">
<ele>269.5</ele>
<speed>21.0</speed>
<course>168.7</course>
<desc>Speed 21.0 km/h Distance 38.75 km</desc>
<time>2011-09-29T11:45:19.96</time>
<name>5883</name>
</trkpt>
<trkpt lat="41.671178" lon="-0.771045">
<ele>269.5</ele>
<speed>21.0</speed>
<course>169.1</course>
<desc>Speed 21.0 km/h Distance 38.76 km</desc>
<time>2011-09-29T11:45:20.95</time>
<name>5884</name>
</trkpt>
<trkpt lat="41.671127" lon="-0.771032">
<ele>269.5</ele>
<speed>20.7</speed>
<course>169.7</course>
<desc>Speed 20.7 km/h Distance 38.76 km</desc>
<time>2011-09-29T11:45:21.96</time>
<name>5885</name>
</trkpt>
<trkpt lat="41.671078" lon="-0.771020">
<ele>269.5</ele>
<speed>20.0</speed>
<course>170.9</course>
<desc>Speed 20.0 km/h Distance 38.77 km</desc>
<time>2011-09-29T11:45:22.95</time>
<name>5886</name>
</trkpt>
<trkpt lat="41.671032" lon="-0.771010">
<ele>269.5</ele>
<speed>19.2</speed>
<course>167.8</course>
<desc>Speed 19.2 km/h Distance 38.77 km</desc>
<time>2011-09-29T11:45:23.95</time>
<name>5887</name>
</trkpt>
<trkpt lat="41.670980" lon="-0.770995">
<ele>269.5</ele>
<speed>21.2</speed>
<course>169.7</course>
<desc>Speed 21.2 km/h Distance 38.78 km</desc>
<time>2011-09-29T11:45:24.95</time>
<name>5888</name>
</trkpt>
<trkpt lat="41.670925" lon="-0.770982">
<ele>269.5</ele>
<speed>22.3</speed>
<course>169.7</course>
<desc>Speed 22.3 km/h Distance 38.78 km</desc>
<time>2011-09-29T11:45:25.95</time>
<name>5889</name>
</trkpt>
<trkpt lat="41.670870" lon="-0.770968">
<ele>269.5</ele>
<speed>22.7</speed>
<course>171.0</course>
<desc>Speed 22.7 km/h Distance 38.79 km</desc>
<time>2011-09-29T11:45:26.95</time>
<name>5890</name>
</trkpt>
<trkpt lat="41.670815" lon="-0.770957">
<ele>269.5</ele>
<speed>21.7</speed>
<course>168.7</course>
<desc>Speed 21.7 km/h Distance 38.80 km</desc>
<time>2011-09-29T11:45:27.95</time>
<name>5891</name>
</trkpt>
<trkpt lat="41.670765" lon="-0.770943">
<ele>269.0</ele>
<speed>20.6</speed>
<course>173.3</course>
<desc>Speed 20.6 km/h Distance 38.80 km</desc>
<time>2011-09-29T11:45:28.95</time>
<name>5892</name>
</trkpt>
<trkpt lat="41.670712" lon="-0.770935">
<ele>269.5</ele>
<speed>21.6</speed>
<course>176.0</course>
<desc>Speed 21.6 km/h Distance 38.81 km</desc>
<time>2011-09-29T11:45:29.95</time>
<name>5893</name>
</trkpt>
<trkpt lat="41.670657" lon="-0.770930">
<ele>269.5</ele>
<speed>21.9</speed>
<course>173.8</course>
<desc>Speed 21.9 km/h Distance 38.81 km</desc>
<time>2011-09-29T11:45:30.94</time>
<name>5894</name>
</trkpt>
<trkpt lat="41.670600" lon="-0.770922">
<ele>269.5</ele>
<speed>22.9</speed>
<course>174.0</course>
<desc>Speed 22.9 km/h Distance 38.82 km</desc>
<time>2011-09-29T11:45:32.41</time>
<name>5895</name>
</trkpt>
<trkpt lat="41.670493" lon="-0.770907">
<ele>269.5</ele>
<speed>22.1</speed>
<course>174.9</course>
<desc>Speed 22.1 km/h Distance 38.83 km</desc>
<time>2011-09-29T11:45:33.94</time>
<name>5896</name>
</trkpt>
<trkpt lat="41.670437" lon="-0.770900">
<ele>269.5</ele>
<speed>22.9</speed>
<course>171.0</course>
<desc>Speed 22.9 km/h Distance 38.84 km</desc>
<time>2011-09-29T11:45:34.94</time>
<name>5897</name>
</trkpt>
<trkpt lat="41.670382" lon="-0.770888">
<ele>270.0</ele>
<speed>22.2</speed>
<course>172.1</course>
<desc>Speed 22.2 km/h Distance 38.85 km</desc>
<time>2011-09-29T11:45:35.94</time>
<name>5898</name>
</trkpt>
<trkpt lat="41.670328" lon="-0.770878">
<ele>270.0</ele>
<speed>21.4</speed>
<course>171.0</course>
<desc>Speed 21.4 km/h Distance 38.85 km</desc>
<time>2011-09-29T11:45:36.94</time>
<name>5899</name>
</trkpt>
<trkpt lat="41.670273" lon="-0.770867">
<ele>270.0</ele>
<speed>22.8</speed>
<course>171.3</course>
<desc>Speed 22.8 km/h Distance 38.86 km</desc>
<time>2011-09-29T11:45:37.94</time>
<name>5900</name>
</trkpt>
<trkpt lat="41.670217" lon="-0.770855">
<ele>270.0</ele>
<speed>22.7</speed>
<course>168.5</course>
<desc>Speed 22.7 km/h Distance 38.86 km</desc>
<time>2011-09-29T11:45:38.94</time>
<name>5901</name>
</trkpt>
<trkpt lat="41.670162" lon="-0.770840">
<ele>270.0</ele>
<speed>22.4</speed>
<course>165.6</course>
<desc>Speed 22.4 km/h Distance 38.87 km</desc>
<time>2011-09-29T11:45:39.94</time>
<name>5902</name>
</trkpt>
<trkpt lat="41.670108" lon="-0.770822">
<ele>270.0</ele>
<speed>22.2</speed>
<course>162.6</course>
<desc>Speed 22.2 km/h Distance 38.88 km</desc>
<time>2011-09-29T11:45:40.94</time>
<name>5903</name>
</trkpt>
<trkpt lat="41.670057" lon="-0.770800">
<ele>270.0</ele>
<speed>22.1</speed>
<course>163.7</course>
<desc>Speed 22.1 km/h Distance 38.88 km</desc>
<time>2011-09-29T11:45:42.16</time>
<name>5904</name>
</trkpt>
<trkpt lat="41.669950" lon="-0.770758">
<ele>270.0</ele>
<speed>22.2</speed>
<course>163.6</course>
<desc>Speed 22.2 km/h Distance 38.90 km</desc>
<time>2011-09-29T11:45:43.94</time>
<name>5905</name>
</trkpt>
<trkpt lat="41.669895" lon="-0.770737">
<ele>270.0</ele>
<speed>22.8</speed>
<course>162.4</course>
<desc>Speed 22.8 km/h Distance 38.90 km</desc>
<time>2011-09-29T11:45:44.94</time>
<name>5906</name>
</trkpt>
<trkpt lat="41.669840" lon="-0.770713">
<ele>270.0</ele>
<speed>23.2</speed>
<course>161.3</course>
<desc>Speed 23.2 km/h Distance 38.91 km</desc>
<time>2011-09-29T11:45:45.93</time>
<name>5907</name>
</trkpt>
<trkpt lat="41.669785" lon="-0.770688">
<ele>270.0</ele>
<speed>23.5</speed>
<course>162.4</course>
<desc>Speed 23.5 km/h Distance 38.91 km</desc>
<time>2011-09-29T11:45:46.94</time>
<name>5908</name>
</trkpt>
<trkpt lat="41.669730" lon="-0.770665">
<ele>270.0</ele>
<speed>23.5</speed>
<course>162.9</course>
<desc>Speed 23.5 km/h Distance 38.92 km</desc>
<time>2011-09-29T11:45:47.93</time>
<name>5909</name>
</trkpt>
<trkpt lat="41.669673" lon="-0.770642">
<ele>269.5</ele>
<speed>23.8</speed>
<course>164.5</course>
<desc>Speed 23.8 km/h Distance 38.93 km</desc>
<time>2011-09-29T11:45:49.09</time>
<name>5910</name>
</trkpt>
<trkpt lat="41.669615" lon="-0.770620">
<ele>269.5</ele>
<speed>23.8</speed>
<course>162.9</course>
<desc>Speed 23.8 km/h Distance 38.93 km</desc>
<time>2011-09-29T11:45:49.93</time>
<name>5911</name>
</trkpt>
<trkpt lat="41.669558" lon="-0.770597">
<ele>269.5</ele>
<speed>23.5</speed>
<course>164.1</course>
<desc>Speed 23.5 km/h Distance 38.94 km</desc>
<time>2011-09-29T11:45:50.93</time>
<name>5912</name>
</trkpt>
<trkpt lat="41.669502" lon="-0.770575">
<ele>269.5</ele>
<speed>23.8</speed>
<course>162.9</course>
<desc>Speed 23.8 km/h Distance 38.95 km</desc>
<time>2011-09-29T11:45:51.94</time>
<name>5913</name>
</trkpt>
<trkpt lat="41.669445" lon="-0.770552">
<ele>269.0</ele>
<speed>23.6</speed>
<course>160.7</course>
<desc>Speed 23.6 km/h Distance 38.95 km</desc>
<time>2011-09-29T11:45:52.93</time>
<name>5914</name>
</trkpt>
<trkpt lat="41.669392" lon="-0.770527">
<ele>269.0</ele>
<speed>22.9</speed>
<course>161.3</course>
<desc>Speed 22.9 km/h Distance 38.96 km</desc>
<time>2011-09-29T11:45:53.93</time>
<name>5915</name>
</trkpt>
<trkpt lat="41.669340" lon="-0.770503">
<ele>269.0</ele>
<speed>22.0</speed>
<course>157.7</course>
<desc>Speed 22.0 km/h Distance 38.97 km</desc>
<time>2011-09-29T11:45:54.93</time>
<name>5916</name>
</trkpt>
<trkpt lat="41.669288" lon="-0.770475">
<ele>269.0</ele>
<speed>21.9</speed>
<course>158.3</course>
<desc>Speed 21.9 km/h Distance 38.97 km</desc>
<time>2011-09-29T11:45:55.93</time>
<name>5917</name>
</trkpt>
<trkpt lat="41.669238" lon="-0.770448">
<ele>269.0</ele>
<speed>21.6</speed>
<course>158.9</course>
<desc>Speed 21.6 km/h Distance 38.98 km</desc>
<time>2011-09-29T11:45:56.93</time>
<name>5918</name>
</trkpt>
<trkpt lat="41.669190" lon="-0.770423">
<ele>269.0</ele>
<speed>21.0</speed>
<course>154.4</course>
<desc>Speed 21.0 km/h Distance 38.98 km</desc>
<time>2011-09-29T11:45:57.93</time>
<name>5919</name>
</trkpt>
<trkpt lat="41.669143" lon="-0.770393">
<ele>269.0</ele>
<speed>21.0</speed>
<course>148.3</course>
<desc>Speed 21.0 km/h Distance 38.99 km</desc>
<time>2011-09-29T11:45:58.93</time>
<name>5920</name>
</trkpt>
<trkpt lat="41.669095" lon="-0.770353">
<ele>269.0</ele>
<speed>22.5</speed>
<course>147.5</course>
<desc>Speed 22.5 km/h Distance 39.00 km</desc>
<time>2011-09-29T11:45:59.93</time>
<name>5921</name>
</trkpt>
<trkpt lat="41.669050" lon="-0.770315">
<ele>268.5</ele>
<speed>21.9</speed>
<course>147.9</course>
<desc>Speed 21.9 km/h Distance 39.00 km</desc>
<time>2011-09-29T11:46:01.62</time>
<name>5922</name>
</trkpt>
<trkpt lat="41.668915" lon="-0.770202">
<ele>269.0</ele>
<speed>21.3</speed>
<course>149.6</course>
<desc>Speed 21.3 km/h Distance 39.02 km</desc>
<time>2011-09-29T11:46:03.92</time>
<name>5923</name>
</trkpt>
<trkpt lat="41.668868" lon="-0.770165">
<ele>269.0</ele>
<speed>21.7</speed>
<course>146.4</course>
<desc>Speed 21.7 km/h Distance 39.03 km</desc>
<time>2011-09-29T11:46:04.92</time>
<name>5924</name>
</trkpt>
<trkpt lat="41.668823" lon="-0.770125">
<ele>269.0</ele>
<speed>21.9</speed>
<course>146.4</course>
<desc>Speed 21.9 km/h Distance 39.03 km</desc>
<time>2011-09-29T11:46:05.92</time>
<name>5925</name>
</trkpt>
<trkpt lat="41.668778" lon="-0.770085">
<ele>269.0</ele>
<speed>21.6</speed>
<course>148.7</course>
<desc>Speed 21.6 km/h Distance 39.04 km</desc>
<time>2011-09-29T11:46:06.92</time>
<name>5926</name>
</trkpt>
<trkpt lat="41.668733" lon="-0.770048">
<ele>269.0</ele>
<speed>21.8</speed>
<course>149.6</course>
<desc>Speed 21.8 km/h Distance 39.04 km</desc>
<time>2011-09-29T11:46:07.92</time>
<name>5927</name>
</trkpt>
<trkpt lat="41.668687" lon="-0.770012">
<ele>269.0</ele>
<speed>21.9</speed>
<course>148.3</course>
<desc>Speed 21.9 km/h Distance 39.05 km</desc>
<time>2011-09-29T11:46:08.92</time>
<name>5928</name>
</trkpt>
<trkpt lat="41.668638" lon="-0.769972">
<ele>269.0</ele>
<speed>22.5</speed>
<course>145.3</course>
<desc>Speed 22.5 km/h Distance 39.06 km</desc>
<time>2011-09-29T11:46:09.92</time>
<name>5929</name>
</trkpt>
<trkpt lat="41.668593" lon="-0.769930">
<ele>269.0</ele>
<speed>22.3</speed>
<course>148.8</course>
<desc>Speed 22.3 km/h Distance 39.06 km</desc>
<time>2011-09-29T11:46:11.38</time>
<name>5930</name>
</trkpt>
<trkpt lat="41.668497" lon="-0.769852">
<ele>269.0</ele>
<speed>22.9</speed>
<course>149.1</course>
<desc>Speed 22.9 km/h Distance 39.07 km</desc>
<time>2011-09-29T11:46:12.92</time>
<name>5931</name>
</trkpt>
<trkpt lat="41.668447" lon="-0.769812">
<ele>269.0</ele>
<speed>23.1</speed>
<course>151.3</course>
<desc>Speed 23.1 km/h Distance 39.08 km</desc>
<time>2011-09-29T11:46:13.92</time>
<name>5932</name>
</trkpt>
<trkpt lat="41.668397" lon="-0.769775">
<ele>269.0</ele>
<speed>23.6</speed>
<course>149.9</course>
<desc>Speed 23.6 km/h Distance 39.09 km</desc>
<time>2011-09-29T11:46:14.92</time>
<name>5933</name>
</trkpt>
<trkpt lat="41.668345" lon="-0.769735">
<ele>269.0</ele>
<speed>23.8</speed>
<course>144.2</course>
<desc>Speed 23.8 km/h Distance 39.09 km</desc>
<time>2011-09-29T11:46:15.92</time>
<name>5934</name>
</trkpt>
<trkpt lat="41.668298" lon="-0.769690">
<ele>269.5</ele>
<speed>23.6</speed>
<course>145.2</course>
<desc>Speed 23.6 km/h Distance 39.10 km</desc>
<time>2011-09-29T11:46:16.91</time>
<name>5935</name>
</trkpt>
<trkpt lat="41.668250" lon="-0.769645">
<ele>269.5</ele>
<speed>23.4</speed>
<course>147.2</course>
<desc>Speed 23.4 km/h Distance 39.11 km</desc>
<time>2011-09-29T11:46:17.92</time>
<name>5936</name>
</trkpt>
<trkpt lat="41.668202" lon="-0.769603">
<ele>269.5</ele>
<speed>23.0</speed>
<course>146.3</course>
<desc>Speed 23.0 km/h Distance 39.11 km</desc>
<time>2011-09-29T11:46:18.91</time>
<name>5937</name>
</trkpt>
<trkpt lat="41.668155" lon="-0.769562">
<ele>269.5</ele>
<speed>22.5</speed>
<course>144.3</course>
<desc>Speed 22.5 km/h Distance 39.12 km</desc>
<time>2011-09-29T11:46:19.92</time>
<name>5938</name>
</trkpt>
<trkpt lat="41.668110" lon="-0.769518">
<ele>269.5</ele>
<speed>22.5</speed>
<course>146.4</course>
<desc>Speed 22.5 km/h Distance 39.13 km</desc>
<time>2011-09-29T11:46:21.20</time>
<name>5939</name>
</trkpt>
<trkpt lat="41.668018" lon="-0.769437">
<ele>269.5</ele>
<speed>22.5</speed>
<course>146.3</course>
<desc>Speed 22.5 km/h Distance 39.14 km</desc>
<time>2011-09-29T11:46:22.92</time>
<name>5940</name>
</trkpt>
<trkpt lat="41.667972" lon="-0.769395">
<ele>269.5</ele>
<speed>22.6</speed>
<course>149.4</course>
<desc>Speed 22.6 km/h Distance 39.14 km</desc>
<time>2011-09-29T11:46:23.91</time>
<name>5941</name>
</trkpt>
<trkpt lat="41.667923" lon="-0.769357">
<ele>269.5</ele>
<speed>22.6</speed>
<course>151.6</course>
<desc>Speed 22.6 km/h Distance 39.15 km</desc>
<time>2011-09-29T11:46:24.91</time>
<name>5942</name>
</trkpt>
<trkpt lat="41.667875" lon="-0.769322">
<ele>269.5</ele>
<speed>22.6</speed>
<course>150.2</course>
<desc>Speed 22.6 km/h Distance 39.16 km</desc>
<time>2011-09-29T11:46:25.91</time>
<name>5943</name>
</trkpt>
<trkpt lat="41.667825" lon="-0.769283">
<ele>269.5</ele>
<speed>23.0</speed>
<course>149.1</course>
<desc>Speed 23.0 km/h Distance 39.16 km</desc>
<time>2011-09-29T11:46:26.91</time>
<name>5944</name>
</trkpt>
<trkpt lat="41.667775" lon="-0.769243">
<ele>269.5</ele>
<speed>23.2</speed>
<course>150.7</course>
<desc>Speed 23.2 km/h Distance 39.17 km</desc>
<time>2011-09-29T11:46:28.21</time>
<name>5945</name>
</trkpt>
<trkpt lat="41.667675" lon="-0.769168">
<ele>269.5</ele>
<speed>23.2</speed>
<course>150.2</course>
<desc>Speed 23.2 km/h Distance 39.18 km</desc>
<time>2011-09-29T11:46:29.91</time>
<name>5946</name>
</trkpt>
<trkpt lat="41.667625" lon="-0.769130">
<ele>269.5</ele>
<speed>23.1</speed>
<course>149.1</course>
<desc>Speed 23.1 km/h Distance 39.19 km</desc>
<time>2011-09-29T11:46:31.00</time>
<name>5947</name>
</trkpt>
<trkpt lat="41.667575" lon="-0.769090">
<ele>269.5</ele>
<speed>23.3</speed>
<course>152.1</course>
<desc>Speed 23.3 km/h Distance 39.20 km</desc>
<time>2011-09-29T11:46:31.91</time>
<name>5948</name>
</trkpt>
<trkpt lat="41.667523" lon="-0.769053">
<ele>269.5</ele>
<speed>23.4</speed>
<course>150.2</course>
<desc>Speed 23.4 km/h Distance 39.20 km</desc>
<time>2011-09-29T11:46:32.91</time>
<name>5949</name>
</trkpt>
<trkpt lat="41.667473" lon="-0.769015">
<ele>269.5</ele>
<speed>23.5</speed>
<course>151.0</course>
<desc>Speed 23.5 km/h Distance 39.21 km</desc>
<time>2011-09-29T11:46:33.91</time>
<name>5950</name>
</trkpt>
<trkpt lat="41.667422" lon="-0.768977">
<ele>269.5</ele>
<speed>23.4</speed>
<course>151.3</course>
<desc>Speed 23.4 km/h Distance 39.22 km</desc>
<time>2011-09-29T11:46:34.90</time>
<name>5951</name>
</trkpt>
<trkpt lat="41.667372" lon="-0.768940">
<ele>269.5</ele>
<speed>23.1</speed>
<course>148.3</course>
<desc>Speed 23.1 km/h Distance 39.22 km</desc>
<time>2011-09-29T11:46:35.90</time>
<name>5952</name>
</trkpt>
<trkpt lat="41.667323" lon="-0.768900">
<ele>269.5</ele>
<speed>22.8</speed>
<course>149.4</course>
<desc>Speed 22.8 km/h Distance 39.23 km</desc>
<time>2011-09-29T11:46:36.90</time>
<name>5953</name>
</trkpt>
<trkpt lat="41.667275" lon="-0.768862">
<ele>269.5</ele>
<speed>22.6</speed>
<course>149.6</course>
<desc>Speed 22.6 km/h Distance 39.23 km</desc>
<time>2011-09-29T11:46:37.94</time>
<name>5954</name>
</trkpt>
<trkpt lat="41.667228" lon="-0.768825">
<ele>270.0</ele>
<speed>22.3</speed>
<course>148.3</course>
<desc>Speed 22.3 km/h Distance 39.24 km</desc>
<time>2011-09-29T11:46:38.90</time>
<name>5955</name>
</trkpt>
<trkpt lat="41.667180" lon="-0.768785">
<ele>270.0</ele>
<speed>22.3</speed>
<course>149.4</course>
<desc>Speed 22.3 km/h Distance 39.25 km</desc>
<time>2011-09-29T11:46:39.90</time>
<name>5956</name>
</trkpt>
<trkpt lat="41.667132" lon="-0.768747">
<ele>270.0</ele>
<speed>22.6</speed>
<course>149.4</course>
<desc>Speed 22.6 km/h Distance 39.25 km</desc>
<time>2011-09-29T11:46:40.90</time>
<name>5957</name>
</trkpt>
<trkpt lat="41.667083" lon="-0.768708">
<ele>270.0</ele>
<speed>22.5</speed>
<course>151.6</course>
<desc>Speed 22.5 km/h Distance 39.26 km</desc>
<time>2011-09-29T11:46:41.90</time>
<name>5958</name>
</trkpt>
<trkpt lat="41.667035" lon="-0.768673">
<ele>270.0</ele>
<speed>22.4</speed>
<course>154.7</course>
<desc>Speed 22.4 km/h Distance 39.26 km</desc>
<time>2011-09-29T11:46:42.90</time>
<name>5959</name>
</trkpt>
<trkpt lat="41.666985" lon="-0.768642">
<ele>270.0</ele>
<speed>22.3</speed>
<course>155.4</course>
<desc>Speed 22.3 km/h Distance 39.27 km</desc>
<time>2011-09-29T11:46:43.90</time>
<name>5960</name>
</trkpt>
<trkpt lat="41.666933" lon="-0.768610">
<ele>270.0</ele>
<speed>22.4</speed>
<course>153.5</course>
<desc>Speed 22.4 km/h Distance 39.28 km</desc>
<time>2011-09-29T11:46:44.90</time>
<name>5961</name>
</trkpt>
<trkpt lat="41.666883" lon="-0.768577">
<ele>270.0</ele>
<speed>22.4</speed>
<course>152.7</course>
<desc>Speed 22.4 km/h Distance 39.28 km</desc>
<time>2011-09-29T11:46:45.90</time>
<name>5962</name>
</trkpt>
<trkpt lat="41.666835" lon="-0.768543">
<ele>270.0</ele>
<speed>22.3</speed>
<course>154.7</course>
<desc>Speed 22.3 km/h Distance 39.29 km</desc>
<time>2011-09-29T11:46:46.90</time>
<name>5963</name>
</trkpt>
<trkpt lat="41.666785" lon="-0.768512">
<ele>270.0</ele>
<speed>22.2</speed>
<course>153.5</course>
<desc>Speed 22.2 km/h Distance 39.30 km</desc>
<time>2011-09-29T11:46:47.90</time>
<name>5964</name>
</trkpt>
<trkpt lat="41.666735" lon="-0.768478">
<ele>270.5</ele>
<speed>22.3</speed>
<course>156.6</course>
<desc>Speed 22.3 km/h Distance 39.30 km</desc>
<time>2011-09-29T11:46:48.90</time>
<name>5965</name>
</trkpt>
<trkpt lat="41.666683" lon="-0.768448">
<ele>270.5</ele>
<speed>22.3</speed>
<course>156.8</course>
<desc>Speed 22.3 km/h Distance 39.31 km</desc>
<time>2011-09-29T11:46:50.49</time>
<name>5966</name>
</trkpt>
<trkpt lat="41.666582" lon="-0.768390">
<ele>270.5</ele>
<speed>22.6</speed>
<course>155.4</course>
<desc>Speed 22.6 km/h Distance 39.32 km</desc>
<time>2011-09-29T11:46:51.89</time>
<name>5967</name>
</trkpt>
<trkpt lat="41.666530" lon="-0.768358">
<ele>270.5</ele>
<speed>22.6</speed>
<course>152.4</course>
<desc>Speed 22.6 km/h Distance 39.33 km</desc>
<time>2011-09-29T11:46:52.89</time>
<name>5968</name>
</trkpt>
<trkpt lat="41.666480" lon="-0.768323">
<ele>270.5</ele>
<speed>22.6</speed>
<course>157.7</course>
<desc>Speed 22.6 km/h Distance 39.33 km</desc>
<time>2011-09-29T11:46:53.89</time>
<name>5969</name>
</trkpt>
<trkpt lat="41.666428" lon="-0.768295">
<ele>270.5</ele>
<speed>22.4</speed>
<course>154.7</course>
<desc>Speed 22.4 km/h Distance 39.34 km</desc>
<time>2011-09-29T11:46:54.90</time>
<name>5970</name>
</trkpt>
<trkpt lat="41.666378" lon="-0.768263">
<ele>270.5</ele>
<speed>22.4</speed>
<course>153.5</course>
<desc>Speed 22.4 km/h Distance 39.35 km</desc>
<time>2011-09-29T11:46:55.89</time>
<name>5971</name>
</trkpt>
<trkpt lat="41.666328" lon="-0.768230">
<ele>271.0</ele>
<speed>22.3</speed>
<course>156.5</course>
<desc>Speed 22.3 km/h Distance 39.35 km</desc>
<time>2011-09-29T11:46:56.89</time>
<name>5972</name>
</trkpt>
<trkpt lat="41.666277" lon="-0.768200">
<ele>271.0</ele>
<speed>22.4</speed>
<course>155.4</course>
<desc>Speed 22.4 km/h Distance 39.36 km</desc>
<time>2011-09-29T11:46:57.90</time>
<name>5973</name>
</trkpt>
<trkpt lat="41.666225" lon="-0.768168">
<ele>271.0</ele>
<speed>22.7</speed>
<course>156.5</course>
<desc>Speed 22.7 km/h Distance 39.36 km</desc>
<time>2011-09-29T11:46:58.89</time>
<name>5974</name>
</trkpt>
<trkpt lat="41.666173" lon="-0.768138">
<ele>271.0</ele>
<speed>22.5</speed>
<course>156.8</course>
<desc>Speed 22.5 km/h Distance 39.37 km</desc>
<time>2011-09-29T11:47:00.22</time>
<name>5975</name>
</trkpt>
<trkpt lat="41.666072" lon="-0.768080">
<ele>271.0</ele>
<speed>22.1</speed>
<course>158.0</course>
<desc>Speed 22.1 km/h Distance 39.38 km</desc>
<time>2011-09-29T11:47:01.89</time>
<name>5976</name>
</trkpt>
<trkpt lat="41.665967" lon="-0.768023">
<ele>271.0</ele>
<speed>22.6</speed>
<course>155.4</course>
<desc>Speed 22.6 km/h Distance 39.40 km</desc>
<time>2011-09-29T11:47:03.89</time>
<name>5977</name>
</trkpt>
<trkpt lat="41.665863" lon="-0.767960">
<ele>271.5</ele>
<speed>22.8</speed>
<course>156.3</course>
<desc>Speed 22.8 km/h Distance 39.41 km</desc>
<time>2011-09-29T11:47:05.88</time>
<name>5978</name>
</trkpt>
<trkpt lat="41.665758" lon="-0.767898">
<ele>271.5</ele>
<speed>22.7</speed>
<course>155.4</course>
<desc>Speed 22.7 km/h Distance 39.42 km</desc>
<time>2011-09-29T11:47:07.88</time>
<name>5979</name>
</trkpt>
<trkpt lat="41.665655" lon="-0.767835">
<ele>272.0</ele>
<speed>23.0</speed>
<course>155.2</course>
<desc>Speed 23.0 km/h Distance 39.43 km</desc>
<time>2011-09-29T11:47:10.01</time>
<name>5980</name>
</trkpt>
<trkpt lat="41.665550" lon="-0.767770">
<ele>272.5</ele>
<speed>23.2</speed>
<course>153.7</course>
<desc>Speed 23.2 km/h Distance 39.45 km</desc>
<time>2011-09-29T11:47:11.88</time>
<name>5981</name>
</trkpt>
<trkpt lat="41.665447" lon="-0.767702">
<ele>273.0</ele>
<speed>22.9</speed>
<course>149.9</course>
<desc>Speed 22.9 km/h Distance 39.46 km</desc>
<time>2011-09-29T11:47:13.88</time>
<name>5982</name>
</trkpt>
<trkpt lat="41.665350" lon="-0.767627">
<ele>273.5</ele>
<speed>22.2</speed>
<course>147.0</course>
<desc>Speed 22.2 km/h Distance 39.47 km</desc>
<time>2011-09-29T11:47:15.88</time>
<name>5983</name>
</trkpt>
<trkpt lat="41.665260" lon="-0.767548">
<ele>273.5</ele>
<speed>21.6</speed>
<course>147.9</course>
<desc>Speed 21.6 km/h Distance 39.48 km</desc>
<time>2011-09-29T11:47:17.88</time>
<name>5984</name>
</trkpt>
<trkpt lat="41.665167" lon="-0.767470">
<ele>273.5</ele>
<speed>22.0</speed>
<course>147.9</course>
<desc>Speed 22.0 km/h Distance 39.50 km</desc>
<time>2011-09-29T11:47:19.88</time>
<name>5985</name>
</trkpt>
<trkpt lat="41.665073" lon="-0.767392">
<ele>274.0</ele>
<speed>22.2</speed>
<course>147.9</course>
<desc>Speed 22.2 km/h Distance 39.51 km</desc>
<time>2011-09-29T11:47:21.88</time>
<name>5986</name>
</trkpt>
<trkpt lat="41.664980" lon="-0.767313">
<ele>274.5</ele>
<speed>21.9</speed>
<course>148.0</course>
<desc>Speed 21.9 km/h Distance 39.52 km</desc>
<time>2011-09-29T11:47:23.88</time>
<name>5987</name>
</trkpt>
<trkpt lat="41.664888" lon="-0.767237">
<ele>274.5</ele>
<speed>21.3</speed>
<course>147.5</course>
<desc>Speed 21.3 km/h Distance 39.53 km</desc>
<time>2011-09-29T11:47:25.88</time>
<name>5988</name>
</trkpt>
<trkpt lat="41.664843" lon="-0.767198">
<ele>275.0</ele>
<speed>21.3</speed>
<course>148.3</course>
<desc>Speed 21.3 km/h Distance 39.54 km</desc>
<time>2011-09-29T11:47:26.88</time>
<name>5989</name>
</trkpt>
<trkpt lat="41.664757" lon="-0.767127">
<ele>275.0</ele>
<speed>20.4</speed>
<course>149.6</course>
<desc>Speed 20.4 km/h Distance 39.55 km</desc>
<time>2011-09-29T11:47:29.53</time>
<name>5990</name>
</trkpt>
<trkpt lat="41.664672" lon="-0.767060">
<ele>275.0</ele>
<speed>19.9</speed>
<course>148.9</course>
<desc>Speed 19.9 km/h Distance 39.56 km</desc>
<time>2011-09-29T11:47:30.87</time>
<name>5991</name>
</trkpt>
<trkpt lat="41.664628" lon="-0.767025">
<ele>275.5</ele>
<speed>19.9</speed>
<course>149.3</course>
<desc>Speed 19.9 km/h Distance 39.57 km</desc>
<time>2011-09-29T11:47:31.87</time>
<name>5992</name>
</trkpt>
<trkpt lat="41.664547" lon="-0.766960">
<ele>275.5</ele>
<speed>19.1</speed>
<course>149.4</course>
<desc>Speed 19.1 km/h Distance 39.58 km</desc>
<time>2011-09-29T11:47:33.87</time>
<name>5993</name>
</trkpt>
<trkpt lat="41.664507" lon="-0.766928">
<ele>275.5</ele>
<speed>18.3</speed>
<course>149.7</course>
<desc>Speed 18.3 km/h Distance 39.58 km</desc>
<time>2011-09-29T11:47:34.87</time>
<name>5994</name>
</trkpt>
<trkpt lat="41.664468" lon="-0.766898">
<ele>276.0</ele>
<speed>17.9</speed>
<course>155.0</course>
<desc>Speed 17.9 km/h Distance 39.59 km</desc>
<time>2011-09-29T11:47:35.87</time>
<name>5995</name>
</trkpt>
<trkpt lat="41.664428" lon="-0.766873">
<ele>276.0</ele>
<speed>17.9</speed>
<course>150.7</course>
<desc>Speed 17.9 km/h Distance 39.59 km</desc>
<time>2011-09-29T11:47:36.87</time>
<name>5996</name>
</trkpt>
<trkpt lat="41.664388" lon="-0.766843">
<ele>276.0</ele>
<speed>18.5</speed>
<course>153.1</course>
<desc>Speed 18.5 km/h Distance 39.60 km</desc>
<time>2011-09-29T11:47:37.87</time>
<name>5997</name>
</trkpt>
<trkpt lat="41.664347" lon="-0.766815">
<ele>276.0</ele>
<speed>18.5</speed>
<course>154.6</course>
<desc>Speed 18.5 km/h Distance 39.60 km</desc>
<time>2011-09-29T11:47:39.25</time>
<name>5998</name>
</trkpt>
<trkpt lat="41.664260" lon="-0.766760">
<ele>275.5</ele>
<speed>19.8</speed>
<course>155.6</course>
<desc>Speed 19.8 km/h Distance 39.61 km</desc>
<time>2011-09-29T11:47:40.86</time>
<name>5999</name>
</trkpt>
<trkpt lat="41.664213" lon="-0.766732">
<ele>275.5</ele>
<speed>20.3</speed>
<course>158.9</course>
<desc>Speed 20.3 km/h Distance 39.62 km</desc>
<time>2011-09-29T11:47:41.86</time>
<name>6000</name>
</trkpt>
<trkpt lat="41.664165" lon="-0.766707">
<ele>275.5</ele>
<speed>20.8</speed>
<course>158.9</course>
<desc>Speed 20.8 km/h Distance 39.62 km</desc>
<time>2011-09-29T11:47:42.86</time>
<name>6001</name>
</trkpt>
<trkpt lat="41.664117" lon="-0.766682">
<ele>275.5</ele>
<speed>21.3</speed>
<course>161.3</course>
<desc>Speed 21.3 km/h Distance 39.63 km</desc>
<time>2011-09-29T11:47:43.86</time>
<name>6002</name>
</trkpt>
<trkpt lat="41.664065" lon="-0.766658">
<ele>275.5</ele>
<speed>21.6</speed>
<course>163.4</course>
<desc>Speed 21.6 km/h Distance 39.64 km</desc>
<time>2011-09-29T11:47:44.87</time>
<name>6003</name>
</trkpt>
<trkpt lat="41.664015" lon="-0.766638">
<ele>275.0</ele>
<speed>21.7</speed>
<course>166.7</course>
<desc>Speed 21.7 km/h Distance 39.64 km</desc>
<time>2011-09-29T11:47:46.19</time>
<name>6004</name>
</trkpt>
<trkpt lat="41.663910" lon="-0.766605">
<ele>275.0</ele>
<speed>21.9</speed>
<course>168.2</course>
<desc>Speed 21.9 km/h Distance 39.65 km</desc>
<time>2011-09-29T11:47:47.86</time>
<name>6005</name>
</trkpt>
<trkpt lat="41.663857" lon="-0.766590">
<ele>275.0</ele>
<speed>21.9</speed>
<course>168.0</course>
<desc>Speed 21.9 km/h Distance 39.66 km</desc>
<time>2011-09-29T11:47:48.99</time>
<name>6006</name>
</trkpt>
<trkpt lat="41.663752" lon="-0.766560">
<ele>275.0</ele>
<speed>21.7</speed>
<course>166.9</course>
<desc>Speed 21.7 km/h Distance 39.67 km</desc>
<time>2011-09-29T11:47:50.86</time>
<name>6007</name>
</trkpt>
<trkpt lat="41.663698" lon="-0.766543">
<ele>275.0</ele>
<speed>21.9</speed>
<course>166.4</course>
<desc>Speed 21.9 km/h Distance 39.68 km</desc>
<time>2011-09-29T11:47:51.86</time>
<name>6008</name>
</trkpt>
<trkpt lat="41.663647" lon="-0.766527">
<ele>275.0</ele>
<speed>21.7</speed>
<course>166.4</course>
<desc>Speed 21.7 km/h Distance 39.68 km</desc>
<time>2011-09-29T11:47:52.86</time>
<name>6009</name>
</trkpt>
<trkpt lat="41.663595" lon="-0.766510">
<ele>275.5</ele>
<speed>21.5</speed>
<course>165.6</course>
<desc>Speed 21.5 km/h Distance 39.69 km</desc>
<time>2011-09-29T11:47:53.86</time>
<name>6010</name>
</trkpt>
<trkpt lat="41.663542" lon="-0.766492">
<ele>275.5</ele>
<speed>21.7</speed>
<course>169.0</course>
<desc>Speed 21.7 km/h Distance 39.70 km</desc>
<time>2011-09-29T11:47:54.86</time>
<name>6011</name>
</trkpt>
<trkpt lat="41.663490" lon="-0.766478">
<ele>275.5</ele>
<speed>21.5</speed>
<course>167.3</course>
<desc>Speed 21.5 km/h Distance 39.70 km</desc>
<time>2011-09-29T11:47:55.93</time>
<name>6012</name>
</trkpt>
<trkpt lat="41.663385" lon="-0.766447">
<ele>275.5</ele>
<speed>21.5</speed>
<course>166.0</course>
<desc>Speed 21.5 km/h Distance 39.71 km</desc>
<time>2011-09-29T11:47:57.85</time>
<name>6013</name>
</trkpt>
<trkpt lat="41.663335" lon="-0.766430">
<ele>275.5</ele>
<speed>21.1</speed>
<course>167.8</course>
<desc>Speed 21.1 km/h Distance 39.72 km</desc>
<time>2011-09-29T11:47:58.86</time>
<name>6014</name>
</trkpt>
<trkpt lat="41.663283" lon="-0.766415">
<ele>275.5</ele>
<speed>21.0</speed>
<course>167.4</course>
<desc>Speed 21.0 km/h Distance 39.73 km</desc>
<time>2011-09-29T11:47:59.86</time>
<name>6015</name>
</trkpt>
<trkpt lat="41.663233" lon="-0.766400">
<ele>275.5</ele>
<speed>21.1</speed>
<course>167.8</course>
<desc>Speed 21.1 km/h Distance 39.73 km</desc>
<time>2011-09-29T11:48:00.85</time>
<name>6016</name>
</trkpt>
<trkpt lat="41.663182" lon="-0.766385">
<ele>275.5</ele>
<speed>21.2</speed>
<course>167.8</course>
<desc>Speed 21.2 km/h Distance 39.74 km</desc>
<time>2011-09-29T11:48:01.85</time>
<name>6017</name>
</trkpt>
<trkpt lat="41.663130" lon="-0.766370">
<ele>275.5</ele>
<speed>21.1</speed>
<course>170.4</course>
<desc>Speed 21.1 km/h Distance 39.74 km</desc>
<time>2011-09-29T11:48:02.85</time>
<name>6018</name>
</trkpt>
<trkpt lat="41.663078" lon="-0.766358">
<ele>275.5</ele>
<speed>21.1</speed>
<course>168.7</course>
<desc>Speed 21.1 km/h Distance 39.75 km</desc>
<time>2011-09-29T11:48:03.85</time>
<name>6019</name>
</trkpt>
<trkpt lat="41.663028" lon="-0.766345">
<ele>275.5</ele>
<speed>21.1</speed>
<course>169.1</course>
<desc>Speed 21.1 km/h Distance 39.75 km</desc>
<time>2011-09-29T11:48:04.85</time>
<name>6020</name>
</trkpt>
<trkpt lat="41.662977" lon="-0.766332">
<ele>275.5</ele>
<speed>21.0</speed>
<course>167.8</course>
<desc>Speed 21.0 km/h Distance 39.76 km</desc>
<time>2011-09-29T11:48:05.85</time>
<name>6021</name>
</trkpt>
<trkpt lat="41.662925" lon="-0.766317">
<ele>275.5</ele>
<speed>21.3</speed>
<course>166.5</course>
<desc>Speed 21.3 km/h Distance 39.77 km</desc>
<time>2011-09-29T11:48:06.85</time>
<name>6022</name>
</trkpt>
<trkpt lat="41.662873" lon="-0.766300">
<ele>275.5</ele>
<speed>21.5</speed>
<course>165.8</course>
<desc>Speed 21.5 km/h Distance 39.77 km</desc>
<time>2011-09-29T11:48:08.47</time>
<name>6023</name>
</trkpt>
<trkpt lat="41.662770" lon="-0.766265">
<ele>275.5</ele>
<speed>21.6</speed>
<course>166.4</course>
<desc>Speed 21.6 km/h Distance 39.78 km</desc>
<time>2011-09-29T11:48:09.85</time>
<name>6024</name>
</trkpt>
<trkpt lat="41.662718" lon="-0.766248">
<ele>275.5</ele>
<speed>21.5</speed>
<course>167.8</course>
<desc>Speed 21.5 km/h Distance 39.79 km</desc>
<time>2011-09-29T11:48:10.85</time>
<name>6025</name>
</trkpt>
<trkpt lat="41.662667" lon="-0.766233">
<ele>275.5</ele>
<speed>21.2</speed>
<course>164.7</course>
<desc>Speed 21.2 km/h Distance 39.80 km</desc>
<time>2011-09-29T11:48:11.85</time>
<name>6026</name>
</trkpt>
<trkpt lat="41.662617" lon="-0.766215">
<ele>275.5</ele>
<speed>21.1</speed>
<course>165.1</course>
<desc>Speed 21.1 km/h Distance 39.80 km</desc>
<time>2011-09-29T11:48:12.85</time>
<name>6027</name>
</trkpt>
<trkpt lat="41.662565" lon="-0.766197">
<ele>275.5</ele>
<speed>21.2</speed>
<course>162.1</course>
<desc>Speed 21.2 km/h Distance 39.81 km</desc>
<time>2011-09-29T11:48:13.85</time>
<name>6028</name>
</trkpt>
<trkpt lat="41.662515" lon="-0.766175">
<ele>275.5</ele>
<speed>21.4</speed>
<course>162.1</course>
<desc>Speed 21.4 km/h Distance 39.81 km</desc>
<time>2011-09-29T11:48:14.85</time>
<name>6029</name>
</trkpt>
<trkpt lat="41.662465" lon="-0.766153">
<ele>275.5</ele>
<speed>21.5</speed>
<course>158.9</course>
<desc>Speed 21.5 km/h Distance 39.82 km</desc>
<time>2011-09-29T11:48:15.85</time>
<name>6030</name>
</trkpt>
<trkpt lat="41.662413" lon="-0.766127">
<ele>275.5</ele>
<speed>21.8</speed>
<course>159.5</course>
<desc>Speed 21.8 km/h Distance 39.83 km</desc>
<time>2011-09-29T11:48:16.84</time>
<name>6031</name>
</trkpt>
<trkpt lat="41.662363" lon="-0.766102">
<ele>275.5</ele>
<speed>21.8</speed>
<course>158.3</course>
<desc>Speed 21.8 km/h Distance 39.83 km</desc>
<time>2011-09-29T11:48:18.21</time>
<name>6032</name>
</trkpt>
<trkpt lat="41.662263" lon="-0.766048">
<ele>275.5</ele>
<speed>21.8</speed>
<course>152.4</course>
<desc>Speed 21.8 km/h Distance 39.84 km</desc>
<time>2011-09-29T11:48:19.85</time>
<name>6033</name>
</trkpt>
<trkpt lat="41.662213" lon="-0.766013">
<ele>275.5</ele>
<speed>22.3</speed>
<course>155.9</course>
<desc>Speed 22.3 km/h Distance 39.85 km</desc>
<time>2011-09-29T11:48:20.84</time>
<name>6034</name>
</trkpt>
<trkpt lat="41.662163" lon="-0.765983">
<ele>275.5</ele>
<speed>22.5</speed>
<course>154.3</course>
<desc>Speed 22.5 km/h Distance 39.86 km</desc>
<time>2011-09-29T11:48:21.84</time>
<name>6035</name>
</trkpt>
<trkpt lat="41.662112" lon="-0.765950">
<ele>275.5</ele>
<speed>22.5</speed>
<course>153.5</course>
<desc>Speed 22.5 km/h Distance 39.86 km</desc>
<time>2011-09-29T11:48:22.84</time>
<name>6036</name>
</trkpt>
<trkpt lat="41.662062" lon="-0.765917">
<ele>275.5</ele>
<speed>22.6</speed>
<course>151.3</course>
<desc>Speed 22.6 km/h Distance 39.87 km</desc>
<time>2011-09-29T11:48:23.84</time>
<name>6037</name>
</trkpt>
<trkpt lat="41.662012" lon="-0.765880">
<ele>275.5</ele>
<speed>22.8</speed>
<course>149.9</course>
<desc>Speed 22.8 km/h Distance 39.87 km</desc>
<time>2011-09-29T11:48:25.14</time>
<name>6038</name>
</trkpt>
<trkpt lat="41.661915" lon="-0.765805">
<ele>275.0</ele>
<speed>22.5</speed>
<course>149.4</course>
<desc>Speed 22.5 km/h Distance 39.89 km</desc>
<time>2011-09-29T11:48:26.84</time>
<name>6039</name>
</trkpt>
<trkpt lat="41.661867" lon="-0.765767">
<ele>275.5</ele>
<speed>22.9</speed>
<course>151.3</course>
<desc>Speed 22.9 km/h Distance 39.89 km</desc>
<time>2011-09-29T11:48:27.94</time>
<name>6040</name>
</trkpt>
<trkpt lat="41.661767" lon="-0.765693">
<ele>275.5</ele>
<speed>22.8</speed>
<course>156.1</course>
<desc>Speed 22.8 km/h Distance 39.91 km</desc>
<time>2011-09-29T11:48:29.84</time>
<name>6041</name>
</trkpt>
<trkpt lat="41.661713" lon="-0.765662">
<ele>275.5</ele>
<speed>22.8</speed>
<course>156.6</course>
<desc>Speed 22.8 km/h Distance 39.91 km</desc>
<time>2011-09-29T11:48:30.84</time>
<name>6042</name>
</trkpt>
<trkpt lat="41.661662" lon="-0.765632">
<ele>275.5</ele>
<speed>22.7</speed>
<course>157.2</course>
<desc>Speed 22.7 km/h Distance 39.92 km</desc>
<time>2011-09-29T11:48:31.84</time>
<name>6043</name>
</trkpt>
<trkpt lat="41.661608" lon="-0.765602">
<ele>275.5</ele>
<speed>23.4</speed>
<course>161.3</course>
<desc>Speed 23.4 km/h Distance 39.93 km</desc>
<time>2011-09-29T11:48:32.84</time>
<name>6044</name>
</trkpt>
<trkpt lat="41.661553" lon="-0.765577">
<ele>275.5</ele>
<speed>23.6</speed>
<course>161.8</course>
<desc>Speed 23.6 km/h Distance 39.93 km</desc>
<time>2011-09-29T11:48:33.84</time>
<name>6045</name>
</trkpt>
<trkpt lat="41.661497" lon="-0.765552">
<ele>275.5</ele>
<speed>23.7</speed>
<course>158.9</course>
<desc>Speed 23.7 km/h Distance 39.94 km</desc>
<time>2011-09-29T11:48:34.87</time>
<name>6046</name>
</trkpt>
<trkpt lat="41.661442" lon="-0.765523">
<ele>275.5</ele>
<speed>23.8</speed>
<course>161.8</course>
<desc>Speed 23.8 km/h Distance 39.95 km</desc>
<time>2011-09-29T11:48:35.84</time>
<name>6047</name>
</trkpt>
<trkpt lat="41.661385" lon="-0.765498">
<ele>275.5</ele>
<speed>24.1</speed>
<course>160.6</course>
<desc>Speed 24.1 km/h Distance 39.95 km</desc>
<time>2011-09-29T11:48:36.83</time>
<name>6048</name>
</trkpt>
<trkpt lat="41.661328" lon="-0.765472">
<ele>275.5</ele>
<speed>24.2</speed>
<course>158.4</course>
<desc>Speed 24.2 km/h Distance 39.96 km</desc>
<time>2011-09-29T11:48:37.83</time>
<name>6049</name>
</trkpt>
<trkpt lat="41.661272" lon="-0.765442">
<ele>275.5</ele>
<speed>24.3</speed>
<course>156.7</course>
<desc>Speed 24.3 km/h Distance 39.97 km</desc>
<time>2011-09-29T11:48:38.83</time>
<name>6050</name>
</trkpt>
<trkpt lat="41.661217" lon="-0.765410">
<ele>275.5</ele>
<speed>24.5</speed>
<course>158.4</course>
<desc>Speed 24.5 km/h Distance 39.97 km</desc>
<time>2011-09-29T11:48:39.83</time>
<name>6051</name>
</trkpt>
<trkpt lat="41.661160" lon="-0.765380">
<ele>275.5</ele>
<speed>24.6</speed>
<course>157.3</course>
<desc>Speed 24.6 km/h Distance 39.98 km</desc>
<time>2011-09-29T11:48:40.83</time>
<name>6052</name>
</trkpt>
<trkpt lat="41.661103" lon="-0.765348">
<ele>275.5</ele>
<speed>24.6</speed>
<course>155.6</course>
<desc>Speed 24.6 km/h Distance 39.99 km</desc>
<time>2011-09-29T11:48:41.83</time>
<name>6053</name>
</trkpt>
<trkpt lat="41.661048" lon="-0.765315">
<ele>275.5</ele>
<speed>24.3</speed>
<course>155.6</course>
<desc>Speed 24.3 km/h Distance 39.99 km</desc>
<time>2011-09-29T11:48:42.83</time>
<name>6054</name>
</trkpt>
<trkpt lat="41.660993" lon="-0.765282">
<ele>276.0</ele>
<speed>24.2</speed>
<course>155.0</course>
<desc>Speed 24.2 km/h Distance 40.00 km</desc>
<time>2011-09-29T11:48:43.83</time>
<name>6055</name>
</trkpt>
<trkpt lat="41.660940" lon="-0.765248">
<ele>276.0</ele>
<speed>24.0</speed>
<course>156.7</course>
<desc>Speed 24.0 km/h Distance 40.01 km</desc>
<time>2011-09-29T11:48:44.83</time>
<name>6056</name>
</trkpt>
<trkpt lat="41.660885" lon="-0.765217">
<ele>276.5</ele>
<speed>23.5</speed>
<course>155.4</course>
<desc>Speed 23.5 km/h Distance 40.01 km</desc>
<time>2011-09-29T11:48:45.83</time>
<name>6057</name>
</trkpt>
<trkpt lat="41.660833" lon="-0.765185">
<ele>276.5</ele>
<speed>23.2</speed>
<course>157.5</course>
<desc>Speed 23.2 km/h Distance 40.02 km</desc>
<time>2011-09-29T11:48:47.47</time>
<name>6058</name>
</trkpt>
<trkpt lat="41.660677" lon="-0.765098">
<ele>277.5</ele>
<speed>22.1</speed>
<course>160.7</course>
<desc>Speed 22.1 km/h Distance 40.04 km</desc>
<time>2011-09-29T11:48:49.83</time>
<name>6059</name>
</trkpt>
<trkpt lat="41.660623" lon="-0.765073">
<ele>277.5</ele>
<speed>22.4</speed>
<course>160.7</course>
<desc>Speed 22.4 km/h Distance 40.04 km</desc>
<time>2011-09-29T11:48:50.83</time>
<name>6060</name>
</trkpt>
<trkpt lat="41.660570" lon="-0.765048">
<ele>277.5</ele>
<speed>22.6</speed>
<course>161.3</course>
<desc>Speed 22.6 km/h Distance 40.05 km</desc>
<time>2011-09-29T11:48:51.82</time>
<name>6061</name>
</trkpt>
<trkpt lat="41.660515" lon="-0.765023">
<ele>277.5</ele>
<speed>22.9</speed>
<course>161.2</course>
<desc>Speed 22.9 km/h Distance 40.06 km</desc>
<time>2011-09-29T11:48:52.82</time>
<name>6062</name>
</trkpt>
<trkpt lat="41.660460" lon="-0.764998">
<ele>277.5</ele>
<speed>23.5</speed>
<course>162.9</course>
<desc>Speed 23.5 km/h Distance 40.06 km</desc>
<time>2011-09-29T11:48:53.83</time>
<name>6063</name>
</trkpt>
<trkpt lat="41.660403" lon="-0.764975">
<ele>277.5</ele>
<speed>23.7</speed>
<course>165.6</course>
<desc>Speed 23.7 km/h Distance 40.07 km</desc>
<time>2011-09-29T11:48:54.83</time>
<name>6064</name>
</trkpt>
<trkpt lat="41.660345" lon="-0.764955">
<ele>277.5</ele>
<speed>23.9</speed>
<course>165.6</course>
<desc>Speed 23.9 km/h Distance 40.08 km</desc>
<time>2011-09-29T11:48:55.82</time>
<name>6065</name>
</trkpt>
<trkpt lat="41.660287" lon="-0.764935">
<ele>277.5</ele>
<speed>24.4</speed>
<course>167.0</course>
<desc>Speed 24.4 km/h Distance 40.08 km</desc>
<time>2011-09-29T11:48:57.23</time>
<name>6066</name>
</trkpt>
<trkpt lat="41.660168" lon="-0.764898">
<ele>277.5</ele>
<speed>24.3</speed>
<course>164.5</course>
<desc>Speed 24.3 km/h Distance 40.10 km</desc>
<time>2011-09-29T11:48:58.82</time>
<name>6067</name>
</trkpt>
<trkpt lat="41.660110" lon="-0.764877">
<ele>277.5</ele>
<speed>24.2</speed>
<course>166.8</course>
<desc>Speed 24.2 km/h Distance 40.10 km</desc>
<time>2011-09-29T11:48:59.82</time>
<name>6068</name>
</trkpt>
<trkpt lat="41.660052" lon="-0.764858">
<ele>277.5</ele>
<speed>24.2</speed>
<course>167.9</course>
<desc>Speed 24.2 km/h Distance 40.11 km</desc>
<time>2011-09-29T11:49:00.82</time>
<name>6069</name>
</trkpt>
<trkpt lat="41.659993" lon="-0.764842">
<ele>277.5</ele>
<speed>24.3</speed>
<course>164.9</course>
<desc>Speed 24.3 km/h Distance 40.12 km</desc>
<time>2011-09-29T11:49:01.82</time>
<name>6070</name>
</trkpt>
<trkpt lat="41.659933" lon="-0.764820">
<ele>277.5</ele>
<speed>24.7</speed>
<course>162.3</course>
<desc>Speed 24.7 km/h Distance 40.12 km</desc>
<time>2011-09-29T11:49:02.82</time>
<name>6071</name>
</trkpt>
<trkpt lat="41.659875" lon="-0.764795">
<ele>277.5</ele>
<speed>24.7</speed>
<course>162.8</course>
<desc>Speed 24.7 km/h Distance 40.13 km</desc>
<time>2011-09-29T11:49:04.15</time>
<name>6072</name>
</trkpt>
<trkpt lat="41.659758" lon="-0.764747">
<ele>277.5</ele>
<speed>24.5</speed>
<course>161.1</course>
<desc>Speed 24.5 km/h Distance 40.14 km</desc>
<time>2011-09-29T11:49:05.82</time>
<name>6073</name>
</trkpt>
<trkpt lat="41.659700" lon="-0.764720">
<ele>277.5</ele>
<speed>24.7</speed>
<course>160.1</course>
<desc>Speed 24.7 km/h Distance 40.15 km</desc>
<time>2011-09-29T11:49:06.96</time>
<name>6074</name>
</trkpt>
<trkpt lat="41.659587" lon="-0.764665">
<ele>277.5</ele>
<speed>24.2</speed>
<course>160.1</course>
<desc>Speed 24.2 km/h Distance 40.16 km</desc>
<time>2011-09-29T11:49:08.82</time>
<name>6075</name>
</trkpt>
<trkpt lat="41.659532" lon="-0.764638">
<ele>277.5</ele>
<speed>24.0</speed>
<course>159.0</course>
<desc>Speed 24.0 km/h Distance 40.17 km</desc>
<time>2011-09-29T11:49:09.81</time>
<name>6076</name>
</trkpt>
<trkpt lat="41.659477" lon="-0.764610">
<ele>277.5</ele>
<speed>23.9</speed>
<course>159.0</course>
<desc>Speed 23.9 km/h Distance 40.18 km</desc>
<time>2011-09-29T11:49:10.81</time>
<name>6077</name>
</trkpt>
<trkpt lat="41.659422" lon="-0.764582">
<ele>277.5</ele>
<speed>23.5</speed>
<course>161.3</course>
<desc>Speed 23.5 km/h Distance 40.18 km</desc>
<time>2011-09-29T11:49:11.81</time>
<name>6078</name>
</trkpt>
<trkpt lat="41.659367" lon="-0.764557">
<ele>277.5</ele>
<speed>23.7</speed>
<course>162.4</course>
<desc>Speed 23.7 km/h Distance 40.19 km</desc>
<time>2011-09-29T11:49:12.81</time>
<name>6079</name>
</trkpt>
<trkpt lat="41.659312" lon="-0.764533">
<ele>277.5</ele>
<speed>23.4</speed>
<course>168.8</course>
<desc>Speed 23.4 km/h Distance 40.20 km</desc>
<time>2011-09-29T11:49:13.89</time>
<name>6080</name>
</trkpt>
<trkpt lat="41.659255" lon="-0.764518">
<ele>277.5</ele>
<speed>23.0</speed>
<course>166.8</course>
<desc>Speed 23.0 km/h Distance 40.20 km</desc>
<time>2011-09-29T11:49:14.81</time>
<name>6081</name>
</trkpt>
<trkpt lat="41.659202" lon="-0.764502">
<ele>277.5</ele>
<speed>22.6</speed>
<course>169.7</course>
<desc>Speed 22.6 km/h Distance 40.21 km</desc>
<time>2011-09-29T11:49:15.81</time>
<name>6082</name>
</trkpt>
<trkpt lat="41.659147" lon="-0.764488">
<ele>277.0</ele>
<speed>22.6</speed>
<course>169.7</course>
<desc>Speed 22.6 km/h Distance 40.22 km</desc>
<time>2011-09-29T11:49:16.81</time>
<name>6083</name>
</trkpt>
<trkpt lat="41.659092" lon="-0.764475">
<ele>277.0</ele>
<speed>22.3</speed>
<course>173.5</course>
<desc>Speed 22.3 km/h Distance 40.22 km</desc>
<time>2011-09-29T11:49:17.81</time>
<name>6084</name>
</trkpt>
<trkpt lat="41.659037" lon="-0.764467">
<ele>277.0</ele>
<speed>22.7</speed>
<course>175.1</course>
<desc>Speed 22.7 km/h Distance 40.23 km</desc>
<time>2011-09-29T11:49:18.81</time>
<name>6085</name>
</trkpt>
<trkpt lat="41.658978" lon="-0.764460">
<ele>276.5</ele>
<speed>23.4</speed>
<course>174.1</course>
<desc>Speed 23.4 km/h Distance 40.23 km</desc>
<time>2011-09-29T11:49:19.81</time>
<name>6086</name>
</trkpt>
<trkpt lat="41.658918" lon="-0.764452">
<ele>276.5</ele>
<speed>24.1</speed>
<course>173.9</course>
<desc>Speed 24.1 km/h Distance 40.24 km</desc>
<time>2011-09-29T11:49:20.81</time>
<name>6087</name>
</trkpt>
<trkpt lat="41.658860" lon="-0.764443">
<ele>276.5</ele>
<speed>23.8</speed>
<course>172.7</course>
<desc>Speed 23.8 km/h Distance 40.25 km</desc>
<time>2011-09-29T11:49:21.81</time>
<name>6088</name>
</trkpt>
<trkpt lat="41.658802" lon="-0.764433">
<ele>276.0</ele>
<speed>23.8</speed>
<course>173.9</course>
<desc>Speed 23.8 km/h Distance 40.25 km</desc>
<time>2011-09-29T11:49:22.80</time>
<name>6089</name>
</trkpt>
<trkpt lat="41.658743" lon="-0.764425">
<ele>276.0</ele>
<speed>23.6</speed>
<course>176.4</course>
<desc>Speed 23.6 km/h Distance 40.26 km</desc>
<time>2011-09-29T11:49:23.81</time>
<name>6090</name>
</trkpt>
<trkpt lat="41.658685" lon="-0.764420">
<ele>275.5</ele>
<speed>23.6</speed>
<course>172.7</course>
<desc>Speed 23.6 km/h Distance 40.27 km</desc>
<time>2011-09-29T11:49:24.80</time>
<name>6091</name>
</trkpt>
<trkpt lat="41.658627" lon="-0.764410">
<ele>275.5</ele>
<speed>23.5</speed>
<course>173.3</course>
<desc>Speed 23.5 km/h Distance 40.27 km</desc>
<time>2011-09-29T11:49:26.44</time>
<name>6092</name>
</trkpt>
<trkpt lat="41.658457" lon="-0.764383">
<ele>274.5</ele>
<speed>22.8</speed>
<course>173.5</course>
<desc>Speed 22.8 km/h Distance 40.29 km</desc>
<time>2011-09-29T11:49:28.80</time>
<name>6093</name>
</trkpt>
<trkpt lat="41.658402" lon="-0.764375">
<ele>274.5</ele>
<speed>22.9</speed>
<course>175.1</course>
<desc>Speed 22.9 km/h Distance 40.30 km</desc>
<time>2011-09-29T11:49:29.80</time>
<name>6094</name>
</trkpt>
<trkpt lat="41.658345" lon="-0.764368">
<ele>274.0</ele>
<speed>22.9</speed>
<course>177.6</course>
<desc>Speed 22.9 km/h Distance 40.31 km</desc>
<time>2011-09-29T11:49:30.80</time>
<name>6095</name>
</trkpt>
<trkpt lat="41.658288" lon="-0.764365">
<ele>273.5</ele>
<speed>23.3</speed>
<course>176.4</course>
<desc>Speed 23.3 km/h Distance 40.31 km</desc>
<time>2011-09-29T11:49:31.80</time>
<name>6096</name>
</trkpt>
<trkpt lat="41.658228" lon="-0.764360">
<ele>273.5</ele>
<speed>23.6</speed>
<course>178.9</course>
<desc>Speed 23.6 km/h Distance 40.32 km</desc>
<time>2011-09-29T11:49:32.80</time>
<name>6097</name>
</trkpt>
<trkpt lat="41.658170" lon="-0.764358">
<ele>273.0</ele>
<speed>23.6</speed>
<course>182.4</course>
<desc>Speed 23.6 km/h Distance 40.32 km</desc>
<time>2011-09-29T11:49:33.80</time>
<name>6098</name>
</trkpt>
<trkpt lat="41.658113" lon="-0.764362">
<ele>273.0</ele>
<speed>23.5</speed>
<course>184.9</course>
<desc>Speed 23.5 km/h Distance 40.33 km</desc>
<time>2011-09-29T11:49:34.80</time>
<name>6099</name>
</trkpt>
<trkpt lat="41.658055" lon="-0.764368">
<ele>272.5</ele>
<speed>23.7</speed>
<course>184.1</course>
<desc>Speed 23.7 km/h Distance 40.34 km</desc>
<time>2011-09-29T11:49:36.18</time>
<name>6100</name>
</trkpt>
<trkpt lat="41.657933" lon="-0.764380">
<ele>271.5</ele>
<speed>24.9</speed>
<course>189.8</course>
<desc>Speed 24.9 km/h Distance 40.35 km</desc>
<time>2011-09-29T11:49:37.80</time>
<name>6101</name>
</trkpt>
<trkpt lat="41.657868" lon="-0.764395">
<ele>271.0</ele>
<speed>26.3</speed>
<course>194.3</course>
<desc>Speed 26.3 km/h Distance 40.36 km</desc>
<time>2011-09-29T11:49:38.80</time>
<name>6102</name>
</trkpt>
<trkpt lat="41.657805" lon="-0.764417">
<ele>270.5</ele>
<speed>26.9</speed>
<course>196.0</course>
<desc>Speed 26.9 km/h Distance 40.37 km</desc>
<time>2011-09-29T11:49:39.80</time>
<name>6103</name>
</trkpt>
<trkpt lat="41.657740" lon="-0.764442">
<ele>270.5</ele>
<speed>26.9</speed>
<course>196.4</course>
<desc>Speed 26.9 km/h Distance 40.37 km</desc>
<time>2011-09-29T11:49:40.80</time>
<name>6104</name>
</trkpt>
<trkpt lat="41.657677" lon="-0.764467">
<ele>270.0</ele>
<speed>26.9</speed>
<course>195.8</course>
<desc>Speed 26.9 km/h Distance 40.38 km</desc>
<time>2011-09-29T11:49:41.80</time>
<name>6105</name>
</trkpt>
<trkpt lat="41.657615" lon="-0.764490">
<ele>270.5</ele>
<speed>26.2</speed>
<course>191.5</course>
<desc>Speed 26.2 km/h Distance 40.39 km</desc>
<time>2011-09-29T11:49:43.12</time>
<name>6106</name>
</trkpt>
<trkpt lat="41.657487" lon="-0.764525">
<ele>270.0</ele>
<speed>26.5</speed>
<course>185.5</course>
<desc>Speed 26.5 km/h Distance 40.40 km</desc>
<time>2011-09-29T11:49:44.79</time>
<name>6107</name>
</trkpt>
<trkpt lat="41.657422" lon="-0.764533">
<ele>270.0</ele>
<speed>26.5</speed>
<course>176.2</course>
<desc>Speed 26.5 km/h Distance 40.41 km</desc>
<time>2011-09-29T11:49:46.08</time>
<name>6108</name>
</trkpt>
<trkpt lat="41.657290" lon="-0.764522">
<ele>270.0</ele>
<speed>26.5</speed>
<course>171.1</course>
<desc>Speed 26.5 km/h Distance 40.42 km</desc>
<time>2011-09-29T11:49:47.79</time>
<name>6109</name>
</trkpt>
<trkpt lat="41.657227" lon="-0.764508">
<ele>270.0</ele>
<speed>26.2</speed>
<course>167.5</course>
<desc>Speed 26.2 km/h Distance 40.43 km</desc>
<time>2011-09-29T11:49:48.79</time>
<name>6110</name>
</trkpt>
<trkpt lat="41.657165" lon="-0.764490">
<ele>270.0</ele>
<speed>25.6</speed>
<course>164.9</course>
<desc>Speed 25.6 km/h Distance 40.44 km</desc>
<time>2011-09-29T11:49:49.79</time>
<name>6111</name>
</trkpt>
<trkpt lat="41.657105" lon="-0.764468">
<ele>270.0</ele>
<speed>25.2</speed>
<course>167.1</course>
<desc>Speed 25.2 km/h Distance 40.45 km</desc>
<time>2011-09-29T11:49:50.79</time>
<name>6112</name>
</trkpt>
<trkpt lat="41.657045" lon="-0.764450">
<ele>270.0</ele>
<speed>25.1</speed>
<course>166.4</course>
<desc>Speed 25.1 km/h Distance 40.45 km</desc>
<time>2011-09-29T11:49:51.79</time>
<name>6113</name>
</trkpt>
<trkpt lat="41.656983" lon="-0.764430">
<ele>270.0</ele>
<speed>25.3</speed>
<course>167.6</course>
<desc>Speed 25.3 km/h Distance 40.46 km</desc>
<time>2011-09-29T11:49:52.95</time>
<name>6114</name>
</trkpt>
<trkpt lat="41.656858" lon="-0.764393">
<ele>270.0</ele>
<speed>25.6</speed>
<course>167.5</course>
<desc>Speed 25.6 km/h Distance 40.47 km</desc>
<time>2011-09-29T11:49:54.79</time>
<name>6115</name>
</trkpt>
<trkpt lat="41.656797" lon="-0.764375">
<ele>270.0</ele>
<speed>25.2</speed>
<course>167.1</course>
<desc>Speed 25.2 km/h Distance 40.48 km</desc>
<time>2011-09-29T11:49:55.80</time>
<name>6116</name>
</trkpt>
<trkpt lat="41.656737" lon="-0.764357">
<ele>270.5</ele>
<speed>24.9</speed>
<course>169.4</course>
<desc>Speed 24.9 km/h Distance 40.49 km</desc>
<time>2011-09-29T11:49:56.79</time>
<name>6117</name>
</trkpt>
<trkpt lat="41.656677" lon="-0.764342">
<ele>270.5</ele>
<speed>24.8</speed>
<course>168.3</course>
<desc>Speed 24.8 km/h Distance 40.49 km</desc>
<time>2011-09-29T11:49:57.79</time>
<name>6118</name>
</trkpt>
<trkpt lat="41.656617" lon="-0.764325">
<ele>270.5</ele>
<speed>24.5</speed>
<course>169.5</course>
<desc>Speed 24.5 km/h Distance 40.50 km</desc>
<time>2011-09-29T11:49:58.79</time>
<name>6119</name>
</trkpt>
<trkpt lat="41.656557" lon="-0.764310">
<ele>270.5</ele>
<speed>24.2</speed>
<course>168.3</course>
<desc>Speed 24.2 km/h Distance 40.51 km</desc>
<time>2011-09-29T11:49:59.79</time>
<name>6120</name>
</trkpt>
<trkpt lat="41.656497" lon="-0.764293">
<ele>270.5</ele>
<speed>24.4</speed>
<course>167.9</course>
<desc>Speed 24.4 km/h Distance 40.51 km</desc>
<time>2011-09-29T11:50:00.79</time>
<name>6121</name>
</trkpt>
<trkpt lat="41.656438" lon="-0.764277">
<ele>270.5</ele>
<speed>24.0</speed>
<course>167.6</course>
<desc>Speed 24.0 km/h Distance 40.52 km</desc>
<time>2011-09-29T11:50:01.79</time>
<name>6122</name>
</trkpt>
<trkpt lat="41.656382" lon="-0.764260">
<ele>270.5</ele>
<speed>23.7</speed>
<course>167.6</course>
<desc>Speed 23.7 km/h Distance 40.53 km</desc>
<time>2011-09-29T11:50:02.79</time>
<name>6123</name>
</trkpt>
<trkpt lat="41.656325" lon="-0.764243">
<ele>270.5</ele>
<speed>23.7</speed>
<course>165.6</course>
<desc>Speed 23.7 km/h Distance 40.53 km</desc>
<time>2011-09-29T11:50:03.79</time>
<name>6124</name>
</trkpt>
<trkpt lat="41.656267" lon="-0.764223">
<ele>270.5</ele>
<speed>23.9</speed>
<course>163.4</course>
<desc>Speed 23.9 km/h Distance 40.54 km</desc>
<time>2011-09-29T11:50:05.49</time>
<name>6125</name>
</trkpt>
<trkpt lat="41.656100" lon="-0.764157">
<ele>270.5</ele>
<speed>23.4</speed>
<course>158.9</course>
<desc>Speed 23.4 km/h Distance 40.56 km</desc>
<time>2011-09-29T11:50:07.78</time>
<name>6126</name>
</trkpt>
<trkpt lat="41.656045" lon="-0.764128">
<ele>270.5</ele>
<speed>23.7</speed>
<course>154.3</course>
<desc>Speed 23.7 km/h Distance 40.57 km</desc>
<time>2011-09-29T11:50:08.78</time>
<name>6127</name>
</trkpt>
<trkpt lat="41.655993" lon="-0.764095">
<ele>270.5</ele>
<speed>23.1</speed>
<course>152.1</course>
<desc>Speed 23.1 km/h Distance 40.57 km</desc>
<time>2011-09-29T11:50:09.78</time>
<name>6128</name>
</trkpt>
<trkpt lat="41.655942" lon="-0.764058">
<ele>270.5</ele>
<speed>23.3</speed>
<course>148.3</course>
<desc>Speed 23.3 km/h Distance 40.58 km</desc>
<time>2011-09-29T11:50:10.78</time>
<name>6129</name>
</trkpt>
<trkpt lat="41.655893" lon="-0.764018">
<ele>270.5</ele>
<speed>23.1</speed>
<course>146.2</course>
<desc>Speed 23.1 km/h Distance 40.59 km</desc>
<time>2011-09-29T11:50:11.78</time>
<name>6130</name>
</trkpt>
<trkpt lat="41.655845" lon="-0.763975">
<ele>270.5</ele>
<speed>23.3</speed>
<course>142.2</course>
<desc>Speed 23.3 km/h Distance 40.59 km</desc>
<time>2011-09-29T11:50:12.78</time>
<name>6131</name>
</trkpt>
<trkpt lat="41.655800" lon="-0.763928">
<ele>270.5</ele>
<speed>22.7</speed>
<course>144.3</course>
<desc>Speed 22.7 km/h Distance 40.60 km</desc>
<time>2011-09-29T11:50:13.79</time>
<name>6132</name>
</trkpt>
<trkpt lat="41.655755" lon="-0.763885">
<ele>270.5</ele>
<speed>22.1</speed>
<course>144.3</course>
<desc>Speed 22.1 km/h Distance 40.61 km</desc>
<time>2011-09-29T11:50:15.22</time>
<name>6133</name>
</trkpt>
<trkpt lat="41.655667" lon="-0.763800">
<ele>270.5</ele>
<speed>21.6</speed>
<course>153.9</course>
<desc>Speed 21.6 km/h Distance 40.62 km</desc>
<time>2011-09-29T11:50:16.78</time>
<name>6134</name>
</trkpt>
<trkpt lat="41.655618" lon="-0.763768">
<ele>270.5</ele>
<speed>21.6</speed>
<course>155.1</course>
<desc>Speed 21.6 km/h Distance 40.62 km</desc>
<time>2011-09-29T11:50:17.78</time>
<name>6135</name>
</trkpt>
<trkpt lat="41.655570" lon="-0.763738">
<ele>270.0</ele>
<speed>21.7</speed>
<course>162.6</course>
<desc>Speed 21.7 km/h Distance 40.63 km</desc>
<time>2011-09-29T11:50:18.77</time>
<name>6136</name>
</trkpt>
<trkpt lat="41.655518" lon="-0.763717">
<ele>270.0</ele>
<speed>21.5</speed>
<course>168.5</course>
<desc>Speed 21.5 km/h Distance 40.64 km</desc>
<time>2011-09-29T11:50:19.78</time>
<name>6137</name>
</trkpt>
<trkpt lat="41.655463" lon="-0.763702">
<ele>269.5</ele>
<speed>22.5</speed>
<course>168.8</course>
<desc>Speed 22.5 km/h Distance 40.64 km</desc>
<time>2011-09-29T11:50:20.77</time>
<name>6138</name>
</trkpt>
<trkpt lat="41.655407" lon="-0.763687">
<ele>269.5</ele>
<speed>23.5</speed>
<course>169.3</course>
<desc>Speed 23.5 km/h Distance 40.65 km</desc>
<time>2011-09-29T11:50:22.15</time>
<name>6139</name>
</trkpt>
<trkpt lat="41.655288" lon="-0.763657">
<ele>269.0</ele>
<speed>24.2</speed>
<course>168.0</course>
<desc>Speed 24.2 km/h Distance 40.66 km</desc>
<time>2011-09-29T11:50:23.77</time>
<name>6140</name>
</trkpt>
<trkpt lat="41.655230" lon="-0.763640">
<ele>269.0</ele>
<speed>24.6</speed>
<course>168.6</course>
<desc>Speed 24.6 km/h Distance 40.67 km</desc>
<time>2011-09-29T11:50:24.96</time>
<name>6141</name>
</trkpt>
<trkpt lat="41.655107" lon="-0.763607">
<ele>268.5</ele>
<speed>25.1</speed>
<course>167.2</course>
<desc>Speed 25.1 km/h Distance 40.68 km</desc>
<time>2011-09-29T11:50:26.77</time>
<name>6142</name>
</trkpt>
<trkpt lat="41.655047" lon="-0.763588">
<ele>268.5</ele>
<speed>25.2</speed>
<course>168.6</course>
<desc>Speed 25.2 km/h Distance 40.69 km</desc>
<time>2011-09-29T11:50:27.77</time>
<name>6143</name>
</trkpt>
<trkpt lat="41.654985" lon="-0.763572">
<ele>268.5</ele>
<speed>25.3</speed>
<course>168.6</course>
<desc>Speed 25.3 km/h Distance 40.70 km</desc>
<time>2011-09-29T11:50:28.77</time>
<name>6144</name>
</trkpt>
<trkpt lat="41.654923" lon="-0.763555">
<ele>268.5</ele>
<speed>25.4</speed>
<course>167.5</course>
<desc>Speed 25.4 km/h Distance 40.70 km</desc>
<time>2011-09-29T11:50:29.77</time>
<name>6145</name>
</trkpt>
<trkpt lat="41.654862" lon="-0.763537">
<ele>268.5</ele>
<speed>25.5</speed>
<course>166.0</course>
<desc>Speed 25.5 km/h Distance 40.71 km</desc>
<time>2011-09-29T11:50:30.77</time>
<name>6146</name>
</trkpt>
<trkpt lat="41.654802" lon="-0.763517">
<ele>268.5</ele>
<speed>25.5</speed>
<course>166.4</course>
<desc>Speed 25.5 km/h Distance 40.72 km</desc>
<time>2011-09-29T11:50:31.90</time>
<name>6147</name>
</trkpt>
<trkpt lat="41.654740" lon="-0.763497">
<ele>268.0</ele>
<speed>25.5</speed>
<course>167.5</course>
<desc>Speed 25.5 km/h Distance 40.72 km</desc>
<time>2011-09-29T11:50:32.77</time>
<name>6148</name>
</trkpt>
<trkpt lat="41.654678" lon="-0.763478">
<ele>268.0</ele>
<speed>25.3</speed>
<course>168.6</course>
<desc>Speed 25.3 km/h Distance 40.73 km</desc>
<time>2011-09-29T11:50:33.77</time>
<name>6149</name>
</trkpt>
<trkpt lat="41.654617" lon="-0.763462">
<ele>268.0</ele>
<speed>25.4</speed>
<course>165.3</course>
<desc>Speed 25.4 km/h Distance 40.74 km</desc>
<time>2011-09-29T11:50:34.78</time>
<name>6150</name>
</trkpt>
<trkpt lat="41.654555" lon="-0.763440">
<ele>268.0</ele>
<speed>25.5</speed>
<course>166.4</course>
<desc>Speed 25.5 km/h Distance 40.74 km</desc>
<time>2011-09-29T11:50:35.76</time>
<name>6151</name>
</trkpt>
<trkpt lat="41.654493" lon="-0.763420">
<ele>268.0</ele>
<speed>25.4</speed>
<course>167.5</course>
<desc>Speed 25.4 km/h Distance 40.75 km</desc>
<time>2011-09-29T11:50:36.76</time>
<name>6152</name>
</trkpt>
<trkpt lat="41.654432" lon="-0.763402">
<ele>268.0</ele>
<speed>25.6</speed>
<course>166.4</course>
<desc>Speed 25.6 km/h Distance 40.76 km</desc>
<time>2011-09-29T11:50:37.76</time>
<name>6153</name>
</trkpt>
<trkpt lat="41.654370" lon="-0.763382">
<ele>268.0</ele>
<speed>25.5</speed>
<course>167.2</course>
<desc>Speed 25.5 km/h Distance 40.77 km</desc>
<time>2011-09-29T11:50:38.77</time>
<name>6154</name>
</trkpt>
<trkpt lat="41.654310" lon="-0.763363">
<ele>268.0</ele>
<speed>25.5</speed>
<course>167.5</course>
<desc>Speed 25.5 km/h Distance 40.77 km</desc>
<time>2011-09-29T11:50:39.76</time>
<name>6155</name>
</trkpt>
<trkpt lat="41.654248" lon="-0.763345">
<ele>268.0</ele>
<speed>25.4</speed>
<course>166.0</course>
<desc>Speed 25.4 km/h Distance 40.78 km</desc>
<time>2011-09-29T11:50:40.76</time>
<name>6156</name>
</trkpt>
<trkpt lat="41.654188" lon="-0.763325">
<ele>268.0</ele>
<speed>25.4</speed>
<course>166.4</course>
<desc>Speed 25.4 km/h Distance 40.79 km</desc>
<time>2011-09-29T11:50:41.76</time>
<name>6157</name>
</trkpt>
<trkpt lat="41.654127" lon="-0.763305">
<ele>268.0</ele>
<speed>25.5</speed>
<course>167.2</course>
<desc>Speed 25.5 km/h Distance 40.79 km</desc>
<time>2011-09-29T11:50:42.76</time>
<name>6158</name>
</trkpt>
<trkpt lat="41.654067" lon="-0.763287">
<ele>268.0</ele>
<speed>25.4</speed>
<course>165.3</course>
<desc>Speed 25.4 km/h Distance 40.80 km</desc>
<time>2011-09-29T11:50:44.43</time>
<name>6159</name>
</trkpt>
<trkpt lat="41.653887" lon="-0.763223">
<ele>268.0</ele>
<speed>25.1</speed>
<course>167.1</course>
<desc>Speed 25.1 km/h Distance 40.82 km</desc>
<time>2011-09-29T11:50:46.76</time>
<name>6160</name>
</trkpt>
<trkpt lat="41.653827" lon="-0.763205">
<ele>268.0</ele>
<speed>24.7</speed>
<course>167.1</course>
<desc>Speed 24.7 km/h Distance 40.83 km</desc>
<time>2011-09-29T11:50:47.76</time>
<name>6161</name>
</trkpt>
<trkpt lat="41.653767" lon="-0.763187">
<ele>268.0</ele>
<speed>24.9</speed>
<course>166.4</course>
<desc>Speed 24.9 km/h Distance 40.84 km</desc>
<time>2011-09-29T11:50:48.76</time>
<name>6162</name>
</trkpt>
<trkpt lat="41.653705" lon="-0.763167">
<ele>267.5</ele>
<speed>25.2</speed>
<course>166.4</course>
<desc>Speed 25.2 km/h Distance 40.84 km</desc>
<time>2011-09-29T11:50:49.76</time>
<name>6163</name>
</trkpt>
<trkpt lat="41.653643" lon="-0.763147">
<ele>267.5</ele>
<speed>26.0</speed>
<course>168.1</course>
<desc>Speed 26.0 km/h Distance 40.85 km</desc>
<time>2011-09-29T11:50:50.76</time>
<name>6164</name>
</trkpt>
<trkpt lat="41.653578" lon="-0.763128">
<ele>267.5</ele>
<speed>26.2</speed>
<course>166.7</course>
<desc>Speed 26.2 km/h Distance 40.86 km</desc>
<time>2011-09-29T11:50:51.76</time>
<name>6165</name>
</trkpt>
<trkpt lat="41.653515" lon="-0.763108">
<ele>267.5</ele>
<speed>26.5</speed>
<course>168.4</course>
<desc>Speed 26.5 km/h Distance 40.86 km</desc>
<time>2011-09-29T11:50:52.76</time>
<name>6166</name>
</trkpt>
<trkpt lat="41.653448" lon="-0.763090">
<ele>267.5</ele>
<speed>26.8</speed>
<course>167.7</course>
<desc>Speed 26.8 km/h Distance 40.87 km</desc>
<time>2011-09-29T11:50:54.16</time>
<name>6167</name>
</trkpt>
<trkpt lat="41.653317" lon="-0.763052">
<ele>267.0</ele>
<speed>26.9</speed>
<course>167.8</course>
<desc>Speed 26.9 km/h Distance 40.89 km</desc>
<time>2011-09-29T11:50:55.76</time>
<name>6168</name>
</trkpt>
<trkpt lat="41.653253" lon="-0.763033">
<ele>267.0</ele>
<speed>26.5</speed>
<course>166.0</course>
<desc>Speed 26.5 km/h Distance 40.89 km</desc>
<time>2011-09-29T11:50:56.75</time>
<name>6169</name>
</trkpt>
<trkpt lat="41.653188" lon="-0.763012">
<ele>267.0</ele>
<speed>26.4</speed>
<course>167.8</course>
<desc>Speed 26.4 km/h Distance 40.90 km</desc>
<time>2011-09-29T11:50:57.75</time>
<name>6170</name>
</trkpt>
<trkpt lat="41.653125" lon="-0.762993">
<ele>267.0</ele>
<speed>26.3</speed>
<course>168.1</course>
<desc>Speed 26.3 km/h Distance 40.91 km</desc>
<time>2011-09-29T11:50:58.75</time>
<name>6171</name>
</trkpt>
<trkpt lat="41.653060" lon="-0.762975">
<ele>267.0</ele>
<speed>26.4</speed>
<course>171.3</course>
<desc>Speed 26.4 km/h Distance 40.92 km</desc>
<time>2011-09-29T11:50:59.75</time>
<name>6172</name>
</trkpt>
<trkpt lat="41.652995" lon="-0.762962">
<ele>267.0</ele>
<speed>26.6</speed>
<course>168.6</course>
<desc>Speed 26.6 km/h Distance 40.92 km</desc>
<time>2011-09-29T11:51:01.10</time>
<name>6173</name>
</trkpt>
<trkpt lat="41.652865" lon="-0.762927">
<ele>266.5</ele>
<speed>26.7</speed>
<course>166.0</course>
<desc>Speed 26.7 km/h Distance 40.94 km</desc>
<time>2011-09-29T11:51:02.75</time>
<name>6174</name>
</trkpt>
<trkpt lat="41.652800" lon="-0.762905">
<ele>266.5</ele>
<speed>27.1</speed>
<course>163.0</course>
<desc>Speed 27.1 km/h Distance 40.95 km</desc>
<time>2011-09-29T11:51:03.91</time>
<name>6175</name>
</trkpt>
<trkpt lat="41.652670" lon="-0.762852">
<ele>266.5</ele>
<speed>27.4</speed>
<course>159.0</course>
<desc>Speed 27.4 km/h Distance 40.96 km</desc>
<time>2011-09-29T11:51:05.75</time>
<name>6176</name>
</trkpt>
<trkpt lat="41.652605" lon="-0.762818">
<ele>266.0</ele>
<speed>27.6</speed>
<course>156.1</course>
<desc>Speed 27.6 km/h Distance 40.97 km</desc>
<time>2011-09-29T11:51:06.75</time>
<name>6177</name>
</trkpt>
<trkpt lat="41.652543" lon="-0.762782">
<ele>266.0</ele>
<speed>27.6</speed>
<course>152.3</course>
<desc>Speed 27.6 km/h Distance 40.98 km</desc>
<time>2011-09-29T11:51:07.75</time>
<name>6178</name>
</trkpt>
<trkpt lat="41.652482" lon="-0.762738">
<ele>266.0</ele>
<speed>27.7</speed>
<course>148.2</course>
<desc>Speed 27.7 km/h Distance 40.98 km</desc>
<time>2011-09-29T11:51:08.75</time>
<name>6179</name>
</trkpt>
<trkpt lat="41.652423" lon="-0.762690">
<ele>266.0</ele>
<speed>27.5</speed>
<course>148.2</course>
<desc>Speed 27.5 km/h Distance 40.99 km</desc>
<time>2011-09-29T11:51:09.74</time>
<name>6180</name>
</trkpt>
<trkpt lat="41.652365" lon="-0.762642">
<ele>265.5</ele>
<speed>27.4</speed>
<course>147.4</course>
<desc>Speed 27.4 km/h Distance 41.00 km</desc>
<time>2011-09-29T11:51:10.85</time>
<name>6181</name>
</trkpt>
<trkpt lat="41.652307" lon="-0.762592">
<ele>265.5</ele>
<speed>27.6</speed>
<course>146.6</course>
<desc>Speed 27.6 km/h Distance 41.01 km</desc>
<time>2011-09-29T11:51:11.74</time>
<name>6182</name>
</trkpt>
<trkpt lat="41.652250" lon="-0.762542">
<ele>265.5</ele>
<speed>27.0</speed>
<course>146.6</course>
<desc>Speed 27.0 km/h Distance 41.01 km</desc>
<time>2011-09-29T11:51:12.74</time>
<name>6183</name>
</trkpt>
<trkpt lat="41.652193" lon="-0.762492">
<ele>265.5</ele>
<speed>27.0</speed>
<course>145.8</course>
<desc>Speed 27.0 km/h Distance 41.02 km</desc>
<time>2011-09-29T11:51:13.77</time>
<name>6184</name>
</trkpt>
<trkpt lat="41.652138" lon="-0.762442">
<ele>265.5</ele>
<speed>27.1</speed>
<course>146.6</course>
<desc>Speed 27.1 km/h Distance 41.03 km</desc>
<time>2011-09-29T11:51:14.74</time>
<name>6185</name>
</trkpt>
<trkpt lat="41.652082" lon="-0.762392">
<ele>265.5</ele>
<speed>27.0</speed>
<course>147.5</course>
<desc>Speed 27.0 km/h Distance 41.04 km</desc>
<time>2011-09-29T11:51:15.74</time>
<name>6186</name>
</trkpt>
<trkpt lat="41.652025" lon="-0.762343">
<ele>265.5</ele>
<speed>26.7</speed>
<course>144.9</course>
<desc>Speed 26.7 km/h Distance 41.04 km</desc>
<time>2011-09-29T11:51:16.74</time>
<name>6187</name>
</trkpt>
<trkpt lat="41.651970" lon="-0.762292">
<ele>265.5</ele>
<speed>26.8</speed>
<course>146.7</course>
<desc>Speed 26.8 km/h Distance 41.05 km</desc>
<time>2011-09-29T11:51:17.74</time>
<name>6188</name>
</trkpt>
<trkpt lat="41.651915" lon="-0.762243">
<ele>265.0</ele>
<speed>26.7</speed>
<course>147.5</course>
<desc>Speed 26.7 km/h Distance 41.06 km</desc>
<time>2011-09-29T11:51:18.74</time>
<name>6189</name>
</trkpt>
<trkpt lat="41.651858" lon="-0.762195">
<ele>265.0</ele>
<speed>27.1</speed>
<course>146.6</course>
<desc>Speed 27.1 km/h Distance 41.07 km</desc>
<time>2011-09-29T11:51:19.74</time>
<name>6190</name>
</trkpt>
<trkpt lat="41.651802" lon="-0.762145">
<ele>265.0</ele>
<speed>27.1</speed>
<course>145.8</course>
<desc>Speed 27.1 km/h Distance 41.07 km</desc>
<time>2011-09-29T11:51:20.74</time>
<name>6191</name>
</trkpt>
<trkpt lat="41.651747" lon="-0.762095">
<ele>265.0</ele>
<speed>27.1</speed>
<course>148.4</course>
<desc>Speed 27.1 km/h Distance 41.08 km</desc>
<time>2011-09-29T11:51:21.74</time>
<name>6192</name>
</trkpt>
<trkpt lat="41.651690" lon="-0.762048">
<ele>264.5</ele>
<speed>26.7</speed>
<course>147.0</course>
<desc>Speed 26.7 km/h Distance 41.09 km</desc>
<time>2011-09-29T11:51:23.38</time>
<name>6193</name>
</trkpt>
<trkpt lat="41.651525" lon="-0.761905">
<ele>264.5</ele>
<speed>26.0</speed>
<course>146.9</course>
<desc>Speed 26.0 km/h Distance 41.11 km</desc>
<time>2011-09-29T11:51:25.73</time>
<name>6194</name>
</trkpt>
<trkpt lat="41.651473" lon="-0.761860">
<ele>264.5</ele>
<speed>24.8</speed>
<course>147.1</course>
<desc>Speed 24.8 km/h Distance 41.12 km</desc>
<time>2011-09-29T11:51:26.73</time>
<name>6195</name>
</trkpt>
<trkpt lat="41.651423" lon="-0.761817">
<ele>264.5</ele>
<speed>23.8</speed>
<course>146.2</course>
<desc>Speed 23.8 km/h Distance 41.12 km</desc>
<time>2011-09-29T11:51:27.73</time>
<name>6196</name>
</trkpt>
<trkpt lat="41.651375" lon="-0.761773">
<ele>264.5</ele>
<speed>23.4</speed>
<course>149.3</course>
<desc>Speed 23.4 km/h Distance 41.13 km</desc>
<time>2011-09-29T11:51:28.73</time>
<name>6197</name>
</trkpt>
<trkpt lat="41.651327" lon="-0.761735">
<ele>264.5</ele>
<speed>22.5</speed>
<course>147.2</course>
<desc>Speed 22.5 km/h Distance 41.14 km</desc>
<time>2011-09-29T11:51:29.73</time>
<name>6198</name>
</trkpt>
<trkpt lat="41.651278" lon="-0.761693">
<ele>264.5</ele>
<speed>22.8</speed>
<course>146.1</course>
<desc>Speed 22.8 km/h Distance 41.14 km</desc>
<time>2011-09-29T11:51:30.73</time>
<name>6199</name>
</trkpt>
<trkpt lat="41.651228" lon="-0.761648">
<ele>264.0</ele>
<speed>24.1</speed>
<course>146.9</course>
<desc>Speed 24.1 km/h Distance 41.15 km</desc>
<time>2011-09-29T11:51:31.73</time>
<name>6200</name>
</trkpt>
<trkpt lat="41.651177" lon="-0.761603">
<ele>264.0</ele>
<speed>25.2</speed>
<course>147.7</course>
<desc>Speed 25.2 km/h Distance 41.16 km</desc>
<time>2011-09-29T11:51:33.14</time>
<name>6201</name>
</trkpt>
<trkpt lat="41.651068" lon="-0.761512">
<ele>264.0</ele>
<speed>25.8</speed>
<course>145.9</course>
<desc>Speed 25.8 km/h Distance 41.17 km</desc>
<time>2011-09-29T11:51:34.73</time>
<name>6202</name>
</trkpt>
<trkpt lat="41.651015" lon="-0.761463">
<ele>264.0</ele>
<speed>25.7</speed>
<course>146.0</course>
<desc>Speed 25.7 km/h Distance 41.18 km</desc>
<time>2011-09-29T11:51:35.73</time>
<name>6203</name>
</trkpt>
<trkpt lat="41.650963" lon="-0.761417">
<ele>263.5</ele>
<speed>25.4</speed>
<course>146.0</course>
<desc>Speed 25.4 km/h Distance 41.19 km</desc>
<time>2011-09-29T11:51:36.73</time>
<name>6204</name>
</trkpt>
<trkpt lat="41.650912" lon="-0.761370">
<ele>263.5</ele>
<speed>25.2</speed>
<course>146.0</course>
<desc>Speed 25.2 km/h Distance 41.19 km</desc>
<time>2011-09-29T11:51:37.72</time>
<name>6205</name>
</trkpt>
<trkpt lat="41.650860" lon="-0.761323">
<ele>263.5</ele>
<speed>25.1</speed>
<course>148.7</course>
<desc>Speed 25.1 km/h Distance 41.20 km</desc>
<time>2011-09-29T11:51:38.72</time>
<name>6206</name>
</trkpt>
<trkpt lat="41.650807" lon="-0.761280">
<ele>263.5</ele>
<speed>24.9</speed>
<course>150.5</course>
<desc>Speed 24.9 km/h Distance 41.21 km</desc>
<time>2011-09-29T11:51:40.08</time>
<name>6207</name>
</trkpt>
<trkpt lat="41.650697" lon="-0.761197">
<ele>263.5</ele>
<speed>25.4</speed>
<course>151.2</course>
<desc>Speed 25.4 km/h Distance 41.22 km</desc>
<time>2011-09-29T11:51:41.72</time>
<name>6208</name>
</trkpt>
<trkpt lat="41.650640" lon="-0.761155">
<ele>263.5</ele>
<speed>26.1</speed>
<course>150.5</course>
<desc>Speed 26.1 km/h Distance 41.23 km</desc>
<time>2011-09-29T11:51:42.88</time>
<name>6209</name>
</trkpt>
<trkpt lat="41.650585" lon="-0.761113">
<ele>263.5</ele>
<speed>25.7</speed>
<course>149.5</course>
<desc>Speed 25.7 km/h Distance 41.23 km</desc>
<time>2011-09-29T11:51:43.72</time>
<name>6210</name>
</trkpt>
<trkpt lat="41.650530" lon="-0.761070">
<ele>263.0</ele>
<speed>25.7</speed>
<course>149.5</course>
<desc>Speed 25.7 km/h Distance 41.24 km</desc>
<time>2011-09-29T11:51:44.72</time>
<name>6211</name>
</trkpt>
<trkpt lat="41.650475" lon="-0.761027">
<ele>263.0</ele>
<speed>26.0</speed>
<course>148.6</course>
<desc>Speed 26.0 km/h Distance 41.25 km</desc>
<time>2011-09-29T11:51:45.72</time>
<name>6212</name>
</trkpt>
<trkpt lat="41.650420" lon="-0.760982">
<ele>263.0</ele>
<speed>26.0</speed>
<course>148.6</course>
<desc>Speed 26.0 km/h Distance 41.26 km</desc>
<time>2011-09-29T11:51:46.72</time>
<name>6213</name>
</trkpt>
<trkpt lat="41.650365" lon="-0.760937">
<ele>263.0</ele>
<speed>25.7</speed>
<course>146.8</course>
<desc>Speed 25.7 km/h Distance 41.26 km</desc>
<time>2011-09-29T11:51:47.72</time>
<name>6214</name>
</trkpt>
<trkpt lat="41.650312" lon="-0.760890">
<ele>263.0</ele>
<speed>25.4</speed>
<course>146.8</course>
<desc>Speed 25.4 km/h Distance 41.27 km</desc>
<time>2011-09-29T11:51:48.72</time>
<name>6215</name>
</trkpt>
<trkpt lat="41.650258" lon="-0.760843">
<ele>263.0</ele>
<speed>25.6</speed>
<course>147.6</course>
<desc>Speed 25.6 km/h Distance 41.28 km</desc>
<time>2011-09-29T11:51:49.84</time>
<name>6216</name>
</trkpt>
<trkpt lat="41.650203" lon="-0.760797">
<ele>263.0</ele>
<speed>25.8</speed>
<course>147.6</course>
<desc>Speed 25.8 km/h Distance 41.28 km</desc>
<time>2011-09-29T11:51:50.72</time>
<name>6217</name>
</trkpt>
<trkpt lat="41.650148" lon="-0.760750">
<ele>263.0</ele>
<speed>26.1</speed>
<course>146.8</course>
<desc>Speed 26.1 km/h Distance 41.29 km</desc>
<time>2011-09-29T11:51:51.71</time>
<name>6218</name>
</trkpt>
<trkpt lat="41.650095" lon="-0.760703">
<ele>262.5</ele>
<speed>25.9</speed>
<course>147.6</course>
<desc>Speed 25.9 km/h Distance 41.30 km</desc>
<time>2011-09-29T11:51:52.73</time>
<name>6219</name>
</trkpt>
<trkpt lat="41.650040" lon="-0.760657">
<ele>262.5</ele>
<speed>26.0</speed>
<course>146.8</course>
<desc>Speed 26.0 km/h Distance 41.31 km</desc>
<time>2011-09-29T11:51:53.71</time>
<name>6220</name>
</trkpt>
<trkpt lat="41.649987" lon="-0.760610">
<ele>262.5</ele>
<speed>25.9</speed>
<course>147.6</course>
<desc>Speed 25.9 km/h Distance 41.31 km</desc>
<time>2011-09-29T11:51:54.71</time>
<name>6221</name>
</trkpt>
<trkpt lat="41.649932" lon="-0.760563">
<ele>262.5</ele>
<speed>26.1</speed>
<course>148.4</course>
<desc>Speed 26.1 km/h Distance 41.32 km</desc>
<time>2011-09-29T11:51:55.71</time>
<name>6222</name>
</trkpt>
<trkpt lat="41.649875" lon="-0.760517">
<ele>262.5</ele>
<speed>26.4</speed>
<course>148.4</course>
<desc>Speed 26.4 km/h Distance 41.33 km</desc>
<time>2011-09-29T11:51:56.71</time>
<name>6223</name>
</trkpt>
<trkpt lat="41.649818" lon="-0.760470">
<ele>262.5</ele>
<speed>26.6</speed>
<course>147.6</course>
<desc>Speed 26.6 km/h Distance 41.33 km</desc>
<time>2011-09-29T11:51:57.71</time>
<name>6224</name>
</trkpt>
<trkpt lat="41.649763" lon="-0.760423">
<ele>262.5</ele>
<speed>26.5</speed>
<course>147.5</course>
<desc>Speed 26.5 km/h Distance 41.34 km</desc>
<time>2011-09-29T11:51:58.71</time>
<name>6225</name>
</trkpt>
<trkpt lat="41.649707" lon="-0.760375">
<ele>262.5</ele>
<speed>26.5</speed>
<course>148.4</course>
<desc>Speed 26.5 km/h Distance 41.35 km</desc>
<time>2011-09-29T11:51:59.71</time>
<name>6226</name>
</trkpt>
<trkpt lat="41.649650" lon="-0.760328">
<ele>262.0</ele>
<speed>26.6</speed>
<course>146.7</course>
<desc>Speed 26.6 km/h Distance 41.36 km</desc>
<time>2011-09-29T11:52:00.71</time>
<name>6227</name>
</trkpt>
<trkpt lat="41.649595" lon="-0.760280">
<ele>262.0</ele>
<speed>26.7</speed>
<course>146.1</course>
<desc>Speed 26.7 km/h Distance 41.36 km</desc>
<time>2011-09-29T11:52:02.40</time>
<name>6228</name>
</trkpt>
<trkpt lat="41.649430" lon="-0.760132">
<ele>262.0</ele>
<speed>26.7</speed>
<course>139.7</course>
<desc>Speed 26.7 km/h Distance 41.39 km</desc>
<time>2011-09-29T11:52:04.70</time>
<name>6229</name>
</trkpt>
<trkpt lat="41.649380" lon="-0.760075">
<ele>262.0</ele>
<speed>26.5</speed>
<course>137.1</course>
<desc>Speed 26.5 km/h Distance 41.39 km</desc>
<time>2011-09-29T11:52:05.71</time>
<name>6230</name>
</trkpt>
<trkpt lat="41.649332" lon="-0.760015">
<ele>261.5</ele>
<speed>26.6</speed>
<course>135.6</course>
<desc>Speed 26.6 km/h Distance 41.40 km</desc>
<time>2011-09-29T11:52:06.70</time>
<name>6231</name>
</trkpt>
<trkpt lat="41.649283" lon="-0.759952">
<ele>262.0</ele>
<speed>27.1</speed>
<course>135.6</course>
<desc>Speed 27.1 km/h Distance 41.41 km</desc>
<time>2011-09-29T11:52:07.70</time>
<name>6232</name>
</trkpt>
<trkpt lat="41.649235" lon="-0.759888">
<ele>262.0</ele>
<speed>27.0</speed>
<course>134.9</course>
<desc>Speed 27.0 km/h Distance 41.42 km</desc>
<time>2011-09-29T11:52:08.70</time>
<name>6233</name>
</trkpt>
<trkpt lat="41.649187" lon="-0.759823">
<ele>261.5</ele>
<speed>27.0</speed>
<course>133.9</course>
<desc>Speed 27.0 km/h Distance 41.42 km</desc>
<time>2011-09-29T11:52:09.70</time>
<name>6234</name>
</trkpt>
<trkpt lat="41.649140" lon="-0.759758">
<ele>261.5</ele>
<speed>26.9</speed>
<course>135.6</course>
<desc>Speed 26.9 km/h Distance 41.43 km</desc>
<time>2011-09-29T11:52:10.70</time>
<name>6235</name>
</trkpt>
<trkpt lat="41.649092" lon="-0.759695">
<ele>261.5</ele>
<speed>27.0</speed>
<course>135.6</course>
<desc>Speed 27.0 km/h Distance 41.44 km</desc>
<time>2011-09-29T11:52:12.13</time>
<name>6236</name>
</trkpt>
<trkpt lat="41.648995" lon="-0.759568">
<ele>262.0</ele>
<speed>27.0</speed>
<course>136.4</course>
<desc>Speed 27.0 km/h Distance 41.45 km</desc>
<time>2011-09-29T11:52:13.70</time>
<name>6237</name>
</trkpt>
<trkpt lat="41.648947" lon="-0.759507">
<ele>262.0</ele>
<speed>26.8</speed>
<course>136.6</course>
<desc>Speed 26.8 km/h Distance 41.46 km</desc>
<time>2011-09-29T11:52:14.70</time>
<name>6238</name>
</trkpt>
<trkpt lat="41.648897" lon="-0.759443">
<ele>262.0</ele>
<speed>27.2</speed>
<course>138.1</course>
<desc>Speed 27.2 km/h Distance 41.47 km</desc>
<time>2011-09-29T11:52:15.70</time>
<name>6239</name>
</trkpt>
<trkpt lat="41.648847" lon="-0.759383">
<ele>262.0</ele>
<speed>27.0</speed>
<course>136.4</course>
<desc>Speed 27.0 km/h Distance 41.48 km</desc>
<time>2011-09-29T11:52:16.70</time>
<name>6240</name>
</trkpt>
<trkpt lat="41.648798" lon="-0.759322">
<ele>262.0</ele>
<speed>26.8</speed>
<course>137.3</course>
<desc>Speed 26.8 km/h Distance 41.48 km</desc>
<time>2011-09-29T11:52:17.70</time>
<name>6241</name>
</trkpt>
<trkpt lat="41.648748" lon="-0.759260">
<ele>262.0</ele>
<speed>26.8</speed>
<course>135.5</course>
<desc>Speed 26.8 km/h Distance 41.49 km</desc>
<time>2011-09-29T11:52:19.07</time>
<name>6242</name>
</trkpt>
<trkpt lat="41.648653" lon="-0.759135">
<ele>262.0</ele>
<speed>26.7</speed>
<course>133.9</course>
<desc>Speed 26.7 km/h Distance 41.51 km</desc>
<time>2011-09-29T11:52:20.69</time>
<name>6243</name>
</trkpt>
<trkpt lat="41.648607" lon="-0.759070">
<ele>261.5</ele>
<speed>26.9</speed>
<course>137.2</course>
<desc>Speed 26.9 km/h Distance 41.51 km</desc>
<time>2011-09-29T11:52:21.86</time>
<name>6244</name>
</trkpt>
<trkpt lat="41.648558" lon="-0.759010">
<ele>261.5</ele>
<speed>27.0</speed>
<course>136.4</course>
<desc>Speed 27.0 km/h Distance 41.52 km</desc>
<time>2011-09-29T11:52:22.69</time>
<name>6245</name>
</trkpt>
<trkpt lat="41.648510" lon="-0.758948">
<ele>261.5</ele>
<speed>26.7</speed>
<course>136.4</course>
<desc>Speed 26.7 km/h Distance 41.53 km</desc>
<time>2011-09-29T11:52:23.69</time>
<name>6246</name>
</trkpt>
<trkpt lat="41.648462" lon="-0.758887">
<ele>261.5</ele>
<speed>27.0</speed>
<course>133.9</course>
<desc>Speed 27.0 km/h Distance 41.54 km</desc>
<time>2011-09-29T11:52:24.78</time>
<name>6247</name>
</trkpt>
<trkpt lat="41.648415" lon="-0.758822">
<ele>261.5</ele>
<speed>27.0</speed>
<course>136.4</course>
<desc>Speed 27.0 km/h Distance 41.54 km</desc>
<time>2011-09-29T11:52:25.69</time>
<name>6248</name>
</trkpt>
<trkpt lat="41.648367" lon="-0.758760">
<ele>261.0</ele>
<speed>27.0</speed>
<course>134.9</course>
<desc>Speed 27.0 km/h Distance 41.55 km</desc>
<time>2011-09-29T11:52:26.69</time>
<name>6249</name>
</trkpt>
<trkpt lat="41.648318" lon="-0.758695">
<ele>261.0</ele>
<speed>27.2</speed>
<course>133.9</course>
<desc>Speed 27.2 km/h Distance 41.56 km</desc>
<time>2011-09-29T11:52:27.69</time>
<name>6250</name>
</trkpt>
<trkpt lat="41.648272" lon="-0.758630">
<ele>261.0</ele>
<speed>26.9</speed>
<course>135.1</course>
<desc>Speed 26.9 km/h Distance 41.57 km</desc>
<time>2011-09-29T11:52:28.85</time>
<name>6251</name>
</trkpt>
<trkpt lat="41.648227" lon="-0.758570">
<ele>261.0</ele>
<speed>25.9</speed>
<course>136.1</course>
<desc>Speed 25.9 km/h Distance 41.57 km</desc>
<time>2011-09-29T11:52:29.68</time>
<name>6252</name>
</trkpt>
<trkpt lat="41.648180" lon="-0.758510">
<ele>261.0</ele>
<speed>26.0</speed>
<course>135.4</course>
<desc>Speed 26.0 km/h Distance 41.58 km</desc>
<time>2011-09-29T11:52:30.69</time>
<name>6253</name>
</trkpt>
<trkpt lat="41.648133" lon="-0.758448">
<ele>261.0</ele>
<speed>26.2</speed>
<course>134.6</course>
<desc>Speed 26.2 km/h Distance 41.59 km</desc>
<time>2011-09-29T11:52:31.69</time>
<name>6254</name>
</trkpt>
<trkpt lat="41.648087" lon="-0.758385">
<ele>260.5</ele>
<speed>26.6</speed>
<course>132.8</course>
<desc>Speed 26.6 km/h Distance 41.60 km</desc>
<time>2011-09-29T11:52:32.68</time>
<name>6255</name>
</trkpt>
<trkpt lat="41.648042" lon="-0.758320">
<ele>260.5</ele>
<speed>27.0</speed>
<course>132.8</course>
<desc>Speed 27.0 km/h Distance 41.60 km</desc>
<time>2011-09-29T11:52:33.68</time>
<name>6256</name>
</trkpt>
<trkpt lat="41.647997" lon="-0.758255">
<ele>260.5</ele>
<speed>27.1</speed>
<course>134.6</course>
<desc>Speed 27.1 km/h Distance 41.61 km</desc>
<time>2011-09-29T11:52:34.68</time>
<name>6257</name>
</trkpt>
<trkpt lat="41.647950" lon="-0.758192">
<ele>260.5</ele>
<speed>26.8</speed>
<course>134.6</course>
<desc>Speed 26.8 km/h Distance 41.62 km</desc>
<time>2011-09-29T11:52:35.68</time>
<name>6258</name>
</trkpt>
<trkpt lat="41.647903" lon="-0.758128">
<ele>260.5</ele>
<speed>26.5</speed>
<course>138.9</course>
<desc>Speed 26.5 km/h Distance 41.62 km</desc>
<time>2011-09-29T11:52:36.68</time>
<name>6259</name>
</trkpt>
<trkpt lat="41.647853" lon="-0.758070">
<ele>260.5</ele>
<speed>26.5</speed>
<course>141.5</course>
<desc>Speed 26.5 km/h Distance 41.63 km</desc>
<time>2011-09-29T11:52:37.68</time>
<name>6260</name>
</trkpt>
<trkpt lat="41.647800" lon="-0.758013">
<ele>260.5</ele>
<speed>27.0</speed>
<course>142.4</course>
<desc>Speed 27.0 km/h Distance 41.64 km</desc>
<time>2011-09-29T11:52:38.68</time>
<name>6261</name>
</trkpt>
<trkpt lat="41.647747" lon="-0.757958">
<ele>260.5</ele>
<speed>27.1</speed>
<course>144.1</course>
<desc>Speed 27.1 km/h Distance 41.65 km</desc>
<time>2011-09-29T11:52:39.68</time>
<name>6262</name>
</trkpt>
<trkpt lat="41.647692" lon="-0.757905">
<ele>260.5</ele>
<speed>27.0</speed>
<course>145.3</course>
<desc>Speed 27.0 km/h Distance 41.65 km</desc>
<time>2011-09-29T11:52:41.38</time>
<name>6263</name>
</trkpt>
<trkpt lat="41.647530" lon="-0.757755">
<ele>260.5</ele>
<speed>26.1</speed>
<course>146.8</course>
<desc>Speed 26.1 km/h Distance 41.68 km</desc>
<time>2011-09-29T11:52:43.68</time>
<name>6264</name>
</trkpt>
<trkpt lat="41.647477" lon="-0.757708">
<ele>260.5</ele>
<speed>25.9</speed>
<course>147.8</course>
<desc>Speed 25.9 km/h Distance 41.68 km</desc>
<time>2011-09-29T11:52:44.67</time>
<name>6265</name>
</trkpt>
<trkpt lat="41.647423" lon="-0.757663">
<ele>260.5</ele>
<speed>25.7</speed>
<course>146.7</course>
<desc>Speed 25.7 km/h Distance 41.69 km</desc>
<time>2011-09-29T11:52:45.67</time>
<name>6266</name>
</trkpt>
<trkpt lat="41.647368" lon="-0.757615">
<ele>260.5</ele>
<speed>26.1</speed>
<course>146.8</course>
<desc>Speed 26.1 km/h Distance 41.70 km</desc>
<time>2011-09-29T11:52:46.67</time>
<name>6267</name>
</trkpt>
<trkpt lat="41.647315" lon="-0.757568">
<ele>260.5</ele>
<speed>26.1</speed>
<course>145.0</course>
<desc>Speed 26.1 km/h Distance 41.71 km</desc>
<time>2011-09-29T11:52:47.67</time>
<name>6268</name>
</trkpt>
<trkpt lat="41.647262" lon="-0.757518">
<ele>260.0</ele>
<speed>26.3</speed>
<course>146.7</course>
<desc>Speed 26.3 km/h Distance 41.71 km</desc>
<time>2011-09-29T11:52:48.67</time>
<name>6269</name>
</trkpt>
<trkpt lat="41.647207" lon="-0.757470">
<ele>260.0</ele>
<speed>26.0</speed>
<course>149.5</course>
<desc>Speed 26.0 km/h Distance 41.72 km</desc>
<time>2011-09-29T11:52:49.67</time>
<name>6270</name>
</trkpt>
<trkpt lat="41.647152" lon="-0.757427">
<ele>260.0</ele>
<speed>25.7</speed>
<course>144.6</course>
<desc>Speed 25.7 km/h Distance 41.73 km</desc>
<time>2011-09-29T11:52:51.11</time>
<name>6271</name>
</trkpt>
<trkpt lat="41.647052" lon="-0.757332">
<ele>260.0</ele>
<speed>24.3</speed>
<course>145.2</course>
<desc>Speed 24.3 km/h Distance 41.74 km</desc>
<time>2011-09-29T11:52:52.67</time>
<name>6272</name>
</trkpt>
<trkpt lat="41.647003" lon="-0.757287">
<ele>260.0</ele>
<speed>23.5</speed>
<course>144.2</course>
<desc>Speed 23.5 km/h Distance 41.75 km</desc>
<time>2011-09-29T11:52:53.67</time>
<name>6273</name>
</trkpt>
<trkpt lat="41.646957" lon="-0.757242">
<ele>260.0</ele>
<speed>23.1</speed>
<course>144.3</course>
<desc>Speed 23.1 km/h Distance 41.75 km</desc>
<time>2011-09-29T11:52:54.66</time>
<name>6274</name>
</trkpt>
<trkpt lat="41.646912" lon="-0.757198">
<ele>260.0</ele>
<speed>22.2</speed>
<course>146.2</course>
<desc>Speed 22.2 km/h Distance 41.76 km</desc>
<time>2011-09-29T11:52:55.66</time>
<name>6275</name>
</trkpt>
<trkpt lat="41.646863" lon="-0.757155">
<ele>260.0</ele>
<speed>23.2</speed>
<course>146.1</course>
<desc>Speed 23.2 km/h Distance 41.77 km</desc>
<time>2011-09-29T11:52:56.66</time>
<name>6276</name>
</trkpt>
<trkpt lat="41.646813" lon="-0.757110">
<ele>260.0</ele>
<speed>23.6</speed>
<course>143.7</course>
<desc>Speed 23.6 km/h Distance 41.77 km</desc>
<time>2011-09-29T11:52:58.05</time>
<name>6277</name>
</trkpt>
<trkpt lat="41.646723" lon="-0.757022">
<ele>260.0</ele>
<speed>22.2</speed>
<course>143.2</course>
<desc>Speed 22.2 km/h Distance 41.79 km</desc>
<time>2011-09-29T11:52:59.66</time>
<name>6278</name>
</trkpt>
<trkpt lat="41.646675" lon="-0.756973">
<ele>260.0</ele>
<speed>23.8</speed>
<course>139.0</course>
<desc>Speed 23.8 km/h Distance 41.79 km</desc>
<time>2011-09-29T11:53:00.85</time>
<name>6279</name>
</trkpt>
<trkpt lat="41.646583" lon="-0.756867">
<ele>260.5</ele>
<speed>23.7</speed>
<course>132.2</course>
<desc>Speed 23.7 km/h Distance 41.81 km</desc>
<time>2011-09-29T11:53:02.66</time>
<name>6280</name>
</trkpt>
<trkpt lat="41.646545" lon="-0.756810">
<ele>260.5</ele>
<speed>23.1</speed>
<course>130.5</course>
<desc>Speed 23.1 km/h Distance 41.81 km</desc>
<time>2011-09-29T11:53:03.66</time>
<name>6281</name>
</trkpt>
<trkpt lat="41.646507" lon="-0.756750">
<ele>260.5</ele>
<speed>23.6</speed>
<course>127.2</course>
<desc>Speed 23.6 km/h Distance 41.82 km</desc>
<time>2011-09-29T11:53:04.66</time>
<name>6282</name>
</trkpt>
<trkpt lat="41.646472" lon="-0.756688">
<ele>260.5</ele>
<speed>23.1</speed>
<course>122.4</course>
<desc>Speed 23.1 km/h Distance 41.82 km</desc>
<time>2011-09-29T11:53:05.66</time>
<name>6283</name>
</trkpt>
<trkpt lat="41.646440" lon="-0.756622">
<ele>260.0</ele>
<speed>23.6</speed>
<course>119.8</course>
<desc>Speed 23.6 km/h Distance 41.83 km</desc>
<time>2011-09-29T11:53:06.66</time>
<name>6284</name>
</trkpt>
<trkpt lat="41.646410" lon="-0.756552">
<ele>260.0</ele>
<speed>24.3</speed>
<course>119.8</course>
<desc>Speed 24.3 km/h Distance 41.84 km</desc>
<time>2011-09-29T11:53:07.79</time>
<name>6285</name>
</trkpt>
<trkpt lat="41.646380" lon="-0.756482">
<ele>260.0</ele>
<speed>24.3</speed>
<course>117.3</course>
<desc>Speed 24.3 km/h Distance 41.84 km</desc>
<time>2011-09-29T11:53:08.66</time>
<name>6286</name>
</trkpt>
<trkpt lat="41.646352" lon="-0.756408">
<ele>260.0</ele>
<speed>24.4</speed>
<course>114.5</course>
<desc>Speed 24.4 km/h Distance 41.85 km</desc>
<time>2011-09-29T11:53:09.66</time>
<name>6287</name>
</trkpt>
<trkpt lat="41.646327" lon="-0.756335">
<ele>259.5</ele>
<speed>24.1</speed>
<course>111.6</course>
<desc>Speed 24.1 km/h Distance 41.86 km</desc>
<time>2011-09-29T11:53:10.68</time>
<name>6288</name>
</trkpt>
<trkpt lat="41.646305" lon="-0.756262">
<ele>259.5</ele>
<speed>23.7</speed>
<course>106.2</course>
<desc>Speed 23.7 km/h Distance 41.86 km</desc>
<time>2011-09-29T11:53:11.65</time>
<name>6289</name>
</trkpt>
<trkpt lat="41.646288" lon="-0.756185">
<ele>259.0</ele>
<speed>23.7</speed>
<course>108.1</course>
<desc>Speed 23.7 km/h Distance 41.87 km</desc>
<time>2011-09-29T11:53:12.65</time>
<name>6290</name>
</trkpt>
<trkpt lat="41.646270" lon="-0.756110">
<ele>259.0</ele>
<speed>24.0</speed>
<course>104.3</course>
<desc>Speed 24.0 km/h Distance 41.88 km</desc>
<time>2011-09-29T11:53:13.65</time>
<name>6291</name>
</trkpt>
<trkpt lat="41.646257" lon="-0.756040">
<ele>259.0</ele>
<speed>21.7</speed>
<course>95.7</course>
<desc>Speed 21.7 km/h Distance 41.88 km</desc>
<time>2011-09-29T11:53:14.65</time>
<name>6292</name>
</trkpt>
<trkpt lat="41.646252" lon="-0.755973">
<ele>259.0</ele>
<speed>20.0</speed>
<course>90.0</course>
<desc>Speed 20.0 km/h Distance 41.89 km</desc>
<time>2011-09-29T11:53:15.65</time>
<name>6293</name>
</trkpt>
<trkpt lat="41.646252" lon="-0.755910">
<ele>258.5</ele>
<speed>19.5</speed>
<course>82.0</course>
<desc>Speed 19.5 km/h Distance 41.89 km</desc>
<time>2011-09-29T11:53:16.65</time>
<name>6294</name>
</trkpt>
<trkpt lat="41.646258" lon="-0.755847">
<ele>258.5</ele>
<speed>18.9</speed>
<course>79.5</course>
<desc>Speed 18.9 km/h Distance 41.90 km</desc>
<time>2011-09-29T11:53:17.65</time>
<name>6295</name>
</trkpt>
<trkpt lat="41.646267" lon="-0.755787">
<ele>258.5</ele>
<speed>18.4</speed>
<course>75.8</course>
<desc>Speed 18.4 km/h Distance 41.91 km</desc>
<time>2011-09-29T11:53:18.65</time>
<name>6296</name>
</trkpt>
<trkpt lat="41.646278" lon="-0.755725">
<ele>258.5</ele>
<speed>19.1</speed>
<course>68.6</course>
<desc>Speed 19.1 km/h Distance 41.91 km</desc>
<time>2011-09-29T11:53:20.35</time>
<name>6297</name>
</trkpt>
<trkpt lat="41.646335" lon="-0.755532">
<ele>258.0</ele>
<speed>21.1</speed>
<course>68.6</course>
<desc>Speed 21.1 km/h Distance 41.93 km</desc>
<time>2011-09-29T11:53:22.65</time>
<name>6298</name>
</trkpt>
<trkpt lat="41.646355" lon="-0.755463">
<ele>258.0</ele>
<speed>21.8</speed>
<course>66.5</course>
<desc>Speed 21.8 km/h Distance 41.93 km</desc>
<time>2011-09-29T11:53:23.64</time>
<name>6299</name>
</trkpt>
<trkpt lat="41.646377" lon="-0.755397">
<ele>257.5</ele>
<speed>22.1</speed>
<course>67.5</course>
<desc>Speed 22.1 km/h Distance 41.94 km</desc>
<time>2011-09-29T11:53:24.65</time>
<name>6300</name>
</trkpt>
<trkpt lat="41.646398" lon="-0.755327">
<ele>257.5</ele>
<speed>22.3</speed>
<course>65.4</course>
<desc>Speed 22.3 km/h Distance 41.95 km</desc>
<time>2011-09-29T11:53:25.64</time>
<name>6301</name>
</trkpt>
<trkpt lat="41.646422" lon="-0.755258">
<ele>257.5</ele>
<speed>22.6</speed>
<course>67.5</course>
<desc>Speed 22.6 km/h Distance 41.95 km</desc>
<time>2011-09-29T11:53:26.64</time>
<name>6302</name>
</trkpt>
<trkpt lat="41.646443" lon="-0.755188">
<ele>257.5</ele>
<speed>22.6</speed>
<course>70.4</course>
<desc>Speed 22.6 km/h Distance 41.96 km</desc>
<time>2011-09-29T11:53:27.64</time>
<name>6303</name>
</trkpt>
<trkpt lat="41.646463" lon="-0.755113">
<ele>257.5</ele>
<speed>23.7</speed>
<course>68.0</course>
<desc>Speed 23.7 km/h Distance 41.97 km</desc>
<time>2011-09-29T11:53:28.64</time>
<name>6304</name>
</trkpt>
<trkpt lat="41.646485" lon="-0.755042">
<ele>258.0</ele>
<speed>23.2</speed>
<course>68.3</course>
<desc>Speed 23.2 km/h Distance 41.97 km</desc>
<time>2011-09-29T11:53:30.14</time>
<name>6305</name>
</trkpt>
<trkpt lat="41.646527" lon="-0.754902">
<ele>258.5</ele>
<speed>22.1</speed>
<course>74.4</course>
<desc>Speed 22.1 km/h Distance 41.98 km</desc>
<time>2011-09-29T11:53:31.64</time>
<name>6306</name>
</trkpt>
<trkpt lat="41.646542" lon="-0.754830">
<ele>258.5</ele>
<speed>22.9</speed>
<course>77.2</course>
<desc>Speed 22.9 km/h Distance 41.99 km</desc>
<time>2011-09-29T11:53:32.64</time>
<name>6307</name>
</trkpt>
<trkpt lat="41.646555" lon="-0.754752">
<ele>258.5</ele>
<speed>23.7</speed>
<course>77.2</course>
<desc>Speed 23.7 km/h Distance 42.00 km</desc>
<time>2011-09-29T11:53:33.64</time>
<name>6308</name>
</trkpt>
<trkpt lat="41.646568" lon="-0.754673">
<ele>258.5</ele>
<speed>24.2</speed>
<course>86.8</course>
<desc>Speed 24.2 km/h Distance 42.00 km</desc>
<time>2011-09-29T11:53:34.64</time>
<name>6309</name>
</trkpt>
<trkpt lat="41.646572" lon="-0.754593">
<ele>258.5</ele>
<speed>24.0</speed>
<course>88.4</course>
<desc>Speed 24.0 km/h Distance 42.01 km</desc>
<time>2011-09-29T11:53:35.64</time>
<name>6310</name>
</trkpt>
<trkpt lat="41.646573" lon="-0.754513">
<ele>258.5</ele>
<speed>24.1</speed>
<course>91.6</course>
<desc>Speed 24.1 km/h Distance 42.02 km</desc>
<time>2011-09-29T11:53:36.64</time>
<name>6311</name>
</trkpt>
<trkpt lat="41.646572" lon="-0.754433">
<ele>259.0</ele>
<speed>24.2</speed>
<course>91.6</course>
<desc>Speed 24.2 km/h Distance 42.02 km</desc>
<time>2011-09-29T11:53:37.64</time>
<name>6312</name>
</trkpt>
<trkpt lat="41.646570" lon="-0.754352">
<ele>259.0</ele>
<speed>24.2</speed>
<course>97.9</course>
<desc>Speed 24.2 km/h Distance 42.03 km</desc>
<time>2011-09-29T11:53:38.63</time>
<name>6313</name>
</trkpt>
<trkpt lat="41.646562" lon="-0.754272">
<ele>259.0</ele>
<speed>24.5</speed>
<course>102.3</course>
<desc>Speed 24.5 km/h Distance 42.04 km</desc>
<time>2011-09-29T11:53:39.92</time>
<name>6314</name>
</trkpt>
<trkpt lat="41.646535" lon="-0.754108">
<ele>258.5</ele>
<speed>25.1</speed>
<course>103.8</course>
<desc>Speed 25.1 km/h Distance 42.05 km</desc>
<time>2011-09-29T11:53:41.63</time>
<name>6315</name>
</trkpt>
<trkpt lat="41.646520" lon="-0.754027">
<ele>258.5</ele>
<speed>25.5</speed>
<course>105.3</course>
<desc>Speed 25.5 km/h Distance 42.06 km</desc>
<time>2011-09-29T11:53:42.64</time>
<name>6316</name>
</trkpt>
<trkpt lat="41.646503" lon="-0.753945">
<ele>258.5</ele>
<speed>25.4</speed>
<course>107.0</course>
<desc>Speed 25.4 km/h Distance 42.07 km</desc>
<time>2011-09-29T11:53:43.63</time>
<name>6317</name>
</trkpt>
<trkpt lat="41.646485" lon="-0.753865">
<ele>258.5</ele>
<speed>25.3</speed>
<course>109.5</course>
<desc>Speed 25.3 km/h Distance 42.07 km</desc>
<time>2011-09-29T11:53:44.63</time>
<name>6318</name>
</trkpt>
<trkpt lat="41.646463" lon="-0.753783">
<ele>258.5</ele>
<speed>25.6</speed>
<course>112.7</course>
<desc>Speed 25.6 km/h Distance 42.08 km</desc>
<time>2011-09-29T11:53:45.63</time>
<name>6319</name>
</trkpt>
<trkpt lat="41.646438" lon="-0.753703">
<ele>258.5</ele>
<speed>26.3</speed>
<course>117.0</course>
<desc>Speed 26.3 km/h Distance 42.09 km</desc>
<time>2011-09-29T11:53:46.89</time>
<name>6320</name>
</trkpt>
<trkpt lat="41.646377" lon="-0.753542">
<ele>258.0</ele>
<speed>27.6</speed>
<course>122.6</course>
<desc>Speed 27.6 km/h Distance 42.10 km</desc>
<time>2011-09-29T11:53:48.63</time>
<name>6321</name>
</trkpt>
<trkpt lat="41.646340" lon="-0.753465">
<ele>258.0</ele>
<speed>27.3</speed>
<course>130.7</course>
<desc>Speed 27.3 km/h Distance 42.11 km</desc>
<time>2011-09-29T11:53:49.69</time>
<name>6322</name>
</trkpt>
<trkpt lat="41.646295" lon="-0.753395">
<ele>258.0</ele>
<speed>27.3</speed>
<course>128.5</course>
<desc>Speed 27.3 km/h Distance 42.12 km</desc>
<time>2011-09-29T11:53:50.63</time>
<name>6323</name>
</trkpt>
<trkpt lat="41.646253" lon="-0.753325">
<ele>258.0</ele>
<speed>27.0</speed>
<course>129.2</course>
<desc>Speed 27.0 km/h Distance 42.12 km</desc>
<time>2011-09-29T11:53:51.63</time>
<name>6324</name>
</trkpt>
<trkpt lat="41.646212" lon="-0.753257">
<ele>258.5</ele>
<speed>26.0</speed>
<course>130.2</course>
<desc>Speed 26.0 km/h Distance 42.13 km</desc>
<time>2011-09-29T11:53:52.63</time>
<name>6325</name>
</trkpt>
<trkpt lat="41.646172" lon="-0.753193">
<ele>259.0</ele>
<speed>24.9</speed>
<course>132.5</course>
<desc>Speed 24.9 km/h Distance 42.14 km</desc>
<time>2011-09-29T11:53:53.63</time>
<name>6326</name>
</trkpt>
<trkpt lat="41.646132" lon="-0.753135">
<ele>259.0</ele>
<speed>23.6</speed>
<course>132.5</course>
<desc>Speed 23.6 km/h Distance 42.15 km</desc>
<time>2011-09-29T11:53:54.62</time>
<name>6327</name>
</trkpt>
<trkpt lat="41.646092" lon="-0.753077">
<ele>259.0</ele>
<speed>23.6</speed>
<course>132.5</course>
<desc>Speed 23.6 km/h Distance 42.15 km</desc>
<time>2011-09-29T11:53:55.62</time>
<name>6328</name>
</trkpt>
<trkpt lat="41.646052" lon="-0.753018">
<ele>259.0</ele>
<speed>23.7</speed>
<course>133.7</course>
<desc>Speed 23.7 km/h Distance 42.16 km</desc>
<time>2011-09-29T11:53:56.63</time>
<name>6329</name>
</trkpt>
<trkpt lat="41.646010" lon="-0.752960">
<ele>259.0</ele>
<speed>24.1</speed>
<course>129.0</course>
<desc>Speed 24.1 km/h Distance 42.17 km</desc>
<time>2011-09-29T11:53:57.63</time>
<name>6330</name>
</trkpt>
<trkpt lat="41.645972" lon="-0.752897">
<ele>259.0</ele>
<speed>24.3</speed>
<course>129.8</course>
<desc>Speed 24.3 km/h Distance 42.17 km</desc>
<time>2011-09-29T11:53:58.62</time>
<name>6331</name>
</trkpt>
<trkpt lat="41.645933" lon="-0.752835">
<ele>259.0</ele>
<speed>24.3</speed>
<course>132.5</course>
<desc>Speed 24.3 km/h Distance 42.18 km</desc>
<time>2011-09-29T11:53:59.62</time>
<name>6332</name>
</trkpt>
<trkpt lat="41.645893" lon="-0.752777">
<ele>259.0</ele>
<speed>23.7</speed>
<course>134.2</course>
<desc>Speed 23.7 km/h Distance 42.19 km</desc>
<time>2011-09-29T11:54:00.62</time>
<name>6333</name>
</trkpt>
<trkpt lat="41.645853" lon="-0.752722">
<ele>259.0</ele>
<speed>23.0</speed>
<course>136.0</course>
<desc>Speed 23.0 km/h Distance 42.19 km</desc>
<time>2011-09-29T11:54:01.62</time>
<name>6334</name>
</trkpt>
<trkpt lat="41.645813" lon="-0.752670">
<ele>259.0</ele>
<speed>22.1</speed>
<course>138.1</course>
<desc>Speed 22.1 km/h Distance 42.20 km</desc>
<time>2011-09-29T11:54:02.62</time>
<name>6335</name>
</trkpt>
<trkpt lat="41.645772" lon="-0.752620">
<ele>259.0</ele>
<speed>22.6</speed>
<course>143.2</course>
<desc>Speed 22.6 km/h Distance 42.20 km</desc>
<time>2011-09-29T11:54:03.62</time>
<name>6336</name>
</trkpt>
<trkpt lat="41.645725" lon="-0.752573">
<ele>259.0</ele>
<speed>23.0</speed>
<course>144.2</course>
<desc>Speed 23.0 km/h Distance 42.21 km</desc>
<time>2011-09-29T11:54:04.62</time>
<name>6337</name>
</trkpt>
<trkpt lat="41.645678" lon="-0.752528">
<ele>259.0</ele>
<speed>23.3</speed>
<course>145.2</course>
<desc>Speed 23.3 km/h Distance 42.22 km</desc>
<time>2011-09-29T11:54:05.62</time>
<name>6338</name>
</trkpt>
<trkpt lat="41.645630" lon="-0.752483">
<ele>259.0</ele>
<speed>23.7</speed>
<course>145.2</course>
<desc>Speed 23.7 km/h Distance 42.22 km</desc>
<time>2011-09-29T11:54:06.62</time>
<name>6339</name>
</trkpt>
<trkpt lat="41.645582" lon="-0.752438">
<ele>259.0</ele>
<speed>23.5</speed>
<course>146.2</course>
<desc>Speed 23.5 km/h Distance 42.23 km</desc>
<time>2011-09-29T11:54:07.62</time>
<name>6340</name>
</trkpt>
<trkpt lat="41.645533" lon="-0.752395">
<ele>259.5</ele>
<speed>23.8</speed>
<course>145.6</course>
<desc>Speed 23.8 km/h Distance 42.24 km</desc>
<time>2011-09-29T11:54:09.21</time>
<name>6341</name>
</trkpt>
<trkpt lat="41.645435" lon="-0.752305">
<ele>259.5</ele>
<speed>23.9</speed>
<course>144.2</course>
<desc>Speed 23.9 km/h Distance 42.25 km</desc>
<time>2011-09-29T11:54:10.61</time>
<name>6342</name>
</trkpt>
<trkpt lat="41.645387" lon="-0.752258">
<ele>259.5</ele>
<speed>23.8</speed>
<course>145.2</course>
<desc>Speed 23.8 km/h Distance 42.26 km</desc>
<time>2011-09-29T11:54:11.62</time>
<name>6343</name>
</trkpt>
<trkpt lat="41.645338" lon="-0.752213">
<ele>259.5</ele>
<speed>23.8</speed>
<course>145.2</course>
<desc>Speed 23.8 km/h Distance 42.26 km</desc>
<time>2011-09-29T11:54:12.61</time>
<name>6344</name>
</trkpt>
<trkpt lat="41.645290" lon="-0.752168">
<ele>259.5</ele>
<speed>23.8</speed>
<course>149.9</course>
<desc>Speed 23.8 km/h Distance 42.27 km</desc>
<time>2011-09-29T11:54:13.61</time>
<name>6345</name>
</trkpt>
<trkpt lat="41.645238" lon="-0.752128">
<ele>259.5</ele>
<speed>23.9</speed>
<course>159.0</course>
<desc>Speed 23.9 km/h Distance 42.28 km</desc>
<time>2011-09-29T11:54:14.61</time>
<name>6346</name>
</trkpt>
<trkpt lat="41.645183" lon="-0.752100">
<ele>259.5</ele>
<speed>23.2</speed>
<course>165.6</course>
<desc>Speed 23.2 km/h Distance 42.28 km</desc>
<time>2011-09-29T11:54:15.61</time>
<name>6347</name>
</trkpt>
<trkpt lat="41.645130" lon="-0.752082">
<ele>259.5</ele>
<speed>22.4</speed>
<course>174.7</course>
<desc>Speed 22.4 km/h Distance 42.29 km</desc>
<time>2011-09-29T11:54:16.61</time>
<name>6348</name>
</trkpt>
<trkpt lat="41.645077" lon="-0.752075">
<ele>259.5</ele>
<speed>21.4</speed>
<course>185.8</course>
<desc>Speed 21.4 km/h Distance 42.29 km</desc>
<time>2011-09-29T11:54:17.61</time>
<name>6349</name>
</trkpt>
<trkpt lat="41.645028" lon="-0.752082">
<ele>259.5</ele>
<speed>19.7</speed>
<course>199.1</course>
<desc>Speed 19.7 km/h Distance 42.30 km</desc>
<time>2011-09-29T11:54:18.97</time>
<name>6350</name>
</trkpt>
<trkpt lat="41.644935" lon="-0.752125">
<ele>259.5</ele>
<speed>20.5</speed>
<course>213.3</course>
<desc>Speed 20.5 km/h Distance 42.31 km</desc>
<time>2011-09-29T11:54:20.61</time>
<name>6351</name>
</trkpt>
<trkpt lat="41.644893" lon="-0.752162">
<ele>259.5</ele>
<speed>20.6</speed>
<course>227.3</course>
<desc>Speed 20.6 km/h Distance 42.32 km</desc>
<time>2011-09-29T11:54:21.60</time>
<name>6352</name>
</trkpt>
<trkpt lat="41.644860" lon="-0.752210">
<ele>259.5</ele>
<speed>19.8</speed>
<course>232.8</course>
<desc>Speed 19.8 km/h Distance 42.32 km</desc>
<time>2011-09-29T11:54:22.60</time>
<name>6353</name>
</trkpt>
<trkpt lat="41.644832" lon="-0.752260">
<ele>259.5</ele>
<speed>18.8</speed>
<course>232.6</course>
<desc>Speed 18.8 km/h Distance 42.33 km</desc>
<time>2011-09-29T11:54:23.60</time>
<name>6354</name>
</trkpt>
<trkpt lat="41.644805" lon="-0.752307">
<ele>259.0</ele>
<speed>18.0</speed>
<course>234.5</course>
<desc>Speed 18.0 km/h Distance 42.33 km</desc>
<time>2011-09-29T11:54:24.60</time>
<name>6355</name>
</trkpt>
<trkpt lat="41.644778" lon="-0.752357">
<ele>259.5</ele>
<speed>18.3</speed>
<course>236.2</course>
<desc>Speed 18.3 km/h Distance 42.34 km</desc>
<time>2011-09-29T11:54:25.91</time>
<name>6356</name>
</trkpt>
<trkpt lat="41.644723" lon="-0.752467">
<ele>259.5</ele>
<speed>20.3</speed>
<course>237.8</course>
<desc>Speed 20.3 km/h Distance 42.35 km</desc>
<time>2011-09-29T11:54:27.60</time>
<name>6357</name>
</trkpt>
<trkpt lat="41.644697" lon="-0.752523">
<ele>259.5</ele>
<speed>20.3</speed>
<course>229.2</course>
<desc>Speed 20.3 km/h Distance 42.35 km</desc>
<time>2011-09-29T11:54:28.71</time>
<name>6358</name>
</trkpt>
<trkpt lat="41.644663" lon="-0.752575">
<ele>259.5</ele>
<speed>20.2</speed>
<course>221.5</course>
<desc>Speed 20.2 km/h Distance 42.36 km</desc>
<time>2011-09-29T11:54:29.60</time>
<name>6359</name>
</trkpt>
<trkpt lat="41.644627" lon="-0.752618">
<ele>259.5</ele>
<speed>19.7</speed>
<course>215.6</course>
<desc>Speed 19.7 km/h Distance 42.37 km</desc>
<time>2011-09-29T11:54:30.60</time>
<name>6360</name>
</trkpt>
<trkpt lat="41.644588" lon="-0.752655">
<ele>259.5</ele>
<speed>19.1</speed>
<course>207.4</course>
<desc>Speed 19.1 km/h Distance 42.37 km</desc>
<time>2011-09-29T11:54:31.61</time>
<name>6361</name>
</trkpt>
<trkpt lat="41.644545" lon="-0.752685">
<ele>259.5</ele>
<speed>20.0</speed>
<course>201.1</course>
<desc>Speed 20.0 km/h Distance 42.38 km</desc>
<time>2011-09-29T11:54:32.60</time>
<name>6362</name>
</trkpt>
<trkpt lat="41.644497" lon="-0.752710">
<ele>259.5</ele>
<speed>20.8</speed>
<course>201.1</course>
<desc>Speed 20.8 km/h Distance 42.38 km</desc>
<time>2011-09-29T11:54:33.60</time>
<name>6363</name>
</trkpt>
<trkpt lat="41.644448" lon="-0.752735">
<ele>259.5</ele>
<speed>21.3</speed>
<course>192.7</course>
<desc>Speed 21.3 km/h Distance 42.39 km</desc>
<time>2011-09-29T11:54:34.60</time>
<name>6364</name>
</trkpt>
<trkpt lat="41.644398" lon="-0.752750">
<ele>259.5</ele>
<speed>21.2</speed>
<course>184.8</course>
<desc>Speed 21.2 km/h Distance 42.39 km</desc>
<time>2011-09-29T11:54:35.88</time>
<name>6365</name>
</trkpt>
<trkpt lat="41.644295" lon="-0.752762">
<ele>258.5</ele>
<speed>21.6</speed>
<course>178.4</course>
<desc>Speed 21.6 km/h Distance 42.40 km</desc>
<time>2011-09-29T11:54:37.59</time>
<name>6366</name>
</trkpt>
<trkpt lat="41.644243" lon="-0.752760">
<ele>258.5</ele>
<speed>21.7</speed>
<course>175.8</course>
<desc>Speed 21.7 km/h Distance 42.41 km</desc>
<time>2011-09-29T11:54:38.68</time>
<name>6367</name>
</trkpt>
<trkpt lat="41.644192" lon="-0.752755">
<ele>258.5</ele>
<speed>21.3</speed>
<course>174.4</course>
<desc>Speed 21.3 km/h Distance 42.42 km</desc>
<time>2011-09-29T11:54:39.60</time>
<name>6368</name>
</trkpt>
<trkpt lat="41.644142" lon="-0.752748">
<ele>258.0</ele>
<speed>21.0</speed>
<course>169.8</course>
<desc>Speed 21.0 km/h Distance 42.42 km</desc>
<time>2011-09-29T11:54:40.60</time>
<name>6369</name>
</trkpt>
<trkpt lat="41.644093" lon="-0.752737">
<ele>258.0</ele>
<speed>20.5</speed>
<course>166.5</course>
<desc>Speed 20.5 km/h Distance 42.43 km</desc>
<time>2011-09-29T11:54:41.60</time>
<name>6370</name>
</trkpt>
<trkpt lat="41.644047" lon="-0.752722">
<ele>258.5</ele>
<speed>20.1</speed>
<course>167.5</course>
<desc>Speed 20.1 km/h Distance 42.43 km</desc>
<time>2011-09-29T11:54:42.60</time>
<name>6371</name>
</trkpt>
<trkpt lat="41.644002" lon="-0.752708">
<ele>258.5</ele>
<speed>18.9</speed>
<course>168.6</course>
<desc>Speed 18.9 km/h Distance 42.44 km</desc>
<time>2011-09-29T11:54:43.60</time>
<name>6372</name>
</trkpt>
<trkpt lat="41.643958" lon="-0.752697">
<ele>258.5</ele>
<speed>18.4</speed>
<course>159.5</course>
<desc>Speed 18.4 km/h Distance 42.44 km</desc>
<time>2011-09-29T11:54:44.59</time>
<name>6373</name>
</trkpt>
<trkpt lat="41.643915" lon="-0.752675">
<ele>258.0</ele>
<speed>18.9</speed>
<course>153.1</course>
<desc>Speed 18.9 km/h Distance 42.45 km</desc>
<time>2011-09-29T11:54:45.60</time>
<name>6374</name>
</trkpt>
<trkpt lat="41.643873" lon="-0.752647">
<ele>258.0</ele>
<speed>18.8</speed>
<course>155.3</course>
<desc>Speed 18.8 km/h Distance 42.45 km</desc>
<time>2011-09-29T11:54:46.59</time>
<name>6375</name>
</trkpt>
<trkpt lat="41.643830" lon="-0.752620">
<ele>258.0</ele>
<speed>18.9</speed>
<course>151.4</course>
<desc>Speed 18.9 km/h Distance 42.46 km</desc>
<time>2011-09-29T11:54:47.60</time>
<name>6376</name>
</trkpt>
<trkpt lat="41.643787" lon="-0.752588">
<ele>258.0</ele>
<speed>19.4</speed>
<course>147.7</course>
<desc>Speed 19.4 km/h Distance 42.46 km</desc>
<time>2011-09-29T11:54:48.59</time>
<name>6377</name>
</trkpt>
<trkpt lat="41.643743" lon="-0.752552">
<ele>258.0</ele>
<speed>20.2</speed>
<course>147.7</course>
<desc>Speed 20.2 km/h Distance 42.47 km</desc>
<time>2011-09-29T11:54:49.59</time>
<name>6378</name>
</trkpt>
<trkpt lat="41.643700" lon="-0.752515">
<ele>258.0</ele>
<speed>20.5</speed>
<course>146.5</course>
<desc>Speed 20.5 km/h Distance 42.48 km</desc>
<time>2011-09-29T11:54:50.59</time>
<name>6379</name>
</trkpt>
<trkpt lat="41.643657" lon="-0.752477">
<ele>258.0</ele>
<speed>20.5</speed>
<course>146.5</course>
<desc>Speed 20.5 km/h Distance 42.48 km</desc>
<time>2011-09-29T11:54:51.59</time>
<name>6380</name>
</trkpt>
<trkpt lat="41.643613" lon="-0.752438">
<ele>258.5</ele>
<speed>20.3</speed>
<course>143.2</course>
<desc>Speed 20.3 km/h Distance 42.49 km</desc>
<time>2011-09-29T11:54:52.59</time>
<name>6381</name>
</trkpt>
<trkpt lat="41.643572" lon="-0.752397">
<ele>258.5</ele>
<speed>20.4</speed>
<course>145.5</course>
<desc>Speed 20.4 km/h Distance 42.49 km</desc>
<time>2011-09-29T11:54:53.59</time>
<name>6382</name>
</trkpt>
<trkpt lat="41.643530" lon="-0.752358">
<ele>258.5</ele>
<speed>19.9</speed>
<course>144.4</course>
<desc>Speed 19.9 km/h Distance 42.50 km</desc>
<time>2011-09-29T11:54:54.59</time>
<name>6383</name>
</trkpt>
<trkpt lat="41.643490" lon="-0.752320">
<ele>258.5</ele>
<speed>19.4</speed>
<course>146.8</course>
<desc>Speed 19.4 km/h Distance 42.50 km</desc>
<time>2011-09-29T11:54:55.59</time>
<name>6384</name>
</trkpt>
<trkpt lat="41.643450" lon="-0.752285">
<ele>258.5</ele>
<speed>19.7</speed>
<course>145.5</course>
<desc>Speed 19.7 km/h Distance 42.51 km</desc>
<time>2011-09-29T11:54:56.59</time>
<name>6385</name>
</trkpt>
<trkpt lat="41.643408" lon="-0.752247">
<ele>258.5</ele>
<speed>20.1</speed>
<course>146.7</course>
<desc>Speed 20.1 km/h Distance 42.51 km</desc>
<time>2011-09-29T11:54:58.19</time>
<name>6386</name>
</trkpt>
<trkpt lat="41.643325" lon="-0.752173">
<ele>258.5</ele>
<speed>19.8</speed>
<course>147.9</course>
<desc>Speed 19.8 km/h Distance 42.53 km</desc>
<time>2011-09-29T11:54:59.58</time>
<name>6387</name>
</trkpt>
<trkpt lat="41.643283" lon="-0.752138">
<ele>258.5</ele>
<speed>20.0</speed>
<course>146.5</course>
<desc>Speed 20.0 km/h Distance 42.53 km</desc>
<time>2011-09-29T11:55:00.59</time>
<name>6388</name>
</trkpt>
<trkpt lat="41.643240" lon="-0.752100">
<ele>258.5</ele>
<speed>20.4</speed>
<course>145.5</course>
<desc>Speed 20.4 km/h Distance 42.54 km</desc>
<time>2011-09-29T11:55:01.58</time>
<name>6389</name>
</trkpt>
<trkpt lat="41.643198" lon="-0.752062">
<ele>258.5</ele>
<speed>20.5</speed>
<course>145.5</course>
<desc>Speed 20.5 km/h Distance 42.54 km</desc>
<time>2011-09-29T11:55:02.58</time>
<name>6390</name>
</trkpt>
<trkpt lat="41.643157" lon="-0.752023">
<ele>258.5</ele>
<speed>20.6</speed>
<course>147.5</course>
<desc>Speed 20.6 km/h Distance 42.55 km</desc>
<time>2011-09-29T11:55:03.59</time>
<name>6391</name>
</trkpt>
<trkpt lat="41.643112" lon="-0.751985">
<ele>259.0</ele>
<speed>20.8</speed>
<course>144.3</course>
<desc>Speed 20.8 km/h Distance 42.55 km</desc>
<time>2011-09-29T11:55:04.58</time>
<name>6392</name>
</trkpt>
<trkpt lat="41.643070" lon="-0.751945">
<ele>258.5</ele>
<speed>20.7</speed>
<course>146.7</course>
<desc>Speed 20.7 km/h Distance 42.56 km</desc>
<time>2011-09-29T11:55:05.58</time>
<name>6393</name>
</trkpt>
<trkpt lat="41.643028" lon="-0.751908">
<ele>258.5</ele>
<speed>20.3</speed>
<course>149.8</course>
<desc>Speed 20.3 km/h Distance 42.57 km</desc>
<time>2011-09-29T11:55:06.58</time>
<name>6394</name>
</trkpt>
<trkpt lat="41.642983" lon="-0.751873">
<ele>258.5</ele>
<speed>20.6</speed>
<course>151.5</course>
<desc>Speed 20.6 km/h Distance 42.57 km</desc>
<time>2011-09-29T11:55:07.97</time>
<name>6395</name>
</trkpt>
<trkpt lat="41.642892" lon="-0.751807">
<ele>258.5</ele>
<speed>21.0</speed>
<course>151.9</course>
<desc>Speed 21.0 km/h Distance 42.58 km</desc>
<time>2011-09-29T11:55:09.58</time>
<name>6396</name>
</trkpt>
<trkpt lat="41.642845" lon="-0.751773">
<ele>258.5</ele>
<speed>21.6</speed>
<course>151.9</course>
<desc>Speed 21.6 km/h Distance 42.59 km</desc>
<time>2011-09-29T11:55:10.58</time>
<name>6397</name>
</trkpt>
<trkpt lat="41.642798" lon="-0.751740">
<ele>258.5</ele>
<speed>20.9</speed>
<course>152.3</course>
<desc>Speed 20.9 km/h Distance 42.59 km</desc>
<time>2011-09-29T11:55:11.58</time>
<name>6398</name>
</trkpt>
<trkpt lat="41.642753" lon="-0.751708">
<ele>258.5</ele>
<speed>20.2</speed>
<course>154.8</course>
<desc>Speed 20.2 km/h Distance 42.60 km</desc>
<time>2011-09-29T11:55:12.58</time>
<name>6399</name>
</trkpt>
<trkpt lat="41.642708" lon="-0.751680">
<ele>258.5</ele>
<speed>19.7</speed>
<course>152.6</course>
<desc>Speed 19.7 km/h Distance 42.61 km</desc>
<time>2011-09-29T11:55:13.58</time>
<name>6400</name>
</trkpt>
<trkpt lat="41.642665" lon="-0.751650">
<ele>258.5</ele>
<speed>19.8</speed>
<course>153.3</course>
<desc>Speed 19.8 km/h Distance 42.61 km</desc>
<time>2011-09-29T11:55:14.94</time>
<name>6401</name>
</trkpt>
<trkpt lat="41.642573" lon="-0.751588">
<ele>258.5</ele>
<speed>21.2</speed>
<course>155.1</course>
<desc>Speed 21.2 km/h Distance 42.62 km</desc>
<time>2011-09-29T11:55:16.57</time>
<name>6402</name>
</trkpt>
<trkpt lat="41.642525" lon="-0.751558">
<ele>258.5</ele>
<speed>21.5</speed>
<course>156.3</course>
<desc>Speed 21.5 km/h Distance 42.63 km</desc>
<time>2011-09-29T11:55:17.77</time>
<name>6403</name>
</trkpt>
<trkpt lat="41.642477" lon="-0.751530">
<ele>258.5</ele>
<speed>21.0</speed>
<course>156.3</course>
<desc>Speed 21.0 km/h Distance 42.63 km</desc>
<time>2011-09-29T11:55:18.57</time>
<name>6404</name>
</trkpt>
<trkpt lat="41.642428" lon="-0.751502">
<ele>258.5</ele>
<speed>21.1</speed>
<course>159.5</course>
<desc>Speed 21.1 km/h Distance 42.64 km</desc>
<time>2011-09-29T11:55:19.58</time>
<name>6405</name>
</trkpt>
<trkpt lat="41.642378" lon="-0.751477">
<ele>258.5</ele>
<speed>21.3</speed>
<course>165.2</course>
<desc>Speed 21.3 km/h Distance 42.65 km</desc>
<time>2011-09-29T11:55:20.58</time>
<name>6406</name>
</trkpt>
<trkpt lat="41.642327" lon="-0.751458">
<ele>258.5</ele>
<speed>21.3</speed>
<course>166.4</course>
<desc>Speed 21.3 km/h Distance 42.65 km</desc>
<time>2011-09-29T11:55:21.57</time>
<name>6407</name>
</trkpt>
<trkpt lat="41.642275" lon="-0.751442">
<ele>258.5</ele>
<speed>21.3</speed>
<course>166.4</course>
<desc>Speed 21.3 km/h Distance 42.66 km</desc>
<time>2011-09-29T11:55:22.57</time>
<name>6408</name>
</trkpt>
<trkpt lat="41.642223" lon="-0.751425">
<ele>258.5</ele>
<speed>21.4</speed>
<course>169.4</course>
<desc>Speed 21.4 km/h Distance 42.66 km</desc>
<time>2011-09-29T11:55:23.57</time>
<name>6409</name>
</trkpt>
<trkpt lat="41.642170" lon="-0.751412">
<ele>258.5</ele>
<speed>21.5</speed>
<course>171.7</course>
<desc>Speed 21.5 km/h Distance 42.67 km</desc>
<time>2011-09-29T11:55:24.69</time>
<name>6410</name>
</trkpt>
<trkpt lat="41.642118" lon="-0.751402">
<ele>258.5</ele>
<speed>21.2</speed>
<course>170.1</course>
<desc>Speed 21.2 km/h Distance 42.68 km</desc>
<time>2011-09-29T11:55:25.57</time>
<name>6411</name>
</trkpt>
<trkpt lat="41.642068" lon="-0.751390">
<ele>258.5</ele>
<speed>20.8</speed>
<course>170.4</course>
<desc>Speed 20.8 km/h Distance 42.68 km</desc>
<time>2011-09-29T11:55:26.57</time>
<name>6412</name>
</trkpt>
<trkpt lat="41.642017" lon="-0.751378">
<ele>258.5</ele>
<speed>21.3</speed>
<course>170.7</course>
<desc>Speed 21.3 km/h Distance 42.69 km</desc>
<time>2011-09-29T11:55:27.57</time>
<name>6413</name>
</trkpt>
<trkpt lat="41.641963" lon="-0.751367">
<ele>258.5</ele>
<speed>22.0</speed>
<course>169.7</course>
<desc>Speed 22.0 km/h Distance 42.69 km</desc>
<time>2011-09-29T11:55:28.57</time>
<name>6414</name>
</trkpt>
<trkpt lat="41.641908" lon="-0.751353">
<ele>258.5</ele>
<speed>22.5</speed>
<course>168.1</course>
<desc>Speed 22.5 km/h Distance 42.70 km</desc>
<time>2011-09-29T11:55:29.57</time>
<name>6415</name>
</trkpt>
<trkpt lat="41.641855" lon="-0.751338">
<ele>258.0</ele>
<speed>22.5</speed>
<course>167.2</course>
<desc>Speed 22.5 km/h Distance 42.71 km</desc>
<time>2011-09-29T11:55:30.57</time>
<name>6416</name>
</trkpt>
<trkpt lat="41.641800" lon="-0.751322">
<ele>258.0</ele>
<speed>22.4</speed>
<course>166.0</course>
<desc>Speed 22.4 km/h Distance 42.71 km</desc>
<time>2011-09-29T11:55:31.57</time>
<name>6417</name>
</trkpt>
<trkpt lat="41.641745" lon="-0.751303">
<ele>258.0</ele>
<speed>22.7</speed>
<course>166.0</course>
<desc>Speed 22.7 km/h Distance 42.72 km</desc>
<time>2011-09-29T11:55:32.57</time>
<name>6418</name>
</trkpt>
<trkpt lat="41.641690" lon="-0.751285">
<ele>258.0</ele>
<speed>22.8</speed>
<course>168.8</course>
<desc>Speed 22.8 km/h Distance 42.72 km</desc>
<time>2011-09-29T11:55:33.56</time>
<name>6419</name>
</trkpt>
<trkpt lat="41.641633" lon="-0.751270">
<ele>258.0</ele>
<speed>22.9</speed>
<course>168.1</course>
<desc>Speed 22.9 km/h Distance 42.73 km</desc>
<time>2011-09-29T11:55:34.56</time>
<name>6420</name>
</trkpt>
<trkpt lat="41.641580" lon="-0.751255">
<ele>258.0</ele>
<speed>22.4</speed>
<course>172.2</course>
<desc>Speed 22.4 km/h Distance 42.74 km</desc>
<time>2011-09-29T11:55:35.57</time>
<name>6421</name>
</trkpt>
<trkpt lat="41.641525" lon="-0.751245">
<ele>258.0</ele>
<speed>22.3</speed>
<course>172.5</course>
<desc>Speed 22.3 km/h Distance 42.74 km</desc>
<time>2011-09-29T11:55:37.22</time>
<name>6422</name>
</trkpt>
<trkpt lat="41.641363" lon="-0.751217">
<ele>258.5</ele>
<speed>21.5</speed>
<course>171.7</course>
<desc>Speed 21.5 km/h Distance 42.76 km</desc>
<time>2011-09-29T11:55:39.56</time>
<name>6423</name>
</trkpt>
<trkpt lat="41.641312" lon="-0.751207">
<ele>258.5</ele>
<speed>21.4</speed>
<course>172.9</course>
<desc>Speed 21.4 km/h Distance 42.77 km</desc>
<time>2011-09-29T11:55:40.56</time>
<name>6424</name>
</trkpt>
<trkpt lat="41.641262" lon="-0.751198">
<ele>259.0</ele>
<speed>20.9</speed>
<course>174.3</course>
<desc>Speed 20.9 km/h Distance 42.77 km</desc>
<time>2011-09-29T11:55:41.56</time>
<name>6425</name>
</trkpt>
<trkpt lat="41.641212" lon="-0.751192">
<ele>259.0</ele>
<speed>20.5</speed>
<course>180.0</course>
<desc>Speed 20.5 km/h Distance 42.78 km</desc>
<time>2011-09-29T11:55:42.56</time>
<name>6426</name>
</trkpt>
<trkpt lat="41.641160" lon="-0.751192">
<ele>259.0</ele>
<speed>20.3</speed>
<course>177.2</course>
<desc>Speed 20.3 km/h Distance 42.78 km</desc>
<time>2011-09-29T11:55:43.56</time>
<name>6427</name>
</trkpt>
<trkpt lat="41.641110" lon="-0.751188">
<ele>259.0</ele>
<speed>20.3</speed>
<course>177.2</course>
<desc>Speed 20.3 km/h Distance 42.79 km</desc>
<time>2011-09-29T11:55:44.56</time>
<name>6428</name>
</trkpt>
<trkpt lat="41.641060" lon="-0.751185">
<ele>259.0</ele>
<speed>20.3</speed>
<course>178.5</course>
<desc>Speed 20.3 km/h Distance 42.80 km</desc>
<time>2011-09-29T11:55:45.56</time>
<name>6429</name>
</trkpt>
<trkpt lat="41.641010" lon="-0.751183">
<ele>259.0</ele>
<speed>20.3</speed>
<course>182.1</course>
<desc>Speed 20.3 km/h Distance 42.80 km</desc>
<time>2011-09-29T11:55:46.97</time>
<name>6430</name>
</trkpt>
<trkpt lat="41.640908" lon="-0.751188">
<ele>259.0</ele>
<speed>20.8</speed>
<course>181.3</course>
<desc>Speed 20.8 km/h Distance 42.81 km</desc>
<time>2011-09-29T11:55:48.56</time>
<name>6431</name>
</trkpt>
<trkpt lat="41.640857" lon="-0.751190">
<ele>259.0</ele>
<speed>20.9</speed>
<course>177.3</course>
<desc>Speed 20.9 km/h Distance 42.82 km</desc>
<time>2011-09-29T11:55:49.56</time>
<name>6432</name>
</trkpt>
<trkpt lat="41.640805" lon="-0.751187">
<ele>259.0</ele>
<speed>21.2</speed>
<course>174.5</course>
<desc>Speed 21.2 km/h Distance 42.82 km</desc>
<time>2011-09-29T11:55:50.56</time>
<name>6433</name>
</trkpt>
<trkpt lat="41.640753" lon="-0.751180">
<ele>259.0</ele>
<speed>21.0</speed>
<course>164.7</course>
<desc>Speed 21.0 km/h Distance 42.83 km</desc>
<time>2011-09-29T11:55:51.55</time>
<name>6434</name>
</trkpt>
<trkpt lat="41.640703" lon="-0.751162">
<ele>259.0</ele>
<speed>20.8</speed>
<course>152.6</course>
<desc>Speed 20.8 km/h Distance 42.84 km</desc>
<time>2011-09-29T11:55:52.55</time>
<name>6435</name>
</trkpt>
<trkpt lat="41.640660" lon="-0.751132">
<ele>259.0</ele>
<speed>20.0</speed>
<course>137.5</course>
<desc>Speed 20.0 km/h Distance 42.84 km</desc>
<time>2011-09-29T11:55:53.91</time>
<name>6436</name>
</trkpt>
<trkpt lat="41.640587" lon="-0.751042">
<ele>259.5</ele>
<speed>20.0</speed>
<course>125.4</course>
<desc>Speed 20.0 km/h Distance 42.85 km</desc>
<time>2011-09-29T11:55:55.55</time>
<name>6437</name>
</trkpt>
<trkpt lat="41.640558" lon="-0.750988">
<ele>259.5</ele>
<speed>19.5</speed>
<course>119.6</course>
<desc>Speed 19.5 km/h Distance 42.86 km</desc>
<time>2011-09-29T11:55:56.71</time>
<name>6438</name>
</trkpt>
<trkpt lat="41.640535" lon="-0.750933">
<ele>259.5</ele>
<speed>19.0</speed>
<course>122.1</course>
<desc>Speed 19.0 km/h Distance 42.86 km</desc>
<time>2011-09-29T11:55:57.55</time>
<name>6439</name>
</trkpt>
<trkpt lat="41.640510" lon="-0.750880">
<ele>259.5</ele>
<speed>18.5</speed>
<course>124.6</course>
<desc>Speed 18.5 km/h Distance 42.87 km</desc>
<time>2011-09-29T11:55:58.55</time>
<name>6440</name>
</trkpt>
<trkpt lat="41.640483" lon="-0.750828">
<ele>260.0</ele>
<speed>18.6</speed>
<course>123.8</course>
<desc>Speed 18.6 km/h Distance 42.87 km</desc>
<time>2011-09-29T11:55:59.55</time>
<name>6441</name>
</trkpt>
<trkpt lat="41.640457" lon="-0.750775">
<ele>260.0</ele>
<speed>18.9</speed>
<course>120.6</course>
<desc>Speed 18.9 km/h Distance 42.88 km</desc>
<time>2011-09-29T11:56:00.55</time>
<name>6442</name>
</trkpt>
<trkpt lat="41.640432" lon="-0.750718">
<ele>260.0</ele>
<speed>19.3</speed>
<course>120.6</course>
<desc>Speed 19.3 km/h Distance 42.88 km</desc>
<time>2011-09-29T11:56:01.55</time>
<name>6443</name>
</trkpt>
<trkpt lat="41.640407" lon="-0.750662">
<ele>260.5</ele>
<speed>19.5</speed>
<course>121.3</course>
<desc>Speed 19.5 km/h Distance 42.89 km</desc>
<time>2011-09-29T11:56:02.55</time>
<name>6444</name>
</trkpt>
<trkpt lat="41.640382" lon="-0.750607">
<ele>260.5</ele>
<speed>19.2</speed>
<course>123.0</course>
<desc>Speed 19.2 km/h Distance 42.89 km</desc>
<time>2011-09-29T11:56:03.67</time>
<name>6445</name>
</trkpt>
<trkpt lat="41.640355" lon="-0.750552">
<ele>260.5</ele>
<speed>19.3</speed>
<course>121.3</course>
<desc>Speed 19.3 km/h Distance 42.90 km</desc>
<time>2011-09-29T11:56:04.54</time>
<name>6446</name>
</trkpt>
<trkpt lat="41.640330" lon="-0.750497">
<ele>260.5</ele>
<speed>19.5</speed>
<course>120.6</course>
<desc>Speed 19.5 km/h Distance 42.91 km</desc>
<time>2011-09-29T11:56:05.54</time>
<name>6447</name>
</trkpt>
<trkpt lat="41.640305" lon="-0.750440">
<ele>260.5</ele>
<speed>19.6</speed>
<course>118.2</course>
<desc>Speed 19.6 km/h Distance 42.91 km</desc>
<time>2011-09-29T11:56:06.56</time>
<name>6448</name>
</trkpt>
<trkpt lat="41.640282" lon="-0.750382">
<ele>260.5</ele>
<speed>19.6</speed>
<course>120.6</course>
<desc>Speed 19.6 km/h Distance 42.92 km</desc>
<time>2011-09-29T11:56:07.54</time>
<name>6449</name>
</trkpt>
<trkpt lat="41.640257" lon="-0.750325">
<ele>260.5</ele>
<speed>19.3</speed>
<course>123.8</course>
<desc>Speed 19.3 km/h Distance 42.92 km</desc>
<time>2011-09-29T11:56:08.54</time>
<name>6450</name>
</trkpt>
<trkpt lat="41.640230" lon="-0.750272">
<ele>260.5</ele>
<speed>18.6</speed>
<course>131.2</course>
<desc>Speed 18.6 km/h Distance 42.93 km</desc>
<time>2011-09-29T11:56:09.54</time>
<name>6451</name>
</trkpt>
<trkpt lat="41.640202" lon="-0.750228">
<ele>260.5</ele>
<speed>17.3</speed>
<course>147.1</course>
<desc>Speed 17.3 km/h Distance 42.93 km</desc>
<time>2011-09-29T11:56:10.54</time>
<name>6452</name>
</trkpt>
<trkpt lat="41.640165" lon="-0.750197">
<ele>261.0</ele>
<speed>17.0</speed>
<course>164.3</course>
<desc>Speed 17.0 km/h Distance 42.94 km</desc>
<time>2011-09-29T11:56:11.54</time>
<name>6453</name>
</trkpt>
<trkpt lat="41.640125" lon="-0.750182">
<ele>261.0</ele>
<speed>16.3</speed>
<course>181.5</course>
<desc>Speed 16.3 km/h Distance 42.94 km</desc>
<time>2011-09-29T11:56:12.54</time>
<name>6454</name>
</trkpt>
<trkpt lat="41.640080" lon="-0.750183">
<ele>261.0</ele>
<speed>17.8</speed>
<course>186.1</course>
<desc>Speed 17.8 km/h Distance 42.95 km</desc>
<time>2011-09-29T11:56:13.54</time>
<name>6455</name>
</trkpt>
<trkpt lat="41.640033" lon="-0.750190">
<ele>261.5</ele>
<speed>18.1</speed>
<course>189.4</course>
<desc>Speed 18.1 km/h Distance 42.95 km</desc>
<time>2011-09-29T11:56:14.54</time>
<name>6456</name>
</trkpt>
<trkpt lat="41.639988" lon="-0.750200">
<ele>261.5</ele>
<speed>18.2</speed>
<course>186.8</course>
<desc>Speed 18.2 km/h Distance 42.96 km</desc>
<time>2011-09-29T11:56:16.21</time>
<name>6457</name>
</trkpt>
<trkpt lat="41.639852" lon="-0.750222">
<ele>262.0</ele>
<speed>18.5</speed>
<course>186.1</course>
<desc>Speed 18.5 km/h Distance 42.97 km</desc>
<time>2011-09-29T11:56:18.54</time>
<name>6458</name>
</trkpt>
<trkpt lat="41.639805" lon="-0.750228">
<ele>262.0</ele>
<speed>18.5</speed>
<course>191.4</course>
<desc>Speed 18.5 km/h Distance 42.98 km</desc>
<time>2011-09-29T11:56:19.55</time>
<name>6459</name>
</trkpt>
<trkpt lat="41.639762" lon="-0.750240">
<ele>262.0</ele>
<speed>18.1</speed>
<course>199.0</course>
<desc>Speed 18.1 km/h Distance 42.98 km</desc>
<time>2011-09-29T11:56:20.54</time>
<name>6460</name>
</trkpt>
<trkpt lat="41.639718" lon="-0.750260">
<ele>262.0</ele>
<speed>18.4</speed>
<course>206.5</course>
<desc>Speed 18.4 km/h Distance 42.99 km</desc>
<time>2011-09-29T11:56:21.54</time>
<name>6461</name>
</trkpt>
<trkpt lat="41.639678" lon="-0.750287">
<ele>262.0</ele>
<speed>18.1</speed>
<course>205.5</course>
<desc>Speed 18.1 km/h Distance 42.99 km</desc>
<time>2011-09-29T11:56:22.54</time>
<name>6462</name>
</trkpt>
<trkpt lat="41.639637" lon="-0.750313">
<ele>262.0</ele>
<speed>18.4</speed>
<course>207.9</course>
<desc>Speed 18.4 km/h Distance 43.00 km</desc>
<time>2011-09-29T11:56:23.54</time>
<name>6463</name>
</trkpt>
<trkpt lat="41.639597" lon="-0.750342">
<ele>262.5</ele>
<speed>18.3</speed>
<course>210.3</course>
<desc>Speed 18.3 km/h Distance 43.00 km</desc>
<time>2011-09-29T11:56:24.54</time>
<name>6464</name>
</trkpt>
<trkpt lat="41.639558" lon="-0.750372">
<ele>262.5</ele>
<speed>18.1</speed>
<course>211.0</course>
<desc>Speed 18.1 km/h Distance 43.01 km</desc>
<time>2011-09-29T11:56:25.94</time>
<name>6465</name>
</trkpt>
<trkpt lat="41.639482" lon="-0.750433">
<ele>263.0</ele>
<speed>18.1</speed>
<course>208.9</course>
<desc>Speed 18.1 km/h Distance 43.02 km</desc>
<time>2011-09-29T11:56:27.53</time>
<name>6466</name>
</trkpt>
<trkpt lat="41.639443" lon="-0.750462">
<ele>263.0</ele>
<speed>17.7</speed>
<course>210.3</course>
<desc>Speed 17.7 km/h Distance 43.02 km</desc>
<time>2011-09-29T11:56:28.53</time>
<name>6467</name>
</trkpt>
<trkpt lat="41.639405" lon="-0.750492">
<ele>263.0</ele>
<speed>17.7</speed>
<course>212.8</course>
<desc>Speed 17.7 km/h Distance 43.03 km</desc>
<time>2011-09-29T11:56:29.53</time>
<name>6468</name>
</trkpt>
<trkpt lat="41.639368" lon="-0.750523">
<ele>263.5</ele>
<speed>17.9</speed>
<course>211.7</course>
<desc>Speed 17.9 km/h Distance 43.03 km</desc>
<time>2011-09-29T11:56:30.53</time>
<name>6469</name>
</trkpt>
<trkpt lat="41.639330" lon="-0.750555">
<ele>263.5</ele>
<speed>18.1</speed>
<course>211.7</course>
<desc>Speed 18.1 km/h Distance 43.04 km</desc>
<time>2011-09-29T11:56:31.54</time>
<name>6470</name>
</trkpt>
<trkpt lat="41.639292" lon="-0.750587">
<ele>264.0</ele>
<speed>18.0</speed>
<course>210.9</course>
<desc>Speed 18.0 km/h Distance 43.04 km</desc>
<time>2011-09-29T11:56:32.88</time>
<name>6471</name>
</trkpt>
<trkpt lat="41.639217" lon="-0.750647">
<ele>264.5</ele>
<speed>17.9</speed>
<course>209.3</course>
<desc>Speed 17.9 km/h Distance 43.05 km</desc>
<time>2011-09-29T11:56:34.53</time>
<name>6472</name>
</trkpt>
<trkpt lat="41.639177" lon="-0.750677">
<ele>265.0</ele>
<speed>18.0</speed>
<course>210.6</course>
<desc>Speed 18.0 km/h Distance 43.06 km</desc>
<time>2011-09-29T11:56:35.68</time>
<name>6473</name>
</trkpt>
<trkpt lat="41.639137" lon="-0.750708">
<ele>265.5</ele>
<speed>18.8</speed>
<course>209.6</course>
<desc>Speed 18.8 km/h Distance 43.06 km</desc>
<time>2011-09-29T11:56:36.53</time>
<name>6474</name>
</trkpt>
<trkpt lat="41.639095" lon="-0.750740">
<ele>266.0</ele>
<speed>18.9</speed>
<course>210.7</course>
<desc>Speed 18.9 km/h Distance 43.07 km</desc>
<time>2011-09-29T11:56:37.53</time>
<name>6475</name>
</trkpt>
<trkpt lat="41.639055" lon="-0.750772">
<ele>266.0</ele>
<speed>19.0</speed>
<course>210.6</course>
<desc>Speed 19.0 km/h Distance 43.07 km</desc>
<time>2011-09-29T11:56:38.52</time>
<name>6476</name>
</trkpt>
<trkpt lat="41.639015" lon="-0.750803">
<ele>266.5</ele>
<speed>18.6</speed>
<course>210.6</course>
<desc>Speed 18.6 km/h Distance 43.08 km</desc>
<time>2011-09-29T11:56:39.53</time>
<name>6477</name>
</trkpt>
<trkpt lat="41.638975" lon="-0.750835">
<ele>266.5</ele>
<speed>18.3</speed>
<course>212.8</course>
<desc>Speed 18.3 km/h Distance 43.08 km</desc>
<time>2011-09-29T11:56:40.53</time>
<name>6478</name>
</trkpt>
<trkpt lat="41.638938" lon="-0.750867">
<ele>266.5</ele>
<speed>18.0</speed>
<course>207.9</course>
<desc>Speed 18.0 km/h Distance 43.09 km</desc>
<time>2011-09-29T11:56:41.53</time>
<name>6479</name>
</trkpt>
<trkpt lat="41.638898" lon="-0.750895">
<ele>267.0</ele>
<speed>18.4</speed>
<course>211.7</course>
<desc>Speed 18.4 km/h Distance 43.09 km</desc>
<time>2011-09-29T11:56:42.65</time>
<name>6480</name>
</trkpt>
<trkpt lat="41.638860" lon="-0.750927">
<ele>267.0</ele>
<speed>18.4</speed>
<course>210.6</course>
<desc>Speed 18.4 km/h Distance 43.10 km</desc>
<time>2011-09-29T11:56:43.53</time>
<name>6481</name>
</trkpt>
<trkpt lat="41.638820" lon="-0.750958">
<ele>267.0</ele>
<speed>18.7</speed>
<course>213.0</course>
<desc>Speed 18.7 km/h Distance 43.10 km</desc>
<time>2011-09-29T11:56:44.52</time>
<name>6482</name>
</trkpt>
<trkpt lat="41.638782" lon="-0.750992">
<ele>267.5</ele>
<speed>18.7</speed>
<course>213.0</course>
<desc>Speed 18.7 km/h Distance 43.11 km</desc>
<time>2011-09-29T11:56:45.53</time>
<name>6483</name>
</trkpt>
<trkpt lat="41.638743" lon="-0.751025">
<ele>267.5</ele>
<speed>18.5</speed>
<course>211.7</course>
<desc>Speed 18.5 km/h Distance 43.11 km</desc>
<time>2011-09-29T11:56:46.52</time>
<name>6484</name>
</trkpt>
<trkpt lat="41.638705" lon="-0.751057">
<ele>267.5</ele>
<speed>18.4</speed>
<course>211.7</course>
<desc>Speed 18.4 km/h Distance 43.12 km</desc>
<time>2011-09-29T11:56:47.52</time>
<name>6485</name>
</trkpt>
<trkpt lat="41.638667" lon="-0.751088">
<ele>267.5</ele>
<speed>18.3</speed>
<course>213.0</course>
<desc>Speed 18.3 km/h Distance 43.12 km</desc>
<time>2011-09-29T11:56:48.52</time>
<name>6486</name>
</trkpt>
<trkpt lat="41.638628" lon="-0.751122">
<ele>267.5</ele>
<speed>18.3</speed>
<course>213.0</course>
<desc>Speed 18.3 km/h Distance 43.13 km</desc>
<time>2011-09-29T11:56:49.52</time>
<name>6487</name>
</trkpt>
<trkpt lat="41.638590" lon="-0.751155">
<ele>267.5</ele>
<speed>18.3</speed>
<course>210.6</course>
<desc>Speed 18.3 km/h Distance 43.13 km</desc>
<time>2011-09-29T11:56:50.52</time>
<name>6488</name>
</trkpt>
<trkpt lat="41.638550" lon="-0.751187">
<ele>268.0</ele>
<speed>19.3</speed>
<course>210.9</course>
<desc>Speed 19.3 km/h Distance 43.14 km</desc>
<time>2011-09-29T11:56:51.52</time>
<name>6489</name>
</trkpt>
<trkpt lat="41.638508" lon="-0.751220">
<ele>268.0</ele>
<speed>19.7</speed>
<course>209.9</course>
<desc>Speed 19.7 km/h Distance 43.14 km</desc>
<time>2011-09-29T11:56:52.52</time>
<name>6490</name>
</trkpt>
<trkpt lat="41.638465" lon="-0.751253">
<ele>268.0</ele>
<speed>20.0</speed>
<course>213.3</course>
<desc>Speed 20.0 km/h Distance 43.15 km</desc>
<time>2011-09-29T11:56:53.53</time>
<name>6491</name>
</trkpt>
<trkpt lat="41.638423" lon="-0.751290">
<ele>267.5</ele>
<speed>20.0</speed>
<course>210.1</course>
<desc>Speed 20.0 km/h Distance 43.16 km</desc>
<time>2011-09-29T11:56:55.22</time>
<name>6492</name>
</trkpt>
<trkpt lat="41.638290" lon="-0.751393">
<ele>267.5</ele>
<speed>21.2</speed>
<course>212.5</course>
<desc>Speed 21.2 km/h Distance 43.17 km</desc>
<time>2011-09-29T11:56:57.52</time>
<name>6493</name>
</trkpt>
<trkpt lat="41.638245" lon="-0.751432">
<ele>267.0</ele>
<speed>21.6</speed>
<course>212.5</course>
<desc>Speed 21.6 km/h Distance 43.18 km</desc>
<time>2011-09-29T11:56:58.52</time>
<name>6494</name>
</trkpt>
<trkpt lat="41.638200" lon="-0.751470">
<ele>267.0</ele>
<speed>21.7</speed>
<course>213.7</course>
<desc>Speed 21.7 km/h Distance 43.18 km</desc>
<time>2011-09-29T11:56:59.52</time>
<name>6495</name>
</trkpt>
<trkpt lat="41.638153" lon="-0.751512">
<ele>267.0</ele>
<speed>22.3</speed>
<course>212.6</course>
<desc>Speed 22.3 km/h Distance 43.19 km</desc>
<time>2011-09-29T11:57:00.52</time>
<name>6496</name>
</trkpt>
<trkpt lat="41.638107" lon="-0.751552">
<ele>267.0</ele>
<speed>22.3</speed>
<course>203.7</course>
<desc>Speed 22.3 km/h Distance 43.20 km</desc>
<time>2011-09-29T11:57:01.51</time>
<name>6497</name>
</trkpt>
<trkpt lat="41.638058" lon="-0.751580">
<ele>266.5</ele>
<speed>21.6</speed>
<course>187.5</course>
<desc>Speed 21.6 km/h Distance 43.20 km</desc>
<time>2011-09-29T11:57:02.52</time>
<name>6498</name>
</trkpt>
<trkpt lat="41.638002" lon="-0.751590">
<ele>266.0</ele>
<speed>23.1</speed>
<course>171.5</course>
<desc>Speed 23.1 km/h Distance 43.21 km</desc>
<time>2011-09-29T11:57:03.51</time>
<name>6499</name>
</trkpt>
<trkpt lat="41.637943" lon="-0.751578">
<ele>265.5</ele>
<speed>23.5</speed>
<course>148.0</course>
<desc>Speed 23.5 km/h Distance 43.22 km</desc>
<time>2011-09-29T11:57:05.11</time>
<name>6500</name>
</trkpt>
<trkpt lat="41.637790" lon="-0.751450">
<ele>264.0</ele>
<speed>26.0</speed>
<course>133.9</course>
<desc>Speed 26.0 km/h Distance 43.24 km</desc>
<time>2011-09-29T11:57:07.51</time>
<name>6501</name>
</trkpt>
<trkpt lat="41.637743" lon="-0.751385">
<ele>264.0</ele>
<speed>27.0</speed>
<course>133.1</course>
<desc>Speed 27.0 km/h Distance 43.24 km</desc>
<time>2011-09-29T11:57:08.51</time>
<name>6502</name>
</trkpt>
<trkpt lat="41.637697" lon="-0.751318">
<ele>263.5</ele>
<speed>27.6</speed>
<course>135.1</course>
<desc>Speed 27.6 km/h Distance 43.25 km</desc>
<time>2011-09-29T11:57:09.51</time>
<name>6503</name>
</trkpt>
<trkpt lat="41.637647" lon="-0.751252">
<ele>263.0</ele>
<speed>28.9</speed>
<course>138.5</course>
<desc>Speed 28.9 km/h Distance 43.26 km</desc>
<time>2011-09-29T11:57:10.51</time>
<name>6504</name>
</trkpt>
<trkpt lat="41.637592" lon="-0.751187">
<ele>262.5</ele>
<speed>29.7</speed>
<course>144.7</course>
<desc>Speed 29.7 km/h Distance 43.27 km</desc>
<time>2011-09-29T11:57:11.51</time>
<name>6505</name>
</trkpt>
<trkpt lat="41.637528" lon="-0.751127">
<ele>261.5</ele>
<speed>30.8</speed>
<course>171.5</course>
<desc>Speed 30.8 km/h Distance 43.28 km</desc>
<time>2011-09-29T11:57:12.51</time>
<name>6506</name>
</trkpt>
<trkpt lat="41.637445" lon="-0.751110">
<ele>260.5</ele>
<speed>34.3</speed>
<course>175.4</course>
<desc>Speed 34.3 km/h Distance 43.28 km</desc>
<time>2011-09-29T11:57:13.52</time>
<name>6507</name>
</trkpt>
<trkpt lat="41.637213" lon="-0.751085">
<ele>259.5</ele>
<speed>25.7</speed>
<course>144.9</course>
<desc>Speed 25.7 km/h Distance 43.31 km</desc>
<time>2011-09-29T11:57:16.51</time>
<name>6508</name>
</trkpt>
<trkpt lat="41.637157" lon="-0.751032">
<ele>260.0</ele>
<speed>27.8</speed>
<course>131.1</course>
<desc>Speed 27.8 km/h Distance 43.32 km</desc>
<time>2011-09-29T11:57:17.51</time>
<name>6509</name>
</trkpt>
<trkpt lat="41.637107" lon="-0.750955">
<ele>258.5</ele>
<speed>30.6</speed>
<course>118.4</course>
<desc>Speed 30.6 km/h Distance 43.33 km</desc>
<time>2011-09-29T11:57:18.51</time>
<name>6510</name>
</trkpt>
<trkpt lat="41.637075" lon="-0.750877">
<ele>258.5</ele>
<speed>26.7</speed>
<course>123.1</course>
<desc>Speed 26.7 km/h Distance 43.33 km</desc>
<time>2011-09-29T11:57:19.51</time>
<name>6511</name>
</trkpt>
<trkpt lat="41.637042" lon="-0.750808">
<ele>258.5</ele>
<speed>24.3</speed>
<course>136.5</course>
<desc>Speed 24.3 km/h Distance 43.34 km</desc>
<time>2011-09-29T11:57:20.50</time>
<name>6512</name>
</trkpt>
<trkpt lat="41.636998" lon="-0.750753">
<ele>258.5</ele>
<speed>23.7</speed>
<course>142.3</course>
<desc>Speed 23.7 km/h Distance 43.35 km</desc>
<time>2011-09-29T11:57:21.50</time>
<name>6513</name>
</trkpt>
<trkpt lat="41.636952" lon="-0.750705">
<ele>258.5</ele>
<speed>23.6</speed>
<course>149.3</course>
<desc>Speed 23.6 km/h Distance 43.35 km</desc>
<time>2011-09-29T11:57:22.52</time>
<name>6514</name>
</trkpt>
<trkpt lat="41.636903" lon="-0.750667">
<ele>258.5</ele>
<speed>22.6</speed>
<course>157.1</course>
<desc>Speed 22.6 km/h Distance 43.36 km</desc>
<time>2011-09-29T11:57:23.50</time>
<name>6515</name>
</trkpt>
<trkpt lat="41.636853" lon="-0.750638">
<ele>258.5</ele>
<speed>22.2</speed>
<course>160.8</course>
<desc>Speed 22.2 km/h Distance 43.37 km</desc>
<time>2011-09-29T11:57:24.50</time>
<name>6516</name>
</trkpt>
<trkpt lat="41.636803" lon="-0.750615">
<ele>258.0</ele>
<speed>21.3</speed>
<course>158.9</course>
<desc>Speed 21.3 km/h Distance 43.37 km</desc>
<time>2011-09-29T11:57:25.97</time>
<name>6517</name>
</trkpt>
<trkpt lat="41.636707" lon="-0.750565">
<ele>258.0</ele>
<speed>21.1</speed>
<course>156.4</course>
<desc>Speed 21.1 km/h Distance 43.38 km</desc>
<time>2011-09-29T11:57:27.50</time>
<name>6518</name>
</trkpt>
<trkpt lat="41.636658" lon="-0.750537">
<ele>258.0</ele>
<speed>21.4</speed>
<course>153.9</course>
<desc>Speed 21.4 km/h Distance 43.39 km</desc>
<time>2011-09-29T11:57:28.50</time>
<name>6519</name>
</trkpt>
<trkpt lat="41.636610" lon="-0.750505">
<ele>258.0</ele>
<speed>21.8</speed>
<course>156.3</course>
<desc>Speed 21.8 km/h Distance 43.40 km</desc>
<time>2011-09-29T11:57:29.49</time>
<name>6520</name>
</trkpt>
<trkpt lat="41.636562" lon="-0.750477">
<ele>258.0</ele>
<speed>21.5</speed>
<course>157.7</course>
<desc>Speed 21.5 km/h Distance 43.40 km</desc>
<time>2011-09-29T11:57:30.49</time>
<name>6521</name>
</trkpt>
<trkpt lat="41.636510" lon="-0.750448">
<ele>257.5</ele>
<speed>22.8</speed>
<course>158.3</course>
<desc>Speed 22.8 km/h Distance 43.41 km</desc>
<time>2011-09-29T11:57:31.49</time>
<name>6522</name>
</trkpt>
<trkpt lat="41.636457" lon="-0.750420">
<ele>257.5</ele>
<speed>22.8</speed>
<course>154.3</course>
<desc>Speed 22.8 km/h Distance 43.41 km</desc>
<time>2011-09-29T11:57:32.49</time>
<name>6523</name>
</trkpt>
<trkpt lat="41.636405" lon="-0.750387">
<ele>258.0</ele>
<speed>22.8</speed>
<course>153.1</course>
<desc>Speed 22.8 km/h Distance 43.42 km</desc>
<time>2011-09-29T11:57:33.50</time>
<name>6524</name>
</trkpt>
<trkpt lat="41.636353" lon="-0.750352">
<ele>257.5</ele>
<speed>23.0</speed>
<course>156.5</course>
<desc>Speed 23.0 km/h Distance 43.43 km</desc>
<time>2011-09-29T11:57:34.49</time>
<name>6525</name>
</trkpt>
<trkpt lat="41.636302" lon="-0.750322">
<ele>258.0</ele>
<speed>22.4</speed>
<course>156.5</course>
<desc>Speed 22.4 km/h Distance 43.43 km</desc>
<time>2011-09-29T11:57:35.69</time>
<name>6526</name>
</trkpt>
<trkpt lat="41.636198" lon="-0.750262">
<ele>258.0</ele>
<speed>22.2</speed>
<course>148.3</course>
<desc>Speed 22.2 km/h Distance 43.45 km</desc>
<time>2011-09-29T11:57:37.49</time>
<name>6527</name>
</trkpt>
<trkpt lat="41.636160" lon="-0.750230">
<ele>257.5</ele>
<speed>17.5</speed>
<course>156.7</course>
<desc>Speed 17.5 km/h Distance 43.45 km</desc>
<time>2011-09-29T11:57:38.49</time>
<name>6528</name>
</trkpt>
<trkpt lat="41.636117" lon="-0.750205">
<ele>257.0</ele>
<speed>18.6</speed>
<course>155.8</course>
<desc>Speed 18.6 km/h Distance 43.46 km</desc>
<time>2011-09-29T11:57:39.50</time>
<name>6529</name>
</trkpt>
<trkpt lat="41.636075" lon="-0.750180">
<ele>257.0</ele>
<speed>18.3</speed>
<course>155.0</course>
<desc>Speed 18.3 km/h Distance 43.46 km</desc>
<time>2011-09-29T11:57:40.49</time>
<name>6530</name>
</trkpt>
<trkpt lat="41.636035" lon="-0.750155">
<ele>257.0</ele>
<speed>17.7</speed>
<course>154.5</course>
<desc>Speed 17.7 km/h Distance 43.47 km</desc>
<time>2011-09-29T11:57:41.49</time>
<name>6531</name>
</trkpt>
<trkpt lat="41.635993" lon="-0.750128">
<ele>257.0</ele>
<speed>17.6</speed>
<course>164.3</course>
<desc>Speed 17.6 km/h Distance 43.47 km</desc>
<time>2011-09-29T11:57:42.86</time>
<name>6532</name>
</trkpt>
<trkpt lat="41.635905" lon="-0.750095">
<ele>257.5</ele>
<speed>17.5</speed>
<course>186.5</course>
<desc>Speed 17.5 km/h Distance 43.48 km</desc>
<time>2011-09-29T11:57:44.49</time>
<name>6533</name>
</trkpt>
<trkpt lat="41.635862" lon="-0.750102">
<ele>257.5</ele>
<speed>16.7</speed>
<course>204.9</course>
<desc>Speed 16.7 km/h Distance 43.49 km</desc>
<time>2011-09-29T11:57:45.66</time>
<name>6534</name>
</trkpt>
<trkpt lat="41.635827" lon="-0.750123">
<ele>258.0</ele>
<speed>15.8</speed>
<course>216.8</course>
<desc>Speed 15.8 km/h Distance 43.49 km</desc>
<time>2011-09-29T11:57:46.49</time>
<name>6535</name>
</trkpt>
<trkpt lat="41.635793" lon="-0.750157">
<ele>258.0</ele>
<speed>16.3</speed>
<course>223.1</course>
<desc>Speed 16.3 km/h Distance 43.50 km</desc>
<time>2011-09-29T11:57:47.49</time>
<name>6536</name>
</trkpt>
<trkpt lat="41.635760" lon="-0.750198">
<ele>258.5</ele>
<speed>17.8</speed>
<course>224.2</course>
<desc>Speed 17.8 km/h Distance 43.50 km</desc>
<time>2011-09-29T11:57:48.49</time>
<name>6537</name>
</trkpt>
<trkpt lat="41.635727" lon="-0.750242">
<ele>258.5</ele>
<speed>18.8</speed>
<course>219.3</course>
<desc>Speed 18.8 km/h Distance 43.51 km</desc>
<time>2011-09-29T11:57:49.48</time>
<name>6538</name>
</trkpt>
<trkpt lat="41.635692" lon="-0.750280">
<ele>259.0</ele>
<speed>18.1</speed>
<course>205.5</course>
<desc>Speed 18.1 km/h Distance 43.51 km</desc>
<time>2011-09-29T11:57:50.48</time>
<name>6539</name>
</trkpt>
<trkpt lat="41.635650" lon="-0.750307">
<ele>259.0</ele>
<speed>18.4</speed>
<course>192.9</course>
<desc>Speed 18.4 km/h Distance 43.52 km</desc>
<time>2011-09-29T11:57:51.48</time>
<name>6540</name>
</trkpt>
<trkpt lat="41.635607" lon="-0.750320">
<ele>259.0</ele>
<speed>17.7</speed>
<course>167.1</course>
<desc>Speed 17.7 km/h Distance 43.52 km</desc>
<time>2011-09-29T11:57:52.77</time>
<name>6541</name>
</trkpt>
<trkpt lat="41.635525" lon="-0.750295">
<ele>259.0</ele>
<speed>17.0</speed>
<course>145.8</course>
<desc>Speed 17.0 km/h Distance 43.53 km</desc>
<time>2011-09-29T11:57:54.49</time>
<name>6542</name>
</trkpt>
<trkpt lat="41.635488" lon="-0.750262">
<ele>259.0</ele>
<speed>17.7</speed>
<course>142.0</course>
<desc>Speed 17.7 km/h Distance 43.54 km</desc>
<time>2011-09-29T11:57:55.57</time>
<name>6543</name>
</trkpt>
<trkpt lat="41.635450" lon="-0.750222">
<ele>259.0</ele>
<speed>19.5</speed>
<course>143.2</course>
<desc>Speed 19.5 km/h Distance 43.54 km</desc>
<time>2011-09-29T11:57:56.49</time>
<name>6544</name>
</trkpt>
<trkpt lat="41.635410" lon="-0.750182">
<ele>259.0</ele>
<speed>20.1</speed>
<course>142.0</course>
<desc>Speed 20.1 km/h Distance 43.55 km</desc>
<time>2011-09-29T11:57:57.49</time>
<name>6545</name>
</trkpt>
<trkpt lat="41.635375" lon="-0.750145">
<ele>258.5</ele>
<speed>17.4</speed>
<course>139.3</course>
<desc>Speed 17.4 km/h Distance 43.55 km</desc>
<time>2011-09-29T11:57:58.49</time>
<name>6546</name>
</trkpt>
<trkpt lat="41.635342" lon="-0.750107">
<ele>258.5</ele>
<speed>17.4</speed>
<course>135.1</course>
<desc>Speed 17.4 km/h Distance 43.56 km</desc>
<time>2011-09-29T11:57:59.48</time>
<name>6547</name>
</trkpt>
<trkpt lat="41.635312" lon="-0.750067">
<ele>258.5</ele>
<speed>17.1</speed>
<course>126.4</course>
<desc>Speed 17.1 km/h Distance 43.56 km</desc>
<time>2011-09-29T11:58:00.48</time>
<name>6548</name>
</trkpt>
<trkpt lat="41.635285" lon="-0.750018">
<ele>258.5</ele>
<speed>18.5</speed>
<course>131.3</course>
<desc>Speed 18.5 km/h Distance 43.57 km</desc>
<time>2011-09-29T11:58:01.48</time>
<name>6549</name>
</trkpt>
<trkpt lat="41.635253" lon="-0.749970">
<ele>258.0</ele>
<speed>19.8</speed>
<course>141.0</course>
<desc>Speed 19.8 km/h Distance 43.57 km</desc>
<time>2011-09-29T11:58:02.84</time>
<name>6550</name>
</trkpt>
<trkpt lat="41.635173" lon="-0.749883">
<ele>259.5</ele>
<speed>22.3</speed>
<course>149.1</course>
<desc>Speed 22.3 km/h Distance 43.58 km</desc>
<time>2011-09-29T11:58:04.48</time>
<name>6551</name>
</trkpt>
<trkpt lat="41.635132" lon="-0.749850">
<ele>260.0</ele>
<speed>19.0</speed>
<course>155.3</course>
<desc>Speed 19.0 km/h Distance 43.59 km</desc>
<time>2011-09-29T11:58:05.64</time>
<name>6552</name>
</trkpt>
<trkpt lat="41.635032" lon="-0.749788">
<ele>260.0</ele>
<speed>22.8</speed>
<course>155.6</course>
<desc>Speed 22.8 km/h Distance 43.60 km</desc>
<time>2011-09-29T11:58:07.48</time>
<name>6553</name>
</trkpt>
<trkpt lat="41.634985" lon="-0.749760">
<ele>260.0</ele>
<speed>20.8</speed>
<course>160.3</course>
<desc>Speed 20.8 km/h Distance 43.61 km</desc>
<time>2011-09-29T11:58:08.47</time>
<name>6554</name>
</trkpt>
<trkpt lat="41.634947" lon="-0.749742">
<ele>258.0</ele>
<speed>17.7</speed>
<course>167.7</course>
<desc>Speed 17.7 km/h Distance 43.61 km</desc>
<time>2011-09-29T11:58:09.48</time>
<name>6555</name>
</trkpt>
<trkpt lat="41.634907" lon="-0.749730">
<ele>258.0</ele>
<speed>17.4</speed>
<course>169.9</course>
<desc>Speed 17.4 km/h Distance 43.61 km</desc>
<time>2011-09-29T11:58:10.47</time>
<name>6556</name>
</trkpt>
<trkpt lat="41.634865" lon="-0.749720">
<ele>258.5</ele>
<speed>18.0</speed>
<course>168.2</course>
<desc>Speed 18.0 km/h Distance 43.62 km</desc>
<time>2011-09-29T11:58:11.47</time>
<name>6557</name>
</trkpt>
<trkpt lat="41.634823" lon="-0.749708">
<ele>258.5</ele>
<speed>18.8</speed>
<course>167.9</course>
<desc>Speed 18.8 km/h Distance 43.62 km</desc>
<time>2011-09-29T11:58:12.47</time>
<name>6558</name>
</trkpt>
<trkpt lat="41.634777" lon="-0.749695">
<ele>259.0</ele>
<speed>20.8</speed>
<course>166.0</course>
<desc>Speed 20.8 km/h Distance 43.63 km</desc>
<time>2011-09-29T11:58:13.47</time>
<name>6559</name>
</trkpt>
<trkpt lat="41.634727" lon="-0.749678">
<ele>259.0</ele>
<speed>21.0</speed>
<course>166.9</course>
<desc>Speed 21.0 km/h Distance 43.64 km</desc>
<time>2011-09-29T11:58:14.47</time>
<name>6560</name>
</trkpt>
<trkpt lat="41.634678" lon="-0.749663">
<ele>259.0</ele>
<speed>20.8</speed>
<course>166.5</course>
<desc>Speed 20.8 km/h Distance 43.64 km</desc>
<time>2011-09-29T11:58:15.93</time>
<name>6561</name>
</trkpt>
<trkpt lat="41.634580" lon="-0.749632">
<ele>259.0</ele>
<speed>21.5</speed>
<course>169.9</course>
<desc>Speed 21.5 km/h Distance 43.65 km</desc>
<time>2011-09-29T11:58:17.47</time>
<name>6562</name>
</trkpt>
<trkpt lat="41.634538" lon="-0.749622">
<ele>258.0</ele>
<speed>17.0</speed>
<course>190.3</course>
<desc>Speed 17.0 km/h Distance 43.66 km</desc>
<time>2011-09-29T11:58:18.48</time>
<name>6563</name>
</trkpt>
<trkpt lat="41.634483" lon="-0.749635">
<ele>257.0</ele>
<speed>22.1</speed>
<course>208.1</course>
<desc>Speed 22.1 km/h Distance 43.66 km</desc>
<time>2011-09-29T11:58:19.49</time>
<name>6564</name>
</trkpt>
<trkpt lat="41.634437" lon="-0.749668">
<ele>257.0</ele>
<speed>21.0</speed>
<course>205.3</course>
<desc>Speed 21.0 km/h Distance 43.67 km</desc>
<time>2011-09-29T11:58:20.47</time>
<name>6565</name>
</trkpt>
<trkpt lat="41.634387" lon="-0.749700">
<ele>257.0</ele>
<speed>21.8</speed>
<course>174.9</course>
<desc>Speed 21.8 km/h Distance 43.68 km</desc>
<time>2011-09-29T11:58:21.47</time>
<name>6566</name>
</trkpt>
<trkpt lat="41.634317" lon="-0.749692">
<ele>257.5</ele>
<speed>27.3</speed>
<course>152.7</course>
<desc>Speed 27.3 km/h Distance 43.68 km</desc>
<time>2011-09-29T11:58:22.47</time>
<name>6567</name>
</trkpt>
<trkpt lat="41.634268" lon="-0.749658">
<ele>257.5</ele>
<speed>21.2</speed>
<course>128.5</course>
<desc>Speed 21.2 km/h Distance 43.69 km</desc>
<time>2011-09-29T11:58:23.47</time>
<name>6568</name>
</trkpt>
<trkpt lat="41.634237" lon="-0.749605">
<ele>256.5</ele>
<speed>20.0</speed>
<course>119.1</course>
<desc>Speed 20.0 km/h Distance 43.69 km</desc>
<time>2011-09-29T11:58:24.46</time>
<name>6569</name>
</trkpt>
<trkpt lat="41.634212" lon="-0.749545">
<ele>257.0</ele>
<speed>21.3</speed>
<course>124.5</course>
<desc>Speed 21.3 km/h Distance 43.70 km</desc>
<time>2011-09-29T11:58:26.24</time>
<name>6570</name>
</trkpt>
<trkpt lat="41.634117" lon="-0.749360">
<ele>256.0</ele>
<speed>23.0</speed>
<course>126.5</course>
<desc>Speed 23.0 km/h Distance 43.72 km</desc>
<time>2011-09-29T11:58:28.46</time>
<name>6571</name>
</trkpt>
<trkpt lat="41.634082" lon="-0.749297">
<ele>255.5</ele>
<speed>23.9</speed>
<course>123.8</course>
<desc>Speed 23.9 km/h Distance 43.73 km</desc>
<time>2011-09-29T11:58:29.46</time>
<name>6572</name>
</trkpt>
<trkpt lat="41.634048" lon="-0.749230">
<ele>255.5</ele>
<speed>24.6</speed>
<course>124.4</course>
<desc>Speed 24.6 km/h Distance 43.73 km</desc>
<time>2011-09-29T11:58:30.46</time>
<name>6573</name>
</trkpt>
<trkpt lat="41.634013" lon="-0.749162">
<ele>255.5</ele>
<speed>24.8</speed>
<course>123.2</course>
<desc>Speed 24.8 km/h Distance 43.74 km</desc>
<time>2011-09-29T11:58:31.46</time>
<name>6574</name>
</trkpt>
<trkpt lat="41.633978" lon="-0.749090">
<ele>255.0</ele>
<speed>25.8</speed>
<course>121.3</course>
<desc>Speed 25.8 km/h Distance 43.75 km</desc>
<time>2011-09-29T11:58:32.46</time>
<name>6575</name>
</trkpt>
<trkpt lat="41.633945" lon="-0.749017">
<ele>255.0</ele>
<speed>26.4</speed>
<course>118.7</course>
<desc>Speed 26.4 km/h Distance 43.75 km</desc>
<time>2011-09-29T11:58:33.45</time>
<name>6576</name>
</trkpt>
<trkpt lat="41.633915" lon="-0.748943">
<ele>254.5</ele>
<speed>25.9</speed>
<course>125.0</course>
<desc>Speed 25.9 km/h Distance 43.76 km</desc>
<time>2011-09-29T11:58:34.45</time>
<name>6577</name>
</trkpt>
<trkpt lat="41.633877" lon="-0.748870">
<ele>254.5</ele>
<speed>27.1</speed>
<course>128.4</course>
<desc>Speed 27.1 km/h Distance 43.77 km</desc>
<time>2011-09-29T11:58:36.14</time>
<name>6578</name>
</trkpt>
<trkpt lat="41.633770" lon="-0.748690">
<ele>254.0</ele>
<speed>17.0</speed>
<course>175.1</course>
<desc>Speed 17.0 km/h Distance 43.79 km</desc>
<time>2011-09-29T11:58:38.45</time>
<name>6579</name>
</trkpt>
<trkpt lat="41.633727" lon="-0.748685">
<ele>253.5</ele>
<speed>17.3</speed>
<course>206.9</course>
<desc>Speed 17.3 km/h Distance 43.79 km</desc>
<time>2011-09-29T11:58:39.45</time>
<name>6580</name>
</trkpt>
<trkpt lat="41.633675" lon="-0.748720">
<ele>252.5</ele>
<speed>23.0</speed>
<course>214.8</course>
<desc>Speed 23.0 km/h Distance 43.80 km</desc>
<time>2011-09-29T11:58:40.45</time>
<name>6581</name>
</trkpt>
<trkpt lat="41.633627" lon="-0.748765">
<ele>252.5</ele>
<speed>23.4</speed>
<course>219.8</course>
<desc>Speed 23.4 km/h Distance 43.80 km</desc>
<time>2011-09-29T11:58:41.45</time>
<name>6582</name>
</trkpt>
<trkpt lat="41.633583" lon="-0.748813">
<ele>252.5</ele>
<speed>22.8</speed>
<course>218.8</course>
<desc>Speed 22.8 km/h Distance 43.81 km</desc>
<time>2011-09-29T11:58:42.45</time>
<name>6583</name>
</trkpt>
<trkpt lat="41.633538" lon="-0.748862">
<ele>252.5</ele>
<speed>22.3</speed>
<course>217.8</course>
<desc>Speed 22.3 km/h Distance 43.82 km</desc>
<time>2011-09-29T11:58:43.45</time>
<name>6584</name>
</trkpt>
<trkpt lat="41.633495" lon="-0.748907">
<ele>252.0</ele>
<speed>22.0</speed>
<course>215.8</course>
<desc>Speed 22.0 km/h Distance 43.82 km</desc>
<time>2011-09-29T11:58:44.45</time>
<name>6585</name>
</trkpt>
<trkpt lat="41.633450" lon="-0.748950">
<ele>251.5</ele>
<speed>22.4</speed>
<course>213.3</course>
<desc>Speed 22.4 km/h Distance 43.83 km</desc>
<time>2011-09-29T11:58:45.93</time>
<name>6586</name>
</trkpt>
<trkpt lat="41.633355" lon="-0.749033">
<ele>251.5</ele>
<speed>22.4</speed>
<course>212.8</course>
<desc>Speed 22.4 km/h Distance 43.84 km</desc>
<time>2011-09-29T11:58:47.45</time>
<name>6587</name>
</trkpt>
<trkpt lat="41.633307" lon="-0.749075">
<ele>251.5</ele>
<speed>22.3</speed>
<course>211.6</course>
<desc>Speed 22.3 km/h Distance 43.85 km</desc>
<time>2011-09-29T11:58:48.45</time>
<name>6588</name>
</trkpt>
<trkpt lat="41.633260" lon="-0.749113">
<ele>251.0</ele>
<speed>22.0</speed>
<course>210.7</course>
<desc>Speed 22.0 km/h Distance 43.85 km</desc>
<time>2011-09-29T11:58:49.45</time>
<name>6589</name>
</trkpt>
<trkpt lat="41.633212" lon="-0.749152">
<ele>251.0</ele>
<speed>22.1</speed>
<course>212.6</course>
<desc>Speed 22.1 km/h Distance 43.86 km</desc>
<time>2011-09-29T11:58:50.44</time>
<name>6590</name>
</trkpt>
<trkpt lat="41.633165" lon="-0.749192">
<ele>251.0</ele>
<speed>22.1</speed>
<course>210.7</course>
<desc>Speed 22.1 km/h Distance 43.87 km</desc>
<time>2011-09-29T11:58:51.66</time>
<name>6591</name>
</trkpt>
<trkpt lat="41.633068" lon="-0.749268">
<ele>250.5</ele>
<speed>22.2</speed>
<course>210.7</course>
<desc>Speed 22.2 km/h Distance 43.88 km</desc>
<time>2011-09-29T11:58:53.44</time>
<name>6592</name>
</trkpt>
<trkpt lat="41.633020" lon="-0.749307">
<ele>250.5</ele>
<speed>22.6</speed>
<course>211.7</course>
<desc>Speed 22.6 km/h Distance 43.89 km</desc>
<time>2011-09-29T11:58:54.44</time>
<name>6593</name>
</trkpt>
<trkpt lat="41.632972" lon="-0.749347">
<ele>251.0</ele>
<speed>22.3</speed>
<course>212.6</course>
<desc>Speed 22.3 km/h Distance 43.89 km</desc>
<time>2011-09-29T11:58:55.44</time>
<name>6594</name>
</trkpt>
<trkpt lat="41.632925" lon="-0.749387">
<ele>250.5</ele>
<speed>22.1</speed>
<course>216.8</course>
<desc>Speed 22.1 km/h Distance 43.90 km</desc>
<time>2011-09-29T11:58:56.44</time>
<name>6595</name>
</trkpt>
<trkpt lat="41.632885" lon="-0.749427">
<ele>250.5</ele>
<speed>20.1</speed>
<course>213.2</course>
<desc>Speed 20.1 km/h Distance 43.90 km</desc>
<time>2011-09-29T11:58:57.44</time>
<name>6596</name>
</trkpt>
<trkpt lat="41.632845" lon="-0.749462">
<ele>250.5</ele>
<speed>19.0</speed>
<course>215.6</course>
<desc>Speed 19.0 km/h Distance 43.91 km</desc>
<time>2011-09-29T11:58:58.44</time>
<name>6597</name>
</trkpt>
<trkpt lat="41.632807" lon="-0.749498">
<ele>250.0</ele>
<speed>19.3</speed>
<course>216.8</course>
<desc>Speed 19.3 km/h Distance 43.91 km</desc>
<time>2011-09-29T11:58:59.44</time>
<name>6598</name>
</trkpt>
<trkpt lat="41.632767" lon="-0.749538">
<ele>250.0</ele>
<speed>19.7</speed>
<course>214.5</course>
<desc>Speed 19.7 km/h Distance 43.92 km</desc>
<time>2011-09-29T11:59:00.44</time>
<name>6599</name>
</trkpt>
<trkpt lat="41.632725" lon="-0.749577">
<ele>250.0</ele>
<speed>20.6</speed>
<course>213.3</course>
<desc>Speed 20.6 km/h Distance 43.93 km</desc>
<time>2011-09-29T11:59:01.44</time>
<name>6600</name>
</trkpt>
<trkpt lat="41.632683" lon="-0.749613">
<ele>249.5</ele>
<speed>19.9</speed>
<course>196.9</course>
<desc>Speed 19.9 km/h Distance 43.93 km</desc>
<time>2011-09-29T11:59:02.44</time>
<name>6601</name>
</trkpt>
<trkpt lat="41.632630" lon="-0.749635">
<ele>248.0</ele>
<speed>12.2</speed>
<course>218.6</course>
<desc>Speed 12.2 km/h Distance 43.94 km</desc>
<time>2011-09-29T11:59:04.43</time>
<name>6602</name>
</trkpt>
<trkpt lat="41.632605" lon="-0.749662">
<ele>248.0</ele>
<speed>12.6</speed>
<course>192.3</course>
<desc>Speed 12.6 km/h Distance 43.94 km</desc>
<time>2011-09-29T11:59:05.43</time>
<name>6603</name>
</trkpt>
<trkpt lat="41.632577" lon="-0.749670">
<ele>247.5</ele>
<speed>11.7</speed>
<course>220.5</course>
<desc>Speed 11.7 km/h Distance 43.94 km</desc>
<time>2011-09-29T11:59:06.44</time>
<name>6604</name>
</trkpt>
<trkpt lat="41.632553" lon="-0.749697">
<ele>247.5</ele>
<speed>12.5</speed>
<course>214.7</course>
<desc>Speed 12.5 km/h Distance 43.95 km</desc>
<time>2011-09-29T11:59:07.43</time>
<name>6605</name>
</trkpt>
<trkpt lat="41.632532" lon="-0.749717">
<ele>246.0</ele>
<speed>10.9</speed>
<course>218.7</course>
<desc>Speed 10.9 km/h Distance 43.95 km</desc>
<time>2011-09-29T11:59:08.43</time>
<name>6606</name>
</trkpt>
<trkpt lat="41.632508" lon="-0.749742">
<ele>245.0</ele>
<speed>12.0</speed>
<course>204.7</course>
<desc>Speed 12.0 km/h Distance 43.95 km</desc>
<time>2011-09-29T11:59:09.43</time>
<name>6607</name>
</trkpt>
<trkpt lat="41.632487" lon="-0.749755">
<ele>244.0</ele>
<speed>9.6</speed>
<course>211.5</course>
<desc>Speed 9.6 km/h Distance 43.96 km</desc>
<time>2011-09-29T11:59:10.43</time>
<name>6608</name>
</trkpt>
<trkpt lat="41.632468" lon="-0.749770">
<ele>244.0</ele>
<speed>8.7</speed>
<course>206.5</course>
<desc>Speed 8.7 km/h Distance 43.96 km</desc>
<time>2011-09-29T11:59:11.43</time>
<name>6609</name>
</trkpt>
<trkpt lat="41.632388" lon="-0.749823">
<ele>242.5</ele>
<speed>17.1</speed>
<course>215.1</course>
<desc>Speed 17.1 km/h Distance 43.97 km</desc>
<time>2011-09-29T11:59:13.43</time>
<name>6610</name>
</trkpt>
<trkpt lat="41.632360" lon="-0.749850">
<ele>242.0</ele>
<speed>13.8</speed>
<course>218.8</course>
<desc>Speed 13.8 km/h Distance 43.97 km</desc>
<time>2011-09-29T11:59:14.43</time>
<name>6611</name>
</trkpt>
<trkpt lat="41.632338" lon="-0.749873">
<ele>242.5</ele>
<speed>10.4</speed>
<course>200.4</course>
<desc>Speed 10.4 km/h Distance 43.98 km</desc>
<time>2011-09-29T11:59:15.42</time>
<name>6612</name>
</trkpt>
<trkpt lat="41.632322" lon="-0.749882">
<ele>243.0</ele>
<speed>7.0</speed>
<course>195.6</course>
<desc>Speed 7.0 km/h Distance 43.98 km</desc>
<time>2011-09-29T11:59:16.43</time>
<name>6613</name>
</trkpt>
<trkpt lat="41.632308" lon="-0.749887">
<ele>243.0</ele>
<speed>6.2</speed>
<course>206.6</course>
<desc>Speed 6.2 km/h Distance 43.98 km</desc>
<time>2011-09-29T11:59:17.42</time>
<name>6614</name>
</trkpt>
<trkpt lat="41.632293" lon="-0.749897">
<ele>243.0</ele>
<speed>6.4</speed>
<course>167.4</course>
<desc>Speed 6.4 km/h Distance 43.98 km</desc>
<time>2011-09-29T11:59:18.43</time>
<name>6615</name>
</trkpt>
<trkpt lat="41.632292" lon="-0.749897">
<ele>243.0</ele>
<speed>1.1</speed>
<course>55.7</course>
<desc>Speed 1.1 km/h Distance 43.98 km</desc>
<time>2011-09-29T11:59:19.44</time>
<name>6616</name>
</trkpt>
<trkpt lat="41.632293" lon="-0.749893">
<ele>243.0</ele>
<speed>1.1</speed>
<course>192.6</course>
<desc>Speed 1.1 km/h Distance 43.98 km</desc>
<time>2011-09-29T11:59:20.43</time>
<name>6617</name>
</trkpt>
<trkpt lat="41.632290" lon="-0.749895">
<ele>243.0</ele>
<speed>1.8</speed>
<course>41.9</course>
<desc>Speed 1.8 km/h Distance 43.98 km</desc>
<time>2011-09-29T11:59:21.43</time>
<name>6618</name>
</trkpt>
<trkpt lat="41.632307" lon="-0.749875">
<ele>243.0</ele>
<speed>2.6</speed>
<course>279.5</course>
<desc>Speed 2.6 km/h Distance 43.98 km</desc>
<time>2011-09-29T11:59:22.43</time>
<name>6619</name>
</trkpt>
<trkpt lat="41.632312" lon="-0.749915">
<ele>242.5</ele>
<speed>3.5</speed>
<course>211.8</course>
<desc>Speed 3.5 km/h Distance 43.99 km</desc>
<time>2011-09-29T11:59:23.42</time>
<name>6620</name>
</trkpt>
<trkpt lat="41.632302" lon="-0.749923">
<ele>243.5</ele>
<speed>4.4</speed>
<course>209.2</course>
<desc>Speed 4.4 km/h Distance 43.99 km</desc>
<time>2011-09-29T11:59:24.42</time>
<name>6621</name>
</trkpt>
<trkpt lat="41.632295" lon="-0.749928">
<ele>244.5</ele>
<speed>3.1</speed>
<course>205.4</course>
<desc>Speed 3.1 km/h Distance 43.99 km</desc>
<time>2011-09-29T11:59:25.43</time>
<name>6622</name>
</trkpt>
<trkpt lat="41.632290" lon="-0.749932">
<ele>244.5</ele>
<speed>3.1</speed>
<course>206.7</course>
<desc>Speed 3.1 km/h Distance 43.99 km</desc>
<time>2011-09-29T11:59:26.55</time>
<name>6623</name>
</trkpt>
<trkpt lat="41.632285" lon="-0.749935">
<ele>244.5</ele>
<speed>3.1</speed>
<course>217.2</course>
<desc>Speed 3.1 km/h Distance 43.99 km</desc>
<time>2011-09-29T11:59:27.42</time>
<name>6624</name>
</trkpt>
<trkpt lat="41.632282" lon="-0.749938">
<ele>245.0</ele>
<speed>3.1</speed>
<course>235.7</course>
<desc>Speed 3.1 km/h Distance 43.99 km</desc>
<time>2011-09-29T11:59:28.41</time>
<name>6625</name>
</trkpt>
<trkpt lat="41.632280" lon="-0.749942">
<ele>245.0</ele>
<speed>3.1</speed>
<course>217.2</course>
<desc>Speed 3.1 km/h Distance 43.99 km</desc>
<time>2011-09-29T11:59:29.39</time>
<name>6626</name>
</trkpt>
<trkpt lat="41.632278" lon="-0.749943">
<ele>245.0</ele>
<speed>3.1</speed>
<course>268.3</course>
<desc>Speed 3.1 km/h Distance 43.99 km</desc>
<time>2011-09-29T11:59:30.39</time>
<name>6627</name>
</trkpt>
<trkpt lat="41.632277" lon="-0.750018">
<ele>246.5</ele>
<speed>3.1</speed>
<course>270.0</course>
<desc>Speed 3.1 km/h Distance 44.00 km</desc>
<time>2011-09-29T11:59:32.54</time>
<name>6628</name>
</trkpt>
<trkpt lat="41.632277" lon="-0.750025">
<ele>246.5</ele>
<speed>3.1</speed>
<course>270.0</course>
<desc>Speed 3.1 km/h Distance 44.00 km</desc>
<time>2011-09-29T11:59:33.40</time>
<name>6629</name>
</trkpt>
<trkpt lat="41.632277" lon="-0.750027">
<ele>246.5</ele>
<speed>3.1</speed>
<course>270.0</course>
<desc>Speed 3.1 km/h Distance 44.00 km</desc>
<time>2011-09-29T11:59:34.54</time>
<name>6630</name>
</trkpt>
<trkpt lat="41.632277" lon="-0.750030">
<ele>246.5</ele>
<speed>3.1</speed>
<course>270.0</course>
<desc>Speed 3.1 km/h Distance 44.00 km</desc>
<time>2011-09-29T11:59:36.40</time>
<name>6631</name>
</trkpt>
<trkpt lat="41.632277" lon="-0.750032">
<ele>246.5</ele>
<speed>3.1</speed>
<course>322.8</course>
<desc>Speed 3.1 km/h Distance 44.00 km</desc>
<time>2011-09-29T11:59:37.40</time>
<name>6632</name>
</trkpt>
<trkpt lat="41.632278" lon="-0.750033">
<ele>246.5</ele>
<speed>3.1</speed>
<course>8.0</course>
<desc>Speed 3.1 km/h Distance 44.00 km</desc>
<time>2011-09-29T11:59:38.58</time>
<name>6633</name>
</trkpt>
<trkpt lat="41.632393" lon="-0.750012">
<ele>246.5</ele>
<speed>3.1</speed>
<course>12.6</course>
<desc>Speed 3.1 km/h Distance 44.01 km</desc>
<time>2011-09-29T11:59:41.40</time>
<name>6634</name>
</trkpt>
<trkpt lat="41.632397" lon="-0.750012">
<ele>246.5</ele>
<speed>3.1</speed>
<course>356.4</course>
<desc>Speed 3.1 km/h Distance 44.01 km</desc>
<time>2011-09-29T11:59:42.40</time>
<name>6635</name>
</trkpt>
<trkpt lat="41.632457" lon="-0.750017">
<ele>247.0</ele>
<speed>2.3</speed>
<course>356.4</course>
<desc>Speed 2.3 km/h Distance 44.02 km</desc>
<time>2011-09-29T11:59:44.98</time>
<name>6636</name>
</trkpt>
</trkseg>
</trk>
</gpx>
